<?xml version='1.0' encoding='UTF-8'?><gpx version="1.1" creator="JPX - https://github.com/jenetics/jpx" xmlns="http://www.topografix.com/GPX/1/1"><trk><trkseg><trkpt lat="45.076765750664876" lon="7.694313639982802"><ele>231.0</ele><time>2026-04-11T06:51:07.999Z</time></trkpt><trkpt lat="45.07670745408955" lon="7.6942587748713"><ele>231.0</ele><time>2026-04-11T06:51:31.999Z</time></trkpt><trkpt lat="45.076740145157835" lon="7.694336658744966"><ele>231.0</ele><time>2026-04-11T06:52:04.999Z</time></trkpt><trkpt lat="45.07676876130005" lon="7.694418127008942"><ele>231.0</ele><time>2026-04-11T06:52:19Z</time></trkpt><trkpt lat="45.07680352654082" lon="7.69449444379884"><ele>231.0</ele><time>2026-04-11T06:52:24Z</time></trkpt><trkpt lat="45.07684335189412" lon="7.6945639203308485"><ele>231.0</ele><time>2026-04-11T06:52:27Z</time></trkpt><trkpt lat="45.07689264413167" lon="7.694628820595493"><ele>231.0</ele><time>2026-04-11T06:52:30Z</time></trkpt><trkpt lat="45.07691169842942" lon="7.694738159963516"><ele>230.83333333333334</ele><time>2026-04-11T06:52:33Z</time></trkpt><trkpt lat="45.07696671706556" lon="7.694794130296081"><ele>230.66666666666669</ele><time>2026-04-11T06:52:35Z</time></trkpt><trkpt lat="45.076998510476834" lon="7.6948795792299265"><ele>230.5</ele><time>2026-04-11T06:52:37Z</time></trkpt><trkpt lat="45.077066789566764" lon="7.69496954570848"><ele>230.33333333333334</ele><time>2026-04-11T06:52:39Z</time></trkpt><trkpt lat="45.07708160665943" lon="7.695087487589893"><ele>230.16666666666669</ele><time>2026-04-11T06:52:41Z</time></trkpt><trkpt lat="45.07701721960307" lon="7.6951537326052195"><ele>230.0</ele><time>2026-04-11T06:52:42Z</time></trkpt><trkpt lat="45.077094864506314" lon="7.695222429452298"><ele>229.99999999999997</ele><time>2026-04-11T06:52:44Z</time></trkpt><trkpt lat="45.077131708227306" lon="7.695315036577949"><ele>230.0</ele><time>2026-04-11T06:52:46Z</time></trkpt><trkpt lat="45.07706669057959" lon="7.6953459596433635"><ele>229.99999999999997</ele><time>2026-04-11T06:52:48Z</time></trkpt><trkpt lat="45.07700258326741" lon="7.69541075062226"><ele>229.99999999999997</ele><time>2026-04-11T06:52:51Z</time></trkpt><trkpt lat="45.07693715784159" lon="7.695490233723071"><ele>230.0</ele><time>2026-04-11T06:52:54Z</time></trkpt><trkpt lat="45.076896458523855" lon="7.695570152422621"><ele>229.99999999999997</ele><time>2026-04-11T06:52:56Z</time></trkpt><trkpt lat="45.07684460646297" lon="7.695627799670765"><ele>229.99999999999997</ele><time>2026-04-11T06:52:58Z</time></trkpt><trkpt lat="45.076773275824294" lon="7.69569637499371"><ele>230.00000000000003</ele><time>2026-04-11T06:53:02Z</time></trkpt><trkpt lat="45.07668344871523" lon="7.695742880956506"><ele>230.0</ele><time>2026-04-11T06:53:05Z</time></trkpt><trkpt lat="45.076622920085825" lon="7.695778151373739"><ele>230.0</ele><time>2026-04-11T06:53:08Z</time></trkpt><trkpt lat="45.07655468041154" lon="7.6958828794246115"><ele>230.0</ele><time>2026-04-11T06:53:09.999Z</time></trkpt><trkpt lat="45.07649108125568" lon="7.695983167845962"><ele>230.00000000000003</ele><time>2026-04-11T06:53:12.999Z</time></trkpt><trkpt lat="45.07642162489735" lon="7.696019839294905"><ele>230.0</ele><time>2026-04-11T06:53:14.999Z</time></trkpt><trkpt lat="45.07635319153742" lon="7.6960933742018005"><ele>229.83333333333334</ele><time>2026-04-11T06:53:17.999Z</time></trkpt><trkpt lat="45.076281318066656" lon="7.696156333520884"><ele>229.66666666666669</ele><time>2026-04-11T06:53:19.999Z</time></trkpt><trkpt lat="45.07622176889465" lon="7.696202137561483"><ele>229.5</ele><time>2026-04-11T06:53:21.999Z</time></trkpt><trkpt lat="45.07616443261496" lon="7.696241987610757"><ele>229.33333333333331</ele><time>2026-04-11T06:53:24.999Z</time></trkpt><trkpt lat="45.076102895250116" lon="7.696331851982165"><ele>229.16666666666666</ele><time>2026-04-11T06:53:26.999Z</time></trkpt><trkpt lat="45.07604246451917" lon="7.696406512612591"><ele>229.0</ele><time>2026-04-11T06:53:28.999Z</time></trkpt><trkpt lat="45.075966883201694" lon="7.696452585647399"><ele>229.0</ele><time>2026-04-11T06:53:30.999Z</time></trkpt><trkpt lat="45.075893439663474" lon="7.696516380785671"><ele>228.99999999999997</ele><time>2026-04-11T06:53:33.999Z</time></trkpt><trkpt lat="45.075803477542124" lon="7.696588131504937"><ele>228.99999999999997</ele><time>2026-04-11T06:53:35.999Z</time></trkpt><trkpt lat="45.07572600868949" lon="7.69664137372462"><ele>229.0</ele><time>2026-04-11T06:53:37.999Z</time></trkpt><trkpt lat="45.075666758291916" lon="7.696688816224321"><ele>229.0</ele><time>2026-04-11T06:53:39.999Z</time></trkpt><trkpt lat="45.07557199689036" lon="7.6967645712790915"><ele>228.99999999999997</ele><time>2026-04-11T06:53:41.999Z</time></trkpt><trkpt lat="45.0755055843778" lon="7.696830785846235"><ele>229.0</ele><time>2026-04-11T06:53:43.999Z</time></trkpt><trkpt lat="45.075453405670274" lon="7.696894681287653"><ele>229.0</ele><time>2026-04-11T06:53:44.999Z</time></trkpt><trkpt lat="45.07533908252974" lon="7.696952526136458"><ele>229.0</ele><time>2026-04-11T06:53:47.999Z</time></trkpt><trkpt lat="45.075278649887906" lon="7.697018759524354"><ele>228.99999999999997</ele><time>2026-04-11T06:53:51.999Z</time></trkpt><trkpt lat="45.07521078837194" lon="7.69705732835192"><ele>229.0</ele><time>2026-04-11T06:53:53.999Z</time></trkpt><trkpt lat="45.07510910448347" lon="7.697142308559165"><ele>229.0</ele><time>2026-04-11T06:53:55.999Z</time></trkpt><trkpt lat="45.07503935986437" lon="7.697227953337861"><ele>228.99999999999997</ele><time>2026-04-11T06:53:56.999Z</time></trkpt><trkpt lat="45.07493973709933" lon="7.697341013384402"><ele>228.99999999999997</ele><time>2026-04-11T06:53:58.999Z</time></trkpt><trkpt lat="45.07488603367115" lon="7.697395539728592"><ele>229.0</ele><time>2026-04-11T06:53:59.999Z</time></trkpt><trkpt lat="45.074807257273626" lon="7.697491064707598"><ele>229.0</ele><time>2026-04-11T06:54:01.999Z</time></trkpt><trkpt lat="45.07471203696129" lon="7.697572868558817"><ele>228.39999999999998</ele><time>2026-04-11T06:54:03.999Z</time></trkpt><trkpt lat="45.074617275588636" lon="7.697649453501928"><ele>227.79999999999998</ele><time>2026-04-11T06:54:06.999Z</time></trkpt><trkpt lat="45.07453339662789" lon="7.697753653045105"><ele>227.20000000000002</ele><time>2026-04-11T06:54:08.999Z</time></trkpt><trkpt lat="45.074422589411995" lon="7.697862540813991"><ele>226.60000000000002</ele><time>2026-04-11T06:54:13.999Z</time></trkpt><trkpt lat="45.0743616465313" lon="7.6979170505432535"><ele>226.0</ele><time>2026-04-11T06:54:15.999Z</time></trkpt><trkpt lat="45.07442487853417" lon="7.698086929536389"><ele>225.8</ele><time>2026-04-11T06:54:19.999Z</time></trkpt><trkpt lat="45.07448063784456" lon="7.698207362406324"><ele>225.60000000000002</ele><time>2026-04-11T06:54:21.999Z</time></trkpt><trkpt lat="45.0745299186433" lon="7.698313802869155"><ele>225.4</ele><time>2026-04-11T06:54:23.999Z</time></trkpt><trkpt lat="45.07457299140337" lon="7.698387884680945"><ele>225.2</ele><time>2026-04-11T06:54:26Z</time></trkpt><trkpt lat="45.07463027515994" lon="7.698506316263945"><ele>225.0</ele><time>2026-04-11T06:54:28Z</time></trkpt><trkpt lat="45.0746934923141" lon="7.698638348983276"><ele>224.66666666666666</ele><time>2026-04-11T06:54:30Z</time></trkpt><trkpt lat="45.074735267225115" lon="7.6987431312821855"><ele>224.33333333333331</ele><time>2026-04-11T06:54:32Z</time></trkpt><trkpt lat="45.074799296356666" lon="7.698837022972775"><ele>224.0</ele><time>2026-04-11T06:54:34Z</time></trkpt><trkpt lat="45.07482311729263" lon="7.698936545431734"><ele>223.66666666666666</ele><time>2026-04-11T06:54:36Z</time></trkpt><trkpt lat="45.074864697466204" lon="7.69904374854337"><ele>223.33333333333331</ele><time>2026-04-11T06:54:38Z</time></trkpt><trkpt lat="45.07489446796625" lon="7.699151161545819"><ele>223.0</ele><time>2026-04-11T06:54:40Z</time></trkpt><trkpt lat="45.07492049203872" lon="7.69927895896698"><ele>223.49999999999997</ele><time>2026-04-11T06:54:42Z</time></trkpt><trkpt lat="45.07498075745658" lon="7.699395498655752"><ele>224.0</ele><time>2026-04-11T06:54:44Z</time></trkpt><trkpt lat="45.07501414143695" lon="7.699504078157398"><ele>224.5</ele><time>2026-04-11T06:54:46Z</time></trkpt><trkpt lat="45.07504478020724" lon="7.699621018330837"><ele>225.0</ele><time>2026-04-11T06:54:48Z</time></trkpt><trkpt lat="45.07506188472663" lon="7.699717845548613"><ele>225.49999999999997</ele><time>2026-04-11T06:54:50Z</time></trkpt><trkpt lat="45.07509439433046" lon="7.699837238645103"><ele>226.0</ele><time>2026-04-11T06:54:52Z</time></trkpt><trkpt lat="45.075118999394434" lon="7.699925816672153"><ele>226.20000000000002</ele><time>2026-04-11T06:54:54Z</time></trkpt><trkpt lat="45.075163281872925" lon="7.700086941920048"><ele>226.40000000000003</ele><time>2026-04-11T06:54:56Z</time></trkpt><trkpt lat="45.07519911105069" lon="7.700208733853268"><ele>226.6</ele><time>2026-04-11T06:54:58Z</time></trkpt><trkpt lat="45.07522417578545" lon="7.70031434951722"><ele>226.8</ele><time>2026-04-11T06:55:00Z</time></trkpt><trkpt lat="45.07524050800584" lon="7.700440291811207"><ele>227.0</ele><time>2026-04-11T06:55:02Z</time></trkpt><trkpt lat="45.07528482924035" lon="7.7005549935332755"><ele>226.50000000000003</ele><time>2026-04-11T06:55:04Z</time></trkpt><trkpt lat="45.07529903419347" lon="7.700664276646663"><ele>226.0</ele><time>2026-04-11T06:55:06Z</time></trkpt><trkpt lat="45.075324268103905" lon="7.700812686015922"><ele>225.5</ele><time>2026-04-11T06:55:08Z</time></trkpt><trkpt lat="45.07534703478074" lon="7.700937533428759"><ele>225.0</ele><time>2026-04-11T06:55:10Z</time></trkpt><trkpt lat="45.07537380909331" lon="7.701073128724844"><ele>224.50000000000003</ele><time>2026-04-11T06:55:12Z</time></trkpt><trkpt lat="45.075386567014824" lon="7.701162047980635"><ele>224.0</ele><time>2026-04-11T06:55:13Z</time></trkpt><trkpt lat="45.075416717776626" lon="7.701291967392175"><ele>223.6</ele><time>2026-04-11T06:55:14.999Z</time></trkpt><trkpt lat="45.07541875002731" lon="7.701381133415806"><ele>223.2</ele><time>2026-04-11T06:55:15.999Z</time></trkpt><trkpt lat="45.075446844653115" lon="7.701517237155364"><ele>222.79999999999998</ele><time>2026-04-11T06:55:17.999Z</time></trkpt><trkpt lat="45.0754630180392" lon="7.701626079786043"><ele>222.39999999999998</ele><time>2026-04-11T06:55:19.999Z</time></trkpt><trkpt lat="45.075486524494835" lon="7.701790691441126"><ele>222.0</ele><time>2026-04-11T06:55:21.999Z</time></trkpt><trkpt lat="45.07551429696349" lon="7.701942729870163"><ele>221.8</ele><time>2026-04-11T06:55:23.999Z</time></trkpt><trkpt lat="45.075513543354205" lon="7.702070474655962"><ele>221.6</ele><time>2026-04-11T06:55:25.999Z</time></trkpt><trkpt lat="45.075529830506504" lon="7.702204028899261"><ele>221.40000000000003</ele><time>2026-04-11T06:55:27.999Z</time></trkpt><trkpt lat="45.0755332339553" lon="7.702309529833314"><ele>221.20000000000002</ele><time>2026-04-11T06:55:29.999Z</time></trkpt><trkpt lat="45.07555450267418" lon="7.702446149574477"><ele>221.0</ele><time>2026-04-11T06:55:31.999Z</time></trkpt><trkpt lat="45.075565287739266" lon="7.702593872799551"><ele>221.0</ele><time>2026-04-11T06:55:33.999Z</time></trkpt><trkpt lat="45.07557680389518" lon="7.702729646576245"><ele>221.00000000000003</ele><time>2026-04-11T06:55:35.999Z</time></trkpt><trkpt lat="45.07558859232235" lon="7.7028675497835275"><ele>221.00000000000003</ele><time>2026-04-11T06:55:37.999Z</time></trkpt><trkpt lat="45.07560935871891" lon="7.703044307349678"><ele>221.0</ele><time>2026-04-11T06:55:39.999Z</time></trkpt><trkpt lat="45.075624015935155" lon="7.703199179256179"><ele>221.0</ele><time>2026-04-11T06:55:41.999Z</time></trkpt><trkpt lat="45.07564402680322" lon="7.703351421230371"><ele>221.33333333333334</ele><time>2026-04-11T06:55:43.999Z</time></trkpt><trkpt lat="45.07564150420366" lon="7.7035073465935575"><ele>221.66666666666669</ele><time>2026-04-11T06:55:45.999Z</time></trkpt><trkpt lat="45.07565324182021" lon="7.703637650797281"><ele>222.0</ele><time>2026-04-11T06:55:47.999Z</time></trkpt><trkpt lat="45.075677446474394" lon="7.703732704883111"><ele>222.33333333333331</ele><time>2026-04-11T06:55:49.999Z</time></trkpt><trkpt lat="45.075685607066845" lon="7.703838171838391"><ele>222.66666666666666</ele><time>2026-04-11T06:55:51.999Z</time></trkpt><trkpt lat="45.07568418203199" lon="7.7039378732258195"><ele>223.0</ele><time>2026-04-11T06:55:54.999Z</time></trkpt><trkpt lat="45.07568272020998" lon="7.704040148118417"><ele>223.0</ele><time>2026-04-11T06:56:00.999Z</time></trkpt><trkpt lat="45.07550594395288" lon="7.704206905038448"><ele>223.0</ele><time>2026-04-11T06:56:04.999Z</time></trkpt><trkpt lat="45.075438456215934" lon="7.704267475347648"><ele>223.0</ele><time>2026-04-11T06:56:07.999Z</time></trkpt><trkpt lat="45.075384802115494" lon="7.704314574847306"><ele>223.0</ele><time>2026-04-11T06:56:09.999Z</time></trkpt><trkpt lat="45.07532210821209" lon="7.7043698235099365"><ele>223.0</ele><time>2026-04-11T06:56:11.999Z</time></trkpt><trkpt lat="45.07526347151647" lon="7.704403574299827"><ele>222.66666666666666</ele><time>2026-04-11T06:56:14.999Z</time></trkpt><trkpt lat="45.07520550993106" lon="7.704468075747959"><ele>222.33333333333331</ele><time>2026-04-11T06:56:17.999Z</time></trkpt><trkpt lat="45.07514925173694" lon="7.70454872246113"><ele>222.0</ele><time>2026-04-11T06:56:19.999Z</time></trkpt><trkpt lat="45.075070471322256" lon="7.704637836129989"><ele>221.66666666666669</ele><time>2026-04-11T06:56:21.999Z</time></trkpt><trkpt lat="45.07499644705024" lon="7.704717139507024"><ele>221.33333333333334</ele><time>2026-04-11T06:56:23.999Z</time></trkpt><trkpt lat="45.074908030359346" lon="7.704673111543375"><ele>221.0</ele><time>2026-04-11T06:56:24.999Z</time></trkpt><trkpt lat="45.07481920081325" lon="7.704732688384329"><ele>221.8</ele><time>2026-04-11T06:56:26.999Z</time></trkpt><trkpt lat="45.074743489685595" lon="7.7048023751909875"><ele>222.60000000000002</ele><time>2026-04-11T06:56:28.999Z</time></trkpt><trkpt lat="45.07466833740673" lon="7.704850979415215"><ele>223.4</ele><time>2026-04-11T06:56:31Z</time></trkpt><trkpt lat="45.07459966343087" lon="7.704930875304652"><ele>224.2</ele><time>2026-04-11T06:56:33Z</time></trkpt><trkpt lat="45.07451962327054" lon="7.70500459157368"><ele>225.0</ele><time>2026-04-11T06:56:35Z</time></trkpt><trkpt lat="45.07444057677995" lon="7.705080035672032"><ele>225.0</ele><time>2026-04-11T06:56:37Z</time></trkpt><trkpt lat="45.07435908259597" lon="7.705149823583354"><ele>225.0</ele><time>2026-04-11T06:56:39Z</time></trkpt><trkpt lat="45.07428908244812" lon="7.705189910179065"><ele>225.0</ele><time>2026-04-11T06:56:41Z</time></trkpt><trkpt lat="45.074209299296086" lon="7.7052521043690865"><ele>225.0</ele><time>2026-04-11T06:56:43Z</time></trkpt><trkpt lat="45.07413037871701" lon="7.705317383348372"><ele>225.0</ele><time>2026-04-11T06:56:45Z</time></trkpt><trkpt lat="45.074039370955354" lon="7.705371908874174"><ele>224.66666666666666</ele><time>2026-04-11T06:56:47Z</time></trkpt><trkpt lat="45.073980172757985" lon="7.705436031098608"><ele>224.33333333333331</ele><time>2026-04-11T06:56:49Z</time></trkpt><trkpt lat="45.07392261435074" lon="7.705490871598337"><ele>224.0</ele><time>2026-04-11T06:56:51Z</time></trkpt><trkpt lat="45.07384223985993" lon="7.705548222635102"><ele>223.66666666666666</ele><time>2026-04-11T06:56:53Z</time></trkpt><trkpt lat="45.07378791725055" lon="7.705598811726078"><ele>223.33333333333331</ele><time>2026-04-11T06:56:55Z</time></trkpt><trkpt lat="45.07373042172923" lon="7.705670150979187"><ele>223.0</ele><time>2026-04-11T06:56:57Z</time></trkpt><trkpt lat="45.073651488288085" lon="7.705740335188181"><ele>222.99999999999997</ele><time>2026-04-11T06:56:59Z</time></trkpt><trkpt lat="45.07357163800371" lon="7.7058124765830565"><ele>223.0</ele><time>2026-04-11T06:57:01Z</time></trkpt><trkpt lat="45.073498102392854" lon="7.70586643312401"><ele>223.0</ele><time>2026-04-11T06:57:03Z</time></trkpt><trkpt lat="45.073433757180254" lon="7.7059226585963465"><ele>223.0</ele><time>2026-04-11T06:57:05Z</time></trkpt><trkpt lat="45.07335844129505" lon="7.705996500241813"><ele>222.99999999999997</ele><time>2026-04-11T06:57:07Z</time></trkpt><trkpt lat="45.07327218986309" lon="7.70603051550521"><ele>223.0</ele><time>2026-04-11T06:57:09Z</time></trkpt><trkpt lat="45.07321226563779" lon="7.706108369233805"><ele>223.33333333333331</ele><time>2026-04-11T06:57:11Z</time></trkpt><trkpt lat="45.07314123175926" lon="7.706182183893553"><ele>223.66666666666666</ele><time>2026-04-11T06:57:13Z</time></trkpt><trkpt lat="45.07307207941511" lon="7.706256590715389"><ele>224.0</ele><time>2026-04-11T06:57:15Z</time></trkpt><trkpt lat="45.07298526482614" lon="7.7063089768068265"><ele>224.33333333333331</ele><time>2026-04-11T06:57:17Z</time></trkpt><trkpt lat="45.072918860372695" lon="7.706377126479101"><ele>224.66666666666666</ele><time>2026-04-11T06:57:19Z</time></trkpt><trkpt lat="45.07285033995497" lon="7.706457279131016"><ele>225.0</ele><time>2026-04-11T06:57:20.999Z</time></trkpt><trkpt lat="45.07276704596701" lon="7.706520755061226"><ele>225.0</ele><time>2026-04-11T06:57:22.999Z</time></trkpt><trkpt lat="45.07268930769184" lon="7.706590460836484"><ele>225.0</ele><time>2026-04-11T06:57:24.999Z</time></trkpt><trkpt lat="45.072619383536285" lon="7.706646171464423"><ele>225.0</ele><time>2026-04-11T06:57:26.999Z</time></trkpt><trkpt lat="45.07255322635227" lon="7.706712662914521"><ele>225.0</ele><time>2026-04-11T06:57:28.999Z</time></trkpt><trkpt lat="45.07248211238694" lon="7.706765105805087"><ele>225.0</ele><time>2026-04-11T06:57:30.999Z</time></trkpt><trkpt lat="45.072424812096344" lon="7.70681059777697"><ele>225.0</ele><time>2026-04-11T06:57:32.999Z</time></trkpt><trkpt lat="45.07236179771734" lon="7.706883419608083"><ele>225.33333333333334</ele><time>2026-04-11T06:57:34.999Z</time></trkpt><trkpt lat="45.07228662501217" lon="7.706935969919954"><ele>225.66666666666669</ele><time>2026-04-11T06:57:36.999Z</time></trkpt><trkpt lat="45.07221999733945" lon="7.707014026858312"><ele>226.0</ele><time>2026-04-11T06:57:38.999Z</time></trkpt><trkpt lat="45.07214198185752" lon="7.707056171679874"><ele>226.33333333333334</ele><time>2026-04-11T06:57:41.999Z</time></trkpt><trkpt lat="45.072078081478956" lon="7.707093445452254"><ele>226.66666666666669</ele><time>2026-04-11T06:57:43.999Z</time></trkpt><trkpt lat="45.07201651170648" lon="7.707124589480083"><ele>227.0</ele><time>2026-04-11T06:57:45.999Z</time></trkpt><trkpt lat="45.07193742255961" lon="7.707155620447286"><ele>227.00000000000003</ele><time>2026-04-11T06:57:47.999Z</time></trkpt><trkpt lat="45.071876468883275" lon="7.7071843135181854"><ele>227.0</ele><time>2026-04-11T06:57:49.999Z</time></trkpt><trkpt lat="45.07180404537694" lon="7.707216857428063"><ele>227.0</ele><time>2026-04-11T06:57:51.999Z</time></trkpt><trkpt lat="45.07171999498573" lon="7.707244555353886"><ele>227.0</ele><time>2026-04-11T06:57:53.999Z</time></trkpt><trkpt lat="45.07162812717289" lon="7.7072687399655875"><ele>227.00000000000003</ele><time>2026-04-11T06:57:55.999Z</time></trkpt><trkpt lat="45.071562048308635" lon="7.707260348034209"><ele>227.0</ele><time>2026-04-11T06:57:56.999Z</time></trkpt><trkpt lat="45.07147267672861" lon="7.707286177508491"><ele>227.83333333333334</ele><time>2026-04-11T06:57:58.999Z</time></trkpt><trkpt lat="45.071398585691" lon="7.70727215009276"><ele>228.66666666666669</ele><time>2026-04-11T06:58:03.999Z</time></trkpt><trkpt lat="45.07130848228511" lon="7.707329446127322"><ele>229.5</ele><time>2026-04-11T06:58:06.999Z</time></trkpt><trkpt lat="45.07124935441612" lon="7.707294656124241"><ele>230.33333333333331</ele><time>2026-04-11T06:58:08.999Z</time></trkpt><trkpt lat="45.07116289400203" lon="7.707287076910561"><ele>231.16666666666666</ele><time>2026-04-11T06:58:10.999Z</time></trkpt><trkpt lat="45.07108693159172" lon="7.707281713994119"><ele>232.0</ele><time>2026-04-11T06:58:12.999Z</time></trkpt><trkpt lat="45.07099763252091" lon="7.707324982435596"><ele>232.0</ele><time>2026-04-11T06:58:14.999Z</time></trkpt><trkpt lat="45.070900767383044" lon="7.707381879091758"><ele>232.0</ele><time>2026-04-11T06:58:16.999Z</time></trkpt><trkpt lat="45.070792657141695" lon="7.707441089123543"><ele>232.0</ele><time>2026-04-11T06:58:18.999Z</time></trkpt><trkpt lat="45.07073529039078" lon="7.707498132772593"><ele>232.0</ele><time>2026-04-11T06:58:19.999Z</time></trkpt><trkpt lat="45.07059932368905" lon="7.707568004423059"><ele>232.0</ele><time>2026-04-11T06:58:21.999Z</time></trkpt><trkpt lat="45.070476715769544" lon="7.707657374399959"><ele>231.83333333333331</ele><time>2026-04-11T06:58:23.999Z</time></trkpt><trkpt lat="45.070410925563664" lon="7.707662388043215"><ele>231.66666666666666</ele><time>2026-04-11T06:58:24.999Z</time></trkpt><trkpt lat="45.0703330890968" lon="7.707671969612312"><ele>231.5</ele><time>2026-04-11T06:58:25.999Z</time></trkpt><trkpt lat="45.07025311864803" lon="7.707672573754979"><ele>231.33333333333331</ele><time>2026-04-11T06:58:26.999Z</time></trkpt><trkpt lat="45.07018453551891" lon="7.7076999538795"><ele>231.16666666666666</ele><time>2026-04-11T06:58:27.999Z</time></trkpt><trkpt lat="45.070115112055134" lon="7.707711046980756"><ele>231.0</ele><time>2026-04-11T06:58:28.999Z</time></trkpt><trkpt lat="45.0700015703988" lon="7.707769393129997"><ele>229.4</ele><time>2026-04-11T06:58:30.999Z</time></trkpt><trkpt lat="45.06989144969786" lon="7.707791936791161"><ele>227.8</ele><time>2026-04-11T06:58:32.999Z</time></trkpt><trkpt lat="45.069823651281396" lon="7.707804672823717"><ele>226.20000000000002</ele><time>2026-04-11T06:58:33.999Z</time></trkpt><trkpt lat="45.06971081899535" lon="7.707839866989201"><ele>224.60000000000002</ele><time>2026-04-11T06:58:35.998Z</time></trkpt><trkpt lat="45.069613821696606" lon="7.707825951554241"><ele>223.0</ele><time>2026-04-11T06:58:38Z</time></trkpt><trkpt lat="45.069507981733004" lon="7.707912089804373"><ele>222.99999999999997</ele><time>2026-04-11T06:58:40Z</time></trkpt><trkpt lat="45.0694192182394" lon="7.707956307717791"><ele>223.0</ele><time>2026-04-11T06:58:42Z</time></trkpt><trkpt lat="45.069349815523125" lon="7.707989818102468"><ele>223.0</ele><time>2026-04-11T06:58:44Z</time></trkpt><trkpt lat="45.06927425417182" lon="7.707966992362839"><ele>223.0</ele><time>2026-04-11T06:58:48Z</time></trkpt><trkpt lat="45.06919741397853" lon="7.70795515109458"><ele>222.99999999999997</ele><time>2026-04-11T06:58:50Z</time></trkpt><trkpt lat="45.06911570903434" lon="7.707875226636185"><ele>223.0</ele><time>2026-04-11T06:58:53Z</time></trkpt><trkpt lat="45.06903381362038" lon="7.707888299952965"><ele>221.33333333333331</ele><time>2026-04-11T06:58:55Z</time></trkpt><trkpt lat="45.068977094824874" lon="7.707756909224093"><ele>219.66666666666666</ele><time>2026-04-11T06:58:58Z</time></trkpt><trkpt lat="45.068900965211796" lon="7.707744824810355"><ele>218.0</ele><time>2026-04-11T06:59:07Z</time></trkpt><trkpt lat="45.06882299428654" lon="7.7077885813602345"><ele>216.33333333333331</ele><time>2026-04-11T06:59:10Z</time></trkpt><trkpt lat="45.06873809429241" lon="7.707825425900886"><ele>214.66666666666666</ele><time>2026-04-11T06:59:13Z</time></trkpt><trkpt lat="45.068662804306804" lon="7.707825620371627"><ele>213.0</ele><time>2026-04-11T07:00:13.999Z</time></trkpt><trkpt lat="45.06858710905653" lon="7.7078792909234695"><ele>213.0</ele><time>2026-04-11T07:00:16.999Z</time></trkpt><trkpt lat="45.06850853963664" lon="7.707931074272482"><ele>213.0</ele><time>2026-04-11T07:00:19.999Z</time></trkpt><trkpt lat="45.068435320367755" lon="7.707975503882616"><ele>213.0</ele><time>2026-04-11T07:00:22.999Z</time></trkpt><trkpt lat="45.068348671316215" lon="7.7080223159156915"><ele>213.0</ele><time>2026-04-11T07:00:25.999Z</time></trkpt><trkpt lat="45.06826836947056" lon="7.708071831773667"><ele>213.0</ele><time>2026-04-11T07:00:28.999Z</time></trkpt><trkpt lat="45.06821024406588" lon="7.7081122730815155"><ele>213.0</ele><time>2026-04-11T07:00:30.999Z</time></trkpt><trkpt lat="45.06814983188673" lon="7.7081409866970505"><ele>214.0</ele><time>2026-04-11T07:00:32.999Z</time></trkpt><trkpt lat="45.06808320537956" lon="7.708181920565823"><ele>215.0</ele><time>2026-04-11T07:00:34.999Z</time></trkpt><trkpt lat="45.06801898774044" lon="7.708219138338721"><ele>216.0</ele><time>2026-04-11T07:00:36.999Z</time></trkpt><trkpt lat="45.06795514055664" lon="7.708250559516935"><ele>217.0</ele><time>2026-04-11T07:00:38.999Z</time></trkpt><trkpt lat="45.06787661914657" lon="7.708278336671912"><ele>218.0</ele><time>2026-04-11T07:00:40.999Z</time></trkpt><trkpt lat="45.06779164141256" lon="7.708334697796225"><ele>219.0</ele><time>2026-04-11T07:00:44Z</time></trkpt><trkpt lat="45.067722483615775" lon="7.708366501137857"><ele>219.0</ele><time>2026-04-11T07:00:46Z</time></trkpt><trkpt lat="45.06765635878574" lon="7.708401455571639"><ele>219.0</ele><time>2026-04-11T07:00:48Z</time></trkpt><trkpt lat="45.06758741963908" lon="7.7084444300129435"><ele>219.0</ele><time>2026-04-11T07:00:50Z</time></trkpt><trkpt lat="45.06749870571502" lon="7.708517256029035"><ele>219.0</ele><time>2026-04-11T07:00:53Z</time></trkpt><trkpt lat="45.06740777067352" lon="7.708551857330468"><ele>219.0</ele><time>2026-04-11T07:00:56Z</time></trkpt><trkpt lat="45.06735894446528" lon="7.708617894540313"><ele>219.0</ele><time>2026-04-11T07:01:00Z</time></trkpt><trkpt lat="45.0673833480544" lon="7.7087269263628"><ele>219.2857142857143</ele><time>2026-04-11T07:01:03Z</time></trkpt><trkpt lat="45.06738542762765" lon="7.708816472388011"><ele>219.57142857142856</ele><time>2026-04-11T07:01:10Z</time></trkpt><trkpt lat="45.067415463039666" lon="7.70891881914055"><ele>219.85714285714286</ele><time>2026-04-11T07:01:56.999Z</time></trkpt><trkpt lat="45.06744942124253" lon="7.709013865186584"><ele>220.14285714285717</ele><time>2026-04-11T07:01:59.999Z</time></trkpt><trkpt lat="45.067503446319684" lon="7.70907835422035"><ele>220.42857142857144</ele><time>2026-04-11T07:02:04.999Z</time></trkpt><trkpt lat="45.06756722549843" lon="7.709123370442446"><ele>220.71428571428572</ele><time>2026-04-11T07:02:06.999Z</time></trkpt><trkpt lat="45.06762872206453" lon="7.709174948000832"><ele>221.0</ele><time>2026-04-11T07:02:10.999Z</time></trkpt><trkpt lat="45.06769216918041" lon="7.709189106219178"><ele>221.00000000000003</ele><time>2026-04-11T07:02:12.999Z</time></trkpt><trkpt lat="45.06775357724022" lon="7.70929392219882"><ele>221.0</ele><time>2026-04-11T07:02:16.999Z</time></trkpt><trkpt lat="45.06778228068864" lon="7.709378606472333"><ele>221.0</ele><time>2026-04-11T07:02:18.999Z</time></trkpt><trkpt lat="45.06781395862292" lon="7.709455992637796"><ele>221.0</ele><time>2026-04-11T07:02:20.999Z</time></trkpt><trkpt lat="45.067839662462994" lon="7.709589568467549"><ele>221.00000000000003</ele><time>2026-04-11T07:02:23.999Z</time></trkpt><trkpt lat="45.06785950124265" lon="7.709728127017478"><ele>221.0</ele><time>2026-04-11T07:02:25.999Z</time></trkpt><trkpt lat="45.06789266087944" lon="7.709837852086884"><ele>221.16666666666669</ele><time>2026-04-11T07:02:27.999Z</time></trkpt><trkpt lat="45.06793487693971" lon="7.709947029516784"><ele>221.33333333333334</ele><time>2026-04-11T07:02:29.999Z</time></trkpt><trkpt lat="45.06797233853285" lon="7.710050773885588"><ele>221.5</ele><time>2026-04-11T07:02:31.999Z</time></trkpt><trkpt lat="45.06800977388545" lon="7.710159426698714"><ele>221.66666666666669</ele><time>2026-04-11T07:02:33.999Z</time></trkpt><trkpt lat="45.06804943594145" lon="7.710267675341735"><ele>221.83333333333334</ele><time>2026-04-11T07:02:35.999Z</time></trkpt><trkpt lat="45.0680749119954" lon="7.710352994198096"><ele>222.0</ele><time>2026-04-11T07:02:37.999Z</time></trkpt><trkpt lat="45.06810995388404" lon="7.710484911730174"><ele>222.16666666666666</ele><time>2026-04-11T07:02:39.999Z</time></trkpt><trkpt lat="45.06814073271322" lon="7.710585256453984"><ele>222.33333333333331</ele><time>2026-04-11T07:02:41.999Z</time></trkpt><trkpt lat="45.06816464105321" lon="7.710706354601404"><ele>222.5</ele><time>2026-04-11T07:02:43.999Z</time></trkpt><trkpt lat="45.06818843988235" lon="7.71084443124146"><ele>222.66666666666666</ele><time>2026-04-11T07:02:46.998Z</time></trkpt><trkpt lat="45.06822415384759" lon="7.710952101257399"><ele>222.83333333333331</ele><time>2026-04-11T07:02:49Z</time></trkpt><trkpt lat="45.06823960259449" lon="7.711076699838302"><ele>223.0</ele><time>2026-04-11T07:02:51Z</time></trkpt><trkpt lat="45.06828113902914" lon="7.711195142945238"><ele>223.0</ele><time>2026-04-11T07:02:53Z</time></trkpt><trkpt lat="45.06832252485103" lon="7.711326106607111"><ele>223.0</ele><time>2026-04-11T07:02:55Z</time></trkpt><trkpt lat="45.068346631004886" lon="7.711470700440899"><ele>223.0</ele><time>2026-04-11T07:02:57Z</time></trkpt><trkpt lat="45.06837795696079" lon="7.71160075334684"><ele>223.0</ele><time>2026-04-11T07:02:59Z</time></trkpt><trkpt lat="45.06841263715741" lon="7.711732598868115"><ele>223.0</ele><time>2026-04-11T07:03:01Z</time></trkpt><trkpt lat="45.06843136395689" lon="7.711882400335629"><ele>223.4</ele><time>2026-04-11T07:03:03Z</time></trkpt><trkpt lat="45.06845998989555" lon="7.712023352292056"><ele>223.8</ele><time>2026-04-11T07:03:05Z</time></trkpt><trkpt lat="45.06849448269817" lon="7.712176021566442"><ele>224.2</ele><time>2026-04-11T07:03:07Z</time></trkpt><trkpt lat="45.06851731876848" lon="7.712321095757318"><ele>224.6</ele><time>2026-04-11T07:03:09Z</time></trkpt><trkpt lat="45.06854716668583" lon="7.712445894409848"><ele>225.0</ele><time>2026-04-11T07:03:11Z</time></trkpt><trkpt lat="45.068564910829764" lon="7.7125712471206205"><ele>225.0</ele><time>2026-04-11T07:03:13Z</time></trkpt><trkpt lat="45.06857504906077" lon="7.712720644919624"><ele>225.0</ele><time>2026-04-11T07:03:15Z</time></trkpt><trkpt lat="45.06859872000616" lon="7.7128777046717785"><ele>225.0</ele><time>2026-04-11T07:03:17Z</time></trkpt><trkpt lat="45.0686119988573" lon="7.712965059332616"><ele>225.0</ele><time>2026-04-11T07:03:18Z</time></trkpt><trkpt lat="45.068646174832274" lon="7.713102895597465"><ele>225.0</ele><time>2026-04-11T07:03:20Z</time></trkpt><trkpt lat="45.06866711304354" lon="7.71324244164027"><ele>224.4</ele><time>2026-04-11T07:03:22Z</time></trkpt><trkpt lat="45.06867534830252" lon="7.713365105600439"><ele>223.8</ele><time>2026-04-11T07:03:24Z</time></trkpt><trkpt lat="45.06863931879357" lon="7.7134777629957325"><ele>223.2</ele><time>2026-04-11T07:03:28Z</time></trkpt><trkpt lat="45.06866667702431" lon="7.713638480124819"><ele>222.6</ele><time>2026-04-11T07:03:30Z</time></trkpt><trkpt lat="45.0686963078958" lon="7.7137907733539315"><ele>222.0</ele><time>2026-04-11T07:03:32Z</time></trkpt><trkpt lat="45.06872475622397" lon="7.7138851243639595"><ele>222.0</ele><time>2026-04-11T07:03:33Z</time></trkpt><trkpt lat="45.06873281837599" lon="7.714028922985222"><ele>222.0</ele><time>2026-04-11T07:03:35Z</time></trkpt><trkpt lat="45.06876269621338" lon="7.714165571705988"><ele>222.0</ele><time>2026-04-11T07:03:37Z</time></trkpt><trkpt lat="45.068777800567894" lon="7.714260463607541"><ele>222.0</ele><time>2026-04-11T07:03:38Z</time></trkpt><trkpt lat="45.06880760636115" lon="7.714410055006488"><ele>222.0</ele><time>2026-04-11T07:03:40Z</time></trkpt><trkpt lat="45.06881827243261" lon="7.714555399369946"><ele>222.2</ele><time>2026-04-11T07:03:42Z</time></trkpt><trkpt lat="45.06883730019709" lon="7.714712113626342"><ele>222.39999999999998</ele><time>2026-04-11T07:03:43.999Z</time></trkpt><trkpt lat="45.06885511257518" lon="7.7148604303100115"><ele>222.60000000000002</ele><time>2026-04-11T07:03:45.999Z</time></trkpt><trkpt lat="45.06887722591003" lon="7.715006111144534"><ele>222.8</ele><time>2026-04-11T07:03:47.999Z</time></trkpt><trkpt lat="45.06889356806087" lon="7.715155867597413"><ele>223.0</ele><time>2026-04-11T07:03:49.999Z</time></trkpt><trkpt lat="45.06889283170843" lon="7.715301648797515"><ele>223.2</ele><time>2026-04-11T07:03:51.999Z</time></trkpt><trkpt lat="45.06891831014859" lon="7.71546286892491"><ele>223.4</ele><time>2026-04-11T07:03:53.999Z</time></trkpt><trkpt lat="45.06893581699789" lon="7.71560938520796"><ele>223.59999999999997</ele><time>2026-04-11T07:03:55.999Z</time></trkpt><trkpt lat="45.068946789051225" lon="7.715753266370444"><ele>223.79999999999998</ele><time>2026-04-11T07:03:57.999Z</time></trkpt><trkpt lat="45.06895970172524" lon="7.715903953362618"><ele>224.0</ele><time>2026-04-11T07:03:59.999Z</time></trkpt><trkpt lat="45.06897606728623" lon="7.7160423361913155"><ele>223.6</ele><time>2026-04-11T07:04:01.999Z</time></trkpt><trkpt lat="45.069000783601346" lon="7.716183482970957"><ele>223.2</ele><time>2026-04-11T07:04:03.999Z</time></trkpt><trkpt lat="45.06901669932015" lon="7.716333931846627"><ele>222.79999999999998</ele><time>2026-04-11T07:04:05.999Z</time></trkpt><trkpt lat="45.06904231578457" lon="7.716489405156705"><ele>222.39999999999998</ele><time>2026-04-11T07:04:07.999Z</time></trkpt><trkpt lat="45.06905586980574" lon="7.716627521242269"><ele>222.0</ele><time>2026-04-11T07:04:09.999Z</time></trkpt><trkpt lat="45.06906224302531" lon="7.716717366761428"><ele>222.0</ele><time>2026-04-11T07:04:10.999Z</time></trkpt><trkpt lat="45.06906717096378" lon="7.716879774755866"><ele>222.0</ele><time>2026-04-11T07:04:12.999Z</time></trkpt><trkpt lat="45.0690885257505" lon="7.717030732996779"><ele>222.0</ele><time>2026-04-11T07:04:14.999Z</time></trkpt><trkpt lat="45.06910295260459" lon="7.717195750714673"><ele>222.0</ele><time>2026-04-11T07:04:16.999Z</time></trkpt><trkpt lat="45.06912150935052" lon="7.717339264567614"><ele>222.0</ele><time>2026-04-11T07:04:18.999Z</time></trkpt><trkpt lat="45.06915082255055" lon="7.717483579605728"><ele>222.39999999999998</ele><time>2026-04-11T07:04:20.999Z</time></trkpt><trkpt lat="45.06915977956872" lon="7.71763366520332"><ele>222.79999999999998</ele><time>2026-04-11T07:04:22.999Z</time></trkpt><trkpt lat="45.06917115228114" lon="7.717773187416287"><ele>223.2</ele><time>2026-04-11T07:04:24.999Z</time></trkpt><trkpt lat="45.0691908773433" lon="7.717898191251637"><ele>223.6</ele><time>2026-04-11T07:04:26.999Z</time></trkpt><trkpt lat="45.06920169546549" lon="7.717998618751948"><ele>224.0</ele><time>2026-04-11T07:04:27.999Z</time></trkpt><trkpt lat="45.069236093637144" lon="7.7181490355317965"><ele>224.0</ele><time>2026-04-11T07:04:29.999Z</time></trkpt><trkpt lat="45.0692508107542" lon="7.718287099219262"><ele>223.99999999999997</ele><time>2026-04-11T07:04:31.999Z</time></trkpt><trkpt lat="45.069272343049626" lon="7.718446400893109"><ele>223.99999999999997</ele><time>2026-04-11T07:04:33.999Z</time></trkpt><trkpt lat="45.069295006899765" lon="7.71858358559622"><ele>224.0</ele><time>2026-04-11T07:04:35.999Z</time></trkpt><trkpt lat="45.06929418647997" lon="7.718704263044984"><ele>224.0</ele><time>2026-04-11T07:04:37.999Z</time></trkpt><trkpt lat="45.069306755282476" lon="7.71884357424661"><ele>223.6</ele><time>2026-04-11T07:04:39.999Z</time></trkpt><trkpt lat="45.06933486528414" lon="7.718982858517164"><ele>223.2</ele><time>2026-04-11T07:04:41.999Z</time></trkpt><trkpt lat="45.06934376798104" lon="7.7191242206008805"><ele>222.79999999999998</ele><time>2026-04-11T07:04:43.999Z</time></trkpt><trkpt lat="45.0693675912955" lon="7.71926516901471"><ele>222.39999999999998</ele><time>2026-04-11T07:04:45.999Z</time></trkpt><trkpt lat="45.06937693229051" lon="7.719415697860097"><ele>222.0</ele><time>2026-04-11T07:04:47.999Z</time></trkpt><trkpt lat="45.069392045572336" lon="7.719502231410273"><ele>222.0</ele><time>2026-04-11T07:04:48.999Z</time></trkpt><trkpt lat="45.0691302800423" lon="7.719743028991611"><ele>222.0</ele><time>2026-04-11T07:04:50.999Z</time></trkpt><trkpt lat="45.0691562920772" lon="7.719893574729655"><ele>222.0</ele><time>2026-04-11T07:04:52.999Z</time></trkpt><trkpt lat="45.06917972230047" lon="7.720029178094613"><ele>222.0</ele><time>2026-04-11T07:04:55Z</time></trkpt><trkpt lat="45.069198279943336" lon="7.720136473527346"><ele>222.0</ele><time>2026-04-11T07:04:57Z</time></trkpt><trkpt lat="45.06921794622876" lon="7.720249728119843"><ele>222.0</ele><time>2026-04-11T07:04:59Z</time></trkpt><trkpt lat="45.069241658056484" lon="7.720385855718792"><ele>222.0</ele><time>2026-04-11T07:05:02Z</time></trkpt><trkpt lat="45.069264738025616" lon="7.720518698284944"><ele>222.0</ele><time>2026-04-11T07:05:04Z</time></trkpt><trkpt lat="45.06928745195754" lon="7.720649935603256"><ele>221.8</ele><time>2026-04-11T07:05:06Z</time></trkpt><trkpt lat="45.06931109548678" lon="7.72078580902246"><ele>221.6</ele><time>2026-04-11T07:05:08Z</time></trkpt><trkpt lat="45.06933569320026" lon="7.7209271658866125"><ele>221.40000000000003</ele><time>2026-04-11T07:05:10Z</time></trkpt><trkpt lat="45.06935913586051" lon="7.721061884959927"><ele>221.20000000000002</ele><time>2026-04-11T07:05:12Z</time></trkpt><trkpt lat="45.069383351593174" lon="7.721201046680423"><ele>221.0</ele><time>2026-04-11T07:05:14Z</time></trkpt><trkpt lat="45.06940944032518" lon="7.72135097205548"><ele>220.8</ele><time>2026-04-11T07:05:16Z</time></trkpt><trkpt lat="45.06943275433846" lon="7.7214832564618465"><ele>220.60000000000002</ele><time>2026-04-11T07:05:18Z</time></trkpt><trkpt lat="45.069456821350244" lon="7.721619564737203"><ele>220.4</ele><time>2026-04-11T07:05:20Z</time></trkpt><trkpt lat="45.06947800687443" lon="7.7217395531326645"><ele>220.2</ele><time>2026-04-11T07:05:22Z</time></trkpt><trkpt lat="45.069505052572126" lon="7.721892731777281"><ele>220.0</ele><time>2026-04-11T07:05:24Z</time></trkpt><trkpt lat="45.06953056184388" lon="7.722037208553376"><ele>219.8</ele><time>2026-04-11T07:05:26Z</time></trkpt><trkpt lat="45.069551258730655" lon="7.722154429439975"><ele>219.6</ele><time>2026-04-11T07:05:28Z</time></trkpt><trkpt lat="45.06957353583205" lon="7.72228060019284"><ele>219.39999999999998</ele><time>2026-04-11T07:05:30Z</time></trkpt><trkpt lat="45.06959242327428" lon="7.722387572943472"><ele>219.2</ele><time>2026-04-11T07:05:32Z</time></trkpt><trkpt lat="45.06961393071244" lon="7.722509384553832"><ele>219.0</ele><time>2026-04-11T07:05:34Z</time></trkpt><trkpt lat="45.069639736481605" lon="7.72265554058223"><ele>219.25</ele><time>2026-04-11T07:05:36Z</time></trkpt><trkpt lat="45.06966409464944" lon="7.722792096879858"><ele>219.5</ele><time>2026-04-11T07:05:38Z</time></trkpt><trkpt lat="45.06969284853554" lon="7.722953471445078"><ele>219.75</ele><time>2026-04-11T07:05:40Z</time></trkpt><trkpt lat="45.06971951158365" lon="7.723103111657894"><ele>220.0</ele><time>2026-04-11T07:05:42Z</time></trkpt><trkpt lat="45.070022748757786" lon="7.723158987756947"><ele>219.75</ele><time>2026-04-11T07:05:44Z</time></trkpt><trkpt lat="45.070057725392324" lon="7.723297317283615"><ele>219.5</ele><time>2026-04-11T07:05:46Z</time></trkpt><trkpt lat="45.070089553653325" lon="7.723431902977159"><ele>219.25</ele><time>2026-04-11T07:05:48Z</time></trkpt><trkpt lat="45.06997236805284" lon="7.723540442075862"><ele>219.0</ele><time>2026-04-11T07:05:48.999Z</time></trkpt><trkpt lat="45.07012194436601" lon="7.723633807116747"><ele>219.0</ele><time>2026-04-11T07:05:50.999Z</time></trkpt><trkpt lat="45.07015637784399" lon="7.723764370058078"><ele>219.0</ele><time>2026-04-11T07:05:52.999Z</time></trkpt><trkpt lat="45.07004455216005" lon="7.723953081573861"><ele>219.0</ele><time>2026-04-11T07:05:54.999Z</time></trkpt><trkpt lat="45.07023715417162" lon="7.724023782636429"><ele>219.0</ele><time>2026-04-11T07:05:56.999Z</time></trkpt><trkpt lat="45.07028866725381" lon="7.724159637783316"><ele>219.0</ele><time>2026-04-11T07:05:58.999Z</time></trkpt><trkpt lat="45.06995706879341" lon="7.724462933137234"><ele>219.0</ele><time>2026-04-11T07:06:00.999Z</time></trkpt><trkpt lat="45.06998545658714" lon="7.724591498186054"><ele>219.0</ele><time>2026-04-11T07:06:02.999Z</time></trkpt><trkpt lat="45.07022588874445" lon="7.724647142494974"><ele>219.0</ele><time>2026-04-11T07:06:04.999Z</time></trkpt><trkpt lat="45.07025911508463" lon="7.72477403704571"><ele>219.0</ele><time>2026-04-11T07:06:06.999Z</time></trkpt><trkpt lat="45.070326096436965" lon="7.7249973067895095"><ele>219.0</ele><time>2026-04-11T07:06:08.999Z</time></trkpt><trkpt lat="45.070365774873025" lon="7.725076893638833"><ele>219.0</ele><time>2026-04-11T07:06:09.999Z</time></trkpt><trkpt lat="45.070431703000374" lon="7.725192993811595"><ele>219.0</ele><time>2026-04-11T07:06:11.999Z</time></trkpt><trkpt lat="45.070476823100734" lon="7.7252692733695785"><ele>219.0</ele><time>2026-04-11T07:06:12.999Z</time></trkpt><trkpt lat="45.0705380799826" lon="7.725369903827803"><ele>219.0</ele><time>2026-04-11T07:06:14.999Z</time></trkpt><trkpt lat="45.07060738922333" lon="7.72548376239594"><ele>219.0</ele><time>2026-04-11T07:06:16.999Z</time></trkpt><trkpt lat="45.07066446150592" lon="7.725577518560388"><ele>219.0</ele><time>2026-04-11T07:06:18.999Z</time></trkpt><trkpt lat="45.07071378584448" lon="7.725652167546792"><ele>219.0</ele><time>2026-04-11T07:06:19.999Z</time></trkpt><trkpt lat="45.07077410305745" lon="7.7257375667419845"><ele>219.0</ele><time>2026-04-11T07:06:21.999Z</time></trkpt><trkpt lat="45.07082778455719" lon="7.725813570860021"><ele>219.0</ele><time>2026-04-11T07:06:23.999Z</time></trkpt><trkpt lat="45.07088103663447" lon="7.725888966878633"><ele>219.0</ele><time>2026-04-11T07:06:25.999Z</time></trkpt><trkpt lat="45.07092734113503" lon="7.7259545262916145"><ele>219.0</ele><time>2026-04-11T07:06:26.999Z</time></trkpt><trkpt lat="45.07100089131101" lon="7.726058661017782"><ele>218.33333333333331</ele><time>2026-04-11T07:06:28.999Z</time></trkpt><trkpt lat="45.071262164461075" lon="7.7257892256498595"><ele>217.66666666666666</ele><time>2026-04-11T07:06:29.999Z</time></trkpt><trkpt lat="45.07130894592198" lon="7.725858144710531"><ele>217.0</ele><time>2026-04-11T07:06:30.999Z</time></trkpt><trkpt lat="45.07137799738082" lon="7.7259728886981796"><ele>217.66666666666666</ele><time>2026-04-11T07:06:32.999Z</time></trkpt><trkpt lat="45.071443228128366" lon="7.726090549767966"><ele>218.33333333333331</ele><time>2026-04-11T07:06:34.999Z</time></trkpt><trkpt lat="45.07151462689121" lon="7.726196903419014"><ele>219.0</ele><time>2026-04-11T07:06:36.999Z</time></trkpt><trkpt lat="45.07156013342689" lon="7.726260797617914"><ele>219.66666666666669</ele><time>2026-04-11T07:06:37.999Z</time></trkpt><trkpt lat="45.07160203967014" lon="7.72633262690556"><ele>220.33333333333334</ele><time>2026-04-11T07:06:38.999Z</time></trkpt><trkpt lat="45.07165072594418" lon="7.726395282082085"><ele>221.0</ele><time>2026-04-11T07:06:39.999Z</time></trkpt><trkpt lat="45.071698387433266" lon="7.726454899805151"><ele>221.0</ele><time>2026-04-11T07:06:40.999Z</time></trkpt><trkpt lat="45.071767930519" lon="7.726563458568293"><ele>221.00000000000003</ele><time>2026-04-11T07:06:42.999Z</time></trkpt><trkpt lat="45.071831942219994" lon="7.726668161812128"><ele>221.00000000000003</ele><time>2026-04-11T07:06:44.999Z</time></trkpt><trkpt lat="45.07191399832614" lon="7.726780072099221"><ele>221.0</ele><time>2026-04-11T07:06:46.999Z</time></trkpt><trkpt lat="45.071986871710465" lon="7.72688792928297"><ele>221.0</ele><time>2026-04-11T07:06:48.999Z</time></trkpt><trkpt lat="45.07206365283305" lon="7.727009136239487"><ele>221.0</ele><time>2026-04-11T07:06:50.999Z</time></trkpt><trkpt lat="45.072132111356865" lon="7.727137376480014"><ele>221.00000000000003</ele><time>2026-04-11T07:06:52.999Z</time></trkpt><trkpt lat="45.07221322384792" lon="7.727263763125609"><ele>221.00000000000003</ele><time>2026-04-11T07:06:54.999Z</time></trkpt><trkpt lat="45.072280128292924" lon="7.727349559059282"><ele>221.0</ele><time>2026-04-11T07:06:56.999Z</time></trkpt><trkpt lat="45.07236843746853" lon="7.727431701451598"><ele>221.0</ele><time>2026-04-11T07:06:58.999Z</time></trkpt><trkpt lat="45.07246081697885" lon="7.727522155419749"><ele>221.0</ele><time>2026-04-11T07:07:01Z</time></trkpt><trkpt lat="45.07254373502891" lon="7.727606681054918"><ele>221.00000000000003</ele><time>2026-04-11T07:07:03Z</time></trkpt><trkpt lat="45.07262145122503" lon="7.727687397983256"><ele>221.00000000000003</ele><time>2026-04-11T07:07:05Z</time></trkpt><trkpt lat="45.072707962161346" lon="7.727769697190631"><ele>221.0</ele><time>2026-04-11T07:07:07Z</time></trkpt><trkpt lat="45.0727881929732" lon="7.7278401512679915"><ele>221.0</ele><time>2026-04-11T07:07:09Z</time></trkpt><trkpt lat="45.07287948790075" lon="7.727924025346236"><ele>221.20000000000002</ele><time>2026-04-11T07:07:11Z</time></trkpt><trkpt lat="45.07296115597043" lon="7.727996276723134"><ele>221.40000000000003</ele><time>2026-04-11T07:07:13Z</time></trkpt><trkpt lat="45.073062808742186" lon="7.728067284400555"><ele>221.6</ele><time>2026-04-11T07:07:15Z</time></trkpt><trkpt lat="45.073158984019564" lon="7.728135090980806"><ele>221.8</ele><time>2026-04-11T07:07:17Z</time></trkpt><trkpt lat="45.073267183914" lon="7.728216173071723"><ele>222.0</ele><time>2026-04-11T07:07:19Z</time></trkpt><trkpt lat="45.07335817195115" lon="7.728282416102477"><ele>220.6</ele><time>2026-04-11T07:07:21Z</time></trkpt><trkpt lat="45.07342162052251" lon="7.728308378222319"><ele>219.2</ele><time>2026-04-11T07:07:22Z</time></trkpt><trkpt lat="45.07352558695355" lon="7.728370843929578"><ele>217.8</ele><time>2026-04-11T07:07:24Z</time></trkpt><trkpt lat="45.07362400431054" lon="7.728403452411972"><ele>216.4</ele><time>2026-04-11T07:07:26Z</time></trkpt><trkpt lat="45.07369490811004" lon="7.7284474651463455"><ele>215.0</ele><time>2026-04-11T07:07:28Z</time></trkpt><trkpt lat="45.07380856057465" lon="7.728513634043938"><ele>216.2</ele><time>2026-04-11T07:07:30Z</time></trkpt><trkpt lat="45.07390133942172" lon="7.72858051366065"><ele>217.4</ele><time>2026-04-11T07:07:32Z</time></trkpt><trkpt lat="45.074003750056605" lon="7.728637742674929"><ele>218.60000000000002</ele><time>2026-04-11T07:07:34Z</time></trkpt><trkpt lat="45.074087724002496" lon="7.728677578397514"><ele>219.8</ele><time>2026-04-11T07:07:36Z</time></trkpt><trkpt lat="45.07418120190059" lon="7.728733842501731"><ele>221.0</ele><time>2026-04-11T07:07:38Z</time></trkpt><trkpt lat="45.07426450193903" lon="7.7287775648763075"><ele>221.0</ele><time>2026-04-11T07:07:40Z</time></trkpt><trkpt lat="45.07436045928742" lon="7.728827664329672"><ele>221.00000000000003</ele><time>2026-04-11T07:07:42Z</time></trkpt><trkpt lat="45.07445646799833" lon="7.7288486861095445"><ele>221.00000000000003</ele><time>2026-04-11T07:07:44Z</time></trkpt><trkpt lat="45.07455460935109" lon="7.728868355536693"><ele>221.0</ele><time>2026-04-11T07:07:46Z</time></trkpt><trkpt lat="45.07462105584843" lon="7.7288894902725005"><ele>221.0</ele><time>2026-04-11T07:07:47Z</time></trkpt><trkpt lat="45.07471596416246" lon="7.728861049150504"><ele>221.0</ele><time>2026-04-11T07:07:48.999Z</time></trkpt><trkpt lat="45.074780853775415" lon="7.728867274975941"><ele>221.00000000000003</ele><time>2026-04-11T07:07:49.999Z</time></trkpt><trkpt lat="45.07489498512168" lon="7.728860952430434"><ele>221.00000000000003</ele><time>2026-04-11T07:07:51.999Z</time></trkpt><trkpt lat="45.07499763516592" lon="7.728869177296696"><ele>221.0</ele><time>2026-04-11T07:07:53.999Z</time></trkpt><trkpt lat="45.075115242592" lon="7.728886802254946"><ele>221.0</ele><time>2026-04-11T07:07:55.999Z</time></trkpt><trkpt lat="45.07521990745812" lon="7.728893304760151"><ele>220.4</ele><time>2026-04-11T07:07:57.999Z</time></trkpt><trkpt lat="45.07531766453848" lon="7.728877769422536"><ele>219.8</ele><time>2026-04-11T07:07:59.999Z</time></trkpt><trkpt lat="45.07543352967353" lon="7.728882937991741"><ele>219.20000000000002</ele><time>2026-04-11T07:08:01.999Z</time></trkpt><trkpt lat="45.07550967457162" lon="7.7289014428927265"><ele>218.60000000000002</ele><time>2026-04-11T07:08:02.999Z</time></trkpt><trkpt lat="45.075590502836256" lon="7.728926886777444"><ele>218.0</ele><time>2026-04-11T07:08:03.999Z</time></trkpt><trkpt lat="45.075675525055985" lon="7.728951930408234"><ele>218.00000000000003</ele><time>2026-04-11T07:08:04.999Z</time></trkpt><trkpt lat="45.07575327832198" lon="7.728891305515501"><ele>218.0</ele><time>2026-04-11T07:08:06.999Z</time></trkpt><trkpt lat="45.0758190563766" lon="7.728853537340059"><ele>218.0</ele><time>2026-04-11T07:08:09.999Z</time></trkpt><trkpt lat="45.075914740469166" lon="7.728840591116194"><ele>218.0</ele><time>2026-04-11T07:08:11.999Z</time></trkpt><trkpt lat="45.07600254552314" lon="7.728825409730369"><ele>218.00000000000003</ele><time>2026-04-11T07:08:13.999Z</time></trkpt><trkpt lat="45.076086180840996" lon="7.728818136131196"><ele>218.0</ele><time>2026-04-11T07:08:15.999Z</time></trkpt><trkpt lat="45.07617980734201" lon="7.728811668453394"><ele>217.83333333333334</ele><time>2026-04-11T07:08:17.999Z</time></trkpt><trkpt lat="45.07627039186765" lon="7.728801267739886"><ele>217.66666666666669</ele><time>2026-04-11T07:08:19.999Z</time></trkpt><trkpt lat="45.076362135331756" lon="7.728783710403631"><ele>217.5</ele><time>2026-04-11T07:08:21.999Z</time></trkpt><trkpt lat="45.07644684008374" lon="7.728765614764352"><ele>217.33333333333331</ele><time>2026-04-11T07:08:23.999Z</time></trkpt><trkpt lat="45.07654178060752" lon="7.728776884713219"><ele>217.16666666666666</ele><time>2026-04-11T07:08:25.999Z</time></trkpt><trkpt lat="45.07660857020201" lon="7.728770658449722"><ele>217.0</ele><time>2026-04-11T07:08:27.999Z</time></trkpt><trkpt lat="45.07668889662978" lon="7.728755511588959"><ele>217.0</ele><time>2026-04-11T07:08:29.999Z</time></trkpt><trkpt lat="45.076763528980685" lon="7.728690430904709"><ele>217.0</ele><time>2026-04-11T07:08:32.999Z</time></trkpt><trkpt lat="45.07680815968223" lon="7.728610795842585"><ele>217.0</ele><time>2026-04-11T07:08:34.999Z</time></trkpt><trkpt lat="45.07692134743316" lon="7.728550537523301"><ele>217.0</ele><time>2026-04-11T07:08:36.999Z</time></trkpt><trkpt lat="45.07702574914435" lon="7.728471141083237"><ele>217.0</ele><time>2026-04-11T07:08:38.999Z</time></trkpt><trkpt lat="45.0771110954282" lon="7.72838420229664"><ele>216.6</ele><time>2026-04-11T07:08:40.999Z</time></trkpt><trkpt lat="45.07720392923903" lon="7.728292264754391"><ele>216.2</ele><time>2026-04-11T07:08:42.999Z</time></trkpt><trkpt lat="45.07729296612328" lon="7.728210399614857"><ele>215.8</ele><time>2026-04-11T07:08:44.999Z</time></trkpt><trkpt lat="45.07737215429759" lon="7.728117822057847"><ele>215.4</ele><time>2026-04-11T07:08:46.999Z</time></trkpt><trkpt lat="45.07745110810547" lon="7.728029525075854"><ele>215.0</ele><time>2026-04-11T07:08:48.999Z</time></trkpt><trkpt lat="45.07752300058847" lon="7.727945100083238"><ele>215.0</ele><time>2026-04-11T07:08:50.999Z</time></trkpt><trkpt lat="45.07759669719388" lon="7.727863496617193"><ele>215.0</ele><time>2026-04-11T07:08:52.999Z</time></trkpt><trkpt lat="45.077675152371015" lon="7.727775066222047"><ele>215.0</ele><time>2026-04-11T07:08:54.999Z</time></trkpt><trkpt lat="45.077741510552144" lon="7.7277012943277"><ele>215.0</ele><time>2026-04-11T07:08:56.999Z</time></trkpt><trkpt lat="45.077796856202546" lon="7.72763209427522"><ele>215.0</ele><time>2026-04-11T07:08:58.999Z</time></trkpt><trkpt lat="45.07787909738727" lon="7.727535839109556"><ele>214.8</ele><time>2026-04-11T07:09:00.999Z</time></trkpt><trkpt lat="45.077955120675774" lon="7.72743800915084"><ele>214.6</ele><time>2026-04-11T07:09:02.998Z</time></trkpt><trkpt lat="45.078051691332476" lon="7.727337788357237"><ele>214.39999999999998</ele><time>2026-04-11T07:09:04.998Z</time></trkpt><trkpt lat="45.07812008931916" lon="7.727250780206348"><ele>214.2</ele><time>2026-04-11T07:09:07Z</time></trkpt><trkpt lat="45.07821054783158" lon="7.727159672872366"><ele>214.0</ele><time>2026-04-11T07:09:09Z</time></trkpt><trkpt lat="45.078299342590434" lon="7.7270695384117865"><ele>214.0</ele><time>2026-04-11T07:09:11Z</time></trkpt><trkpt lat="45.07837847368281" lon="7.726981553339599"><ele>213.99999999999997</ele><time>2026-04-11T07:09:13Z</time></trkpt><trkpt lat="45.078464645226646" lon="7.726892586632162"><ele>213.99999999999997</ele><time>2026-04-11T07:09:15Z</time></trkpt><trkpt lat="45.07854255172191" lon="7.7268042506114964"><ele>214.0</ele><time>2026-04-11T07:09:17Z</time></trkpt><trkpt lat="45.07861806707128" lon="7.72671411291903"><ele>214.0</ele><time>2026-04-11T07:09:19Z</time></trkpt><trkpt lat="45.07870856760923" lon="7.726634926661567"><ele>214.2</ele><time>2026-04-11T07:09:21Z</time></trkpt><trkpt lat="45.078796817948096" lon="7.7265521525746585"><ele>214.39999999999998</ele><time>2026-04-11T07:09:23Z</time></trkpt><trkpt lat="45.07887297067588" lon="7.726475783114148"><ele>214.6</ele><time>2026-04-11T07:09:25Z</time></trkpt><trkpt lat="45.078955249218986" lon="7.726400300475195"><ele>214.8</ele><time>2026-04-11T07:09:27Z</time></trkpt><trkpt lat="45.07902570506548" lon="7.72633533076327"><ele>215.0</ele><time>2026-04-11T07:09:29Z</time></trkpt><trkpt lat="45.0791039378984" lon="7.726265497785546"><ele>215.0</ele><time>2026-04-11T07:09:31Z</time></trkpt><trkpt lat="45.079188885711496" lon="7.726182511350393"><ele>215.0</ele><time>2026-04-11T07:09:33Z</time></trkpt><trkpt lat="45.07929344561368" lon="7.7261034342243455"><ele>215.0</ele><time>2026-04-11T07:09:35Z</time></trkpt><trkpt lat="45.079362382990645" lon="7.726075665098666"><ele>215.0</ele><time>2026-04-11T07:09:36Z</time></trkpt><trkpt lat="45.079448492790235" lon="7.7259772813772845"><ele>215.0</ele><time>2026-04-11T07:09:38Z</time></trkpt><trkpt lat="45.07954962669449" lon="7.72590466611115"><ele>215.4</ele><time>2026-04-11T07:09:40Z</time></trkpt><trkpt lat="45.07962846780578" lon="7.725831609595614"><ele>215.8</ele><time>2026-04-11T07:09:42Z</time></trkpt><trkpt lat="45.07971492321376" lon="7.725765287109798"><ele>216.2</ele><time>2026-04-11T07:09:44Z</time></trkpt><trkpt lat="45.07980700121141" lon="7.725692107989269"><ele>216.6</ele><time>2026-04-11T07:09:46Z</time></trkpt><trkpt lat="45.079886424563234" lon="7.7256260314457785"><ele>217.0</ele><time>2026-04-11T07:09:48Z</time></trkpt><trkpt lat="45.079957183339296" lon="7.725601142489055"><ele>216.2</ele><time>2026-04-11T07:09:50Z</time></trkpt><trkpt lat="45.08006047442739" lon="7.725584215976904"><ele>215.39999999999998</ele><time>2026-04-11T07:09:52Z</time></trkpt><trkpt lat="45.08014515338465" lon="7.725533423854088"><ele>214.60000000000002</ele><time>2026-04-11T07:09:54Z</time></trkpt><trkpt lat="45.080220040774655" lon="7.725459831330284"><ele>213.8</ele><time>2026-04-11T07:09:55.999Z</time></trkpt><trkpt lat="45.08027291645155" lon="7.725385295296341"><ele>213.0</ele><time>2026-04-11T07:09:57.999Z</time></trkpt><trkpt lat="45.08035321655405" lon="7.725312025052772"><ele>213.0</ele><time>2026-04-11T07:09:59.999Z</time></trkpt><trkpt lat="45.080447081380974" lon="7.725273839736414"><ele>213.0</ele><time>2026-04-11T07:10:01.999Z</time></trkpt><trkpt lat="45.080533673722286" lon="7.7252481188048945"><ele>213.0</ele><time>2026-04-11T07:10:03.999Z</time></trkpt><trkpt lat="45.08063649823199" lon="7.725222512077577"><ele>213.0</ele><time>2026-04-11T07:10:05.999Z</time></trkpt><trkpt lat="45.08072685562357" lon="7.725163146523778"><ele>213.0</ele><time>2026-04-11T07:10:07.999Z</time></trkpt><trkpt lat="45.080806031591656" lon="7.725103912452292"><ele>212.66666666666666</ele><time>2026-04-11T07:10:09.999Z</time></trkpt><trkpt lat="45.080883749998165" lon="7.725048224078371"><ele>212.33333333333331</ele><time>2026-04-11T07:10:11.999Z</time></trkpt><trkpt lat="45.0809610017211" lon="7.724993775569519"><ele>212.0</ele><time>2026-04-11T07:10:13.999Z</time></trkpt><trkpt lat="45.081029726805454" lon="7.724946448814549"><ele>211.66666666666666</ele><time>2026-04-11T07:10:15.999Z</time></trkpt><trkpt lat="45.0811109082552" lon="7.724892368304837"><ele>211.33333333333331</ele><time>2026-04-11T07:10:17.999Z</time></trkpt><trkpt lat="45.081181330665615" lon="7.724827785502121"><ele>211.0</ele><time>2026-04-11T07:10:19.999Z</time></trkpt><trkpt lat="45.08125297602657" lon="7.7247730573624365"><ele>210.99999999999997</ele><time>2026-04-11T07:10:21.999Z</time></trkpt><trkpt lat="45.081305623642706" lon="7.724713278597821"><ele>211.0</ele><time>2026-04-11T07:10:23.999Z</time></trkpt><trkpt lat="45.081377466418004" lon="7.72466008748496"><ele>211.0</ele><time>2026-04-11T07:10:25.999Z</time></trkpt><trkpt lat="45.08146031938299" lon="7.724620201186309"><ele>211.0</ele><time>2026-04-11T07:10:27.999Z</time></trkpt><trkpt lat="45.081541294120676" lon="7.724568426657185"><ele>210.99999999999997</ele><time>2026-04-11T07:10:29.999Z</time></trkpt><trkpt lat="45.0816164562778" lon="7.724510748663395"><ele>211.0</ele><time>2026-04-11T07:10:32.999Z</time></trkpt><trkpt lat="45.081699937351175" lon="7.724511326222326"><ele>211.33333333333331</ele><time>2026-04-11T07:10:34.999Z</time></trkpt><trkpt lat="45.081793768659644" lon="7.724557876676721"><ele>211.66666666666666</ele><time>2026-04-11T07:10:36.999Z</time></trkpt><trkpt lat="45.08187224560997" lon="7.724608185707962"><ele>212.0</ele><time>2026-04-11T07:10:38.999Z</time></trkpt><trkpt lat="45.081942176952374" lon="7.724666140671898"><ele>212.33333333333331</ele><time>2026-04-11T07:10:40.999Z</time></trkpt><trkpt lat="45.08200880247326" lon="7.724753496224887"><ele>212.66666666666666</ele><time>2026-04-11T07:10:43.999Z</time></trkpt><trkpt lat="45.08200349570545" lon="7.724868791842677"><ele>213.0</ele><time>2026-04-11T07:10:48.999Z</time></trkpt><trkpt lat="45.081969336126" lon="7.7250042170279585"><ele>213.0</ele><time>2026-04-11T07:10:52.999Z</time></trkpt><trkpt lat="45.08189499905948" lon="7.725063420554285"><ele>213.0</ele><time>2026-04-11T07:10:55.999Z</time></trkpt><trkpt lat="45.081836823291106" lon="7.725127283142943"><ele>213.0</ele><time>2026-04-11T07:10:57.999Z</time></trkpt><trkpt lat="45.08180422764573" lon="7.725216981230243"><ele>213.0</ele><time>2026-04-11T07:10:59.999Z</time></trkpt><trkpt lat="45.08178969120494" lon="7.7253632265459915"><ele>213.0</ele><time>2026-04-11T07:11:02.999Z</time></trkpt><trkpt lat="45.08177376204194" lon="7.72546383036029"><ele>213.0</ele><time>2026-04-11T07:11:04.999Z</time></trkpt><trkpt lat="45.08174573350605" lon="7.72556673781383"><ele>213.28571428571428</ele><time>2026-04-11T07:11:06.999Z</time></trkpt><trkpt lat="45.0817395500852" lon="7.725669064626748"><ele>213.57142857142856</ele><time>2026-04-11T07:11:08.998Z</time></trkpt><trkpt lat="45.08172484950883" lon="7.725758558805633"><ele>213.85714285714283</ele><time>2026-04-11T07:11:10.998Z</time></trkpt><trkpt lat="45.081712111327974" lon="7.725849124605145"><ele>214.14285714285714</ele><time>2026-04-11T07:11:13Z</time></trkpt><trkpt lat="45.081676611104584" lon="7.725949578698695"><ele>214.42857142857144</ele><time>2026-04-11T07:11:15Z</time></trkpt><trkpt lat="45.081662973122434" lon="7.726057561309713"><ele>214.7142857142857</ele><time>2026-04-11T07:11:18Z</time></trkpt><trkpt lat="45.08165689480317" lon="7.726147556041221"><ele>215.0</ele><time>2026-04-11T07:11:20Z</time></trkpt><trkpt lat="45.08163306009501" lon="7.726240628557924"><ele>215.4</ele><time>2026-04-11T07:11:22Z</time></trkpt><trkpt lat="45.08160698228326" lon="7.7263692165505775"><ele>215.8</ele><time>2026-04-11T07:11:24Z</time></trkpt><trkpt lat="45.08158838992969" lon="7.726464781735735"><ele>216.2</ele><time>2026-04-11T07:11:26Z</time></trkpt><trkpt lat="45.08156148943814" lon="7.726593011448832"><ele>216.6</ele><time>2026-04-11T07:11:30Z</time></trkpt><trkpt lat="45.08152782514956" lon="7.7267398722988485"><ele>217.0</ele><time>2026-04-11T07:11:32Z</time></trkpt><trkpt lat="45.08149781779389" lon="7.7268614220337595"><ele>216.2</ele><time>2026-04-11T07:11:34Z</time></trkpt><trkpt lat="45.081470841029876" lon="7.7269580029366125"><ele>215.39999999999998</ele><time>2026-04-11T07:11:38Z</time></trkpt><trkpt lat="45.08144421480799" lon="7.727110009939617"><ele>214.60000000000002</ele><time>2026-04-11T07:11:41Z</time></trkpt><trkpt lat="45.081432004477854" lon="7.727263055713637"><ele>213.8</ele><time>2026-04-11T07:11:43Z</time></trkpt><trkpt lat="45.08141679672849" lon="7.727381246459126"><ele>213.0</ele><time>2026-04-11T07:11:45Z</time></trkpt><trkpt lat="45.081397802138135" lon="7.72748110868121"><ele>213.0</ele><time>2026-04-11T07:11:47Z</time></trkpt><trkpt lat="45.081380451972116" lon="7.727580252537205"><ele>213.0</ele><time>2026-04-11T07:11:49Z</time></trkpt><trkpt lat="45.08136919393649" lon="7.727717793805373"><ele>213.0</ele><time>2026-04-11T07:11:51Z</time></trkpt><trkpt lat="45.081362296280055" lon="7.727852153819414"><ele>213.0</ele><time>2026-04-11T07:11:53Z</time></trkpt><trkpt lat="45.08133696508449" lon="7.727974405466316"><ele>213.0</ele><time>2026-04-11T07:11:55Z</time></trkpt><trkpt lat="45.08133509127474" lon="7.728069104513656"><ele>213.0</ele><time>2026-04-11T07:11:57Z</time></trkpt><trkpt lat="45.08131780699969" lon="7.728210584325598"><ele>213.33333333333334</ele><time>2026-04-11T07:11:59Z</time></trkpt><trkpt lat="45.08129318563122" lon="7.728336539163193"><ele>213.66666666666669</ele><time>2026-04-11T07:12:01Z</time></trkpt><trkpt lat="45.08124378711115" lon="7.728453649982899"><ele>214.0</ele><time>2026-04-11T07:12:02.999Z</time></trkpt><trkpt lat="45.081214761814685" lon="7.728563914708121"><ele>214.33333333333334</ele><time>2026-04-11T07:12:04.999Z</time></trkpt><trkpt lat="45.08117591602138" lon="7.728693649500138"><ele>214.66666666666669</ele><time>2026-04-11T07:12:07.999Z</time></trkpt><trkpt lat="45.08116081137638" lon="7.728799545964663"><ele>215.0</ele><time>2026-04-11T07:12:09.999Z</time></trkpt><trkpt lat="45.081146920546345" lon="7.7288899710550965"><ele>215.57142857142856</ele><time>2026-04-11T07:12:13.999Z</time></trkpt><trkpt lat="45.08111415280893" lon="7.728984754052525"><ele>216.14285714285717</ele><time>2026-04-11T07:12:16.999Z</time></trkpt><trkpt lat="45.081096186973376" lon="7.729070529658219"><ele>216.71428571428572</ele><time>2026-04-11T07:12:20.999Z</time></trkpt><trkpt lat="45.08106530245894" lon="7.729148562363797"><ele>217.28571428571428</ele><time>2026-04-11T07:12:24.999Z</time></trkpt><trkpt lat="45.08102567738239" lon="7.729241807284788"><ele>217.85714285714283</ele><time>2026-04-11T07:13:14.999Z</time></trkpt><trkpt lat="45.080985987839334" lon="7.729328197352686"><ele>218.42857142857144</ele><time>2026-04-11T07:13:19Z</time></trkpt><trkpt lat="45.080972898985394" lon="7.729416635251493"><ele>219.0</ele><time>2026-04-11T07:13:21Z</time></trkpt><trkpt lat="45.080961044789696" lon="7.7295246805342765"><ele>219.2857142857143</ele><time>2026-04-11T07:13:23Z</time></trkpt><trkpt lat="45.08093898788229" lon="7.729625612948059"><ele>219.57142857142856</ele><time>2026-04-11T07:13:25Z</time></trkpt><trkpt lat="45.080899149317624" lon="7.729735676627488"><ele>219.85714285714286</ele><time>2026-04-11T07:13:27Z</time></trkpt><trkpt lat="45.08088194463738" lon="7.7298245383770485"><ele>220.14285714285717</ele><time>2026-04-11T07:13:29Z</time></trkpt><trkpt lat="45.08085013832346" lon="7.7299204918809785"><ele>220.42857142857144</ele><time>2026-04-11T07:13:31Z</time></trkpt><trkpt lat="45.08082013827506" lon="7.730019381559002"><ele>220.71428571428572</ele><time>2026-04-11T07:13:33Z</time></trkpt><trkpt lat="45.08079058865724" lon="7.730102520588463"><ele>221.0</ele><time>2026-04-11T07:13:35Z</time></trkpt><trkpt lat="45.08077042183582" lon="7.730198025060005"><ele>221.16666666666669</ele><time>2026-04-11T07:13:37Z</time></trkpt><trkpt lat="45.080733767171886" lon="7.73027729432437"><ele>221.33333333333334</ele><time>2026-04-11T07:13:39Z</time></trkpt><trkpt lat="45.08070230466494" lon="7.7303858330576976"><ele>221.5</ele><time>2026-04-11T07:13:42Z</time></trkpt><trkpt lat="45.0806575153468" lon="7.7304964811778225"><ele>221.66666666666669</ele><time>2026-04-11T07:13:45Z</time></trkpt><trkpt lat="45.08062901353811" lon="7.730588601515564"><ele>221.83333333333334</ele><time>2026-04-11T07:13:47Z</time></trkpt><trkpt lat="45.08060200005443" lon="7.73069721697105"><ele>222.0</ele><time>2026-04-11T07:13:50Z</time></trkpt><trkpt lat="45.080579855722554" lon="7.730795923361963"><ele>222.0</ele><time>2026-04-11T07:13:53Z</time></trkpt><trkpt lat="45.08055860072215" lon="7.730886115145931"><ele>222.0</ele><time>2026-04-11T07:13:56Z</time></trkpt><trkpt lat="45.08050237058327" lon="7.730950445768225"><ele>222.0</ele><time>2026-04-11T07:14:05.999Z</time></trkpt><trkpt lat="45.080500842006636" lon="7.731062222636349"><ele>222.0</ele><time>2026-04-11T07:14:09.999Z</time></trkpt><trkpt lat="45.08049800470716" lon="7.731169957105406"><ele>222.0</ele><time>2026-04-11T07:14:11.999Z</time></trkpt><trkpt lat="45.08053233037549" lon="7.731279894524943"><ele>222.0</ele><time>2026-04-11T07:14:14.999Z</time></trkpt><trkpt lat="45.08056823966237" lon="7.731357454197156"><ele>222.0</ele><time>2026-04-11T07:14:16.999Z</time></trkpt><trkpt lat="45.080622543321724" lon="7.731418958717093"><ele>222.57142857142856</ele><time>2026-04-11T07:14:18.999Z</time></trkpt><trkpt lat="45.08062836025624" lon="7.731511737566791"><ele>223.14285714285717</ele><time>2026-04-11T07:14:25.999Z</time></trkpt><trkpt lat="45.08056457319298" lon="7.731534606638898"><ele>223.71428571428572</ele><time>2026-04-11T07:14:28.999Z</time></trkpt><trkpt lat="45.080507337153335" lon="7.731595364586423"><ele>224.28571428571428</ele><time>2026-04-11T07:14:33.999Z</time></trkpt><trkpt lat="45.08044418124865" lon="7.731626540617224"><ele>224.85714285714283</ele><time>2026-04-11T07:14:37.999Z</time></trkpt><trkpt lat="45.080385776490395" lon="7.73169447977701"><ele>225.42857142857144</ele><time>2026-04-11T07:14:46.999Z</time></trkpt><trkpt lat="45.08032188935056" lon="7.731683161970522"><ele>226.0</ele><time>2026-04-11T07:14:50.999Z</time></trkpt><trkpt lat="45.08026729508484" lon="7.731624867452263"><ele>226.0</ele><time>2026-04-11T07:14:54.999Z</time></trkpt><trkpt lat="45.08023266084999" lon="7.731518000836195"><ele>226.0</ele><time>2026-04-11T07:14:58.999Z</time></trkpt><trkpt lat="45.08019109125168" lon="7.731443910932141"><ele>226.0</ele><time>2026-04-11T07:15:01.999Z</time></trkpt><trkpt lat="45.08012484052966" lon="7.731491168760018"><ele>226.0</ele><time>2026-04-11T07:15:04.999Z</time></trkpt><trkpt lat="45.08011938941108" lon="7.731591907740981"><ele>226.0</ele><time>2026-04-11T07:15:06.999Z</time></trkpt><trkpt lat="45.08013114135177" lon="7.73168259331642"><ele>226.0</ele><time>2026-04-11T07:15:08.999Z</time></trkpt><trkpt lat="45.08015280471432" lon="7.731782331923829"><ele>226.0</ele><time>2026-04-11T07:15:10.999Z</time></trkpt><trkpt lat="45.08016500884036" lon="7.731882467541818"><ele>225.99999999999997</ele><time>2026-04-11T07:15:12.999Z</time></trkpt><trkpt lat="45.08019345885554" lon="7.731963685545244"><ele>226.0</ele><time>2026-04-11T07:15:14.999Z</time></trkpt><trkpt lat="45.080211746244096" lon="7.732085060235205"><ele>226.0</ele><time>2026-04-11T07:15:16.999Z</time></trkpt><trkpt lat="45.08023373489282" lon="7.732170023096285"><ele>226.0</ele><time>2026-04-11T07:15:18.999Z</time></trkpt><trkpt lat="45.080266816160915" lon="7.732275214414477"><ele>225.99999999999997</ele><time>2026-04-11T07:15:21.998Z</time></trkpt><trkpt lat="45.080297145176516" lon="7.732394020659406"><ele>226.0</ele><time>2026-04-11T07:15:25Z</time></trkpt><trkpt lat="45.08032658450659" lon="7.732504554326976"><ele>226.0</ele><time>2026-04-11T07:15:28Z</time></trkpt><trkpt lat="45.0803466489331" lon="7.732595451860579"><ele>226.0</ele><time>2026-04-11T07:15:30Z</time></trkpt><trkpt lat="45.080368498899716" lon="7.732703227294817"><ele>226.0</ele><time>2026-04-11T07:15:33Z</time></trkpt><trkpt lat="45.08040436006604" lon="7.732790766578612"><ele>226.0</ele><time>2026-04-11T07:15:35Z</time></trkpt><trkpt lat="45.08043387786382" lon="7.732896059426974"><ele>226.0</ele><time>2026-04-11T07:15:38Z</time></trkpt><trkpt lat="45.080447829851515" lon="7.7329832868686195"><ele>226.0</ele><time>2026-04-11T07:15:40Z</time></trkpt><trkpt lat="45.08047275461446" lon="7.7330705299241025"><ele>226.0</ele><time>2026-04-11T07:15:42Z</time></trkpt><trkpt lat="45.08042042963565" lon="7.733134955802046"><ele>226.49999999999997</ele><time>2026-04-11T07:15:46Z</time></trkpt><trkpt lat="45.08035400453696" lon="7.733164643791268"><ele>227.0</ele><time>2026-04-11T07:15:49Z</time></trkpt><trkpt lat="45.08027336986878" lon="7.73321131058558"><ele>227.5</ele><time>2026-04-11T07:15:52Z</time></trkpt><trkpt lat="45.08022108039494" lon="7.733265065249905"><ele>228.0</ele><time>2026-04-11T07:15:55Z</time></trkpt><trkpt lat="45.080140936402756" lon="7.733313858363245"><ele>228.49999999999997</ele><time>2026-04-11T07:15:58Z</time></trkpt><trkpt lat="45.08006143518519" lon="7.7333487497229445"><ele>229.0</ele><time>2026-04-11T07:16:00Z</time></trkpt><trkpt lat="45.07999901140084" lon="7.733370782347735"><ele>228.99999999999997</ele><time>2026-04-11T07:16:02Z</time></trkpt><trkpt lat="45.079938160150114" lon="7.733428323706422"><ele>229.0</ele><time>2026-04-11T07:16:04Z</time></trkpt><trkpt lat="45.07988536401599" lon="7.7334955099826415"><ele>229.0</ele><time>2026-04-11T07:16:06Z</time></trkpt><trkpt lat="45.07983415846142" lon="7.733574758843534"><ele>229.0</ele><time>2026-04-11T07:16:08Z</time></trkpt><trkpt lat="45.079784183493096" lon="7.7336740388228655"><ele>228.99999999999997</ele><time>2026-04-11T07:16:10Z</time></trkpt><trkpt lat="45.07977955003885" lon="7.733784927215101"><ele>229.0</ele><time>2026-04-11T07:16:11.999Z</time></trkpt><trkpt lat="45.07976582950618" lon="7.7338819286466185"><ele>229.42857142857142</ele><time>2026-04-11T07:16:13.999Z</time></trkpt><trkpt lat="45.07974691240921" lon="7.733977574566583"><ele>229.8571428571429</ele><time>2026-04-11T07:16:15.999Z</time></trkpt><trkpt lat="45.07972434154063" lon="7.73406406633248"><ele>230.2857142857143</ele><time>2026-04-11T07:16:17.999Z</time></trkpt><trkpt lat="45.07969070443851" lon="7.734191873732304"><ele>230.71428571428572</ele><time>2026-04-11T07:16:20.999Z</time></trkpt><trkpt lat="45.07965688527648" lon="7.734286728407545"><ele>231.14285714285717</ele><time>2026-04-11T07:16:22.999Z</time></trkpt><trkpt lat="45.07963741282186" lon="7.7343771755920505"><ele>231.5714285714286</ele><time>2026-04-11T07:16:24.999Z</time></trkpt><trkpt lat="45.07962178666796" lon="7.734477102540105"><ele>232.00000000000003</ele><time>2026-04-11T07:16:27.999Z</time></trkpt><trkpt lat="45.07958800226801" lon="7.734581385474994"><ele>232.49999999999997</ele><time>2026-04-11T07:16:30.999Z</time></trkpt><trkpt lat="45.07955189370588" lon="7.734671073035702"><ele>233.0</ele><time>2026-04-11T07:16:32.999Z</time></trkpt><trkpt lat="45.079516830931674" lon="7.734791287488099"><ele>233.5</ele><time>2026-04-11T07:16:35.999Z</time></trkpt><trkpt lat="45.079489031668864" lon="7.734876488145293"><ele>234.0</ele><time>2026-04-11T07:16:37.999Z</time></trkpt><trkpt lat="45.07945433584548" lon="7.734992238235736"><ele>234.49999999999997</ele><time>2026-04-11T07:16:40.999Z</time></trkpt><trkpt lat="45.0794171106801" lon="7.735067509491426"><ele>235.0</ele><time>2026-04-11T07:16:42.999Z</time></trkpt><trkpt lat="45.07934859915247" lon="7.735149463358186"><ele>235.49999999999997</ele><time>2026-04-11T07:16:45.999Z</time></trkpt><trkpt lat="45.07931114728069" lon="7.735233207498428"><ele>236.0</ele><time>2026-04-11T07:16:47.999Z</time></trkpt><trkpt lat="45.07923026276822" lon="7.7352995744649755"><ele>236.5</ele><time>2026-04-11T07:16:49.999Z</time></trkpt><trkpt lat="45.079163435119106" lon="7.735392266833786"><ele>237.0</ele><time>2026-04-11T07:16:52.999Z</time></trkpt><trkpt lat="45.0791170507362" lon="7.73548779574938"><ele>237.49999999999997</ele><time>2026-04-11T07:16:54.999Z</time></trkpt><trkpt lat="45.079074094995086" lon="7.7355557954564915"><ele>238.0</ele><time>2026-04-11T07:16:56.999Z</time></trkpt><trkpt lat="45.079032394024125" lon="7.735629397731824"><ele>237.99999999999997</ele><time>2026-04-11T07:16:58.999Z</time></trkpt><trkpt lat="45.07899347263571" lon="7.73570484185131"><ele>238.0</ele><time>2026-04-11T07:17:00.999Z</time></trkpt><trkpt lat="45.07892076700077" lon="7.73574629340951"><ele>238.0</ele><time>2026-04-11T07:17:02.999Z</time></trkpt><trkpt lat="45.07893378991114" lon="7.7358614503737995"><ele>238.0</ele><time>2026-04-11T07:17:04.999Z</time></trkpt><trkpt lat="45.07892658030494" lon="7.7359688737607835"><ele>237.99999999999997</ele><time>2026-04-11T07:17:06.999Z</time></trkpt><trkpt lat="45.07890697312978" lon="7.736073673956177"><ele>238.0</ele><time>2026-04-11T07:17:09.999Z</time></trkpt><trkpt lat="45.07884836173074" lon="7.736161273299385"><ele>237.99999999999997</ele><time>2026-04-11T07:17:12.999Z</time></trkpt><trkpt lat="45.07878549206876" lon="7.736240947462701"><ele>238.0</ele><time>2026-04-11T07:17:15.999Z</time></trkpt><trkpt lat="45.07877074689004" lon="7.73635812105349"><ele>238.0</ele><time>2026-04-11T07:17:18.999Z</time></trkpt><trkpt lat="45.07871345903273" lon="7.736455337345451"><ele>238.0</ele><time>2026-04-11T07:17:21.999Z</time></trkpt><trkpt lat="45.07866728075588" lon="7.73653854112471"><ele>237.99999999999997</ele><time>2026-04-11T07:17:23.999Z</time></trkpt><trkpt lat="45.078641896531714" lon="7.736621622207397"><ele>238.0</ele><time>2026-04-11T07:17:25.999Z</time></trkpt><trkpt lat="45.07860549261945" lon="7.736714574717044"><ele>237.99999999999997</ele><time>2026-04-11T07:17:27.999Z</time></trkpt><trkpt lat="45.078569969784965" lon="7.736834722892419"><ele>238.0</ele><time>2026-04-11T07:17:31Z</time></trkpt><trkpt lat="45.07855170721799" lon="7.736938155798895"><ele>238.0</ele><time>2026-04-11T07:17:33Z</time></trkpt><trkpt lat="45.07850449299389" lon="7.737021461191842"><ele>238.0</ele><time>2026-04-11T07:17:35Z</time></trkpt><trkpt lat="45.07846283967307" lon="7.737113583461749"><ele>237.99999999999997</ele><time>2026-04-11T07:17:37Z</time></trkpt><trkpt lat="45.07841582403978" lon="7.737192532960199"><ele>238.0</ele><time>2026-04-11T07:17:39Z</time></trkpt><trkpt lat="45.07837755554946" lon="7.737283836215847"><ele>238.33333333333331</ele><time>2026-04-11T07:17:41Z</time></trkpt><trkpt lat="45.078318067457346" lon="7.737342112045031"><ele>238.66666666666666</ele><time>2026-04-11T07:17:43Z</time></trkpt><trkpt lat="45.07826034816934" lon="7.737410826080919"><ele>239.0</ele><time>2026-04-11T07:17:45Z</time></trkpt><trkpt lat="45.078212872047935" lon="7.737476479899099"><ele>239.33333333333331</ele><time>2026-04-11T07:17:47Z</time></trkpt><trkpt lat="45.0781540703964" lon="7.737544394319338"><ele>239.66666666666666</ele><time>2026-04-11T07:17:49Z</time></trkpt><trkpt lat="45.07809140854784" lon="7.737622621386438"><ele>240.0</ele><time>2026-04-11T07:17:51Z</time></trkpt><trkpt lat="45.078034106544" lon="7.737698211503339"><ele>240.5</ele><time>2026-04-11T07:17:53Z</time></trkpt><trkpt lat="45.07797894079857" lon="7.737765498990305"><ele>241.0</ele><time>2026-04-11T07:17:55Z</time></trkpt><trkpt lat="45.07791103622434" lon="7.737821483572405"><ele>241.5</ele><time>2026-04-11T07:17:57Z</time></trkpt><trkpt lat="45.07784743483401" lon="7.737888265557231"><ele>242.0</ele><time>2026-04-11T07:17:59Z</time></trkpt><trkpt lat="45.07778684845939" lon="7.7379602034869475"><ele>242.5</ele><time>2026-04-11T07:18:01Z</time></trkpt><trkpt lat="45.07772709741257" lon="7.738028649266978"><ele>243.0</ele><time>2026-04-11T07:18:03Z</time></trkpt><trkpt lat="45.077646049365164" lon="7.738089188792535"><ele>243.0</ele><time>2026-04-11T07:18:05Z</time></trkpt><trkpt lat="45.07759962689138" lon="7.738157132003416"><ele>243.0</ele><time>2026-04-11T07:18:07Z</time></trkpt><trkpt lat="45.07751182710812" lon="7.738191240169664"><ele>243.0</ele><time>2026-04-11T07:18:09Z</time></trkpt><trkpt lat="45.077433815646785" lon="7.738255811037208"><ele>243.0</ele><time>2026-04-11T07:18:11Z</time></trkpt><trkpt lat="45.07738658324172" lon="7.738323096301698"><ele>243.0</ele><time>2026-04-11T07:18:13Z</time></trkpt><trkpt lat="45.077334275198446" lon="7.738389927639045"><ele>243.0</ele><time>2026-04-11T07:18:15Z</time></trkpt><trkpt lat="45.0772735429767" lon="7.7384633747641836"><ele>243.5</ele><time>2026-04-11T07:18:17Z</time></trkpt><trkpt lat="45.077223449577495" lon="7.7385235086320865"><ele>244.0</ele><time>2026-04-11T07:18:19Z</time></trkpt><trkpt lat="45.07714732302541" lon="7.738571083362894"><ele>244.5</ele><time>2026-04-11T07:18:20.999Z</time></trkpt><trkpt lat="45.07706286639043" lon="7.73860897604991"><ele>245.0</ele><time>2026-04-11T07:18:22.999Z</time></trkpt><trkpt lat="45.076991054879386" lon="7.7386581452229795"><ele>245.5</ele><time>2026-04-11T07:18:24.999Z</time></trkpt><trkpt lat="45.07693017212716" lon="7.738700568206029"><ele>246.0</ele><time>2026-04-11T07:18:26.999Z</time></trkpt><trkpt lat="45.07684906942333" lon="7.738726567647847"><ele>246.33333333333334</ele><time>2026-04-11T07:18:28.999Z</time></trkpt><trkpt lat="45.07678806167215" lon="7.738776785192263"><ele>246.66666666666669</ele><time>2026-04-11T07:18:30.999Z</time></trkpt><trkpt lat="45.07671179799382" lon="7.738806106825794"><ele>247.0</ele><time>2026-04-11T07:18:32.999Z</time></trkpt><trkpt lat="45.07662678604583" lon="7.738852976628439"><ele>247.33333333333334</ele><time>2026-04-11T07:18:34.999Z</time></trkpt><trkpt lat="45.076547045602126" lon="7.738910181320065"><ele>247.66666666666669</ele><time>2026-04-11T07:18:36.999Z</time></trkpt><trkpt lat="45.076450064710535" lon="7.7389156611952785"><ele>248.0</ele><time>2026-04-11T07:18:38.999Z</time></trkpt><trkpt lat="45.076369990834266" lon="7.738954821695399"><ele>249.0</ele><time>2026-04-11T07:18:40.999Z</time></trkpt><trkpt lat="45.076289708285145" lon="7.739015941434801"><ele>250.0</ele><time>2026-04-11T07:18:43.999Z</time></trkpt><trkpt lat="45.07619742685584" lon="7.739045214694758"><ele>251.0</ele><time>2026-04-11T07:18:45.999Z</time></trkpt><trkpt lat="45.07611926104832" lon="7.739122008007833"><ele>252.0</ele><time>2026-04-11T07:18:47.999Z</time></trkpt><trkpt lat="45.076088502636985" lon="7.739244888113407"><ele>253.0</ele><time>2026-04-11T07:18:50.999Z</time></trkpt><trkpt lat="45.07612771405377" lon="7.73935106210805"><ele>252.66666666666666</ele><time>2026-04-11T07:18:52.999Z</time></trkpt><trkpt lat="45.07616194609888" lon="7.739443746678113"><ele>252.33333333333331</ele><time>2026-04-11T07:18:54.999Z</time></trkpt><trkpt lat="45.07618111891752" lon="7.739530297924449"><ele>252.0</ele><time>2026-04-11T07:18:56.999Z</time></trkpt><trkpt lat="45.07619671657911" lon="7.739630973110061"><ele>251.66666666666669</ele><time>2026-04-11T07:18:58.999Z</time></trkpt><trkpt lat="45.076219189401" lon="7.739738417761328"><ele>251.33333333333334</ele><time>2026-04-11T07:19:00.999Z</time></trkpt><trkpt lat="45.07626242951339" lon="7.739837495748246"><ele>251.0</ele><time>2026-04-11T07:19:02.999Z</time></trkpt><trkpt lat="45.07629938760169" lon="7.739935971054117"><ele>251.00000000000003</ele><time>2026-04-11T07:19:04.999Z</time></trkpt><trkpt lat="45.07629594971043" lon="7.740032477894829"><ele>251.0</ele><time>2026-04-11T07:19:06.999Z</time></trkpt><trkpt lat="45.07628256319719" lon="7.740169561902776"><ele>251.0</ele><time>2026-04-11T07:19:09.999Z</time></trkpt><trkpt lat="45.07625394636036" lon="7.740284110964003"><ele>251.0</ele><time>2026-04-11T07:19:11.999Z</time></trkpt><trkpt lat="45.07623449757689" lon="7.740387012046303"><ele>251.00000000000003</ele><time>2026-04-11T07:19:13.999Z</time></trkpt><trkpt lat="45.07622498308991" lon="7.740481381288294"><ele>251.0</ele><time>2026-04-11T07:19:15.999Z</time></trkpt><trkpt lat="45.07619361350271" lon="7.740572895501336"><ele>251.16666666666669</ele><time>2026-04-11T07:19:17.999Z</time></trkpt><trkpt lat="45.07617069982228" lon="7.740676952040793"><ele>251.33333333333334</ele><time>2026-04-11T07:19:19.999Z</time></trkpt><trkpt lat="45.07614052693445" lon="7.7407908014531115"><ele>251.5</ele><time>2026-04-11T07:19:21.999Z</time></trkpt><trkpt lat="45.07608751333575" lon="7.740910726306693"><ele>251.66666666666669</ele><time>2026-04-11T07:19:24.999Z</time></trkpt><trkpt lat="45.07603940466659" lon="7.741002239837503"><ele>251.83333333333334</ele><time>2026-04-11T07:19:27.999Z</time></trkpt><trkpt lat="45.07597487490665" lon="7.741049190738712"><ele>252.0</ele><time>2026-04-11T07:19:29.999Z</time></trkpt><trkpt lat="45.07590143637424" lon="7.741103663757096"><ele>252.5</ele><time>2026-04-11T07:19:32.999Z</time></trkpt><trkpt lat="45.07583031714568" lon="7.741118630841639"><ele>253.0</ele><time>2026-04-11T07:19:34.999Z</time></trkpt><trkpt lat="45.07575083230766" lon="7.741122851895429"><ele>253.5</ele><time>2026-04-11T07:19:37Z</time></trkpt><trkpt lat="45.075679862063716" lon="7.7411359041903856"><ele>254.0</ele><time>2026-04-11T07:19:39Z</time></trkpt><trkpt lat="45.075607452270205" lon="7.741142500871543"><ele>254.5</ele><time>2026-04-11T07:19:41Z</time></trkpt><trkpt lat="45.07551244452752" lon="7.74116069389127"><ele>255.0</ele><time>2026-04-11T07:19:44Z</time></trkpt><trkpt lat="45.07543404641213" lon="7.741183696562584"><ele>255.0</ele><time>2026-04-11T07:19:46Z</time></trkpt><trkpt lat="45.075393711465246" lon="7.74127209791548"><ele>255.0</ele><time>2026-04-11T07:19:48Z</time></trkpt><trkpt lat="45.07537044243991" lon="7.741424307258223"><ele>255.0</ele><time>2026-04-11T07:19:51Z</time></trkpt><trkpt lat="45.07536443259576" lon="7.741542313811635"><ele>255.0</ele><time>2026-04-11T07:19:53Z</time></trkpt><trkpt lat="45.07536750789701" lon="7.741665477263822"><ele>255.0</ele><time>2026-04-11T07:19:55Z</time></trkpt><trkpt lat="45.07537266707247" lon="7.741786401213425"><ele>255.0</ele><time>2026-04-11T07:19:57Z</time></trkpt><trkpt lat="45.075384234967366" lon="7.741914060934777"><ele>255.33333333333334</ele><time>2026-04-11T07:19:59Z</time></trkpt><trkpt lat="45.07536905316698" lon="7.742024191011192"><ele>255.66666666666669</ele><time>2026-04-11T07:20:01Z</time></trkpt><trkpt lat="45.07532310900626" lon="7.7421315220956295"><ele>256.0</ele><time>2026-04-11T07:20:03Z</time></trkpt><trkpt lat="45.075293381702785" lon="7.742242465728333"><ele>256.33333333333337</ele><time>2026-04-11T07:20:05Z</time></trkpt><trkpt lat="45.075251102550986" lon="7.742349245112628"><ele>256.6666666666667</ele><time>2026-04-11T07:20:07Z</time></trkpt><trkpt lat="45.07521431514025" lon="7.742455354089402"><ele>257.0</ele><time>2026-04-11T07:20:09Z</time></trkpt><trkpt lat="45.07516203126909" lon="7.742556673869037"><ele>257.0</ele><time>2026-04-11T07:20:11Z</time></trkpt><trkpt lat="45.07512572944808" lon="7.742669014843024"><ele>257.0</ele><time>2026-04-11T07:20:13Z</time></trkpt><trkpt lat="45.07509126263539" lon="7.742773668585503"><ele>257.0</ele><time>2026-04-11T07:20:15Z</time></trkpt><trkpt lat="45.07504075089208" lon="7.742861133358102"><ele>257.0</ele><time>2026-04-11T07:20:17Z</time></trkpt><trkpt lat="45.0749927695608" lon="7.742950013999215"><ele>257.0</ele><time>2026-04-11T07:20:19Z</time></trkpt><trkpt lat="45.07494088756619" lon="7.74303884769652"><ele>257.0</ele><time>2026-04-11T07:20:21Z</time></trkpt><trkpt lat="45.07488374164878" lon="7.743125798050909"><ele>258.1666666666667</ele><time>2026-04-11T07:20:23Z</time></trkpt><trkpt lat="45.07482636281961" lon="7.743204340235389"><ele>259.33333333333337</ele><time>2026-04-11T07:20:25Z</time></trkpt><trkpt lat="45.074770108224065" lon="7.743288879209562"><ele>260.5</ele><time>2026-04-11T07:20:27Z</time></trkpt><trkpt lat="45.07472508602606" lon="7.74338114015904"><ele>261.6666666666667</ele><time>2026-04-11T07:20:28.999Z</time></trkpt><trkpt lat="45.074671530345526" lon="7.743470287897347"><ele>262.8333333333333</ele><time>2026-04-11T07:20:30.999Z</time></trkpt><trkpt lat="45.07461697237108" lon="7.743537812865047"><ele>264.0</ele><time>2026-04-11T07:20:32.999Z</time></trkpt><trkpt lat="45.074573863287924" lon="7.74362284399671"><ele>264.0</ele><time>2026-04-11T07:20:34.999Z</time></trkpt><trkpt lat="45.07452622602914" lon="7.743712224287714"><ele>264.0</ele><time>2026-04-11T07:20:36.999Z</time></trkpt><trkpt lat="45.07446242902312" lon="7.743784287063155"><ele>264.0</ele><time>2026-04-11T07:20:38.999Z</time></trkpt><trkpt lat="45.074399093829" lon="7.743844834995123"><ele>264.0</ele><time>2026-04-11T07:20:40.999Z</time></trkpt><trkpt lat="45.074329744284505" lon="7.743893976334318"><ele>264.0</ele><time>2026-04-11T07:20:42.999Z</time></trkpt><trkpt lat="45.07426339988747" lon="7.743939560915151"><ele>264.0</ele><time>2026-04-11T07:20:44.999Z</time></trkpt><trkpt lat="45.07419460167544" lon="7.743984947731697"><ele>264.0</ele><time>2026-04-11T07:20:46.999Z</time></trkpt><trkpt lat="45.07412401999817" lon="7.74403877131928"><ele>264.0</ele><time>2026-04-11T07:20:48.999Z</time></trkpt><trkpt lat="45.074055046135754" lon="7.744090554270671"><ele>264.0</ele><time>2026-04-11T07:20:50.999Z</time></trkpt><trkpt lat="45.073995112162" lon="7.744163996902034"><ele>264.0</ele><time>2026-04-11T07:20:52.999Z</time></trkpt><trkpt lat="45.07394208176609" lon="7.744243870635834"><ele>264.0</ele><time>2026-04-11T07:20:54.999Z</time></trkpt><trkpt lat="45.073902731282665" lon="7.74433652093915"><ele>264.0</ele><time>2026-04-11T07:20:56.999Z</time></trkpt><trkpt lat="45.07386199838856" lon="7.744430867725534"><ele>268.5</ele><time>2026-04-11T07:20:58.999Z</time></trkpt><trkpt lat="45.07382468187239" lon="7.744524957317707"><ele>273.0</ele><time>2026-04-11T07:21:00.999Z</time></trkpt><trkpt lat="45.07378724944981" lon="7.74462383357103"><ele>277.5</ele><time>2026-04-11T07:21:02.999Z</time></trkpt><trkpt lat="45.073751734315394" lon="7.744720961981834"><ele>282.0</ele><time>2026-04-11T07:21:04.999Z</time></trkpt><trkpt lat="45.073734563154154" lon="7.744836522207284"><ele>286.5</ele><time>2026-04-11T07:21:06.999Z</time></trkpt><trkpt lat="45.073730345930926" lon="7.744959632974247"><ele>291.0</ele><time>2026-04-11T07:21:08.999Z</time></trkpt><trkpt lat="45.07373997641111" lon="7.745074592267534"><ele>291.0</ele><time>2026-04-11T07:21:10.999Z</time></trkpt><trkpt lat="45.07375701944548" lon="7.745169566378051"><ele>291.0</ele><time>2026-04-11T07:21:12.999Z</time></trkpt><trkpt lat="45.07379442084078" lon="7.745257417305286"><ele>291.0</ele><time>2026-04-11T07:21:14.999Z</time></trkpt><trkpt lat="45.07382759965947" lon="7.745352927383493"><ele>291.0</ele><time>2026-04-11T07:21:16.999Z</time></trkpt><trkpt lat="45.073866712238626" lon="7.745477565353599"><ele>291.0</ele><time>2026-04-11T07:21:19.999Z</time></trkpt><trkpt lat="45.07388179403406" lon="7.745575456977594"><ele>291.0</ele><time>2026-04-11T07:21:21.999Z</time></trkpt><trkpt lat="45.073875196259976" lon="7.745668825322945"><ele>290.0</ele><time>2026-04-11T07:21:23.999Z</time></trkpt><trkpt lat="45.07384785963309" lon="7.745786710837418"><ele>289.0</ele><time>2026-04-11T07:21:25.999Z</time></trkpt><trkpt lat="45.073840958655396" lon="7.745900028647682"><ele>288.0</ele><time>2026-04-11T07:21:27.999Z</time></trkpt><trkpt lat="45.07380669319751" lon="7.74599347003556"><ele>287.0</ele><time>2026-04-11T07:21:29.999Z</time></trkpt><trkpt lat="45.07380132466713" lon="7.746093892650285"><ele>286.0</ele><time>2026-04-11T07:21:31.999Z</time></trkpt><trkpt lat="45.073824146287635" lon="7.746210618761858"><ele>285.0</ele><time>2026-04-11T07:21:33.999Z</time></trkpt><trkpt lat="45.07385986147026" lon="7.746300812635785"><ele>284.1666666666667</ele><time>2026-04-11T07:21:35.999Z</time></trkpt><trkpt lat="45.07389742427714" lon="7.746393131469113"><ele>283.3333333333333</ele><time>2026-04-11T07:21:37.999Z</time></trkpt><trkpt lat="45.07395122336339" lon="7.746460691900275"><ele>282.5</ele><time>2026-04-11T07:21:39.999Z</time></trkpt><trkpt lat="45.073973207463155" lon="7.7465693845124575"><ele>281.66666666666663</ele><time>2026-04-11T07:21:41.999Z</time></trkpt><trkpt lat="45.07397436010393" lon="7.746670420404525"><ele>280.8333333333333</ele><time>2026-04-11T07:21:44Z</time></trkpt><trkpt lat="45.07394780078228" lon="7.7468075385328605"><ele>280.0</ele><time>2026-04-11T07:21:47Z</time></trkpt><trkpt lat="45.073881838909706" lon="7.746912280351182"><ele>279.14285714285717</ele><time>2026-04-11T07:21:50Z</time></trkpt><trkpt lat="45.073825977238755" lon="7.746981233061065"><ele>278.2857142857143</ele><time>2026-04-11T07:21:52Z</time></trkpt><trkpt lat="45.07376926280659" lon="7.747048865690215"><ele>277.42857142857144</ele><time>2026-04-11T07:21:54Z</time></trkpt><trkpt lat="45.07371381122005" lon="7.7471224359996596"><ele>276.57142857142856</ele><time>2026-04-11T07:21:56Z</time></trkpt><trkpt lat="45.07365777406275" lon="7.747188598745714"><ele>275.7142857142857</ele><time>2026-04-11T07:21:58Z</time></trkpt><trkpt lat="45.07360863452485" lon="7.747257079911678"><ele>274.8571428571429</ele><time>2026-04-11T07:22:00Z</time></trkpt><trkpt lat="45.07355917799247" lon="7.747320457766215"><ele>274.0</ele><time>2026-04-11T07:22:02Z</time></trkpt><trkpt lat="45.07350528697776" lon="7.747387096961358"><ele>274.00000000000006</ele><time>2026-04-11T07:22:04Z</time></trkpt><trkpt lat="45.073452708390555" lon="7.747444941790495"><ele>274.0</ele><time>2026-04-11T07:22:06Z</time></trkpt><trkpt lat="45.07340202145782" lon="7.74750153767561"><ele>274.0</ele><time>2026-04-11T07:22:08Z</time></trkpt><trkpt lat="45.07334793847672" lon="7.747554334643637"><ele>274.0</ele><time>2026-04-11T07:22:10Z</time></trkpt><trkpt lat="45.07329625287135" lon="7.747623890899312"><ele>274.0</ele><time>2026-04-11T07:22:12Z</time></trkpt><trkpt lat="45.073232148878695" lon="7.747665074326089"><ele>274.00000000000006</ele><time>2026-04-11T07:22:14Z</time></trkpt><trkpt lat="45.07317425410401" lon="7.747709734850004"><ele>274.0</ele><time>2026-04-11T07:22:17Z</time></trkpt><trkpt lat="45.07311968628555" lon="7.747789663610883"><ele>277.3333333333333</ele><time>2026-04-11T07:22:23Z</time></trkpt><trkpt lat="45.07306212970314" lon="7.747858525835662"><ele>280.66666666666663</ele><time>2026-04-11T07:22:26Z</time></trkpt><trkpt lat="45.073000061085274" lon="7.7479334324535865"><ele>284.0</ele><time>2026-04-11T07:22:29Z</time></trkpt><trkpt lat="45.072956156681784" lon="7.748032996631653"><ele>287.3333333333333</ele><time>2026-04-11T07:22:32Z</time></trkpt><trkpt lat="45.07294038388258" lon="7.748124196975949"><ele>290.6666666666667</ele><time>2026-04-11T07:22:35Z</time></trkpt><trkpt lat="45.07292438017951" lon="7.748253216297333"><ele>294.0</ele><time>2026-04-11T07:22:37.999Z</time></trkpt><trkpt lat="45.072897839480405" lon="7.74836791849509"><ele>294.0</ele><time>2026-04-11T07:22:40.999Z</time></trkpt><trkpt lat="45.0729016970983" lon="7.748503519615912"><ele>294.0</ele><time>2026-04-11T07:22:43.999Z</time></trkpt><trkpt lat="45.07290071502615" lon="7.748597263794824"><ele>294.0</ele><time>2026-04-11T07:22:45.999Z</time></trkpt><trkpt lat="45.07289588603782" lon="7.748688864777117"><ele>294.0</ele><time>2026-04-11T07:22:47.999Z</time></trkpt><trkpt lat="45.07289936026721" lon="7.748804924669373"><ele>294.0</ele><time>2026-04-11T07:22:50.999Z</time></trkpt><trkpt lat="45.07287956713225" lon="7.74890142691736"><ele>294.0</ele><time>2026-04-11T07:22:52.999Z</time></trkpt><trkpt lat="45.07286747173133" lon="7.749035553919714"><ele>292.3333333333333</ele><time>2026-04-11T07:22:55.999Z</time></trkpt><trkpt lat="45.07284952936513" lon="7.749139365253091"><ele>290.6666666666667</ele><time>2026-04-11T07:22:57.999Z</time></trkpt><trkpt lat="45.072829568428986" lon="7.749262925687132"><ele>289.0</ele><time>2026-04-11T07:23:00.999Z</time></trkpt><trkpt lat="45.07280853163358" lon="7.7493857383050075"><ele>287.33333333333337</ele><time>2026-04-11T07:23:03.999Z</time></trkpt><trkpt lat="45.07276217003359" lon="7.749498851704072"><ele>285.6666666666667</ele><time>2026-04-11T07:23:05.999Z</time></trkpt><trkpt lat="45.07271834810513" lon="7.7496022558842625"><ele>284.0</ele><time>2026-04-11T07:23:07.999Z</time></trkpt><trkpt lat="45.072691359100034" lon="7.749692713226598"><ele>283.57142857142856</ele><time>2026-04-11T07:23:09.999Z</time></trkpt><trkpt lat="45.07266037575995" lon="7.749770381903974"><ele>283.1428571428571</ele><time>2026-04-11T07:23:11.999Z</time></trkpt><trkpt lat="45.07262097849912" lon="7.749867165049665"><ele>282.7142857142857</ele><time>2026-04-11T07:23:13.999Z</time></trkpt><trkpt lat="45.07259117774637" lon="7.7499573391789855"><ele>282.2857142857143</ele><time>2026-04-11T07:23:15.999Z</time></trkpt><trkpt lat="45.07255652608036" lon="7.750038190997485"><ele>281.8571428571429</ele><time>2026-04-11T07:23:17.999Z</time></trkpt><trkpt lat="45.07251230537247" lon="7.7501246329560285"><ele>281.42857142857144</ele><time>2026-04-11T07:23:19.999Z</time></trkpt><trkpt lat="45.07246778891083" lon="7.750194823298011"><ele>281.0</ele><time>2026-04-11T07:23:21.999Z</time></trkpt><trkpt lat="45.0724217242723" lon="7.750277040645548"><ele>282.8571428571429</ele><time>2026-04-11T07:23:23.999Z</time></trkpt><trkpt lat="45.07237848119879" lon="7.750347478923669"><ele>284.7142857142857</ele><time>2026-04-11T07:23:25.999Z</time></trkpt><trkpt lat="45.07235031140418" lon="7.750454233267528"><ele>286.57142857142856</ele><time>2026-04-11T07:23:28.999Z</time></trkpt><trkpt lat="45.072319987192714" lon="7.750552961527517"><ele>288.42857142857144</ele><time>2026-04-11T07:23:30.999Z</time></trkpt><trkpt lat="45.072299775049025" lon="7.750638549447644"><ele>290.2857142857143</ele><time>2026-04-11T07:23:32.999Z</time></trkpt><trkpt lat="45.07226942548666" lon="7.750738615625767"><ele>292.14285714285717</ele><time>2026-04-11T07:23:34.999Z</time></trkpt><trkpt lat="45.07223501051482" lon="7.750818830343469"><ele>294.0</ele><time>2026-04-11T07:23:36.999Z</time></trkpt><trkpt lat="45.07218077720544" lon="7.7509207907500395"><ele>294.0</ele><time>2026-04-11T07:23:38.999Z</time></trkpt><trkpt lat="45.07216889481125" lon="7.751040643114204"><ele>294.0</ele><time>2026-04-11T07:23:41.999Z</time></trkpt><trkpt lat="45.07214506757962" lon="7.751134265019858"><ele>294.0</ele><time>2026-04-11T07:23:43.999Z</time></trkpt><trkpt lat="45.07211665663361" lon="7.751258389637395"><ele>294.0</ele><time>2026-04-11T07:23:46.999Z</time></trkpt><trkpt lat="45.07209246893734" lon="7.751343474219227"><ele>294.0</ele><time>2026-04-11T07:23:49Z</time></trkpt><trkpt lat="45.07206094575931" lon="7.7514696201658815"><ele>294.0</ele><time>2026-04-11T07:23:52Z</time></trkpt><trkpt lat="45.072042571156416" lon="7.7515584908933945"><ele>294.0</ele><time>2026-04-11T07:23:55Z</time></trkpt><trkpt lat="45.07200335489345" lon="7.751659279620826"><ele>294.0</ele><time>2026-04-11T07:23:58Z</time></trkpt><trkpt lat="45.07200051473518" lon="7.7517782201440975"><ele>294.0</ele><time>2026-04-11T07:24:01Z</time></trkpt><trkpt lat="45.07195437623196" lon="7.751861377773466"><ele>294.0</ele><time>2026-04-11T07:24:04Z</time></trkpt><trkpt lat="45.07187822102031" lon="7.751903597833141"><ele>294.0</ele><time>2026-04-11T07:24:07Z</time></trkpt><trkpt lat="45.071783254627505" lon="7.751967508423706"><ele>294.0</ele><time>2026-04-11T07:24:10Z</time></trkpt><trkpt lat="45.0717267242789" lon="7.752033934366338"><ele>294.0</ele><time>2026-04-11T07:24:13Z</time></trkpt><trkpt lat="45.071646964939305" lon="7.752083980567532"><ele>294.0</ele><time>2026-04-11T07:24:16Z</time></trkpt><trkpt lat="45.07157845947392" lon="7.752144216679409"><ele>294.0</ele><time>2026-04-11T07:24:19Z</time></trkpt><trkpt lat="45.071499238012606" lon="7.752178713075761"><ele>294.0</ele><time>2026-04-11T07:24:21Z</time></trkpt><trkpt lat="45.071426057063185" lon="7.752207077866851"><ele>294.0</ele><time>2026-04-11T07:24:23Z</time></trkpt><trkpt lat="45.07135767131756" lon="7.752238769981036"><ele>294.0</ele><time>2026-04-11T07:24:25Z</time></trkpt><trkpt lat="45.07128932123876" lon="7.752244316770668"><ele>294.5</ele><time>2026-04-11T07:24:27Z</time></trkpt><trkpt lat="45.071194035840385" lon="7.752272047775481"><ele>295.0</ele><time>2026-04-11T07:24:30Z</time></trkpt><trkpt lat="45.071131271508115" lon="7.7522620662655815"><ele>295.5</ele><time>2026-04-11T07:24:32Z</time></trkpt><trkpt lat="45.07106454396335" lon="7.7522988650787665"><ele>296.0</ele><time>2026-04-11T07:24:34Z</time></trkpt><trkpt lat="45.070997284895896" lon="7.752318494303362"><ele>296.5</ele><time>2026-04-11T07:24:37Z</time></trkpt><trkpt lat="45.07088613060071" lon="7.7523664534277605"><ele>297.0</ele><time>2026-04-11T07:24:40Z</time></trkpt><trkpt lat="45.07082243053595" lon="7.752382714021259"><ele>298.2</ele><time>2026-04-11T07:24:41Z</time></trkpt><trkpt lat="45.07071886803073" lon="7.7524225029952545"><ele>299.4</ele><time>2026-04-11T07:24:42.999Z</time></trkpt><trkpt lat="45.07064248973164" lon="7.752481234885628"><ele>300.6</ele><time>2026-04-11T07:24:44.999Z</time></trkpt><trkpt lat="45.07055464506195" lon="7.752550019143453"><ele>301.8</ele><time>2026-04-11T07:24:46.999Z</time></trkpt><trkpt lat="45.07045446922985" lon="7.752602769808091"><ele>303.0</ele><time>2026-04-11T07:24:48.999Z</time></trkpt><trkpt lat="45.070371266191906" lon="7.7526784605871635"><ele>302.5</ele><time>2026-04-11T07:24:50.999Z</time></trkpt><trkpt lat="45.070303313949765" lon="7.752770405414473"><ele>302.0</ele><time>2026-04-11T07:24:52.999Z</time></trkpt><trkpt lat="45.07023488152612" lon="7.752853611963994"><ele>301.5</ele><time>2026-04-11T07:24:54.999Z</time></trkpt><trkpt lat="45.07018278844508" lon="7.752906416223136"><ele>301.0</ele><time>2026-04-11T07:24:56.999Z</time></trkpt><trkpt lat="45.070106759134305" lon="7.752990148589569"><ele>300.5</ele><time>2026-04-11T07:24:59.999Z</time></trkpt><trkpt lat="45.07001478251866" lon="7.753042898702053"><ele>300.0</ele><time>2026-04-11T07:25:02.999Z</time></trkpt><trkpt lat="45.0699533152091" lon="7.753133856521586"><ele>300.6</ele><time>2026-04-11T07:25:05.999Z</time></trkpt><trkpt lat="45.069853234787345" lon="7.753168081131856"><ele>301.2</ele><time>2026-04-11T07:25:07.999Z</time></trkpt><trkpt lat="45.069756660327364" lon="7.753204233580457"><ele>301.8</ele><time>2026-04-11T07:25:09.999Z</time></trkpt><trkpt lat="45.06965362472412" lon="7.753225808217825"><ele>302.4</ele><time>2026-04-11T07:25:11.999Z</time></trkpt><trkpt lat="45.06956829950229" lon="7.7532541409506734"><ele>303.0</ele><time>2026-04-11T07:25:13.999Z</time></trkpt><trkpt lat="45.06948340762511" lon="7.753298444778544"><ele>303.0</ele><time>2026-04-11T07:25:15.999Z</time></trkpt><trkpt lat="45.06939059761024" lon="7.753331611511856"><ele>303.0</ele><time>2026-04-11T07:25:17.999Z</time></trkpt><trkpt lat="45.06929915620407" lon="7.753349520948038"><ele>303.0</ele><time>2026-04-11T07:25:19.999Z</time></trkpt><trkpt lat="45.06922522873314" lon="7.7533741061622665"><ele>303.0</ele><time>2026-04-11T07:25:21.999Z</time></trkpt><trkpt lat="45.06916210128934" lon="7.753425917929648"><ele>303.0</ele><time>2026-04-11T07:25:23.999Z</time></trkpt><trkpt lat="45.0690743503721" lon="7.753476496644256"><ele>303.0</ele><time>2026-04-11T07:25:25.999Z</time></trkpt><trkpt lat="45.06899531682782" lon="7.753528120905516"><ele>305.8571428571429</ele><time>2026-04-11T07:25:27.999Z</time></trkpt><trkpt lat="45.068933742856245" lon="7.753587115004257"><ele>308.7142857142857</ele><time>2026-04-11T07:25:29.999Z</time></trkpt><trkpt lat="45.06889226263041" lon="7.753663553837711"><ele>311.57142857142856</ele><time>2026-04-11T07:25:31.999Z</time></trkpt><trkpt lat="45.06883106853265" lon="7.7537348091774225"><ele>314.42857142857144</ele><time>2026-04-11T07:25:33.999Z</time></trkpt><trkpt lat="45.06876585531684" lon="7.753808137683033"><ele>317.2857142857143</ele><time>2026-04-11T07:25:35.999Z</time></trkpt><trkpt lat="45.06871388847752" lon="7.753887748075515"><ele>320.14285714285717</ele><time>2026-04-11T07:25:37.999Z</time></trkpt><trkpt lat="45.068678106033786" lon="7.753964413459658"><ele>323.0</ele><time>2026-04-11T07:25:39.999Z</time></trkpt><trkpt lat="45.06863835653817" lon="7.754037782167892"><ele>323.0</ele><time>2026-04-11T07:25:41.999Z</time></trkpt><trkpt lat="45.06862891299334" lon="7.754142822773382"><ele>323.0</ele><time>2026-04-11T07:25:43.999Z</time></trkpt><trkpt lat="45.0685921783163" lon="7.7542400318555575"><ele>323.0</ele><time>2026-04-11T07:25:45.999Z</time></trkpt><trkpt lat="45.06862687943191" lon="7.75432087762068"><ele>323.0</ele><time>2026-04-11T07:25:47.999Z</time></trkpt><trkpt lat="45.06867575211382" lon="7.754378148316122"><ele>323.0</ele><time>2026-04-11T07:25:50.999Z</time></trkpt><trkpt lat="45.068720404066895" lon="7.754489525904634"><ele>323.0</ele><time>2026-04-11T07:25:53.999Z</time></trkpt><trkpt lat="45.06870531519136" lon="7.75459730748265"><ele>321.28571428571433</ele><time>2026-04-11T07:25:56Z</time></trkpt><trkpt lat="45.068692724515245" lon="7.75470325749533"><ele>319.57142857142856</ele><time>2026-04-11T07:25:58Z</time></trkpt><trkpt lat="45.06867542014886" lon="7.754801928496553"><ele>317.8571428571429</ele><time>2026-04-11T07:26:00Z</time></trkpt><trkpt lat="45.06865512723084" lon="7.754912616857469"><ele>316.14285714285717</ele><time>2026-04-11T07:26:02Z</time></trkpt><trkpt lat="45.06862927705685" lon="7.755005003880121"><ele>314.42857142857144</ele><time>2026-04-11T07:26:04Z</time></trkpt><trkpt lat="45.068613933471696" lon="7.7550979245376945"><ele>312.7142857142857</ele><time>2026-04-11T07:26:06Z</time></trkpt><trkpt lat="45.068615604772035" lon="7.7551925577481935"><ele>311.0</ele><time>2026-04-11T07:26:08Z</time></trkpt><trkpt lat="45.06862959669181" lon="7.75532607520975"><ele>311.0</ele><time>2026-04-11T07:26:11Z</time></trkpt><trkpt lat="45.06865589750212" lon="7.7554226071160475"><ele>311.0</ele><time>2026-04-11T07:26:14Z</time></trkpt><trkpt lat="45.0686825172134" lon="7.755531548381633"><ele>311.0</ele><time>2026-04-11T07:26:17Z</time></trkpt><trkpt lat="45.068721534908576" lon="7.75565344570111"><ele>311.0</ele><time>2026-04-11T07:26:20Z</time></trkpt><trkpt lat="45.06876144082622" lon="7.7557514478115825"><ele>311.0</ele><time>2026-04-11T07:26:22Z</time></trkpt><trkpt lat="45.06882273619704" lon="7.75582469152781"><ele>311.0</ele><time>2026-04-11T07:26:25Z</time></trkpt><trkpt lat="45.068894921553046" lon="7.75587793178875"><ele>311.0</ele><time>2026-04-11T07:26:28Z</time></trkpt><trkpt lat="45.068956960429254" lon="7.755922337939655"><ele>311.0</ele><time>2026-04-11T07:26:30Z</time></trkpt><trkpt lat="45.069000872090804" lon="7.755995618000833"><ele>311.0</ele><time>2026-04-11T07:26:31Z</time></trkpt><trkpt lat="45.06904451591381" lon="7.756113787515102"><ele>311.0</ele><time>2026-04-11T07:26:34Z</time></trkpt><trkpt lat="45.06906187239451" lon="7.756213765522319"><ele>311.0</ele><time>2026-04-11T07:26:36Z</time></trkpt><trkpt lat="45.069071142862796" lon="7.756309329413239"><ele>311.0</ele><time>2026-04-11T07:26:39Z</time></trkpt><trkpt lat="45.06907222141151" lon="7.756400432093532"><ele>311.0</ele><time>2026-04-11T07:26:42Z</time></trkpt><trkpt lat="45.069100129297496" lon="7.756482023357597"><ele>312.1666666666667</ele><time>2026-04-11T07:26:45Z</time></trkpt><trkpt lat="45.069104135524526" lon="7.756598137237537"><ele>313.33333333333337</ele><time>2026-04-11T07:26:49Z</time></trkpt><trkpt lat="45.069131469747774" lon="7.7567190666151316"><ele>314.5</ele><time>2026-04-11T07:26:53.999Z</time></trkpt><trkpt lat="45.06915779146377" lon="7.756801186417728"><ele>315.6666666666667</ele><time>2026-04-11T07:26:55.999Z</time></trkpt><trkpt lat="45.06921143962939" lon="7.756910064006808"><ele>316.8333333333333</ele><time>2026-04-11T07:26:58.999Z</time></trkpt><trkpt lat="45.06926006982923" lon="7.757010481848147"><ele>318.0</ele><time>2026-04-11T07:27:02.999Z</time></trkpt><trkpt lat="45.06929332065765" lon="7.757104697046763"><ele>321.0</ele><time>2026-04-11T07:27:05.999Z</time></trkpt><trkpt lat="45.06933796405894" lon="7.757177386716266"><ele>324.0</ele><time>2026-04-11T07:27:07.999Z</time></trkpt><trkpt lat="45.06937424092966" lon="7.757292249067439"><ele>327.0</ele><time>2026-04-11T07:27:09.999Z</time></trkpt><trkpt lat="45.06941272124964" lon="7.757368788471842"><ele>330.0</ele><time>2026-04-11T07:27:11.999Z</time></trkpt><trkpt lat="45.069437898337696" lon="7.7574539540635525"><ele>333.0</ele><time>2026-04-11T07:27:13.999Z</time></trkpt><trkpt lat="45.06947163651218" lon="7.757566777586251"><ele>336.0</ele><time>2026-04-11T07:27:16.999Z</time></trkpt><trkpt lat="45.06950026719019" lon="7.757686670575465"><ele>338.1666666666667</ele><time>2026-04-11T07:27:19.999Z</time></trkpt><trkpt lat="45.06951794701485" lon="7.75781663361816"><ele>340.3333333333333</ele><time>2026-04-11T07:27:22.999Z</time></trkpt><trkpt lat="45.06954190442469" lon="7.757926108962104"><ele>342.5</ele><time>2026-04-11T07:27:25.999Z</time></trkpt><trkpt lat="45.069562897050794" lon="7.758037496492933"><ele>344.66666666666663</ele><time>2026-04-11T07:27:28.999Z</time></trkpt><trkpt lat="45.06959369494488" lon="7.758142417416446"><ele>346.8333333333333</ele><time>2026-04-11T07:27:31.999Z</time></trkpt><trkpt lat="45.06963108259039" lon="7.758242159571024"><ele>349.0</ele><time>2026-04-11T07:27:34.999Z</time></trkpt><trkpt lat="45.06967684860687" lon="7.758345345440761"><ele>349.0</ele><time>2026-04-11T07:27:37.999Z</time></trkpt><trkpt lat="45.06971018961598" lon="7.758438021141265"><ele>349.0</ele><time>2026-04-11T07:27:39.999Z</time></trkpt><trkpt lat="45.069743961273936" lon="7.758551649271283"><ele>349.0</ele><time>2026-04-11T07:27:42.999Z</time></trkpt><trkpt lat="45.0697732498754" lon="7.758657052979939"><ele>349.0</ele><time>2026-04-11T07:27:45.999Z</time></trkpt><trkpt lat="45.06981005230225" lon="7.758753143940014"><ele>349.0</ele><time>2026-04-11T07:27:48.999Z</time></trkpt><trkpt lat="45.06983086780126" lon="7.7588531346946565"><ele>349.0</ele><time>2026-04-11T07:27:51.999Z</time></trkpt><trkpt lat="45.06984490888956" lon="7.758969617191114"><ele>348.5</ele><time>2026-04-11T07:27:54.999Z</time></trkpt><trkpt lat="45.06987136127464" lon="7.759069051463588"><ele>348.0</ele><time>2026-04-11T07:27:57.999Z</time></trkpt><trkpt lat="45.06987756333264" lon="7.759167742287919"><ele>347.5</ele><time>2026-04-11T07:28:01Z</time></trkpt><trkpt lat="45.06988026185123" lon="7.759288086251725"><ele>347.0</ele><time>2026-04-11T07:28:04Z</time></trkpt><trkpt lat="45.06989125529008" lon="7.759378715061042"><ele>346.5</ele><time>2026-04-11T07:28:07Z</time></trkpt><trkpt lat="45.06992771581275" lon="7.759484006862766"><ele>346.0</ele><time>2026-04-11T07:28:10Z</time></trkpt><trkpt lat="45.069958926045615" lon="7.75957816333745"><ele>346.0</ele><time>2026-04-11T07:28:13Z</time></trkpt><trkpt lat="45.06999675816893" lon="7.759673675549036"><ele>346.0</ele><time>2026-04-11T07:28:16Z</time></trkpt><trkpt lat="45.07004728718423" lon="7.759775246903221"><ele>346.0</ele><time>2026-04-11T07:28:23Z</time></trkpt><trkpt lat="45.070080092771015" lon="7.75986014601728"><ele>346.0</ele><time>2026-04-11T07:28:27Z</time></trkpt><trkpt lat="45.07010381927701" lon="7.759966411469326"><ele>346.0</ele><time>2026-04-11T07:28:31Z</time></trkpt><trkpt lat="45.07012846889143" lon="7.760075795544932"><ele>346.0</ele><time>2026-04-11T07:28:34Z</time></trkpt><trkpt lat="45.07014966920868" lon="7.760170196605363"><ele>347.8333333333333</ele><time>2026-04-11T07:28:39Z</time></trkpt><trkpt lat="45.070184877684106" lon="7.760261141740127"><ele>349.66666666666663</ele><time>2026-04-11T07:28:42Z</time></trkpt><trkpt lat="45.07021559342682" lon="7.760349698382188"><ele>351.5</ele><time>2026-04-11T07:28:44Z</time></trkpt><trkpt lat="45.07024716713348" lon="7.760458176803166"><ele>353.3333333333333</ele><time>2026-04-11T07:28:48Z</time></trkpt><trkpt lat="45.070267974050935" lon="7.76055727184644"><ele>355.1666666666667</ele><time>2026-04-11T07:28:51Z</time></trkpt><trkpt lat="45.07028132793092" lon="7.760681387080889"><ele>357.0</ele><time>2026-04-11T07:28:54Z</time></trkpt><trkpt lat="45.070295522677014" lon="7.760783645843053"><ele>357.0</ele><time>2026-04-11T07:28:56.999Z</time></trkpt><trkpt lat="45.07032686859036" lon="7.760902434521774"><ele>357.0</ele><time>2026-04-11T07:29:00.999Z</time></trkpt><trkpt lat="45.07035124111743" lon="7.761012061688304"><ele>357.0</ele><time>2026-04-11T07:29:04.999Z</time></trkpt><trkpt lat="45.0703799929182" lon="7.76109225997736"><ele>357.0</ele><time>2026-04-11T07:29:06.999Z</time></trkpt><trkpt lat="45.07041830608185" lon="7.761174048877065"><ele>357.0</ele><time>2026-04-11T07:29:10.999Z</time></trkpt><trkpt lat="45.0704528940456" lon="7.7612772595819335"><ele>357.0</ele><time>2026-04-11T07:29:13.999Z</time></trkpt><trkpt lat="45.070518041812136" lon="7.7613245590822855"><ele>357.0</ele><time>2026-04-11T07:29:19.999Z</time></trkpt><trkpt lat="45.070560327210586" lon="7.761246381632026"><ele>357.0</ele><time>2026-04-11T07:29:24.999Z</time></trkpt><trkpt lat="45.07059885108726" lon="7.76116075826653"><ele>357.0</ele><time>2026-04-11T07:29:27.999Z</time></trkpt><trkpt lat="45.07065450114934" lon="7.761103488658226"><ele>357.0</ele><time>2026-04-11T07:29:33.999Z</time></trkpt><trkpt lat="45.07069833745496" lon="7.761024844243963"><ele>357.0</ele><time>2026-04-11T07:29:37.999Z</time></trkpt><trkpt lat="45.07073158109101" lon="7.760935177199618"><ele>357.0</ele><time>2026-04-11T07:29:40.999Z</time></trkpt><trkpt lat="45.07075447491071" lon="7.760847881062774"><ele>357.0</ele><time>2026-04-11T07:29:45.999Z</time></trkpt><trkpt lat="45.07077165081241" lon="7.760754595994354"><ele>357.0</ele><time>2026-04-11T07:29:49.999Z</time></trkpt><trkpt lat="45.07073245791218" lon="7.760638662830245"><ele>357.0</ele><time>2026-04-11T07:29:52.999Z</time></trkpt><trkpt lat="45.07067328573214" lon="7.760552454926502"><ele>357.0</ele><time>2026-04-11T07:29:57.999Z</time></trkpt><trkpt lat="45.0706355875024" lon="7.760479802379577"><ele>357.0</ele><time>2026-04-11T07:30:01.999Z</time></trkpt><trkpt lat="45.07063894678183" lon="7.760370083831824"><ele>357.0</ele><time>2026-04-11T07:30:05.999Z</time></trkpt><trkpt lat="45.07071974952781" lon="7.760398859777069"><ele>357.0</ele><time>2026-04-11T07:30:15Z</time></trkpt><trkpt lat="45.07078022061832" lon="7.760447094416965"><ele>356.8333333333333</ele><time>2026-04-11T07:30:19Z</time></trkpt><trkpt lat="45.07085008483826" lon="7.760511212318381"><ele>356.6666666666667</ele><time>2026-04-11T07:30:24Z</time></trkpt><trkpt lat="45.070881611397034" lon="7.760599435768182"><ele>356.5</ele><time>2026-04-11T07:30:31Z</time></trkpt><trkpt lat="45.07090584390079" lon="7.760723566986839"><ele>356.33333333333337</ele><time>2026-04-11T07:30:34Z</time></trkpt><trkpt lat="45.07091731895461" lon="7.760827547882885"><ele>356.1666666666667</ele><time>2026-04-11T07:30:37Z</time></trkpt><trkpt lat="45.07091173703428" lon="7.7609240314235715"><ele>356.0</ele><time>2026-04-11T07:30:42Z</time></trkpt><trkpt lat="45.07093036816082" lon="7.761045632022598"><ele>356.2857142857143</ele><time>2026-04-11T07:30:47Z</time></trkpt><trkpt lat="45.0709386355311" lon="7.7611472118518305"><ele>356.57142857142856</ele><time>2026-04-11T07:30:50Z</time></trkpt><trkpt lat="45.07097088764888" lon="7.761265935857667"><ele>356.8571428571429</ele><time>2026-04-11T07:30:54Z</time></trkpt><trkpt lat="45.07100444167136" lon="7.761341940230509"><ele>357.1428571428571</ele><time>2026-04-11T07:30:58.999Z</time></trkpt><trkpt lat="45.071038601915276" lon="7.761424267691837"><ele>357.42857142857144</ele><time>2026-04-11T07:31:01.999Z</time></trkpt><trkpt lat="45.07108339608724" lon="7.761518981663163"><ele>357.7142857142857</ele><time>2026-04-11T07:31:04.999Z</time></trkpt><trkpt lat="45.07111657059369" lon="7.761602246866866"><ele>358.0</ele><time>2026-04-11T07:31:07.999Z</time></trkpt><trkpt lat="45.0711348447348" lon="7.761697953702961"><ele>358.0</ele><time>2026-04-11T07:31:10.999Z</time></trkpt><trkpt lat="45.071194643711834" lon="7.761784397908855"><ele>358.0</ele><time>2026-04-11T07:31:13.999Z</time></trkpt><trkpt lat="45.07123994895976" lon="7.761880463131392"><ele>358.0</ele><time>2026-04-11T07:31:17.999Z</time></trkpt><trkpt lat="45.07125289153499" lon="7.761973879102059"><ele>358.0</ele><time>2026-04-11T07:31:20.999Z</time></trkpt><trkpt lat="45.071272958464704" lon="7.762068463619916"><ele>358.0</ele><time>2026-04-11T07:31:23.999Z</time></trkpt><trkpt lat="45.07132016443069" lon="7.7621659600296145"><ele>358.0</ele><time>2026-04-11T07:31:27.999Z</time></trkpt><trkpt lat="45.07136310231768" lon="7.762238746259922"><ele>358.00000000000006</ele><time>2026-04-11T07:31:30.999Z</time></trkpt><trkpt lat="45.071430521310425" lon="7.762235240235899"><ele>358.0</ele><time>2026-04-11T07:31:33.999Z</time></trkpt><trkpt lat="45.07149797049582" lon="7.76217012178417"><ele>358.0</ele><time>2026-04-11T07:31:36.999Z</time></trkpt><trkpt lat="45.07150075062551" lon="7.762069498071749"><ele>358.0</ele><time>2026-04-11T07:31:41.999Z</time></trkpt><trkpt lat="45.07152171276231" lon="7.761962743703193"><ele>358.0</ele><time>2026-04-11T07:31:45.999Z</time></trkpt><trkpt lat="45.07151806522369" lon="7.761849448245968"><ele>358.00000000000006</ele><time>2026-04-11T07:31:49.999Z</time></trkpt><trkpt lat="45.07151982378263" lon="7.761750000514453"><ele>358.0</ele><time>2026-04-11T07:31:53.999Z</time></trkpt><trkpt lat="45.071521634910766" lon="7.761648193483209"><ele>358.00000000000006</ele><time>2026-04-11T07:31:57.999Z</time></trkpt><trkpt lat="45.0715334794255" lon="7.761546086709305"><ele>358.0</ele><time>2026-04-11T07:32:00.999Z</time></trkpt><trkpt lat="45.0715252672609" lon="7.7614574322472905"><ele>358.0</ele><time>2026-04-11T07:32:03.999Z</time></trkpt><trkpt lat="45.071532658989646" lon="7.761359071956722"><ele>358.0</ele><time>2026-04-11T07:32:06.999Z</time></trkpt><trkpt lat="45.07154072614473" lon="7.761254757104178"><ele>358.0</ele><time>2026-04-11T07:32:09.999Z</time></trkpt><trkpt lat="45.071569240177254" lon="7.761144270791299"><ele>358.00000000000006</ele><time>2026-04-11T07:32:13Z</time></trkpt><trkpt lat="45.07157366271458" lon="7.761055100398056"><ele>358.0</ele><time>2026-04-11T07:32:16Z</time></trkpt><trkpt lat="45.07158872374214" lon="7.760951573528557"><ele>363.0</ele><time>2026-04-11T07:32:19Z</time></trkpt><trkpt lat="45.071607614089714" lon="7.760854378187994"><ele>368.0</ele><time>2026-04-11T07:32:23Z</time></trkpt><trkpt lat="45.071632496411404" lon="7.760750791632063"><ele>373.0</ele><time>2026-04-11T07:32:28Z</time></trkpt><trkpt lat="45.07164442612728" lon="7.760655820183051"><ele>378.0</ele><time>2026-04-11T07:32:31Z</time></trkpt><trkpt lat="45.07171469203224" lon="7.760572526845478"><ele>383.00000000000006</ele><time>2026-04-11T07:32:35Z</time></trkpt><trkpt lat="45.07177695540713" lon="7.760490846843329"><ele>388.0</ele><time>2026-04-11T07:32:39Z</time></trkpt><trkpt lat="45.071834532006754" lon="7.760418217738048"><ele>388.00000000000006</ele><time>2026-04-11T07:32:42Z</time></trkpt><trkpt lat="45.071893578525156" lon="7.76036775228391"><ele>388.0</ele><time>2026-04-11T07:32:45Z</time></trkpt><trkpt lat="45.07195412434315" lon="7.760313312941714"><ele>388.0</ele><time>2026-04-11T07:32:48Z</time></trkpt><trkpt lat="45.072012747723555" lon="7.760251653552999"><ele>388.0</ele><time>2026-04-11T07:32:51Z</time></trkpt><trkpt lat="45.0720735983651" lon="7.76018536168462"><ele>388.00000000000006</ele><time>2026-04-11T07:32:55Z</time></trkpt><trkpt lat="45.072159464830484" lon="7.760166920017716"><ele>388.0</ele><time>2026-04-11T07:33:01Z</time></trkpt><trkpt lat="45.072172628263615" lon="7.760299428496985"><ele>388.00000000000006</ele><time>2026-04-11T07:33:05.999Z</time></trkpt><trkpt lat="45.07214118968038" lon="7.760379836262029"><ele>388.0</ele><time>2026-04-11T07:33:09.999Z</time></trkpt><trkpt lat="45.07211193584062" lon="7.760496172045264"><ele>388.0</ele><time>2026-04-11T07:33:14.999Z</time></trkpt><trkpt lat="45.07212213885355" lon="7.760614309673862"><ele>388.0</ele><time>2026-04-11T07:33:18.999Z</time></trkpt><trkpt lat="45.072094171743906" lon="7.760701738883739"><ele>388.00000000000006</ele><time>2026-04-11T07:33:20.999Z</time></trkpt><trkpt lat="45.072058533632074" lon="7.760784796067653"><ele>388.0</ele><time>2026-04-11T07:33:23.999Z</time></trkpt><trkpt lat="45.07202978327498" lon="7.760887128142708"><ele>388.0</ele><time>2026-04-11T07:33:26.999Z</time></trkpt><trkpt lat="45.07201091013532" lon="7.761010608447071"><ele>388.0</ele><time>2026-04-11T07:33:30.999Z</time></trkpt><trkpt lat="45.07202043805363" lon="7.761105971963328"><ele>388.0</ele><time>2026-04-11T07:33:34.999Z</time></trkpt><trkpt lat="45.072097620973416" lon="7.761067460815598"><ele>388.0</ele><time>2026-04-11T07:33:40.999Z</time></trkpt><trkpt lat="45.07213591445451" lon="7.760990742767574"><ele>388.0</ele><time>2026-04-11T07:33:44.999Z</time></trkpt><trkpt lat="45.07216816835059" lon="7.76090301121471"><ele>388.0</ele><time>2026-04-11T07:33:48.999Z</time></trkpt><trkpt lat="45.07220022179302" lon="7.760823612854909"><ele>388.0</ele><time>2026-04-11T07:33:50.999Z</time></trkpt><trkpt lat="45.0722483172806" lon="7.760727478337793"><ele>388.0</ele><time>2026-04-11T07:33:53.999Z</time></trkpt><trkpt lat="45.07229406800194" lon="7.760640852536786"><ele>388.0</ele><time>2026-04-11T07:33:56.999Z</time></trkpt><trkpt lat="45.07233290663317" lon="7.760570631149624"><ele>388.0</ele><time>2026-04-11T07:33:59.999Z</time></trkpt><trkpt lat="45.072414752340734" lon="7.760589447407776"><ele>388.0</ele><time>2026-04-11T07:34:03.999Z</time></trkpt><trkpt lat="45.07239884749471" lon="7.76068406077021"><ele>388.0</ele><time>2026-04-11T07:34:07.999Z</time></trkpt><trkpt lat="45.07236104541886" lon="7.760768393552602"><ele>388.0</ele><time>2026-04-11T07:34:10.999Z</time></trkpt><trkpt lat="45.072329669599306" lon="7.760847974163338"><ele>388.0</ele><time>2026-04-11T07:34:13.999Z</time></trkpt><trkpt lat="45.072315481833485" lon="7.760967952132277"><ele>388.0</ele><time>2026-04-11T07:34:17.999Z</time></trkpt><trkpt lat="45.07230598498552" lon="7.761061816238236"><ele>388.0</ele><time>2026-04-11T07:34:21Z</time></trkpt><trkpt lat="45.07228415706207" lon="7.761157915766175"><ele>388.0</ele><time>2026-04-11T07:34:24Z</time></trkpt><trkpt lat="45.07228004248382" lon="7.7612499640931505"><ele>388.0</ele><time>2026-04-11T07:34:27Z</time></trkpt><trkpt lat="45.072459863605474" lon="7.761294735522262"><ele>388.0</ele><time>2026-04-11T07:34:38Z</time></trkpt><trkpt lat="45.0725057240653" lon="7.761225358342771"><ele>392.1666666666667</ele><time>2026-04-11T07:34:43Z</time></trkpt><trkpt lat="45.07251664552317" lon="7.761129091189695"><ele>396.33333333333337</ele><time>2026-04-11T07:34:48Z</time></trkpt><trkpt lat="45.072535868301436" lon="7.761005420404961"><ele>400.5</ele><time>2026-04-11T07:34:53Z</time></trkpt><trkpt lat="45.07260037897054" lon="7.760916774154656"><ele>404.66666666666663</ele><time>2026-04-11T07:34:58Z</time></trkpt><trkpt lat="45.07264736290119" lon="7.760808338648271"><ele>408.8333333333333</ele><time>2026-04-11T07:35:01Z</time></trkpt><trkpt lat="45.07265272634433" lon="7.760697034568692"><ele>413.0</ele><time>2026-04-11T07:35:04Z</time></trkpt><trkpt lat="45.072662142362766" lon="7.760603985608054"><ele>412.99999999999994</ele><time>2026-04-11T07:35:06Z</time></trkpt><trkpt lat="45.07267918902505" lon="7.760460116104954"><ele>413.0</ele><time>2026-04-11T07:35:09Z</time></trkpt><trkpt lat="45.07270010784453" lon="7.76035711847497"><ele>413.0</ele><time>2026-04-11T07:35:11Z</time></trkpt><trkpt lat="45.07270608522483" lon="7.760253788442883"><ele>413.0</ele><time>2026-04-11T07:35:12.999Z</time></trkpt><trkpt lat="45.07271994549917" lon="7.760139167469211"><ele>412.99999999999994</ele><time>2026-04-11T07:35:15.999Z</time></trkpt><trkpt lat="45.072738057718254" lon="7.760028730292319"><ele>413.0</ele><time>2026-04-11T07:35:17.999Z</time></trkpt><trkpt lat="45.07275782691321" lon="7.7599421764640875"><ele>412.49999999999994</ele><time>2026-04-11T07:35:19.999Z</time></trkpt><trkpt lat="45.072755677581256" lon="7.759849661489618"><ele>412.0</ele><time>2026-04-11T07:35:21.999Z</time></trkpt><trkpt lat="45.07277088954261" lon="7.759736968297735"><ele>411.5</ele><time>2026-04-11T07:35:23.999Z</time></trkpt><trkpt lat="45.072789633926014" lon="7.759643561839867"><ele>411.0</ele><time>2026-04-11T07:35:25.999Z</time></trkpt><trkpt lat="45.07278558084214" lon="7.759545312018489"><ele>410.49999999999994</ele><time>2026-04-11T07:35:27.999Z</time></trkpt><trkpt lat="45.072791532435545" lon="7.759424600281362"><ele>410.0</ele><time>2026-04-11T07:35:29.999Z</time></trkpt><trkpt lat="45.07301374590726" lon="7.7593701341115935"><ele>409.99999999999994</ele><time>2026-04-11T07:35:37.999Z</time></trkpt><trkpt lat="45.07310083937463" lon="7.759450150846134"><ele>410.0</ele><time>2026-04-11T07:35:40.999Z</time></trkpt><trkpt lat="45.07315498177036" lon="7.7595269447756685"><ele>410.0</ele><time>2026-04-11T07:35:42.999Z</time></trkpt><trkpt lat="45.073246344138255" lon="7.759579767188345"><ele>410.0</ele><time>2026-04-11T07:35:44.999Z</time></trkpt><trkpt lat="45.07332176931172" lon="7.759649143508923"><ele>409.99999999999994</ele><time>2026-04-11T07:35:46.999Z</time></trkpt><trkpt lat="45.073374998733044" lon="7.759716733546925"><ele>410.0</ele><time>2026-04-11T07:35:48.999Z</time></trkpt><trkpt lat="45.07340079280824" lon="7.759818139582295"><ele>411.7142857142857</ele><time>2026-04-11T07:35:54.999Z</time></trkpt><trkpt lat="45.07346717281284" lon="7.759894978316416"><ele>413.4285714285714</ele><time>2026-04-11T07:36:00.999Z</time></trkpt><trkpt lat="45.073511807135574" lon="7.759971591164787"><ele>415.1428571428571</ele><time>2026-04-11T07:36:04.999Z</time></trkpt><trkpt lat="45.07356999652189" lon="7.760049890865129"><ele>416.8571428571429</ele><time>2026-04-11T07:36:09.999Z</time></trkpt><trkpt lat="45.073609059222456" lon="7.760120832025248"><ele>418.57142857142856</ele><time>2026-04-11T07:36:14.999Z</time></trkpt><trkpt lat="45.07364993934786" lon="7.7601888243189805"><ele>420.2857142857143</ele><time>2026-04-11T07:36:21.999Z</time></trkpt><trkpt lat="45.073691649630334" lon="7.7602650121172125"><ele>422.0</ele><time>2026-04-11T07:36:27Z</time></trkpt><trkpt lat="45.073740119797804" lon="7.760332710767416"><ele>423.16666666666663</ele><time>2026-04-11T07:36:31Z</time></trkpt><trkpt lat="45.073800706220354" lon="7.760439553771124"><ele>424.3333333333333</ele><time>2026-04-11T07:36:37Z</time></trkpt><trkpt lat="45.073870795055164" lon="7.760490488087686"><ele>425.5</ele><time>2026-04-11T07:36:42Z</time></trkpt><trkpt lat="45.073920252267904" lon="7.7605688131312585"><ele>426.66666666666663</ele><time>2026-04-11T07:36:48Z</time></trkpt><trkpt lat="45.073968742365196" lon="7.760627993308901"><ele>427.8333333333333</ele><time>2026-04-11T07:36:52Z</time></trkpt><trkpt lat="45.07401096883072" lon="7.760694554854045"><ele>429.0</ele><time>2026-04-11T07:36:57Z</time></trkpt><trkpt lat="45.074026773614236" lon="7.760805141096007"><ele>429.0</ele><time>2026-04-11T07:37:06Z</time></trkpt><trkpt lat="45.0739869511828" lon="7.760901136033516"><ele>429.0</ele><time>2026-04-11T07:37:09Z</time></trkpt><trkpt lat="45.07393389069283" lon="7.7609542806848655"><ele>429.0</ele><time>2026-04-11T07:37:14Z</time></trkpt><trkpt lat="45.07388459844752" lon="7.761034418043136"><ele>429.0</ele><time>2026-04-11T07:37:17.999Z</time></trkpt><trkpt lat="45.073829863315844" lon="7.761098045051885"><ele>429.0</ele><time>2026-04-11T07:37:19.999Z</time></trkpt><trkpt lat="45.073801307025086" lon="7.761206312422579"><ele>429.0</ele><time>2026-04-11T07:37:22.999Z</time></trkpt><trkpt lat="45.07381853840751" lon="7.761312946123178"><ele>429.0</ele><time>2026-04-11T07:37:26.999Z</time></trkpt><trkpt lat="45.07386344172475" lon="7.761378607936113"><ele>429.0</ele><time>2026-04-11T07:37:31.999Z</time></trkpt><trkpt lat="45.073897944714815" lon="7.761454788134694"><ele>429.0</ele><time>2026-04-11T07:37:35.999Z</time></trkpt><trkpt lat="45.073934168898134" lon="7.761554658677268"><ele>429.0</ele><time>2026-04-11T07:37:40.999Z</time></trkpt><trkpt lat="45.073999217631865" lon="7.7616028876396514"><ele>429.0</ele><time>2026-04-11T07:37:45.999Z</time></trkpt><trkpt lat="45.074060691568704" lon="7.761649182058804"><ele>429.0</ele><time>2026-04-11T07:37:50.999Z</time></trkpt><trkpt lat="45.07410976896298" lon="7.761721126859183"><ele>429.0</ele><time>2026-04-11T07:37:55.999Z</time></trkpt><trkpt lat="45.07415406251592" lon="7.761786960815282"><ele>429.0</ele><time>2026-04-11T07:37:59.999Z</time></trkpt><trkpt lat="45.07422187357636" lon="7.761856584134105"><ele>431.8571428571429</ele><time>2026-04-11T07:38:06.999Z</time></trkpt><trkpt lat="45.07425590219931" lon="7.761952423762871"><ele>434.7142857142857</ele><time>2026-04-11T07:38:10.999Z</time></trkpt><trkpt lat="45.07428557921111" lon="7.76204539398814"><ele>437.57142857142856</ele><time>2026-04-11T07:38:14.999Z</time></trkpt><trkpt lat="45.07430920578993" lon="7.762129293934992"><ele>440.42857142857144</ele><time>2026-04-11T07:38:16.999Z</time></trkpt><trkpt lat="45.074345986926396" lon="7.76223056733304"><ele>443.2857142857142</ele><time>2026-04-11T07:38:22.999Z</time></trkpt><trkpt lat="45.07437959558052" lon="7.762318901238656"><ele>446.1428571428571</ele><time>2026-04-11T07:38:26.999Z</time></trkpt><trkpt lat="45.07439808170225" lon="7.76241058554051"><ele>449.0</ele><time>2026-04-11T07:38:29.999Z</time></trkpt><trkpt lat="45.074430949662144" lon="7.762505018754571"><ele>448.99999999999994</ele><time>2026-04-11T07:38:35Z</time></trkpt><trkpt lat="45.07445046473544" lon="7.762592659857783"><ele>449.0</ele><time>2026-04-11T07:38:38Z</time></trkpt><trkpt lat="45.074432646728596" lon="7.762728301827879"><ele>449.0</ele><time>2026-04-11T07:38:41Z</time></trkpt><trkpt lat="45.074449683263275" lon="7.762840205778262"><ele>449.0</ele><time>2026-04-11T07:38:44Z</time></trkpt><trkpt lat="45.07446529747648" lon="7.762941194469247"><ele>448.99999999999994</ele><time>2026-04-11T07:38:47Z</time></trkpt><trkpt lat="45.07450296708135" lon="7.763028763110289"><ele>449.0</ele><time>2026-04-11T07:38:52Z</time></trkpt><trkpt lat="45.0745358870774" lon="7.763107642569537"><ele>448.0</ele><time>2026-04-11T07:38:55Z</time></trkpt><trkpt lat="45.07458920359342" lon="7.763166430354143"><ele>446.99999999999994</ele><time>2026-04-11T07:38:59Z</time></trkpt><trkpt lat="45.07463916209973" lon="7.763221671068858"><ele>446.0</ele><time>2026-04-11T07:39:05Z</time></trkpt><trkpt lat="45.07470222391949" lon="7.763241206926718"><ele>445.0</ele><time>2026-04-11T07:39:08Z</time></trkpt><trkpt lat="45.0747688751001" lon="7.7632607267671006"><ele>444.0</ele><time>2026-04-11T07:39:13Z</time></trkpt><trkpt lat="45.07480275597969" lon="7.763145728857861"><ele>443.0</ele><time>2026-04-11T07:39:17Z</time></trkpt><trkpt lat="45.07487508169292" lon="7.763074328898066"><ele>442.0</ele><time>2026-04-11T07:39:21Z</time></trkpt><trkpt lat="45.074906963312614" lon="7.762984794259449"><ele>446.28571428571433</ele><time>2026-04-11T07:39:26Z</time></trkpt><trkpt lat="45.0749401036348" lon="7.762890896356455"><ele>450.57142857142856</ele><time>2026-04-11T07:39:31.999Z</time></trkpt><trkpt lat="45.074964866818085" lon="7.762802205636402"><ele>454.8571428571429</ele><time>2026-04-11T07:39:36.999Z</time></trkpt><trkpt lat="45.07500201821041" lon="7.762720738784129"><ele>459.14285714285717</ele><time>2026-04-11T07:39:42.999Z</time></trkpt><trkpt lat="45.07503271277357" lon="7.762620839026327"><ele>463.42857142857144</ele><time>2026-04-11T07:39:46.999Z</time></trkpt><trkpt lat="45.075029749391334" lon="7.762518444421697"><ele>467.7142857142857</ele><time>2026-04-11T07:39:51.999Z</time></trkpt><trkpt lat="45.07505999612375" lon="7.762425912515585"><ele>472.0</ele><time>2026-04-11T07:39:56.999Z</time></trkpt><trkpt lat="45.075104449651334" lon="7.762357413185322"><ele>472.83333333333337</ele><time>2026-04-11T07:40:00.999Z</time></trkpt><trkpt lat="45.07511733101436" lon="7.7622692887473"><ele>473.6666666666667</ele><time>2026-04-11T07:40:04.999Z</time></trkpt><trkpt lat="45.07517085754597" lon="7.762187573496506"><ele>474.5</ele><time>2026-04-11T07:40:10.999Z</time></trkpt><trkpt lat="45.07518896047051" lon="7.7620627276385"><ele>475.33333333333337</ele><time>2026-04-11T07:40:15.999Z</time></trkpt><trkpt lat="45.0752166457996" lon="7.761955065466763"><ele>476.1666666666667</ele><time>2026-04-11T07:40:21.999Z</time></trkpt><trkpt lat="45.0752781315069" lon="7.761866488687205"><ele>477.0</ele><time>2026-04-11T07:40:25.999Z</time></trkpt><trkpt lat="45.0752784467722" lon="7.761768254485525"><ele>477.1666666666667</ele><time>2026-04-11T07:40:28.999Z</time></trkpt><trkpt lat="45.07524203133267" lon="7.761655469776798"><ele>477.33333333333337</ele><time>2026-04-11T07:40:31.999Z</time></trkpt><trkpt lat="45.075275876633164" lon="7.761571136188116"><ele>477.5</ele><time>2026-04-11T07:40:38Z</time></trkpt><trkpt lat="45.07535831691481" lon="7.761498659029363"><ele>477.6666666666667</ele><time>2026-04-11T07:40:46Z</time></trkpt><trkpt lat="45.07540818340972" lon="7.761395582389683"><ele>477.83333333333337</ele><time>2026-04-11T07:40:51Z</time></trkpt><trkpt lat="45.075460410873816" lon="7.761336530169235"><ele>478.0</ele><time>2026-04-11T07:40:55Z</time></trkpt><trkpt lat="45.075519982704506" lon="7.761299797989728"><ele>478.0</ele><time>2026-04-11T07:40:58Z</time></trkpt><trkpt lat="45.07558596889867" lon="7.761292735750148"><ele>478.0</ele><time>2026-04-11T07:41:02Z</time></trkpt><trkpt lat="45.0757113529973" lon="7.761306760914154"><ele>478.0</ele><time>2026-04-11T07:41:08Z</time></trkpt><trkpt lat="45.07578831938838" lon="7.761273262107504"><ele>478.0</ele><time>2026-04-11T07:41:12Z</time></trkpt><trkpt lat="45.07596799282431" lon="7.76124759656418"><ele>487.0</ele><time>2026-04-11T07:41:21Z</time></trkpt><trkpt lat="45.076212745525694" lon="7.761242032324572"><ele>496.0</ele><time>2026-04-11T07:41:29Z</time></trkpt><trkpt lat="45.076332310050105" lon="7.761227792061755"><ele>505.0</ele><time>2026-04-11T07:41:34.999Z</time></trkpt><trkpt lat="45.07641513082758" lon="7.761183325818391"><ele>505.0</ele><time>2026-04-11T07:41:37.999Z</time></trkpt><trkpt lat="45.076482928663445" lon="7.761128465430057"><ele>504.99999999999994</ele><time>2026-04-11T07:41:40.999Z</time></trkpt><trkpt lat="45.076548013951886" lon="7.761082552144992"><ele>505.0</ele><time>2026-04-11T07:41:42.999Z</time></trkpt><trkpt lat="45.07660585415396" lon="7.761028919330729"><ele>505.0</ele><time>2026-04-11T07:41:44.999Z</time></trkpt><trkpt lat="45.07666107990589" lon="7.760970631503623"><ele>504.99999999999994</ele><time>2026-04-11T07:41:46.999Z</time></trkpt><trkpt lat="45.07665880710125" lon="7.760864079621312"><ele>505.0</ele><time>2026-04-11T07:41:49.999Z</time></trkpt><trkpt lat="45.07669647470373" lon="7.760778687829271"><ele>505.0</ele><time>2026-04-11T07:41:51.999Z</time></trkpt><trkpt lat="45.076705191882525" lon="7.760670369042797"><ele>503.8</ele><time>2026-04-11T07:41:54.999Z</time></trkpt><trkpt lat="45.076665821557214" lon="7.760499701451303"><ele>502.6</ele><time>2026-04-11T07:41:57.999Z</time></trkpt><trkpt lat="45.07664788723444" lon="7.760337111376313"><ele>501.4</ele><time>2026-04-11T07:41:59.999Z</time></trkpt><trkpt lat="45.076665654546794" lon="7.7602382807069255"><ele>500.2</ele><time>2026-04-11T07:42:01.999Z</time></trkpt><trkpt lat="45.076733484392115" lon="7.760156442661759"><ele>499.0</ele><time>2026-04-11T07:42:04.999Z</time></trkpt><trkpt lat="45.07679743266314" lon="7.760097159360297"><ele>499.00000000000006</ele><time>2026-04-11T07:42:06.999Z</time></trkpt><trkpt lat="45.07685996394888" lon="7.760071177009077"><ele>499.0</ele><time>2026-04-11T07:42:08.999Z</time></trkpt><trkpt lat="45.07692360178357" lon="7.76006210471527"><ele>499.0</ele><time>2026-04-11T07:42:10.999Z</time></trkpt><trkpt lat="45.07698625874395" lon="7.760097165514901"><ele>499.0</ele><time>2026-04-11T07:42:12.999Z</time></trkpt><trkpt lat="45.07705936592553" lon="7.76014536079447"><ele>499.00000000000006</ele><time>2026-04-11T07:42:14.999Z</time></trkpt><trkpt lat="45.07712840632309" lon="7.760191769201631"><ele>499.0</ele><time>2026-04-11T07:42:16.999Z</time></trkpt><trkpt lat="45.077253964718466" lon="7.760201887685765"><ele>498.4</ele><time>2026-04-11T07:42:18.999Z</time></trkpt><trkpt lat="45.077344823510124" lon="7.760171016021505"><ele>497.79999999999995</ele><time>2026-04-11T07:42:20.999Z</time></trkpt><trkpt lat="45.077416867289344" lon="7.7601631554008215"><ele>497.20000000000005</ele><time>2026-04-11T07:42:21.999Z</time></trkpt><trkpt lat="45.07747517726329" lon="7.760066103287093"><ele>496.6</ele><time>2026-04-11T07:42:23.999Z</time></trkpt><trkpt lat="45.07759263292346" lon="7.760031461795187"><ele>496.0</ele><time>2026-04-11T07:42:26.999Z</time></trkpt><trkpt lat="45.07768541608791" lon="7.7600014222607445"><ele>496.0</ele><time>2026-04-11T07:42:28.999Z</time></trkpt><trkpt lat="45.07797157595797" lon="7.75995100532817"><ele>496.0</ele><time>2026-04-11T07:42:36.999Z</time></trkpt><trkpt lat="45.07796207416031" lon="7.759733167926038"><ele>496.0</ele><time>2026-04-11T07:42:40.999Z</time></trkpt><trkpt lat="45.078044277020545" lon="7.759668971934503"><ele>496.00000000000006</ele><time>2026-04-11T07:42:43Z</time></trkpt><trkpt lat="45.07808031786273" lon="7.75958074602796"><ele>496.0</ele><time>2026-04-11T07:42:46Z</time></trkpt><trkpt lat="45.078129451642766" lon="7.759502040132462"><ele>496.0</ele><time>2026-04-11T07:42:48Z</time></trkpt><trkpt lat="45.07819143703839" lon="7.759415826241173"><ele>496.0</ele><time>2026-04-11T07:42:51Z</time></trkpt><trkpt lat="45.07825509115351" lon="7.759303742972763"><ele>496.00000000000006</ele><time>2026-04-11T07:42:54Z</time></trkpt><trkpt lat="45.078282400662886" lon="7.759217149324168"><ele>496.0</ele><time>2026-04-11T07:42:56Z</time></trkpt><trkpt lat="45.078297227756124" lon="7.759087905361296"><ele>496.83333333333337</ele><time>2026-04-11T07:42:59Z</time></trkpt><trkpt lat="45.07831021910674" lon="7.75899066855567"><ele>497.6666666666667</ele><time>2026-04-11T07:43:02Z</time></trkpt><trkpt lat="45.07839816725619" lon="7.759026578433032"><ele>498.5</ele><time>2026-04-11T07:43:05Z</time></trkpt><trkpt lat="45.07839025371571" lon="7.759134865529325"><ele>499.33333333333337</ele><time>2026-04-11T07:43:11Z</time></trkpt><trkpt lat="45.07839246149578" lon="7.759241848228496"><ele>500.1666666666667</ele><time>2026-04-11T07:43:15Z</time></trkpt><trkpt lat="45.07836856783762" lon="7.759335363202076"><ele>501.0</ele><time>2026-04-11T07:43:19Z</time></trkpt><trkpt lat="45.07836349118672" lon="7.759442018877849"><ele>502.7142857142857</ele><time>2026-04-11T07:43:24Z</time></trkpt><trkpt lat="45.07835399109899" lon="7.75955397334708"><ele>504.42857142857144</ele><time>2026-04-11T07:43:29Z</time></trkpt><trkpt lat="45.07834366330684" lon="7.759651858429911"><ele>506.14285714285717</ele><time>2026-04-11T07:43:33Z</time></trkpt><trkpt lat="45.07835859664053" lon="7.759738688487948"><ele>507.8571428571429</ele><time>2026-04-11T07:43:37.999Z</time></trkpt><trkpt lat="45.07835728909288" lon="7.75984050810099"><ele>509.57142857142856</ele><time>2026-04-11T07:43:41.999Z</time></trkpt><trkpt lat="45.07835071125154" lon="7.759940192225682"><ele>511.28571428571433</ele><time>2026-04-11T07:43:46.999Z</time></trkpt><trkpt lat="45.07835033406502" lon="7.7600459941504285"><ele>513.0</ele><time>2026-04-11T07:43:52.999Z</time></trkpt><trkpt lat="45.07834712527607" lon="7.7601576237991825"><ele>513.1666666666666</ele><time>2026-04-11T07:43:57.999Z</time></trkpt><trkpt lat="45.07835202635544" lon="7.760265185848341"><ele>513.3333333333334</ele><time>2026-04-11T07:44:00.999Z</time></trkpt><trkpt lat="45.07836131492053" lon="7.760411537688092"><ele>513.5</ele><time>2026-04-11T07:44:07.999Z</time></trkpt><trkpt lat="45.0783260124384" lon="7.760513795308369"><ele>513.6666666666667</ele><time>2026-04-11T07:44:12.999Z</time></trkpt><trkpt lat="45.078293107050676" lon="7.760629278292559"><ele>513.8333333333334</ele><time>2026-04-11T07:44:16.999Z</time></trkpt><trkpt lat="45.07825912564546" lon="7.760748354107632"><ele>514.0</ele><time>2026-04-11T07:44:21.999Z</time></trkpt><trkpt lat="45.07821668735164" lon="7.760834465549109"><ele>514.0</ele><time>2026-04-11T07:44:26.999Z</time></trkpt><trkpt lat="45.07818267340681" lon="7.760933965536545"><ele>514.0</ele><time>2026-04-11T07:44:30.999Z</time></trkpt><trkpt lat="45.078161174217314" lon="7.761017873909809"><ele>514.0</ele><time>2026-04-11T07:44:33.999Z</time></trkpt><trkpt lat="45.078096846650226" lon="7.761072877179987"><ele>514.0</ele><time>2026-04-11T07:44:37.999Z</time></trkpt><trkpt lat="45.0780514865319" lon="7.761153147190195"><ele>514.0</ele><time>2026-04-11T07:44:41.999Z</time></trkpt><trkpt lat="45.07802300380215" lon="7.7612458493960945"><ele>514.0</ele><time>2026-04-11T07:44:46.999Z</time></trkpt><trkpt lat="45.07796749433077" lon="7.76130208032677"><ele>514.0</ele><time>2026-04-11T07:44:51Z</time></trkpt><trkpt lat="45.077906374360744" lon="7.761347088791122"><ele>518.6</ele><time>2026-04-11T07:44:55Z</time></trkpt><trkpt lat="45.077815811105395" lon="7.761340306846751"><ele>523.2</ele><time>2026-04-11T07:44:58Z</time></trkpt><trkpt lat="45.07774843768485" lon="7.7613982931810455"><ele>527.8000000000001</ele><time>2026-04-11T07:45:04Z</time></trkpt><trkpt lat="45.07768574744254" lon="7.761386434137905"><ele>532.4</ele><time>2026-04-11T07:45:07Z</time></trkpt><trkpt lat="45.077711141118755" lon="7.76146834914885"><ele>537.0</ele><time>2026-04-11T07:45:11Z</time></trkpt><trkpt lat="45.077866052196605" lon="7.761511450518198"><ele>537.0</ele><time>2026-04-11T07:45:24Z</time></trkpt><trkpt lat="45.07793787532783" lon="7.761563355031722"><ele>537.0</ele><time>2026-04-11T07:45:29Z</time></trkpt><trkpt lat="45.07804098983697" lon="7.761587662547171"><ele>537.0</ele><time>2026-04-11T07:45:34Z</time></trkpt><trkpt lat="45.07812572174067" lon="7.761533365189463"><ele>537.0</ele><time>2026-04-11T07:45:39Z</time></trkpt><trkpt lat="45.07818442565139" lon="7.761487535239425"><ele>537.0</ele><time>2026-04-11T07:45:42Z</time></trkpt><trkpt lat="45.07825720529719" lon="7.761412423816106"><ele>537.0</ele><time>2026-04-11T07:45:46Z</time></trkpt><trkpt lat="45.07831312889585" lon="7.761360159109845"><ele>538.0</ele><time>2026-04-11T07:45:49Z</time></trkpt><trkpt lat="45.07839900978436" lon="7.761300923650898"><ele>539.0</ele><time>2026-04-11T07:45:51.999Z</time></trkpt><trkpt lat="45.07845682607396" lon="7.7611891542277185"><ele>540.0</ele><time>2026-04-11T07:45:54.999Z</time></trkpt><trkpt lat="45.07852514246146" lon="7.761128047167919"><ele>541.0</ele><time>2026-04-11T07:45:57.999Z</time></trkpt><trkpt lat="45.07858011408013" lon="7.761063199848613"><ele>542.0</ele><time>2026-04-11T07:46:00.999Z</time></trkpt><trkpt lat="45.07864731742614" lon="7.761000765222346"><ele>543.0</ele><time>2026-04-11T07:46:04.999Z</time></trkpt><trkpt lat="45.0788159039697" lon="7.76103290739456"><ele>543.0</ele><time>2026-04-11T07:46:18.999Z</time></trkpt><trkpt lat="45.07882799165442" lon="7.761140116440288"><ele>543.0</ele><time>2026-04-11T07:46:21.999Z</time></trkpt><trkpt lat="45.07882963420648" lon="7.7612524836547365"><ele>543.0</ele><time>2026-04-11T07:46:24.999Z</time></trkpt><trkpt lat="45.078842879327766" lon="7.761356467891605"><ele>543.0</ele><time>2026-04-11T07:46:26.999Z</time></trkpt><trkpt lat="45.07884284114823" lon="7.76148060381069"><ele>543.0</ele><time>2026-04-11T07:46:29.999Z</time></trkpt><trkpt lat="45.07883908893334" lon="7.761583227091775"><ele>543.0</ele><time>2026-04-11T07:46:31.999Z</time></trkpt><trkpt lat="45.078821109043396" lon="7.76167076455321"><ele>543.0</ele><time>2026-04-11T07:46:33.999Z</time></trkpt><trkpt lat="45.07884828383044" lon="7.761787455401335"><ele>543.0</ele><time>2026-04-11T07:46:35.999Z</time></trkpt><trkpt lat="45.07885946449455" lon="7.7618868323076065"><ele>543.0</ele><time>2026-04-11T07:46:37.999Z</time></trkpt><trkpt lat="45.07888594163931" lon="7.762006478466068"><ele>543.0</ele><time>2026-04-11T07:46:39.999Z</time></trkpt><trkpt lat="45.078933655953854" lon="7.762122602980186"><ele>543.0</ele><time>2026-04-11T07:46:41.999Z</time></trkpt><trkpt lat="45.07897643058194" lon="7.762233504364293"><ele>543.0</ele><time>2026-04-11T07:46:43.999Z</time></trkpt><trkpt lat="45.07899043202707" lon="7.7623272264244925"><ele>546.5</ele><time>2026-04-11T07:46:44.999Z</time></trkpt><trkpt lat="45.07900533987296" lon="7.762445023200794"><ele>550.0</ele><time>2026-04-11T07:46:46.999Z</time></trkpt><trkpt lat="45.07899198412966" lon="7.762570203719624"><ele>553.5</ele><time>2026-04-11T07:46:48.999Z</time></trkpt><trkpt lat="45.07904691818319" lon="7.762665136274327"><ele>557.0</ele><time>2026-04-11T07:46:51.999Z</time></trkpt><trkpt lat="45.07912819321214" lon="7.76270460473676"><ele>560.5</ele><time>2026-04-11T07:46:53.999Z</time></trkpt><trkpt lat="45.07918854809764" lon="7.762741983333857"><ele>564.0</ele><time>2026-04-11T07:46:56Z</time></trkpt><trkpt lat="45.07924708919093" lon="7.762819431265782"><ele>564.6666666666666</ele><time>2026-04-11T07:46:59Z</time></trkpt><trkpt lat="45.07931714742836" lon="7.762853428208487"><ele>565.3333333333334</ele><time>2026-04-11T07:47:02Z</time></trkpt><trkpt lat="45.079372227166914" lon="7.7629267773922495"><ele>566.0</ele><time>2026-04-11T07:47:06Z</time></trkpt><trkpt lat="45.07940874361463" lon="7.763036448423164"><ele>566.6666666666667</ele><time>2026-04-11T07:47:09Z</time></trkpt><trkpt lat="45.07950572166958" lon="7.763040387256576"><ele>567.3333333333334</ele><time>2026-04-11T07:47:14Z</time></trkpt><trkpt lat="45.079569821541064" lon="7.763021733029458"><ele>568.0</ele><time>2026-04-11T07:47:17Z</time></trkpt><trkpt lat="45.07963101358539" lon="7.762956676142694"><ele>568.0</ele><time>2026-04-11T07:47:20Z</time></trkpt><trkpt lat="45.079719363911586" lon="7.762892658516605"><ele>568.0</ele><time>2026-04-11T07:47:24Z</time></trkpt><trkpt lat="45.07977726385584" lon="7.762814364158415"><ele>568.0</ele><time>2026-04-11T07:47:29Z</time></trkpt><trkpt lat="45.079816932876405" lon="7.762742228655067"><ele>568.0</ele><time>2026-04-11T07:47:32Z</time></trkpt><trkpt lat="45.07989414505909" lon="7.762750810938409"><ele>568.0</ele><time>2026-04-11T07:47:35Z</time></trkpt><trkpt lat="45.079955907867145" lon="7.7627940733219045"><ele>568.0</ele><time>2026-04-11T07:47:37Z</time></trkpt><trkpt lat="45.08002626598575" lon="7.7628851002473365"><ele>567.0</ele><time>2026-04-11T07:47:39Z</time></trkpt><trkpt lat="45.080114945359696" lon="7.762919488559265"><ele>566.0</ele><time>2026-04-11T07:47:41Z</time></trkpt><trkpt lat="45.08017914659734" lon="7.76297280826331"><ele>565.0</ele><time>2026-04-11T07:47:43Z</time></trkpt><trkpt lat="45.08025924729793" lon="7.76299850813273"><ele>564.0</ele><time>2026-04-11T07:47:45Z</time></trkpt><trkpt lat="45.08036750009836" lon="7.762939477422254"><ele>563.0</ele><time>2026-04-11T07:47:49Z</time></trkpt><trkpt lat="45.08045193809711" lon="7.762860962735398"><ele>563.0</ele><time>2026-04-11T07:47:51Z</time></trkpt><trkpt lat="45.08050488461039" lon="7.762791263981136"><ele>563.0</ele><time>2026-04-11T07:47:54Z</time></trkpt><trkpt lat="45.08056243244065" lon="7.762866925007013"><ele>563.0</ele><time>2026-04-11T07:47:57Z</time></trkpt><trkpt lat="45.08059389566965" lon="7.762959500948961"><ele>563.0</ele><time>2026-04-11T07:48:01Z</time></trkpt><trkpt lat="45.08059313935036" lon="7.7630674491343346"><ele>563.0</ele><time>2026-04-11T07:48:05.999Z</time></trkpt><trkpt lat="45.080561604499465" lon="7.763156194028205"><ele>563.0</ele><time>2026-04-11T07:48:22.999Z</time></trkpt><trkpt lat="45.08059121646233" lon="7.763242256959964"><ele>563.0</ele><time>2026-04-11T07:48:31.999Z</time></trkpt><trkpt lat="45.08060863237841" lon="7.763331884819865"><ele>563.0</ele><time>2026-04-11T07:48:38.999Z</time></trkpt><trkpt lat="45.080636492538304" lon="7.7634121086187236"><ele>563.0</ele><time>2026-04-11T07:48:50.999Z</time></trkpt><trkpt lat="45.08069884684857" lon="7.763449404246022"><ele>563.0</ele><time>2026-04-11T07:48:58.999Z</time></trkpt><trkpt lat="45.08077266323391" lon="7.7634820064964165"><ele>563.0</ele><time>2026-04-11T07:49:11Z</time></trkpt><trkpt lat="45.080798821692085" lon="7.7635775530953985"><ele>563.0</ele><time>2026-04-11T07:49:31Z</time></trkpt><trkpt lat="45.08085092453483" lon="7.7636358368761185"><ele>563.0</ele><time>2026-04-11T07:49:37Z</time></trkpt><trkpt lat="45.08094801577806" lon="7.763675113590128"><ele>563.0</ele><time>2026-04-11T07:49:46Z</time></trkpt><trkpt lat="45.08101518972727" lon="7.763711806635948"><ele>564.7142857142857</ele><time>2026-04-11T07:50:02Z</time></trkpt><trkpt lat="45.08105381200814" lon="7.763796270932769"><ele>566.4285714285714</ele><time>2026-04-11T07:50:07Z</time></trkpt><trkpt lat="45.0810920601475" lon="7.7638744457357545"><ele>568.1428571428571</ele><time>2026-04-11T07:50:12Z</time></trkpt><trkpt lat="45.08112729306437" lon="7.7639660685849075"><ele>569.8571428571429</ele><time>2026-04-11T07:50:19.999Z</time></trkpt><trkpt lat="45.081161875883694" lon="7.764059844582456"><ele>571.5714285714286</ele><time>2026-04-11T07:50:42.999Z</time></trkpt><trkpt lat="45.08122749848937" lon="7.764120124656395"><ele>573.2857142857142</ele><time>2026-04-11T07:50:49.999Z</time></trkpt><trkpt lat="45.08124856728124" lon="7.764210236539071"><ele>575.0</ele><time>2026-04-11T07:51:02.999Z</time></trkpt><trkpt lat="45.081308407017524" lon="7.76426333034486"><ele>575.0</ele><time>2026-04-11T07:51:11Z</time></trkpt><trkpt lat="45.081369820709064" lon="7.764303942714242"><ele>575.0</ele><time>2026-04-11T07:51:21Z</time></trkpt><trkpt lat="45.081435729091744" lon="7.7643367688284295"><ele>575.0</ele><time>2026-04-11T07:51:27Z</time></trkpt><trkpt lat="45.081495843953775" lon="7.764382968307056"><ele>575.0</ele><time>2026-04-11T07:51:33Z</time></trkpt><trkpt lat="45.081448233277435" lon="7.764455024513949"><ele>575.0</ele><time>2026-04-11T07:52:17.999Z</time></trkpt><trkpt lat="45.08136460259762" lon="7.764455065184823"><ele>575.0</ele><time>2026-04-11T07:52:21.999Z</time></trkpt><trkpt lat="45.08130259674969" lon="7.764498981596766"><ele>575.0</ele><time>2026-04-11T07:52:28.999Z</time></trkpt><trkpt lat="45.08123944826744" lon="7.764524360023217"><ele>575.0</ele><time>2026-04-11T07:52:33.999Z</time></trkpt><trkpt lat="45.08117629325732" lon="7.764519187316092"><ele>575.0</ele><time>2026-04-11T07:52:49.999Z</time></trkpt><trkpt lat="45.081110064139395" lon="7.764508729992608"><ele>575.0</ele><time>2026-04-11T07:52:55.999Z</time></trkpt><trkpt lat="45.08103587961329" lon="7.764514252292739"><ele>575.0</ele><time>2026-04-11T07:53:08.999Z</time></trkpt><trkpt lat="45.08104486990777" lon="7.764417000300778"><ele>575.0</ele><time>2026-04-11T07:53:28Z</time></trkpt><trkpt lat="45.080967455049695" lon="7.764398548099493"><ele>575.0</ele><time>2026-04-11T07:53:33Z</time></trkpt><trkpt lat="45.08089750100532" lon="7.7643851092741"><ele>575.0</ele><time>2026-04-11T07:53:37Z</time></trkpt><trkpt lat="45.08083264942164" lon="7.764348130013363"><ele>575.0</ele><time>2026-04-11T07:53:40Z</time></trkpt><trkpt lat="45.08077000042394" lon="7.764323710117909"><ele>575.0</ele><time>2026-04-11T07:53:43Z</time></trkpt><trkpt lat="45.080698137727296" lon="7.764283356764838"><ele>575.0</ele><time>2026-04-11T07:53:47Z</time></trkpt><trkpt lat="45.08061950937023" lon="7.764296612445923"><ele>575.0</ele><time>2026-04-11T07:53:52Z</time></trkpt><trkpt lat="45.08054310202578" lon="7.764245244213978"><ele>575.0</ele><time>2026-04-11T07:53:55Z</time></trkpt><trkpt lat="45.080460075488645" lon="7.764211149867257"><ele>575.0</ele><time>2026-04-11T07:53:59Z</time></trkpt><trkpt lat="45.080384022545005" lon="7.764230771625799"><ele>577.2857142857142</ele><time>2026-04-11T07:54:02Z</time></trkpt><trkpt lat="45.08030782917138" lon="7.76424144937806"><ele>579.5714285714286</ele><time>2026-04-11T07:54:06Z</time></trkpt><trkpt lat="45.08023963660892" lon="7.764216527764488"><ele>581.8571428571429</ele><time>2026-04-11T07:54:09Z</time></trkpt><trkpt lat="45.08016632567304" lon="7.764188856382115"><ele>584.1428571428571</ele><time>2026-04-11T07:54:13Z</time></trkpt><trkpt lat="45.080115751297136" lon="7.764108550708929"><ele>586.4285714285714</ele><time>2026-04-11T07:54:16.999Z</time></trkpt><trkpt lat="45.08005102665438" lon="7.764072365979314"><ele>588.7142857142857</ele><time>2026-04-11T07:54:21.999Z</time></trkpt><trkpt lat="45.07999876745899" lon="7.7639966725735565"><ele>591.0</ele><time>2026-04-11T07:54:26.999Z</time></trkpt><trkpt lat="45.07994437579661" lon="7.764042711800132"><ele>591.0</ele><time>2026-04-11T07:54:33.999Z</time></trkpt><trkpt lat="45.07992937963944" lon="7.764141815265511"><ele>591.0</ele><time>2026-04-11T07:54:43.999Z</time></trkpt><trkpt lat="45.07994472499834" lon="7.764234100934269"><ele>591.0</ele><time>2026-04-11T07:54:50.999Z</time></trkpt><trkpt lat="45.079948790331535" lon="7.764338254846437"><ele>591.0</ele><time>2026-04-11T07:54:57.999Z</time></trkpt><trkpt lat="45.07997505382913" lon="7.764435888779417"><ele>591.0</ele><time>2026-04-11T07:55:06.999Z</time></trkpt><trkpt lat="45.080017006851406" lon="7.76451110362581"><ele>591.0</ele><time>2026-04-11T07:55:13.999Z</time></trkpt><trkpt lat="45.08005625396883" lon="7.7645988988646355"><ele>591.0</ele><time>2026-04-11T07:55:22Z</time></trkpt><trkpt lat="45.08009939788934" lon="7.764688319730082"><ele>594.7142857142857</ele><time>2026-04-11T07:55:32Z</time></trkpt><trkpt lat="45.08015301126565" lon="7.764748931157462"><ele>598.4285714285714</ele><time>2026-04-11T07:55:38Z</time></trkpt><trkpt lat="45.080231148381834" lon="7.764803223157504"><ele>602.1428571428571</ele><time>2026-04-11T07:55:57Z</time></trkpt><trkpt lat="45.0802864495123" lon="7.764873974419366"><ele>605.8571428571429</ele><time>2026-04-11T07:56:04Z</time></trkpt><trkpt lat="45.080335611430044" lon="7.764947398803423"><ele>609.5714285714286</ele><time>2026-04-11T07:56:09Z</time></trkpt><trkpt lat="45.080406906460624" lon="7.764992241215752"><ele>613.2857142857143</ele><time>2026-04-11T07:56:13Z</time></trkpt><trkpt lat="45.08046807914612" lon="7.7650364578421405"><ele>617.0</ele><time>2026-04-11T07:56:17Z</time></trkpt><trkpt lat="45.08052575298474" lon="7.765080965535884"><ele>617.0</ele><time>2026-04-11T07:56:20Z</time></trkpt><trkpt lat="45.08058863620787" lon="7.765098376638321"><ele>617.0</ele><time>2026-04-11T07:56:24Z</time></trkpt><trkpt lat="45.080639112011056" lon="7.765170022535631"><ele>617.0</ele><time>2026-04-11T07:56:28.999Z</time></trkpt><trkpt lat="45.08070254364877" lon="7.765222039288574"><ele>617.0</ele><time>2026-04-11T07:56:32.999Z</time></trkpt><trkpt lat="45.08075951110897" lon="7.76527007007243"><ele>617.0</ele><time>2026-04-11T07:56:37.999Z</time></trkpt><trkpt lat="45.08081376960664" lon="7.765327006549229"><ele>617.0</ele><time>2026-04-11T07:56:41.999Z</time></trkpt><trkpt lat="45.080879317462205" lon="7.76538479601285"><ele>617.0</ele><time>2026-04-11T07:56:45.999Z</time></trkpt><trkpt lat="45.08096887878957" lon="7.765439355565654"><ele>618.8571428571429</ele><time>2026-04-11T07:56:49.999Z</time></trkpt><trkpt lat="45.0810107441667" lon="7.765518804702955"><ele>620.7142857142857</ele><time>2026-04-11T07:57:01.999Z</time></trkpt><trkpt lat="45.08097690879103" lon="7.765595240217547"><ele>622.5714285714286</ele><time>2026-04-11T07:57:16.999Z</time></trkpt><trkpt lat="45.08090662271737" lon="7.765588245565238"><ele>624.4285714285714</ele><time>2026-04-11T07:57:47Z</time></trkpt><trkpt lat="45.08084222734825" lon="7.765577053460807"><ele>626.2857142857142</ele><time>2026-04-11T07:57:51Z</time></trkpt><trkpt lat="45.080780470017906" lon="7.765556999183315"><ele>628.1428571428571</ele><time>2026-04-11T07:57:57Z</time></trkpt><trkpt lat="45.08070721204991" lon="7.765567851044781"><ele>630.0</ele><time>2026-04-11T07:58:05Z</time></trkpt><trkpt lat="45.080635029336705" lon="7.765567682422616"><ele>631.7142857142857</ele><time>2026-04-11T07:58:12Z</time></trkpt><trkpt lat="45.0805692430027" lon="7.7655496848933305"><ele>633.4285714285714</ele><time>2026-04-11T07:58:18Z</time></trkpt><trkpt lat="45.080502319783136" lon="7.765534854607483"><ele>635.1428571428571</ele><time>2026-04-11T07:58:24Z</time></trkpt><trkpt lat="45.08043441916925" lon="7.765526320144573"><ele>636.8571428571429</ele><time>2026-04-11T07:58:30Z</time></trkpt><trkpt lat="45.08037163680817" lon="7.765553509957042"><ele>638.5714285714286</ele><time>2026-04-11T07:58:37.999Z</time></trkpt><trkpt lat="45.080406015495726" lon="7.765646005840511"><ele>640.2857142857142</ele><time>2026-04-11T07:58:47.999Z</time></trkpt><trkpt lat="45.0804563217326" lon="7.765719045161397"><ele>642.0</ele><time>2026-04-11T07:58:54.999Z</time></trkpt><trkpt lat="45.08048939982661" lon="7.765799669393008"><ele>641.9999999999999</ele><time>2026-04-11T07:59:01.999Z</time></trkpt><trkpt lat="45.0804548544108" lon="7.765877968814579"><ele>642.0</ele><time>2026-04-11T07:59:09.999Z</time></trkpt><trkpt lat="45.08039100843609" lon="7.765870260832834"><ele>642.0</ele><time>2026-04-11T07:59:16.999Z</time></trkpt><trkpt lat="45.080331847224016" lon="7.765836239540432"><ele>642.0</ele><time>2026-04-11T07:59:22.999Z</time></trkpt><trkpt lat="45.08027394406512" lon="7.765794938846796"><ele>642.0</ele><time>2026-04-11T07:59:27.999Z</time></trkpt><trkpt lat="45.08021040943126" lon="7.765744306465316"><ele>641.9999999999999</ele><time>2026-04-11T07:59:34Z</time></trkpt><trkpt lat="45.08020702605127" lon="7.765846917658272"><ele>642.0</ele><time>2026-04-11T07:59:49Z</time></trkpt><trkpt lat="45.08026406078373" lon="7.765896271758063"><ele>642.0</ele><time>2026-04-11T07:59:52Z</time></trkpt><trkpt lat="45.08033345322162" lon="7.765950671109938"><ele>642.0</ele><time>2026-04-11T07:59:55Z</time></trkpt><trkpt lat="45.08039620680855" lon="7.765982604664485"><ele>642.0</ele><time>2026-04-11T07:59:58Z</time></trkpt><trkpt lat="45.08045908302413" lon="7.766028462903213"><ele>642.0</ele><time>2026-04-11T08:00:01Z</time></trkpt><trkpt lat="45.080520503969744" lon="7.7660688206495365"><ele>642.0</ele><time>2026-04-11T08:00:04Z</time></trkpt><trkpt lat="45.0806160675906" lon="7.766107724719436"><ele>642.0</ele><time>2026-04-11T08:00:07Z</time></trkpt><trkpt lat="45.080692073230956" lon="7.766158312336464"><ele>645.0</ele><time>2026-04-11T08:00:10Z</time></trkpt><trkpt lat="45.08074446573501" lon="7.766212605795681"><ele>648.0</ele><time>2026-04-11T08:00:13Z</time></trkpt><trkpt lat="45.08080808484178" lon="7.766279499840714"><ele>651.0</ele><time>2026-04-11T08:00:17Z</time></trkpt><trkpt lat="45.08087867941378" lon="7.766324196710614"><ele>654.0</ele><time>2026-04-11T08:00:21Z</time></trkpt><trkpt lat="45.080950987932326" lon="7.766350886379374"><ele>657.0</ele><time>2026-04-11T08:00:25Z</time></trkpt><trkpt lat="45.08103767934385" lon="7.7663907705418485"><ele>660.0</ele><time>2026-04-11T08:00:29Z</time></trkpt><trkpt lat="45.08121780466737" lon="7.766377011345676"><ele>660.0</ele><time>2026-04-11T08:00:53.999Z</time></trkpt><trkpt lat="45.081274390240615" lon="7.766421678119308"><ele>660.0</ele><time>2026-04-11T08:01:01.999Z</time></trkpt><trkpt lat="45.0813793535768" lon="7.766453950720847"><ele>660.0</ele><time>2026-04-11T08:01:14.999Z</time></trkpt><trkpt lat="45.08144778532332" lon="7.766488737004838"><ele>660.0</ele><time>2026-04-11T08:01:21.999Z</time></trkpt><trkpt lat="45.081418987983774" lon="7.766588437115981"><ele>660.0</ele><time>2026-04-11T08:01:34.999Z</time></trkpt><trkpt lat="45.081400302449325" lon="7.766674055577639"><ele>660.0</ele><time>2026-04-11T08:01:39Z</time></trkpt><trkpt lat="45.08136679428068" lon="7.766771955767096"><ele>660.0000000000001</ele><time>2026-04-11T08:01:43Z</time></trkpt><trkpt lat="45.08132894309195" lon="7.766859502281092"><ele>660.0</ele><time>2026-04-11T08:01:48Z</time></trkpt><trkpt lat="45.08128928157739" lon="7.766789945577131"><ele>660.0</ele><time>2026-04-11T08:01:56Z</time></trkpt><trkpt lat="45.08128708660675" lon="7.766698498344215"><ele>660.0</ele><time>2026-04-11T08:01:59Z</time></trkpt><trkpt lat="45.08134368643285" lon="7.76665353826"><ele>660.0</ele><time>2026-04-11T08:02:01Z</time></trkpt><trkpt lat="45.081360771620965" lon="7.7665585076905055"><ele>660.0000000000001</ele><time>2026-04-11T08:02:06Z</time></trkpt><trkpt lat="45.08131181239901" lon="7.766488343336538"><ele>660.0</ele><time>2026-04-11T08:02:11Z</time></trkpt><trkpt lat="45.08123682510592" lon="7.766530936900554"><ele>660.0000000000001</ele><time>2026-04-11T08:02:15Z</time></trkpt><trkpt lat="45.08116703078857" lon="7.766578942251571"><ele>660.0</ele><time>2026-04-11T08:02:19Z</time></trkpt><trkpt lat="45.081101024702164" lon="7.76662620925933"><ele>660.0</ele><time>2026-04-11T08:02:24Z</time></trkpt><trkpt lat="45.08105692505458" lon="7.766692521390969"><ele>660.0</ele><time>2026-04-11T08:02:28Z</time></trkpt><trkpt lat="45.08099377952681" lon="7.76674216700227"><ele>660.0</ele><time>2026-04-11T08:02:32Z</time></trkpt><trkpt lat="45.08090656078578" lon="7.766753875029229"><ele>660.0000000000001</ele><time>2026-04-11T08:02:37Z</time></trkpt><trkpt lat="45.08084002953405" lon="7.7667636170398024"><ele>660.0</ele><time>2026-04-11T08:02:41Z</time></trkpt><trkpt lat="45.0807650647034" lon="7.766776904067546"><ele>660.5714285714287</ele><time>2026-04-11T08:02:44.999Z</time></trkpt><trkpt lat="45.080696724322515" lon="7.766784677371574"><ele>661.1428571428571</ele><time>2026-04-11T08:02:48.999Z</time></trkpt><trkpt lat="45.08062996668923" lon="7.766790907040203"><ele>661.7142857142858</ele><time>2026-04-11T08:02:51.999Z</time></trkpt><trkpt lat="45.08054386972727" lon="7.766821585179983"><ele>662.2857142857143</ele><time>2026-04-11T08:02:56.999Z</time></trkpt><trkpt lat="45.080473513719966" lon="7.766812717147348"><ele>662.8571428571429</ele><time>2026-04-11T08:02:59.999Z</time></trkpt><trkpt lat="45.080399423461685" lon="7.766826249409951"><ele>663.4285714285714</ele><time>2026-04-11T08:03:03.999Z</time></trkpt><trkpt lat="45.080322256524354" lon="7.766819246455209"><ele>664.0</ele><time>2026-04-11T08:03:07.999Z</time></trkpt><trkpt lat="45.08026003672946" lon="7.766798197880688"><ele>664.0</ele><time>2026-04-11T08:03:09.999Z</time></trkpt><trkpt lat="45.080192393413775" lon="7.766772293490556"><ele>664.0</ele><time>2026-04-11T08:03:13.999Z</time></trkpt><trkpt lat="45.08016791680825" lon="7.766854844674933"><ele>664.0</ele><time>2026-04-11T08:03:19.999Z</time></trkpt><trkpt lat="45.08018189525811" lon="7.766942728053912"><ele>664.0</ele><time>2026-04-11T08:03:22.999Z</time></trkpt><trkpt lat="45.08018591239226" lon="7.767040846430155"><ele>664.0</ele><time>2026-04-11T08:03:27.999Z</time></trkpt><trkpt lat="45.080239270167986" lon="7.76709161229427"><ele>664.0</ele><time>2026-04-11T08:03:31.999Z</time></trkpt><trkpt lat="45.08030338554196" lon="7.767093432903961"><ele>664.0</ele><time>2026-04-11T08:03:34.999Z</time></trkpt><trkpt lat="45.080357651218065" lon="7.767029642966085"><ele>666.0</ele><time>2026-04-11T08:03:37.999Z</time></trkpt><trkpt lat="45.08042332265338" lon="7.766978753978857"><ele>668.0</ele><time>2026-04-11T08:03:40.999Z</time></trkpt><trkpt lat="45.08050565554467" lon="7.766943788912856"><ele>670.0</ele><time>2026-04-11T08:03:45Z</time></trkpt><trkpt lat="45.08057649844879" lon="7.76695601348165"><ele>672.0</ele><time>2026-04-11T08:03:49Z</time></trkpt><trkpt lat="45.08061596036021" lon="7.767094529097975"><ele>674.0</ele><time>2026-04-11T08:16:37Z</time></trkpt><trkpt lat="45.080552786906026" lon="7.767066749504015"><ele>676.0</ele><time>2026-04-11T08:16:45Z</time></trkpt><trkpt lat="45.08049174896782" lon="7.767044381572063"><ele>676.0</ele><time>2026-04-11T08:16:48Z</time></trkpt><trkpt lat="45.080418345946" lon="7.7670782597219485"><ele>676.0</ele><time>2026-04-11T08:16:54Z</time></trkpt><trkpt lat="45.0803484237105" lon="7.767084774285639"><ele>676.0</ele><time>2026-04-11T08:16:59Z</time></trkpt><trkpt lat="45.080285948832405" lon="7.767132806182298"><ele>676.0</ele><time>2026-04-11T08:17:06Z</time></trkpt><trkpt lat="45.080227439833266" lon="7.767067605455448"><ele>676.0</ele><time>2026-04-11T08:17:40.999Z</time></trkpt><trkpt lat="45.080160451833" lon="7.767109406838898"><ele>676.0</ele><time>2026-04-11T08:17:44.999Z</time></trkpt><trkpt lat="45.08010202204937" lon="7.767143841594538"><ele>676.0</ele><time>2026-04-11T08:17:47.999Z</time></trkpt><trkpt lat="45.080049361653934" lon="7.767203518566814"><ele>676.0</ele><time>2026-04-11T08:17:51.999Z</time></trkpt><trkpt lat="45.0799985832888" lon="7.767271278796737"><ele>676.0</ele><time>2026-04-11T08:17:55.999Z</time></trkpt><trkpt lat="45.079949506782114" lon="7.767343265409763"><ele>676.0</ele><time>2026-04-11T08:18:00.999Z</time></trkpt><trkpt lat="45.07988141178231" lon="7.767361543216114"><ele>676.0</ele><time>2026-04-11T08:18:06.999Z</time></trkpt><trkpt lat="45.07981765224958" lon="7.767404132011862"><ele>676.0</ele><time>2026-04-11T08:18:12.999Z</time></trkpt><trkpt lat="45.079739480878885" lon="7.76742737023581"><ele>676.0</ele><time>2026-04-11T08:18:15.999Z</time></trkpt><trkpt lat="45.07964180010791" lon="7.767460689570933"><ele>674.4285714285714</ele><time>2026-04-11T08:18:19.999Z</time></trkpt><trkpt lat="45.07958511949296" lon="7.767507493941252"><ele>672.8571428571429</ele><time>2026-04-11T08:18:22.999Z</time></trkpt><trkpt lat="45.07952910279461" lon="7.767591369920626"><ele>671.2857142857142</ele><time>2026-04-11T08:18:26Z</time></trkpt><trkpt lat="45.079470555612026" lon="7.767676127127217"><ele>669.7142857142858</ele><time>2026-04-11T08:18:29Z</time></trkpt><trkpt lat="45.07940872356674" lon="7.767718487388229"><ele>668.1428571428571</ele><time>2026-04-11T08:18:31Z</time></trkpt><trkpt lat="45.07935270099094" lon="7.767776204652716"><ele>666.5714285714286</ele><time>2026-04-11T08:18:33Z</time></trkpt><trkpt lat="45.079287938092314" lon="7.767833737055736"><ele>665.0</ele><time>2026-04-11T08:18:35Z</time></trkpt><trkpt lat="45.079228173579565" lon="7.767907540061977"><ele>663.8333333333333</ele><time>2026-04-11T08:18:38Z</time></trkpt><trkpt lat="45.07917234150603" lon="7.767979889269055"><ele>662.6666666666666</ele><time>2026-04-11T08:18:41Z</time></trkpt><trkpt lat="45.079107251654904" lon="7.768049425223538"><ele>661.5</ele><time>2026-04-11T08:18:45Z</time></trkpt><trkpt lat="45.07906336357126" lon="7.768133862165087"><ele>660.3333333333334</ele><time>2026-04-11T08:18:48Z</time></trkpt><trkpt lat="45.078998548861065" lon="7.768259259027597"><ele>659.1666666666667</ele><time>2026-04-11T08:18:51Z</time></trkpt><trkpt lat="45.07895878911117" lon="7.768364841250198"><ele>658.0</ele><time>2026-04-11T08:18:53Z</time></trkpt><trkpt lat="45.07890850558911" lon="7.7684224116895075"><ele>658.0</ele><time>2026-04-11T08:18:55Z</time></trkpt><trkpt lat="45.07887786034519" lon="7.768520192083443"><ele>658.0</ele><time>2026-04-11T08:18:57Z</time></trkpt><trkpt lat="45.0788462359705" lon="7.768607444099526"><ele>658.0</ele><time>2026-04-11T08:18:59Z</time></trkpt><trkpt lat="45.078797430976145" lon="7.768679076217159"><ele>658.0</ele><time>2026-04-11T08:19:01Z</time></trkpt><trkpt lat="45.078788239228075" lon="7.768768313764673"><ele>658.0</ele><time>2026-04-11T08:19:03Z</time></trkpt><trkpt lat="45.07877058953819" lon="7.768888314324173"><ele>658.0</ele><time>2026-04-11T08:19:05Z</time></trkpt><trkpt lat="45.07874420555488" lon="7.768993407598714"><ele>658.0</ele><time>2026-04-11T08:19:07Z</time></trkpt><trkpt lat="45.07865802748791" lon="7.7691014432494185"><ele>655.5</ele><time>2026-04-11T08:19:09Z</time></trkpt><trkpt lat="45.078623593525734" lon="7.769218636205688"><ele>653.0</ele><time>2026-04-11T08:19:12Z</time></trkpt><trkpt lat="45.07861226708323" lon="7.769330491400279"><ele>650.5</ele><time>2026-04-11T08:19:14Z</time></trkpt><trkpt lat="45.07858793263392" lon="7.769425495813981"><ele>648.0</ele><time>2026-04-11T08:19:15.999Z</time></trkpt><trkpt lat="45.07856018962041" lon="7.769511766703909"><ele>645.5</ele><time>2026-04-11T08:19:20.999Z</time></trkpt><trkpt lat="45.07848244779658" lon="7.769583705342301"><ele>643.0</ele><time>2026-04-11T08:19:23.999Z</time></trkpt><trkpt lat="45.078410600671624" lon="7.769645938229619"><ele>641.2857142857142</ele><time>2026-04-11T08:19:27.999Z</time></trkpt><trkpt lat="45.078360126755115" lon="7.76972404232936"><ele>639.5714285714287</ele><time>2026-04-11T08:19:29.999Z</time></trkpt><trkpt lat="45.078325267572104" lon="7.769800924876826"><ele>637.8571428571429</ele><time>2026-04-11T08:19:31.999Z</time></trkpt><trkpt lat="45.07828883540222" lon="7.769879920260768"><ele>636.1428571428571</ele><time>2026-04-11T08:19:33.999Z</time></trkpt><trkpt lat="45.07826883063067" lon="7.770006292370224"><ele>634.4285714285713</ele><time>2026-04-11T08:19:37.999Z</time></trkpt><trkpt lat="45.078239609389016" lon="7.770086892782702"><ele>632.7142857142858</ele><time>2026-04-11T08:19:40.999Z</time></trkpt><trkpt lat="45.0782226633647" lon="7.770178195093357"><ele>631.0</ele><time>2026-04-11T08:19:43.999Z</time></trkpt><trkpt lat="45.07819970339031" lon="7.770287285603007"><ele>627.1666666666667</ele><time>2026-04-11T08:19:46.999Z</time></trkpt><trkpt lat="45.078174091494354" lon="7.770371667503427"><ele>623.3333333333334</ele><time>2026-04-11T08:19:49.999Z</time></trkpt><trkpt lat="45.07814791506676" lon="7.770470911506384"><ele>619.5</ele><time>2026-04-11T08:19:52.999Z</time></trkpt><trkpt lat="45.07812337204102" lon="7.770571500222474"><ele>615.6666666666666</ele><time>2026-04-11T08:19:54.999Z</time></trkpt><trkpt lat="45.07811604026414" lon="7.770678021022741"><ele>611.8333333333333</ele><time>2026-04-11T08:19:57.999Z</time></trkpt><trkpt lat="45.07809843419394" lon="7.770796035970469"><ele>608.0</ele><time>2026-04-11T08:20:00.999Z</time></trkpt><trkpt lat="45.07811779138238" lon="7.770916976649813"><ele>608.0</ele><time>2026-04-11T08:20:03.999Z</time></trkpt><trkpt lat="45.07814192162055" lon="7.771014423120899"><ele>608.0</ele><time>2026-04-11T08:20:06.999Z</time></trkpt><trkpt lat="45.078120868447336" lon="7.771103111642763"><ele>608.0</ele><time>2026-04-11T08:20:09.999Z</time></trkpt><trkpt lat="45.07811422660075" lon="7.771191966390199"><ele>608.0</ele><time>2026-04-11T08:20:14.999Z</time></trkpt><trkpt lat="45.07815463290201" lon="7.771277420198449"><ele>608.0</ele><time>2026-04-11T08:20:17.999Z</time></trkpt><trkpt lat="45.07822730320138" lon="7.771334779057563"><ele>608.0</ele><time>2026-04-11T08:20:20.999Z</time></trkpt><trkpt lat="45.07828422924903" lon="7.771419500690727"><ele>608.0</ele><time>2026-04-11T08:20:22.999Z</time></trkpt><trkpt lat="45.07835089171206" lon="7.771505764769084"><ele>609.4</ele><time>2026-04-11T08:20:24.999Z</time></trkpt><trkpt lat="45.0783779637585" lon="7.771638280070667"><ele>610.8</ele><time>2026-04-11T08:20:26.999Z</time></trkpt><trkpt lat="45.07835894536412" lon="7.771778140317783"><ele>612.2</ele><time>2026-04-11T08:20:28.999Z</time></trkpt><trkpt lat="45.078365790245066" lon="7.771936027548862"><ele>613.6</ele><time>2026-04-11T08:20:31Z</time></trkpt><trkpt lat="45.07837110269016" lon="7.7720819319167616"><ele>615.0</ele><time>2026-04-11T08:20:33Z</time></trkpt><trkpt lat="45.07837434052723" lon="7.772219290746851"><ele>615.2</ele><time>2026-04-11T08:20:35Z</time></trkpt><trkpt lat="45.07836364713254" lon="7.77236575716946"><ele>615.4</ele><time>2026-04-11T08:20:37Z</time></trkpt><trkpt lat="45.078329980208544" lon="7.772522625499572"><ele>615.6</ele><time>2026-04-11T08:20:39Z</time></trkpt><trkpt lat="45.078289654086205" lon="7.772670338161606"><ele>615.8</ele><time>2026-04-11T08:20:41Z</time></trkpt><trkpt lat="45.07825494450845" lon="7.7728092050506294"><ele>616.0</ele><time>2026-04-11T08:20:43Z</time></trkpt><trkpt lat="45.07821559552837" lon="7.772939674570387"><ele>616.5</ele><time>2026-04-11T08:20:45Z</time></trkpt><trkpt lat="45.0781619424372" lon="7.773047579381143"><ele>617.0</ele><time>2026-04-11T08:20:47Z</time></trkpt><trkpt lat="45.07811563195728" lon="7.7731518953000345"><ele>617.5</ele><time>2026-04-11T08:20:49Z</time></trkpt><trkpt lat="45.078076430789366" lon="7.773237051650015"><ele>618.0</ele><time>2026-04-11T08:20:51Z</time></trkpt><trkpt lat="45.07799595938754" lon="7.773210997032058"><ele>618.5</ele><time>2026-04-11T08:20:52Z</time></trkpt><trkpt lat="45.07792803550904" lon="7.773276555033694"><ele>619.0</ele><time>2026-04-11T08:20:55Z</time></trkpt><trkpt lat="45.07786460875894" lon="7.773325362950342"><ele>619.0</ele><time>2026-04-11T08:20:58Z</time></trkpt><trkpt lat="45.07781133407737" lon="7.773383963044553"><ele>619.0</ele><time>2026-04-11T08:21:01Z</time></trkpt><trkpt lat="45.07775711353971" lon="7.773465823573801"><ele>619.0</ele><time>2026-04-11T08:21:04Z</time></trkpt><trkpt lat="45.07770053803477" lon="7.773537767655194"><ele>619.0</ele><time>2026-04-11T08:21:07Z</time></trkpt><trkpt lat="45.07765528083986" lon="7.773620367848778"><ele>619.0</ele><time>2026-04-11T08:21:10Z</time></trkpt><trkpt lat="45.07759246738982" lon="7.773711260698942"><ele>619.0</ele><time>2026-04-11T08:21:13Z</time></trkpt><trkpt lat="45.07752976324373" lon="7.773789678977621"><ele>619.8333333333334</ele><time>2026-04-11T08:21:16Z</time></trkpt><trkpt lat="45.077472656231784" lon="7.773834418518664"><ele>620.6666666666667</ele><time>2026-04-11T08:21:18Z</time></trkpt><trkpt lat="45.077404343581506" lon="7.773923804279265"><ele>621.5</ele><time>2026-04-11T08:21:20.999Z</time></trkpt><trkpt lat="45.077328860265744" lon="7.773994477862512"><ele>622.3333333333334</ele><time>2026-04-11T08:21:23.999Z</time></trkpt><trkpt lat="45.077270677084634" lon="7.774036146359971"><ele>623.1666666666666</ele><time>2026-04-11T08:21:25.999Z</time></trkpt><trkpt lat="45.07719644780018" lon="7.774067828164825"><ele>624.0</ele><time>2026-04-11T08:21:28.999Z</time></trkpt><trkpt lat="45.07710681130141" lon="7.774086304251411"><ele>626.1666666666666</ele><time>2026-04-11T08:21:31.999Z</time></trkpt><trkpt lat="45.07703745479106" lon="7.77408452196402"><ele>628.3333333333334</ele><time>2026-04-11T08:21:33.999Z</time></trkpt><trkpt lat="45.07696306642919" lon="7.774075405867024"><ele>630.5</ele><time>2026-04-11T08:21:36.999Z</time></trkpt><trkpt lat="45.07688921855979" lon="7.774060433442344"><ele>632.6666666666667</ele><time>2026-04-11T08:21:39.999Z</time></trkpt><trkpt lat="45.07682004560056" lon="7.774062818740091"><ele>634.8333333333334</ele><time>2026-04-11T08:21:42.999Z</time></trkpt><trkpt lat="45.076741407552525" lon="7.774029613727132"><ele>637.0</ele><time>2026-04-11T08:21:45.999Z</time></trkpt><trkpt lat="45.07665657074755" lon="7.774006489551123"><ele>638.2857142857143</ele><time>2026-04-11T08:21:48.999Z</time></trkpt><trkpt lat="45.07658028051796" lon="7.77399752603524"><ele>639.5714285714286</ele><time>2026-04-11T08:21:50.999Z</time></trkpt><trkpt lat="45.0765173306847" lon="7.774012501539325"><ele>640.8571428571429</ele><time>2026-04-11T08:21:53.999Z</time></trkpt><trkpt lat="45.076439016122926" lon="7.7739906347417245"><ele>642.1428571428571</ele><time>2026-04-11T08:21:55.999Z</time></trkpt><trkpt lat="45.07637575506539" lon="7.773967855221959"><ele>643.4285714285714</ele><time>2026-04-11T08:21:57.999Z</time></trkpt><trkpt lat="45.07628433470365" lon="7.773950736564238"><ele>644.7142857142858</ele><time>2026-04-11T08:22:00.999Z</time></trkpt><trkpt lat="45.07621578471304" lon="7.773942814089348"><ele>646.0</ele><time>2026-04-11T08:22:02.999Z</time></trkpt><trkpt lat="45.07612273136379" lon="7.7739469762932085"><ele>646.0</ele><time>2026-04-11T08:22:05.999Z</time></trkpt><trkpt lat="45.07603306754043" lon="7.773934850317289"><ele>646.0</ele><time>2026-04-11T08:22:08.999Z</time></trkpt><trkpt lat="45.07595579116495" lon="7.773950839539611"><ele>646.0</ele><time>2026-04-11T08:22:12.999Z</time></trkpt><trkpt lat="45.07586887306085" lon="7.773908624535735"><ele>646.0</ele><time>2026-04-11T08:22:14.999Z</time></trkpt><trkpt lat="45.075790390752296" lon="7.77389325676067"><ele>646.0</ele><time>2026-04-11T08:22:17.999Z</time></trkpt><trkpt lat="45.075694068566456" lon="7.773880519119922"><ele>646.0</ele><time>2026-04-11T08:22:20.999Z</time></trkpt><trkpt lat="45.075601049864865" lon="7.773896274640773"><ele>644.5</ele><time>2026-04-11T08:22:23.999Z</time></trkpt><trkpt lat="45.07554244952696" lon="7.773939357193496"><ele>643.0</ele><time>2026-04-11T08:22:25.999Z</time></trkpt><trkpt lat="45.075491228716345" lon="7.773996481568094"><ele>641.5</ele><time>2026-04-11T08:22:27.999Z</time></trkpt><trkpt lat="45.07544240285819" lon="7.774084396828655"><ele>640.0</ele><time>2026-04-11T08:22:29.999Z</time></trkpt><trkpt lat="45.07541083323518" lon="7.7741960005025"><ele>638.5</ele><time>2026-04-11T08:22:31.999Z</time></trkpt><trkpt lat="45.07539978337338" lon="7.774316552033112"><ele>637.0</ele><time>2026-04-11T08:22:33.999Z</time></trkpt><trkpt lat="45.07539333696011" lon="7.774424053861045"><ele>637.0</ele><time>2026-04-11T08:22:35.999Z</time></trkpt><trkpt lat="45.07538231677908" lon="7.7745560669267055"><ele>637.0</ele><time>2026-04-11T08:22:38Z</time></trkpt><trkpt lat="45.07536918034108" lon="7.77467789773207"><ele>637.0</ele><time>2026-04-11T08:22:40Z</time></trkpt><trkpt lat="45.075360866560274" lon="7.7747944923371195"><ele>637.0</ele><time>2026-04-11T08:22:42Z</time></trkpt><trkpt lat="45.07533593186323" lon="7.774898855357233"><ele>637.0</ele><time>2026-04-11T08:22:44Z</time></trkpt><trkpt lat="45.0753209151837" lon="7.774992713768511"><ele>637.0</ele><time>2026-04-11T08:22:46Z</time></trkpt><trkpt lat="45.075306140251946" lon="7.775088987941119"><ele>637.0</ele><time>2026-04-11T08:22:48Z</time></trkpt><trkpt lat="45.07527191130525" lon="7.775165300971619"><ele>637.0</ele><time>2026-04-11T08:22:50Z</time></trkpt><trkpt lat="45.07522258646488" lon="7.775259398454307"><ele>637.0</ele><time>2026-04-11T08:22:52Z</time></trkpt><trkpt lat="45.07517551102138" lon="7.775349345836827"><ele>637.0</ele><time>2026-04-11T08:22:54Z</time></trkpt><trkpt lat="45.075120621895316" lon="7.77541494039565"><ele>637.0</ele><time>2026-04-11T08:22:56Z</time></trkpt><trkpt lat="45.07505453049656" lon="7.775512032226965"><ele>637.0</ele><time>2026-04-11T08:22:59Z</time></trkpt><trkpt lat="45.07501116026138" lon="7.7755857414852345"><ele>637.1666666666667</ele><time>2026-04-11T08:23:01Z</time></trkpt><trkpt lat="45.074943786277494" lon="7.775669360686809"><ele>637.3333333333334</ele><time>2026-04-11T08:23:04Z</time></trkpt><trkpt lat="45.0748619244786" lon="7.775736302163855"><ele>637.5</ele><time>2026-04-11T08:23:07Z</time></trkpt><trkpt lat="45.074769576538124" lon="7.7757998439581435"><ele>637.6666666666666</ele><time>2026-04-11T08:23:10Z</time></trkpt><trkpt lat="45.074706068141616" lon="7.775812003642665"><ele>637.8333333333333</ele><time>2026-04-11T08:23:12Z</time></trkpt><trkpt lat="45.074642764059114" lon="7.775870428246324"><ele>638.0</ele><time>2026-04-11T08:23:14Z</time></trkpt><trkpt lat="45.0745587735896" lon="7.7759239668900815"><ele>638.0</ele><time>2026-04-11T08:23:17Z</time></trkpt><trkpt lat="45.0744962760048" lon="7.775968570331701"><ele>638.0</ele><time>2026-04-11T08:23:19Z</time></trkpt><trkpt lat="45.074438641856005" lon="7.776011278933343"><ele>638.0</ele><time>2026-04-11T08:23:21Z</time></trkpt><trkpt lat="45.07437283396996" lon="7.776054273928196"><ele>638.0</ele><time>2026-04-11T08:23:23Z</time></trkpt><trkpt lat="45.07431129321632" lon="7.776117228327288"><ele>638.0</ele><time>2026-04-11T08:23:25Z</time></trkpt><trkpt lat="45.07425926392486" lon="7.776213222476298"><ele>638.0</ele><time>2026-04-11T08:23:28Z</time></trkpt><trkpt lat="45.07422995924481" lon="7.776331557169277"><ele>635.8</ele><time>2026-04-11T08:23:31Z</time></trkpt><trkpt lat="45.07419465947686" lon="7.776436706486304"><ele>633.5999999999999</ele><time>2026-04-11T08:23:33Z</time></trkpt><trkpt lat="45.07413384372337" lon="7.776534294069686"><ele>631.4000000000001</ele><time>2026-04-11T08:23:35.999Z</time></trkpt><trkpt lat="45.07412535071836" lon="7.7766851576928095"><ele>629.2</ele><time>2026-04-11T08:23:37.999Z</time></trkpt><trkpt lat="45.07410367600468" lon="7.776821317603613"><ele>627.0</ele><time>2026-04-11T08:23:39.999Z</time></trkpt><trkpt lat="45.07407928694832" lon="7.77694402577033"><ele>627.0</ele><time>2026-04-11T08:23:41.999Z</time></trkpt><trkpt lat="45.074067229081024" lon="7.777062499422841"><ele>627.0</ele><time>2026-04-11T08:23:43.999Z</time></trkpt><trkpt lat="45.074037150619404" lon="7.777176728863617"><ele>627.0</ele><time>2026-04-11T08:23:45.999Z</time></trkpt><trkpt lat="45.07401796514336" lon="7.777287360701941"><ele>627.0</ele><time>2026-04-11T08:23:47.999Z</time></trkpt><trkpt lat="45.07400039166937" lon="7.777385708613413"><ele>627.0</ele><time>2026-04-11T08:23:49.999Z</time></trkpt><trkpt lat="45.07399155390691" lon="7.777484986558999"><ele>627.0</ele><time>2026-04-11T08:23:51.999Z</time></trkpt><trkpt lat="45.07396343238153" lon="7.777589556569694"><ele>627.5714285714286</ele><time>2026-04-11T08:23:53.999Z</time></trkpt><trkpt lat="45.07395110821474" lon="7.777692346297991"><ele>628.1428571428571</ele><time>2026-04-11T08:23:55.999Z</time></trkpt><trkpt lat="45.07392779828286" lon="7.777797641243563"><ele>628.7142857142858</ele><time>2026-04-11T08:23:57.999Z</time></trkpt><trkpt lat="45.07391311985691" lon="7.777900655222481"><ele>629.2857142857142</ele><time>2026-04-11T08:23:59.999Z</time></trkpt><trkpt lat="45.07390819671838" lon="7.777998683960359"><ele>629.8571428571428</ele><time>2026-04-11T08:24:01.999Z</time></trkpt><trkpt lat="45.073913908430164" lon="7.778103022031572"><ele>630.4285714285714</ele><time>2026-04-11T08:24:03.999Z</time></trkpt><trkpt lat="45.07392121077031" lon="7.778212335215947"><ele>631.0</ele><time>2026-04-11T08:24:05.999Z</time></trkpt><trkpt lat="45.07393896121569" lon="7.778317360642151"><ele>631.0</ele><time>2026-04-11T08:24:07.999Z</time></trkpt><trkpt lat="45.073952173414064" lon="7.778406066465785"><ele>631.0</ele><time>2026-04-11T08:24:09.999Z</time></trkpt><trkpt lat="45.073963679621485" lon="7.778520307684483"><ele>631.0</ele><time>2026-04-11T08:24:11.999Z</time></trkpt><trkpt lat="45.07398528434828" lon="7.778631178249941"><ele>631.0</ele><time>2026-04-11T08:24:13.999Z</time></trkpt><trkpt lat="45.073986543742464" lon="7.7787622305470645"><ele>631.0</ele><time>2026-04-11T08:24:15.999Z</time></trkpt><trkpt lat="45.07399923198085" lon="7.778896201491323"><ele>631.0</ele><time>2026-04-11T08:24:18.999Z</time></trkpt><trkpt lat="45.074029866251045" lon="7.779025072626453"><ele>631.0</ele><time>2026-04-11T08:24:20.999Z</time></trkpt><trkpt lat="45.074050770757" lon="7.779140911776346"><ele>631.0</ele><time>2026-04-11T08:24:22.999Z</time></trkpt><trkpt lat="45.07407004612282" lon="7.779251668545109"><ele>631.0</ele><time>2026-04-11T08:24:24.999Z</time></trkpt><trkpt lat="45.07406279983283" lon="7.779368363344963"><ele>631.0</ele><time>2026-04-11T08:24:26.999Z</time></trkpt><trkpt lat="45.07407913753938" lon="7.779506159860747"><ele>631.0</ele><time>2026-04-11T08:24:28.999Z</time></trkpt><trkpt lat="45.07405588563375" lon="7.779624416145845"><ele>631.0</ele><time>2026-04-11T08:24:30.999Z</time></trkpt><trkpt lat="45.074052127389585" lon="7.779752178295555"><ele>631.6</ele><time>2026-04-11T08:24:32.999Z</time></trkpt><trkpt lat="45.07403590485306" lon="7.779883569765559"><ele>632.2</ele><time>2026-04-11T08:24:34.999Z</time></trkpt><trkpt lat="45.07401315143532" lon="7.78001857739904"><ele>632.8</ele><time>2026-04-11T08:24:36.999Z</time></trkpt><trkpt lat="45.07398368668019" lon="7.780142691110161"><ele>633.4</ele><time>2026-04-11T08:24:38.999Z</time></trkpt><trkpt lat="45.07396386307716" lon="7.780290650657818"><ele>634.0</ele><time>2026-04-11T08:24:40.999Z</time></trkpt><trkpt lat="45.073952013639484" lon="7.780442416758571"><ele>634.8</ele><time>2026-04-11T08:24:43Z</time></trkpt><trkpt lat="45.073936954572204" lon="7.780590823339359"><ele>635.5999999999999</ele><time>2026-04-11T08:24:45Z</time></trkpt><trkpt lat="45.07389855478579" lon="7.780742201075383"><ele>636.4</ele><time>2026-04-11T08:24:47Z</time></trkpt><trkpt lat="45.073881340556675" lon="7.780883065642793"><ele>637.1999999999999</ele><time>2026-04-11T08:24:49Z</time></trkpt><trkpt lat="45.07384395263503" lon="7.781016872765175"><ele>638.0</ele><time>2026-04-11T08:24:51Z</time></trkpt><trkpt lat="45.073840884341244" lon="7.781159721287527"><ele>638.6666666666666</ele><time>2026-04-11T08:24:53Z</time></trkpt><trkpt lat="45.07382776670272" lon="7.781296451203824"><ele>639.3333333333333</ele><time>2026-04-11T08:24:55Z</time></trkpt><trkpt lat="45.07380715598476" lon="7.7814139414762185"><ele>640.0</ele><time>2026-04-11T08:24:58Z</time></trkpt><trkpt lat="45.07379211550386" lon="7.781510500199996"><ele>640.6666666666666</ele><time>2026-04-11T08:25:01Z</time></trkpt><trkpt lat="45.07377320478582" lon="7.781616859416984"><ele>641.3333333333334</ele><time>2026-04-11T08:25:03Z</time></trkpt><trkpt lat="45.07374651130263" lon="7.781732252167797"><ele>642.0</ele><time>2026-04-11T08:25:06Z</time></trkpt><trkpt lat="45.0737247809663" lon="7.781819173482721"><ele>645.5</ele><time>2026-04-11T08:25:12Z</time></trkpt><trkpt lat="45.07397841714923" lon="7.78226508774288"><ele>649.0</ele><time>2026-04-11T08:26:18.999Z</time></trkpt><trkpt lat="45.07402058625261" lon="7.782371505761006"><ele>649.0</ele><time>2026-04-11T08:26:21.999Z</time></trkpt><trkpt lat="45.07402843063627" lon="7.782463699257584"><ele>649.0</ele><time>2026-04-11T08:26:23.999Z</time></trkpt><trkpt lat="45.07404421785855" lon="7.782559369927798"><ele>649.0</ele><time>2026-04-11T08:26:25.999Z</time></trkpt><trkpt lat="45.0740564290131" lon="7.782690979874341"><ele>649.0</ele><time>2026-04-11T08:26:27.999Z</time></trkpt><trkpt lat="45.07405468381475" lon="7.782813847584336"><ele>649.0</ele><time>2026-04-11T08:26:29.999Z</time></trkpt><trkpt lat="45.07405125795128" lon="7.782931607089939"><ele>649.0</ele><time>2026-04-11T08:26:31.999Z</time></trkpt><trkpt lat="45.07405207452094" lon="7.7830499273642975"><ele>649.8000000000001</ele><time>2026-04-11T08:26:34.999Z</time></trkpt><trkpt lat="45.07402117802239" lon="7.783219543257812"><ele>650.6</ele><time>2026-04-11T08:26:36.999Z</time></trkpt><trkpt lat="45.07401589266531" lon="7.783332203852785"><ele>651.4</ele><time>2026-04-11T08:26:37.999Z</time></trkpt><trkpt lat="45.07403227665244" lon="7.783476408650145"><ele>652.2</ele><time>2026-04-11T08:26:39.999Z</time></trkpt><trkpt lat="45.074052371328214" lon="7.78365692765719"><ele>653.0</ele><time>2026-04-11T08:26:41.999Z</time></trkpt><trkpt lat="45.07408245412853" lon="7.7838051549546"><ele>652.6666666666666</ele><time>2026-04-11T08:26:43.999Z</time></trkpt><trkpt lat="45.07410304985447" lon="7.783930659442703"><ele>652.3333333333333</ele><time>2026-04-11T08:26:45.999Z</time></trkpt><trkpt lat="45.074118438529766" lon="7.784034798663591"><ele>652.0</ele><time>2026-04-11T08:26:47.999Z</time></trkpt><trkpt lat="45.07413270761891" lon="7.784172922667037"><ele>651.6666666666666</ele><time>2026-04-11T08:26:50Z</time></trkpt><trkpt lat="45.07410843153382" lon="7.784255247812985"><ele>651.3333333333334</ele><time>2026-04-11T08:26:52Z</time></trkpt><trkpt lat="45.07408369883566" lon="7.784367703717575"><ele>651.0</ele><time>2026-04-11T08:26:55Z</time></trkpt><trkpt lat="45.074056781298985" lon="7.784468931569978"><ele>651.0</ele><time>2026-04-11T08:27:00Z</time></trkpt><trkpt lat="45.07399653681115" lon="7.784565954142408"><ele>651.0</ele><time>2026-04-11T08:27:03Z</time></trkpt><trkpt lat="45.07399603407702" lon="7.784659950237226"><ele>651.0</ele><time>2026-04-11T08:27:05Z</time></trkpt><trkpt lat="45.07395865320954" lon="7.784749634210274"><ele>651.0</ele><time>2026-04-11T08:27:07Z</time></trkpt><trkpt lat="45.07392900316841" lon="7.784860681061338"><ele>651.0</ele><time>2026-04-11T08:27:10Z</time></trkpt><trkpt lat="45.07386926270988" lon="7.7849667762234835"><ele>651.0</ele><time>2026-04-11T08:27:13Z</time></trkpt><trkpt lat="45.07383604839659" lon="7.7850615482910355"><ele>651.0</ele><time>2026-04-11T08:27:16Z</time></trkpt><trkpt lat="45.07379921181859" lon="7.78514100891079"><ele>651.0</ele><time>2026-04-11T08:27:18Z</time></trkpt><trkpt lat="45.07375786073324" lon="7.7852145279063905"><ele>651.0</ele><time>2026-04-11T08:27:20Z</time></trkpt><trkpt lat="45.07369925024997" lon="7.785274296975434"><ele>651.0</ele><time>2026-04-11T08:27:22Z</time></trkpt><trkpt lat="45.073644044025585" lon="7.785349391200965"><ele>651.0</ele><time>2026-04-11T08:27:25Z</time></trkpt><trkpt lat="45.07359655943621" lon="7.785429268337356"><ele>651.0</ele><time>2026-04-11T08:27:27Z</time></trkpt><trkpt lat="45.073565414795624" lon="7.7855144150708355"><ele>651.0</ele><time>2026-04-11T08:27:29Z</time></trkpt><trkpt lat="45.0735111988065" lon="7.7856274426527845"><ele>647.8</ele><time>2026-04-11T08:27:32Z</time></trkpt><trkpt lat="45.073437047471025" lon="7.785704618081621"><ele>644.5999999999999</ele><time>2026-04-11T08:27:34Z</time></trkpt><trkpt lat="45.07337194334518" lon="7.785810190956177"><ele>641.4</ele><time>2026-04-11T08:27:36Z</time></trkpt><trkpt lat="45.07331107708766" lon="7.785886773369196"><ele>638.2</ele><time>2026-04-11T08:27:38Z</time></trkpt><trkpt lat="45.073235510258435" lon="7.785980696707616"><ele>635.0</ele><time>2026-04-11T08:27:41Z</time></trkpt><trkpt lat="45.07316111692943" lon="7.786069349051845"><ele>632.0</ele><time>2026-04-11T08:27:44Z</time></trkpt><trkpt lat="45.073113285523085" lon="7.786138847025861"><ele>629.0</ele><time>2026-04-11T08:27:45.999Z</time></trkpt><trkpt lat="45.07306423009619" lon="7.7862470803845785"><ele>626.0</ele><time>2026-04-11T08:27:48.999Z</time></trkpt><trkpt lat="45.07297111706508" lon="7.786332924257953"><ele>623.0</ele><time>2026-04-11T08:27:50.999Z</time></trkpt><trkpt lat="45.07290140487331" lon="7.7863904939931405"><ele>620.0</ele><time>2026-04-11T08:27:52.999Z</time></trkpt><trkpt lat="45.07281891067562" lon="7.786486133700265"><ele>620.0</ele><time>2026-04-11T08:27:54.999Z</time></trkpt><trkpt lat="45.07274191986825" lon="7.78653876100026"><ele>620.0</ele><time>2026-04-11T08:27:56.999Z</time></trkpt><trkpt lat="45.072668368404955" lon="7.786627410303912"><ele>620.0</ele><time>2026-04-11T08:27:58.999Z</time></trkpt><trkpt lat="45.07260369596447" lon="7.786690463082239"><ele>620.0</ele><time>2026-04-11T08:28:00.999Z</time></trkpt><trkpt lat="45.0725486632629" lon="7.786742037464892"><ele>620.0</ele><time>2026-04-11T08:28:01.999Z</time></trkpt><trkpt lat="45.072482325084955" lon="7.786694134150052"><ele>620.0</ele><time>2026-04-11T08:28:04.999Z</time></trkpt><trkpt lat="45.07241694295385" lon="7.786646498338062"><ele>615.8</ele><time>2026-04-11T08:28:07.999Z</time></trkpt><trkpt lat="45.07234863529148" lon="7.786672783946731"><ele>611.6</ele><time>2026-04-11T08:28:10.999Z</time></trkpt><trkpt lat="45.072280191079635" lon="7.78666305677909"><ele>607.4</ele><time>2026-04-11T08:28:11.999Z</time></trkpt><trkpt lat="45.0721595592979" lon="7.786673607915664"><ele>603.2</ele><time>2026-04-11T08:28:13.999Z</time></trkpt><trkpt lat="45.07202305860651" lon="7.786708348161069"><ele>599.0</ele><time>2026-04-11T08:28:15.999Z</time></trkpt><trkpt lat="45.07195753384471" lon="7.786723585424547"><ele>599.0</ele><time>2026-04-11T08:28:16.999Z</time></trkpt><trkpt lat="45.07189057857967" lon="7.786799297286456"><ele>599.0</ele><time>2026-04-11T08:28:18.999Z</time></trkpt><trkpt lat="45.071829081835155" lon="7.7869177504592555"><ele>599.0</ele><time>2026-04-11T08:28:20.999Z</time></trkpt><trkpt lat="45.07179253864411" lon="7.78713270882793"><ele>599.0</ele><time>2026-04-11T08:28:22.999Z</time></trkpt><trkpt lat="45.071793760981116" lon="7.7872423789937155"><ele>599.0</ele><time>2026-04-11T08:28:23.999Z</time></trkpt><trkpt lat="45.071809072781065" lon="7.78737307106939"><ele>598.1666666666666</ele><time>2026-04-11T08:28:25.999Z</time></trkpt><trkpt lat="45.07177146678491" lon="7.787543869463587"><ele>597.3333333333333</ele><time>2026-04-11T08:28:27.999Z</time></trkpt><trkpt lat="45.07171933206996" lon="7.787634401558881"><ele>596.5</ele><time>2026-04-11T08:28:28.999Z</time></trkpt><trkpt lat="45.071634791805245" lon="7.787675621763083"><ele>595.6666666666666</ele><time>2026-04-11T08:28:29.999Z</time></trkpt><trkpt lat="45.071576362745226" lon="7.787723840223661"><ele>594.8333333333334</ele><time>2026-04-11T08:28:30.999Z</time></trkpt><trkpt lat="45.07152798090887" lon="7.787805790706629"><ele>594.0</ele><time>2026-04-11T08:28:31.999Z</time></trkpt><trkpt lat="45.07149044359827" lon="7.7878906962281045"><ele>590.4</ele><time>2026-04-11T08:28:32.999Z</time></trkpt><trkpt lat="45.07144405768073" lon="7.787977715992317"><ele>586.8</ele><time>2026-04-11T08:28:33.999Z</time></trkpt><trkpt lat="45.07138555608336" lon="7.788113827669107"><ele>583.2</ele><time>2026-04-11T08:28:34.999Z</time></trkpt><trkpt lat="45.071349806936006" lon="7.788272772976465"><ele>579.6</ele><time>2026-04-11T08:28:35.999Z</time></trkpt><trkpt lat="45.07131832066847" lon="7.788426424347258"><ele>576.0</ele><time>2026-04-11T08:28:36.999Z</time></trkpt><trkpt lat="45.07128079532977" lon="7.7885675214163435"><ele>576.0</ele><time>2026-04-11T08:28:37.999Z</time></trkpt><trkpt lat="45.07122825618974" lon="7.788696079108871"><ele>576.0</ele><time>2026-04-11T08:28:38.999Z</time></trkpt><trkpt lat="45.07118808441393" lon="7.7888161833762375"><ele>576.0</ele><time>2026-04-11T08:28:39.999Z</time></trkpt><trkpt lat="45.071111740815276" lon="7.788924419711528"><ele>576.0</ele><time>2026-04-11T08:28:40.999Z</time></trkpt><trkpt lat="45.071067629319046" lon="7.789018056496951"><ele>576.0</ele><time>2026-04-11T08:28:41.999Z</time></trkpt><trkpt lat="45.07102480800585" lon="7.789095627363745"><ele>576.0</ele><time>2026-04-11T08:28:42.999Z</time></trkpt><trkpt lat="45.07098000339535" lon="7.789213703117545"><ele>576.0</ele><time>2026-04-11T08:28:44.999Z</time></trkpt><trkpt lat="45.07098129455296" lon="7.789352653236958"><ele>576.0</ele><time>2026-04-11T08:28:46.999Z</time></trkpt><trkpt lat="45.071030746798186" lon="7.789452874681404"><ele>576.0</ele><time>2026-04-11T08:28:48.999Z</time></trkpt><trkpt lat="45.07108409746743" lon="7.789572860260691"><ele>576.0</ele><time>2026-04-11T08:28:50.999Z</time></trkpt><trkpt lat="45.07115232186159" lon="7.789669698750078"><ele>575.4</ele><time>2026-04-11T08:28:52.999Z</time></trkpt><trkpt lat="45.07119421051861" lon="7.789813064009247"><ele>574.8</ele><time>2026-04-11T08:28:55Z</time></trkpt><trkpt lat="45.07118593154568" lon="7.789967118496358"><ele>574.1999999999999</ele><time>2026-04-11T08:28:57Z</time></trkpt><trkpt lat="45.071174338860644" lon="7.790113522041372"><ele>573.6</ele><time>2026-04-11T08:28:59Z</time></trkpt><trkpt lat="45.071174286901176" lon="7.790241464268061"><ele>573.0</ele><time>2026-04-11T08:29:01Z</time></trkpt><trkpt lat="45.071150795019435" lon="7.790397370481103"><ele>573.0</ele><time>2026-04-11T08:29:03Z</time></trkpt><trkpt lat="45.071132424478634" lon="7.790485807417387"><ele>573.0</ele><time>2026-04-11T08:29:04Z</time></trkpt><trkpt lat="45.07112608163218" lon="7.790628984078298"><ele>573.0</ele><time>2026-04-11T08:29:06Z</time></trkpt><trkpt lat="45.07110682914641" lon="7.790718969173816"><ele>573.0</ele><time>2026-04-11T08:29:07Z</time></trkpt><trkpt lat="45.07104698225876" lon="7.790872846751103"><ele>573.0</ele><time>2026-04-11T08:29:09Z</time></trkpt><trkpt lat="45.07099424074898" lon="7.790949704849892"><ele>573.0</ele><time>2026-04-11T08:29:10Z</time></trkpt><trkpt lat="45.07092015728227" lon="7.791049680670223"><ele>573.1999999999999</ele><time>2026-04-11T08:29:12Z</time></trkpt><trkpt lat="45.070861137017474" lon="7.791213696718572"><ele>573.4</ele><time>2026-04-11T08:29:14Z</time></trkpt><trkpt lat="45.07088894937006" lon="7.791356054296947"><ele>573.5999999999999</ele><time>2026-04-11T08:29:15Z</time></trkpt><trkpt lat="45.07097416104777" lon="7.791452359537407"><ele>573.8</ele><time>2026-04-11T08:29:16Z</time></trkpt><trkpt lat="45.071065114561016" lon="7.791504133541853"><ele>574.0</ele><time>2026-04-11T08:29:17Z</time></trkpt><trkpt lat="45.07112966444095" lon="7.791534489365216"><ele>574.0</ele><time>2026-04-11T08:29:18Z</time></trkpt><trkpt lat="45.071209778608036" lon="7.791570718390945"><ele>574.0</ele><time>2026-04-11T08:29:19Z</time></trkpt><trkpt lat="45.071288364195794" lon="7.791604143089485"><ele>574.0</ele><time>2026-04-11T08:29:20Z</time></trkpt><trkpt lat="45.07135520215915" lon="7.791631528085663"><ele>574.0</ele><time>2026-04-11T08:29:21Z</time></trkpt><trkpt lat="45.07143203128662" lon="7.791661420007804"><ele>574.0</ele><time>2026-04-11T08:29:22Z</time></trkpt><trkpt lat="45.07151460104513" lon="7.791669314051895"><ele>574.0</ele><time>2026-04-11T08:29:23Z</time></trkpt><trkpt lat="45.071584200069886" lon="7.791700616862085"><ele>572.6666666666667</ele><time>2026-04-11T08:29:24Z</time></trkpt><trkpt lat="45.071663339290055" lon="7.791719926621286"><ele>571.3333333333334</ele><time>2026-04-11T08:29:25Z</time></trkpt><trkpt lat="45.07175382668193" lon="7.791730252872226"><ele>570.0</ele><time>2026-04-11T08:29:26Z</time></trkpt><trkpt lat="45.071819680907716" lon="7.7917058637717975"><ele>568.6666666666666</ele><time>2026-04-11T08:29:27Z</time></trkpt><trkpt lat="45.071879555935176" lon="7.791639378037028"><ele>567.3333333333333</ele><time>2026-04-11T08:29:28Z</time></trkpt><trkpt lat="45.07194022222155" lon="7.791547068648262"><ele>566.0</ele><time>2026-04-11T08:29:29Z</time></trkpt><trkpt lat="45.072007196642176" lon="7.791462558666354"><ele>566.0</ele><time>2026-04-11T08:29:30Z</time></trkpt><trkpt lat="45.07207329252471" lon="7.791380609768711"><ele>566.0</ele><time>2026-04-11T08:29:31Z</time></trkpt><trkpt lat="45.07213902690375" lon="7.791306701881834"><ele>566.0</ele><time>2026-04-11T08:29:32Z</time></trkpt><trkpt lat="45.07223607596428" lon="7.791259742276906"><ele>566.0</ele><time>2026-04-11T08:29:33Z</time></trkpt><trkpt lat="45.07232780266512" lon="7.791202612592504"><ele>566.0</ele><time>2026-04-11T08:29:34Z</time></trkpt><trkpt lat="45.07242293276243" lon="7.791154784897503"><ele>563.4</ele><time>2026-04-11T08:29:35Z</time></trkpt><trkpt lat="45.072531938514125" lon="7.791121833445233"><ele>560.8</ele><time>2026-04-11T08:29:36Z</time></trkpt><trkpt lat="45.07262387816735" lon="7.791124974741224"><ele>558.1999999999999</ele><time>2026-04-11T08:29:37Z</time></trkpt><trkpt lat="45.07269997356995" lon="7.791097500015071"><ele>555.6</ele><time>2026-04-11T08:29:38Z</time></trkpt><trkpt lat="45.072791340251136" lon="7.7911110229836495"><ele>553.0</ele><time>2026-04-11T08:29:39Z</time></trkpt><trkpt lat="45.07287729242344" lon="7.791109453688393"><ele>553.0</ele><time>2026-04-11T08:29:40Z</time></trkpt><trkpt lat="45.07295245677263" lon="7.791097012585986"><ele>553.0</ele><time>2026-04-11T08:29:41Z</time></trkpt><trkpt lat="45.07301540012012" lon="7.791104040706277"><ele>553.0</ele><time>2026-04-11T08:29:42Z</time></trkpt><trkpt lat="45.07308839392285" lon="7.791109873740931"><ele>553.0</ele><time>2026-04-11T08:29:43Z</time></trkpt><trkpt lat="45.07314838067379" lon="7.791150015119322"><ele>553.0</ele><time>2026-04-11T08:29:44Z</time></trkpt><trkpt lat="45.07321629502514" lon="7.791094960928314"><ele>553.0</ele><time>2026-04-11T08:29:45Z</time></trkpt><trkpt lat="45.07331290898199" lon="7.791102995403109"><ele>553.0</ele><time>2026-04-11T08:29:47Z</time></trkpt><trkpt lat="45.073370653940536" lon="7.791220643544934"><ele>553.0</ele><time>2026-04-11T08:29:49Z</time></trkpt><trkpt lat="45.07342322829892" lon="7.791399992683929"><ele>553.0</ele><time>2026-04-11T08:29:50.999Z</time></trkpt><trkpt lat="45.073440827340846" lon="7.791507924848844"><ele>553.0</ele><time>2026-04-11T08:29:51.999Z</time></trkpt><trkpt lat="45.073462088327176" lon="7.791604672554515"><ele>553.0</ele><time>2026-04-11T08:29:52.999Z</time></trkpt><trkpt lat="45.07346844691301" lon="7.791710015980902"><ele>553.0</ele><time>2026-04-11T08:29:53.999Z</time></trkpt><trkpt lat="45.07347430099726" lon="7.791826633472088"><ele>553.0</ele><time>2026-04-11T08:29:54.999Z</time></trkpt><trkpt lat="45.07347037321791" lon="7.791947708494344"><ele>553.0</ele><time>2026-04-11T08:29:55.999Z</time></trkpt><trkpt lat="45.07346391305204" lon="7.792076859901914"><ele>553.0</ele><time>2026-04-11T08:29:56.999Z</time></trkpt><trkpt lat="45.073463064415506" lon="7.7921954774232125"><ele>553.0</ele><time>2026-04-11T08:29:57.999Z</time></trkpt><trkpt lat="45.07346017211357" lon="7.792317103207282"><ele>553.0</ele><time>2026-04-11T08:29:58.999Z</time></trkpt><trkpt lat="45.07346046283572" lon="7.792441604456497"><ele>552.8333333333334</ele><time>2026-04-11T08:29:59.999Z</time></trkpt><trkpt lat="45.073466320005316" lon="7.792565808335456"><ele>552.6666666666667</ele><time>2026-04-11T08:30:00.999Z</time></trkpt><trkpt lat="45.07346924669387" lon="7.792694566879723"><ele>552.5</ele><time>2026-04-11T08:30:01.999Z</time></trkpt><trkpt lat="45.073473973420825" lon="7.792820101814097"><ele>552.3333333333334</ele><time>2026-04-11T08:30:02.999Z</time></trkpt><trkpt lat="45.07347890128294" lon="7.792940447244283"><ele>552.1666666666666</ele><time>2026-04-11T08:30:03.999Z</time></trkpt><trkpt lat="45.07348512350463" lon="7.793068125203106"><ele>552.0</ele><time>2026-04-11T08:30:04.999Z</time></trkpt><trkpt lat="45.07349588799874" lon="7.793179315920933"><ele>552.0</ele><time>2026-04-11T08:30:05.999Z</time></trkpt><trkpt lat="45.073508317176845" lon="7.793292084784918"><ele>552.0</ele><time>2026-04-11T08:30:06.999Z</time></trkpt><trkpt lat="45.07352372594422" lon="7.793404887171806"><ele>552.0</ele><time>2026-04-11T08:30:07.999Z</time></trkpt><trkpt lat="45.073548498986305" lon="7.793501254651157"><ele>552.0</ele><time>2026-04-11T08:30:08.999Z</time></trkpt><trkpt lat="45.073578689632626" lon="7.7935990357015505"><ele>552.0</ele><time>2026-04-11T08:30:09.999Z</time></trkpt><trkpt lat="45.07360835211517" lon="7.793686356267204"><ele>552.0</ele><time>2026-04-11T08:30:10.999Z</time></trkpt><trkpt lat="45.07364471512295" lon="7.793782398494579"><ele>553.0</ele><time>2026-04-11T08:30:11.999Z</time></trkpt><trkpt lat="45.07368589190558" lon="7.793864085914861"><ele>554.0</ele><time>2026-04-11T08:30:12.999Z</time></trkpt><trkpt lat="45.07372607167781" lon="7.793952120251234"><ele>555.0</ele><time>2026-04-11T08:30:13.999Z</time></trkpt><trkpt lat="45.073772665680615" lon="7.7940358551622415"><ele>556.0</ele><time>2026-04-11T08:30:14.999Z</time></trkpt><trkpt lat="45.07381476552231" lon="7.7941052691785515"><ele>557.0</ele><time>2026-04-11T08:30:15.999Z</time></trkpt><trkpt lat="45.07386453526541" lon="7.79416346829959"><ele>558.0</ele><time>2026-04-11T08:30:16.999Z</time></trkpt><trkpt lat="45.07394190349265" lon="7.794257707726182"><ele>558.0</ele><time>2026-04-11T08:30:18.999Z</time></trkpt><trkpt lat="45.073995779425836" lon="7.79431808149069"><ele>558.0</ele><time>2026-04-11T08:30:19.999Z</time></trkpt><trkpt lat="45.07404559567895" lon="7.79443350562504"><ele>558.0</ele><time>2026-04-11T08:30:21.999Z</time></trkpt><trkpt lat="45.07412339883711" lon="7.794518062366916"><ele>558.0</ele><time>2026-04-11T08:30:23.999Z</time></trkpt><trkpt lat="45.07417726791187" lon="7.794626197253549"><ele>558.0</ele><time>2026-04-11T08:30:25.999Z</time></trkpt><trkpt lat="45.074207063483136" lon="7.794708708769"><ele>558.0</ele><time>2026-04-11T08:30:27.999Z</time></trkpt><trkpt lat="45.07424179714716" lon="7.794799296176827"><ele>559.3333333333334</ele><time>2026-04-11T08:30:29.999Z</time></trkpt><trkpt lat="45.074279274029664" lon="7.794907481684097"><ele>560.6666666666666</ele><time>2026-04-11T08:30:32.999Z</time></trkpt><trkpt lat="45.07430996301323" lon="7.795009899543677"><ele>562.0</ele><time>2026-04-11T08:30:35.999Z</time></trkpt><trkpt lat="45.07432556261211" lon="7.795099953877242"><ele>563.3333333333333</ele><time>2026-04-11T08:30:37.999Z</time></trkpt><trkpt lat="45.0743479455967" lon="7.795184947082496"><ele>564.6666666666666</ele><time>2026-04-11T08:30:39.999Z</time></trkpt><trkpt lat="45.07434723296928" lon="7.795322165445552"><ele>566.0</ele><time>2026-04-11T08:30:41.999Z</time></trkpt><trkpt lat="45.07433764672615" lon="7.7954342899764235"><ele>566.1428571428571</ele><time>2026-04-11T08:30:43.999Z</time></trkpt><trkpt lat="45.07434814149447" lon="7.795536254407996"><ele>566.2857142857143</ele><time>2026-04-11T08:30:45.999Z</time></trkpt><trkpt lat="45.07431881320206" lon="7.795625970092523"><ele>566.4285714285714</ele><time>2026-04-11T08:30:47.999Z</time></trkpt><trkpt lat="45.07430516357174" lon="7.795717825833828"><ele>566.5714285714286</ele><time>2026-04-11T08:30:49.999Z</time></trkpt><trkpt lat="45.07430895861029" lon="7.795810823467224"><ele>566.7142857142858</ele><time>2026-04-11T08:30:51.999Z</time></trkpt><trkpt lat="45.07430963045786" lon="7.79590785040331"><ele>566.8571428571429</ele><time>2026-04-11T08:30:54.999Z</time></trkpt><trkpt lat="45.074297489125854" lon="7.7960239204632416"><ele>567.0</ele><time>2026-04-11T08:30:57.999Z</time></trkpt><trkpt lat="45.07430852623358" lon="7.796130397819946"><ele>565.8000000000001</ele><time>2026-04-11T08:31:01Z</time></trkpt><trkpt lat="45.07437380994392" lon="7.796168750000367"><ele>564.6</ele><time>2026-04-11T08:31:02Z</time></trkpt><trkpt lat="45.07447593332052" lon="7.796249287413375"><ele>563.4000000000001</ele><time>2026-04-11T08:31:05Z</time></trkpt><trkpt lat="45.07455563962019" lon="7.796324949005754"><ele>562.2</ele><time>2026-04-11T08:31:07Z</time></trkpt><trkpt lat="45.07464304914339" lon="7.796351712345218"><ele>561.0</ele><time>2026-04-11T08:31:09Z</time></trkpt><trkpt lat="45.074734946181465" lon="7.796383734658832"><ele>561.0</ele><time>2026-04-11T08:31:15Z</time></trkpt><trkpt lat="45.074786243932486" lon="7.796459814780161"><ele>561.0</ele><time>2026-04-11T08:31:17Z</time></trkpt><trkpt lat="45.07486114182311" lon="7.796528895693084"><ele>561.0</ele><time>2026-04-11T08:31:20Z</time></trkpt><trkpt lat="45.07491261495497" lon="7.796600629932504"><ele>561.0</ele><time>2026-04-11T08:31:23Z</time></trkpt><trkpt lat="45.07499992310938" lon="7.796678290648608"><ele>561.0</ele><time>2026-04-11T08:31:26Z</time></trkpt><trkpt lat="45.07502361456354" lon="7.7967707384116585"><ele>561.0</ele><time>2026-04-11T08:31:28Z</time></trkpt><trkpt lat="45.0751947764738" lon="7.796997480239851"><ele>563.8</ele><time>2026-04-11T08:31:33Z</time></trkpt><trkpt lat="45.07526645688467" lon="7.79711658072352"><ele>566.6</ele><time>2026-04-11T08:31:35Z</time></trkpt><trkpt lat="45.07535231689203" lon="7.797210995694851"><ele>569.4</ele><time>2026-04-11T08:31:37Z</time></trkpt><trkpt lat="45.07543292478638" lon="7.797308806966741"><ele>572.2</ele><time>2026-04-11T08:31:39Z</time></trkpt><trkpt lat="45.0755124122417" lon="7.797408993735587"><ele>575.0</ele><time>2026-04-11T08:31:41Z</time></trkpt><trkpt lat="45.075588891869636" lon="7.797470163705726"><ele>575.0</ele><time>2026-04-11T08:31:43Z</time></trkpt><trkpt lat="45.07567180903245" lon="7.79754390588418"><ele>575.0</ele><time>2026-04-11T08:31:45Z</time></trkpt><trkpt lat="45.075768181047614" lon="7.797593785493965"><ele>575.0</ele><time>2026-04-11T08:31:47Z</time></trkpt><trkpt lat="45.075856937834395" lon="7.797637597353748"><ele>575.0</ele><time>2026-04-11T08:31:49Z</time></trkpt><trkpt lat="45.07592627102966" lon="7.79765215640364"><ele>575.0</ele><time>2026-04-11T08:31:51Z</time></trkpt><trkpt lat="45.07600346862026" lon="7.797677384789851"><ele>575.0</ele><time>2026-04-11T08:31:53Z</time></trkpt><trkpt lat="45.076086282774" lon="7.797722957111015"><ele>574.6666666666666</ele><time>2026-04-11T08:31:56Z</time></trkpt><trkpt lat="45.07615155530657" lon="7.797746092297062"><ele>574.3333333333333</ele><time>2026-04-11T08:31:58Z</time></trkpt><trkpt lat="45.07622568709661" lon="7.797772048964851"><ele>574.0</ele><time>2026-04-11T08:32:00Z</time></trkpt><trkpt lat="45.076308050424856" lon="7.797792695159449"><ele>573.6666666666666</ele><time>2026-04-11T08:32:02.999Z</time></trkpt><trkpt lat="45.07637492229833" lon="7.797845297970287"><ele>573.3333333333334</ele><time>2026-04-11T08:32:06.999Z</time></trkpt><trkpt lat="45.076431719219016" lon="7.797916541597593"><ele>573.0</ele><time>2026-04-11T08:32:09.999Z</time></trkpt><trkpt lat="45.076500523028194" lon="7.797993931184877"><ele>573.0</ele><time>2026-04-11T08:32:14.999Z</time></trkpt><trkpt lat="45.07656558442988" lon="7.798087293371836"><ele>573.0</ele><time>2026-04-11T08:32:16.999Z</time></trkpt><trkpt lat="45.07663235567865" lon="7.798154207243732"><ele>573.0</ele><time>2026-04-11T08:32:18.999Z</time></trkpt><trkpt lat="45.07672364256891" lon="7.798217948781513"><ele>573.0</ele><time>2026-04-11T08:32:20.999Z</time></trkpt><trkpt lat="45.076786639730265" lon="7.798234509729412"><ele>573.0</ele><time>2026-04-11T08:32:21.999Z</time></trkpt><trkpt lat="45.07685210207682" lon="7.798235370329911"><ele>573.0</ele><time>2026-04-11T08:32:22.999Z</time></trkpt><trkpt lat="45.07693926387746" lon="7.798273041145583"><ele>572.3333333333334</ele><time>2026-04-11T08:32:23.999Z</time></trkpt><trkpt lat="45.07700056776026" lon="7.7983946512859585"><ele>571.6666666666666</ele><time>2026-04-11T08:32:24.999Z</time></trkpt><trkpt lat="45.07707767060759" lon="7.798432689752866"><ele>571.0</ele><time>2026-04-11T08:32:25.999Z</time></trkpt><trkpt lat="45.077122863465014" lon="7.798285370487281"><ele>570.3333333333333</ele><time>2026-04-11T08:32:26.999Z</time></trkpt><trkpt lat="45.07719296560576" lon="7.79829590119627"><ele>569.6666666666666</ele><time>2026-04-11T08:32:27.999Z</time></trkpt><trkpt lat="45.07725441734609" lon="7.798321302688423"><ele>569.0</ele><time>2026-04-11T08:32:28.999Z</time></trkpt><trkpt lat="45.07735821564842" lon="7.798395400428831"><ele>566.0</ele><time>2026-04-11T08:32:31.999Z</time></trkpt><trkpt lat="45.077444144396274" lon="7.798511386626606"><ele>563.0</ele><time>2026-04-11T08:32:33.999Z</time></trkpt><trkpt lat="45.07749866033488" lon="7.798572855203443"><ele>560.0</ele><time>2026-04-11T08:32:34.999Z</time></trkpt><trkpt lat="45.077563928865594" lon="7.798643111354069"><ele>557.0</ele><time>2026-04-11T08:32:35.999Z</time></trkpt><trkpt lat="45.077647958468404" lon="7.7987911882195915"><ele>554.0</ele><time>2026-04-11T08:32:37.999Z</time></trkpt><trkpt lat="45.07769738932754" lon="7.7988567228732855"><ele>554.0</ele><time>2026-04-11T08:32:38.999Z</time></trkpt><trkpt lat="45.077799981010855" lon="7.799001111911157"><ele>554.0</ele><time>2026-04-11T08:32:40.999Z</time></trkpt><trkpt lat="45.07784059560358" lon="7.799083479825743"><ele>554.0</ele><time>2026-04-11T08:32:41.999Z</time></trkpt><trkpt lat="45.07791141971014" lon="7.7992260743042054"><ele>554.0</ele><time>2026-04-11T08:32:43.999Z</time></trkpt><trkpt lat="45.07792753550302" lon="7.799315183373719"><ele>554.0</ele><time>2026-04-11T08:32:44.999Z</time></trkpt><trkpt lat="45.07797454558699" lon="7.799405853925757"><ele>552.4</ele><time>2026-04-11T08:32:45.999Z</time></trkpt><trkpt lat="45.07796185717851" lon="7.799583262949225"><ele>550.8</ele><time>2026-04-11T08:32:47.999Z</time></trkpt><trkpt lat="45.07799401570269" lon="7.799703355355203"><ele>549.2</ele><time>2026-04-11T08:32:49.999Z</time></trkpt><trkpt lat="45.078035588989906" lon="7.799849625268686"><ele>547.6</ele><time>2026-04-11T08:32:51.999Z</time></trkpt><trkpt lat="45.07809248349391" lon="7.799969677607293"><ele>546.0</ele><time>2026-04-11T08:32:53.999Z</time></trkpt><trkpt lat="45.07814746382789" lon="7.800084493725599"><ele>544.6666666666666</ele><time>2026-04-11T08:32:55.999Z</time></trkpt><trkpt lat="45.07818893247631" lon="7.800180900790616"><ele>543.3333333333334</ele><time>2026-04-11T08:32:57.999Z</time></trkpt><trkpt lat="45.07821811458122" lon="7.800286480087979"><ele>542.0</ele><time>2026-04-11T08:33:01.999Z</time></trkpt><trkpt lat="45.078263964975825" lon="7.800350890103122"><ele>540.6666666666667</ele><time>2026-04-11T08:33:05.999Z</time></trkpt><trkpt lat="45.07829499869984" lon="7.800439956445118"><ele>539.3333333333334</ele><time>2026-04-11T08:33:09Z</time></trkpt><trkpt lat="45.07835079703398" lon="7.8005635095226475"><ele>538.0</ele><time>2026-04-11T08:33:12Z</time></trkpt><trkpt lat="45.078234772434776" lon="7.800729504801568"><ele>538.0</ele><time>2026-04-11T08:33:14Z</time></trkpt><trkpt lat="45.07825205257772" lon="7.800859483401769"><ele>538.0</ele><time>2026-04-11T08:33:16Z</time></trkpt><trkpt lat="45.07824262905177" lon="7.801025664238174"><ele>538.0</ele><time>2026-04-11T08:33:18Z</time></trkpt><trkpt lat="45.078288475698" lon="7.801154869103354"><ele>538.0</ele><time>2026-04-11T08:33:20Z</time></trkpt><trkpt lat="45.07828909635059" lon="7.801246583580067"><ele>538.0</ele><time>2026-04-11T08:33:23Z</time></trkpt><trkpt lat="45.07829731303799" lon="7.801380724634769"><ele>541.8333333333334</ele><time>2026-04-11T08:33:24Z</time></trkpt><trkpt lat="45.078338627655995" lon="7.801487987506027"><ele>545.6666666666667</ele><time>2026-04-11T08:33:27Z</time></trkpt><trkpt lat="45.078334596254436" lon="7.8015952434178635"><ele>549.5</ele><time>2026-04-11T08:33:29Z</time></trkpt><trkpt lat="45.07839424464823" lon="7.8016854737527295"><ele>553.3333333333334</ele><time>2026-04-11T08:33:31Z</time></trkpt><trkpt lat="45.07844210674361" lon="7.8017680719794225"><ele>557.1666666666666</ele><time>2026-04-11T08:33:33Z</time></trkpt><trkpt lat="45.07849404421702" lon="7.801847355546206"><ele>561.0</ele><time>2026-04-11T08:33:35Z</time></trkpt><trkpt lat="45.07852431239548" lon="7.801938098036263"><ele>561.0</ele><time>2026-04-11T08:33:37Z</time></trkpt><trkpt lat="45.078555903094895" lon="7.802016890078515"><ele>561.0</ele><time>2026-04-11T08:33:39Z</time></trkpt><trkpt lat="45.07857388025141" lon="7.802136557951812"><ele>561.0</ele><time>2026-04-11T08:33:42Z</time></trkpt><trkpt lat="45.078570716437945" lon="7.802274738458495"><ele>561.0</ele><time>2026-04-11T08:33:45Z</time></trkpt><trkpt lat="45.07853751226489" lon="7.802377461229141"><ele>561.0</ele><time>2026-04-11T08:33:48Z</time></trkpt><trkpt lat="45.07848018064736" lon="7.8025161966559216"><ele>561.0</ele><time>2026-04-11T08:33:52Z</time></trkpt><trkpt lat="45.07844503559936" lon="7.802642404994828"><ele>559.8333333333334</ele><time>2026-04-11T08:33:54Z</time></trkpt><trkpt lat="45.07839354934681" lon="7.802715355412911"><ele>558.6666666666666</ele><time>2026-04-11T08:33:56Z</time></trkpt><trkpt lat="45.07836609909491" lon="7.802815392139977"><ele>557.5</ele><time>2026-04-11T08:33:58Z</time></trkpt><trkpt lat="45.0784117983894" lon="7.802934688137031"><ele>556.3333333333333</ele><time>2026-04-11T08:34:00Z</time></trkpt><trkpt lat="45.0784412263627" lon="7.803070588335478"><ele>555.1666666666666</ele><time>2026-04-11T08:34:02Z</time></trkpt><trkpt lat="45.078490382781844" lon="7.803167110649655"><ele>554.0</ele><time>2026-04-11T08:34:03.999Z</time></trkpt><trkpt lat="45.07855626565664" lon="7.8032297688165135"><ele>554.0</ele><time>2026-04-11T08:34:05.999Z</time></trkpt><trkpt lat="45.07861723606403" lon="7.8032617984957096"><ele>554.0</ele><time>2026-04-11T08:34:06.999Z</time></trkpt><trkpt lat="45.0786757233574" lon="7.803307061711169"><ele>554.0</ele><time>2026-04-11T08:34:07.999Z</time></trkpt><trkpt lat="45.078731271796514" lon="7.803420458372534"><ele>554.0</ele><time>2026-04-11T08:34:09.999Z</time></trkpt><trkpt lat="45.07872731464847" lon="7.803546086107649"><ele>554.0</ele><time>2026-04-11T08:34:11.999Z</time></trkpt><trkpt lat="45.078715419913856" lon="7.8036345093178205"><ele>554.0</ele><time>2026-04-11T08:34:13.999Z</time></trkpt><trkpt lat="45.07872711828419" lon="7.803725449932537"><ele>554.0</ele><time>2026-04-11T08:34:15.999Z</time></trkpt><trkpt lat="45.078753710126804" lon="7.8038387592651075"><ele>550.8</ele><time>2026-04-11T08:34:17.999Z</time></trkpt><trkpt lat="45.078803234487395" lon="7.803923969399804"><ele>547.5999999999999</ele><time>2026-04-11T08:34:19.999Z</time></trkpt><trkpt lat="45.07885651160275" lon="7.804056175586095"><ele>544.4</ele><time>2026-04-11T08:34:21.999Z</time></trkpt><trkpt lat="45.07888048403918" lon="7.804139908910317"><ele>541.1999999999999</ele><time>2026-04-11T08:34:22.999Z</time></trkpt><trkpt lat="45.07894413432679" lon="7.804332748992274"><ele>538.0</ele><time>2026-04-11T08:34:24.999Z</time></trkpt><trkpt lat="45.07895327613427" lon="7.804449869042249"><ele>538.0</ele><time>2026-04-11T08:34:26.999Z</time></trkpt><trkpt lat="45.078948528784856" lon="7.804603292581279"><ele>538.0</ele><time>2026-04-11T08:34:28.999Z</time></trkpt><trkpt lat="45.078940564692445" lon="7.80469366685064"><ele>538.0</ele><time>2026-04-11T08:34:29.999Z</time></trkpt><trkpt lat="45.078936640976494" lon="7.804812752004885"><ele>538.0</ele><time>2026-04-11T08:34:31.999Z</time></trkpt><trkpt lat="45.0789512268363" lon="7.804972381771941"><ele>538.0</ele><time>2026-04-11T08:34:33.999Z</time></trkpt><trkpt lat="45.078962071251674" lon="7.80510817947265"><ele>540.0</ele><time>2026-04-11T08:34:35.999Z</time></trkpt><trkpt lat="45.078949870679416" lon="7.80524292631825"><ele>542.0</ele><time>2026-04-11T08:34:37.999Z</time></trkpt><trkpt lat="45.07888671931007" lon="7.805321897272674"><ele>544.0</ele><time>2026-04-11T08:34:39.999Z</time></trkpt><trkpt lat="45.07877787243229" lon="7.8053472502681"><ele>546.0</ele><time>2026-04-11T08:34:41.999Z</time></trkpt><trkpt lat="45.078713360296554" lon="7.805358651754833"><ele>548.0</ele><time>2026-04-11T08:34:43.999Z</time></trkpt><trkpt lat="45.07861100805784" lon="7.805390361844234"><ele>548.0</ele><time>2026-04-11T08:34:45.999Z</time></trkpt><trkpt lat="45.07853946880337" lon="7.805417378313587"><ele>548.0</ele><time>2026-04-11T08:34:47.999Z</time></trkpt><trkpt lat="45.07846599210036" lon="7.805477689824848"><ele>548.0</ele><time>2026-04-11T08:34:49.999Z</time></trkpt><trkpt lat="45.078384535025535" lon="7.80557371224376"><ele>548.0</ele><time>2026-04-11T08:34:51.999Z</time></trkpt><trkpt lat="45.078329059746615" lon="7.805632578917728"><ele>548.0</ele><time>2026-04-11T08:34:53.999Z</time></trkpt><trkpt lat="45.07825227895521" lon="7.805701414121073"><ele>548.0</ele><time>2026-04-11T08:34:55.999Z</time></trkpt><trkpt lat="45.07819901674418" lon="7.805762125099036"><ele>545.1666666666666</ele><time>2026-04-11T08:34:58.999Z</time></trkpt><trkpt lat="45.07814632223854" lon="7.805811432215614"><ele>542.3333333333333</ele><time>2026-04-11T08:35:01.999Z</time></trkpt><trkpt lat="45.07808206215012" lon="7.805884848330355"><ele>539.5</ele><time>2026-04-11T08:35:04.999Z</time></trkpt><trkpt lat="45.0780964878233" lon="7.805976057437528"><ele>536.6666666666666</ele><time>2026-04-11T08:35:06.999Z</time></trkpt><trkpt lat="45.07810498321954" lon="7.8061030807141725"><ele>533.8333333333334</ele><time>2026-04-11T08:35:09.999Z</time></trkpt><trkpt lat="45.078100278267556" lon="7.806222014354018"><ele>531.0</ele><time>2026-04-11T08:35:11.999Z</time></trkpt><trkpt lat="45.078093505154946" lon="7.806318394825383"><ele>531.0</ele><time>2026-04-11T08:35:15Z</time></trkpt><trkpt lat="45.07809373646615" lon="7.806410721323507"><ele>531.0</ele><time>2026-04-11T08:35:17Z</time></trkpt><trkpt lat="45.07814141699989" lon="7.806479306440248"><ele>531.0</ele><time>2026-04-11T08:35:19Z</time></trkpt><trkpt lat="45.07818809500307" lon="7.806624107885031"><ele>531.0</ele><time>2026-04-11T08:35:21Z</time></trkpt><trkpt lat="45.07820977800198" lon="7.806727038323368"><ele>531.0</ele><time>2026-04-11T08:35:23Z</time></trkpt><trkpt lat="45.07823887517928" lon="7.8068338253221"><ele>531.0</ele><time>2026-04-11T08:35:25Z</time></trkpt><trkpt lat="45.07832249153958" lon="7.806931888213799"><ele>531.1666666666666</ele><time>2026-04-11T08:35:27Z</time></trkpt><trkpt lat="45.078387053954145" lon="7.8069840540924735"><ele>531.3333333333334</ele><time>2026-04-11T08:35:29Z</time></trkpt><trkpt lat="45.078430432668654" lon="7.807081163009017"><ele>531.5</ele><time>2026-04-11T08:35:31Z</time></trkpt><trkpt lat="45.078486121586" lon="7.807123728518857"><ele>531.6666666666667</ele><time>2026-04-11T08:35:32Z</time></trkpt><trkpt lat="45.07857374123388" lon="7.807190232254113"><ele>531.8333333333334</ele><time>2026-04-11T08:35:34Z</time></trkpt><trkpt lat="45.07864752351149" lon="7.807248182323373"><ele>532.0</ele><time>2026-04-11T08:35:36Z</time></trkpt><trkpt lat="45.07863374638769" lon="7.807340901532037"><ele>532.0</ele><time>2026-04-11T08:35:38Z</time></trkpt><trkpt lat="45.07865453310045" lon="7.8074580856269185"><ele>532.0</ele><time>2026-04-11T08:35:40Z</time></trkpt><trkpt lat="45.078694794954195" lon="7.807601650051568"><ele>532.0</ele><time>2026-04-11T08:35:43Z</time></trkpt><trkpt lat="45.078746074441824" lon="7.807673756639566"><ele>532.0</ele><time>2026-04-11T08:35:44Z</time></trkpt><trkpt lat="45.078747940547096" lon="7.80778300477691"><ele>532.0</ele><time>2026-04-11T08:35:46Z</time></trkpt><trkpt lat="45.07874100513172" lon="7.807897967087071"><ele>532.0</ele><time>2026-04-11T08:35:48Z</time></trkpt><trkpt lat="45.07875309345494" lon="7.808035660137471"><ele>530.1428571428571</ele><time>2026-04-11T08:35:50Z</time></trkpt><trkpt lat="45.07869832415871" lon="7.808103427021417"><ele>528.2857142857142</ele><time>2026-04-11T08:35:52Z</time></trkpt><trkpt lat="45.07868321853347" lon="7.808219332910854"><ele>526.4285714285714</ele><time>2026-04-11T08:35:54Z</time></trkpt><trkpt lat="45.078698118564766" lon="7.8083227636223"><ele>524.5714285714286</ele><time>2026-04-11T08:35:56Z</time></trkpt><trkpt lat="45.078704317823885" lon="7.80842384764507"><ele>522.7142857142857</ele><time>2026-04-11T08:35:58Z</time></trkpt><trkpt lat="45.078694865607815" lon="7.808535429227542"><ele>520.8571428571429</ele><time>2026-04-11T08:36:01Z</time></trkpt><trkpt lat="45.07870768623822" lon="7.808625573752518"><ele>519.0</ele><time>2026-04-11T08:36:03.999Z</time></trkpt><trkpt lat="45.07871014089723" lon="7.808727761206607"><ele>518.0</ele><time>2026-04-11T08:36:07.999Z</time></trkpt><trkpt lat="45.07870134673043" lon="7.808841288095932"><ele>517.0</ele><time>2026-04-11T08:36:11.999Z</time></trkpt><trkpt lat="45.07868184291575" lon="7.808976535179636"><ele>516.0</ele><time>2026-04-11T08:36:16.999Z</time></trkpt><trkpt lat="45.07867101578182" lon="7.8090950405408215"><ele>515.0</ele><time>2026-04-11T08:36:18.999Z</time></trkpt><trkpt lat="45.07861649051727" lon="7.809162730948667"><ele>514.0</ele><time>2026-04-11T08:36:20.999Z</time></trkpt><trkpt lat="45.07861092546279" lon="7.8092531854805065"><ele>513.0</ele><time>2026-04-11T08:36:23.999Z</time></trkpt><trkpt lat="45.078568294719965" lon="7.809330769975646"><ele>513.0</ele><time>2026-04-11T08:36:25.999Z</time></trkpt><trkpt lat="45.07851748451115" lon="7.809439187933999"><ele>513.0</ele><time>2026-04-11T08:36:29.999Z</time></trkpt><trkpt lat="45.07846860898293" lon="7.809528532878752"><ele>513.0</ele><time>2026-04-11T08:36:32.999Z</time></trkpt><trkpt lat="45.07842514765123" lon="7.809603154388244"><ele>513.0</ele><time>2026-04-11T08:36:35.999Z</time></trkpt><trkpt lat="45.07835898418349" lon="7.809691071334538"><ele>513.0</ele><time>2026-04-11T08:36:39.999Z</time></trkpt><trkpt lat="45.07832299936729" lon="7.80977070932162"><ele>513.0</ele><time>2026-04-11T08:36:42.999Z</time></trkpt><trkpt lat="45.078234064068525" lon="7.8098109682593275"><ele>511.7142857142858</ele><time>2026-04-11T08:36:46.999Z</time></trkpt><trkpt lat="45.078205656861876" lon="7.809910778442085"><ele>510.42857142857144</ele><time>2026-04-11T08:36:49.999Z</time></trkpt><trkpt lat="45.0782038531588" lon="7.8100474340225015"><ele>509.14285714285717</ele><time>2026-04-11T08:36:52.999Z</time></trkpt><trkpt lat="45.0781847744774" lon="7.810140247229511"><ele>507.8571428571429</ele><time>2026-04-11T08:36:55.999Z</time></trkpt><trkpt lat="45.07820084356558" lon="7.810236779176745"><ele>506.57142857142856</ele><time>2026-04-11T08:36:57.999Z</time></trkpt><trkpt lat="45.07822431245148" lon="7.810325136921355"><ele>505.2857142857143</ele><time>2026-04-11T08:36:59.999Z</time></trkpt><trkpt lat="45.078244591676444" lon="7.810421523025186"><ele>504.0</ele><time>2026-04-11T08:37:01.999Z</time></trkpt><trkpt lat="45.078295445806255" lon="7.810524669412127"><ele>504.0</ele><time>2026-04-11T08:37:04.999Z</time></trkpt><trkpt lat="45.07835827206956" lon="7.810555877225068"><ele>504.0</ele><time>2026-04-11T08:37:06.999Z</time></trkpt><trkpt lat="45.078442176307114" lon="7.810549303990749"><ele>504.0</ele><time>2026-04-11T08:37:10.999Z</time></trkpt><trkpt lat="45.078500636900465" lon="7.81050240259525"><ele>504.0</ele><time>2026-04-11T08:37:15.999Z</time></trkpt><trkpt lat="45.078564278317714" lon="7.810472206642336"><ele>504.0</ele><time>2026-04-11T08:37:17.999Z</time></trkpt><trkpt lat="45.078624300944924" lon="7.810377189275537"><ele>504.0</ele><time>2026-04-11T08:37:20Z</time></trkpt><trkpt lat="45.07870091311097" lon="7.810368809698397"><ele>504.0</ele><time>2026-04-11T08:37:24Z</time></trkpt><trkpt lat="45.07880568045828" lon="7.810304563365483"><ele>504.0</ele><time>2026-04-11T08:37:27Z</time></trkpt><trkpt lat="45.07887897917357" lon="7.810319528135759"><ele>504.0</ele><time>2026-04-11T08:37:30Z</time></trkpt><trkpt lat="45.07896251683505" lon="7.8103410794376105"><ele>504.0</ele><time>2026-04-11T08:37:32Z</time></trkpt><trkpt lat="45.079028336210165" lon="7.810410074627643"><ele>504.0</ele><time>2026-04-11T08:37:36Z</time></trkpt><trkpt lat="45.079098004529186" lon="7.810394792731224"><ele>504.0</ele><time>2026-04-11T08:37:38Z</time></trkpt><trkpt lat="45.079173304726226" lon="7.810434993509932"><ele>504.8333333333333</ele><time>2026-04-11T08:37:41Z</time></trkpt><trkpt lat="45.07926177687395" lon="7.8104564183084095"><ele>505.66666666666663</ele><time>2026-04-11T08:37:44Z</time></trkpt><trkpt lat="45.079342172328936" lon="7.810468998877962"><ele>506.5</ele><time>2026-04-11T08:37:47Z</time></trkpt><trkpt lat="45.07941358543045" lon="7.810509220736428"><ele>507.3333333333333</ele><time>2026-04-11T08:37:50Z</time></trkpt><trkpt lat="45.07947859071049" lon="7.8105146182148015"><ele>508.16666666666663</ele><time>2026-04-11T08:37:52Z</time></trkpt><trkpt lat="45.07958736554393" lon="7.810493741917217"><ele>509.0</ele><time>2026-04-11T08:37:55Z</time></trkpt><trkpt lat="45.07966977152798" lon="7.810483802353942"><ele>508.99999999999994</ele><time>2026-04-11T08:37:58Z</time></trkpt><trkpt lat="45.07972971865212" lon="7.81045238520177"><ele>509.0</ele><time>2026-04-11T08:38:01Z</time></trkpt><trkpt lat="45.079801068745354" lon="7.810444602064667"><ele>509.0</ele><time>2026-04-11T08:38:04Z</time></trkpt><trkpt lat="45.079892534993284" lon="7.810428977133262"><ele>509.0</ele><time>2026-04-11T08:38:07Z</time></trkpt><trkpt lat="45.07996642287093" lon="7.810449783298486"><ele>508.99999999999994</ele><time>2026-04-11T08:38:10.999Z</time></trkpt><trkpt lat="45.08004177879952" lon="7.810450344797178"><ele>509.0</ele><time>2026-04-11T08:38:13.999Z</time></trkpt><trkpt lat="45.08010443154176" lon="7.81039946783567"><ele>509.3333333333333</ele><time>2026-04-11T08:38:17.999Z</time></trkpt><trkpt lat="45.080168570286915" lon="7.810364589888491"><ele>509.66666666666663</ele><time>2026-04-11T08:38:20.999Z</time></trkpt><trkpt lat="45.080230246253414" lon="7.810330247402726"><ele>510.0</ele><time>2026-04-11T08:38:22.999Z</time></trkpt><trkpt lat="45.08030803134073" lon="7.810320876016032"><ele>510.33333333333337</ele><time>2026-04-11T08:38:24.999Z</time></trkpt><trkpt lat="45.08038998084673" lon="7.810336473093821"><ele>510.6666666666667</ele><time>2026-04-11T08:38:27.999Z</time></trkpt><trkpt lat="45.08047590460125" lon="7.810403861002245"><ele>511.0</ele><time>2026-04-11T08:38:30.999Z</time></trkpt><trkpt lat="45.080532956969236" lon="7.8104816730442215"><ele>511.0</ele><time>2026-04-11T08:38:32.999Z</time></trkpt><trkpt lat="45.08064283821283" lon="7.810510854968422"><ele>511.0</ele><time>2026-04-11T08:38:34.999Z</time></trkpt><trkpt lat="45.08071415119411" lon="7.810586926457922"><ele>511.0</ele><time>2026-04-11T08:38:36.999Z</time></trkpt><trkpt lat="45.08076064778834" lon="7.81067900630977"><ele>511.0</ele><time>2026-04-11T08:38:38.999Z</time></trkpt><trkpt lat="45.08083413887111" lon="7.810795917639612"><ele>511.0</ele><time>2026-04-11T08:38:40.999Z</time></trkpt><trkpt lat="45.080882863338324" lon="7.8108978328699115"><ele>508.33333333333337</ele><time>2026-04-11T08:38:42.999Z</time></trkpt><trkpt lat="45.08094497928711" lon="7.811033674564144"><ele>505.6666666666667</ele><time>2026-04-11T08:38:44.999Z</time></trkpt><trkpt lat="45.08101187601938" lon="7.811108570756099"><ele>503.0</ele><time>2026-04-11T08:38:46.999Z</time></trkpt><trkpt lat="45.08107120192594" lon="7.811172864612198"><ele>500.33333333333337</ele><time>2026-04-11T08:38:49.999Z</time></trkpt><trkpt lat="45.08111849867035" lon="7.811244702157528"><ele>497.6666666666667</ele><time>2026-04-11T08:38:51.999Z</time></trkpt><trkpt lat="45.08117153181944" lon="7.8113323469906"><ele>495.0</ele><time>2026-04-11T08:38:53.999Z</time></trkpt><trkpt lat="45.081225709081636" lon="7.811418077968302"><ele>495.0</ele><time>2026-04-11T08:38:55.999Z</time></trkpt><trkpt lat="45.08125746566808" lon="7.811499399056651"><ele>495.0</ele><time>2026-04-11T08:38:56.999Z</time></trkpt><trkpt lat="45.0813120738827" lon="7.811552624010806"><ele>495.0</ele><time>2026-04-11T08:38:57.999Z</time></trkpt><trkpt lat="45.081370319402836" lon="7.811593388531823"><ele>495.0</ele><time>2026-04-11T08:38:58.999Z</time></trkpt><trkpt lat="45.08146559483839" lon="7.81170494057547"><ele>495.0</ele><time>2026-04-11T08:39:00.999Z</time></trkpt><trkpt lat="45.0815365123227" lon="7.811818819277709"><ele>495.0</ele><time>2026-04-11T08:39:02.999Z</time></trkpt><trkpt lat="45.08154444259695" lon="7.811961536760259"><ele>495.1666666666667</ele><time>2026-04-11T08:39:04.999Z</time></trkpt><trkpt lat="45.08157017099955" lon="7.812088499738646"><ele>495.33333333333337</ele><time>2026-04-11T08:39:06.999Z</time></trkpt><trkpt lat="45.081593643915646" lon="7.812194745345962"><ele>495.5</ele><time>2026-04-11T08:39:08.999Z</time></trkpt><trkpt lat="45.08164260015982" lon="7.812304034832886"><ele>495.6666666666667</ele><time>2026-04-11T08:39:10.999Z</time></trkpt><trkpt lat="45.081654513854986" lon="7.812408502821395"><ele>495.83333333333337</ele><time>2026-04-11T08:39:12.999Z</time></trkpt><trkpt lat="45.081634312415964" lon="7.81251159906141"><ele>496.0</ele><time>2026-04-11T08:39:15.999Z</time></trkpt><trkpt lat="45.08160074717942" lon="7.812608166228102"><ele>494.50000000000006</ele><time>2026-04-11T08:39:17.999Z</time></trkpt><trkpt lat="45.08159381966244" lon="7.812721575257992"><ele>493.0</ele><time>2026-04-11T08:39:20.999Z</time></trkpt><trkpt lat="45.08156874610387" lon="7.812824098184969"><ele>491.5</ele><time>2026-04-11T08:39:22.999Z</time></trkpt><trkpt lat="45.081504529643524" lon="7.8129479428108075"><ele>490.0</ele><time>2026-04-11T08:39:25Z</time></trkpt><trkpt lat="45.08144973782359" lon="7.813048558471245"><ele>488.50000000000006</ele><time>2026-04-11T08:39:28Z</time></trkpt><trkpt lat="45.08142038727284" lon="7.813140796213921"><ele>487.0</ele><time>2026-04-11T08:39:31Z</time></trkpt><trkpt lat="45.081403774826846" lon="7.813260268370228"><ele>487.0</ele><time>2026-04-11T08:39:34Z</time></trkpt><trkpt lat="45.08142159636746" lon="7.813353603287589"><ele>487.0</ele><time>2026-04-11T08:39:37Z</time></trkpt><trkpt lat="45.08143859608753" lon="7.813469920649511"><ele>487.0</ele><time>2026-04-11T08:39:40Z</time></trkpt><trkpt lat="45.08145472675435" lon="7.813586684977673"><ele>487.0</ele><time>2026-04-11T08:39:43Z</time></trkpt><trkpt lat="45.081485935159314" lon="7.813667414216669"><ele>487.0</ele><time>2026-04-11T08:39:47Z</time></trkpt><trkpt lat="45.08149976923624" lon="7.813767975768425"><ele>487.0</ele><time>2026-04-11T08:39:51Z</time></trkpt><trkpt lat="45.081522115705525" lon="7.813857886201905"><ele>487.0</ele><time>2026-04-11T08:39:54Z</time></trkpt><trkpt lat="45.0815193661113" lon="7.813961781757086"><ele>488.1666666666667</ele><time>2026-04-11T08:39:58Z</time></trkpt><trkpt lat="45.08148108392885" lon="7.814059188746828"><ele>489.33333333333337</ele><time>2026-04-11T08:40:01Z</time></trkpt><trkpt lat="45.081483547159124" lon="7.814178520314048"><ele>490.5</ele><time>2026-04-11T08:40:05Z</time></trkpt><trkpt lat="45.081474927331584" lon="7.81427343632679"><ele>491.66666666666663</ele><time>2026-04-11T08:40:09Z</time></trkpt><trkpt lat="45.08145428452695" lon="7.814361129386228"><ele>492.8333333333333</ele><time>2026-04-11T08:40:12Z</time></trkpt><trkpt lat="45.081434189483055" lon="7.81445351342121"><ele>494.0</ele><time>2026-04-11T08:40:16Z</time></trkpt><trkpt lat="45.081422660355386" lon="7.8145961507412185"><ele>494.16666666666663</ele><time>2026-04-11T08:40:17.999Z</time></trkpt><trkpt lat="45.08143228601518" lon="7.814722774030955"><ele>494.3333333333333</ele><time>2026-04-11T08:40:20.999Z</time></trkpt><trkpt lat="45.08146682348156" lon="7.814812028219614"><ele>494.5</ele><time>2026-04-11T08:40:23.999Z</time></trkpt><trkpt lat="45.0814760618946" lon="7.814931670621734"><ele>494.66666666666663</ele><time>2026-04-11T08:40:26.999Z</time></trkpt><trkpt lat="45.08149170837131" lon="7.815057513813008"><ele>494.8333333333333</ele><time>2026-04-11T08:40:29.999Z</time></trkpt><trkpt lat="45.08146914412095" lon="7.815173746462976"><ele>495.0</ele><time>2026-04-11T08:40:32.999Z</time></trkpt><trkpt lat="45.081422859743945" lon="7.815266363224425"><ele>495.71428571428567</ele><time>2026-04-11T08:40:36.999Z</time></trkpt><trkpt lat="45.08138602672408" lon="7.815345211394761"><ele>496.42857142857144</ele><time>2026-04-11T08:40:38.999Z</time></trkpt><trkpt lat="45.081330901505076" lon="7.8154344104576285"><ele>497.1428571428571</ele><time>2026-04-11T08:40:41.999Z</time></trkpt><trkpt lat="45.081316794122806" lon="7.815531071347073"><ele>497.85714285714283</ele><time>2026-04-11T08:40:43.999Z</time></trkpt><trkpt lat="45.08127552965876" lon="7.815623344508145"><ele>498.57142857142856</ele><time>2026-04-11T08:40:45.999Z</time></trkpt><trkpt lat="45.08123302523009" lon="7.815708494922848"><ele>499.2857142857143</ele><time>2026-04-11T08:40:49.999Z</time></trkpt><trkpt lat="45.081232519167926" lon="7.815819203941927"><ele>500.0</ele><time>2026-04-11T08:40:53.999Z</time></trkpt><trkpt lat="45.081237381024835" lon="7.8159406308599975"><ele>497.99999999999994</ele><time>2026-04-11T08:40:56.999Z</time></trkpt><trkpt lat="45.08126909634814" lon="7.8160313005501"><ele>496.0</ele><time>2026-04-11T08:40:59.999Z</time></trkpt><trkpt lat="45.08128470457131" lon="7.816138258682293"><ele>494.0</ele><time>2026-04-11T08:41:01.999Z</time></trkpt><trkpt lat="45.08131995232032" lon="7.8162424746001005"><ele>492.0</ele><time>2026-04-11T08:41:04.999Z</time></trkpt><trkpt lat="45.081334830601506" lon="7.816338815115946"><ele>489.99999999999994</ele><time>2026-04-11T08:41:06.999Z</time></trkpt><trkpt lat="45.08137144448235" lon="7.816443086406939"><ele>488.0</ele><time>2026-04-11T08:41:09.999Z</time></trkpt><trkpt lat="45.08138238330353" lon="7.816555573239233"><ele>487.99999999999994</ele><time>2026-04-11T08:41:12.999Z</time></trkpt><trkpt lat="45.08140584877075" lon="7.8166931113786795"><ele>488.0</ele><time>2026-04-11T08:41:14.999Z</time></trkpt><trkpt lat="45.08135458794616" lon="7.816750445550764"><ele>488.0</ele><time>2026-04-11T08:41:17.999Z</time></trkpt><trkpt lat="45.081387084598205" lon="7.81683174940643"><ele>488.0</ele><time>2026-04-11T08:41:19.999Z</time></trkpt><trkpt lat="45.081384099027765" lon="7.816976026393918"><ele>487.99999999999994</ele><time>2026-04-11T08:41:22.999Z</time></trkpt><trkpt lat="45.08136861275766" lon="7.817078116799637"><ele>488.0</ele><time>2026-04-11T08:41:26.999Z</time></trkpt><trkpt lat="45.081364775149794" lon="7.817174053325946"><ele>487.59999999999997</ele><time>2026-04-11T08:41:28.999Z</time></trkpt><trkpt lat="45.08130461433871" lon="7.8172167142141245"><ele>487.19999999999993</ele><time>2026-04-11T08:41:32Z</time></trkpt><trkpt lat="45.08124481911301" lon="7.8172494174741844"><ele>486.8</ele><time>2026-04-11T08:41:34Z</time></trkpt><trkpt lat="45.08109658838269" lon="7.817248945778379"><ele>486.4</ele><time>2026-04-11T08:41:37Z</time></trkpt><trkpt lat="45.081050830915395" lon="7.817322766281957"><ele>486.0</ele><time>2026-04-11T08:41:39Z</time></trkpt><trkpt lat="45.0809379015331" lon="7.817388107131078"><ele>486.0</ele><time>2026-04-11T08:41:41Z</time></trkpt><trkpt lat="45.080856812752614" lon="7.817373313836083"><ele>486.0</ele><time>2026-04-11T08:41:44Z</time></trkpt><trkpt lat="45.08076949576746" lon="7.817403505461183"><ele>486.0</ele><time>2026-04-11T08:41:46Z</time></trkpt><trkpt lat="45.080698819499034" lon="7.817448340825754"><ele>486.0</ele><time>2026-04-11T08:41:48Z</time></trkpt><trkpt lat="45.08066299935178" lon="7.817538903421963"><ele>486.0</ele><time>2026-04-11T08:41:50Z</time></trkpt><trkpt lat="45.08059541849006" lon="7.817643544678249"><ele>486.0</ele><time>2026-04-11T08:41:52Z</time></trkpt><trkpt lat="45.08057917531942" lon="7.8177772453984264"><ele>481.8333333333333</ele><time>2026-04-11T08:41:54Z</time></trkpt><trkpt lat="45.08055368643762" lon="7.817933244712988"><ele>477.66666666666663</ele><time>2026-04-11T08:41:56Z</time></trkpt><trkpt lat="45.080551657659605" lon="7.818050077739396"><ele>473.5</ele><time>2026-04-11T08:41:58Z</time></trkpt><trkpt lat="45.080517879566806" lon="7.818170712517444"><ele>469.3333333333333</ele><time>2026-04-11T08:42:00Z</time></trkpt><trkpt lat="45.080497358071334" lon="7.818255833791418"><ele>465.16666666666663</ele><time>2026-04-11T08:42:01Z</time></trkpt><trkpt lat="45.080451503861205" lon="7.818337394657618"><ele>461.0</ele><time>2026-04-11T08:42:03Z</time></trkpt><trkpt lat="45.08039550483332" lon="7.818443127428221"><ele>462.99999999999994</ele><time>2026-04-11T08:42:05Z</time></trkpt><trkpt lat="45.08035568346711" lon="7.818550963198524"><ele>465.0</ele><time>2026-04-11T08:42:07Z</time></trkpt><trkpt lat="45.080308787955765" lon="7.818689543926831"><ele>467.0</ele><time>2026-04-11T08:42:09Z</time></trkpt><trkpt lat="45.080272613226185" lon="7.818797686278453"><ele>469.0</ele><time>2026-04-11T08:42:11Z</time></trkpt><trkpt lat="45.080246330439465" lon="7.818888751399273"><ele>470.99999999999994</ele><time>2026-04-11T08:42:14Z</time></trkpt><trkpt lat="45.08023432478736" lon="7.818986569085916"><ele>473.0</ele><time>2026-04-11T08:43:18.999Z</time></trkpt><trkpt lat="45.080244924850014" lon="7.81907938653656"><ele>473.0</ele><time>2026-04-11T08:43:21.999Z</time></trkpt><trkpt lat="45.08027760359102" lon="7.819186159090067"><ele>472.99999999999994</ele><time>2026-04-11T08:43:24.999Z</time></trkpt><trkpt lat="45.08033276419822" lon="7.81929523351409"><ele>472.99999999999994</ele><time>2026-04-11T08:43:27.999Z</time></trkpt><trkpt lat="45.080398647871405" lon="7.819409459512488"><ele>473.0</ele><time>2026-04-11T08:43:30.999Z</time></trkpt><trkpt lat="45.08041245694127" lon="7.819530742284127"><ele>473.0</ele><time>2026-04-11T08:43:32.999Z</time></trkpt><trkpt lat="45.080337021201224" lon="7.8196235261360805"><ele>473.3333333333333</ele><time>2026-04-11T08:43:33.999Z</time></trkpt><trkpt lat="45.0802936005413" lon="7.819710228381839"><ele>473.66666666666663</ele><time>2026-04-11T08:43:35.999Z</time></trkpt><trkpt lat="45.08025708529687" lon="7.819821392389834"><ele>474.0</ele><time>2026-04-11T08:43:38Z</time></trkpt><trkpt lat="45.080210935151285" lon="7.819935388962442"><ele>474.33333333333337</ele><time>2026-04-11T08:43:40Z</time></trkpt><trkpt lat="45.08019578139585" lon="7.820036662178476"><ele>474.6666666666667</ele><time>2026-04-11T08:43:42Z</time></trkpt><trkpt lat="45.08017922057547" lon="7.820125976138789"><ele>475.0</ele><time>2026-04-11T08:43:43Z</time></trkpt><trkpt lat="45.08015484857371" lon="7.820264534025373"><ele>473.6</ele><time>2026-04-11T08:43:45Z</time></trkpt><trkpt lat="45.08015040103672" lon="7.820411980499476"><ele>472.2</ele><time>2026-04-11T08:43:47Z</time></trkpt><trkpt lat="45.0801412454208" lon="7.820544194483387"><ele>470.79999999999995</ele><time>2026-04-11T08:43:49Z</time></trkpt><trkpt lat="45.080131028388124" lon="7.820667383341633"><ele>469.4</ele><time>2026-04-11T08:43:51Z</time></trkpt><trkpt lat="45.08011164979899" lon="7.820781583912204"><ele>468.0</ele><time>2026-04-11T08:43:53Z</time></trkpt><trkpt lat="45.080086167376386" lon="7.820924387383462"><ele>467.5</ele><time>2026-04-11T08:43:55Z</time></trkpt><trkpt lat="45.08006324488498" lon="7.8210228660839505"><ele>467.0</ele><time>2026-04-11T08:43:56Z</time></trkpt><trkpt lat="45.08001579526975" lon="7.821147360412144"><ele>466.5</ele><time>2026-04-11T08:43:58Z</time></trkpt><trkpt lat="45.079970587880474" lon="7.821269956589267"><ele>466.0</ele><time>2026-04-11T08:44:00Z</time></trkpt><trkpt lat="45.07993735756253" lon="7.82139217553366"><ele>465.5</ele><time>2026-04-11T08:44:02Z</time></trkpt><trkpt lat="45.07989072181476" lon="7.821463478370539"><ele>465.0</ele><time>2026-04-11T08:44:04Z</time></trkpt><trkpt lat="45.079825252134505" lon="7.82150276025201"><ele>465.0</ele><time>2026-04-11T08:44:06Z</time></trkpt><trkpt lat="45.07974612149511" lon="7.82155880554134"><ele>465.0</ele><time>2026-04-11T08:44:08Z</time></trkpt><trkpt lat="45.079689089112314" lon="7.821508655613558"><ele>465.0</ele><time>2026-04-11T08:44:11Z</time></trkpt><trkpt lat="45.07961898620189" lon="7.821524867296972"><ele>465.0</ele><time>2026-04-11T08:44:13Z</time></trkpt><trkpt lat="45.07952992830307" lon="7.8215639473480385"><ele>465.0</ele><time>2026-04-11T08:44:15Z</time></trkpt><trkpt lat="45.07944617640708" lon="7.821578726940533"><ele>465.0</ele><time>2026-04-11T08:44:17Z</time></trkpt><trkpt lat="45.07935844488936" lon="7.82161349793234"><ele>465.0</ele><time>2026-04-11T08:44:19Z</time></trkpt><trkpt lat="45.07926852423289" lon="7.821612652529243"><ele>465.0</ele><time>2026-04-11T08:44:20Z</time></trkpt><trkpt lat="45.07916332640965" lon="7.821654242916304"><ele>465.0</ele><time>2026-04-11T08:44:21Z</time></trkpt><trkpt lat="45.079079290806725" lon="7.821647873595674"><ele>465.0</ele><time>2026-04-11T08:44:22Z</time></trkpt><trkpt lat="45.07899585998424" lon="7.821665338407221"><ele>465.0</ele><time>2026-04-11T08:44:23Z</time></trkpt><trkpt lat="45.078924196790034" lon="7.821684717214951"><ele>465.0</ele><time>2026-04-11T08:44:24Z</time></trkpt><trkpt lat="45.07883977061706" lon="7.821718263718878"><ele>465.5</ele><time>2026-04-11T08:44:25Z</time></trkpt><trkpt lat="45.078759093093126" lon="7.821776952050774"><ele>466.0</ele><time>2026-04-11T08:44:26Z</time></trkpt><trkpt lat="45.07868894513184" lon="7.821850727412019"><ele>466.5</ele><time>2026-04-11T08:44:27Z</time></trkpt><trkpt lat="45.07863755233402" lon="7.821947225885387"><ele>467.0</ele><time>2026-04-11T08:44:28Z</time></trkpt><trkpt lat="45.078598119036094" lon="7.822026132758721"><ele>467.5</ele><time>2026-04-11T08:44:29Z</time></trkpt><trkpt lat="45.07856334108539" lon="7.822109609912952"><ele>468.0</ele><time>2026-04-11T08:44:29.999Z</time></trkpt><trkpt lat="45.07853092610951" lon="7.82220605685347"><ele>465.4</ele><time>2026-04-11T08:44:30.999Z</time></trkpt><trkpt lat="45.07850294184011" lon="7.8223166806244295"><ele>462.79999999999995</ele><time>2026-04-11T08:44:31.999Z</time></trkpt><trkpt lat="45.07848081092174" lon="7.8224020975150355"><ele>460.2</ele><time>2026-04-11T08:44:32.999Z</time></trkpt><trkpt lat="45.078453732957634" lon="7.822503525177838"><ele>457.6</ele><time>2026-04-11T08:44:33.999Z</time></trkpt><trkpt lat="45.07839598688736" lon="7.822664537179099"><ele>455.0</ele><time>2026-04-11T08:44:35.999Z</time></trkpt><trkpt lat="45.078305196586456" lon="7.822778357110047"><ele>454.49999999999994</ele><time>2026-04-11T08:44:36.999Z</time></trkpt><trkpt lat="45.078193171489694" lon="7.822767161215886"><ele>454.0</ele><time>2026-04-11T08:44:37.999Z</time></trkpt><trkpt lat="45.07812026534298" lon="7.822763025080612"><ele>453.5</ele><time>2026-04-11T08:44:38.999Z</time></trkpt><trkpt lat="45.078043763319535" lon="7.822727751997798"><ele>453.0</ele><time>2026-04-11T08:44:39.999Z</time></trkpt><trkpt lat="45.07796243571381" lon="7.822697306247368"><ele>452.49999999999994</ele><time>2026-04-11T08:44:40.999Z</time></trkpt><trkpt lat="45.07789600813129" lon="7.822648498549852"><ele>452.0</ele><time>2026-04-11T08:44:41.999Z</time></trkpt><trkpt lat="45.07781587516493" lon="7.822630505523346"><ele>451.99999999999994</ele><time>2026-04-11T08:44:42.999Z</time></trkpt><trkpt lat="45.07774321708848" lon="7.8226076390129"><ele>452.0</ele><time>2026-04-11T08:44:43.999Z</time></trkpt><trkpt lat="45.07765439383355" lon="7.822604496531182"><ele>452.0</ele><time>2026-04-11T08:44:44.999Z</time></trkpt><trkpt lat="45.0775784361691" lon="7.8225809010369165"><ele>452.0</ele><time>2026-04-11T08:44:45.999Z</time></trkpt><trkpt lat="45.077522362366274" lon="7.822537878462831"><ele>451.99999999999994</ele><time>2026-04-11T08:44:46.999Z</time></trkpt><trkpt lat="45.0774289432583" lon="7.822509433667551"><ele>452.0</ele><time>2026-04-11T08:44:48.999Z</time></trkpt><trkpt lat="45.07736364979882" lon="7.822471928349187"><ele>450.99999999999994</ele><time>2026-04-11T08:44:51.999Z</time></trkpt><trkpt lat="45.077299597299564" lon="7.822458866918874"><ele>450.0</ele><time>2026-04-11T08:44:53.999Z</time></trkpt><trkpt lat="45.07723862624631" lon="7.822519061576962"><ele>449.0</ele><time>2026-04-11T08:44:55.999Z</time></trkpt><trkpt lat="45.07714970334464" lon="7.822581767637875"><ele>448.0</ele><time>2026-04-11T08:44:57.999Z</time></trkpt><trkpt lat="45.077098564982016" lon="7.822639916151424"><ele>446.99999999999994</ele><time>2026-04-11T08:44:58.999Z</time></trkpt><trkpt lat="45.07701666931292" lon="7.822714675726978"><ele>446.0</ele><time>2026-04-11T08:45:00.999Z</time></trkpt><trkpt lat="45.07694022676595" lon="7.822766395407557"><ele>445.20000000000005</ele><time>2026-04-11T08:45:02.999Z</time></trkpt><trkpt lat="45.07681870431095" lon="7.822851439898517"><ele>444.40000000000003</ele><time>2026-04-11T08:45:04.999Z</time></trkpt><trkpt lat="45.076730249728485" lon="7.822878790492828"><ele>443.6</ele><time>2026-04-11T08:45:05.999Z</time></trkpt><trkpt lat="45.07667524404794" lon="7.822934452033133"><ele>442.8</ele><time>2026-04-11T08:45:06.999Z</time></trkpt><trkpt lat="45.07660851512267" lon="7.823001788611735"><ele>442.0</ele><time>2026-04-11T08:45:07.999Z</time></trkpt><trkpt lat="45.07655026817086" lon="7.823077304497336"><ele>441.20000000000005</ele><time>2026-04-11T08:45:08.999Z</time></trkpt><trkpt lat="45.07649511139371" lon="7.823126223103942"><ele>440.40000000000003</ele><time>2026-04-11T08:45:09.999Z</time></trkpt><trkpt lat="45.076404715492096" lon="7.823195246753895"><ele>439.59999999999997</ele><time>2026-04-11T08:45:11.999Z</time></trkpt><trkpt lat="45.076290043220055" lon="7.8232182195518165"><ele>438.79999999999995</ele><time>2026-04-11T08:45:13.999Z</time></trkpt><trkpt lat="45.0762350896972" lon="7.823277228262182"><ele>438.0</ele><time>2026-04-11T08:45:14.999Z</time></trkpt><trkpt lat="45.07613093061752" lon="7.823346051294258"><ele>438.0</ele><time>2026-04-11T08:45:16.999Z</time></trkpt><trkpt lat="45.07602785181597" lon="7.8234052559374305"><ele>437.99999999999994</ele><time>2026-04-11T08:45:18.999Z</time></trkpt><trkpt lat="45.075964476953295" lon="7.82343815806161"><ele>437.99999999999994</ele><time>2026-04-11T08:45:19.999Z</time></trkpt><trkpt lat="45.07584449744273" lon="7.8235157651092955"><ele>438.0</ele><time>2026-04-11T08:45:21.999Z</time></trkpt><trkpt lat="45.075780477174604" lon="7.823581466568354"><ele>438.0</ele><time>2026-04-11T08:45:22.999Z</time></trkpt><trkpt lat="45.0757201248828" lon="7.823643098448434"><ele>437.0</ele><time>2026-04-11T08:45:23.999Z</time></trkpt><trkpt lat="45.075684261286135" lon="7.823719143749139"><ele>436.0</ele><time>2026-04-11T08:45:24.999Z</time></trkpt><trkpt lat="45.0756361110517" lon="7.823808003186568"><ele>435.0</ele><time>2026-04-11T08:45:25.999Z</time></trkpt><trkpt lat="45.07559223437886" lon="7.823883248816438"><ele>434.0</ele><time>2026-04-11T08:45:26.999Z</time></trkpt><trkpt lat="45.0755539022146" lon="7.823963521686779"><ele>433.0</ele><time>2026-04-11T08:45:27.999Z</time></trkpt><trkpt lat="45.07550851101203" lon="7.824069373419338"><ele>432.0</ele><time>2026-04-11T08:45:28.999Z</time></trkpt><trkpt lat="45.07541968462697" lon="7.824231464087394"><ele>432.85714285714283</ele><time>2026-04-11T08:45:30.999Z</time></trkpt><trkpt lat="45.075374657563536" lon="7.8243266553483"><ele>433.71428571428567</ele><time>2026-04-11T08:45:31.999Z</time></trkpt><trkpt lat="45.07533277241937" lon="7.82440358719343"><ele>434.57142857142856</ele><time>2026-04-11T08:45:32.999Z</time></trkpt><trkpt lat="45.075285338967916" lon="7.8244673386161585"><ele>435.42857142857144</ele><time>2026-04-11T08:45:33.999Z</time></trkpt><trkpt lat="45.075235754891544" lon="7.824530013568778"><ele>436.2857142857143</ele><time>2026-04-11T08:45:34.999Z</time></trkpt><trkpt lat="45.075194010446985" lon="7.824609114895212"><ele>437.14285714285717</ele><time>2026-04-11T08:45:35.999Z</time></trkpt><trkpt lat="45.07514255510625" lon="7.824669497583418"><ele>438.0</ele><time>2026-04-11T08:45:36.999Z</time></trkpt><trkpt lat="45.075050591053106" lon="7.824791839303112"><ele>438.0</ele><time>2026-04-11T08:45:38.999Z</time></trkpt><trkpt lat="45.07500166271456" lon="7.824856667349468"><ele>437.99999999999994</ele><time>2026-04-11T08:45:39.999Z</time></trkpt><trkpt lat="45.07492279568277" lon="7.824964641618182"><ele>437.99999999999994</ele><time>2026-04-11T08:45:41.999Z</time></trkpt><trkpt lat="45.074851074305826" lon="7.825058145760757"><ele>438.0</ele><time>2026-04-11T08:45:44Z</time></trkpt><trkpt lat="45.07477777711962" lon="7.825148425707111"><ele>438.0</ele><time>2026-04-11T08:45:46Z</time></trkpt><trkpt lat="45.07469843758248" lon="7.825148448813402"><ele>437.59999999999997</ele><time>2026-04-11T08:45:47Z</time></trkpt><trkpt lat="45.0745939062695" lon="7.825193847436536"><ele>437.19999999999993</ele><time>2026-04-11T08:45:49Z</time></trkpt><trkpt lat="45.07449159971703" lon="7.825229223406525"><ele>436.8</ele><time>2026-04-11T08:45:51Z</time></trkpt><trkpt lat="45.07437312889904" lon="7.825222773092634"><ele>436.4</ele><time>2026-04-11T08:45:53Z</time></trkpt><trkpt lat="45.07426527121112" lon="7.8252125223937785"><ele>436.0</ele><time>2026-04-11T08:45:55Z</time></trkpt><trkpt lat="45.07418649282141" lon="7.825219340608623"><ele>436.00000000000006</ele><time>2026-04-11T08:45:56Z</time></trkpt><trkpt lat="45.074121599492344" lon="7.825212274915784"><ele>436.0</ele><time>2026-04-11T08:45:57Z</time></trkpt><trkpt lat="45.074052898329995" lon="7.825218555352548"><ele>436.0</ele><time>2026-04-11T08:45:58Z</time></trkpt><trkpt lat="45.0739853416387" lon="7.825217540459445"><ele>436.0</ele><time>2026-04-11T08:45:59Z</time></trkpt><trkpt lat="45.073869195985566" lon="7.825216009510967"><ele>436.00000000000006</ele><time>2026-04-11T08:46:01Z</time></trkpt><trkpt lat="45.073754370659195" lon="7.825226309814235"><ele>436.0</ele><time>2026-04-11T08:46:03Z</time></trkpt><trkpt lat="45.07363507566992" lon="7.825243152354726"><ele>435.4</ele><time>2026-04-11T08:46:05Z</time></trkpt><trkpt lat="45.073568822727204" lon="7.825240605654167"><ele>434.8</ele><time>2026-04-11T08:46:06Z</time></trkpt><trkpt lat="45.07345710931682" lon="7.825231491466764"><ele>434.19999999999993</ele><time>2026-04-11T08:46:08Z</time></trkpt><trkpt lat="45.07334958878564" lon="7.825227096174375"><ele>433.59999999999997</ele><time>2026-04-11T08:46:10Z</time></trkpt><trkpt lat="45.073247830270645" lon="7.825216604502304"><ele>433.0</ele><time>2026-04-11T08:46:12Z</time></trkpt><trkpt lat="45.0731395410812" lon="7.825224852976209"><ele>430.4</ele><time>2026-04-11T08:46:14Z</time></trkpt><trkpt lat="45.073029541095366" lon="7.8252178750988595"><ele>427.79999999999995</ele><time>2026-04-11T08:46:16Z</time></trkpt><trkpt lat="45.07291714071168" lon="7.8251837369102155"><ele>425.2</ele><time>2026-04-11T08:46:18Z</time></trkpt><trkpt lat="45.072816400702244" lon="7.825191494502185"><ele>422.6</ele><time>2026-04-11T08:46:20Z</time></trkpt><trkpt lat="45.072710490766916" lon="7.825163712434453"><ele>420.0</ele><time>2026-04-11T08:46:22Z</time></trkpt><trkpt lat="45.0726040510532" lon="7.825152687367052"><ele>420.0</ele><time>2026-04-11T08:46:24Z</time></trkpt><trkpt lat="45.07251104291413" lon="7.825151481252728"><ele>420.0</ele><time>2026-04-11T08:46:26Z</time></trkpt><trkpt lat="45.072411279873435" lon="7.825117359310183"><ele>420.0</ele><time>2026-04-11T08:46:28Z</time></trkpt><trkpt lat="45.0723274408869" lon="7.82508384559481"><ele>420.0</ele><time>2026-04-11T08:46:30Z</time></trkpt><trkpt lat="45.072254184309074" lon="7.825023753880908"><ele>420.0</ele><time>2026-04-11T08:46:32Z</time></trkpt><trkpt lat="45.0721650254189" lon="7.824946218159133"><ele>421.6</ele><time>2026-04-11T08:46:34Z</time></trkpt><trkpt lat="45.07206583230384" lon="7.824838118454474"><ele>423.2</ele><time>2026-04-11T08:46:35.999Z</time></trkpt><trkpt lat="45.07200814632312" lon="7.824760855792951"><ele>424.79999999999995</ele><time>2026-04-11T08:46:37.999Z</time></trkpt><trkpt lat="45.071923866059805" lon="7.824678210333356"><ele>426.4</ele><time>2026-04-11T08:46:39.999Z</time></trkpt><trkpt lat="45.07184686136336" lon="7.824608032694611"><ele>428.0</ele><time>2026-04-11T08:46:41.999Z</time></trkpt><trkpt lat="45.07178368056007" lon="7.82450935778785"><ele>428.0</ele><time>2026-04-11T08:46:43.999Z</time></trkpt><trkpt lat="45.07171382893707" lon="7.824418417983352"><ele>427.99999999999994</ele><time>2026-04-11T08:46:45.999Z</time></trkpt><trkpt lat="45.07165910168047" lon="7.824366320791378"><ele>427.99999999999994</ele><time>2026-04-11T08:46:46.999Z</time></trkpt><trkpt lat="45.071566891353186" lon="7.824288856579654"><ele>428.0</ele><time>2026-04-11T08:46:48.999Z</time></trkpt><trkpt lat="45.07145733289064" lon="7.824231744936663"><ele>428.0</ele><time>2026-04-11T08:46:50.999Z</time></trkpt><trkpt lat="45.071368288120894" lon="7.82421381764208"><ele>429.3333333333333</ele><time>2026-04-11T08:46:52.999Z</time></trkpt><trkpt lat="45.0712948428089" lon="7.824218359504642"><ele>430.66666666666663</ele><time>2026-04-11T08:46:54.999Z</time></trkpt><trkpt lat="45.07120226337775" lon="7.8242456767054795"><ele>432.0</ele><time>2026-04-11T08:46:56.999Z</time></trkpt><trkpt lat="45.07110894303397" lon="7.824243552932122"><ele>433.33333333333337</ele><time>2026-04-11T08:46:58.999Z</time></trkpt><trkpt lat="45.07103487656033" lon="7.824218478496426"><ele>434.6666666666667</ele><time>2026-04-11T08:47:00.999Z</time></trkpt><trkpt lat="45.07096324326025" lon="7.824180920237577"><ele>436.0</ele><time>2026-04-11T08:47:02.999Z</time></trkpt><trkpt lat="45.07087089930001" lon="7.824116251090966"><ele>436.0</ele><time>2026-04-11T08:47:04.999Z</time></trkpt><trkpt lat="45.070776750825466" lon="7.824056958763183"><ele>436.0</ele><time>2026-04-11T08:47:06.999Z</time></trkpt><trkpt lat="45.07070442412399" lon="7.82397406389252"><ele>436.0</ele><time>2026-04-11T08:47:09.999Z</time></trkpt><trkpt lat="45.070635441109644" lon="7.823915971456357"><ele>436.0</ele><time>2026-04-11T08:47:11.999Z</time></trkpt><trkpt lat="45.07058498289674" lon="7.823838686676571"><ele>436.0</ele><time>2026-04-11T08:47:13.999Z</time></trkpt><trkpt lat="45.07051940108084" lon="7.823704346343823"><ele>435.5</ele><time>2026-04-11T08:47:15.999Z</time></trkpt><trkpt lat="45.0703940143253" lon="7.823591554991065"><ele>435.0</ele><time>2026-04-11T08:47:17.999Z</time></trkpt><trkpt lat="45.070297249572135" lon="7.823490583526625"><ele>434.5</ele><time>2026-04-11T08:47:19.999Z</time></trkpt><trkpt lat="45.070213035889765" lon="7.823427744521108"><ele>434.0</ele><time>2026-04-11T08:47:21.999Z</time></trkpt><trkpt lat="45.07010264365243" lon="7.8233792729990075"><ele>432.49999999999994</ele><time>2026-04-11T08:47:23.999Z</time></trkpt><trkpt lat="45.070024657035574" lon="7.823319564250327"><ele>431.0</ele><time>2026-04-11T08:47:25.999Z</time></trkpt><trkpt lat="45.06994239359303" lon="7.823283642023853"><ele>429.5</ele><time>2026-04-11T08:47:27.999Z</time></trkpt><trkpt lat="45.06983951743578" lon="7.823253103775967"><ele>428.0</ele><time>2026-04-11T08:47:29.999Z</time></trkpt><trkpt lat="45.06977440805904" lon="7.823230127003493"><ele>426.49999999999994</ele><time>2026-04-11T08:47:30.999Z</time></trkpt><trkpt lat="45.069709712327274" lon="7.823207626059273"><ele>425.0</ele><time>2026-04-11T08:47:31.999Z</time></trkpt><trkpt lat="45.06963464907749" lon="7.823184625491682"><ele>424.49999999999994</ele><time>2026-04-11T08:47:32.999Z</time></trkpt><trkpt lat="45.06956782030451" lon="7.823157073738262"><ele>424.0</ele><time>2026-04-11T08:47:33.999Z</time></trkpt><trkpt lat="45.06950611439623" lon="7.823136919084941"><ele>423.5</ele><time>2026-04-11T08:47:34.999Z</time></trkpt><trkpt lat="45.06940614454412" lon="7.823116464691694"><ele>423.0</ele><time>2026-04-11T08:47:36.999Z</time></trkpt><trkpt lat="45.06931612895279" lon="7.823132989519754"><ele>422.49999999999994</ele><time>2026-04-11T08:47:38.999Z</time></trkpt><trkpt lat="45.06922911492714" lon="7.823156645651297"><ele>422.0</ele><time>2026-04-11T08:47:41.999Z</time></trkpt><trkpt lat="45.0691422542643" lon="7.823213836790556"><ele>420.0</ele><time>2026-04-11T08:47:43.999Z</time></trkpt><trkpt lat="45.069046440027996" lon="7.823286342627755"><ele>418.0</ele><time>2026-04-11T08:47:45.999Z</time></trkpt><trkpt lat="45.06894468285514" lon="7.823403359838099"><ele>416.0</ele><time>2026-04-11T08:47:47.999Z</time></trkpt><trkpt lat="45.06887542508029" lon="7.823492965464407"><ele>414.0</ele><time>2026-04-11T08:47:49Z</time></trkpt><trkpt lat="45.06881168337451" lon="7.823597827748767"><ele>412.0</ele><time>2026-04-11T08:47:50Z</time></trkpt><trkpt lat="45.06873305988733" lon="7.823674083236313"><ele>411.0</ele><time>2026-04-11T08:47:51Z</time></trkpt><trkpt lat="45.068665162644066" lon="7.823730724492478"><ele>410.0</ele><time>2026-04-11T08:47:52Z</time></trkpt><trkpt lat="45.06857546399424" lon="7.823749093648923"><ele>409.0</ele><time>2026-04-11T08:47:53Z</time></trkpt><trkpt lat="45.06846933272129" lon="7.823721671734036"><ele>408.0</ele><time>2026-04-11T08:47:54Z</time></trkpt><trkpt lat="45.06836819161289" lon="7.823729184367467"><ele>407.0</ele><time>2026-04-11T08:47:55Z</time></trkpt><trkpt lat="45.06829278263438" lon="7.823757301431345"><ele>406.5714285714286</ele><time>2026-04-11T08:47:56Z</time></trkpt><trkpt lat="45.06821687494148" lon="7.823776118223221"><ele>406.14285714285717</ele><time>2026-04-11T08:47:57Z</time></trkpt><trkpt lat="45.06816452213093" lon="7.823830242725522"><ele>405.7142857142857</ele><time>2026-04-11T08:47:58Z</time></trkpt><trkpt lat="45.068094865685644" lon="7.823830979960442"><ele>405.28571428571433</ele><time>2026-04-11T08:47:59Z</time></trkpt><trkpt lat="45.068015274446566" lon="7.823846640143068"><ele>404.85714285714283</ele><time>2026-04-11T08:48:00Z</time></trkpt><trkpt lat="45.06793881408017" lon="7.823871595672434"><ele>404.42857142857144</ele><time>2026-04-11T08:48:01Z</time></trkpt><trkpt lat="45.067882580223845" lon="7.823929272875534"><ele>404.0</ele><time>2026-04-11T08:48:02Z</time></trkpt><trkpt lat="45.067806960573186" lon="7.823960745331372"><ele>404.0</ele><time>2026-04-11T08:48:03Z</time></trkpt><trkpt lat="45.067720854557095" lon="7.823973473110536"><ele>404.0</ele><time>2026-04-11T08:48:05Z</time></trkpt><trkpt lat="45.067616821407405" lon="7.823999129779013"><ele>404.0</ele><time>2026-04-11T08:48:07Z</time></trkpt><trkpt lat="45.06750888935362" lon="7.8239767641601805"><ele>404.0</ele><time>2026-04-11T08:48:09Z</time></trkpt><trkpt lat="45.06741169653681" lon="7.823988541135979"><ele>404.0</ele><time>2026-04-11T08:48:11Z</time></trkpt><trkpt lat="45.067298703222306" lon="7.823994137837512"><ele>403.0</ele><time>2026-04-11T08:48:13Z</time></trkpt><trkpt lat="45.06720220138392" lon="7.823978242646787"><ele>402.0</ele><time>2026-04-11T08:48:15Z</time></trkpt><trkpt lat="45.06709820202737" lon="7.823999149790938"><ele>401.0</ele><time>2026-04-11T08:48:17Z</time></trkpt><trkpt lat="45.066982520117804" lon="7.823999900931972"><ele>400.0</ele><time>2026-04-11T08:48:19Z</time></trkpt><trkpt lat="45.06691670952474" lon="7.824013400078299"><ele>399.0</ele><time>2026-04-11T08:48:21Z</time></trkpt><trkpt lat="45.06680302452303" lon="7.824018431802778"><ele>399.0</ele><time>2026-04-11T08:48:23Z</time></trkpt><trkpt lat="45.06672823282698" lon="7.824008842034541"><ele>399.0</ele><time>2026-04-11T08:48:25Z</time></trkpt><trkpt lat="45.06665227180558" lon="7.8240314411650065"><ele>399.0</ele><time>2026-04-11T08:48:27Z</time></trkpt><trkpt lat="45.06656287672306" lon="7.824029999377241"><ele>399.0</ele><time>2026-04-11T08:48:29Z</time></trkpt><trkpt lat="45.06645421412441" lon="7.824040707471709"><ele>399.0</ele><time>2026-04-11T08:48:31Z</time></trkpt><trkpt lat="45.066383744583575" lon="7.824046225168533"><ele>399.0</ele><time>2026-04-11T08:48:32Z</time></trkpt><trkpt lat="45.06631291270149" lon="7.824050452440608"><ele>397.0</ele><time>2026-04-11T08:48:33Z</time></trkpt><trkpt lat="45.06621923704172" lon="7.824064736879505"><ele>395.0</ele><time>2026-04-11T08:48:34Z</time></trkpt><trkpt lat="45.06612975089749" lon="7.824056529317038"><ele>393.0</ele><time>2026-04-11T08:48:35Z</time></trkpt><trkpt lat="45.06605080020789" lon="7.824064107927512"><ele>391.0</ele><time>2026-04-11T08:48:36Z</time></trkpt><trkpt lat="45.06597944278594" lon="7.824080294702924"><ele>389.0</ele><time>2026-04-11T08:48:37Z</time></trkpt><trkpt lat="45.06592025118914" lon="7.824128550336514"><ele>387.0</ele><time>2026-04-11T08:48:38Z</time></trkpt><trkpt lat="45.06586604510901" lon="7.82419118257006"><ele>387.0</ele><time>2026-04-11T08:48:38.999Z</time></trkpt><trkpt lat="45.065802787240465" lon="7.8242560537912675"><ele>387.0</ele><time>2026-04-11T08:48:39.999Z</time></trkpt><trkpt lat="45.065750075715655" lon="7.824330767851033"><ele>387.0</ele><time>2026-04-11T08:48:40.999Z</time></trkpt><trkpt lat="45.06569614820086" lon="7.824398024774482"><ele>387.0</ele><time>2026-04-11T08:48:41.999Z</time></trkpt><trkpt lat="45.06563719292425" lon="7.824468157373478"><ele>387.0</ele><time>2026-04-11T08:48:42.999Z</time></trkpt><trkpt lat="45.06558029274404" lon="7.824518275631828"><ele>387.0</ele><time>2026-04-11T08:48:43.999Z</time></trkpt><trkpt lat="45.065500120730235" lon="7.824552144988697"><ele>385.14285714285717</ele><time>2026-04-11T08:48:44.999Z</time></trkpt><trkpt lat="45.06542304172023" lon="7.824572249597695"><ele>383.28571428571433</ele><time>2026-04-11T08:48:45.999Z</time></trkpt><trkpt lat="45.06535092126401" lon="7.824581634514039"><ele>381.42857142857144</ele><time>2026-04-11T08:48:46.999Z</time></trkpt><trkpt lat="45.06528099393161" lon="7.824592305966548"><ele>379.57142857142856</ele><time>2026-04-11T08:48:47.999Z</time></trkpt><trkpt lat="45.06521691864874" lon="7.824624980933694"><ele>377.7142857142857</ele><time>2026-04-11T08:48:48.999Z</time></trkpt><trkpt lat="45.065143616214904" lon="7.82461331540896"><ele>375.85714285714283</ele><time>2026-04-11T08:48:49.999Z</time></trkpt><trkpt lat="45.065076276551885" lon="7.824647755843974"><ele>374.0</ele><time>2026-04-11T08:48:50.999Z</time></trkpt><trkpt lat="45.06499598902667" lon="7.824655144760736"><ele>372.6</ele><time>2026-04-11T08:48:51.999Z</time></trkpt><trkpt lat="45.064914901870466" lon="7.8246734381587455"><ele>371.2</ele><time>2026-04-11T08:48:52.999Z</time></trkpt><trkpt lat="45.06484815357057" lon="7.82470683673242"><ele>369.8</ele><time>2026-04-11T08:48:53.999Z</time></trkpt><trkpt lat="45.06475428424703" lon="7.824784050836704"><ele>368.40000000000003</ele><time>2026-04-11T08:48:55.999Z</time></trkpt><trkpt lat="45.06467122441374" lon="7.824870064973595"><ele>367.0</ele><time>2026-04-11T08:48:57.999Z</time></trkpt><trkpt lat="45.06459696037415" lon="7.824938716423355"><ele>367.0</ele><time>2026-04-11T08:48:59.999Z</time></trkpt><trkpt lat="45.064523029598085" lon="7.825006263161672"><ele>367.0</ele><time>2026-04-11T08:49:03.999Z</time></trkpt><trkpt lat="45.06448864183748" lon="7.825092638066681"><ele>367.0</ele><time>2026-04-11T08:49:05.999Z</time></trkpt><trkpt lat="45.0644691857444" lon="7.8252308787988785"><ele>367.0</ele><time>2026-04-11T08:49:07.999Z</time></trkpt><trkpt lat="45.06443838625773" lon="7.825367227379473"><ele>367.0</ele><time>2026-04-11T08:49:09.999Z</time></trkpt><trkpt lat="45.064388444048625" lon="7.825485325258556"><ele>367.6</ele><time>2026-04-11T08:49:11.999Z</time></trkpt><trkpt lat="45.06433082269105" lon="7.825619947601014"><ele>368.20000000000005</ele><time>2026-04-11T08:49:13.999Z</time></trkpt><trkpt lat="45.06425486947374" lon="7.825708248085861"><ele>368.8</ele><time>2026-04-11T08:49:15.999Z</time></trkpt><trkpt lat="45.064180244027796" lon="7.8257876130825785"><ele>369.4</ele><time>2026-04-11T08:49:17.999Z</time></trkpt><trkpt lat="45.06413631235403" lon="7.825893099212698"><ele>370.0</ele><time>2026-04-11T08:49:19.999Z</time></trkpt><trkpt lat="45.06413347417829" lon="7.82598888662323"><ele>371.4</ele><time>2026-04-11T08:49:21.999Z</time></trkpt><trkpt lat="45.0641378508527" lon="7.826096791370316"><ele>372.8</ele><time>2026-04-11T08:49:23.999Z</time></trkpt><trkpt lat="45.06422518309191" lon="7.8262066084665"><ele>374.20000000000005</ele><time>2026-04-11T08:49:25.999Z</time></trkpt><trkpt lat="45.064302933457725" lon="7.82631796217227"><ele>375.6</ele><time>2026-04-11T08:49:27.999Z</time></trkpt><trkpt lat="45.064413581939384" lon="7.8264128579475765"><ele>377.0</ele><time>2026-04-11T08:49:29.999Z</time></trkpt><trkpt lat="45.06447152194618" lon="7.826455948955162"><ele>377.0</ele><time>2026-04-11T08:49:30.999Z</time></trkpt><trkpt lat="45.06453539895567" lon="7.826498646888139"><ele>377.0</ele><time>2026-04-11T08:49:31.999Z</time></trkpt><trkpt lat="45.06460901388864" lon="7.826529695520585"><ele>377.0</ele><time>2026-04-11T08:49:32.999Z</time></trkpt><trkpt lat="45.0646790727483" lon="7.826581103219847"><ele>377.0</ele><time>2026-04-11T08:49:33.999Z</time></trkpt><trkpt lat="45.06476293783507" lon="7.826607795873156"><ele>377.0</ele><time>2026-04-11T08:49:34.999Z</time></trkpt><trkpt lat="45.06485332453035" lon="7.82662598944587"><ele>377.0</ele><time>2026-04-11T08:49:35.999Z</time></trkpt><trkpt lat="45.064949833167674" lon="7.8266028719814855"><ele>373.6</ele><time>2026-04-11T08:49:36.999Z</time></trkpt><trkpt lat="45.06505328135157" lon="7.82661149152729"><ele>370.20000000000005</ele><time>2026-04-11T08:49:37.999Z</time></trkpt><trkpt lat="45.06515962548486" lon="7.8266172007778705"><ele>366.8</ele><time>2026-04-11T08:49:38.999Z</time></trkpt><trkpt lat="45.065261544883164" lon="7.82659537872302"><ele>363.4</ele><time>2026-04-11T08:49:39.999Z</time></trkpt><trkpt lat="45.06536570808418" lon="7.826604098015506"><ele>360.0</ele><time>2026-04-11T08:49:40.999Z</time></trkpt><trkpt lat="45.065460468768634" lon="7.82656154414102"><ele>360.0</ele><time>2026-04-11T08:49:41.999Z</time></trkpt><trkpt lat="45.065544091655326" lon="7.826520973492506"><ele>360.0</ele><time>2026-04-11T08:49:42.999Z</time></trkpt><trkpt lat="45.06562480979951" lon="7.826508164450553"><ele>360.0</ele><time>2026-04-11T08:49:43.999Z</time></trkpt><trkpt lat="45.065701408449456" lon="7.826554602347575"><ele>360.0</ele><time>2026-04-11T08:49:44.999Z</time></trkpt><trkpt lat="45.065768362002345" lon="7.826627956383975"><ele>360.0</ele><time>2026-04-11T08:49:45.999Z</time></trkpt><trkpt lat="45.065804114372" lon="7.8267431838454105"><ele>360.0</ele><time>2026-04-11T08:49:46.999Z</time></trkpt><trkpt lat="45.065805611704654" lon="7.82687430628661"><ele>360.4</ele><time>2026-04-11T08:49:47.999Z</time></trkpt><trkpt lat="45.065770014255406" lon="7.827005867629862"><ele>360.8</ele><time>2026-04-11T08:49:48.999Z</time></trkpt><trkpt lat="45.06569097459376" lon="7.8271128746199095"><ele>361.20000000000005</ele><time>2026-04-11T08:49:49.999Z</time></trkpt><trkpt lat="45.065598249791265" lon="7.8271752145205875"><ele>361.6</ele><time>2026-04-11T08:49:50.999Z</time></trkpt><trkpt lat="45.06551144947068" lon="7.827223676951578"><ele>362.0</ele><time>2026-04-11T08:49:51.999Z</time></trkpt><trkpt lat="45.0654438569952" lon="7.827298897920338"><ele>362.0</ele><time>2026-04-11T08:49:52.999Z</time></trkpt><trkpt lat="45.065397597020514" lon="7.827410578476989"><ele>362.0</ele><time>2026-04-11T08:49:53.998Z</time></trkpt><trkpt lat="45.06537886659512" lon="7.8275477872631996"><ele>362.0</ele><time>2026-04-11T08:49:55Z</time></trkpt><trkpt lat="45.06539636874947" lon="7.827696055993457"><ele>362.0</ele><time>2026-04-11T08:49:56Z</time></trkpt><trkpt lat="45.065441054718136" lon="7.8278374609434485"><ele>362.0</ele><time>2026-04-11T08:49:57Z</time></trkpt><trkpt lat="45.065495551682346" lon="7.82798631524712"><ele>363.25</ele><time>2026-04-11T08:49:58Z</time></trkpt><trkpt lat="45.06554794539864" lon="7.828119970842051"><ele>364.5</ele><time>2026-04-11T08:49:59Z</time></trkpt><trkpt lat="45.065602172172596" lon="7.828271666482314"><ele>365.75</ele><time>2026-04-11T08:50:00Z</time></trkpt><trkpt lat="45.0656632086524" lon="7.828439208103495"><ele>367.0</ele><time>2026-04-11T08:50:01Z</time></trkpt><trkpt lat="45.065727731999246" lon="7.828603505293214"><ele>358.25</ele><time>2026-04-11T08:50:02Z</time></trkpt><trkpt lat="45.06578065254332" lon="7.828775335566806"><ele>349.5</ele><time>2026-04-11T08:50:03Z</time></trkpt><trkpt lat="45.065854687142306" lon="7.828938670851399"><ele>340.75</ele><time>2026-04-11T08:50:04Z</time></trkpt><trkpt lat="45.06594594430234" lon="7.829103560342588"><ele>332.0</ele><time>2026-04-11T08:50:05Z</time></trkpt><trkpt lat="45.06602734025898" lon="7.829263135958177"><ele>331.6666666666667</ele><time>2026-04-11T08:50:06Z</time></trkpt><trkpt lat="45.06614464321803" lon="7.829404115976108"><ele>331.3333333333333</ele><time>2026-04-11T08:50:07Z</time></trkpt><trkpt lat="45.06623219480706" lon="7.82957474620697"><ele>331.0</ele><time>2026-04-11T08:50:08Z</time></trkpt><trkpt lat="45.0663063774218" lon="7.8297590709705815"><ele>331.0</ele><time>2026-04-11T08:50:09Z</time></trkpt><trkpt lat="45.06634981733193" lon="7.829957065620224"><ele>331.0</ele><time>2026-04-11T08:50:10Z</time></trkpt><trkpt lat="45.06636236944285" lon="7.830170364755576"><ele>331.0</ele><time>2026-04-11T08:50:11Z</time></trkpt><trkpt lat="45.0663523981828" lon="7.830376861645604"><ele>331.0</ele><time>2026-04-11T08:50:12Z</time></trkpt><trkpt lat="45.066369189662026" lon="7.830564490580039"><ele>328.0</ele><time>2026-04-11T08:50:13Z</time></trkpt><trkpt lat="45.06640901668551" lon="7.830714012768321"><ele>325.0</ele><time>2026-04-11T08:50:14Z</time></trkpt><trkpt lat="45.066466957163776" lon="7.830863865950002"><ele>322.0</ele><time>2026-04-11T08:50:15Z</time></trkpt><trkpt lat="45.06657677330136" lon="7.83097979804174"><ele>319.0</ele><time>2026-04-11T08:50:16Z</time></trkpt><trkpt lat="45.06668934771847" lon="7.831042519129423"><ele>316.2</ele><time>2026-04-11T08:50:17Z</time></trkpt><trkpt lat="45.06680102755705" lon="7.831069644475268"><ele>313.4</ele><time>2026-04-11T08:50:18Z</time></trkpt><trkpt lat="45.06690906917582" lon="7.8310835513998605"><ele>310.6</ele><time>2026-04-11T08:50:19Z</time></trkpt><trkpt lat="45.067013277358605" lon="7.831121031433725"><ele>307.8</ele><time>2026-04-11T08:50:20Z</time></trkpt><trkpt lat="45.06710720523776" lon="7.831191334889923"><ele>305.0</ele><time>2026-04-11T08:50:21Z</time></trkpt><trkpt lat="45.06718973368066" lon="7.831279717326405"><ele>305.0</ele><time>2026-04-11T08:50:22Z</time></trkpt><trkpt lat="45.06726017355772" lon="7.83138798676145"><ele>305.0</ele><time>2026-04-11T08:50:23Z</time></trkpt><trkpt lat="45.06732184207483" lon="7.831506915785393"><ele>305.0</ele><time>2026-04-11T08:50:24Z</time></trkpt><trkpt lat="45.06736795346776" lon="7.8316327619625135"><ele>305.0</ele><time>2026-04-11T08:50:25Z</time></trkpt><trkpt lat="45.06739340201302" lon="7.831770574600143"><ele>305.0</ele><time>2026-04-11T08:50:26Z</time></trkpt><trkpt lat="45.06740164768989" lon="7.831906936553408"><ele>305.8</ele><time>2026-04-11T08:50:27Z</time></trkpt><trkpt lat="45.06740433391991" lon="7.832043075218793"><ele>306.6</ele><time>2026-04-11T08:50:28Z</time></trkpt><trkpt lat="45.06741320139149" lon="7.8321701003613216"><ele>307.4</ele><time>2026-04-11T08:50:29Z</time></trkpt><trkpt lat="45.06742026307095" lon="7.832297457515202"><ele>308.2</ele><time>2026-04-11T08:50:30Z</time></trkpt><trkpt lat="45.06741494962166" lon="7.832424419916508"><ele>309.0</ele><time>2026-04-11T08:50:31Z</time></trkpt><trkpt lat="45.06739275699649" lon="7.832543900292064"><ele>309.0</ele><time>2026-04-11T08:50:32Z</time></trkpt><trkpt lat="45.06736203730111" lon="7.832653769437043"><ele>309.0</ele><time>2026-04-11T08:50:33Z</time></trkpt><trkpt lat="45.06733230468992" lon="7.832762272219736"><ele>309.0</ele><time>2026-04-11T08:50:34Z</time></trkpt><trkpt lat="45.06729779377933" lon="7.832868580190463"><ele>309.0</ele><time>2026-04-11T08:50:35Z</time></trkpt><trkpt lat="45.067270464931205" lon="7.832975643108442"><ele>309.0</ele><time>2026-04-11T08:50:36Z</time></trkpt><trkpt lat="45.06724632132186" lon="7.833078596451405"><ele>309.0</ele><time>2026-04-11T08:50:37Z</time></trkpt><trkpt lat="45.067225564272306" lon="7.8331766264006335"><ele>309.0</ele><time>2026-04-11T08:50:38Z</time></trkpt><trkpt lat="45.06720959126586" lon="7.833269650923995"><ele>309.0</ele><time>2026-04-11T08:50:39Z</time></trkpt><trkpt lat="45.0672043691502" lon="7.8333586061164056"><ele>309.0</ele><time>2026-04-11T08:50:40Z</time></trkpt><trkpt lat="45.067195236942624" lon="7.833523831196606"><ele>309.0</ele><time>2026-04-11T08:50:41.999Z</time></trkpt><trkpt lat="45.06719193078735" lon="7.833653630014027"><ele>309.0</ele><time>2026-04-11T08:50:43.999Z</time></trkpt><trkpt lat="45.06719095334607" lon="7.833760367175434"><ele>309.0</ele><time>2026-04-11T08:50:45.999Z</time></trkpt><trkpt lat="45.06718728141631" lon="7.833851622784146"><ele>309.4</ele><time>2026-04-11T08:50:47.999Z</time></trkpt><trkpt lat="45.067187731196235" lon="7.833976046652676"><ele>309.79999999999995</ele><time>2026-04-11T08:50:50.999Z</time></trkpt><trkpt lat="45.06719010972073" lon="7.834101094823802"><ele>310.20000000000005</ele><time>2026-04-11T08:50:53.999Z</time></trkpt><trkpt lat="45.06718397763288" lon="7.834231438749371"><ele>310.6</ele><time>2026-04-11T08:50:56.999Z</time></trkpt><trkpt lat="45.0671872180593" lon="7.834363020759223"><ele>311.0</ele><time>2026-04-11T08:50:59.999Z</time></trkpt><trkpt lat="45.06720648740732" lon="7.834490105312212"><ele>311.6666666666667</ele><time>2026-04-11T08:51:02.999Z</time></trkpt><trkpt lat="45.06720751013171" lon="7.834613470982074"><ele>312.33333333333337</ele><time>2026-04-11T08:51:05.999Z</time></trkpt><trkpt lat="45.06719785676681" lon="7.834706164519033"><ele>313.0</ele><time>2026-04-11T08:51:08.999Z</time></trkpt><trkpt lat="45.06717764805697" lon="7.834817760884088"><ele>313.6666666666667</ele><time>2026-04-11T08:51:12.999Z</time></trkpt><trkpt lat="45.067167993139044" lon="7.834961428905559"><ele>314.3333333333333</ele><time>2026-04-11T08:51:15.999Z</time></trkpt><trkpt lat="45.06713561673684" lon="7.835067764451652"><ele>315.0</ele><time>2026-04-11T08:51:18.999Z</time></trkpt><trkpt lat="45.06712286011481" lon="7.835159640134146"><ele>317.4</ele><time>2026-04-11T08:51:20.999Z</time></trkpt><trkpt lat="45.06710552047038" lon="7.835294414801366"><ele>319.8</ele><time>2026-04-11T08:51:24.999Z</time></trkpt><trkpt lat="45.06711913498359" lon="7.835404195562099"><ele>322.20000000000005</ele><time>2026-04-11T08:51:27.999Z</time></trkpt><trkpt lat="45.06708691654924" lon="7.835558517613822"><ele>324.6</ele><time>2026-04-11T08:51:30.999Z</time></trkpt><trkpt lat="45.067027400028806" lon="7.835679281449093"><ele>327.0</ele><time>2026-04-11T08:51:32.999Z</time></trkpt><trkpt lat="45.06696640919065" lon="7.835813364328582"><ele>327.0</ele><time>2026-04-11T08:51:34.999Z</time></trkpt><trkpt lat="45.06688171099568" lon="7.835928106234458"><ele>327.0</ele><time>2026-04-11T08:51:36.999Z</time></trkpt><trkpt lat="45.06679857120194" lon="7.836051793672442"><ele>327.0</ele><time>2026-04-11T08:51:38.999Z</time></trkpt><trkpt lat="45.06676006017395" lon="7.836123593263066"><ele>327.0</ele><time>2026-04-11T08:51:39.999Z</time></trkpt><trkpt lat="45.066715668888335" lon="7.836188933471981"><ele>327.0</ele><time>2026-04-11T08:51:40.999Z</time></trkpt><trkpt lat="45.06667044153117" lon="7.836254530837869"><ele>327.0</ele><time>2026-04-11T08:51:41.999Z</time></trkpt><trkpt lat="45.066626803758716" lon="7.836325210354851"><ele>324.8333333333333</ele><time>2026-04-11T08:51:42.999Z</time></trkpt><trkpt lat="45.06654075269393" lon="7.836460865363956"><ele>322.6666666666667</ele><time>2026-04-11T08:51:44.999Z</time></trkpt><trkpt lat="45.06649698798782" lon="7.836539539668072"><ele>320.5</ele><time>2026-04-11T08:51:45.999Z</time></trkpt><trkpt lat="45.06645040774963" lon="7.836619128015567"><ele>318.33333333333337</ele><time>2026-04-11T08:51:46.999Z</time></trkpt><trkpt lat="45.06640688388644" lon="7.836704355564986"><ele>316.1666666666667</ele><time>2026-04-11T08:51:47.999Z</time></trkpt><trkpt lat="45.06636217462242" lon="7.836780328614086"><ele>314.0</ele><time>2026-04-11T08:51:48.999Z</time></trkpt><trkpt lat="45.06629187394877" lon="7.836919251737274"><ele>314.0</ele><time>2026-04-11T08:51:50.999Z</time></trkpt><trkpt lat="45.06625052356206" lon="7.836996467958552"><ele>314.0</ele><time>2026-04-11T08:51:51.999Z</time></trkpt><trkpt lat="45.066208103607636" lon="7.837066647615994"><ele>314.0</ele><time>2026-04-11T08:51:52.999Z</time></trkpt><trkpt lat="45.06616814092922" lon="7.837142815421236"><ele>314.0</ele><time>2026-04-11T08:51:53.999Z</time></trkpt><trkpt lat="45.06610344686339" lon="7.837264070005461"><ele>314.0</ele><time>2026-04-11T08:51:55.998Z</time></trkpt><trkpt lat="45.0660579934124" lon="7.83735405123083"><ele>314.0</ele><time>2026-04-11T08:51:57.998Z</time></trkpt><trkpt lat="45.066013669597176" lon="7.83743511292747"><ele>313.99999999999994</ele><time>2026-04-11T08:51:59.998Z</time></trkpt><trkpt lat="45.06596708330373" lon="7.837508002274051"><ele>314.0</ele><time>2026-04-11T08:52:03Z</time></trkpt><trkpt lat="45.06592134474825" lon="7.837575365230813"><ele>314.0</ele><time>2026-04-11T08:52:11Z</time></trkpt><trkpt lat="45.0658726912905" lon="7.837641430206002"><ele>314.0</ele><time>2026-04-11T08:52:17Z</time></trkpt><trkpt lat="45.06583076090571" lon="7.837715386941669"><ele>314.0</ele><time>2026-04-11T08:52:19Z</time></trkpt><trkpt lat="45.06578293854997" lon="7.837829964070201"><ele>313.99999999999994</ele><time>2026-04-11T08:52:22Z</time></trkpt><trkpt lat="45.065746814094034" lon="7.837905185755569"><ele>314.0</ele><time>2026-04-11T08:52:24Z</time></trkpt><trkpt lat="45.06571099103048" lon="7.838046117302682"><ele>314.1666666666667</ele><time>2026-04-11T08:52:26Z</time></trkpt><trkpt lat="45.06571146675503" lon="7.838169549926375"><ele>314.33333333333337</ele><time>2026-04-11T08:52:28Z</time></trkpt><trkpt lat="45.065725614764354" lon="7.8382691610980775"><ele>314.5</ele><time>2026-04-11T08:52:30Z</time></trkpt><trkpt lat="45.06575752669114" lon="7.8383661206850554"><ele>314.6666666666667</ele><time>2026-04-11T08:52:32Z</time></trkpt><trkpt lat="45.06577973741192" lon="7.83846252367673"><ele>314.8333333333333</ele><time>2026-04-11T08:52:34Z</time></trkpt><trkpt lat="45.065804678770284" lon="7.838571964638191"><ele>315.0</ele><time>2026-04-11T08:52:36Z</time></trkpt><trkpt lat="45.065837264517484" lon="7.838669850172576"><ele>315.1666666666667</ele><time>2026-04-11T08:52:38Z</time></trkpt><trkpt lat="45.06584929294045" lon="7.838776451725636"><ele>315.3333333333333</ele><time>2026-04-11T08:52:40Z</time></trkpt><trkpt lat="45.065862925433564" lon="7.8388730527234625"><ele>315.5</ele><time>2026-04-11T08:52:43Z</time></trkpt><trkpt lat="45.06587465897244" lon="7.8389672907661145"><ele>315.66666666666663</ele><time>2026-04-11T08:52:45Z</time></trkpt><trkpt lat="45.065896723458394" lon="7.839089334046373"><ele>315.8333333333333</ele><time>2026-04-11T08:52:46Z</time></trkpt><trkpt lat="45.06590155094062" lon="7.83921430327333"><ele>316.0</ele><time>2026-04-11T08:52:47Z</time></trkpt><trkpt lat="45.065912639397624" lon="7.839314651424403"><ele>315.2</ele><time>2026-04-11T08:52:48Z</time></trkpt><trkpt lat="45.06578519117483" lon="7.839387751884394"><ele>314.40000000000003</ele><time>2026-04-11T08:52:49Z</time></trkpt><trkpt lat="45.06568929487638" lon="7.8394474848553015"><ele>313.6</ele><time>2026-04-11T08:52:49.999Z</time></trkpt><trkpt lat="45.065620105664344" lon="7.83954113632385"><ele>312.8</ele><time>2026-04-11T08:52:50.999Z</time></trkpt><trkpt lat="45.06554177199154" lon="7.839618345218212"><ele>312.0</ele><time>2026-04-11T08:52:51.999Z</time></trkpt><trkpt lat="45.065460292612705" lon="7.839701701187507"><ele>310.25</ele><time>2026-04-11T08:52:52.999Z</time></trkpt><trkpt lat="45.06537116876134" lon="7.839793512364003"><ele>308.5</ele><time>2026-04-11T08:52:53.999Z</time></trkpt><trkpt lat="45.065291939592036" lon="7.839899482097992"><ele>306.75</ele><time>2026-04-11T08:52:54.999Z</time></trkpt><trkpt lat="45.06522737843018" lon="7.8400219374541065"><ele>305.0</ele><time>2026-04-11T08:52:55.999Z</time></trkpt><trkpt lat="45.065200169411" lon="7.840220855991651"><ele>303.75</ele><time>2026-04-11T08:52:56.999Z</time></trkpt><trkpt lat="45.06519904706129" lon="7.840396503824695"><ele>302.5</ele><time>2026-04-11T08:52:57.999Z</time></trkpt><trkpt lat="45.06520265286884" lon="7.840569668696875"><ele>301.25</ele><time>2026-04-11T08:52:58.999Z</time></trkpt><trkpt lat="45.06520489111499" lon="7.840730981046624"><ele>300.0</ele><time>2026-04-11T08:52:59.999Z</time></trkpt><trkpt lat="45.06525332226559" lon="7.840863082888385"><ele>299.0</ele><time>2026-04-11T08:53:00.999Z</time></trkpt><trkpt lat="45.06528955206064" lon="7.8409798039232665"><ele>298.0</ele><time>2026-04-11T08:53:01.999Z</time></trkpt><trkpt lat="45.06531695153663" lon="7.841098294698247"><ele>297.0</ele><time>2026-04-11T08:53:02.999Z</time></trkpt><trkpt lat="45.065344346677236" lon="7.841225408952871"><ele>296.0</ele><time>2026-04-11T08:53:03.999Z</time></trkpt><trkpt lat="45.06536836742107" lon="7.841373308942047"><ele>295.0</ele><time>2026-04-11T08:53:04.999Z</time></trkpt><trkpt lat="45.065398483279345" lon="7.841470421742157"><ele>295.0</ele><time>2026-04-11T08:53:05.999Z</time></trkpt><trkpt lat="45.0654268980287" lon="7.841580519065137"><ele>295.0</ele><time>2026-04-11T08:53:06.999Z</time></trkpt><trkpt lat="45.06543804108895" lon="7.841690252974149"><ele>295.0</ele><time>2026-04-11T08:53:07.999Z</time></trkpt><trkpt lat="45.065430643571226" lon="7.841796650017043"><ele>295.0</ele><time>2026-04-11T08:53:08.999Z</time></trkpt><trkpt lat="45.06543712733641" lon="7.841894898623344"><ele>295.0</ele><time>2026-04-11T08:53:09.999Z</time></trkpt><trkpt lat="45.06548488916708" lon="7.841983677578388"><ele>295.0</ele><time>2026-04-11T08:53:10.999Z</time></trkpt><trkpt lat="45.065552924821446" lon="7.842018193064009"><ele>294.8571428571429</ele><time>2026-04-11T08:53:11.999Z</time></trkpt><trkpt lat="45.065625448213325" lon="7.842009740431538"><ele>294.7142857142857</ele><time>2026-04-11T08:53:12.999Z</time></trkpt><trkpt lat="45.06568388990772" lon="7.841961025185089"><ele>294.57142857142856</ele><time>2026-04-11T08:53:13.999Z</time></trkpt><trkpt lat="45.065730260485196" lon="7.841900194046372"><ele>294.42857142857144</ele><time>2026-04-11T08:53:14.999Z</time></trkpt><trkpt lat="45.065789088844085" lon="7.841864067936971"><ele>294.2857142857143</ele><time>2026-04-11T08:53:15.999Z</time></trkpt><trkpt lat="45.06586186278596" lon="7.841860685970299"><ele>294.14285714285717</ele><time>2026-04-11T08:53:16.999Z</time></trkpt><trkpt lat="45.065931876529696" lon="7.841859627537339"><ele>294.0</ele><time>2026-04-11T08:53:17.999Z</time></trkpt><trkpt lat="45.06599711200253" lon="7.841847754238282"><ele>294.0</ele><time>2026-04-11T08:53:18.999Z</time></trkpt><trkpt lat="45.06606323780749" lon="7.841844971743995"><ele>294.0</ele><time>2026-04-11T08:53:19.999Z</time></trkpt><trkpt lat="45.066129035909995" lon="7.841850208928885"><ele>294.0</ele><time>2026-04-11T08:53:20.999Z</time></trkpt><trkpt lat="45.066194267874785" lon="7.841844517426928"><ele>294.0</ele><time>2026-04-11T08:53:21.999Z</time></trkpt><trkpt lat="45.06625959801215" lon="7.841836510349669"><ele>294.0</ele><time>2026-04-11T08:53:22.999Z</time></trkpt><trkpt lat="45.066386387946125" lon="7.841832081327997"><ele>294.0</ele><time>2026-04-11T08:53:24.999Z</time></trkpt><trkpt lat="45.06651325400657" lon="7.8418286862326925"><ele>294.0</ele><time>2026-04-11T08:53:26.999Z</time></trkpt><trkpt lat="45.066578721488845" lon="7.841827884937292"><ele>294.0</ele><time>2026-04-11T08:53:27.999Z</time></trkpt><trkpt lat="45.06664277335362" lon="7.841825518132085"><ele>294.0</ele><time>2026-04-11T08:53:28.999Z</time></trkpt><trkpt lat="45.066766026969226" lon="7.841826091853433"><ele>294.0</ele><time>2026-04-11T08:53:30.999Z</time></trkpt><trkpt lat="45.066883488081054" lon="7.841825098164511"><ele>294.0</ele><time>2026-04-11T08:53:32.999Z</time></trkpt><trkpt lat="45.06696973432586" lon="7.841885108954539"><ele>294.4</ele><time>2026-04-11T08:53:34.999Z</time></trkpt><trkpt lat="45.06697142986567" lon="7.842010760642348"><ele>294.79999999999995</ele><time>2026-04-11T08:53:35.999Z</time></trkpt><trkpt lat="45.06695367430641" lon="7.842158275930553"><ele>295.20000000000005</ele><time>2026-04-11T08:53:37.999Z</time></trkpt><trkpt lat="45.06695747736312" lon="7.8423018024811935"><ele>295.6</ele><time>2026-04-11T08:53:39.999Z</time></trkpt><trkpt lat="45.06696150669531" lon="7.842447383483672"><ele>296.0</ele><time>2026-04-11T08:53:41.999Z</time></trkpt><trkpt lat="45.066967955928945" lon="7.842586078002119"><ele>296.40000000000003</ele><time>2026-04-11T08:53:43.999Z</time></trkpt><trkpt lat="45.06696979793206" lon="7.842731422661462"><ele>296.8</ele><time>2026-04-11T08:53:45.999Z</time></trkpt><trkpt lat="45.06698083939485" lon="7.842877132084083"><ele>297.20000000000005</ele><time>2026-04-11T08:53:47.999Z</time></trkpt><trkpt lat="45.06698758628292" lon="7.8430175797917725"><ele>297.6</ele><time>2026-04-11T08:53:49.999Z</time></trkpt><trkpt lat="45.06699909226921" lon="7.843164794912764"><ele>298.0</ele><time>2026-04-11T08:53:51.999Z</time></trkpt><trkpt lat="45.06700429382169" lon="7.84331207423153"><ele>298.0</ele><time>2026-04-11T08:53:53.999Z</time></trkpt><trkpt lat="45.06701827202454" lon="7.843453634967274"><ele>298.0</ele><time>2026-04-11T08:53:55.999Z</time></trkpt><trkpt lat="45.067021961772625" lon="7.843577829384717"><ele>298.0</ele><time>2026-04-11T08:53:57.999Z</time></trkpt><trkpt lat="45.067024937667625" lon="7.843685608097628"><ele>298.0</ele><time>2026-04-11T08:53:59.999Z</time></trkpt><trkpt lat="45.06704569976806" lon="7.843792035848688"><ele>298.0</ele><time>2026-04-11T08:54:01.999Z</time></trkpt><trkpt lat="45.06705526834178" lon="7.843906810624549"><ele>298.0</ele><time>2026-04-11T08:54:03.998Z</time></trkpt><trkpt lat="45.06706397409221" lon="7.844011236021376"><ele>298.16666666666663</ele><time>2026-04-11T08:54:05.998Z</time></trkpt><trkpt lat="45.067072144798175" lon="7.8441092441430325"><ele>298.3333333333333</ele><time>2026-04-11T08:54:08Z</time></trkpt><trkpt lat="45.06708274098903" lon="7.844227651868124"><ele>298.5</ele><time>2026-04-11T08:54:11Z</time></trkpt><trkpt lat="45.06709064191832" lon="7.844329437508673"><ele>298.6666666666667</ele><time>2026-04-11T08:54:14Z</time></trkpt><trkpt lat="45.06708636737147" lon="7.84442881448368"><ele>298.83333333333337</ele><time>2026-04-11T08:54:17Z</time></trkpt><trkpt lat="45.067112940162914" lon="7.844553770416044"><ele>299.0</ele><time>2026-04-11T08:54:20Z</time></trkpt><trkpt lat="45.06712185221414" lon="7.844653832691592"><ele>300.42857142857144</ele><time>2026-04-11T08:54:22Z</time></trkpt><trkpt lat="45.06711525007846" lon="7.844744801723287"><ele>301.8571428571429</ele><time>2026-04-11T08:54:24Z</time></trkpt><trkpt lat="45.0670501232523" lon="7.844813584057519"><ele>303.28571428571433</ele><time>2026-04-11T08:54:26Z</time></trkpt><trkpt lat="45.06698139903609" lon="7.844878682573483"><ele>304.7142857142857</ele><time>2026-04-11T08:54:30Z</time></trkpt><trkpt lat="45.06691758935215" lon="7.844940399232749"><ele>306.14285714285717</ele><time>2026-04-11T08:54:33Z</time></trkpt><trkpt lat="45.066863260630036" lon="7.845000155699088"><ele>307.5714285714286</ele><time>2026-04-11T08:54:37Z</time></trkpt><trkpt lat="45.06680426867413" lon="7.845062207486384"><ele>309.0</ele><time>2026-04-11T08:54:41Z</time></trkpt><trkpt lat="45.0667411992295" lon="7.845128669289639"><ele>310.5714285714286</ele><time>2026-04-11T08:54:44Z</time></trkpt><trkpt lat="45.06667627402411" lon="7.8451895301842915"><ele>312.14285714285717</ele><time>2026-04-11T08:54:47Z</time></trkpt><trkpt lat="45.066614151587665" lon="7.84525754924354"><ele>313.7142857142857</ele><time>2026-04-11T08:54:50Z</time></trkpt><trkpt lat="45.066550744661455" lon="7.845321853383304"><ele>315.28571428571433</ele><time>2026-04-11T08:54:53Z</time></trkpt><trkpt lat="45.06649475227255" lon="7.845375296428892"><ele>316.8571428571429</ele><time>2026-04-11T08:54:57Z</time></trkpt><trkpt lat="45.066445626269896" lon="7.845434598024992"><ele>318.42857142857144</ele><time>2026-04-11T08:54:59.999Z</time></trkpt><trkpt lat="45.0663888110428" lon="7.845485410721705"><ele>320.0</ele><time>2026-04-11T08:55:02.999Z</time></trkpt><trkpt lat="45.06632271546073" lon="7.8455625240910685"><ele>320.0</ele><time>2026-04-11T08:55:06.999Z</time></trkpt><trkpt lat="45.06626199824936" lon="7.845635180158046"><ele>320.0</ele><time>2026-04-11T08:55:10.999Z</time></trkpt><trkpt lat="45.066210618320675" lon="7.845706199279642"><ele>320.0</ele><time>2026-04-11T08:55:14.999Z</time></trkpt><trkpt lat="45.06614625801101" lon="7.8457762707478125"><ele>320.0</ele><time>2026-04-11T08:55:18.999Z</time></trkpt><trkpt lat="45.06608818846971" lon="7.8458282854642665"><ele>320.0</ele><time>2026-04-11T08:55:21.999Z</time></trkpt><trkpt lat="45.0660385340153" lon="7.845886200230389"><ele>320.0</ele><time>2026-04-11T08:55:24.999Z</time></trkpt><trkpt lat="45.065967851791285" lon="7.8459514490453905"><ele>321.1666666666667</ele><time>2026-04-11T08:55:27.999Z</time></trkpt><trkpt lat="45.06589606384798" lon="7.846027936047996"><ele>322.33333333333337</ele><time>2026-04-11T08:55:30.999Z</time></trkpt><trkpt lat="45.06582373900963" lon="7.84608744578153"><ele>323.5</ele><time>2026-04-11T08:55:33.999Z</time></trkpt><trkpt lat="45.06575128572189" lon="7.846150653824713"><ele>324.6666666666667</ele><time>2026-04-11T08:55:36.999Z</time></trkpt><trkpt lat="45.06568569314918" lon="7.846217089785354"><ele>325.8333333333333</ele><time>2026-04-11T08:55:39.999Z</time></trkpt><trkpt lat="45.06560933388913" lon="7.846282412173611"><ele>327.0</ele><time>2026-04-11T08:55:42.999Z</time></trkpt><trkpt lat="45.06553701838739" lon="7.846343959402693"><ele>327.0</ele><time>2026-04-11T08:55:45.999Z</time></trkpt><trkpt lat="45.06547165343304" lon="7.846414085040071"><ele>327.0</ele><time>2026-04-11T08:55:48.999Z</time></trkpt><trkpt lat="45.06541719905979" lon="7.846468204670938"><ele>327.0</ele><time>2026-04-11T08:55:51.999Z</time></trkpt><trkpt lat="45.065348580685374" lon="7.846523826129663"><ele>327.0</ele><time>2026-04-11T08:55:54.999Z</time></trkpt><trkpt lat="45.06528899846542" lon="7.846580506812713"><ele>327.0</ele><time>2026-04-11T08:55:57.999Z</time></trkpt><trkpt lat="45.0652226740567" lon="7.846650532571954"><ele>327.0</ele><time>2026-04-11T08:56:01.999Z</time></trkpt><trkpt lat="45.06517245012985" lon="7.846726825822553"><ele>327.0</ele><time>2026-04-11T08:56:05.999Z</time></trkpt><trkpt lat="45.0651158642065" lon="7.846777196737888"><ele>327.0</ele><time>2026-04-11T08:56:07.999Z</time></trkpt><trkpt lat="45.0650477620936" lon="7.846846694411195"><ele>327.0</ele><time>2026-04-11T08:56:10.999Z</time></trkpt><trkpt lat="45.06498197883805" lon="7.846935425686371"><ele>327.0</ele><time>2026-04-11T08:56:15Z</time></trkpt><trkpt lat="45.06492614287405" lon="7.847004344402585"><ele>327.0</ele><time>2026-04-11T08:56:17Z</time></trkpt><trkpt lat="45.064873645574416" lon="7.847078143464184"><ele>327.0</ele><time>2026-04-11T08:56:19Z</time></trkpt><trkpt lat="45.0648306388626" lon="7.84717682656605"><ele>326.40000000000003</ele><time>2026-04-11T08:56:21Z</time></trkpt><trkpt lat="45.064794912149786" lon="7.847289512681474"><ele>325.8</ele><time>2026-04-11T08:56:23Z</time></trkpt><trkpt lat="45.06478830225066" lon="7.847407780208302"><ele>325.2</ele><time>2026-04-11T08:56:27Z</time></trkpt><trkpt lat="45.06476585472049" lon="7.847552096942448"><ele>324.6</ele><time>2026-04-11T08:56:30Z</time></trkpt><trkpt lat="45.06471158793585" lon="7.847685536122053"><ele>324.0</ele><time>2026-04-11T08:56:32Z</time></trkpt><trkpt lat="45.06468121711697" lon="7.847792217946444"><ele>326.3333333333333</ele><time>2026-04-11T08:56:34Z</time></trkpt><trkpt lat="45.06464287542838" lon="7.847899851782371"><ele>328.6666666666667</ele><time>2026-04-11T08:56:36Z</time></trkpt><trkpt lat="45.06460884503463" lon="7.847994998208775"><ele>331.0</ele><time>2026-04-11T08:56:38Z</time></trkpt><trkpt lat="45.06457298742828" lon="7.8480801372793145"><ele>333.33333333333337</ele><time>2026-04-11T08:56:40Z</time></trkpt><trkpt lat="45.064523679994984" lon="7.848172309588742"><ele>335.6666666666667</ele><time>2026-04-11T08:56:42Z</time></trkpt><trkpt lat="45.06448813265424" lon="7.848258596595501"><ele>338.0</ele><time>2026-04-11T08:56:44Z</time></trkpt><trkpt lat="45.064447304187574" lon="7.848343536126816"><ele>338.0</ele><time>2026-04-11T08:56:46Z</time></trkpt><trkpt lat="45.064391590539685" lon="7.848453991012093"><ele>338.0</ele><time>2026-04-11T08:56:49Z</time></trkpt><trkpt lat="45.06435354519573" lon="7.848535595958471"><ele>338.0</ele><time>2026-04-11T08:56:51Z</time></trkpt><trkpt lat="45.06430800389904" lon="7.848654977117301"><ele>338.0</ele><time>2026-04-11T08:56:54Z</time></trkpt><trkpt lat="45.06426973407212" lon="7.848776336643593"><ele>338.0</ele><time>2026-04-11T08:56:57Z</time></trkpt><trkpt lat="45.06425100284558" lon="7.848897699773896"><ele>338.0</ele><time>2026-04-11T08:57:00Z</time></trkpt><trkpt lat="45.064238706663645" lon="7.849021525713724"><ele>340.1666666666667</ele><time>2026-04-11T08:57:02.999Z</time></trkpt><trkpt lat="45.06420980179529" lon="7.849131201780879"><ele>342.33333333333337</ele><time>2026-04-11T08:57:04.999Z</time></trkpt><trkpt lat="45.06421475696751" lon="7.849233359532608"><ele>344.5</ele><time>2026-04-11T08:57:07.999Z</time></trkpt><trkpt lat="45.06421626939065" lon="7.849345900003157"><ele>346.6666666666667</ele><time>2026-04-11T08:57:10.999Z</time></trkpt><trkpt lat="45.06424052408381" lon="7.849463201445372"><ele>348.8333333333333</ele><time>2026-04-11T08:57:15.999Z</time></trkpt><trkpt lat="45.06428819203385" lon="7.849526717660306"><ele>351.0</ele><time>2026-04-11T08:57:18.999Z</time></trkpt><trkpt lat="45.06431917335169" lon="7.849618595852791"><ele>351.5714285714286</ele><time>2026-04-11T08:57:21.999Z</time></trkpt><trkpt lat="45.064372197407614" lon="7.849692804612786"><ele>352.14285714285717</ele><time>2026-04-11T08:57:25.999Z</time></trkpt><trkpt lat="45.06438355432168" lon="7.849802561578775"><ele>352.7142857142857</ele><time>2026-04-11T08:57:29.999Z</time></trkpt><trkpt lat="45.064328490254475" lon="7.849848500954167"><ele>353.28571428571433</ele><time>2026-04-11T08:57:33.999Z</time></trkpt><trkpt lat="45.06425396773675" lon="7.8498298202456915"><ele>353.8571428571429</ele><time>2026-04-11T08:57:38.999Z</time></trkpt><trkpt lat="45.06418964669965" lon="7.8497958709218745"><ele>354.42857142857144</ele><time>2026-04-11T08:57:41.999Z</time></trkpt><trkpt lat="45.06412942562122" lon="7.849758197082578"><ele>355.0</ele><time>2026-04-11T08:57:44.999Z</time></trkpt><trkpt lat="45.06406379344876" lon="7.849723754530374"><ele>356.3333333333333</ele><time>2026-04-11T08:57:47.999Z</time></trkpt><trkpt lat="45.06398177013832" lon="7.849683839091223"><ele>357.66666666666663</ele><time>2026-04-11T08:57:50.999Z</time></trkpt><trkpt lat="45.06388833954388" lon="7.849653067822888"><ele>359.0</ele><time>2026-04-11T08:57:53.999Z</time></trkpt><trkpt lat="45.06382542811034" lon="7.849644165160637"><ele>360.3333333333333</ele><time>2026-04-11T08:57:55.999Z</time></trkpt><trkpt lat="45.06373646696495" lon="7.849652839436009"><ele>361.6666666666667</ele><time>2026-04-11T08:57:58.999Z</time></trkpt><trkpt lat="45.063667846302856" lon="7.849667350803197"><ele>363.0</ele><time>2026-04-11T08:58:00.999Z</time></trkpt><trkpt lat="45.06358786166699" lon="7.849693022509558"><ele>363.0</ele><time>2026-04-11T08:58:03.999Z</time></trkpt><trkpt lat="45.063503170503516" lon="7.849720342703459"><ele>363.0</ele><time>2026-04-11T08:58:06.999Z</time></trkpt><trkpt lat="45.06342352760896" lon="7.849746683928887"><ele>363.0</ele><time>2026-04-11T08:58:09.999Z</time></trkpt><trkpt lat="45.06336541197805" lon="7.849787079945304"><ele>363.0</ele><time>2026-04-11T08:58:11.999Z</time></trkpt><trkpt lat="45.063273424946" lon="7.8498367985903625"><ele>363.0</ele><time>2026-04-11T08:58:14.999Z</time></trkpt><trkpt lat="45.06318043474388" lon="7.849914162717346"><ele>363.0</ele><time>2026-04-11T08:58:16.998Z</time></trkpt><trkpt lat="45.063097837286314" lon="7.850017556879603"><ele>363.1666666666667</ele><time>2026-04-11T08:58:19Z</time></trkpt><trkpt lat="45.06306488250721" lon="7.850140172484399"><ele>363.3333333333333</ele><time>2026-04-11T08:58:21Z</time></trkpt><trkpt lat="45.06300312152453" lon="7.850193872613148"><ele>363.5</ele><time>2026-04-11T08:58:23Z</time></trkpt><trkpt lat="45.06297607082032" lon="7.850289995639256"><ele>363.66666666666663</ele><time>2026-04-11T08:58:26Z</time></trkpt><trkpt lat="45.06291565831716" lon="7.850378638443766"><ele>363.8333333333333</ele><time>2026-04-11T08:58:31Z</time></trkpt><trkpt lat="45.06285562252543" lon="7.850430522436166"><ele>364.0</ele><time>2026-04-11T08:58:34Z</time></trkpt><trkpt lat="45.0627923474349" lon="7.850502207137283"><ele>364.0</ele><time>2026-04-11T08:58:37Z</time></trkpt><trkpt lat="45.0627112384756" lon="7.850588079455812"><ele>364.0</ele><time>2026-04-11T08:58:40Z</time></trkpt><trkpt lat="45.06265221108789" lon="7.850644126362811"><ele>364.0</ele><time>2026-04-11T08:58:42Z</time></trkpt><trkpt lat="45.06259449106003" lon="7.850742319532734"><ele>364.0</ele><time>2026-04-11T08:58:44Z</time></trkpt><trkpt lat="45.062564266838635" lon="7.85083042878704"><ele>364.0</ele><time>2026-04-11T08:58:46Z</time></trkpt><trkpt lat="45.06251117917589" lon="7.850923825107076"><ele>364.0</ele><time>2026-04-11T08:58:48Z</time></trkpt><trkpt lat="45.06244025080944" lon="7.851048517020335"><ele>363.8333333333333</ele><time>2026-04-11T08:58:51Z</time></trkpt><trkpt lat="45.06238560802036" lon="7.851134747022742"><ele>363.66666666666663</ele><time>2026-04-11T08:58:53Z</time></trkpt><trkpt lat="45.0623374692187" lon="7.851216720712267"><ele>363.5</ele><time>2026-04-11T08:58:55Z</time></trkpt><trkpt lat="45.062287183963456" lon="7.851282477260603"><ele>363.3333333333333</ele><time>2026-04-11T08:58:57Z</time></trkpt><trkpt lat="45.06222616106154" lon="7.8513369653940535"><ele>363.1666666666667</ele><time>2026-04-11T08:59:00Z</time></trkpt><trkpt lat="45.062172618452166" lon="7.851418905307033"><ele>363.0</ele><time>2026-04-11T08:59:03Z</time></trkpt><trkpt lat="45.0621156646039" lon="7.851499830538896"><ele>363.0</ele><time>2026-04-11T08:59:06Z</time></trkpt><trkpt lat="45.06205372793334" lon="7.851523714653946"><ele>363.0</ele><time>2026-04-11T08:59:07Z</time></trkpt><trkpt lat="45.0619679866873" lon="7.851596620297017"><ele>363.0</ele><time>2026-04-11T08:59:08.999Z</time></trkpt><trkpt lat="45.06189839604119" lon="7.85166347598342"><ele>363.0</ele><time>2026-04-11T08:59:10.999Z</time></trkpt><trkpt lat="45.061824329490975" lon="7.851711680773801"><ele>363.0</ele><time>2026-04-11T08:59:12.999Z</time></trkpt><trkpt lat="45.06175121222658" lon="7.851793299752033"><ele>363.0</ele><time>2026-04-11T08:59:14.999Z</time></trkpt><trkpt lat="45.061667664958314" lon="7.851916728922965"><ele>361.2</ele><time>2026-04-11T08:59:16.999Z</time></trkpt><trkpt lat="45.061614260875565" lon="7.851980396665242"><ele>359.4</ele><time>2026-04-11T08:59:17.999Z</time></trkpt><trkpt lat="45.061526598717215" lon="7.852100107694069"><ele>357.59999999999997</ele><time>2026-04-11T08:59:19.999Z</time></trkpt><trkpt lat="45.061488874901634" lon="7.852185855864866"><ele>355.79999999999995</ele><time>2026-04-11T08:59:20.999Z</time></trkpt><trkpt lat="45.06141071026725" lon="7.852311886290996"><ele>354.0</ele><time>2026-04-11T08:59:22.999Z</time></trkpt><trkpt lat="45.061361652717565" lon="7.852381531936923"><ele>354.0</ele><time>2026-04-11T08:59:23.999Z</time></trkpt><trkpt lat="45.06130867953988" lon="7.852442805400162"><ele>354.0</ele><time>2026-04-11T08:59:24.999Z</time></trkpt><trkpt lat="45.06125674125278" lon="7.852497571403013"><ele>354.0</ele><time>2026-04-11T08:59:25.999Z</time></trkpt><trkpt lat="45.06116657294877" lon="7.852590293780818"><ele>354.0</ele><time>2026-04-11T08:59:27.999Z</time></trkpt><trkpt lat="45.06107043150412" lon="7.852695099185583"><ele>354.0</ele><time>2026-04-11T08:59:29.999Z</time></trkpt><trkpt lat="45.060993831284726" lon="7.852749393647194"><ele>353.2</ele><time>2026-04-11T08:59:30.999Z</time></trkpt><trkpt lat="45.06094567681393" lon="7.852828475176326"><ele>352.4</ele><time>2026-04-11T08:59:31.999Z</time></trkpt><trkpt lat="45.060847104627406" lon="7.852933718450501"><ele>351.6</ele><time>2026-04-11T08:59:33.999Z</time></trkpt><trkpt lat="45.06078729892257" lon="7.852994093461691"><ele>350.8</ele><time>2026-04-11T08:59:34.999Z</time></trkpt><trkpt lat="45.06073150799499" lon="7.853054717793099"><ele>350.0</ele><time>2026-04-11T08:59:35.999Z</time></trkpt><trkpt lat="45.0606437892561" lon="7.8531518660372805"><ele>349.83333333333337</ele><time>2026-04-11T08:59:37.999Z</time></trkpt><trkpt lat="45.06056202123342" lon="7.853242170805862"><ele>349.6666666666667</ele><time>2026-04-11T08:59:39.999Z</time></trkpt><trkpt lat="45.06048071422391" lon="7.853303960229636"><ele>349.5</ele><time>2026-04-11T08:59:41.999Z</time></trkpt><trkpt lat="45.06040777852955" lon="7.853379654601598"><ele>349.3333333333333</ele><time>2026-04-11T08:59:43.999Z</time></trkpt><trkpt lat="45.06033881750177" lon="7.85344988807149"><ele>349.16666666666663</ele><time>2026-04-11T08:59:45.999Z</time></trkpt><trkpt lat="45.060283368402736" lon="7.853517787611159"><ele>349.0</ele><time>2026-04-11T08:59:47.999Z</time></trkpt><trkpt lat="45.060194215866346" lon="7.853522945692908"><ele>348.8333333333333</ele><time>2026-04-11T08:59:49.999Z</time></trkpt><trkpt lat="45.060143189251725" lon="7.85359334743049"><ele>348.66666666666663</ele><time>2026-04-11T08:59:51.999Z</time></trkpt><trkpt lat="45.06006671369245" lon="7.853621072931554"><ele>348.5</ele><time>2026-04-11T08:59:54.999Z</time></trkpt><trkpt lat="45.05998003558844" lon="7.853645893753814"><ele>348.3333333333333</ele><time>2026-04-11T08:59:57.999Z</time></trkpt><trkpt lat="45.059908164882536" lon="7.853663401200621"><ele>348.1666666666667</ele><time>2026-04-11T08:59:59.999Z</time></trkpt><trkpt lat="45.05982074077098" lon="7.85370234974872"><ele>348.0</ele><time>2026-04-11T09:00:01.999Z</time></trkpt><trkpt lat="45.05973364277114" lon="7.853739996610198"><ele>348.0</ele><time>2026-04-11T09:00:03.999Z</time></trkpt><trkpt lat="45.05965707019376" lon="7.853800051192796"><ele>348.0</ele><time>2026-04-11T09:00:05.999Z</time></trkpt><trkpt lat="45.05956215196719" lon="7.8538408896919245"><ele>348.0</ele><time>2026-04-11T09:00:07.999Z</time></trkpt><trkpt lat="45.05946056817179" lon="7.853888173517797"><ele>348.0</ele><time>2026-04-11T09:00:09.999Z</time></trkpt><trkpt lat="45.05938169745469" lon="7.853937369060301"><ele>348.0</ele><time>2026-04-11T09:00:11.999Z</time></trkpt><trkpt lat="45.05924638063295" lon="7.853943213347572"><ele>348.0</ele><time>2026-04-11T09:00:13.999Z</time></trkpt><trkpt lat="45.059161018634704" lon="7.854033343816196"><ele>348.0</ele><time>2026-04-11T09:00:15.999Z</time></trkpt><trkpt lat="45.059072986359396" lon="7.854122742993578"><ele>348.0</ele><time>2026-04-11T09:00:17.999Z</time></trkpt><trkpt lat="45.05901711194039" lon="7.854168806409714"><ele>348.0</ele><time>2026-04-11T09:00:18.999Z</time></trkpt><trkpt lat="45.058909242544395" lon="7.854276230177022"><ele>348.0</ele><time>2026-04-11T09:00:20.998Z</time></trkpt><trkpt lat="45.05882983255786" lon="7.854363315276702"><ele>346.3333333333333</ele><time>2026-04-11T09:00:22.998Z</time></trkpt><trkpt lat="45.058739757934866" lon="7.854469657814392"><ele>344.6666666666667</ele><time>2026-04-11T09:00:25Z</time></trkpt><trkpt lat="45.058685207462176" lon="7.85452716925184"><ele>343.0</ele><time>2026-04-11T09:00:26Z</time></trkpt><trkpt lat="45.05864330273821" lon="7.854594986014233"><ele>341.33333333333337</ele><time>2026-04-11T09:00:27Z</time></trkpt><trkpt lat="45.058579078426696" lon="7.854709884695406"><ele>339.6666666666667</ele><time>2026-04-11T09:00:29Z</time></trkpt><trkpt lat="45.058533222024906" lon="7.85480159621784"><ele>338.0</ele><time>2026-04-11T09:00:30Z</time></trkpt><trkpt lat="45.05850396444449" lon="7.8548845183647495"><ele>338.0</ele><time>2026-04-11T09:00:31Z</time></trkpt><trkpt lat="45.05848422116353" lon="7.8550481668872205"><ele>338.0</ele><time>2026-04-11T09:00:33Z</time></trkpt><trkpt lat="45.0584514258775" lon="7.855194319349617"><ele>338.0</ele><time>2026-04-11T09:00:35Z</time></trkpt><trkpt lat="45.058430409922316" lon="7.855324825232845"><ele>338.0</ele><time>2026-04-11T09:00:37Z</time></trkpt><trkpt lat="45.05839589211682" lon="7.855448525571648"><ele>338.0</ele><time>2026-04-11T09:00:39Z</time></trkpt><trkpt lat="45.058384240656856" lon="7.855541244911338"><ele>338.33333333333337</ele><time>2026-04-11T09:00:41Z</time></trkpt><trkpt lat="45.058343881468566" lon="7.855636823700399"><ele>338.6666666666667</ele><time>2026-04-11T09:00:45Z</time></trkpt><trkpt lat="45.0583130546112" lon="7.855723550919352"><ele>339.0</ele><time>2026-04-11T09:01:50.999Z</time></trkpt><trkpt lat="45.058268959473416" lon="7.855810518281774"><ele>339.3333333333333</ele><time>2026-04-11T09:01:53.999Z</time></trkpt><trkpt lat="45.05821184983856" lon="7.855848668490962"><ele>339.66666666666663</ele><time>2026-04-11T09:01:55.999Z</time></trkpt><trkpt lat="45.05813693415538" lon="7.855918474395986"><ele>340.0</ele><time>2026-04-11T09:01:58.999Z</time></trkpt><trkpt lat="45.05806534665458" lon="7.855974906707413"><ele>338.4</ele><time>2026-04-11T09:02:00.999Z</time></trkpt><trkpt lat="45.05799108465951" lon="7.856024726070806"><ele>336.8</ele><time>2026-04-11T09:02:02.999Z</time></trkpt><trkpt lat="45.05791042312492" lon="7.8560722633592475"><ele>335.20000000000005</ele><time>2026-04-11T09:02:04.999Z</time></trkpt><trkpt lat="45.05782342162704" lon="7.856120917793415"><ele>333.6</ele><time>2026-04-11T09:02:06.999Z</time></trkpt><trkpt lat="45.057735426857946" lon="7.856169745042389"><ele>332.0</ele><time>2026-04-11T09:02:08.999Z</time></trkpt><trkpt lat="45.05764355791131" lon="7.856219893607588"><ele>332.0</ele><time>2026-04-11T09:02:10.999Z</time></trkpt><trkpt lat="45.05754576494703" lon="7.856273251529411"><ele>332.0</ele><time>2026-04-11T09:02:12.999Z</time></trkpt><trkpt lat="45.057448521174145" lon="7.856348600895532"><ele>332.0</ele><time>2026-04-11T09:02:14.999Z</time></trkpt><trkpt lat="45.05733362190004" lon="7.856417589997357"><ele>332.0</ele><time>2026-04-11T09:02:16.999Z</time></trkpt><trkpt lat="45.057271956857804" lon="7.856444137299541"><ele>332.0</ele><time>2026-04-11T09:02:17.999Z</time></trkpt><trkpt lat="45.05721143332752" lon="7.856481725252939"><ele>332.20000000000005</ele><time>2026-04-11T09:02:18.999Z</time></trkpt><trkpt lat="45.05710885902594" lon="7.856546056952098"><ele>332.4</ele><time>2026-04-11T09:02:20.999Z</time></trkpt><trkpt lat="45.057042604984204" lon="7.856592499898737"><ele>332.6</ele><time>2026-04-11T09:02:21.999Z</time></trkpt><trkpt lat="45.056942802348736" lon="7.856648422324579"><ele>332.79999999999995</ele><time>2026-04-11T09:02:23.999Z</time></trkpt><trkpt lat="45.05684901056356" lon="7.856705968492681"><ele>333.0</ele><time>2026-04-11T09:02:25.999Z</time></trkpt><trkpt lat="45.0567647800144" lon="7.856755638946516"><ele>333.0</ele><time>2026-04-11T09:02:27.999Z</time></trkpt><trkpt lat="45.05668791575252" lon="7.856803395178551"><ele>333.0</ele><time>2026-04-11T09:02:29.999Z</time></trkpt><trkpt lat="45.056601247470844" lon="7.856840861347675"><ele>333.0</ele><time>2026-04-11T09:02:32Z</time></trkpt><trkpt lat="45.056521660574965" lon="7.856898798518198"><ele>333.0</ele><time>2026-04-11T09:02:34Z</time></trkpt><trkpt lat="45.05644431340174" lon="7.85696524951207"><ele>333.0</ele><time>2026-04-11T09:02:36Z</time></trkpt><trkpt lat="45.056374900764" lon="7.85706530360274"><ele>333.0</ele><time>2026-04-11T09:02:38Z</time></trkpt><trkpt lat="45.0563086416843" lon="7.857149337647731"><ele>333.0</ele><time>2026-04-11T09:02:40Z</time></trkpt><trkpt lat="45.05623874392513" lon="7.857208904589285"><ele>333.0</ele><time>2026-04-11T09:02:42Z</time></trkpt><trkpt lat="45.056190559033716" lon="7.857267844246676"><ele>333.0</ele><time>2026-04-11T09:02:44Z</time></trkpt><trkpt lat="45.05613131677267" lon="7.8573360369460925"><ele>333.0</ele><time>2026-04-11T09:02:46Z</time></trkpt><trkpt lat="45.05606702558262" lon="7.857398842275095"><ele>333.0</ele><time>2026-04-11T09:02:48Z</time></trkpt><trkpt lat="45.05600859097901" lon="7.85744354892141"><ele>333.0</ele><time>2026-04-11T09:02:50Z</time></trkpt><trkpt lat="45.055935934755325" lon="7.8574921590316755"><ele>333.0</ele><time>2026-04-11T09:02:52Z</time></trkpt><trkpt lat="45.05587162521539" lon="7.857554714836398"><ele>333.0</ele><time>2026-04-11T09:02:54Z</time></trkpt><trkpt lat="45.05579988603226" lon="7.857602172778524"><ele>333.0</ele><time>2026-04-11T09:02:56Z</time></trkpt><trkpt lat="45.055726906753335" lon="7.857652152143968"><ele>333.0</ele><time>2026-04-11T09:02:58Z</time></trkpt><trkpt lat="45.05564780716052" lon="7.857706455296751"><ele>333.0</ele><time>2026-04-11T09:03:00Z</time></trkpt><trkpt lat="45.05557948777824" lon="7.857755420755044"><ele>334.1666666666667</ele><time>2026-04-11T09:03:02Z</time></trkpt><trkpt lat="45.05550186013947" lon="7.857796563667494"><ele>335.3333333333333</ele><time>2026-04-11T09:03:04Z</time></trkpt><trkpt lat="45.05543150281789" lon="7.857851985782287"><ele>336.5</ele><time>2026-04-11T09:03:06Z</time></trkpt><trkpt lat="45.05534508878517" lon="7.857921286440949"><ele>337.66666666666663</ele><time>2026-04-11T09:03:08Z</time></trkpt><trkpt lat="45.05527012796059" lon="7.857981534626527"><ele>338.8333333333333</ele><time>2026-04-11T09:03:10Z</time></trkpt><trkpt lat="45.05519775913983" lon="7.858013192046236"><ele>340.0</ele><time>2026-04-11T09:03:13Z</time></trkpt><trkpt lat="45.05510334925119" lon="7.857991856899867"><ele>340.0</ele><time>2026-04-11T09:03:15Z</time></trkpt><trkpt lat="45.05502091305463" lon="7.858003077654986"><ele>340.0</ele><time>2026-04-11T09:03:18Z</time></trkpt><trkpt lat="45.05493314085376" lon="7.857992264199204"><ele>340.0</ele><time>2026-04-11T09:03:21Z</time></trkpt><trkpt lat="45.05486111213385" lon="7.857985567807409"><ele>340.0</ele><time>2026-04-11T09:03:23.999Z</time></trkpt><trkpt lat="45.05478718633509" lon="7.857971140895779"><ele>340.0</ele><time>2026-04-11T09:03:25.999Z</time></trkpt><trkpt lat="45.05469176612261" lon="7.857987326855285"><ele>340.0</ele><time>2026-04-11T09:03:28.999Z</time></trkpt><trkpt lat="45.0545654687524" lon="7.858006826259488"><ele>340.7142857142857</ele><time>2026-04-11T09:03:31.999Z</time></trkpt><trkpt lat="45.054547915438704" lon="7.858136519293883"><ele>341.4285714285714</ele><time>2026-04-11T09:03:34.999Z</time></trkpt><trkpt lat="45.054532560398854" lon="7.858228113426294"><ele>342.1428571428571</ele><time>2026-04-11T09:03:36.999Z</time></trkpt><trkpt lat="45.05453390632139" lon="7.858335797688713"><ele>342.8571428571429</ele><time>2026-04-11T09:03:38.999Z</time></trkpt><trkpt lat="45.05452172628965" lon="7.858431838530271"><ele>343.57142857142856</ele><time>2026-04-11T09:03:40.999Z</time></trkpt><trkpt lat="45.05449412124879" lon="7.8585213655512876"><ele>344.2857142857143</ele><time>2026-04-11T09:03:42.999Z</time></trkpt><trkpt lat="45.05448038762745" lon="7.858614794298289"><ele>345.0</ele><time>2026-04-11T09:03:44.999Z</time></trkpt><trkpt lat="45.054425691249776" lon="7.858694787023349"><ele>345.0</ele><time>2026-04-11T09:03:46.999Z</time></trkpt><trkpt lat="45.05436543443086" lon="7.858776642277892"><ele>345.0</ele><time>2026-04-11T09:03:49.999Z</time></trkpt><trkpt lat="45.05427816586226" lon="7.858808452559524"><ele>345.0</ele><time>2026-04-11T09:03:51.999Z</time></trkpt><trkpt lat="45.05418949716291" lon="7.858815414150179"><ele>345.0</ele><time>2026-04-11T09:03:53.999Z</time></trkpt><trkpt lat="45.05411765133848" lon="7.85884224865085"><ele>345.0</ele><time>2026-04-11T09:03:55.999Z</time></trkpt><trkpt lat="45.05403985400228" lon="7.858882939554861"><ele>345.0</ele><time>2026-04-11T09:03:57.999Z</time></trkpt><trkpt lat="45.05397046902951" lon="7.858906519641812"><ele>346.14285714285717</ele><time>2026-04-11T09:03:59.999Z</time></trkpt><trkpt lat="45.05390054849872" lon="7.858932756072695"><ele>347.2857142857143</ele><time>2026-04-11T09:04:01.999Z</time></trkpt><trkpt lat="45.05383709791636" lon="7.858968585822535"><ele>348.42857142857144</ele><time>2026-04-11T09:04:04.999Z</time></trkpt><trkpt lat="45.05377810802908" lon="7.859023511887477"><ele>349.57142857142856</ele><time>2026-04-11T09:04:06.999Z</time></trkpt><trkpt lat="45.053718658138116" lon="7.859094289048444"><ele>350.7142857142857</ele><time>2026-04-11T09:04:09.999Z</time></trkpt><trkpt lat="45.05366207682776" lon="7.859135651348438"><ele>351.85714285714283</ele><time>2026-04-11T09:04:11.999Z</time></trkpt><trkpt lat="45.053604000254445" lon="7.859207076990171"><ele>353.0</ele><time>2026-04-11T09:04:13.999Z</time></trkpt><trkpt lat="45.05355020095556" lon="7.859259894437849"><ele>353.0</ele><time>2026-04-11T09:04:14.999Z</time></trkpt><trkpt lat="45.05345927200633" lon="7.8593488527599815"><ele>353.0</ele><time>2026-04-11T09:04:16.999Z</time></trkpt><trkpt lat="45.05336215214964" lon="7.85941808399269"><ele>353.0</ele><time>2026-04-11T09:04:18.999Z</time></trkpt><trkpt lat="45.05331216400392" lon="7.8594866922743005"><ele>353.0</ele><time>2026-04-11T09:04:19.999Z</time></trkpt><trkpt lat="45.053231446356754" lon="7.859534360674684"><ele>353.0</ele><time>2026-04-11T09:04:21.999Z</time></trkpt><trkpt lat="45.05314119644261" lon="7.859628573766017"><ele>353.0</ele><time>2026-04-11T09:04:23.999Z</time></trkpt><trkpt lat="45.05306553844545" lon="7.859678455340654"><ele>353.0</ele><time>2026-04-11T09:04:25.999Z</time></trkpt><trkpt lat="45.05301659565186" lon="7.8597413996951655"><ele>353.0</ele><time>2026-04-11T09:04:28.999Z</time></trkpt><trkpt lat="45.05295007518636" lon="7.859774953526092"><ele>353.0</ele><time>2026-04-11T09:04:30.999Z</time></trkpt><trkpt lat="45.0528003354545" lon="7.8596328715649495"><ele>353.0</ele><time>2026-04-11T09:04:33.999Z</time></trkpt><trkpt lat="45.0527282320421" lon="7.8596138921567"><ele>353.0</ele><time>2026-04-11T09:04:37Z</time></trkpt><trkpt lat="45.05264198220833" lon="7.8596575362138275"><ele>353.0</ele><time>2026-04-11T09:04:39Z</time></trkpt><trkpt lat="45.05258066505727" lon="7.859704040149804"><ele>353.0</ele><time>2026-04-11T09:04:41Z</time></trkpt><trkpt lat="45.05252445791671" lon="7.859802861257792"><ele>353.0</ele><time>2026-04-11T09:04:44Z</time></trkpt><trkpt lat="45.05245745564169" lon="7.859913054385585"><ele>353.0</ele><time>2026-04-11T09:05:16Z</time></trkpt><trkpt lat="45.052437894637876" lon="7.860002062719671"><ele>353.0</ele><time>2026-04-11T09:05:19Z</time></trkpt><trkpt lat="45.052384293125755" lon="7.860066387640592"><ele>353.83333333333337</ele><time>2026-04-11T09:05:27Z</time></trkpt><trkpt lat="45.05234208257252" lon="7.860158212686694"><ele>354.6666666666667</ele><time>2026-04-11T09:05:31.999Z</time></trkpt><trkpt lat="45.052297733558824" lon="7.860269877432972"><ele>355.5</ele><time>2026-04-11T09:05:34.999Z</time></trkpt><trkpt lat="45.05225583352454" lon="7.8603692268157275"><ele>356.3333333333333</ele><time>2026-04-11T09:05:37.999Z</time></trkpt><trkpt lat="45.052233173470384" lon="7.86046965388883"><ele>357.16666666666663</ele><time>2026-04-11T09:05:40.999Z</time></trkpt><trkpt lat="45.0522032743656" lon="7.86058082940751"><ele>358.0</ele><time>2026-04-11T09:05:43.999Z</time></trkpt><trkpt lat="45.05219379844993" lon="7.860670769091579"><ele>358.0</ele><time>2026-04-11T09:05:45.999Z</time></trkpt><trkpt lat="45.05218557995952" lon="7.860775160988989"><ele>358.0</ele><time>2026-04-11T09:05:47.999Z</time></trkpt><trkpt lat="45.05218172008372" lon="7.860884940722527"><ele>358.0</ele><time>2026-04-11T09:05:49.999Z</time></trkpt><trkpt lat="45.052179112328886" lon="7.86098747345386"><ele>358.0</ele><time>2026-04-11T09:05:51.999Z</time></trkpt><trkpt lat="45.05218284405017" lon="7.861111346201352"><ele>358.0</ele><time>2026-04-11T09:05:54.999Z</time></trkpt><trkpt lat="45.05212323948169" lon="7.861203636168909"><ele>358.0</ele><time>2026-04-11T09:05:56.999Z</time></trkpt><trkpt lat="45.05205667515746" lon="7.861277531435845"><ele>357.5</ele><time>2026-04-11T09:05:59.999Z</time></trkpt><trkpt lat="45.05200425217796" lon="7.8613513609249175"><ele>357.0</ele><time>2026-04-11T09:06:01.999Z</time></trkpt><trkpt lat="45.051944669950686" lon="7.861447085206599"><ele>356.5</ele><time>2026-04-11T09:06:04.999Z</time></trkpt><trkpt lat="45.05188757771256" lon="7.861539719605969"><ele>356.0</ele><time>2026-04-11T09:06:07.999Z</time></trkpt><trkpt lat="45.05183419579392" lon="7.861613014342896"><ele>355.5</ele><time>2026-04-11T09:06:09.999Z</time></trkpt><trkpt lat="45.05177949322801" lon="7.861659038841507"><ele>355.0</ele><time>2026-04-11T09:06:11.999Z</time></trkpt><trkpt lat="45.051708152170946" lon="7.861668328864222"><ele>355.0</ele><time>2026-04-11T09:06:15.999Z</time></trkpt><trkpt lat="45.05162929477185" lon="7.861666800074399"><ele>355.0</ele><time>2026-04-11T09:06:17.999Z</time></trkpt><trkpt lat="45.05154530430492" lon="7.861687266589493"><ele>355.0</ele><time>2026-04-11T09:06:20.999Z</time></trkpt><trkpt lat="45.05147134048111" lon="7.861691003640629"><ele>355.0</ele><time>2026-04-11T09:06:22.999Z</time></trkpt><trkpt lat="45.05138855144412" lon="7.861710267293493"><ele>355.0</ele><time>2026-04-11T09:06:24.999Z</time></trkpt><trkpt lat="45.05130159776499" lon="7.861688224867382"><ele>355.0</ele><time>2026-04-11T09:06:26.999Z</time></trkpt><trkpt lat="45.05122756309097" lon="7.861660341663281"><ele>353.6</ele><time>2026-04-11T09:06:28.999Z</time></trkpt><trkpt lat="45.05112746886946" lon="7.861627261383019"><ele>352.2</ele><time>2026-04-11T09:06:30.999Z</time></trkpt><trkpt lat="45.051028751566456" lon="7.861608611284032"><ele>350.79999999999995</ele><time>2026-04-11T09:06:32.999Z</time></trkpt><trkpt lat="45.05094693732958" lon="7.86158231967524"><ele>349.4</ele><time>2026-04-11T09:06:34.999Z</time></trkpt><trkpt lat="45.05084112905579" lon="7.861527692462597"><ele>348.0</ele><time>2026-04-11T09:06:37.999Z</time></trkpt><trkpt lat="45.05073247051506" lon="7.861477127426573"><ele>346.79999999999995</ele><time>2026-04-11T09:06:39.999Z</time></trkpt><trkpt lat="45.05061570906961" lon="7.861425274929641"><ele>345.6</ele><time>2026-04-11T09:06:41.999Z</time></trkpt><trkpt lat="45.05052898963658" lon="7.861365361355036"><ele>344.4</ele><time>2026-04-11T09:06:44Z</time></trkpt><trkpt lat="45.05042325462314" lon="7.861295359465572"><ele>343.20000000000005</ele><time>2026-04-11T09:06:46Z</time></trkpt><trkpt lat="45.05033932424953" lon="7.861235197319296"><ele>342.0</ele><time>2026-04-11T09:06:48Z</time></trkpt><trkpt lat="45.05025027142128" lon="7.861205563758318"><ele>342.0</ele><time>2026-04-11T09:06:50Z</time></trkpt><trkpt lat="45.05013673610467" lon="7.861190717160087"><ele>342.0</ele><time>2026-04-11T09:06:52Z</time></trkpt><trkpt lat="45.05006859687738" lon="7.861201518464414"><ele>342.0</ele><time>2026-04-11T09:06:53Z</time></trkpt><trkpt lat="45.05000723996923" lon="7.86122676677193"><ele>342.0</ele><time>2026-04-11T09:06:54Z</time></trkpt><trkpt lat="45.04990995362301" lon="7.861321960691753"><ele>342.0</ele><time>2026-04-11T09:06:56Z</time></trkpt><trkpt lat="45.04985833578343" lon="7.861377965687337"><ele>342.0</ele><time>2026-04-11T09:06:57Z</time></trkpt><trkpt lat="45.04976213482969" lon="7.8614889489049995"><ele>342.25</ele><time>2026-04-11T09:06:59Z</time></trkpt><trkpt lat="45.04966146968787" lon="7.861588672489956"><ele>342.5</ele><time>2026-04-11T09:07:01Z</time></trkpt><trkpt lat="45.04955626018183" lon="7.861666873333614"><ele>342.75</ele><time>2026-04-11T09:07:03Z</time></trkpt><trkpt lat="45.0494520080495" lon="7.861745082147214"><ele>343.0</ele><time>2026-04-11T09:07:05Z</time></trkpt><trkpt lat="45.04935606042514" lon="7.861818647894333"><ele>342.3333333333333</ele><time>2026-04-11T09:07:07Z</time></trkpt><trkpt lat="45.04927192930334" lon="7.86189305517403"><ele>341.66666666666663</ele><time>2026-04-11T09:07:09Z</time></trkpt><trkpt lat="45.049190006530196" lon="7.861959630918575"><ele>341.0</ele><time>2026-04-11T09:07:11Z</time></trkpt><trkpt lat="45.04912791049646" lon="7.861994200558136"><ele>340.3333333333333</ele><time>2026-04-11T09:07:13Z</time></trkpt><trkpt lat="45.04905658656282" lon="7.8620874196002895"><ele>339.6666666666667</ele><time>2026-04-11T09:07:15Z</time></trkpt><trkpt lat="45.04899979419285" lon="7.862155032955259"><ele>339.0</ele><time>2026-04-11T09:07:17Z</time></trkpt><trkpt lat="45.04894951831675" lon="7.862216666036233"><ele>339.0</ele><time>2026-04-11T09:07:19Z</time></trkpt><trkpt lat="45.048882347164096" lon="7.862285268826887"><ele>339.0</ele><time>2026-04-11T09:07:21Z</time></trkpt><trkpt lat="45.04881991700164" lon="7.8623506363934"><ele>339.0</ele><time>2026-04-11T09:07:23Z</time></trkpt><trkpt lat="45.04874223660807" lon="7.862420474401744"><ele>339.0</ele><time>2026-04-11T09:07:25Z</time></trkpt><trkpt lat="45.04864913603932" lon="7.862468047429245"><ele>339.0</ele><time>2026-04-11T09:07:27Z</time></trkpt><trkpt lat="45.04856420156952" lon="7.86251097472338"><ele>339.0</ele><time>2026-04-11T09:07:29Z</time></trkpt><trkpt lat="45.04847543842997" lon="7.862556555956522"><ele>339.0</ele><time>2026-04-11T09:07:31Z</time></trkpt><trkpt lat="45.04839032060486" lon="7.8626083947253536"><ele>339.0</ele><time>2026-04-11T09:07:32.999Z</time></trkpt><trkpt lat="45.04829449192584" lon="7.862652950380556"><ele>339.0</ele><time>2026-04-11T09:07:34.999Z</time></trkpt><trkpt lat="45.048194107560974" lon="7.862702658634316"><ele>339.0</ele><time>2026-04-11T09:07:36.999Z</time></trkpt><trkpt lat="45.048104362131255" lon="7.862755941267359"><ele>339.0</ele><time>2026-04-11T09:07:38.999Z</time></trkpt><trkpt lat="45.04800919737952" lon="7.86281412559354"><ele>338.0</ele><time>2026-04-11T09:07:40.999Z</time></trkpt><trkpt lat="45.04791112036896" lon="7.8628693627898985"><ele>337.0</ele><time>2026-04-11T09:07:42.999Z</time></trkpt><trkpt lat="45.04780115800822" lon="7.862936854975175"><ele>336.0</ele><time>2026-04-11T09:07:44.999Z</time></trkpt><trkpt lat="45.04770165248999" lon="7.863009755524151"><ele>335.0</ele><time>2026-04-11T09:07:46.999Z</time></trkpt><trkpt lat="45.04760769261573" lon="7.8630850708700954"><ele>334.0</ele><time>2026-04-11T09:07:48.999Z</time></trkpt><trkpt lat="45.047534326100084" lon="7.863180705592682"><ele>334.0</ele><time>2026-04-11T09:07:50.999Z</time></trkpt><trkpt lat="45.04748085533689" lon="7.86324941520364"><ele>334.0</ele><time>2026-04-11T09:07:52.999Z</time></trkpt><trkpt lat="45.04743406214431" lon="7.863323771114415"><ele>334.0</ele><time>2026-04-11T09:07:54.999Z</time></trkpt><trkpt lat="45.04737570052478" lon="7.863408533118617"><ele>334.0</ele><time>2026-04-11T09:07:56.999Z</time></trkpt><trkpt lat="45.04731768421976" lon="7.863507826596236"><ele>334.0</ele><time>2026-04-11T09:07:59.999Z</time></trkpt><trkpt lat="45.04727607546264" lon="7.863601233425019"><ele>334.0</ele><time>2026-04-11T09:08:01.999Z</time></trkpt><trkpt lat="45.047241703097185" lon="7.863685214677619"><ele>334.2857142857143</ele><time>2026-04-11T09:08:03.999Z</time></trkpt><trkpt lat="45.04721881308098" lon="7.86376853161723"><ele>334.57142857142856</ele><time>2026-04-11T09:08:05.999Z</time></trkpt><trkpt lat="45.047189701328165" lon="7.863858312300949"><ele>334.8571428571429</ele><time>2026-04-11T09:08:07.999Z</time></trkpt><trkpt lat="45.047162880583706" lon="7.863943421704717"><ele>335.1428571428571</ele><time>2026-04-11T09:08:09.999Z</time></trkpt><trkpt lat="45.04712894785822" lon="7.864036685177789"><ele>335.42857142857144</ele><time>2026-04-11T09:08:11.999Z</time></trkpt><trkpt lat="45.047096688721375" lon="7.8641140838567924"><ele>335.7142857142857</ele><time>2026-04-11T09:08:13.999Z</time></trkpt><trkpt lat="45.047060095072595" lon="7.864196606548188"><ele>336.0</ele><time>2026-04-11T09:08:15.999Z</time></trkpt><trkpt lat="45.04700359030291" lon="7.864297386244583"><ele>336.5</ele><time>2026-04-11T09:08:18.999Z</time></trkpt><trkpt lat="45.046957903590155" lon="7.864402430266556"><ele>337.0</ele><time>2026-04-11T09:08:20.999Z</time></trkpt><trkpt lat="45.046908650410955" lon="7.864473738002296"><ele>337.5</ele><time>2026-04-11T09:08:23.999Z</time></trkpt><trkpt lat="45.04684992097961" lon="7.86459801562109"><ele>338.0</ele><time>2026-04-11T09:08:26.999Z</time></trkpt><trkpt lat="45.04681999019692" lon="7.864691497398477"><ele>338.5</ele><time>2026-04-11T09:08:29.999Z</time></trkpt><trkpt lat="45.04676548173466" lon="7.864780207027588"><ele>339.0</ele><time>2026-04-11T09:08:31.999Z</time></trkpt><trkpt lat="45.0467246467279" lon="7.864876477258902"><ele>339.0</ele><time>2026-04-11T09:08:33.999Z</time></trkpt><trkpt lat="45.04666003527032" lon="7.864939640177638"><ele>339.0</ele><time>2026-04-11T09:08:36.999Z</time></trkpt><trkpt lat="45.04661005606616" lon="7.86500329766742"><ele>339.0</ele><time>2026-04-11T09:08:38.999Z</time></trkpt><trkpt lat="45.04656384591402" lon="7.865076459920823"><ele>339.0</ele><time>2026-04-11T09:08:40.999Z</time></trkpt><trkpt lat="45.04649786349907" lon="7.865158113676522"><ele>339.0</ele><time>2026-04-11T09:08:43.999Z</time></trkpt><trkpt lat="45.04645208956283" lon="7.865223136068642"><ele>339.0</ele><time>2026-04-11T09:08:45.999Z</time></trkpt><trkpt lat="45.046402141032075" lon="7.86528260882038"><ele>339.0</ele><time>2026-04-11T09:08:47.998Z</time></trkpt><trkpt lat="45.0463337129056" lon="7.865346385941463"><ele>339.6666666666667</ele><time>2026-04-11T09:08:51Z</time></trkpt><trkpt lat="45.04626390889881" lon="7.865410291644207"><ele>340.3333333333333</ele><time>2026-04-11T09:08:54Z</time></trkpt><trkpt lat="45.04619533823656" lon="7.865466227021107"><ele>341.0</ele><time>2026-04-11T09:08:57Z</time></trkpt><trkpt lat="45.046137619317435" lon="7.865533819886534"><ele>341.66666666666663</ele><time>2026-04-11T09:09:00Z</time></trkpt><trkpt lat="45.04608550428102" lon="7.865615856918166"><ele>342.3333333333333</ele><time>2026-04-11T09:09:03Z</time></trkpt><trkpt lat="45.046038163131065" lon="7.865710163359145"><ele>343.0</ele><time>2026-04-11T09:09:06Z</time></trkpt><trkpt lat="45.04597399597877" lon="7.865790743659874"><ele>343.0</ele><time>2026-04-11T09:09:08Z</time></trkpt><trkpt lat="45.04592097269103" lon="7.865860439472847"><ele>343.0</ele><time>2026-04-11T09:09:10Z</time></trkpt><trkpt lat="45.045852921052926" lon="7.865931290416397"><ele>343.0</ele><time>2026-04-11T09:09:13Z</time></trkpt><trkpt lat="45.04578840729649" lon="7.865981035768608"><ele>343.0</ele><time>2026-04-11T09:09:16Z</time></trkpt><trkpt lat="45.04572048374852" lon="7.86601932437063"><ele>343.0</ele><time>2026-04-11T09:09:18Z</time></trkpt><trkpt lat="45.045638454453425" lon="7.866061371008293"><ele>343.0</ele><time>2026-04-11T09:09:22Z</time></trkpt><trkpt lat="45.04554845224161" lon="7.866071462982029"><ele>343.16666666666663</ele><time>2026-04-11T09:09:25Z</time></trkpt><trkpt lat="45.04547546860713" lon="7.866075622515269"><ele>343.3333333333333</ele><time>2026-04-11T09:09:28Z</time></trkpt><trkpt lat="45.045409099824184" lon="7.866047039677483"><ele>343.5</ele><time>2026-04-11T09:09:32Z</time></trkpt><trkpt lat="45.04534802012537" lon="7.866006245152037"><ele>343.6666666666667</ele><time>2026-04-11T09:09:36Z</time></trkpt><trkpt lat="45.045286142836844" lon="7.8659876686360235"><ele>343.83333333333337</ele><time>2026-04-11T09:09:38.999Z</time></trkpt><trkpt lat="45.0452200071716" lon="7.86594811137689"><ele>344.0</ele><time>2026-04-11T09:09:41.999Z</time></trkpt><trkpt lat="45.045137243814025" lon="7.865855095960271"><ele>344.0</ele><time>2026-04-11T09:09:44.999Z</time></trkpt><trkpt lat="45.045053256005005" lon="7.86581111950181"><ele>344.0</ele><time>2026-04-11T09:09:47.999Z</time></trkpt><trkpt lat="45.044995274223744" lon="7.8657648477189515"><ele>344.0</ele><time>2026-04-11T09:09:49.999Z</time></trkpt><trkpt lat="45.0449257167195" lon="7.865675386520055"><ele>344.0</ele><time>2026-04-11T09:09:51.999Z</time></trkpt><trkpt lat="45.04485754064686" lon="7.865674232705651"><ele>344.0</ele><time>2026-04-11T09:09:54.999Z</time></trkpt><trkpt lat="45.044795651746206" lon="7.865697064030608"><ele>344.0</ele><time>2026-04-11T09:09:56.999Z</time></trkpt><trkpt lat="45.04472587244777" lon="7.8656947393953205"><ele>341.6</ele><time>2026-04-11T09:09:58.999Z</time></trkpt><trkpt lat="45.04463476100957" lon="7.865661388259099"><ele>339.2</ele><time>2026-04-11T09:10:01.999Z</time></trkpt><trkpt lat="45.04454302843552" lon="7.865625606178197"><ele>336.8</ele><time>2026-04-11T09:10:03.999Z</time></trkpt><trkpt lat="45.044448318247355" lon="7.865587240760514"><ele>334.40000000000003</ele><time>2026-04-11T09:10:05.999Z</time></trkpt><trkpt lat="45.04434504652487" lon="7.8655454072199"><ele>332.0</ele><time>2026-04-11T09:10:07.999Z</time></trkpt><trkpt lat="45.04424263598159" lon="7.865504598959621"><ele>332.0</ele><time>2026-04-11T09:10:09.999Z</time></trkpt><trkpt lat="45.04413804813282" lon="7.865474296979594"><ele>332.0</ele><time>2026-04-11T09:10:11.999Z</time></trkpt><trkpt lat="45.044074568206234" lon="7.865472867374332"><ele>332.0</ele><time>2026-04-11T09:10:12.999Z</time></trkpt><trkpt lat="45.04401008394501" lon="7.865496345153201"><ele>332.0</ele><time>2026-04-11T09:10:13.999Z</time></trkpt><trkpt lat="45.043898491746106" lon="7.86556675814376"><ele>332.0</ele><time>2026-04-11T09:10:15.999Z</time></trkpt><trkpt lat="45.04380437077998" lon="7.865666311471568"><ele>330.20000000000005</ele><time>2026-04-11T09:10:17.999Z</time></trkpt><trkpt lat="45.04371685817583" lon="7.865781635786238"><ele>328.4</ele><time>2026-04-11T09:10:19.999Z</time></trkpt><trkpt lat="45.04362650890417" lon="7.865901125615125"><ele>326.6</ele><time>2026-04-11T09:10:21.999Z</time></trkpt><trkpt lat="45.04357332478159" lon="7.86596776769188"><ele>324.79999999999995</ele><time>2026-04-11T09:10:22.999Z</time></trkpt><trkpt lat="45.04351370696299" lon="7.8660366853672095"><ele>323.0</ele><time>2026-04-11T09:10:23.999Z</time></trkpt><trkpt lat="45.04345622281548" lon="7.866098386602253"><ele>322.83333333333337</ele><time>2026-04-11T09:10:24.999Z</time></trkpt><trkpt lat="45.04339511273235" lon="7.866160230420406"><ele>322.6666666666667</ele><time>2026-04-11T09:10:25.999Z</time></trkpt><trkpt lat="45.0433365730402" lon="7.866217038412088"><ele>322.5</ele><time>2026-04-11T09:10:26.999Z</time></trkpt><trkpt lat="45.04327274447104" lon="7.866267967888242"><ele>322.3333333333333</ele><time>2026-04-11T09:10:27.999Z</time></trkpt><trkpt lat="45.043202503134246" lon="7.866307600872971"><ele>322.16666666666663</ele><time>2026-04-11T09:10:28.999Z</time></trkpt><trkpt lat="45.04312177316" lon="7.866342129247632"><ele>322.0</ele><time>2026-04-11T09:10:29.999Z</time></trkpt><trkpt lat="45.04303650829591" lon="7.866372726019171"><ele>320.85714285714283</ele><time>2026-04-11T09:10:30.999Z</time></trkpt><trkpt lat="45.04297280626344" lon="7.86641816626258"><ele>319.7142857142857</ele><time>2026-04-11T09:10:31.999Z</time></trkpt><trkpt lat="45.04289658596432" lon="7.8664465054065245"><ele>318.57142857142856</ele><time>2026-04-11T09:10:32.999Z</time></trkpt><trkpt lat="45.04281388035251" lon="7.866488024351302"><ele>317.42857142857144</ele><time>2026-04-11T09:10:33.999Z</time></trkpt><trkpt lat="45.04274419406639" lon="7.866519728375933"><ele>316.2857142857143</ele><time>2026-04-11T09:10:34.999Z</time></trkpt><trkpt lat="45.042675032265166" lon="7.866537473166747"><ele>315.1428571428571</ele><time>2026-04-11T09:10:35.999Z</time></trkpt><trkpt lat="45.04260977840311" lon="7.8665633468120655"><ele>314.0</ele><time>2026-04-11T09:10:36.999Z</time></trkpt><trkpt lat="45.04254010281562" lon="7.866520889428906"><ele>314.0</ele><time>2026-04-11T09:10:37.999Z</time></trkpt><trkpt lat="45.04248761426553" lon="7.866461225411565"><ele>314.0</ele><time>2026-04-11T09:10:38.999Z</time></trkpt><trkpt lat="45.04243532593059" lon="7.866404121516692"><ele>314.0</ele><time>2026-04-11T09:10:39.999Z</time></trkpt><trkpt lat="45.04238207823836" lon="7.866346000481293"><ele>314.0</ele><time>2026-04-11T09:10:40.999Z</time></trkpt><trkpt lat="45.04232789048677" lon="7.866286853348426"><ele>314.0</ele><time>2026-04-11T09:10:41.999Z</time></trkpt><trkpt lat="45.042248256867246" lon="7.866199931480191"><ele>314.0</ele><time>2026-04-11T09:10:43.999Z</time></trkpt><trkpt lat="45.04216418580251" lon="7.866126611723778"><ele>313.83333333333337</ele><time>2026-04-11T09:10:45.999Z</time></trkpt><trkpt lat="45.04208489728227" lon="7.866052364671039"><ele>313.6666666666667</ele><time>2026-04-11T09:10:47.999Z</time></trkpt><trkpt lat="45.04200936959587" lon="7.865981639316133"><ele>313.5</ele><time>2026-04-11T09:10:49.999Z</time></trkpt><trkpt lat="45.041938422288986" lon="7.8659282629475396"><ele>313.3333333333333</ele><time>2026-04-11T09:10:51.999Z</time></trkpt><trkpt lat="45.04187380875502" lon="7.865868326937683"><ele>313.16666666666663</ele><time>2026-04-11T09:10:53.999Z</time></trkpt><trkpt lat="45.04182072527725" lon="7.865796978909095"><ele>313.0</ele><time>2026-04-11T09:10:56Z</time></trkpt><trkpt lat="45.04175722329346" lon="7.865703055278668"><ele>313.0</ele><time>2026-04-11T09:10:58Z</time></trkpt><trkpt lat="45.04166412687101" lon="7.865680074048712"><ele>313.0</ele><time>2026-04-11T09:11:00Z</time></trkpt><trkpt lat="45.04156425703381" lon="7.865631636036036"><ele>313.0</ele><time>2026-04-11T09:11:02Z</time></trkpt><trkpt lat="45.04144778623496" lon="7.86558683671431"><ele>313.0</ele><time>2026-04-11T09:11:04Z</time></trkpt><trkpt lat="45.041340000122155" lon="7.865584739233687"><ele>313.0</ele><time>2026-04-11T09:11:06Z</time></trkpt><trkpt lat="45.04122804856228" lon="7.865589803745706"><ele>311.66666666666663</ele><time>2026-04-11T09:11:08Z</time></trkpt><trkpt lat="45.04112077173971" lon="7.86560140287991"><ele>310.3333333333333</ele><time>2026-04-11T09:11:10Z</time></trkpt><trkpt lat="45.0410112082995" lon="7.865617800838483"><ele>309.0</ele><time>2026-04-11T09:11:12Z</time></trkpt><trkpt lat="45.04092741778461" lon="7.865640655861696"><ele>307.6666666666667</ele><time>2026-04-11T09:11:15Z</time></trkpt><trkpt lat="45.04085641689457" lon="7.865642923758442"><ele>306.33333333333337</ele><time>2026-04-11T09:11:18Z</time></trkpt><trkpt lat="45.04078432555218" lon="7.865655121128413"><ele>305.0</ele><time>2026-04-11T09:11:20Z</time></trkpt><trkpt lat="45.04069268421913" lon="7.8656888279649975"><ele>303.4</ele><time>2026-04-11T09:11:23Z</time></trkpt><trkpt lat="45.040625594018444" lon="7.865746866312511"><ele>301.8</ele><time>2026-04-11T09:11:25Z</time></trkpt><trkpt lat="45.040552864062185" lon="7.865820426949696"><ele>300.2</ele><time>2026-04-11T09:11:27Z</time></trkpt><trkpt lat="45.040469167614866" lon="7.8658774500246125"><ele>298.6</ele><time>2026-04-11T09:11:29Z</time></trkpt><trkpt lat="45.04040066096737" lon="7.865953898108174"><ele>297.0</ele><time>2026-04-11T09:11:31Z</time></trkpt><trkpt lat="45.04031250703622" lon="7.866025921157027"><ele>297.0</ele><time>2026-04-11T09:11:33Z</time></trkpt><trkpt lat="45.04023085222374" lon="7.866092368790861"><ele>297.0</ele><time>2026-04-11T09:11:35Z</time></trkpt><trkpt lat="45.0401581577725" lon="7.866149929874408"><ele>297.0</ele><time>2026-04-11T09:11:37Z</time></trkpt><trkpt lat="45.04007980550259" lon="7.866225551937784"><ele>297.0</ele><time>2026-04-11T09:11:39Z</time></trkpt><trkpt lat="45.03998771054021" lon="7.866292091391556"><ele>297.0</ele><time>2026-04-11T09:11:41Z</time></trkpt><trkpt lat="45.03990559444019" lon="7.866369892050239"><ele>296.4</ele><time>2026-04-11T09:11:43Z</time></trkpt><trkpt lat="45.0398179415213" lon="7.866457179988311"><ele>295.79999999999995</ele><time>2026-04-11T09:11:45Z</time></trkpt><trkpt lat="45.03972212597974" lon="7.86654878484479"><ele>295.2</ele><time>2026-04-11T09:11:47Z</time></trkpt><trkpt lat="45.0396146012091" lon="7.866639509902046"><ele>294.59999999999997</ele><time>2026-04-11T09:11:48.999Z</time></trkpt><trkpt lat="45.039547505618735" lon="7.866672369994668"><ele>294.0</ele><time>2026-04-11T09:11:51.999Z</time></trkpt><trkpt lat="45.03949640189591" lon="7.866616638407854"><ele>294.0</ele><time>2026-04-11T09:11:55.999Z</time></trkpt><trkpt lat="45.039444788495054" lon="7.8665385987773275"><ele>294.0</ele><time>2026-04-11T09:11:59.999Z</time></trkpt><trkpt lat="45.039377051897674" lon="7.866596624363886"><ele>294.0</ele><time>2026-04-11T09:12:01.999Z</time></trkpt><trkpt lat="45.039297456513395" lon="7.866604887125371"><ele>294.0</ele><time>2026-04-11T09:12:05.999Z</time></trkpt><trkpt lat="45.039222093279704" lon="7.866613996656846"><ele>294.0</ele><time>2026-04-11T09:12:11.999Z</time></trkpt><trkpt lat="45.03915417780985" lon="7.86666977942733"><ele>294.0</ele><time>2026-04-11T09:12:13.999Z</time></trkpt><trkpt lat="45.03907853558378" lon="7.866680188594911"><ele>294.85714285714283</ele><time>2026-04-11T09:12:16.999Z</time></trkpt><trkpt lat="45.03901184279619" lon="7.866698113663247"><ele>295.7142857142857</ele><time>2026-04-11T09:12:19.999Z</time></trkpt><trkpt lat="45.03894405680407" lon="7.866719973010798"><ele>296.57142857142856</ele><time>2026-04-11T09:12:22.999Z</time></trkpt><trkpt lat="45.03886992747941" lon="7.866740197634541"><ele>297.42857142857144</ele><time>2026-04-11T09:12:25.999Z</time></trkpt><trkpt lat="45.03880551072184" lon="7.866756517226483"><ele>298.2857142857143</ele><time>2026-04-11T09:12:27.999Z</time></trkpt><trkpt lat="45.03873418147742" lon="7.866777653583609"><ele>299.1428571428571</ele><time>2026-04-11T09:12:31.999Z</time></trkpt><trkpt lat="45.0386616453236" lon="7.8667905964278555"><ele>300.0</ele><time>2026-04-11T09:12:35.999Z</time></trkpt><trkpt lat="45.03859389020224" lon="7.8667983154060055"><ele>300.0</ele><time>2026-04-11T09:12:41.999Z</time></trkpt><trkpt lat="45.03853701616357" lon="7.866759124825291"><ele>300.0</ele><time>2026-04-11T09:12:48.999Z</time></trkpt><trkpt lat="45.03845788957539" lon="7.866703775614392"><ele>300.0</ele><time>2026-04-11T09:12:51.999Z</time></trkpt><trkpt lat="45.038369571599155" lon="7.866674575858137"><ele>300.0</ele><time>2026-04-11T09:12:54.999Z</time></trkpt><trkpt lat="45.03829580757489" lon="7.8666362681234405"><ele>300.0</ele><time>2026-04-11T09:12:56.999Z</time></trkpt><trkpt lat="45.0382041395316" lon="7.866641959321473"><ele>300.0</ele><time>2026-04-11T09:12:58.999Z</time></trkpt><trkpt lat="45.038142843356006" lon="7.866613879824524"><ele>300.5</ele><time>2026-04-11T09:13:01Z</time></trkpt><trkpt lat="45.038060472103325" lon="7.866607456273071"><ele>301.0</ele><time>2026-04-11T09:13:03Z</time></trkpt><trkpt lat="45.03799300134816" lon="7.866624106361728"><ele>301.5</ele><time>2026-04-11T09:13:05Z</time></trkpt><trkpt lat="45.03791157348781" lon="7.866573305738763"><ele>302.0</ele><time>2026-04-11T09:13:07Z</time></trkpt><trkpt lat="45.0378362941681" lon="7.866552442953946"><ele>302.5</ele><time>2026-04-11T09:13:09Z</time></trkpt><trkpt lat="45.03774287200391" lon="7.866529476961479"><ele>303.0</ele><time>2026-04-11T09:13:12Z</time></trkpt><trkpt lat="45.03765954231382" lon="7.866526405030757"><ele>303.0</ele><time>2026-04-11T09:13:15Z</time></trkpt><trkpt lat="45.03757962492757" lon="7.866517975925561"><ele>303.0</ele><time>2026-04-11T09:13:18Z</time></trkpt><trkpt lat="45.037516266736695" lon="7.866516355433127"><ele>303.0</ele><time>2026-04-11T09:13:20Z</time></trkpt><trkpt lat="45.037443798066946" lon="7.866526564932547"><ele>303.0</ele><time>2026-04-11T09:13:22Z</time></trkpt><trkpt lat="45.037358083272544" lon="7.866546496908141"><ele>303.0</ele><time>2026-04-11T09:13:24Z</time></trkpt><trkpt lat="45.03728744413316" lon="7.866584089128042"><ele>303.0</ele><time>2026-04-11T09:13:26Z</time></trkpt><trkpt lat="45.0372211053292" lon="7.866600806843327"><ele>303.0</ele><time>2026-04-11T09:13:28Z</time></trkpt><trkpt lat="45.037149177926096" lon="7.866612889140588"><ele>300.2</ele><time>2026-04-11T09:13:32Z</time></trkpt><trkpt lat="45.03710245832119" lon="7.866697550040688"><ele>297.4</ele><time>2026-04-11T09:13:34Z</time></trkpt><trkpt lat="45.037018683546606" lon="7.866667729088982"><ele>294.59999999999997</ele><time>2026-04-11T09:13:35Z</time></trkpt><trkpt lat="45.03713000306287" lon="7.866800962655958"><ele>291.8</ele><time>2026-04-11T09:13:36Z</time></trkpt><trkpt lat="45.03708240046608" lon="7.866906064983989"><ele>289.0</ele><time>2026-04-11T09:13:38Z</time></trkpt><trkpt lat="45.037076980660196" lon="7.866996701657334"><ele>288.59999999999997</ele><time>2026-04-11T09:13:39Z</time></trkpt><trkpt lat="45.03710708710526" lon="7.867140169621304"><ele>288.2</ele><time>2026-04-11T09:13:41Z</time></trkpt><trkpt lat="45.0371352904925" lon="7.867265222469773"><ele>287.79999999999995</ele><time>2026-04-11T09:13:43Z</time></trkpt><trkpt lat="45.037170499525175" lon="7.8673485697906544"><ele>287.4</ele><time>2026-04-11T09:13:45Z</time></trkpt><trkpt lat="45.0372041234226" lon="7.867475890953672"><ele>287.0</ele><time>2026-04-11T09:13:47Z</time></trkpt><trkpt lat="45.037228942518944" lon="7.86761773470057"><ele>286.33333333333337</ele><time>2026-04-11T09:13:49Z</time></trkpt><trkpt lat="45.03726265192788" lon="7.867702980272535"><ele>285.6666666666667</ele><time>2026-04-11T09:13:50.999Z</time></trkpt><trkpt lat="45.03727899371831" lon="7.867834219888419"><ele>285.0</ele><time>2026-04-11T09:13:52.999Z</time></trkpt><trkpt lat="45.037307607028886" lon="7.867955414900206"><ele>284.3333333333333</ele><time>2026-04-11T09:13:54.999Z</time></trkpt><trkpt lat="45.037338627938205" lon="7.868044557449057"><ele>283.66666666666663</ele><time>2026-04-11T09:13:56.999Z</time></trkpt><trkpt lat="45.03730627039324" lon="7.868133107044336"><ele>283.0</ele><time>2026-04-11T09:13:57.999Z</time></trkpt><trkpt lat="45.03732579544614" lon="7.868251836647828"><ele>283.0</ele><time>2026-04-11T09:13:59.999Z</time></trkpt><trkpt lat="45.03734525369076" lon="7.868393615970277"><ele>283.0</ele><time>2026-04-11T09:14:01.999Z</time></trkpt><trkpt lat="45.037355710996046" lon="7.868530126055852"><ele>283.0</ele><time>2026-04-11T09:14:03.999Z</time></trkpt><trkpt lat="45.03735563377669" lon="7.868649293657121"><ele>283.0</ele><time>2026-04-11T09:14:05.999Z</time></trkpt><trkpt lat="45.03733887013631" lon="7.868760381310448"><ele>283.0</ele><time>2026-04-11T09:14:07.999Z</time></trkpt><trkpt lat="45.037315604822254" lon="7.868869704496761"><ele>283.0</ele><time>2026-04-11T09:14:09.999Z</time></trkpt><trkpt lat="45.03730236583292" lon="7.868992398150919"><ele>282.66666666666663</ele><time>2026-04-11T09:14:11.999Z</time></trkpt><trkpt lat="45.03728440554384" lon="7.86909080592982"><ele>282.3333333333333</ele><time>2026-04-11T09:14:14.999Z</time></trkpt><trkpt lat="45.037217793159265" lon="7.869090596844499"><ele>282.0</ele><time>2026-04-11T09:14:19.999Z</time></trkpt><trkpt lat="45.03716933814325" lon="7.869175761767758"><ele>281.6666666666667</ele><time>2026-04-11T09:14:22.999Z</time></trkpt><trkpt lat="45.03709754235325" lon="7.869222547354064"><ele>281.33333333333337</ele><time>2026-04-11T09:14:25.999Z</time></trkpt><trkpt lat="45.03702217739708" lon="7.869305858674825"><ele>281.0</ele><time>2026-04-11T09:14:28.999Z</time></trkpt><trkpt lat="45.036930574862716" lon="7.869398075836786"><ele>281.0</ele><time>2026-04-11T09:14:29.999Z</time></trkpt><trkpt lat="45.0368680152756" lon="7.869455025218405"><ele>281.0</ele><time>2026-04-11T09:14:30.999Z</time></trkpt><trkpt lat="45.03681275897797" lon="7.869504300504548"><ele>281.0</ele><time>2026-04-11T09:14:31.999Z</time></trkpt><trkpt lat="45.03675673933321" lon="7.869554256463834"><ele>281.0</ele><time>2026-04-11T09:14:32.999Z</time></trkpt><trkpt lat="45.036697395799465" lon="7.869609617853976"><ele>281.0</ele><time>2026-04-11T09:14:33.999Z</time></trkpt><trkpt lat="45.03659864590728" lon="7.869706889230146"><ele>281.0</ele><time>2026-04-11T09:14:35.999Z</time></trkpt><trkpt lat="45.036547167190676" lon="7.869765655631411"><ele>280.40000000000003</ele><time>2026-04-11T09:14:36.999Z</time></trkpt><trkpt lat="45.03648402469627" lon="7.869798341200012"><ele>279.8</ele><time>2026-04-11T09:14:37.999Z</time></trkpt><trkpt lat="45.03641189532319" lon="7.869916481004995"><ele>279.20000000000005</ele><time>2026-04-11T09:14:39.999Z</time></trkpt><trkpt lat="45.03634708756683" lon="7.870026450267104"><ele>278.6</ele><time>2026-04-11T09:14:41.999Z</time></trkpt><trkpt lat="45.036298686398574" lon="7.870106478160361"><ele>278.0</ele><time>2026-04-11T09:14:43.999Z</time></trkpt><trkpt lat="45.03639012708379" lon="7.870214031233972"><ele>279.1428571428571</ele><time>2026-04-11T09:14:51.999Z</time></trkpt><trkpt lat="45.03644465027305" lon="7.8702907971726335"><ele>280.2857142857143</ele><time>2026-04-11T09:14:54.999Z</time></trkpt><trkpt lat="45.03646195837166" lon="7.870378832689358"><ele>281.42857142857144</ele><time>2026-04-11T09:14:56.999Z</time></trkpt><trkpt lat="45.036495701223494" lon="7.870488301555521"><ele>282.57142857142856</ele><time>2026-04-11T09:14:59.999Z</time></trkpt><trkpt lat="45.036520459695126" lon="7.870576314009316"><ele>283.7142857142857</ele><time>2026-04-11T09:15:01.999Z</time></trkpt><trkpt lat="45.03654591884495" lon="7.870666842764339"><ele>284.85714285714283</ele><time>2026-04-11T09:15:03.999Z</time></trkpt><trkpt lat="45.03657115247963" lon="7.870763562370716"><ele>286.0</ele><time>2026-04-11T09:15:05.999Z</time></trkpt><trkpt lat="45.03659317076349" lon="7.870864484534572"><ele>285.99999999999994</ele><time>2026-04-11T09:15:08Z</time></trkpt><trkpt lat="45.0366166897238" lon="7.870950281942935"><ele>286.0</ele><time>2026-04-11T09:15:10Z</time></trkpt><trkpt lat="45.036646074296954" lon="7.871046739119481"><ele>286.0</ele><time>2026-04-11T09:15:12Z</time></trkpt><trkpt lat="45.03667092344664" lon="7.871145292247507"><ele>286.0</ele><time>2026-04-11T09:15:14Z</time></trkpt><trkpt lat="45.036699765358456" lon="7.87123097749879"><ele>286.0</ele><time>2026-04-11T09:15:16Z</time></trkpt><trkpt lat="45.036726580919904" lon="7.871333316766458"><ele>285.99999999999994</ele><time>2026-04-11T09:15:18Z</time></trkpt><trkpt lat="45.036751898724745" lon="7.871443951611979"><ele>286.0</ele><time>2026-04-11T09:15:20Z</time></trkpt><trkpt lat="45.03678617315138" lon="7.871550732509738"><ele>286.0</ele><time>2026-04-11T09:15:22Z</time></trkpt><trkpt lat="45.036810036695215" lon="7.871658054349184"><ele>286.0</ele><time>2026-04-11T09:15:24Z</time></trkpt><trkpt lat="45.03683708349208" lon="7.871772671281541"><ele>286.0</ele><time>2026-04-11T09:15:26Z</time></trkpt><trkpt lat="45.036864882600675" lon="7.871890298461902"><ele>286.0</ele><time>2026-04-11T09:15:28Z</time></trkpt><trkpt lat="45.036885667661885" lon="7.871997101408995"><ele>286.0</ele><time>2026-04-11T09:15:30Z</time></trkpt><trkpt lat="45.03692827831857" lon="7.872098324868503"><ele>286.0</ele><time>2026-04-11T09:15:32Z</time></trkpt><trkpt lat="45.03696453281224" lon="7.872202150829368"><ele>287.0</ele><time>2026-04-11T09:15:34Z</time></trkpt><trkpt lat="45.03698237863409" lon="7.872303919165836"><ele>288.0</ele><time>2026-04-11T09:15:36Z</time></trkpt><trkpt lat="45.037013268371396" lon="7.8724025882893764"><ele>289.0</ele><time>2026-04-11T09:15:38Z</time></trkpt><trkpt lat="45.0370516827442" lon="7.87250199996183"><ele>290.0</ele><time>2026-04-11T09:15:40Z</time></trkpt><trkpt lat="45.03706208402128" lon="7.872598603442629"><ele>291.0</ele><time>2026-04-11T09:15:42Z</time></trkpt><trkpt lat="45.0370865184845" lon="7.872699798672941"><ele>292.0</ele><time>2026-04-11T09:15:44Z</time></trkpt><trkpt lat="45.037110299703464" lon="7.872802585440188"><ele>292.0</ele><time>2026-04-11T09:15:46Z</time></trkpt><trkpt lat="45.03713751568516" lon="7.872922702543722"><ele>292.0</ele><time>2026-04-11T09:15:48Z</time></trkpt><trkpt lat="45.03716743861734" lon="7.873058068283417"><ele>292.0</ele><time>2026-04-11T09:15:50Z</time></trkpt><trkpt lat="45.03717781163614" lon="7.873170092384593"><ele>292.0</ele><time>2026-04-11T09:15:52Z</time></trkpt><trkpt lat="45.03717823645564" lon="7.873297266333335"><ele>292.0</ele><time>2026-04-11T09:15:54Z</time></trkpt><trkpt lat="45.03715005413038" lon="7.8734512396979035"><ele>291.16666666666663</ele><time>2026-04-11T09:15:56Z</time></trkpt><trkpt lat="45.0371318467578" lon="7.873550339940625"><ele>290.3333333333333</ele><time>2026-04-11T09:15:57Z</time></trkpt><trkpt lat="45.0370786456864" lon="7.873637572300351"><ele>289.5</ele><time>2026-04-11T09:15:58.999Z</time></trkpt><trkpt lat="45.0370671231193" lon="7.873780890952072"><ele>288.6666666666667</ele><time>2026-04-11T09:16:00.999Z</time></trkpt><trkpt lat="45.03713617839732" lon="7.873789301845264"><ele>287.83333333333337</ele><time>2026-04-11T09:16:01.999Z</time></trkpt><trkpt lat="45.03723351913747" lon="7.873744473788768"><ele>287.0</ele><time>2026-04-11T09:16:03.999Z</time></trkpt><trkpt lat="45.03732181808462" lon="7.8737634375457946"><ele>287.0</ele><time>2026-04-11T09:16:05.999Z</time></trkpt><trkpt lat="45.037419266848424" lon="7.873812715488679"><ele>287.0</ele><time>2026-04-11T09:16:07.999Z</time></trkpt><trkpt lat="45.03750340406806" lon="7.873864338321712"><ele>287.0</ele><time>2026-04-11T09:16:09.999Z</time></trkpt><trkpt lat="45.037585190020465" lon="7.873912422396317"><ele>287.0</ele><time>2026-04-11T09:16:11.999Z</time></trkpt><trkpt lat="45.03767402332501" lon="7.873960630812788"><ele>287.0</ele><time>2026-04-11T09:16:13.999Z</time></trkpt><trkpt lat="45.037772170987886" lon="7.874007995549986"><ele>286.8</ele><time>2026-04-11T09:16:15.999Z</time></trkpt><trkpt lat="45.03786460838157" lon="7.874057658551948"><ele>286.6</ele><time>2026-04-11T09:16:17.999Z</time></trkpt><trkpt lat="45.037951847653446" lon="7.874104926871435"><ele>286.40000000000003</ele><time>2026-04-11T09:16:19.999Z</time></trkpt><trkpt lat="45.038036636324456" lon="7.8741519784871645"><ele>286.2</ele><time>2026-04-11T09:16:21.999Z</time></trkpt><trkpt lat="45.03812083847089" lon="7.874199486277442"><ele>286.0</ele><time>2026-04-11T09:16:23.999Z</time></trkpt><trkpt lat="45.03819859200593" lon="7.874239617463338"><ele>285.6</ele><time>2026-04-11T09:16:25.999Z</time></trkpt><trkpt lat="45.03828521234866" lon="7.874287138089151"><ele>285.20000000000005</ele><time>2026-04-11T09:16:27.999Z</time></trkpt><trkpt lat="45.03837904204689" lon="7.874324572657471"><ele>284.79999999999995</ele><time>2026-04-11T09:16:29.999Z</time></trkpt><trkpt lat="45.03846927646598" lon="7.874375357710275"><ele>284.4</ele><time>2026-04-11T09:16:31.999Z</time></trkpt><trkpt lat="45.03855943127994" lon="7.874425794396786"><ele>284.0</ele><time>2026-04-11T09:16:33.999Z</time></trkpt><trkpt lat="45.03864885800646" lon="7.87447004072502"><ele>283.8</ele><time>2026-04-11T09:16:35.999Z</time></trkpt><trkpt lat="45.038737498298275" lon="7.874517405874425"><ele>283.59999999999997</ele><time>2026-04-11T09:16:37.999Z</time></trkpt><trkpt lat="45.038828029023534" lon="7.874563050764525"><ele>283.4</ele><time>2026-04-11T09:16:39.999Z</time></trkpt><trkpt lat="45.03891678637542" lon="7.874606436850685"><ele>283.2</ele><time>2026-04-11T09:16:41.999Z</time></trkpt><trkpt lat="45.038997761070284" lon="7.87465741782583"><ele>283.0</ele><time>2026-04-11T09:16:43.999Z</time></trkpt><trkpt lat="45.039088412764464" lon="7.87469765205975"><ele>283.0</ele><time>2026-04-11T09:16:45.999Z</time></trkpt><trkpt lat="45.0391740732078" lon="7.874743107930188"><ele>283.0</ele><time>2026-04-11T09:16:47.999Z</time></trkpt><trkpt lat="45.03926517099915" lon="7.874790068977349"><ele>283.0</ele><time>2026-04-11T09:16:49.999Z</time></trkpt><trkpt lat="45.03935202114038" lon="7.874841165445872"><ele>283.0</ele><time>2026-04-11T09:16:51.999Z</time></trkpt><trkpt lat="45.03944008019095" lon="7.874890210637152"><ele>283.0</ele><time>2026-04-11T09:16:53.999Z</time></trkpt><trkpt lat="45.03952995855475" lon="7.874931308503274"><ele>283.0</ele><time>2026-04-11T09:16:55.999Z</time></trkpt><trkpt lat="45.03961842053308" lon="7.8749796983402"><ele>283.0</ele><time>2026-04-11T09:16:57.999Z</time></trkpt><trkpt lat="45.039701931473815" lon="7.875029764454042"><ele>283.0</ele><time>2026-04-11T09:16:59.999Z</time></trkpt><trkpt lat="45.039793252783326" lon="7.875081751028115"><ele>283.0</ele><time>2026-04-11T09:17:01.999Z</time></trkpt><trkpt lat="45.03988529851705" lon="7.875130696352977"><ele>283.0</ele><time>2026-04-11T09:17:03.999Z</time></trkpt><trkpt lat="45.03997404166507" lon="7.8751736442795055"><ele>282.8</ele><time>2026-04-11T09:17:05.999Z</time></trkpt><trkpt lat="45.040057946664824" lon="7.875216156275645"><ele>282.6</ele><time>2026-04-11T09:17:07.999Z</time></trkpt><trkpt lat="45.04014836909233" lon="7.875265773842056"><ele>282.4</ele><time>2026-04-11T09:17:09.999Z</time></trkpt><trkpt lat="45.04023561520357" lon="7.875314388687158"><ele>282.2</ele><time>2026-04-11T09:17:11.999Z</time></trkpt><trkpt lat="45.04032599811452" lon="7.875362019187176"><ele>282.0</ele><time>2026-04-11T09:17:14Z</time></trkpt><trkpt lat="45.04041238705805" lon="7.875412420606632"><ele>282.0</ele><time>2026-04-11T09:17:16Z</time></trkpt><trkpt lat="45.04049946063425" lon="7.875463661739134"><ele>282.0</ele><time>2026-04-11T09:17:18Z</time></trkpt><trkpt lat="45.04059072827082" lon="7.875515793654131"><ele>282.0</ele><time>2026-04-11T09:17:20Z</time></trkpt><trkpt lat="45.04068452577348" lon="7.875565717076792"><ele>282.0</ele><time>2026-04-11T09:17:22Z</time></trkpt><trkpt lat="45.040768774968654" lon="7.875614562138997"><ele>282.0</ele><time>2026-04-11T09:17:24Z</time></trkpt><trkpt lat="45.04085310539912" lon="7.875663062814876"><ele>282.8</ele><time>2026-04-11T09:17:26Z</time></trkpt><trkpt lat="45.04094932271997" lon="7.875709110340561"><ele>283.6</ele><time>2026-04-11T09:17:28Z</time></trkpt><trkpt lat="45.04105596101275" lon="7.875765676523284"><ele>284.40000000000003</ele><time>2026-04-11T09:17:30Z</time></trkpt><trkpt lat="45.04116739544094" lon="7.875823572486372"><ele>285.2</ele><time>2026-04-11T09:17:32Z</time></trkpt><trkpt lat="45.04127400718161" lon="7.875882021135159"><ele>286.0</ele><time>2026-04-11T09:17:34Z</time></trkpt><trkpt lat="45.04137012260805" lon="7.875937705200931"><ele>287.66666666666663</ele><time>2026-04-11T09:17:36Z</time></trkpt><trkpt lat="45.041453401812504" lon="7.8759864574216545"><ele>289.3333333333333</ele><time>2026-04-11T09:17:38Z</time></trkpt><trkpt lat="45.0415261445975" lon="7.876029019319162"><ele>291.0</ele><time>2026-04-11T09:17:40Z</time></trkpt><trkpt lat="45.041597986168796" lon="7.876080196765863"><ele>292.6666666666667</ele><time>2026-04-11T09:17:42Z</time></trkpt><trkpt lat="45.041675978766406" lon="7.87614614993509"><ele>294.33333333333337</ele><time>2026-04-11T09:17:44Z</time></trkpt><trkpt lat="45.0417317633558" lon="7.876196706860341"><ele>296.0</ele><time>2026-04-11T09:17:46Z</time></trkpt><trkpt lat="45.04179797172241" lon="7.876282222004502"><ele>296.57142857142856</ele><time>2026-04-11T09:17:49Z</time></trkpt><trkpt lat="45.041854883560156" lon="7.876333961382695"><ele>297.1428571428571</ele><time>2026-04-11T09:17:51Z</time></trkpt><trkpt lat="45.041904598212575" lon="7.876391907302171"><ele>297.71428571428567</ele><time>2026-04-11T09:17:53Z</time></trkpt><trkpt lat="45.04195154645216" lon="7.876474947358683"><ele>298.2857142857143</ele><time>2026-04-11T09:17:55Z</time></trkpt><trkpt lat="45.04200539038725" lon="7.876556983491832"><ele>298.85714285714283</ele><time>2026-04-11T09:17:58Z</time></trkpt><trkpt lat="45.042042887658084" lon="7.876654269956501"><ele>299.4285714285714</ele><time>2026-04-11T09:18:01Z</time></trkpt><trkpt lat="45.04209433211324" lon="7.876741221635569"><ele>300.0</ele><time>2026-04-11T09:18:04Z</time></trkpt><trkpt lat="45.042137453707525" lon="7.876813808302461"><ele>300.6666666666667</ele><time>2026-04-11T09:18:06.999Z</time></trkpt><trkpt lat="45.042196053108384" lon="7.876896713941659"><ele>301.3333333333333</ele><time>2026-04-11T09:18:10.999Z</time></trkpt><trkpt lat="45.04223116637532" lon="7.876976887366324"><ele>302.0</ele><time>2026-04-11T09:18:13.999Z</time></trkpt><trkpt lat="45.0422771356089" lon="7.877053833220405"><ele>302.66666666666663</ele><time>2026-04-11T09:18:17.999Z</time></trkpt><trkpt lat="45.04232919486838" lon="7.877133465570277"><ele>303.3333333333333</ele><time>2026-04-11T09:18:20.999Z</time></trkpt><trkpt lat="45.042398640021396" lon="7.877198246272073"><ele>304.0</ele><time>2026-04-11T09:18:23.999Z</time></trkpt><trkpt lat="45.04245905406376" lon="7.877270643641733"><ele>304.2857142857143</ele><time>2026-04-11T09:18:27.999Z</time></trkpt><trkpt lat="45.04253587782949" lon="7.877314398595769"><ele>304.5714285714286</ele><time>2026-04-11T09:18:30.999Z</time></trkpt><trkpt lat="45.04259872114259" lon="7.877349646887561"><ele>304.8571428571429</ele><time>2026-04-11T09:18:33.999Z</time></trkpt><trkpt lat="45.04265659324594" lon="7.8774023712999055"><ele>305.1428571428571</ele><time>2026-04-11T09:18:36.999Z</time></trkpt><trkpt lat="45.04271360306209" lon="7.87745488398564"><ele>305.42857142857144</ele><time>2026-04-11T09:18:38.999Z</time></trkpt><trkpt lat="45.04280218824175" lon="7.877463602250234"><ele>305.7142857142857</ele><time>2026-04-11T09:18:40.999Z</time></trkpt><trkpt lat="45.042867640223854" lon="7.877472249040795"><ele>306.0</ele><time>2026-04-11T09:18:42.999Z</time></trkpt><trkpt lat="45.042948692766814" lon="7.877509843449129"><ele>306.0</ele><time>2026-04-11T09:18:45.999Z</time></trkpt><trkpt lat="45.04302447208278" lon="7.877517526098681"><ele>306.0</ele><time>2026-04-11T09:18:48.999Z</time></trkpt><trkpt lat="45.04310144483813" lon="7.8775316038661485"><ele>306.0</ele><time>2026-04-11T09:18:51.999Z</time></trkpt><trkpt lat="45.043177123571645" lon="7.877548180075418"><ele>306.0</ele><time>2026-04-11T09:18:54.999Z</time></trkpt><trkpt lat="45.04324819670138" lon="7.877568278342662"><ele>306.0</ele><time>2026-04-11T09:18:57.999Z</time></trkpt><trkpt lat="45.04332189205085" lon="7.877581908489437"><ele>306.0</ele><time>2026-04-11T09:19:00.999Z</time></trkpt><trkpt lat="45.04338996966357" lon="7.87759188411839"><ele>306.0</ele><time>2026-04-11T09:19:03.999Z</time></trkpt><trkpt lat="45.04345519646215" lon="7.877605674140668"><ele>308.0</ele><time>2026-04-11T09:19:06.999Z</time></trkpt><trkpt lat="45.04352417935427" lon="7.877616540563039"><ele>310.0</ele><time>2026-04-11T09:19:09.999Z</time></trkpt><trkpt lat="45.043716736702486" lon="7.877619396209587"><ele>312.0</ele><time>2026-04-11T09:19:17.999Z</time></trkpt><trkpt lat="45.04379184493666" lon="7.877661382268005"><ele>314.0</ele><time>2026-04-11T09:19:22Z</time></trkpt><trkpt lat="45.04386864931481" lon="7.877677973665547"><ele>316.0</ele><time>2026-04-11T09:19:25Z</time></trkpt><trkpt lat="45.04393435568559" lon="7.877697065249706"><ele>316.0</ele><time>2026-04-11T09:19:28Z</time></trkpt><trkpt lat="45.04405361689613" lon="7.877705613673911"><ele>316.0</ele><time>2026-04-11T09:19:35Z</time></trkpt><trkpt lat="45.04411790185559" lon="7.877720367774435"><ele>316.0</ele><time>2026-04-11T09:19:39Z</time></trkpt><trkpt lat="45.04418220672841" lon="7.877729759102117"><ele>316.0</ele><time>2026-04-11T09:19:42Z</time></trkpt><trkpt lat="45.04424818444067" lon="7.877723698377084"><ele>316.0</ele><time>2026-04-11T09:19:45Z</time></trkpt><trkpt lat="45.044321752245935" lon="7.877741991615979"><ele>316.0</ele><time>2026-04-11T09:19:48Z</time></trkpt><trkpt lat="45.0443880315412" lon="7.8777586879980435"><ele>317.66666666666663</ele><time>2026-04-11T09:19:51Z</time></trkpt><trkpt lat="45.04445317636295" lon="7.877782448529663"><ele>319.3333333333333</ele><time>2026-04-11T09:19:54Z</time></trkpt><trkpt lat="45.04454831773994" lon="7.877793227174438"><ele>321.0</ele><time>2026-04-11T09:19:58Z</time></trkpt><trkpt lat="45.04462524104228" lon="7.877814770303177"><ele>322.6666666666667</ele><time>2026-04-11T09:20:01Z</time></trkpt><trkpt lat="45.04471805496913" lon="7.877856052442506"><ele>324.33333333333337</ele><time>2026-04-11T09:20:05Z</time></trkpt><trkpt lat="45.04478673680153" lon="7.877879895762574"><ele>326.0</ele><time>2026-04-11T09:20:07.999Z</time></trkpt><trkpt lat="45.044857463193715" lon="7.8779109825137805"><ele>326.0</ele><time>2026-04-11T09:20:10.999Z</time></trkpt><trkpt lat="45.04491730408963" lon="7.877955027426634"><ele>326.0</ele><time>2026-04-11T09:20:13.999Z</time></trkpt><trkpt lat="45.044982202477385" lon="7.877991044094095"><ele>326.0</ele><time>2026-04-11T09:20:15.999Z</time></trkpt><trkpt lat="45.04505718907123" lon="7.878044022211875"><ele>326.0</ele><time>2026-04-11T09:20:18.999Z</time></trkpt><trkpt lat="45.045114927932055" lon="7.878092059512444"><ele>326.0</ele><time>2026-04-11T09:20:21.999Z</time></trkpt><trkpt lat="45.04520565152246" lon="7.878137179700593"><ele>326.0</ele><time>2026-04-11T09:20:25.999Z</time></trkpt><trkpt lat="45.04528992683228" lon="7.878190083235692"><ele>327.33333333333337</ele><time>2026-04-11T09:20:28.999Z</time></trkpt><trkpt lat="45.045377874717694" lon="7.878256934938368"><ele>328.6666666666667</ele><time>2026-04-11T09:20:31.999Z</time></trkpt><trkpt lat="45.045452172374326" lon="7.8783048608104815"><ele>330.0</ele><time>2026-04-11T09:20:34.999Z</time></trkpt><trkpt lat="45.04553578186077" lon="7.878344175206206"><ele>331.3333333333333</ele><time>2026-04-11T09:20:37.999Z</time></trkpt><trkpt lat="45.04563168623771" lon="7.878382382697771"><ele>332.66666666666663</ele><time>2026-04-11T09:20:40.999Z</time></trkpt><trkpt lat="45.045682368119294" lon="7.878436999216241"><ele>334.0</ele><time>2026-04-11T09:20:42.999Z</time></trkpt><trkpt lat="45.045782211617784" lon="7.8784813735239645"><ele>336.16666666666663</ele><time>2026-04-11T09:20:45.999Z</time></trkpt><trkpt lat="45.04587142233757" lon="7.878527220584249"><ele>338.3333333333333</ele><time>2026-04-11T09:20:48.999Z</time></trkpt><trkpt lat="45.04592841651746" lon="7.878578144214673"><ele>340.5</ele><time>2026-04-11T09:20:50.999Z</time></trkpt><trkpt lat="45.04599917666016" lon="7.878646329205549"><ele>342.6666666666667</ele><time>2026-04-11T09:20:54.999Z</time></trkpt><trkpt lat="45.046087506857035" lon="7.878696482727497"><ele>344.83333333333337</ele><time>2026-04-11T09:20:57.999Z</time></trkpt><trkpt lat="45.04616626907758" lon="7.878722677402186"><ele>347.0</ele><time>2026-04-11T09:20:59.999Z</time></trkpt><trkpt lat="45.04635192806619" lon="7.878720339805191"><ele>347.0</ele><time>2026-04-11T09:21:03.999Z</time></trkpt><trkpt lat="45.0465220185096" lon="7.87874731170931"><ele>347.0</ele><time>2026-04-11T09:21:06.999Z</time></trkpt><trkpt lat="45.04661421753532" lon="7.878791259815584"><ele>347.0</ele><time>2026-04-11T09:21:12.999Z</time></trkpt><trkpt lat="45.04667233033475" lon="7.87882668903305"><ele>347.0</ele><time>2026-04-11T09:21:13.999Z</time></trkpt><trkpt lat="45.04674236807223" lon="7.878837765818237"><ele>347.0</ele><time>2026-04-11T09:21:15.999Z</time></trkpt><trkpt lat="45.046832622015835" lon="7.878851808953831"><ele>346.8</ele><time>2026-04-11T09:21:17.999Z</time></trkpt><trkpt lat="45.046935229804376" lon="7.878837853399345"><ele>346.6</ele><time>2026-04-11T09:21:19.999Z</time></trkpt><trkpt lat="45.04704951501037" lon="7.878832952186725"><ele>346.40000000000003</ele><time>2026-04-11T09:21:21.999Z</time></trkpt><trkpt lat="45.0471737617821" lon="7.878820789162977"><ele>346.20000000000005</ele><time>2026-04-11T09:21:23.998Z</time></trkpt><trkpt lat="45.04723962775528" lon="7.878817030573945"><ele>346.0</ele><time>2026-04-11T09:21:25Z</time></trkpt><trkpt lat="45.04734882122417" lon="7.878817714827404"><ele>346.0</ele><time>2026-04-11T09:21:27Z</time></trkpt><trkpt lat="45.04745077240791" lon="7.878789347552684"><ele>346.0</ele><time>2026-04-11T09:21:29Z</time></trkpt><trkpt lat="45.04757116092789" lon="7.878765687596717"><ele>346.0</ele><time>2026-04-11T09:21:31Z</time></trkpt><trkpt lat="45.0476382352608" lon="7.878749288141571"><ele>346.0</ele><time>2026-04-11T09:21:32Z</time></trkpt><trkpt lat="45.04778159749174" lon="7.878729891506401"><ele>346.0</ele><time>2026-04-11T09:21:34Z</time></trkpt><trkpt lat="45.04789848709174" lon="7.878738440454787"><ele>345.0</ele><time>2026-04-11T09:21:36Z</time></trkpt><trkpt lat="45.04796425531099" lon="7.878734217626016"><ele>344.0</ele><time>2026-04-11T09:21:37Z</time></trkpt><trkpt lat="45.04806467955685" lon="7.8787208750395"><ele>343.0</ele><time>2026-04-11T09:21:39Z</time></trkpt><trkpt lat="45.048167859178236" lon="7.878694650750218"><ele>342.0</ele><time>2026-04-11T09:21:41Z</time></trkpt><trkpt lat="45.048266527602266" lon="7.87868235681632"><ele>341.0</ele><time>2026-04-11T09:21:43Z</time></trkpt><trkpt lat="45.048355048270714" lon="7.878656909475974"><ele>340.5</ele><time>2026-04-11T09:21:45Z</time></trkpt><trkpt lat="45.048429657684686" lon="7.8786520770619415"><ele>340.0</ele><time>2026-04-11T09:21:48Z</time></trkpt><trkpt lat="45.048496145347585" lon="7.87860995119539"><ele>339.5</ele><time>2026-04-11T09:21:52Z</time></trkpt><trkpt lat="45.048563789293596" lon="7.878660494659141"><ele>339.0</ele><time>2026-04-11T09:22:06Z</time></trkpt><trkpt lat="45.048639100328145" lon="7.878685482426935"><ele>338.5</ele><time>2026-04-11T09:22:10Z</time></trkpt><trkpt lat="45.0486444602821" lon="7.878588675160237"><ele>338.0</ele><time>2026-04-11T09:22:12Z</time></trkpt><trkpt lat="45.048681537533604" lon="7.878702559651363"><ele>338.0</ele><time>2026-04-11T09:22:13Z</time></trkpt><trkpt lat="45.04874357126825" lon="7.878741866666378"><ele>338.0</ele><time>2026-04-11T09:22:17.999Z</time></trkpt><trkpt lat="45.048799318344784" lon="7.878901315633589"><ele>338.0</ele><time>2026-04-11T09:22:22.999Z</time></trkpt><trkpt lat="45.048817490699776" lon="7.879025244923378"><ele>338.0</ele><time>2026-04-11T09:22:25.999Z</time></trkpt><trkpt lat="45.048838948724786" lon="7.879113595916527"><ele>338.0</ele><time>2026-04-11T09:22:27.999Z</time></trkpt><trkpt lat="45.04887117490734" lon="7.87920412904044"><ele>338.0</ele><time>2026-04-11T09:22:29.999Z</time></trkpt><trkpt lat="45.048901396283156" lon="7.879306359208331"><ele>336.6666666666667</ele><time>2026-04-11T09:22:31.999Z</time></trkpt><trkpt lat="45.048911722097586" lon="7.879423963727583"><ele>335.33333333333337</ele><time>2026-04-11T09:22:33.999Z</time></trkpt><trkpt lat="45.048936352979624" lon="7.879524456263759"><ele>334.0</ele><time>2026-04-11T09:22:35.999Z</time></trkpt><trkpt lat="45.04896565265588" lon="7.879627185419579"><ele>332.6666666666667</ele><time>2026-04-11T09:22:37.999Z</time></trkpt><trkpt lat="45.04898087290547" lon="7.8797366048003274"><ele>331.3333333333333</ele><time>2026-04-11T09:22:39.999Z</time></trkpt><trkpt lat="45.04899198990419" lon="7.879859768741646"><ele>330.0</ele><time>2026-04-11T09:22:42.999Z</time></trkpt><trkpt lat="45.04902120555665" lon="7.879982007961007"><ele>330.0</ele><time>2026-04-11T09:22:45.999Z</time></trkpt><trkpt lat="45.04897774468379" lon="7.880050767349996"><ele>330.0</ele><time>2026-04-11T09:22:46.999Z</time></trkpt><trkpt lat="45.048966802815094" lon="7.880179285235337"><ele>330.0</ele><time>2026-04-11T09:22:48.999Z</time></trkpt><trkpt lat="45.04894554129092" lon="7.880326849980438"><ele>330.0</ele><time>2026-04-11T09:22:50.999Z</time></trkpt><trkpt lat="45.048924410179126" lon="7.880510411768387"><ele>330.0</ele><time>2026-04-11T09:22:52.999Z</time></trkpt><trkpt lat="45.04891231350208" lon="7.880615273355784"><ele>329.2</ele><time>2026-04-11T09:22:53.999Z</time></trkpt><trkpt lat="45.048890933079036" lon="7.880731762312275"><ele>328.4</ele><time>2026-04-11T09:22:54.999Z</time></trkpt><trkpt lat="45.0488689610788" lon="7.880855591169749"><ele>327.6</ele><time>2026-04-11T09:22:55.999Z</time></trkpt><trkpt lat="45.04884611815061" lon="7.8809987471950596"><ele>326.8</ele><time>2026-04-11T09:22:56.999Z</time></trkpt><trkpt lat="45.04882910374982" lon="7.881131642894773"><ele>326.0</ele><time>2026-04-11T09:22:57.999Z</time></trkpt><trkpt lat="45.04881799262965" lon="7.881272142963746"><ele>324.8</ele><time>2026-04-11T09:22:58.999Z</time></trkpt><trkpt lat="45.04881016855546" lon="7.881411580513444"><ele>323.6</ele><time>2026-04-11T09:22:59.999Z</time></trkpt><trkpt lat="45.04880155921022" lon="7.881546222048533"><ele>322.4</ele><time>2026-04-11T09:23:00.999Z</time></trkpt><trkpt lat="45.04878650511093" lon="7.88168160413364"><ele>321.2</ele><time>2026-04-11T09:23:01.999Z</time></trkpt><trkpt lat="45.0487752308663" lon="7.8818210584778345"><ele>320.0</ele><time>2026-04-11T09:23:02.999Z</time></trkpt><trkpt lat="45.04876620141724" lon="7.88195529987744"><ele>319.4</ele><time>2026-04-11T09:23:03.999Z</time></trkpt><trkpt lat="45.04874288374575" lon="7.882092203474925"><ele>318.8</ele><time>2026-04-11T09:23:04.999Z</time></trkpt><trkpt lat="45.04873882555092" lon="7.8822281781464625"><ele>318.2</ele><time>2026-04-11T09:23:05.999Z</time></trkpt><trkpt lat="45.048739253812144" lon="7.882362020675914"><ele>317.6</ele><time>2026-04-11T09:23:06.999Z</time></trkpt><trkpt lat="45.0487136144067" lon="7.882488821188329"><ele>317.0</ele><time>2026-04-11T09:23:07.999Z</time></trkpt><trkpt lat="45.04870545544353" lon="7.882610624411827"><ele>317.0</ele><time>2026-04-11T09:23:08.999Z</time></trkpt><trkpt lat="45.04869671600778" lon="7.882741093017966"><ele>317.0</ele><time>2026-04-11T09:23:09.999Z</time></trkpt><trkpt lat="45.048704889293546" lon="7.882867943381255"><ele>317.0</ele><time>2026-04-11T09:23:10.999Z</time></trkpt><trkpt lat="45.048696320410805" lon="7.882990155164126"><ele>317.0</ele><time>2026-04-11T09:23:11.999Z</time></trkpt><trkpt lat="45.04866925777884" lon="7.8831210787821595"><ele>317.0</ele><time>2026-04-11T09:23:12.999Z</time></trkpt><trkpt lat="45.04865068436776" lon="7.8832390951154325"><ele>317.0</ele><time>2026-04-11T09:23:13.999Z</time></trkpt><trkpt lat="45.04867673072555" lon="7.883353907798665"><ele>317.0</ele><time>2026-04-11T09:23:14.999Z</time></trkpt><trkpt lat="45.04866784400202" lon="7.883462688167064"><ele>317.0</ele><time>2026-04-11T09:23:15.999Z</time></trkpt><trkpt lat="45.0486596988871" lon="7.883567766096367"><ele>317.0</ele><time>2026-04-11T09:23:16.999Z</time></trkpt><trkpt lat="45.04865104597511" lon="7.8837425021245355"><ele>317.0</ele><time>2026-04-11T09:23:18.999Z</time></trkpt><trkpt lat="45.04863509685229" lon="7.883885821733594"><ele>317.4</ele><time>2026-04-11T09:23:20.999Z</time></trkpt><trkpt lat="45.04863431012684" lon="7.884014167404251"><ele>317.79999999999995</ele><time>2026-04-11T09:23:22.999Z</time></trkpt><trkpt lat="45.04859634818081" lon="7.88412532316226"><ele>318.2</ele><time>2026-04-11T09:23:24.999Z</time></trkpt><trkpt lat="45.04857687876642" lon="7.8842400702207565"><ele>318.59999999999997</ele><time>2026-04-11T09:23:26.999Z</time></trkpt><trkpt lat="45.04868497522238" lon="7.8844443537138025"><ele>319.0</ele><time>2026-04-11T09:23:28.999Z</time></trkpt><trkpt lat="45.04868868971947" lon="7.8846048621619635"><ele>318.2</ele><time>2026-04-11T09:23:31Z</time></trkpt><trkpt lat="45.04869258933809" lon="7.88477480399831"><ele>317.4</ele><time>2026-04-11T09:23:33Z</time></trkpt><trkpt lat="45.0486953478432" lon="7.884877899613051"><ele>316.6</ele><time>2026-04-11T09:23:34Z</time></trkpt><trkpt lat="45.04869978457123" lon="7.88504733308106"><ele>315.8</ele><time>2026-04-11T09:23:36Z</time></trkpt><trkpt lat="45.04870098594189" lon="7.885224473920566"><ele>315.0</ele><time>2026-04-11T09:23:38Z</time></trkpt><trkpt lat="45.048707238734934" lon="7.885392773534089"><ele>314.1666666666667</ele><time>2026-04-11T09:23:40Z</time></trkpt><trkpt lat="45.04869027314356" lon="7.885491517701472"><ele>313.3333333333333</ele><time>2026-04-11T09:23:41Z</time></trkpt><trkpt lat="45.048687334906745" lon="7.885615690220432"><ele>312.5</ele><time>2026-04-11T09:23:42Z</time></trkpt><trkpt lat="45.04869599054782" lon="7.885712830909688"><ele>311.66666666666663</ele><time>2026-04-11T09:23:43Z</time></trkpt><trkpt lat="45.04870915681609" lon="7.885803459752191"><ele>310.8333333333333</ele><time>2026-04-11T09:23:44Z</time></trkpt><trkpt lat="45.04871285091779" lon="7.885975828176759"><ele>310.0</ele><time>2026-04-11T09:23:46Z</time></trkpt><trkpt lat="45.04870520284528" lon="7.886080397309108"><ele>308.2</ele><time>2026-04-11T09:23:48Z</time></trkpt><trkpt lat="45.04870710112402" lon="7.886253641055893"><ele>306.4</ele><time>2026-04-11T09:23:50Z</time></trkpt><trkpt lat="45.04870782672891" lon="7.886344257418876"><ele>304.6</ele><time>2026-04-11T09:23:51Z</time></trkpt><trkpt lat="45.0486967014617" lon="7.88651763529025"><ele>302.8</ele><time>2026-04-11T09:23:53Z</time></trkpt><trkpt lat="45.04869870608834" lon="7.886675434585747"><ele>301.0</ele><time>2026-04-11T09:23:55Z</time></trkpt><trkpt lat="45.048696896815585" lon="7.886816739856371"><ele>299.66666666666663</ele><time>2026-04-11T09:23:57Z</time></trkpt><trkpt lat="45.048705871178974" lon="7.886958394836594"><ele>298.3333333333333</ele><time>2026-04-11T09:23:59Z</time></trkpt><trkpt lat="45.04872970447402" lon="7.8870758155977745"><ele>297.0</ele><time>2026-04-11T09:24:01Z</time></trkpt><trkpt lat="45.04872253543314" lon="7.88717376810538"><ele>295.6666666666667</ele><time>2026-04-11T09:24:03Z</time></trkpt><trkpt lat="45.048629987278005" lon="7.887216415773325"><ele>294.33333333333337</ele><time>2026-04-11T09:24:06Z</time></trkpt><trkpt lat="45.04853713174823" lon="7.887203637413558"><ele>293.0</ele><time>2026-04-11T09:24:08Z</time></trkpt><trkpt lat="45.048458733147456" lon="7.887205903263341"><ele>293.0</ele><time>2026-04-11T09:24:10Z</time></trkpt><trkpt lat="45.04837623195871" lon="7.887227102609633"><ele>293.0</ele><time>2026-04-11T09:24:12Z</time></trkpt><trkpt lat="45.04829358123596" lon="7.887240668760822"><ele>293.0</ele><time>2026-04-11T09:24:14Z</time></trkpt><trkpt lat="45.04821715206915" lon="7.887254677408191"><ele>293.0</ele><time>2026-04-11T09:24:16Z</time></trkpt><trkpt lat="45.048149821444" lon="7.8872823738752995"><ele>293.0</ele><time>2026-04-11T09:24:18Z</time></trkpt><trkpt lat="45.04807505721841" lon="7.887292110370809"><ele>293.0</ele><time>2026-04-11T09:24:20Z</time></trkpt><trkpt lat="45.047995237020295" lon="7.887310154444523"><ele>292.5</ele><time>2026-04-11T09:24:22Z</time></trkpt><trkpt lat="45.04791400630648" lon="7.887318227179587"><ele>292.0</ele><time>2026-04-11T09:24:23.999Z</time></trkpt><trkpt lat="45.047826041735796" lon="7.887341293681472"><ele>291.5</ele><time>2026-04-11T09:24:25.999Z</time></trkpt><trkpt lat="45.047738899905475" lon="7.8873470065195646"><ele>291.0</ele><time>2026-04-11T09:24:27.999Z</time></trkpt><trkpt lat="45.04766090460418" lon="7.887363037031979"><ele>290.5</ele><time>2026-04-11T09:24:29.999Z</time></trkpt><trkpt lat="45.04759875396459" lon="7.8873784202428565"><ele>290.0</ele><time>2026-04-11T09:24:31.999Z</time></trkpt><trkpt lat="45.04751352046948" lon="7.887401906414379"><ele>290.33333333333337</ele><time>2026-04-11T09:24:33.999Z</time></trkpt><trkpt lat="45.04743612209166" lon="7.887408675080102"><ele>290.6666666666667</ele><time>2026-04-11T09:24:35.999Z</time></trkpt><trkpt lat="45.04734933431584" lon="7.887413266121801"><ele>291.0</ele><time>2026-04-11T09:24:37.999Z</time></trkpt><trkpt lat="45.04726699198964" lon="7.887430456558855"><ele>291.3333333333333</ele><time>2026-04-11T09:24:39.999Z</time></trkpt><trkpt lat="45.04717963898499" lon="7.887444814481154"><ele>291.66666666666663</ele><time>2026-04-11T09:24:41.999Z</time></trkpt><trkpt lat="45.0470909845289" lon="7.887464304056598"><ele>292.0</ele><time>2026-04-11T09:24:43.999Z</time></trkpt><trkpt lat="45.04700904329565" lon="7.887465451376974"><ele>292.0</ele><time>2026-04-11T09:24:45.999Z</time></trkpt><trkpt lat="45.046920520777746" lon="7.887475936616862"><ele>292.0</ele><time>2026-04-11T09:24:47.999Z</time></trkpt><trkpt lat="45.04682927380844" lon="7.887494852285518"><ele>292.0</ele><time>2026-04-11T09:24:49.999Z</time></trkpt><trkpt lat="45.046744226027094" lon="7.887507874607049"><ele>292.0</ele><time>2026-04-11T09:24:51.999Z</time></trkpt><trkpt lat="45.04666110259568" lon="7.88753446859805"><ele>292.0</ele><time>2026-04-11T09:24:53.999Z</time></trkpt><trkpt lat="45.04658029477349" lon="7.887556453195231"><ele>292.0</ele><time>2026-04-11T09:24:55.999Z</time></trkpt><trkpt lat="45.04650651845026" lon="7.887583955789366"><ele>291.66666666666663</ele><time>2026-04-11T09:24:57.999Z</time></trkpt><trkpt lat="45.04642529962626" lon="7.887616103054788"><ele>291.3333333333333</ele><time>2026-04-11T09:24:59.999Z</time></trkpt><trkpt lat="45.046337447343525" lon="7.887658080367921"><ele>291.0</ele><time>2026-04-11T09:25:01.999Z</time></trkpt><trkpt lat="45.04625790617444" lon="7.887687289562856"><ele>290.6666666666667</ele><time>2026-04-11T09:25:03.999Z</time></trkpt><trkpt lat="45.04617390523852" lon="7.887719569312747"><ele>290.33333333333337</ele><time>2026-04-11T09:25:05.999Z</time></trkpt><trkpt lat="45.046084638838394" lon="7.887757914375287"><ele>290.0</ele><time>2026-04-11T09:25:07.999Z</time></trkpt><trkpt lat="45.04599408462391" lon="7.887790947409442"><ele>290.0</ele><time>2026-04-11T09:25:09.999Z</time></trkpt><trkpt lat="45.04590821308462" lon="7.887818861377084"><ele>290.0</ele><time>2026-04-11T09:25:11.999Z</time></trkpt><trkpt lat="45.045822460005226" lon="7.8878462347022005"><ele>290.0</ele><time>2026-04-11T09:25:13.999Z</time></trkpt><trkpt lat="45.045725654928376" lon="7.887869211486012"><ele>290.0</ele><time>2026-04-11T09:25:15.999Z</time></trkpt><trkpt lat="45.045639713369276" lon="7.887923085725166"><ele>290.0</ele><time>2026-04-11T09:25:17.999Z</time></trkpt><trkpt lat="45.045554985243136" lon="7.887949379260251"><ele>290.6</ele><time>2026-04-11T09:25:19.999Z</time></trkpt><trkpt lat="45.04546200269466" lon="7.88799316978612"><ele>291.2</ele><time>2026-04-11T09:25:21.999Z</time></trkpt><trkpt lat="45.0453768198149" lon="7.888033215551866"><ele>291.8</ele><time>2026-04-11T09:25:23.999Z</time></trkpt><trkpt lat="45.04528876450346" lon="7.888073053217417"><ele>292.4</ele><time>2026-04-11T09:25:25.999Z</time></trkpt><trkpt lat="45.04518744134476" lon="7.888106404262811"><ele>293.0</ele><time>2026-04-11T09:25:27.999Z</time></trkpt><trkpt lat="45.04510507089526" lon="7.8881268357271725"><ele>293.0</ele><time>2026-04-11T09:25:29.999Z</time></trkpt><trkpt lat="45.0450263968029" lon="7.888154207303363"><ele>293.0</ele><time>2026-04-11T09:25:31.999Z</time></trkpt><trkpt lat="45.04493755088761" lon="7.888189425648707"><ele>293.0</ele><time>2026-04-11T09:25:33.999Z</time></trkpt><trkpt lat="45.04485168248548" lon="7.88823225723369"><ele>293.0</ele><time>2026-04-11T09:25:35.999Z</time></trkpt><trkpt lat="45.04476371190598" lon="7.8882678162949516"><ele>293.0</ele><time>2026-04-11T09:25:38Z</time></trkpt><trkpt lat="45.04467940304011" lon="7.888299047798726"><ele>293.0</ele><time>2026-04-11T09:25:40Z</time></trkpt><trkpt lat="45.04459705804521" lon="7.88833068065868"><ele>293.33333333333337</ele><time>2026-04-11T09:25:42Z</time></trkpt><trkpt lat="45.044513581060244" lon="7.888362622962696"><ele>293.6666666666667</ele><time>2026-04-11T09:25:44Z</time></trkpt><trkpt lat="45.0444229380026" lon="7.888394294614111"><ele>294.0</ele><time>2026-04-11T09:25:46Z</time></trkpt><trkpt lat="45.044340273791846" lon="7.888428953327371"><ele>294.3333333333333</ele><time>2026-04-11T09:25:48Z</time></trkpt><trkpt lat="45.044260454804515" lon="7.888462617357432"><ele>294.66666666666663</ele><time>2026-04-11T09:25:50Z</time></trkpt><trkpt lat="45.044180176150256" lon="7.888496897138502"><ele>295.0</ele><time>2026-04-11T09:25:52Z</time></trkpt><trkpt lat="45.044097042339644" lon="7.888535858453061"><ele>293.3333333333333</ele><time>2026-04-11T09:25:54Z</time></trkpt><trkpt lat="45.04403097255931" lon="7.88856679136919"><ele>291.66666666666663</ele><time>2026-04-11T09:25:56Z</time></trkpt><trkpt lat="45.04395594463292" lon="7.88860900304085"><ele>290.0</ele><time>2026-04-11T09:25:59Z</time></trkpt><trkpt lat="45.043929657586766" lon="7.888693913070829"><ele>288.3333333333333</ele><time>2026-04-11T09:26:01Z</time></trkpt><trkpt lat="45.04395475011882" lon="7.888835130667949"><ele>286.6666666666667</ele><time>2026-04-11T09:26:03Z</time></trkpt><trkpt lat="45.043973768980806" lon="7.888929700682285"><ele>285.0</ele><time>2026-04-11T09:26:05Z</time></trkpt><trkpt lat="45.04397231357783" lon="7.8890279196693465"><ele>285.0</ele><time>2026-04-11T09:26:07Z</time></trkpt><trkpt lat="45.043982819359755" lon="7.889122192368171"><ele>285.0</ele><time>2026-04-11T09:26:09Z</time></trkpt><trkpt lat="45.04399911686284" lon="7.889243536935345"><ele>285.0</ele><time>2026-04-11T09:26:12Z</time></trkpt><trkpt lat="45.04403170283419" lon="7.88933146881152"><ele>285.0</ele><time>2026-04-11T09:26:16Z</time></trkpt><trkpt lat="45.04411396586502" lon="7.889324839360013"><ele>285.0</ele><time>2026-04-11T09:26:20Z</time></trkpt><trkpt lat="45.04417155225431" lon="7.8893657950985"><ele>285.0</ele><time>2026-04-11T09:26:24Z</time></trkpt><trkpt lat="45.04419799085411" lon="7.889458903378723"><ele>285.0</ele><time>2026-04-11T09:26:27.999Z</time></trkpt><trkpt lat="45.04421954177725" lon="7.889572628224798"><ele>285.0</ele><time>2026-04-11T09:26:31.999Z</time></trkpt><trkpt lat="45.04424472125233" lon="7.889673881110094"><ele>285.0</ele><time>2026-04-11T09:26:34.999Z</time></trkpt><trkpt lat="45.0442935809072" lon="7.889742850596657"><ele>285.0</ele><time>2026-04-11T09:27:08.999Z</time></trkpt><trkpt lat="45.04433830771535" lon="7.889806170969602"><ele>285.0</ele><time>2026-04-11T09:27:15.999Z</time></trkpt><trkpt lat="45.04438164227539" lon="7.889883241304663"><ele>285.0</ele><time>2026-04-11T09:27:22.999Z</time></trkpt><trkpt lat="45.044428441124815" lon="7.889943024254774"><ele>285.0</ele><time>2026-04-11T09:27:31.999Z</time></trkpt><trkpt lat="45.044453965503905" lon="7.890056051846371"><ele>285.0</ele><time>2026-04-11T09:27:59Z</time></trkpt><trkpt lat="45.044486035653925" lon="7.890138961516599"><ele>285.0</ele><time>2026-04-11T09:28:02Z</time></trkpt><trkpt lat="45.04450924381357" lon="7.890245210519451"><ele>285.0</ele><time>2026-04-11T09:28:05Z</time></trkpt><trkpt lat="45.044535568963134" lon="7.890366428181403"><ele>285.0</ele><time>2026-04-11T09:28:08Z</time></trkpt><trkpt lat="45.04457360704176" lon="7.890482360128946"><ele>285.0</ele><time>2026-04-11T09:28:11Z</time></trkpt><trkpt lat="45.04459552250384" lon="7.890579865635762"><ele>285.0</ele><time>2026-04-11T09:28:13Z</time></trkpt><trkpt lat="45.044621369874754" lon="7.890667081082931"><ele>285.0</ele><time>2026-04-11T09:28:15Z</time></trkpt><trkpt lat="45.04465022290015" lon="7.890797541438913"><ele>285.0</ele><time>2026-04-11T09:28:18Z</time></trkpt><trkpt lat="45.044673748340955" lon="7.890882579662503"><ele>285.0</ele><time>2026-04-11T09:28:20Z</time></trkpt><trkpt lat="45.044701834358136" lon="7.890979566048586"><ele>285.0</ele><time>2026-04-11T09:28:22Z</time></trkpt><trkpt lat="45.04473203860489" lon="7.891071104886051"><ele>285.0</ele><time>2026-04-11T09:28:24Z</time></trkpt><trkpt lat="45.04475182242817" lon="7.891167926594642"><ele>285.0</ele><time>2026-04-11T09:28:26Z</time></trkpt><trkpt lat="45.04477600411902" lon="7.891261595253727"><ele>285.0</ele><time>2026-04-11T09:28:28Z</time></trkpt><trkpt lat="45.04479966980061" lon="7.891354003847074"><ele>285.0</ele><time>2026-04-11T09:28:30Z</time></trkpt><trkpt lat="45.04482113611429" lon="7.891445634530282"><ele>285.0</ele><time>2026-04-11T09:28:32Z</time></trkpt><trkpt lat="45.04485142342407" lon="7.891549972249011"><ele>285.0</ele><time>2026-04-11T09:28:34Z</time></trkpt><trkpt lat="45.0448769558384" lon="7.891662335786333"><ele>285.0</ele><time>2026-04-11T09:28:35.999Z</time></trkpt><trkpt lat="45.04491145914537" lon="7.891768414237597"><ele>285.0</ele><time>2026-04-11T09:28:37.999Z</time></trkpt><trkpt lat="45.044933981883496" lon="7.8918645218467995"><ele>285.0</ele><time>2026-04-11T09:28:39.999Z</time></trkpt><trkpt lat="45.04495345401774" lon="7.89195225578358"><ele>285.0</ele><time>2026-04-11T09:28:41.999Z</time></trkpt><trkpt lat="45.044973408767284" lon="7.892061765990173"><ele>285.3333333333333</ele><time>2026-04-11T09:28:43.999Z</time></trkpt><trkpt lat="45.04500801610563" lon="7.8921715337531655"><ele>285.6666666666667</ele><time>2026-04-11T09:28:45.999Z</time></trkpt><trkpt lat="45.04503170892363" lon="7.892279032553986"><ele>286.0</ele><time>2026-04-11T09:28:47.999Z</time></trkpt><trkpt lat="45.04505677891741" lon="7.89238066855195"><ele>286.33333333333337</ele><time>2026-04-11T09:28:49.999Z</time></trkpt><trkpt lat="45.045079923090185" lon="7.892465447133236"><ele>286.6666666666667</ele><time>2026-04-11T09:28:51.999Z</time></trkpt><trkpt lat="45.04509795333296" lon="7.89255684513318"><ele>287.0</ele><time>2026-04-11T09:28:53.999Z</time></trkpt><trkpt lat="45.04513883150239" lon="7.8926806397838964"><ele>287.5</ele><time>2026-04-11T09:28:56.999Z</time></trkpt><trkpt lat="45.04516662494855" lon="7.892785883441759"><ele>288.0</ele><time>2026-04-11T09:28:58.999Z</time></trkpt><trkpt lat="45.04519304697317" lon="7.892879660284482"><ele>288.5</ele><time>2026-04-11T09:29:00.999Z</time></trkpt><trkpt lat="45.045235910466765" lon="7.89299162707893"><ele>289.0</ele><time>2026-04-11T09:29:03.999Z</time></trkpt><trkpt lat="45.04524874402565" lon="7.893083891653914"><ele>289.5</ele><time>2026-04-11T09:29:05.999Z</time></trkpt><trkpt lat="45.045179537864485" lon="7.893125936517445"><ele>290.0</ele><time>2026-04-11T09:29:08.999Z</time></trkpt><trkpt lat="45.04505636720667" lon="7.893147854512014"><ele>290.0</ele><time>2026-04-11T09:29:10.999Z</time></trkpt><trkpt lat="45.04499104309949" lon="7.8931575797777755"><ele>290.0</ele><time>2026-04-11T09:29:11.999Z</time></trkpt><trkpt lat="45.044863341296804" lon="7.893161588104135"><ele>290.0</ele><time>2026-04-11T09:29:13.999Z</time></trkpt><trkpt lat="45.04479066357217" lon="7.8931932672637775"><ele>290.0</ele><time>2026-04-11T09:29:14.999Z</time></trkpt><trkpt lat="45.044729113405815" lon="7.893251973358324"><ele>290.0</ele><time>2026-04-11T09:29:15.999Z</time></trkpt><trkpt lat="45.044667264279745" lon="7.893306935822871"><ele>290.0</ele><time>2026-04-11T09:29:16.999Z</time></trkpt><trkpt lat="45.0446132480602" lon="7.893356774412571"><ele>289.2857142857143</ele><time>2026-04-11T09:29:17.999Z</time></trkpt><trkpt lat="45.04455919556827" lon="7.8934159797122705"><ele>288.5714285714286</ele><time>2026-04-11T09:29:18.999Z</time></trkpt><trkpt lat="45.04450099020168" lon="7.8934781730674946"><ele>287.8571428571429</ele><time>2026-04-11T09:29:19.999Z</time></trkpt><trkpt lat="45.0444489540876" lon="7.893547001221682"><ele>287.14285714285717</ele><time>2026-04-11T09:29:20.999Z</time></trkpt><trkpt lat="45.04440301781794" lon="7.893614465257477"><ele>286.42857142857144</ele><time>2026-04-11T09:29:21.999Z</time></trkpt><trkpt lat="45.04435852379082" lon="7.893677936881226"><ele>285.7142857142857</ele><time>2026-04-11T09:29:22.999Z</time></trkpt><trkpt lat="45.04430614401267" lon="7.893740511909229"><ele>285.0</ele><time>2026-04-11T09:29:23.999Z</time></trkpt><trkpt lat="45.044283990553076" lon="7.893829411397631"><ele>285.0</ele><time>2026-04-11T09:29:24.999Z</time></trkpt><trkpt lat="45.044206598451446" lon="7.893968544274454"><ele>285.0</ele><time>2026-04-11T09:29:26.999Z</time></trkpt><trkpt lat="45.04418941946732" lon="7.8940636399020105"><ele>285.0</ele><time>2026-04-11T09:29:27.999Z</time></trkpt><trkpt lat="45.044160918780776" lon="7.894144864535146"><ele>285.0</ele><time>2026-04-11T09:29:28.999Z</time></trkpt><trkpt lat="45.044134599429235" lon="7.8942394154212225"><ele>285.0</ele><time>2026-04-11T09:29:29.999Z</time></trkpt><trkpt lat="45.044109085481594" lon="7.894328680513113"><ele>285.0</ele><time>2026-04-11T09:29:30.999Z</time></trkpt><trkpt lat="45.044056852259516" lon="7.894497481690892"><ele>284.8333333333333</ele><time>2026-04-11T09:29:32.999Z</time></trkpt><trkpt lat="45.04403849584574" lon="7.894585893276063"><ele>284.6666666666667</ele><time>2026-04-11T09:29:33.999Z</time></trkpt><trkpt lat="45.044013409088805" lon="7.894684111609755"><ele>284.5</ele><time>2026-04-11T09:29:34.999Z</time></trkpt><trkpt lat="45.043992140097615" lon="7.894770794554779"><ele>284.33333333333337</ele><time>2026-04-11T09:29:35.999Z</time></trkpt><trkpt lat="45.043964374178735" lon="7.8948647275730375"><ele>284.1666666666667</ele><time>2026-04-11T09:29:36.999Z</time></trkpt><trkpt lat="45.04393597778749" lon="7.895022637773353"><ele>284.0</ele><time>2026-04-11T09:29:38.999Z</time></trkpt><trkpt lat="45.04390821259309" lon="7.895193547569146"><ele>284.8</ele><time>2026-04-11T09:29:40.999Z</time></trkpt><trkpt lat="45.04388634640695" lon="7.895339169014781"><ele>285.59999999999997</ele><time>2026-04-11T09:29:42.999Z</time></trkpt><trkpt lat="45.043848885979635" lon="7.895488454259399"><ele>286.4</ele><time>2026-04-11T09:29:44.999Z</time></trkpt><trkpt lat="45.043804861356605" lon="7.89563028198631"><ele>287.2</ele><time>2026-04-11T09:29:46.999Z</time></trkpt><trkpt lat="45.04373590764866" lon="7.895745759381823"><ele>288.0</ele><time>2026-04-11T09:29:49Z</time></trkpt><trkpt lat="45.04367448743561" lon="7.895845336190093"><ele>290.2</ele><time>2026-04-11T09:29:51Z</time></trkpt><trkpt lat="45.04360376835364" lon="7.895942621011942"><ele>292.4</ele><time>2026-04-11T09:29:53Z</time></trkpt><trkpt lat="45.04352091502715" lon="7.896038373273614"><ele>294.59999999999997</ele><time>2026-04-11T09:29:55Z</time></trkpt><trkpt lat="45.043452223773066" lon="7.896107270640056"><ele>296.8</ele><time>2026-04-11T09:29:57Z</time></trkpt><trkpt lat="45.04337374506031" lon="7.896182319158469"><ele>299.0</ele><time>2026-04-11T09:29:59Z</time></trkpt><trkpt lat="45.04331070078813" lon="7.896253858921477"><ele>299.5</ele><time>2026-04-11T09:30:01Z</time></trkpt><trkpt lat="45.04324158969284" lon="7.89630794470478"><ele>300.0</ele><time>2026-04-11T09:30:03Z</time></trkpt><trkpt lat="45.04315257973264" lon="7.896380377539701"><ele>300.5</ele><time>2026-04-11T09:30:06Z</time></trkpt><trkpt lat="45.04307997945858" lon="7.896440634239158"><ele>301.0</ele><time>2026-04-11T09:30:09Z</time></trkpt><trkpt lat="45.043019437474314" lon="7.896512144549354"><ele>301.5</ele><time>2026-04-11T09:30:12Z</time></trkpt><trkpt lat="45.04296623051447" lon="7.8965846337732675"><ele>302.0</ele><time>2026-04-11T09:30:15Z</time></trkpt><trkpt lat="45.0429213379147" lon="7.896668566255776"><ele>302.0</ele><time>2026-04-11T09:30:18Z</time></trkpt><trkpt lat="45.042865665570964" lon="7.896751192959117"><ele>302.0</ele><time>2026-04-11T09:30:21Z</time></trkpt><trkpt lat="45.0428268049752" lon="7.896854962029708"><ele>302.0</ele><time>2026-04-11T09:30:24Z</time></trkpt><trkpt lat="45.04279691408758" lon="7.896960555150686"><ele>302.0</ele><time>2026-04-11T09:30:28Z</time></trkpt><trkpt lat="45.042760046017456" lon="7.8970754509731504"><ele>302.0</ele><time>2026-04-11T09:30:32Z</time></trkpt><trkpt lat="45.04271635957254" lon="7.897163121561933"><ele>302.0</ele><time>2026-04-11T09:30:35Z</time></trkpt><trkpt lat="45.042681813908985" lon="7.897277791341991"><ele>302.4</ele><time>2026-04-11T09:30:39Z</time></trkpt><trkpt lat="45.042616791310735" lon="7.897374551308929"><ele>302.79999999999995</ele><time>2026-04-11T09:30:42Z</time></trkpt><trkpt lat="45.04253284391912" lon="7.897455152471022"><ele>303.2</ele><time>2026-04-11T09:30:48.999Z</time></trkpt><trkpt lat="45.042453733591195" lon="7.897518586932667"><ele>303.59999999999997</ele><time>2026-04-11T09:30:51.999Z</time></trkpt><trkpt lat="45.04236170987931" lon="7.89759095517308"><ele>304.0</ele><time>2026-04-11T09:30:54.999Z</time></trkpt><trkpt lat="45.04230960123438" lon="7.897658285752262"><ele>303.0</ele><time>2026-04-11T09:30:58.999Z</time></trkpt><trkpt lat="45.042217238085136" lon="7.89774069003986"><ele>302.0</ele><time>2026-04-11T09:31:00.999Z</time></trkpt><trkpt lat="45.042128108133916" lon="7.897849084644206"><ele>301.0</ele><time>2026-04-11T09:31:02.999Z</time></trkpt><trkpt lat="45.04202439108847" lon="7.897965124485084"><ele>300.0</ele><time>2026-04-11T09:31:04.999Z</time></trkpt><trkpt lat="45.041945488426066" lon="7.898092184703005"><ele>300.0</ele><time>2026-04-11T09:31:06.999Z</time></trkpt><trkpt lat="45.041894866957506" lon="7.8982115201984415"><ele>300.0</ele><time>2026-04-11T09:31:08.999Z</time></trkpt><trkpt lat="45.041813132224064" lon="7.898358678932255"><ele>300.0</ele><time>2026-04-11T09:31:10.999Z</time></trkpt><trkpt lat="45.04177738635036" lon="7.89845306135177"><ele>300.0</ele><time>2026-04-11T09:31:11.999Z</time></trkpt><trkpt lat="45.04172403664198" lon="7.898594515867648"><ele>300.0</ele><time>2026-04-11T09:31:13.999Z</time></trkpt><trkpt lat="45.04171123419269" lon="7.898741917130089"><ele>299.8</ele><time>2026-04-11T09:31:15.999Z</time></trkpt><trkpt lat="45.04169793756573" lon="7.898900282514282"><ele>299.6</ele><time>2026-04-11T09:31:17.999Z</time></trkpt><trkpt lat="45.04170614958868" lon="7.899045398693678"><ele>299.4</ele><time>2026-04-11T09:31:19.999Z</time></trkpt><trkpt lat="45.04168458672844" lon="7.8991820880741175"><ele>299.2</ele><time>2026-04-11T09:31:21.999Z</time></trkpt><trkpt lat="45.04167186148585" lon="7.899318320238091"><ele>299.0</ele><time>2026-04-11T09:31:23.999Z</time></trkpt><trkpt lat="45.041682909110854" lon="7.899416867110069"><ele>300.0</ele><time>2026-04-11T09:31:26.999Z</time></trkpt><trkpt lat="45.04186102315452" lon="7.8994583616279614"><ele>301.0</ele><time>2026-04-11T09:31:27.999Z</time></trkpt><trkpt lat="45.04206979345425" lon="7.899449880284382"><ele>302.0</ele><time>2026-04-11T09:31:32.999Z</time></trkpt><trkpt lat="45.04225704263916" lon="7.899452753329439"><ele>302.0</ele><time>2026-04-11T09:31:37.999Z</time></trkpt><trkpt lat="45.04232065016902" lon="7.899485382704974"><ele>302.0</ele><time>2026-04-11T09:31:39.999Z</time></trkpt><trkpt lat="45.04237824357373" lon="7.899572043352069"><ele>302.0</ele><time>2026-04-11T09:31:42.999Z</time></trkpt><trkpt lat="45.04242230189849" lon="7.899683300489892"><ele>302.0</ele><time>2026-04-11T09:31:45.999Z</time></trkpt><trkpt lat="45.04247145713917" lon="7.899793596918167"><ele>302.0</ele><time>2026-04-11T09:31:48.999Z</time></trkpt><trkpt lat="45.04250208652297" lon="7.899896276295487"><ele>302.0</ele><time>2026-04-11T09:31:50.999Z</time></trkpt><trkpt lat="45.04253239257501" lon="7.899986540324002"><ele>302.83333333333337</ele><time>2026-04-11T09:31:52.999Z</time></trkpt><trkpt lat="45.04256324258028" lon="7.900083229351863"><ele>303.6666666666667</ele><time>2026-04-11T09:31:55Z</time></trkpt><trkpt lat="45.04261309757592" lon="7.90019915850461"><ele>304.5</ele><time>2026-04-11T09:31:58Z</time></trkpt><trkpt lat="45.04265903478105" lon="7.90027741870275"><ele>305.3333333333333</ele><time>2026-04-11T09:32:00Z</time></trkpt><trkpt lat="45.04270016664042" lon="7.900358845822131"><ele>306.16666666666663</ele><time>2026-04-11T09:32:02Z</time></trkpt><trkpt lat="45.04275015381841" lon="7.900415436628237"><ele>307.0</ele><time>2026-04-11T09:32:05Z</time></trkpt><trkpt lat="45.04279918046565" lon="7.9004987632340145"><ele>307.5</ele><time>2026-04-11T09:32:07Z</time></trkpt><trkpt lat="45.04285964419988" lon="7.900591205899854"><ele>308.0</ele><time>2026-04-11T09:32:10Z</time></trkpt><trkpt lat="45.04290485553579" lon="7.900665051128193"><ele>308.5</ele><time>2026-04-11T09:32:12Z</time></trkpt><trkpt lat="45.04296909857516" lon="7.900711510398005"><ele>309.0</ele><time>2026-04-11T09:32:15Z</time></trkpt><trkpt lat="45.043044475719725" lon="7.900770021679"><ele>309.5</ele><time>2026-04-11T09:32:18Z</time></trkpt><trkpt lat="45.04311903629637" lon="7.900839085352617"><ele>310.0</ele><time>2026-04-11T09:32:21Z</time></trkpt><trkpt lat="45.043192307693786" lon="7.90089417365981"><ele>311.6</ele><time>2026-04-11T09:32:24Z</time></trkpt><trkpt lat="45.04332262608571" lon="7.90096556892239"><ele>313.2</ele><time>2026-04-11T09:32:29Z</time></trkpt><trkpt lat="45.043392844267615" lon="7.901006223563186"><ele>314.8</ele><time>2026-04-11T09:32:32Z</time></trkpt><trkpt lat="45.04346447025795" lon="7.901010583839659"><ele>316.4</ele><time>2026-04-11T09:32:34Z</time></trkpt><trkpt lat="45.04354494918217" lon="7.90107211725463"><ele>318.0</ele><time>2026-04-11T09:32:39Z</time></trkpt><trkpt lat="45.043619393295295" lon="7.901085513807955"><ele>318.0</ele><time>2026-04-11T09:32:42Z</time></trkpt><trkpt lat="45.04366917370986" lon="7.901161226567006"><ele>318.0</ele><time>2026-04-11T09:32:47Z</time></trkpt><trkpt lat="45.04373704151632" lon="7.901169428558447"><ele>318.0</ele><time>2026-04-11T09:32:49.999Z</time></trkpt><trkpt lat="45.043815223214544" lon="7.901208249014478"><ele>318.0</ele><time>2026-04-11T09:32:53.999Z</time></trkpt><trkpt lat="45.04387610449797" lon="7.901265572149674"><ele>318.0</ele><time>2026-04-11T09:32:57.999Z</time></trkpt><trkpt lat="45.043979234450674" lon="7.9013107113555465"><ele>318.0</ele><time>2026-04-11T09:33:01.999Z</time></trkpt><trkpt lat="45.04401511659014" lon="7.901398980975549"><ele>318.0</ele><time>2026-04-11T09:33:05.999Z</time></trkpt><trkpt lat="45.04407018920307" lon="7.901446814071472"><ele>318.0</ele><time>2026-04-11T09:33:08.999Z</time></trkpt><trkpt lat="45.044104201281975" lon="7.9015386630563"><ele>318.0</ele><time>2026-04-11T09:33:11.999Z</time></trkpt><trkpt lat="45.044116119624185" lon="7.901633094427563"><ele>318.0</ele><time>2026-04-11T09:33:13.999Z</time></trkpt><trkpt lat="45.044155923172404" lon="7.901736817860145"><ele>318.0</ele><time>2026-04-11T09:33:15.999Z</time></trkpt><trkpt lat="45.04417802251525" lon="7.901834480802484"><ele>318.0</ele><time>2026-04-11T09:33:17.999Z</time></trkpt><trkpt lat="45.04422396954484" lon="7.90194872740236"><ele>318.57142857142856</ele><time>2026-04-11T09:33:20.999Z</time></trkpt><trkpt lat="45.044260854110476" lon="7.902046450355359"><ele>319.14285714285717</ele><time>2026-04-11T09:33:23.999Z</time></trkpt><trkpt lat="45.044291718075115" lon="7.902124419605284"><ele>319.7142857142857</ele><time>2026-04-11T09:33:28.999Z</time></trkpt><trkpt lat="45.04421724153494" lon="7.9021539482218905"><ele>320.2857142857143</ele><time>2026-04-11T09:33:32.999Z</time></trkpt><trkpt lat="45.04415194759318" lon="7.902156661890386"><ele>320.8571428571429</ele><time>2026-04-11T09:33:34.999Z</time></trkpt><trkpt lat="45.04408700062522" lon="7.90217076177401"><ele>321.42857142857144</ele><time>2026-04-11T09:33:37.999Z</time></trkpt><trkpt lat="45.044018596721145" lon="7.902196464737461"><ele>322.0</ele><time>2026-04-11T09:33:40.999Z</time></trkpt><trkpt lat="45.043944041462225" lon="7.902227307213406"><ele>322.0</ele><time>2026-04-11T09:33:42.999Z</time></trkpt><trkpt lat="45.04386441761824" lon="7.902236098505873"><ele>322.0</ele><time>2026-04-11T09:33:50.999Z</time></trkpt><trkpt lat="45.04379524391451" lon="7.9022585415894255"><ele>322.0</ele><time>2026-04-11T09:33:52.999Z</time></trkpt><trkpt lat="45.04369539464095" lon="7.90229594296688"><ele>322.0</ele><time>2026-04-11T09:33:54.999Z</time></trkpt><trkpt lat="45.04364834479945" lon="7.90240167992763"><ele>322.0</ele><time>2026-04-11T09:33:56.999Z</time></trkpt><trkpt lat="45.04363362376376" lon="7.90250476736574"><ele>322.0</ele><time>2026-04-11T09:33:58.999Z</time></trkpt><trkpt lat="45.04361735567144" lon="7.902626410741897"><ele>322.16666666666663</ele><time>2026-04-11T09:34:02Z</time></trkpt><trkpt lat="45.0435850665763" lon="7.902712845994623"><ele>322.3333333333333</ele><time>2026-04-11T09:34:04Z</time></trkpt><trkpt lat="45.04353576838687" lon="7.9027869138353175"><ele>322.5</ele><time>2026-04-11T09:34:06Z</time></trkpt><trkpt lat="45.04344477082005" lon="7.9027879519700015"><ele>322.6666666666667</ele><time>2026-04-11T09:34:08Z</time></trkpt><trkpt lat="45.04334308263937" lon="7.902786239269128"><ele>322.83333333333337</ele><time>2026-04-11T09:34:10Z</time></trkpt><trkpt lat="45.043262879091515" lon="7.902781321281397"><ele>323.0</ele><time>2026-04-11T09:34:12Z</time></trkpt><trkpt lat="45.043178075063224" lon="7.902817219411195"><ele>321.79999999999995</ele><time>2026-04-11T09:34:14Z</time></trkpt><trkpt lat="45.043119254586905" lon="7.902922379171431"><ele>320.59999999999997</ele><time>2026-04-11T09:34:16Z</time></trkpt><trkpt lat="45.043135805462434" lon="7.9030261451140555"><ele>319.4</ele><time>2026-04-11T09:34:18Z</time></trkpt><trkpt lat="45.04313564911651" lon="7.90314624210704"><ele>318.2</ele><time>2026-04-11T09:34:20Z</time></trkpt><trkpt lat="45.043080245317185" lon="7.903253651796394"><ele>317.0</ele><time>2026-04-11T09:34:22Z</time></trkpt><trkpt lat="45.0429829018358" lon="7.903292150077566"><ele>317.0</ele><time>2026-04-11T09:34:24Z</time></trkpt><trkpt lat="45.04287078733402" lon="7.903304616513534"><ele>317.0</ele><time>2026-04-11T09:34:26Z</time></trkpt><trkpt lat="45.04276301093639" lon="7.903318814425512"><ele>317.0</ele><time>2026-04-11T09:34:28Z</time></trkpt><trkpt lat="45.04268841208585" lon="7.903290347777561"><ele>317.0</ele><time>2026-04-11T09:34:29Z</time></trkpt><trkpt lat="45.04260281992332" lon="7.903310440928421"><ele>317.0</ele><time>2026-04-11T09:34:31Z</time></trkpt><trkpt lat="45.042536424634974" lon="7.903288030648636"><ele>316.6</ele><time>2026-04-11T09:34:33Z</time></trkpt><trkpt lat="45.04245437216112" lon="7.90329875666732"><ele>316.2</ele><time>2026-04-11T09:34:35Z</time></trkpt><trkpt lat="45.04235785338877" lon="7.903292639605464"><ele>315.8</ele><time>2026-04-11T09:34:37Z</time></trkpt><trkpt lat="45.04227006513384" lon="7.903309282493046"><ele>315.4</ele><time>2026-04-11T09:34:39Z</time></trkpt><trkpt lat="45.042186922006294" lon="7.903278028710157"><ele>315.0</ele><time>2026-04-11T09:34:41Z</time></trkpt><trkpt lat="45.04207955993105" lon="7.903254314218968"><ele>315.0</ele><time>2026-04-11T09:34:43Z</time></trkpt><trkpt lat="45.04195313713194" lon="7.903225206563835"><ele>315.0</ele><time>2026-04-11T09:34:45Z</time></trkpt><trkpt lat="45.04188499119685" lon="7.903214769650159"><ele>315.0</ele><time>2026-04-11T09:34:46Z</time></trkpt><trkpt lat="45.04177002669621" lon="7.9032142941203345"><ele>315.0</ele><time>2026-04-11T09:34:48Z</time></trkpt><trkpt lat="45.041631536370495" lon="7.903228580759243"><ele>314.6</ele><time>2026-04-11T09:34:50Z</time></trkpt><trkpt lat="45.04151651078525" lon="7.903242599064802"><ele>314.2</ele><time>2026-04-11T09:34:52Z</time></trkpt><trkpt lat="45.04140176921319" lon="7.903263702202788"><ele>313.8</ele><time>2026-04-11T09:34:54Z</time></trkpt><trkpt lat="45.04129664874809" lon="7.90330099153976"><ele>313.4</ele><time>2026-04-11T09:34:55.999Z</time></trkpt><trkpt lat="45.041232079233545" lon="7.903308936244107"><ele>313.0</ele><time>2026-04-11T09:34:56.999Z</time></trkpt><trkpt lat="45.04116910520842" lon="7.903318247350968"><ele>313.0</ele><time>2026-04-11T09:34:57.999Z</time></trkpt><trkpt lat="45.04106941020587" lon="7.9033367054298544"><ele>313.0</ele><time>2026-04-11T09:34:59.999Z</time></trkpt><trkpt lat="45.04093079872562" lon="7.903327429629854"><ele>313.0</ele><time>2026-04-11T09:35:01.999Z</time></trkpt><trkpt lat="45.040797104629824" lon="7.903368007724689"><ele>313.0</ele><time>2026-04-11T09:35:03.999Z</time></trkpt><trkpt lat="45.04071684765149" lon="7.903373742770829"><ele>311.6</ele><time>2026-04-11T09:35:04.999Z</time></trkpt><trkpt lat="45.040617452811084" lon="7.903418739337041"><ele>310.20000000000005</ele><time>2026-04-11T09:35:05.999Z</time></trkpt><trkpt lat="45.040522091861476" lon="7.903446453667317"><ele>308.8</ele><time>2026-04-11T09:35:06.999Z</time></trkpt><trkpt lat="45.040418781350944" lon="7.903476478427502"><ele>307.40000000000003</ele><time>2026-04-11T09:35:07.999Z</time></trkpt><trkpt lat="45.040300695021074" lon="7.903510797631586"><ele>306.0</ele><time>2026-04-11T09:35:08.999Z</time></trkpt><trkpt lat="45.04017940622361" lon="7.90354843723715"><ele>306.0</ele><time>2026-04-11T09:35:09.999Z</time></trkpt><trkpt lat="45.04005462729311" lon="7.903587013684707"><ele>306.0</ele><time>2026-04-11T09:35:10.999Z</time></trkpt><trkpt lat="45.03992495185929" lon="7.90362710739666"><ele>306.0</ele><time>2026-04-11T09:35:11.999Z</time></trkpt><trkpt lat="45.0398476822922" lon="7.903648740166992"><ele>306.0</ele><time>2026-04-11T09:35:12.999Z</time></trkpt><trkpt lat="45.039695827049265" lon="7.903690999897806"><ele>303.75</ele><time>2026-04-11T09:35:14.999Z</time></trkpt><trkpt lat="45.03954602658538" lon="7.903731148848677"><ele>301.5</ele><time>2026-04-11T09:35:15.999Z</time></trkpt><trkpt lat="45.0394482824016" lon="7.903757345863298"><ele>299.25</ele><time>2026-04-11T09:35:16.999Z</time></trkpt><trkpt lat="45.039348826329665" lon="7.903785962400878"><ele>297.0</ele><time>2026-04-11T09:35:17.999Z</time></trkpt><trkpt lat="45.039247390438334" lon="7.903816978123177"><ele>297.0</ele><time>2026-04-11T09:35:18.999Z</time></trkpt><trkpt lat="45.03914491822597" lon="7.903848310715283"><ele>297.0</ele><time>2026-04-11T09:35:19.999Z</time></trkpt><trkpt lat="45.039044883303404" lon="7.9038788980319925"><ele>297.0</ele><time>2026-04-11T09:35:20.999Z</time></trkpt><trkpt lat="45.03893087788479" lon="7.903892299929358"><ele>297.0</ele><time>2026-04-11T09:35:21.999Z</time></trkpt><trkpt lat="45.03883871903441" lon="7.903928338616651"><ele>297.0</ele><time>2026-04-11T09:35:22.999Z</time></trkpt><trkpt lat="45.038759546065705" lon="7.903947739585902"><ele>297.0</ele><time>2026-04-11T09:35:23.999Z</time></trkpt><trkpt lat="45.03869172874778" lon="7.903969450047384"><ele>297.0</ele><time>2026-04-11T09:35:24.999Z</time></trkpt><trkpt lat="45.03861299755765" lon="7.903992687311543"><ele>297.0</ele><time>2026-04-11T09:35:25.999Z</time></trkpt><trkpt lat="45.03853393596447" lon="7.90401724823795"><ele>297.0</ele><time>2026-04-11T09:35:26.999Z</time></trkpt><trkpt lat="45.03845286228104" lon="7.904040497762014"><ele>297.0</ele><time>2026-04-11T09:35:27.999Z</time></trkpt><trkpt lat="45.038378896314676" lon="7.904065059460489"><ele>297.0</ele><time>2026-04-11T09:35:28.999Z</time></trkpt><trkpt lat="45.038304662295495" lon="7.904084582175692"><ele>296.6666666666667</ele><time>2026-04-11T09:35:29.999Z</time></trkpt><trkpt lat="45.03823934537681" lon="7.904106033350514"><ele>296.3333333333333</ele><time>2026-04-11T09:35:30.999Z</time></trkpt><trkpt lat="45.03812372730346" lon="7.904139740718378"><ele>296.0</ele><time>2026-04-11T09:35:32.999Z</time></trkpt><trkpt lat="45.038056624405115" lon="7.90414806716984"><ele>295.66666666666663</ele><time>2026-04-11T09:35:38.999Z</time></trkpt><trkpt lat="45.03799569047806" lon="7.9042098045925275"><ele>295.3333333333333</ele><time>2026-04-11T09:35:41.999Z</time></trkpt><trkpt lat="45.03792675669021" lon="7.904292383114952"><ele>295.0</ele><time>2026-04-11T09:35:43.999Z</time></trkpt><trkpt lat="45.03782925219371" lon="7.904360953550806"><ele>294.8</ele><time>2026-04-11T09:35:45.999Z</time></trkpt><trkpt lat="45.0377416846701" lon="7.904432189479017"><ele>294.6</ele><time>2026-04-11T09:35:47.999Z</time></trkpt><trkpt lat="45.03764870406348" lon="7.9045260750509705"><ele>294.4</ele><time>2026-04-11T09:35:49.999Z</time></trkpt><trkpt lat="45.037568766460566" lon="7.904592192732293"><ele>294.2</ele><time>2026-04-11T09:35:51.999Z</time></trkpt><trkpt lat="45.03747043089473" lon="7.904665167746949"><ele>294.0</ele><time>2026-04-11T09:35:53.999Z</time></trkpt><trkpt lat="45.037377754815815" lon="7.904696746119618"><ele>294.0</ele><time>2026-04-11T09:35:55.999Z</time></trkpt><trkpt lat="45.037282580083726" lon="7.904714971424739"><ele>294.0</ele><time>2026-04-11T09:35:57.999Z</time></trkpt><trkpt lat="45.037185992657726" lon="7.904735814002489"><ele>294.0</ele><time>2026-04-11T09:35:59.999Z</time></trkpt><trkpt lat="45.03708422298732" lon="7.904703536193613"><ele>294.0</ele><time>2026-04-11T09:36:01.999Z</time></trkpt><trkpt lat="45.036998763264144" lon="7.904689351688187"><ele>294.0</ele><time>2026-04-11T09:36:03.999Z</time></trkpt><trkpt lat="45.03691195990953" lon="7.904660096165399"><ele>294.0</ele><time>2026-04-11T09:36:05.999Z</time></trkpt><trkpt lat="45.03682948054074" lon="7.904626338004977"><ele>294.0</ele><time>2026-04-11T09:36:08Z</time></trkpt><trkpt lat="45.03673758598481" lon="7.904629081534728"><ele>294.0</ele><time>2026-04-11T09:36:10Z</time></trkpt><trkpt lat="45.036647483026115" lon="7.904581710144687"><ele>294.0</ele><time>2026-04-11T09:36:12Z</time></trkpt><trkpt lat="45.03657997885261" lon="7.904562909603312"><ele>294.0</ele><time>2026-04-11T09:36:13Z</time></trkpt><trkpt lat="45.03647541262733" lon="7.904528047882739"><ele>294.4</ele><time>2026-04-11T09:36:15Z</time></trkpt><trkpt lat="45.03638577039746" lon="7.90450880427307"><ele>294.79999999999995</ele><time>2026-04-11T09:36:17Z</time></trkpt><trkpt lat="45.03629482641119" lon="7.90450052665759"><ele>295.20000000000005</ele><time>2026-04-11T09:36:19Z</time></trkpt><trkpt lat="45.03620934560334" lon="7.904504581785864"><ele>295.6</ele><time>2026-04-11T09:36:21Z</time></trkpt><trkpt lat="45.03610685678101" lon="7.904508939638576"><ele>296.0</ele><time>2026-04-11T09:36:23Z</time></trkpt><trkpt lat="45.036011588901275" lon="7.904517794401861"><ele>296.0</ele><time>2026-04-11T09:36:25Z</time></trkpt><trkpt lat="45.03591617202161" lon="7.904532468756187"><ele>296.0</ele><time>2026-04-11T09:36:27Z</time></trkpt><trkpt lat="45.03582626266576" lon="7.904532780623944"><ele>296.0</ele><time>2026-04-11T09:36:29Z</time></trkpt><trkpt lat="45.03573555167121" lon="7.904543605820452"><ele>296.0</ele><time>2026-04-11T09:36:31Z</time></trkpt><trkpt lat="45.03563468015946" lon="7.904535338649935"><ele>296.0</ele><time>2026-04-11T09:36:33Z</time></trkpt><trkpt lat="45.03552754558204" lon="7.904521061019182"><ele>295.40000000000003</ele><time>2026-04-11T09:36:35Z</time></trkpt><trkpt lat="45.035418937798745" lon="7.904487203605791"><ele>294.8</ele><time>2026-04-11T09:36:37Z</time></trkpt><trkpt lat="45.035318200238116" lon="7.9044278502790055"><ele>294.20000000000005</ele><time>2026-04-11T09:36:39Z</time></trkpt><trkpt lat="45.03523024587294" lon="7.904350210163609"><ele>293.6</ele><time>2026-04-11T09:36:41Z</time></trkpt><trkpt lat="45.0351205042328" lon="7.9042795666938135"><ele>293.0</ele><time>2026-04-11T09:36:43Z</time></trkpt><trkpt lat="45.0350248318022" lon="7.904188902916199"><ele>292.6</ele><time>2026-04-11T09:36:45Z</time></trkpt><trkpt lat="45.03493111586232" lon="7.904105811404394"><ele>292.20000000000005</ele><time>2026-04-11T09:36:47Z</time></trkpt><trkpt lat="45.034825573781085" lon="7.904032508640235"><ele>291.8</ele><time>2026-04-11T09:36:49Z</time></trkpt><trkpt lat="45.03473719140386" lon="7.903970725423793"><ele>291.40000000000003</ele><time>2026-04-11T09:36:51Z</time></trkpt><trkpt lat="45.034648031693266" lon="7.9039060746985275"><ele>291.0</ele><time>2026-04-11T09:36:53Z</time></trkpt><trkpt lat="45.0345523102428" lon="7.903850056509214"><ele>291.0</ele><time>2026-04-11T09:36:55Z</time></trkpt><trkpt lat="45.03445992933293" lon="7.903796013043393"><ele>291.0</ele><time>2026-04-11T09:36:57Z</time></trkpt><trkpt lat="45.034351709932" lon="7.903768571497559"><ele>291.0</ele><time>2026-04-11T09:36:58.999Z</time></trkpt><trkpt lat="45.034262259106605" lon="7.9037356016932705"><ele>291.0</ele><time>2026-04-11T09:37:00.999Z</time></trkpt><trkpt lat="45.034168992952225" lon="7.903714560081445"><ele>291.0</ele><time>2026-04-11T09:37:02.999Z</time></trkpt><trkpt lat="45.0341057921366" lon="7.903715407182045"><ele>292.0</ele><time>2026-04-11T09:37:03.999Z</time></trkpt><trkpt lat="45.03401131699063" lon="7.903695854289057"><ele>293.0</ele><time>2026-04-11T09:37:05.999Z</time></trkpt><trkpt lat="45.03391478199207" lon="7.903698156834462"><ele>294.0</ele><time>2026-04-11T09:37:07.999Z</time></trkpt><trkpt lat="45.03381686000372" lon="7.90372243353022"><ele>295.0</ele><time>2026-04-11T09:37:09.999Z</time></trkpt><trkpt lat="45.03371908360221" lon="7.903742935757253"><ele>296.0</ele><time>2026-04-11T09:37:11.999Z</time></trkpt><trkpt lat="45.03362895904869" lon="7.903821596439599"><ele>296.0</ele><time>2026-04-11T09:37:13.999Z</time></trkpt><trkpt lat="45.033557045677576" lon="7.90388366276609"><ele>296.0</ele><time>2026-04-11T09:37:15.999Z</time></trkpt><trkpt lat="45.033475864240586" lon="7.90394802828255"><ele>296.0</ele><time>2026-04-11T09:37:17.999Z</time></trkpt><trkpt lat="45.03339624706126" lon="7.904014576842489"><ele>296.0</ele><time>2026-04-11T09:37:19.999Z</time></trkpt><trkpt lat="45.03331502421237" lon="7.9040945933745075"><ele>296.0</ele><time>2026-04-11T09:37:21.999Z</time></trkpt><trkpt lat="45.03323371439568" lon="7.904160598200015"><ele>296.2</ele><time>2026-04-11T09:37:23.999Z</time></trkpt><trkpt lat="45.03315899019633" lon="7.904241336565485"><ele>296.40000000000003</ele><time>2026-04-11T09:37:25.999Z</time></trkpt><trkpt lat="45.03308050057849" lon="7.9043152766968765"><ele>296.6</ele><time>2026-04-11T09:37:27.999Z</time></trkpt><trkpt lat="45.03300423062377" lon="7.904387653039819"><ele>296.8</ele><time>2026-04-11T09:37:29.999Z</time></trkpt><trkpt lat="45.03292937508627" lon="7.904475445241847"><ele>297.0</ele><time>2026-04-11T09:37:31.999Z</time></trkpt><trkpt lat="45.03285338659085" lon="7.904560242896502"><ele>298.3333333333333</ele><time>2026-04-11T09:37:33.999Z</time></trkpt><trkpt lat="45.03278066047304" lon="7.904640507691117"><ele>299.6666666666667</ele><time>2026-04-11T09:37:35.999Z</time></trkpt><trkpt lat="45.03272063718666" lon="7.904735598315805"><ele>301.0</ele><time>2026-04-11T09:37:37.999Z</time></trkpt><trkpt lat="45.03265103308656" lon="7.90480462460302"><ele>302.33333333333337</ele><time>2026-04-11T09:37:39.999Z</time></trkpt><trkpt lat="45.03259574105702" lon="7.904880232034117"><ele>303.6666666666667</ele><time>2026-04-11T09:37:41.999Z</time></trkpt><trkpt lat="45.032534712801514" lon="7.904955826417655"><ele>305.0</ele><time>2026-04-11T09:37:43.999Z</time></trkpt><trkpt lat="45.03249398193755" lon="7.9050501646369655"><ele>305.6666666666667</ele><time>2026-04-11T09:37:45.999Z</time></trkpt><trkpt lat="45.03246497311939" lon="7.9051415785943995"><ele>306.33333333333337</ele><time>2026-04-11T09:37:47.999Z</time></trkpt><trkpt lat="45.03241922645125" lon="7.905238409109317"><ele>307.0</ele><time>2026-04-11T09:37:50.999Z</time></trkpt><trkpt lat="45.03238576697588" lon="7.905322384241321"><ele>307.6666666666667</ele><time>2026-04-11T09:37:52.999Z</time></trkpt><trkpt lat="45.032331786267335" lon="7.905410884084367"><ele>308.3333333333333</ele><time>2026-04-11T09:37:55.999Z</time></trkpt><trkpt lat="45.03226706993025" lon="7.90549253946376"><ele>309.0</ele><time>2026-04-11T09:37:58.999Z</time></trkpt><trkpt lat="45.03220905733706" lon="7.905590621734808"><ele>309.0</ele><time>2026-04-11T09:38:00.999Z</time></trkpt><trkpt lat="45.03213586780915" lon="7.90563687729089"><ele>309.0</ele><time>2026-04-11T09:38:03.999Z</time></trkpt><trkpt lat="45.0320538686815" lon="7.90572189842493"><ele>309.0</ele><time>2026-04-11T09:38:06.999Z</time></trkpt><trkpt lat="45.03199091293339" lon="7.905762099416146"><ele>309.0</ele><time>2026-04-11T09:38:11.999Z</time></trkpt><trkpt lat="45.03192187417685" lon="7.905783254258059"><ele>309.0</ele><time>2026-04-11T09:38:16Z</time></trkpt><trkpt lat="45.031833002505614" lon="7.905799083001678"><ele>309.0</ele><time>2026-04-11T09:38:19Z</time></trkpt><trkpt lat="45.031750619937" lon="7.9057979656837825"><ele>309.0</ele><time>2026-04-11T09:38:22Z</time></trkpt><trkpt lat="45.031681051623075" lon="7.905787101010361"><ele>309.0</ele><time>2026-04-11T09:38:25Z</time></trkpt><trkpt lat="45.031606982362945" lon="7.905809599058392"><ele>309.0</ele><time>2026-04-11T09:38:26Z</time></trkpt><trkpt lat="45.03149820899662" lon="7.905793830143999"><ele>309.0</ele><time>2026-04-11T09:38:28Z</time></trkpt><trkpt lat="45.03141664763447" lon="7.90579218119864"><ele>309.0</ele><time>2026-04-11T09:38:30Z</time></trkpt><trkpt lat="45.03135181884592" lon="7.9057820144518285"><ele>309.0</ele><time>2026-04-11T09:38:31Z</time></trkpt><trkpt lat="45.03128726470892" lon="7.905767709177259"><ele>308.8333333333333</ele><time>2026-04-11T09:38:33Z</time></trkpt><trkpt lat="45.0312008272588" lon="7.905740132781874"><ele>308.6666666666667</ele><time>2026-04-11T09:38:35Z</time></trkpt><trkpt lat="45.03109329632188" lon="7.905732476549149"><ele>308.5</ele><time>2026-04-11T09:38:37Z</time></trkpt><trkpt lat="45.031021272944365" lon="7.905701050831685"><ele>308.33333333333337</ele><time>2026-04-11T09:38:39Z</time></trkpt><trkpt lat="45.03095416943134" lon="7.905686841368003"><ele>308.1666666666667</ele><time>2026-04-11T09:38:41Z</time></trkpt><trkpt lat="45.03088160889441" lon="7.9056518390378745"><ele>308.0</ele><time>2026-04-11T09:38:43Z</time></trkpt><trkpt lat="45.030796285156185" lon="7.905626676923835"><ele>308.0</ele><time>2026-04-11T09:38:45Z</time></trkpt><trkpt lat="45.03070013951882" lon="7.905604537555711"><ele>308.0</ele><time>2026-04-11T09:38:47Z</time></trkpt><trkpt lat="45.030585749105796" lon="7.905586024079626"><ele>308.0</ele><time>2026-04-11T09:38:49Z</time></trkpt><trkpt lat="45.03051784770565" lon="7.9055745332343115"><ele>308.0</ele><time>2026-04-11T09:38:50Z</time></trkpt><trkpt lat="45.030391749136754" lon="7.905535966676523"><ele>308.0</ele><time>2026-04-11T09:38:52Z</time></trkpt><trkpt lat="45.0303274739047" lon="7.905524983486548"><ele>308.0</ele><time>2026-04-11T09:38:53Z</time></trkpt><trkpt lat="45.03025988913364" lon="7.9055240254488455"><ele>308.0</ele><time>2026-04-11T09:38:54Z</time></trkpt><trkpt lat="45.03019527197887" lon="7.905507254942833"><ele>308.0</ele><time>2026-04-11T09:38:55Z</time></trkpt><trkpt lat="45.03013274748127" lon="7.905485195610763"><ele>308.0</ele><time>2026-04-11T09:38:56Z</time></trkpt><trkpt lat="45.03003541508988" lon="7.905459301228001"><ele>308.0</ele><time>2026-04-11T09:38:58Z</time></trkpt><trkpt lat="45.02996314308287" lon="7.9054444574781035"><ele>308.0</ele><time>2026-04-11T09:39:00Z</time></trkpt><trkpt lat="45.02991201960673" lon="7.905622306047963"><ele>307.0</ele><time>2026-04-11T09:39:03Z</time></trkpt><trkpt lat="45.02987693814229" lon="7.905738909761686"><ele>306.0</ele><time>2026-04-11T09:39:04.999Z</time></trkpt><trkpt lat="45.02984938045555" lon="7.90588791964195"><ele>305.0</ele><time>2026-04-11T09:39:06.999Z</time></trkpt><trkpt lat="45.029804077114186" lon="7.906054067504391"><ele>304.0</ele><time>2026-04-11T09:39:08.999Z</time></trkpt><trkpt lat="45.02976118875216" lon="7.906199708977764"><ele>303.0</ele><time>2026-04-11T09:39:10.999Z</time></trkpt><trkpt lat="45.02971048545116" lon="7.9063463334610375"><ele>302.0</ele><time>2026-04-11T09:39:12.999Z</time></trkpt><trkpt lat="45.029681653235805" lon="7.906427975303914"><ele>301.0</ele><time>2026-04-11T09:39:13.999Z</time></trkpt><trkpt lat="45.0296463841733" lon="7.906569528052146"><ele>300.0</ele><time>2026-04-11T09:39:15.999Z</time></trkpt><trkpt lat="45.02960734834663" lon="7.906715833215172"><ele>299.0</ele><time>2026-04-11T09:39:17.999Z</time></trkpt><trkpt lat="45.02958457039054" lon="7.906799009290018"><ele>298.0</ele><time>2026-04-11T09:39:18.999Z</time></trkpt><trkpt lat="45.02953803324861" lon="7.906955896310144"><ele>297.8</ele><time>2026-04-11T09:39:20.999Z</time></trkpt><trkpt lat="45.029488665833455" lon="7.907050096930637"><ele>297.6</ele><time>2026-04-11T09:39:21.999Z</time></trkpt><trkpt lat="45.029439731834664" lon="7.907122831891703"><ele>297.4</ele><time>2026-04-11T09:39:22.999Z</time></trkpt><trkpt lat="45.0293421213469" lon="7.907227687343822"><ele>297.2</ele><time>2026-04-11T09:39:24.999Z</time></trkpt><trkpt lat="45.02923599099932" lon="7.907292012748455"><ele>297.0</ele><time>2026-04-11T09:39:26.999Z</time></trkpt><trkpt lat="45.02916333919322" lon="7.907327878724193"><ele>296.4</ele><time>2026-04-11T09:39:28.999Z</time></trkpt><trkpt lat="45.02908056322087" lon="7.907359784616346"><ele>295.79999999999995</ele><time>2026-04-11T09:39:30.999Z</time></trkpt><trkpt lat="45.028992002298565" lon="7.90738751260683"><ele>295.2</ele><time>2026-04-11T09:39:32.999Z</time></trkpt><trkpt lat="45.02888917655133" lon="7.9073789272834745"><ele>294.59999999999997</ele><time>2026-04-11T09:39:34.999Z</time></trkpt><trkpt lat="45.02878336564744" lon="7.9073806671463"><ele>294.0</ele><time>2026-04-11T09:39:36.999Z</time></trkpt><trkpt lat="45.02867532965829" lon="7.907407314133013"><ele>294.0</ele><time>2026-04-11T09:39:38.999Z</time></trkpt><trkpt lat="45.02856276194975" lon="7.907429719860474"><ele>294.0</ele><time>2026-04-11T09:39:40.999Z</time></trkpt><trkpt lat="45.02847041731336" lon="7.907473010029285"><ele>294.0</ele><time>2026-04-11T09:39:42.999Z</time></trkpt><trkpt lat="45.028369997338196" lon="7.907525679404589"><ele>294.0</ele><time>2026-04-11T09:39:44.999Z</time></trkpt><trkpt lat="45.02828598278099" lon="7.907565097694545"><ele>294.0</ele><time>2026-04-11T09:39:46.999Z</time></trkpt><trkpt lat="45.02819879651092" lon="7.90759918398995"><ele>293.59999999999997</ele><time>2026-04-11T09:39:48.999Z</time></trkpt><trkpt lat="45.02810392683163" lon="7.907629666023884"><ele>293.2</ele><time>2026-04-11T09:39:50.999Z</time></trkpt><trkpt lat="45.02801394206758" lon="7.9076662816192504"><ele>292.79999999999995</ele><time>2026-04-11T09:39:52.999Z</time></trkpt><trkpt lat="45.02791251254348" lon="7.907689464381577"><ele>292.4</ele><time>2026-04-11T09:39:54.999Z</time></trkpt><trkpt lat="45.02779725448538" lon="7.907674325820548"><ele>292.0</ele><time>2026-04-11T09:39:56.999Z</time></trkpt><trkpt lat="45.027684849189164" lon="7.907669676921112"><ele>292.0</ele><time>2026-04-11T09:39:58.999Z</time></trkpt><trkpt lat="45.027568017966146" lon="7.907664954109618"><ele>292.0</ele><time>2026-04-11T09:40:00.999Z</time></trkpt><trkpt lat="45.027459599673946" lon="7.907656170563744"><ele>292.0</ele><time>2026-04-11T09:40:02.999Z</time></trkpt><trkpt lat="45.02734167081817" lon="7.907647397172735"><ele>292.0</ele><time>2026-04-11T09:40:04.999Z</time></trkpt><trkpt lat="45.02722993443972" lon="7.907643895513596"><ele>291.8</ele><time>2026-04-11T09:40:06.999Z</time></trkpt><trkpt lat="45.027109056716284" lon="7.907628210988696"><ele>291.6</ele><time>2026-04-11T09:40:08.999Z</time></trkpt><trkpt lat="45.02698687952715" lon="7.907629045253486"><ele>291.40000000000003</ele><time>2026-04-11T09:40:10.999Z</time></trkpt><trkpt lat="45.02687324028023" lon="7.907594777522197"><ele>291.2</ele><time>2026-04-11T09:40:12.999Z</time></trkpt><trkpt lat="45.02680877769398" lon="7.907588942326927"><ele>291.0</ele><time>2026-04-11T09:40:13.999Z</time></trkpt><trkpt lat="45.026690171908776" lon="7.9075663729332595"><ele>290.6666666666667</ele><time>2026-04-11T09:40:15.999Z</time></trkpt><trkpt lat="45.026565669524544" lon="7.907535898040263"><ele>290.3333333333333</ele><time>2026-04-11T09:40:17.999Z</time></trkpt><trkpt lat="45.02649884365156" lon="7.907519772936581"><ele>290.0</ele><time>2026-04-11T09:40:19Z</time></trkpt><trkpt lat="45.02643143212307" lon="7.9075001938041956"><ele>289.66666666666663</ele><time>2026-04-11T09:40:20Z</time></trkpt><trkpt lat="45.02636459070215" lon="7.907483144318546"><ele>289.3333333333333</ele><time>2026-04-11T09:40:21Z</time></trkpt><trkpt lat="45.026293053440426" lon="7.90745533656141"><ele>289.0</ele><time>2026-04-11T09:40:22Z</time></trkpt><trkpt lat="45.0262229409922" lon="7.90743332548522"><ele>289.0</ele><time>2026-04-11T09:40:23Z</time></trkpt><trkpt lat="45.02616477949199" lon="7.9073903125044875"><ele>289.0</ele><time>2026-04-11T09:40:24Z</time></trkpt><trkpt lat="45.026096840361674" lon="7.9073698062725075"><ele>289.0</ele><time>2026-04-11T09:40:25Z</time></trkpt><trkpt lat="45.026029093349344" lon="7.907349963965734"><ele>289.0</ele><time>2026-04-11T09:40:26Z</time></trkpt><trkpt lat="45.02596643548764" lon="7.907324359952166"><ele>289.0</ele><time>2026-04-11T09:40:27Z</time></trkpt><trkpt lat="45.02583458880027" lon="7.9072691148816885"><ele>289.0</ele><time>2026-04-11T09:40:29Z</time></trkpt><trkpt lat="45.025727845395615" lon="7.907197956434988"><ele>288.4</ele><time>2026-04-11T09:40:31Z</time></trkpt><trkpt lat="45.025604149181014" lon="7.907153482206328"><ele>287.79999999999995</ele><time>2026-04-11T09:40:33Z</time></trkpt><trkpt lat="45.02554168995583" lon="7.907128236840551"><ele>287.20000000000005</ele><time>2026-04-11T09:40:34Z</time></trkpt><trkpt lat="45.025419641620736" lon="7.907083015836975"><ele>286.6</ele><time>2026-04-11T09:40:36Z</time></trkpt><trkpt lat="45.025359981040815" lon="7.9070522217108"><ele>286.0</ele><time>2026-04-11T09:40:37Z</time></trkpt><trkpt lat="45.02528868237385" lon="7.907022524529289"><ele>286.0</ele><time>2026-04-11T09:40:38Z</time></trkpt><trkpt lat="45.02522015032832" lon="7.906988466894516"><ele>286.0</ele><time>2026-04-11T09:40:39Z</time></trkpt><trkpt lat="45.02515760454195" lon="7.9069631034223065"><ele>286.0</ele><time>2026-04-11T09:40:40Z</time></trkpt><trkpt lat="45.02508137696884" lon="7.9069331665296705"><ele>286.0</ele><time>2026-04-11T09:40:41Z</time></trkpt><trkpt lat="45.024999517435354" lon="7.906926026790769"><ele>286.0</ele><time>2026-04-11T09:40:42Z</time></trkpt><trkpt lat="45.02492814497619" lon="7.906874927677114"><ele>286.0</ele><time>2026-04-11T09:40:43Z</time></trkpt><trkpt lat="45.024847399519125" lon="7.906850545384365"><ele>285.5</ele><time>2026-04-11T09:40:44Z</time></trkpt><trkpt lat="45.02476391425714" lon="7.906834035005414"><ele>285.0</ele><time>2026-04-11T09:40:45Z</time></trkpt><trkpt lat="45.02467285952716" lon="7.906808828333976"><ele>284.5</ele><time>2026-04-11T09:40:46Z</time></trkpt><trkpt lat="45.02458634324187" lon="7.906786396265275"><ele>284.0</ele><time>2026-04-11T09:40:47Z</time></trkpt><trkpt lat="45.02450539804966" lon="7.906774446007409"><ele>283.5</ele><time>2026-04-11T09:40:48Z</time></trkpt><trkpt lat="45.024428724458716" lon="7.906770688032009"><ele>283.0</ele><time>2026-04-11T09:40:49Z</time></trkpt><trkpt lat="45.02435152767971" lon="7.906765722408332"><ele>283.16666666666663</ele><time>2026-04-11T09:40:50Z</time></trkpt><trkpt lat="45.02427114588961" lon="7.9067217413663675"><ele>283.3333333333333</ele><time>2026-04-11T09:40:51Z</time></trkpt><trkpt lat="45.024192653401165" lon="7.906702004577468"><ele>283.5</ele><time>2026-04-11T09:40:52Z</time></trkpt><trkpt lat="45.02410357359951" lon="7.906690218986148"><ele>283.6666666666667</ele><time>2026-04-11T09:40:53Z</time></trkpt><trkpt lat="45.02401450836565" lon="7.90668598076058"><ele>283.83333333333337</ele><time>2026-04-11T09:40:54Z</time></trkpt><trkpt lat="45.02392969604344" lon="7.906675914066481"><ele>284.0</ele><time>2026-04-11T09:40:55Z</time></trkpt><trkpt lat="45.0238509162218" lon="7.906663300694397"><ele>284.1666666666667</ele><time>2026-04-11T09:40:56Z</time></trkpt><trkpt lat="45.023776580519964" lon="7.906648764334706"><ele>284.33333333333337</ele><time>2026-04-11T09:40:57Z</time></trkpt><trkpt lat="45.023702097964815" lon="7.906639969366314"><ele>284.5</ele><time>2026-04-11T09:40:58Z</time></trkpt><trkpt lat="45.023631079040776" lon="7.906624633326831"><ele>284.6666666666667</ele><time>2026-04-11T09:40:59Z</time></trkpt><trkpt lat="45.02355218194439" lon="7.906614634377419"><ele>284.8333333333333</ele><time>2026-04-11T09:41:00Z</time></trkpt><trkpt lat="45.02347487679641" lon="7.906599101847516"><ele>285.0</ele><time>2026-04-11T09:41:01Z</time></trkpt><trkpt lat="45.02340174590505" lon="7.906564251488809"><ele>285.0</ele><time>2026-04-11T09:41:02Z</time></trkpt><trkpt lat="45.023332281511045" lon="7.906550745398035"><ele>285.0</ele><time>2026-04-11T09:41:03Z</time></trkpt><trkpt lat="45.023258360559936" lon="7.906536372809847"><ele>285.0</ele><time>2026-04-11T09:41:04Z</time></trkpt><trkpt lat="45.02318791466476" lon="7.906522675883087"><ele>285.0</ele><time>2026-04-11T09:41:05Z</time></trkpt><trkpt lat="45.0231212892722" lon="7.906509721784008"><ele>285.0</ele><time>2026-04-11T09:41:06Z</time></trkpt><trkpt lat="45.023050062496154" lon="7.906495873028016"><ele>285.0</ele><time>2026-04-11T09:41:07Z</time></trkpt><trkpt lat="45.02298371809737" lon="7.906482985666994"><ele>285.0</ele><time>2026-04-11T09:41:08Z</time></trkpt><trkpt lat="45.022912459341384" lon="7.906469144140213"><ele>285.0</ele><time>2026-04-11T09:41:08.999Z</time></trkpt><trkpt lat="45.02277880232861" lon="7.906443182181106"><ele>285.0</ele><time>2026-04-11T09:41:10.999Z</time></trkpt><trkpt lat="45.02271317454973" lon="7.9064304344326715"><ele>285.0</ele><time>2026-04-11T09:41:11.999Z</time></trkpt><trkpt lat="45.022597032063395" lon="7.906407874547871"><ele>285.0</ele><time>2026-04-11T09:41:13.999Z</time></trkpt><trkpt lat="45.022482945114255" lon="7.906386406479401"><ele>285.0</ele><time>2026-04-11T09:41:15.999Z</time></trkpt><trkpt lat="45.022367964167685" lon="7.906365242060488"><ele>284.5</ele><time>2026-04-11T09:41:17.999Z</time></trkpt><trkpt lat="45.02226276701011" lon="7.906345878539324"><ele>284.0</ele><time>2026-04-11T09:41:19.999Z</time></trkpt><trkpt lat="45.02218374518255" lon="7.9063311496601845"><ele>283.5</ele><time>2026-04-11T09:41:21.999Z</time></trkpt><trkpt lat="45.02211511243706" lon="7.906569358170966"><ele>283.0</ele><time>2026-04-11T09:41:25.999Z</time></trkpt><trkpt lat="45.02209423019579" lon="7.906721130844371"><ele>282.5</ele><time>2026-04-11T09:41:27.999Z</time></trkpt><trkpt lat="45.022083215105624" lon="7.906816948868104"><ele>282.0</ele><time>2026-04-11T09:41:28.999Z</time></trkpt><trkpt lat="45.02208391084362" lon="7.906910362810073"><ele>281.5</ele><time>2026-04-11T09:41:29.999Z</time></trkpt><trkpt lat="45.022067047033204" lon="7.906998073553893"><ele>281.0</ele><time>2026-04-11T09:41:30.999Z</time></trkpt><trkpt lat="45.02203913044139" lon="7.90717084023724"><ele>280.5</ele><time>2026-04-11T09:41:32.999Z</time></trkpt><trkpt lat="45.022030254572456" lon="7.9072657045420645"><ele>280.0</ele><time>2026-04-11T09:41:33.999Z</time></trkpt><trkpt lat="45.02202800635838" lon="7.9073609523345665"><ele>280.0</ele><time>2026-04-11T09:41:34.999Z</time></trkpt><trkpt lat="45.02201852583495" lon="7.907452401916116"><ele>280.0</ele><time>2026-04-11T09:41:35.999Z</time></trkpt><trkpt lat="45.02201338970436" lon="7.907542118860604"><ele>280.0</ele><time>2026-04-11T09:41:36.999Z</time></trkpt><trkpt lat="45.02200313508153" lon="7.90763011440758"><ele>280.0</ele><time>2026-04-11T09:41:37.999Z</time></trkpt><trkpt lat="45.021998247460914" lon="7.907723100304852"><ele>280.0</ele><time>2026-04-11T09:41:38.999Z</time></trkpt><trkpt lat="45.02198604704256" lon="7.907812127532839"><ele>280.0</ele><time>2026-04-11T09:41:39.999Z</time></trkpt><trkpt lat="45.02198332977786" lon="7.907907806970785"><ele>280.0</ele><time>2026-04-11T09:41:40.999Z</time></trkpt><trkpt lat="45.02196531679159" lon="7.907995348854846"><ele>279.85714285714283</ele><time>2026-04-11T09:41:41.999Z</time></trkpt><trkpt lat="45.02195606910182" lon="7.90808760416263"><ele>279.7142857142857</ele><time>2026-04-11T09:41:42.999Z</time></trkpt><trkpt lat="45.02194573372372" lon="7.9081834243232825"><ele>279.57142857142856</ele><time>2026-04-11T09:41:43.999Z</time></trkpt><trkpt lat="45.02193559357584" lon="7.908277434483492"><ele>279.42857142857144</ele><time>2026-04-11T09:41:44.999Z</time></trkpt><trkpt lat="45.02192581519551" lon="7.908368090670602"><ele>279.2857142857143</ele><time>2026-04-11T09:41:45.999Z</time></trkpt><trkpt lat="45.021915382482845" lon="7.908464813223894"><ele>279.1428571428571</ele><time>2026-04-11T09:41:46.999Z</time></trkpt><trkpt lat="45.021905434752085" lon="7.908557039462918"><ele>279.0</ele><time>2026-04-11T09:41:47.999Z</time></trkpt><trkpt lat="45.02189565810266" lon="7.908647679607488"><ele>278.8333333333333</ele><time>2026-04-11T09:41:48.999Z</time></trkpt><trkpt lat="45.02188648988668" lon="7.908743022517813"><ele>278.6666666666667</ele><time>2026-04-11T09:41:49.999Z</time></trkpt><trkpt lat="45.02187585758595" lon="7.908913840000297"><ele>278.5</ele><time>2026-04-11T09:41:51.999Z</time></trkpt><trkpt lat="45.021858220524635" lon="7.909079671500063"><ele>278.33333333333337</ele><time>2026-04-11T09:41:53.999Z</time></trkpt><trkpt lat="45.021844997764944" lon="7.909170011436506"><ele>278.1666666666667</ele><time>2026-04-11T09:41:54.999Z</time></trkpt><trkpt lat="45.02182986219208" lon="7.909263214627763"><ele>278.0</ele><time>2026-04-11T09:41:55.999Z</time></trkpt><trkpt lat="45.021785673006534" lon="7.909430371264603"><ele>278.0</ele><time>2026-04-11T09:41:57.999Z</time></trkpt><trkpt lat="45.02175824945493" lon="7.909511181865503"><ele>278.0</ele><time>2026-04-11T09:41:58.999Z</time></trkpt><trkpt lat="45.02171971414176" lon="7.909667493479026"><ele>278.0</ele><time>2026-04-11T09:42:00.999Z</time></trkpt><trkpt lat="45.02170309115249" lon="7.909754100032826"><ele>278.0</ele><time>2026-04-11T09:42:01.999Z</time></trkpt><trkpt lat="45.021647338604396" lon="7.9099132793887685"><ele>278.0</ele><time>2026-04-11T09:42:03.999Z</time></trkpt><trkpt lat="45.02162496194157" lon="7.90999977889553"><ele>278.0</ele><time>2026-04-11T09:42:04.999Z</time></trkpt><trkpt lat="45.021601054249295" lon="7.910094153690948"><ele>277.6666666666667</ele><time>2026-04-11T09:42:05.999Z</time></trkpt><trkpt lat="45.021576466825245" lon="7.910186349996462"><ele>277.33333333333337</ele><time>2026-04-11T09:42:06.999Z</time></trkpt><trkpt lat="45.021538781736005" lon="7.9102602295542725"><ele>277.0</ele><time>2026-04-11T09:42:07.999Z</time></trkpt><trkpt lat="45.021493019807224" lon="7.910404004745983"><ele>276.6666666666667</ele><time>2026-04-11T09:42:09.999Z</time></trkpt><trkpt lat="45.02144179256603" lon="7.910570796766141"><ele>276.3333333333333</ele><time>2026-04-11T09:42:11.999Z</time></trkpt><trkpt lat="45.021415907233646" lon="7.910661425271057"><ele>276.0</ele><time>2026-04-11T09:42:12.999Z</time></trkpt><trkpt lat="45.02141625223114" lon="7.910828409021077"><ele>276.2</ele><time>2026-04-11T09:42:14.999Z</time></trkpt><trkpt lat="45.021436897245316" lon="7.910971657111401"><ele>276.40000000000003</ele><time>2026-04-11T09:42:16.999Z</time></trkpt><trkpt lat="45.02145429089546" lon="7.911127649071302"><ele>276.6</ele><time>2026-04-11T09:42:18.999Z</time></trkpt><trkpt lat="45.021452692793545" lon="7.911297554758738"><ele>276.8</ele><time>2026-04-11T09:42:20.999Z</time></trkpt><trkpt lat="45.02145136262268" lon="7.911454427994881"><ele>277.0</ele><time>2026-04-11T09:42:22.999Z</time></trkpt><trkpt lat="45.021455588812785" lon="7.9116133769810535"><ele>278.2</ele><time>2026-04-11T09:42:25Z</time></trkpt><trkpt lat="45.0214626881021" lon="7.911743394029503"><ele>279.4</ele><time>2026-04-11T09:42:27Z</time></trkpt><trkpt lat="45.02144461711447" lon="7.911905095412787"><ele>280.6</ele><time>2026-04-11T09:42:29Z</time></trkpt><trkpt lat="45.021458676287374" lon="7.9120306309882205"><ele>281.8</ele><time>2026-04-11T09:42:31Z</time></trkpt><trkpt lat="45.02145489575977" lon="7.9121619542089725"><ele>283.0</ele><time>2026-04-11T09:42:33Z</time></trkpt><trkpt lat="45.02143694089471" lon="7.912311703021996"><ele>283.0</ele><time>2026-04-11T09:42:35Z</time></trkpt><trkpt lat="45.02139971489766" lon="7.912443028818931"><ele>283.0</ele><time>2026-04-11T09:42:37Z</time></trkpt><trkpt lat="45.02136722512522" lon="7.912575946146594"><ele>283.0</ele><time>2026-04-11T09:42:39Z</time></trkpt><trkpt lat="45.021345639974435" lon="7.9126832659785284"><ele>283.0</ele><time>2026-04-11T09:42:41Z</time></trkpt><trkpt lat="45.02131641137645" lon="7.912843530255435"><ele>283.0</ele><time>2026-04-11T09:42:43Z</time></trkpt><trkpt lat="45.02131082945374" lon="7.912954944543533"><ele>282.8333333333333</ele><time>2026-04-11T09:42:45Z</time></trkpt><trkpt lat="45.021303269562125" lon="7.913095830316375"><ele>282.66666666666663</ele><time>2026-04-11T09:42:47Z</time></trkpt><trkpt lat="45.02129317061222" lon="7.913227653620622"><ele>282.5</ele><time>2026-04-11T09:42:49Z</time></trkpt><trkpt lat="45.02127637621877" lon="7.913355825969287"><ele>282.3333333333333</ele><time>2026-04-11T09:42:51Z</time></trkpt><trkpt lat="45.02124824809216" lon="7.9134689335562545"><ele>282.1666666666667</ele><time>2026-04-11T09:42:53Z</time></trkpt><trkpt lat="45.02121574338727" lon="7.913566379217459"><ele>282.0</ele><time>2026-04-11T09:42:55Z</time></trkpt><trkpt lat="45.0211633572557" lon="7.913710009349509"><ele>282.0</ele><time>2026-04-11T09:42:57Z</time></trkpt><trkpt lat="45.02112027303347" lon="7.913838635456762"><ele>282.0</ele><time>2026-04-11T09:42:59Z</time></trkpt><trkpt lat="45.02111318439621" lon="7.913967126863714"><ele>282.0</ele><time>2026-04-11T09:43:01Z</time></trkpt><trkpt lat="45.02108179581368" lon="7.914118008497165"><ele>282.0</ele><time>2026-04-11T09:43:03Z</time></trkpt><trkpt lat="45.02106210070831" lon="7.9142487229535385"><ele>282.0</ele><time>2026-04-11T09:43:05Z</time></trkpt><trkpt lat="45.02105522212935" lon="7.914365911036968"><ele>281.8333333333333</ele><time>2026-04-11T09:43:07Z</time></trkpt><trkpt lat="45.02105176360945" lon="7.914474290855346"><ele>281.6666666666667</ele><time>2026-04-11T09:43:09Z</time></trkpt><trkpt lat="45.0210469051872" lon="7.91458726615045"><ele>281.5</ele><time>2026-04-11T09:43:11Z</time></trkpt><trkpt lat="45.02105727684693" lon="7.914730258527534"><ele>281.33333333333337</ele><time>2026-04-11T09:43:14Z</time></trkpt><trkpt lat="45.02105062334231" lon="7.9148244884052845"><ele>281.1666666666667</ele><time>2026-04-11T09:43:16Z</time></trkpt><trkpt lat="45.02105942750891" lon="7.914916564515999"><ele>281.0</ele><time>2026-04-11T09:43:18Z</time></trkpt><trkpt lat="45.021075546592726" lon="7.915050399470687"><ele>281.1666666666667</ele><time>2026-04-11T09:43:19.999Z</time></trkpt><trkpt lat="45.02106100162841" lon="7.915158888884224"><ele>281.33333333333337</ele><time>2026-04-11T09:43:21.999Z</time></trkpt><trkpt lat="45.02106268453841" lon="7.91529445745177"><ele>281.5</ele><time>2026-04-11T09:43:23.999Z</time></trkpt><trkpt lat="45.02106582414406" lon="7.915389117905578"><ele>281.6666666666667</ele><time>2026-04-11T09:43:24.999Z</time></trkpt><trkpt lat="45.02107046465021" lon="7.915529031220301"><ele>281.8333333333333</ele><time>2026-04-11T09:43:26.999Z</time></trkpt><trkpt lat="45.02105927405092" lon="7.915672662041099"><ele>282.0</ele><time>2026-04-11T09:43:28.999Z</time></trkpt><trkpt lat="45.021060803142035" lon="7.915792931186779"><ele>282.0</ele><time>2026-04-11T09:43:30.999Z</time></trkpt><trkpt lat="45.02107428577792" lon="7.915902639600045"><ele>282.0</ele><time>2026-04-11T09:43:32.999Z</time></trkpt><trkpt lat="45.021071303400475" lon="7.91604121763192"><ele>282.0</ele><time>2026-04-11T09:43:34.999Z</time></trkpt><trkpt lat="45.02106918182267" lon="7.916157371294632"><ele>282.0</ele><time>2026-04-11T09:43:36.999Z</time></trkpt><trkpt lat="45.021083386089195" lon="7.916280140794365"><ele>282.0</ele><time>2026-04-11T09:43:38.999Z</time></trkpt><trkpt lat="45.021082736078746" lon="7.916379156660689"><ele>282.0</ele><time>2026-04-11T09:43:40.999Z</time></trkpt><trkpt lat="45.02108135528049" lon="7.91648851418263"><ele>283.0</ele><time>2026-04-11T09:43:42.999Z</time></trkpt><trkpt lat="45.02107033355457" lon="7.916608495737584"><ele>284.0</ele><time>2026-04-11T09:43:44.999Z</time></trkpt><trkpt lat="45.02104005337391" lon="7.91674393726136"><ele>285.0</ele><time>2026-04-11T09:43:46.999Z</time></trkpt><trkpt lat="45.020995742979196" lon="7.916890706715637"><ele>286.0</ele><time>2026-04-11T09:43:48.999Z</time></trkpt><trkpt lat="45.02096906035639" lon="7.917016465218547"><ele>287.0</ele><time>2026-04-11T09:43:50.999Z</time></trkpt><trkpt lat="45.02096762010401" lon="7.917148834040169"><ele>287.0</ele><time>2026-04-11T09:43:52.999Z</time></trkpt><trkpt lat="45.02093964509685" lon="7.917233500805513"><ele>287.0</ele><time>2026-04-11T09:43:57.999Z</time></trkpt><trkpt lat="45.020858011484826" lon="7.917277817367253"><ele>287.0</ele><time>2026-04-11T09:44:01.999Z</time></trkpt><trkpt lat="45.020786282651784" lon="7.917292768878244"><ele>287.0</ele><time>2026-04-11T09:44:04.999Z</time></trkpt><trkpt lat="45.02071282489063" lon="7.917292488714885"><ele>287.0</ele><time>2026-04-11T09:44:07.999Z</time></trkpt><trkpt lat="45.02074832020778" lon="7.9173826788307125"><ele>287.0</ele><time>2026-04-11T09:44:20.999Z</time></trkpt><trkpt lat="45.0206760520269" lon="7.917403094735213"><ele>287.0</ele><time>2026-04-11T09:46:05.999Z</time></trkpt><trkpt lat="45.02060021684347" lon="7.917463781704779"><ele>287.0</ele><time>2026-04-11T09:46:08.999Z</time></trkpt><trkpt lat="45.02054606115865" lon="7.917550506176325"><ele>287.0</ele><time>2026-04-11T09:46:10.999Z</time></trkpt><trkpt lat="45.02052714112116" lon="7.917666545747496"><ele>287.0</ele><time>2026-04-11T09:46:12.999Z</time></trkpt><trkpt lat="45.020507288861516" lon="7.917790140936806"><ele>287.0</ele><time>2026-04-11T09:46:14.999Z</time></trkpt><trkpt lat="45.020502344365426" lon="7.91794060194869"><ele>287.0</ele><time>2026-04-11T09:46:16.999Z</time></trkpt><trkpt lat="45.020494632184246" lon="7.918087024308011"><ele>287.0</ele><time>2026-04-11T09:46:18.999Z</time></trkpt><trkpt lat="45.02048304277724" lon="7.918227856960192"><ele>287.0</ele><time>2026-04-11T09:46:20.999Z</time></trkpt><trkpt lat="45.02046638952225" lon="7.918377599364482"><ele>287.0</ele><time>2026-04-11T09:46:22.999Z</time></trkpt><trkpt lat="45.02045347314684" lon="7.9185345239422436"><ele>287.0</ele><time>2026-04-11T09:46:24.999Z</time></trkpt><trkpt lat="45.020441645905166" lon="7.918703782954053"><ele>287.0</ele><time>2026-04-11T09:46:26.999Z</time></trkpt><trkpt lat="45.0204296146737" lon="7.918867871016879"><ele>286.4</ele><time>2026-04-11T09:46:28.999Z</time></trkpt><trkpt lat="45.02041707950254" lon="7.919019636463626"><ele>285.79999999999995</ele><time>2026-04-11T09:46:30.999Z</time></trkpt><trkpt lat="45.020399268467855" lon="7.9191596306575445"><ele>285.2</ele><time>2026-04-11T09:46:32.999Z</time></trkpt><trkpt lat="45.020391426050466" lon="7.919302751697463"><ele>284.59999999999997</ele><time>2026-04-11T09:46:34.999Z</time></trkpt><trkpt lat="45.02037846570713" lon="7.9194337367180125"><ele>284.0</ele><time>2026-04-11T09:46:37Z</time></trkpt><trkpt lat="45.020371645021996" lon="7.919550555239999"><ele>284.0</ele><time>2026-04-11T09:46:39Z</time></trkpt><trkpt lat="45.020368833345664" lon="7.919666988536868"><ele>284.0</ele><time>2026-04-11T09:46:41Z</time></trkpt><trkpt lat="45.020359861802" lon="7.919781736210952"><ele>284.0</ele><time>2026-04-11T09:46:43Z</time></trkpt><trkpt lat="45.02035429968287" lon="7.9198984877694665"><ele>284.0</ele><time>2026-04-11T09:46:45Z</time></trkpt><trkpt lat="45.02035430975643" lon="7.920000844250196"><ele>284.0</ele><time>2026-04-11T09:46:47Z</time></trkpt><trkpt lat="45.02034490850044" lon="7.920097700744726"><ele>284.0</ele><time>2026-04-11T09:46:49Z</time></trkpt><trkpt lat="45.02032450345816" lon="7.920193570049637"><ele>284.0</ele><time>2026-04-11T09:46:51Z</time></trkpt><trkpt lat="45.020333076572896" lon="7.920295919276139"><ele>284.0</ele><time>2026-04-11T09:46:53Z</time></trkpt><trkpt lat="45.02033919341476" lon="7.920428118204582"><ele>284.0</ele><time>2026-04-11T09:46:56Z</time></trkpt><trkpt lat="45.020339257542204" lon="7.920525980649229"><ele>284.0</ele><time>2026-04-11T09:46:58Z</time></trkpt><trkpt lat="45.02034533085747" lon="7.920659263411046"><ele>284.0</ele><time>2026-04-11T09:47:01Z</time></trkpt><trkpt lat="45.020347795063934" lon="7.920781679561483"><ele>284.0</ele><time>2026-04-11T09:47:04Z</time></trkpt><trkpt lat="45.02035194959098" lon="7.920895370447442"><ele>285.0</ele><time>2026-04-11T09:47:07Z</time></trkpt><trkpt lat="45.02034196629717" lon="7.921019690088354"><ele>286.0</ele><time>2026-04-11T09:47:10Z</time></trkpt><trkpt lat="45.02034853402107" lon="7.921112902110955"><ele>287.0</ele><time>2026-04-11T09:47:12Z</time></trkpt><trkpt lat="45.020351719332325" lon="7.921240534887742"><ele>288.0</ele><time>2026-04-11T09:47:15Z</time></trkpt><trkpt lat="45.02034779481245" lon="7.921334832828781"><ele>289.0</ele><time>2026-04-11T09:47:18Z</time></trkpt><trkpt lat="45.020350317516616" lon="7.921450770115051"><ele>290.0</ele><time>2026-04-11T09:47:21Z</time></trkpt><trkpt lat="45.020334506474164" lon="7.921568930226948"><ele>290.0</ele><time>2026-04-11T09:47:23.999Z</time></trkpt><trkpt lat="45.020326269005146" lon="7.921691332446343"><ele>290.0</ele><time>2026-04-11T09:47:26.999Z</time></trkpt><trkpt lat="45.020321196563394" lon="7.921805637606424"><ele>290.0</ele><time>2026-04-11T09:47:30.999Z</time></trkpt><trkpt lat="45.0203158812314" lon="7.921943108380063"><ele>290.0</ele><time>2026-04-11T09:47:33.999Z</time></trkpt><trkpt lat="45.02031650384894" lon="7.922075921918255"><ele>290.0</ele><time>2026-04-11T09:47:37.999Z</time></trkpt><trkpt lat="45.02030117133438" lon="7.9221630971212145"><ele>290.0</ele><time>2026-04-11T09:47:39.999Z</time></trkpt><trkpt lat="45.02028437070855" lon="7.922282566847175"><ele>290.1666666666667</ele><time>2026-04-11T09:47:43.999Z</time></trkpt><trkpt lat="45.02026716344845" lon="7.92237795011607"><ele>290.33333333333337</ele><time>2026-04-11T09:47:45.999Z</time></trkpt><trkpt lat="45.02024622325291" lon="7.922512057298442"><ele>290.5</ele><time>2026-04-11T09:47:48.999Z</time></trkpt><trkpt lat="45.02022116789018" lon="7.922612270947366"><ele>290.6666666666667</ele><time>2026-04-11T09:47:51.999Z</time></trkpt><trkpt lat="45.02020646228812" lon="7.922755770672179"><ele>290.8333333333333</ele><time>2026-04-11T09:47:54.999Z</time></trkpt><trkpt lat="45.02018479096512" lon="7.9228991234291435"><ele>291.0</ele><time>2026-04-11T09:47:57.999Z</time></trkpt><trkpt lat="45.0201849616884" lon="7.923020063283984"><ele>291.0</ele><time>2026-04-11T09:48:00.999Z</time></trkpt><trkpt lat="45.02018313769152" lon="7.9231483697591525"><ele>291.0</ele><time>2026-04-11T09:48:02.999Z</time></trkpt><trkpt lat="45.0201571990322" lon="7.923284336417312"><ele>291.0</ele><time>2026-04-11T09:48:05.999Z</time></trkpt><trkpt lat="45.020163207642454" lon="7.923397254734668"><ele>291.0</ele><time>2026-04-11T09:48:07.999Z</time></trkpt><trkpt lat="45.02016207422128" lon="7.923510850279828"><ele>291.0</ele><time>2026-04-11T09:48:09.999Z</time></trkpt><trkpt lat="45.02015318477573" lon="7.923630592135726"><ele>291.0</ele><time>2026-04-11T09:48:11.999Z</time></trkpt><trkpt lat="45.020181596916295" lon="7.9237371266784695"><ele>290.8</ele><time>2026-04-11T09:48:13.999Z</time></trkpt><trkpt lat="45.020180316661445" lon="7.9238496447364355"><ele>290.6</ele><time>2026-04-11T09:48:15.999Z</time></trkpt><trkpt lat="45.02019198606332" lon="7.923958350653288"><ele>290.4</ele><time>2026-04-11T09:48:17.999Z</time></trkpt><trkpt lat="45.02021899128891" lon="7.924103054161982"><ele>290.2</ele><time>2026-04-11T09:48:19.999Z</time></trkpt><trkpt lat="45.02025301859648" lon="7.924243421358076"><ele>290.0</ele><time>2026-04-11T09:48:21.999Z</time></trkpt><trkpt lat="45.02029867068241" lon="7.924354550269436"><ele>289.6</ele><time>2026-04-11T09:48:23.999Z</time></trkpt><trkpt lat="45.020318913289145" lon="7.924501003622199"><ele>289.2</ele><time>2026-04-11T09:48:25.999Z</time></trkpt><trkpt lat="45.02031704896996" lon="7.924662191683094"><ele>288.8</ele><time>2026-04-11T09:48:27.999Z</time></trkpt><trkpt lat="45.020314888543275" lon="7.924803167279952"><ele>288.4</ele><time>2026-04-11T09:48:29.999Z</time></trkpt><trkpt lat="45.020320807062696" lon="7.9249251747670355"><ele>288.0</ele><time>2026-04-11T09:48:31.999Z</time></trkpt><trkpt lat="45.02030893372812" lon="7.925084368978488"><ele>287.8</ele><time>2026-04-11T09:48:33.999Z</time></trkpt><trkpt lat="45.02029668136954" lon="7.925229325193928"><ele>287.6</ele><time>2026-04-11T09:48:35.999Z</time></trkpt><trkpt lat="45.02027742981549" lon="7.92535139695946"><ele>287.4</ele><time>2026-04-11T09:48:37.999Z</time></trkpt><trkpt lat="45.02026731842826" lon="7.925442057383483"><ele>287.2</ele><time>2026-04-11T09:48:38.999Z</time></trkpt><trkpt lat="45.02026299520301" lon="7.92556486547229"><ele>287.0</ele><time>2026-04-11T09:48:40.999Z</time></trkpt><trkpt lat="45.020238392528384" lon="7.925715043169416"><ele>287.0</ele><time>2026-04-11T09:48:43Z</time></trkpt><trkpt lat="45.02021979313665" lon="7.925827906662543"><ele>287.0</ele><time>2026-04-11T09:48:44Z</time></trkpt><trkpt lat="45.02017840247706" lon="7.925947718845266"><ele>287.0</ele><time>2026-04-11T09:48:46Z</time></trkpt><trkpt lat="45.02013681581758" lon="7.9260851107983825"><ele>287.0</ele><time>2026-04-11T09:48:48Z</time></trkpt><trkpt lat="45.02009427226749" lon="7.926209223363507"><ele>287.0</ele><time>2026-04-11T09:48:50Z</time></trkpt><trkpt lat="45.02005545991023" lon="7.926363743391752"><ele>286.8</ele><time>2026-04-11T09:48:52Z</time></trkpt><trkpt lat="45.020023005292046" lon="7.926505285796649"><ele>286.6</ele><time>2026-04-11T09:48:54Z</time></trkpt><trkpt lat="45.019992542910266" lon="7.926650184496349"><ele>286.40000000000003</ele><time>2026-04-11T09:48:56Z</time></trkpt><trkpt lat="45.01998606290897" lon="7.926765968891793"><ele>286.2</ele><time>2026-04-11T09:48:58Z</time></trkpt><trkpt lat="45.01996943551944" lon="7.92686395809724"><ele>286.0</ele><time>2026-04-11T09:49:00Z</time></trkpt><trkpt lat="45.019950200718036" lon="7.926986969952819"><ele>285.66666666666663</ele><time>2026-04-11T09:49:02Z</time></trkpt><trkpt lat="45.019941801181844" lon="7.927091105662534"><ele>285.3333333333333</ele><time>2026-04-11T09:49:04Z</time></trkpt><trkpt lat="45.01992318881593" lon="7.927209536256823"><ele>285.0</ele><time>2026-04-11T09:49:06Z</time></trkpt><trkpt lat="45.01991278513274" lon="7.927318323889174"><ele>284.6666666666667</ele><time>2026-04-11T09:49:08Z</time></trkpt><trkpt lat="45.019917575333764" lon="7.927451942966241"><ele>284.33333333333337</ele><time>2026-04-11T09:49:10Z</time></trkpt><trkpt lat="45.019900250400134" lon="7.927539340044242"><ele>284.0</ele><time>2026-04-11T09:49:12Z</time></trkpt><trkpt lat="45.01990911959315" lon="7.927667638414413"><ele>283.6666666666667</ele><time>2026-04-11T09:49:20Z</time></trkpt><trkpt lat="45.019905470175075" lon="7.92777277042439"><ele>283.33333333333337</ele><time>2026-04-11T09:49:23Z</time></trkpt><trkpt lat="45.019902490872646" lon="7.927903396592248"><ele>283.0</ele><time>2026-04-11T09:49:26Z</time></trkpt><trkpt lat="45.01990301979468" lon="7.927998197457017"><ele>282.6666666666667</ele><time>2026-04-11T09:49:28Z</time></trkpt><trkpt lat="45.01986946200636" lon="7.928112721351018"><ele>282.3333333333333</ele><time>2026-04-11T09:49:30Z</time></trkpt><trkpt lat="45.01986957619319" lon="7.92823697030197"><ele>282.0</ele><time>2026-04-11T09:49:32Z</time></trkpt><trkpt lat="45.019872212597015" lon="7.928357219973791"><ele>282.2</ele><time>2026-04-11T09:49:34Z</time></trkpt><trkpt lat="45.019871992090444" lon="7.928483232107918"><ele>282.4</ele><time>2026-04-11T09:49:36Z</time></trkpt><trkpt lat="45.01985858869036" lon="7.928621176507285"><ele>282.6</ele><time>2026-04-11T09:49:37.999Z</time></trkpt><trkpt lat="45.01986150581064" lon="7.9287456421233085"><ele>282.8</ele><time>2026-04-11T09:49:39.999Z</time></trkpt><trkpt lat="45.01985946823652" lon="7.928890899230687"><ele>283.0</ele><time>2026-04-11T09:49:41.999Z</time></trkpt><trkpt lat="45.019881941579754" lon="7.929012698416733"><ele>283.0</ele><time>2026-04-11T09:49:43.999Z</time></trkpt><trkpt lat="45.019902683066135" lon="7.929119175275468"><ele>283.0</ele><time>2026-04-11T09:49:45.999Z</time></trkpt><trkpt lat="45.019920868137255" lon="7.929235905167637"><ele>283.0</ele><time>2026-04-11T09:49:47.999Z</time></trkpt><trkpt lat="45.01994613831935" lon="7.929357985888822"><ele>283.0</ele><time>2026-04-11T09:49:49.999Z</time></trkpt><trkpt lat="45.01997010476031" lon="7.929481370471598"><ele>283.0</ele><time>2026-04-11T09:49:51.999Z</time></trkpt><trkpt lat="45.02000638481394" lon="7.929592658295444"><ele>283.0</ele><time>2026-04-11T09:49:53.999Z</time></trkpt><trkpt lat="45.020031561385665" lon="7.929709703963416"><ele>283.16666666666663</ele><time>2026-04-11T09:49:55.999Z</time></trkpt><trkpt lat="45.02006914979111" lon="7.9298242875101606"><ele>283.3333333333333</ele><time>2026-04-11T09:49:57.999Z</time></trkpt><trkpt lat="45.02010964412302" lon="7.929940233363392"><ele>283.5</ele><time>2026-04-11T09:49:59.999Z</time></trkpt><trkpt lat="45.020127622989335" lon="7.930063880814842"><ele>283.6666666666667</ele><time>2026-04-11T09:50:01.999Z</time></trkpt><trkpt lat="45.02016238760248" lon="7.930163615089553"><ele>283.83333333333337</ele><time>2026-04-11T09:50:03.999Z</time></trkpt><trkpt lat="45.020166898012754" lon="7.930290760172749"><ele>284.0</ele><time>2026-04-11T09:50:05.999Z</time></trkpt><trkpt lat="45.020162025724325" lon="7.930426530052794"><ele>284.0</ele><time>2026-04-11T09:50:07.999Z</time></trkpt><trkpt lat="45.02015818732796" lon="7.930517954303278"><ele>284.0</ele><time>2026-04-11T09:50:08.999Z</time></trkpt><trkpt lat="45.0201577619735" lon="7.93063383073026"><ele>284.0</ele><time>2026-04-11T09:50:10.999Z</time></trkpt><trkpt lat="45.02015230906932" lon="7.930763489062931"><ele>284.0</ele><time>2026-04-11T09:50:12.999Z</time></trkpt><trkpt lat="45.02015099179809" lon="7.930898026863163"><ele>284.0</ele><time>2026-04-11T09:50:14.999Z</time></trkpt><trkpt lat="45.02014198819323" lon="7.931027249998348"><ele>284.0</ele><time>2026-04-11T09:50:16.999Z</time></trkpt><trkpt lat="45.02013903865756" lon="7.931146984977793"><ele>283.8</ele><time>2026-04-11T09:50:18.999Z</time></trkpt><trkpt lat="45.02012636621635" lon="7.931288559099849"><ele>283.59999999999997</ele><time>2026-04-11T09:50:20.999Z</time></trkpt><trkpt lat="45.02012370340686" lon="7.931402906585002"><ele>283.4</ele><time>2026-04-11T09:50:22.999Z</time></trkpt><trkpt lat="45.02011377425924" lon="7.931538061398371"><ele>283.2</ele><time>2026-04-11T09:50:24.999Z</time></trkpt><trkpt lat="45.020107045995914" lon="7.931664337449309"><ele>283.0</ele><time>2026-04-11T09:50:26.999Z</time></trkpt><trkpt lat="45.020099543967284" lon="7.931790141893336"><ele>283.4</ele><time>2026-04-11T09:50:28.999Z</time></trkpt><trkpt lat="45.020088216965505" lon="7.931931965792407"><ele>283.8</ele><time>2026-04-11T09:50:30.999Z</time></trkpt><trkpt lat="45.02005996913733" lon="7.9320654431221795"><ele>284.2</ele><time>2026-04-11T09:50:32.999Z</time></trkpt><trkpt lat="45.02005499757621" lon="7.932190556288328"><ele>284.6</ele><time>2026-04-11T09:50:34.999Z</time></trkpt><trkpt lat="45.02004911778733" lon="7.932307085171748"><ele>285.0</ele><time>2026-04-11T09:50:36.999Z</time></trkpt><trkpt lat="45.02003860648654" lon="7.932434697277101"><ele>285.0</ele><time>2026-04-11T09:50:38.999Z</time></trkpt><trkpt lat="45.020021768130675" lon="7.932552325119293"><ele>285.0</ele><time>2026-04-11T09:50:40.999Z</time></trkpt><trkpt lat="45.020015772541164" lon="7.932653540895924"><ele>285.0</ele><time>2026-04-11T09:50:42.999Z</time></trkpt><trkpt lat="45.02001597910807" lon="7.932785834819716"><ele>285.0</ele><time>2026-04-11T09:50:44.999Z</time></trkpt><trkpt lat="45.020002787204554" lon="7.9328800733574285"><ele>285.0</ele><time>2026-04-11T09:50:46.999Z</time></trkpt><trkpt lat="45.0200013101217" lon="7.932971754255644"><ele>285.0</ele><time>2026-04-11T09:50:49Z</time></trkpt><trkpt lat="45.019994626455514" lon="7.93308674124488"><ele>285.1666666666667</ele><time>2026-04-11T09:50:51Z</time></trkpt><trkpt lat="45.01997388053" lon="7.933204581208654"><ele>285.3333333333333</ele><time>2026-04-11T09:50:53Z</time></trkpt><trkpt lat="45.019976995349296" lon="7.933315202899477"><ele>285.5</ele><time>2026-04-11T09:50:55Z</time></trkpt><trkpt lat="45.01996855397584" lon="7.933421285356563"><ele>285.66666666666663</ele><time>2026-04-11T09:50:57Z</time></trkpt><trkpt lat="45.01995032128397" lon="7.933537045822945"><ele>285.8333333333333</ele><time>2026-04-11T09:50:59Z</time></trkpt><trkpt lat="45.01993443136939" lon="7.93367733328153"><ele>286.0</ele><time>2026-04-11T09:51:01Z</time></trkpt><trkpt lat="45.01993560980466" lon="7.9337839157312375"><ele>286.16666666666663</ele><time>2026-04-11T09:51:03Z</time></trkpt><trkpt lat="45.01993045912923" lon="7.9338947043938015"><ele>286.3333333333333</ele><time>2026-04-11T09:51:05Z</time></trkpt><trkpt lat="45.0199394893399" lon="7.934012811372705"><ele>286.5</ele><time>2026-04-11T09:51:07Z</time></trkpt><trkpt lat="45.01992051799514" lon="7.934132874615672"><ele>286.6666666666667</ele><time>2026-04-11T09:51:09Z</time></trkpt><trkpt lat="45.019913584404875" lon="7.934245998105419"><ele>286.83333333333337</ele><time>2026-04-11T09:51:11Z</time></trkpt><trkpt lat="45.019902058146926" lon="7.934367057333531"><ele>287.0</ele><time>2026-04-11T09:51:13Z</time></trkpt><trkpt lat="45.01988672105363" lon="7.934501700939828"><ele>286.6666666666667</ele><time>2026-04-11T09:51:15Z</time></trkpt><trkpt lat="45.019869983600685" lon="7.934638455480548"><ele>286.33333333333337</ele><time>2026-04-11T09:51:17Z</time></trkpt><trkpt lat="45.01985389633711" lon="7.934757130056562"><ele>286.0</ele><time>2026-04-11T09:51:19Z</time></trkpt><trkpt lat="45.01984814699649" lon="7.9348889962624325"><ele>285.6666666666667</ele><time>2026-04-11T09:51:21Z</time></trkpt><trkpt lat="45.01980912767106" lon="7.93498513462536"><ele>285.3333333333333</ele><time>2026-04-11T09:51:23Z</time></trkpt><trkpt lat="45.01974181320457" lon="7.9350354403452155"><ele>285.0</ele><time>2026-04-11T09:51:25Z</time></trkpt><trkpt lat="45.01969021964935" lon="7.935127818417817"><ele>284.8</ele><time>2026-04-11T09:51:39Z</time></trkpt><trkpt lat="45.01972006573349" lon="7.935290739304972"><ele>284.6</ele><time>2026-04-11T09:51:43Z</time></trkpt><trkpt lat="45.01974335901235" lon="7.935407126419931"><ele>284.4</ele><time>2026-04-11T09:51:45Z</time></trkpt><trkpt lat="45.0197513007487" lon="7.935569921865313"><ele>284.2</ele><time>2026-04-11T09:51:47Z</time></trkpt><trkpt lat="45.01972176140362" lon="7.935667243134219"><ele>284.0</ele><time>2026-04-11T09:51:48Z</time></trkpt><trkpt lat="45.019709400070205" lon="7.935766592699762"><ele>284.0</ele><time>2026-04-11T09:51:49Z</time></trkpt><trkpt lat="45.01969896213502" lon="7.935863062555754"><ele>284.0</ele><time>2026-04-11T09:51:50Z</time></trkpt><trkpt lat="45.0196892421414" lon="7.935963767833855"><ele>284.0</ele><time>2026-04-11T09:51:51Z</time></trkpt><trkpt lat="45.019679618960694" lon="7.9360666993168"><ele>284.0</ele><time>2026-04-11T09:51:52Z</time></trkpt><trkpt lat="45.019670544693696" lon="7.93616608075299"><ele>284.0</ele><time>2026-04-11T09:51:53Z</time></trkpt><trkpt lat="45.019661306463234" lon="7.936273681820454"><ele>284.0</ele><time>2026-04-11T09:51:54Z</time></trkpt><trkpt lat="45.01965238118062" lon="7.936381602121629"><ele>284.0</ele><time>2026-04-11T09:51:55Z</time></trkpt><trkpt lat="45.01964533017691" lon="7.936481507865275"><ele>284.0</ele><time>2026-04-11T09:51:55.999Z</time></trkpt><trkpt lat="45.019638910900106" lon="7.936580139305394"><ele>284.0</ele><time>2026-04-11T09:51:56.999Z</time></trkpt><trkpt lat="45.01963462189368" lon="7.936682498096954"><ele>284.0</ele><time>2026-04-11T09:51:57.999Z</time></trkpt><trkpt lat="45.019630770016214" lon="7.936774424617427"><ele>284.0</ele><time>2026-04-11T09:51:58.999Z</time></trkpt><trkpt lat="45.01962502119547" lon="7.936865010512872"><ele>284.0</ele><time>2026-04-11T09:51:59.999Z</time></trkpt><trkpt lat="45.0196103601328" lon="7.937036709664275"><ele>284.0</ele><time>2026-04-11T09:52:01.999Z</time></trkpt><trkpt lat="45.01960421962546" lon="7.937217088302013"><ele>284.0</ele><time>2026-04-11T09:52:03.999Z</time></trkpt><trkpt lat="45.01956592202766" lon="7.937383389990342"><ele>284.0</ele><time>2026-04-11T09:52:05.999Z</time></trkpt><trkpt lat="45.019569499286064" lon="7.93747412530429"><ele>284.0</ele><time>2026-04-11T09:52:06.999Z</time></trkpt><trkpt lat="45.01954640478369" lon="7.937638068629255"><ele>284.0</ele><time>2026-04-11T09:52:08.999Z</time></trkpt><trkpt lat="45.01951261489801" lon="7.937796097932411"><ele>284.0</ele><time>2026-04-11T09:52:10.999Z</time></trkpt><trkpt lat="45.01949503798876" lon="7.93794399958957"><ele>284.4</ele><time>2026-04-11T09:52:12.999Z</time></trkpt><trkpt lat="45.01947780680532" lon="7.938089986158923"><ele>284.79999999999995</ele><time>2026-04-11T09:52:14.999Z</time></trkpt><trkpt lat="45.019463886161084" lon="7.938223428591259"><ele>285.20000000000005</ele><time>2026-04-11T09:52:16.999Z</time></trkpt><trkpt lat="45.01945095311991" lon="7.938350015573327"><ele>285.6</ele><time>2026-04-11T09:52:18.999Z</time></trkpt><trkpt lat="45.01943857103144" lon="7.938484426443175"><ele>286.0</ele><time>2026-04-11T09:52:20.999Z</time></trkpt><trkpt lat="45.01943002244104" lon="7.938618121073603"><ele>286.2</ele><time>2026-04-11T09:52:22.999Z</time></trkpt><trkpt lat="45.01942586416334" lon="7.938751207004739"><ele>286.40000000000003</ele><time>2026-04-11T09:52:24.999Z</time></trkpt><trkpt lat="45.01942445390835" lon="7.938884066646807"><ele>286.6</ele><time>2026-04-11T09:52:26.999Z</time></trkpt><trkpt lat="45.019425339584316" lon="7.939014957074555"><ele>286.8</ele><time>2026-04-11T09:52:28.999Z</time></trkpt><trkpt lat="45.019428114684615" lon="7.939138297361709"><ele>287.0</ele><time>2026-04-11T09:52:30.999Z</time></trkpt><trkpt lat="45.019431067256434" lon="7.939263402793622"><ele>287.33333333333337</ele><time>2026-04-11T09:52:32.999Z</time></trkpt><trkpt lat="45.01943400836667" lon="7.939388022702088"><ele>287.6666666666667</ele><time>2026-04-11T09:52:34.999Z</time></trkpt><trkpt lat="45.019437067680755" lon="7.939517650880314"><ele>288.0</ele><time>2026-04-11T09:52:36.999Z</time></trkpt><trkpt lat="45.01944128096315" lon="7.939639022606821"><ele>288.3333333333333</ele><time>2026-04-11T09:52:38.999Z</time></trkpt><trkpt lat="45.0194485562524" lon="7.939766757770347"><ele>288.66666666666663</ele><time>2026-04-11T09:52:40.999Z</time></trkpt><trkpt lat="45.01945778752141" lon="7.9398956188200245"><ele>289.0</ele><time>2026-04-11T09:52:42.999Z</time></trkpt><trkpt lat="45.019466844810786" lon="7.940022051184687"><ele>288.66666666666663</ele><time>2026-04-11T09:52:44.999Z</time></trkpt><trkpt lat="45.01947544254002" lon="7.940139149076822"><ele>288.3333333333333</ele><time>2026-04-11T09:52:46.999Z</time></trkpt><trkpt lat="45.01948268475351" lon="7.940258114343922"><ele>288.0</ele><time>2026-04-11T09:52:48.999Z</time></trkpt><trkpt lat="45.019489442698394" lon="7.940369124517142"><ele>287.6666666666667</ele><time>2026-04-11T09:52:50.999Z</time></trkpt><trkpt lat="45.01949818279882" lon="7.940510525746323"><ele>287.33333333333337</ele><time>2026-04-11T09:52:52.999Z</time></trkpt><trkpt lat="45.019503021285324" lon="7.940654568069141"><ele>287.0</ele><time>2026-04-11T09:52:55Z</time></trkpt><trkpt lat="45.01950405390975" lon="7.9408077158300285"><ele>286.25</ele><time>2026-04-11T09:52:57Z</time></trkpt><trkpt lat="45.01950133749387" lon="7.940964914811274"><ele>285.5</ele><time>2026-04-11T09:52:59Z</time></trkpt><trkpt lat="45.01949406964746" lon="7.941117446997478"><ele>284.75</ele><time>2026-04-11T09:53:01Z</time></trkpt><trkpt lat="45.01948266479636" lon="7.941286588790372"><ele>284.0</ele><time>2026-04-11T09:53:03Z</time></trkpt><trkpt lat="45.01946956249992" lon="7.941462437313591"><ele>284.0</ele><time>2026-04-11T09:53:05Z</time></trkpt><trkpt lat="45.019462302323014" lon="7.941553516237423"><ele>284.0</ele><time>2026-04-11T09:53:06Z</time></trkpt><trkpt lat="45.01944736176462" lon="7.941720587149888"><ele>284.0</ele><time>2026-04-11T09:53:08Z</time></trkpt><trkpt lat="45.01943883392241" lon="7.941892810017973"><ele>284.0</ele><time>2026-04-11T09:53:10Z</time></trkpt><trkpt lat="45.01943163421377" lon="7.941984391862589"><ele>284.0</ele><time>2026-04-11T09:53:11Z</time></trkpt><trkpt lat="45.01941196828938" lon="7.942153273243687"><ele>284.0</ele><time>2026-04-11T09:53:13Z</time></trkpt><trkpt lat="45.01939374728938" lon="7.942327025903986"><ele>284.0</ele><time>2026-04-11T09:53:15Z</time></trkpt><trkpt lat="45.01936888712115" lon="7.942494693202024"><ele>284.0</ele><time>2026-04-11T09:53:17Z</time></trkpt><trkpt lat="45.01934556799622" lon="7.942668959059736"><ele>284.0</ele><time>2026-04-11T09:53:19Z</time></trkpt><trkpt lat="45.01932020329286" lon="7.942830502215372"><ele>283.75</ele><time>2026-04-11T09:53:21Z</time></trkpt><trkpt lat="45.019291550894046" lon="7.942992185783565"><ele>283.5</ele><time>2026-04-11T09:53:23Z</time></trkpt><trkpt lat="45.0192568126793" lon="7.943139680021606"><ele>283.25</ele><time>2026-04-11T09:53:25Z</time></trkpt><trkpt lat="45.01922731244206" lon="7.943298831322143"><ele>283.0</ele><time>2026-04-11T09:53:27Z</time></trkpt><trkpt lat="45.01919076982017" lon="7.943451850249464"><ele>283.2</ele><time>2026-04-11T09:53:29Z</time></trkpt><trkpt lat="45.01914242207768" lon="7.943599203802065"><ele>283.4</ele><time>2026-04-11T09:53:31Z</time></trkpt><trkpt lat="45.019108776933464" lon="7.943744149591375"><ele>283.59999999999997</ele><time>2026-04-11T09:53:33Z</time></trkpt><trkpt lat="45.01908563837859" lon="7.943902424233904"><ele>283.8</ele><time>2026-04-11T09:53:35Z</time></trkpt><trkpt lat="45.01909411962129" lon="7.944059964580348"><ele>284.0</ele><time>2026-04-11T09:53:37Z</time></trkpt><trkpt lat="45.01913037361077" lon="7.944204773146393"><ele>283.59999999999997</ele><time>2026-04-11T09:53:39Z</time></trkpt><trkpt lat="45.019197831994624" lon="7.944339777236567"><ele>283.2</ele><time>2026-04-11T09:53:41Z</time></trkpt><trkpt lat="45.01925986413153" lon="7.944452115531979"><ele>282.79999999999995</ele><time>2026-04-11T09:53:43Z</time></trkpt><trkpt lat="45.019326584935435" lon="7.944563341564805"><ele>282.4</ele><time>2026-04-11T09:53:45Z</time></trkpt><trkpt lat="45.01939019247961" lon="7.944674286900724"><ele>282.0</ele><time>2026-04-11T09:53:47Z</time></trkpt><trkpt lat="45.019449900455086" lon="7.944780924608159"><ele>282.0</ele><time>2026-04-11T09:53:49Z</time></trkpt><trkpt lat="45.01950990475655" lon="7.944892363160783"><ele>282.0</ele><time>2026-04-11T09:53:51Z</time></trkpt><trkpt lat="45.01957074386428" lon="7.945010661313039"><ele>282.0</ele><time>2026-04-11T09:53:53Z</time></trkpt><trkpt lat="45.01963206237377" lon="7.945129892524762"><ele>282.0</ele><time>2026-04-11T09:53:55Z</time></trkpt><trkpt lat="45.01970675273302" lon="7.945236416159847"><ele>282.0</ele><time>2026-04-11T09:53:57Z</time></trkpt><trkpt lat="45.01974839278998" lon="7.945363725735113"><ele>281.8</ele><time>2026-04-11T09:53:59Z</time></trkpt><trkpt lat="45.01980200145764" lon="7.9454809655573895"><ele>281.6</ele><time>2026-04-11T09:54:01Z</time></trkpt><trkpt lat="45.0198537719968" lon="7.945594185477789"><ele>281.40000000000003</ele><time>2026-04-11T09:54:02.999Z</time></trkpt><trkpt lat="45.01990318858665" lon="7.945702257418032"><ele>281.2</ele><time>2026-04-11T09:54:04.999Z</time></trkpt><trkpt lat="45.01995564887129" lon="7.94579283886095"><ele>281.0</ele><time>2026-04-11T09:54:06.999Z</time></trkpt><trkpt lat="45.02000768401584" lon="7.9458937926332815"><ele>282.0</ele><time>2026-04-11T09:54:08.999Z</time></trkpt><trkpt lat="45.020043714370004" lon="7.946004973656399"><ele>283.0</ele><time>2026-04-11T09:54:10.999Z</time></trkpt><trkpt lat="45.020101060911486" lon="7.946088214870763"><ele>284.0</ele><time>2026-04-11T09:54:12.999Z</time></trkpt><trkpt lat="45.020141456134645" lon="7.946174113012323"><ele>285.0</ele><time>2026-04-11T09:54:14.999Z</time></trkpt><trkpt lat="45.020176174856005" lon="7.946287083775476"><ele>286.0</ele><time>2026-04-11T09:54:16.999Z</time></trkpt><trkpt lat="45.020219905454226" lon="7.946372422093924"><ele>287.0</ele><time>2026-04-11T09:54:18.999Z</time></trkpt><trkpt lat="45.0202812872243" lon="7.946448793327128"><ele>287.0</ele><time>2026-04-11T09:54:20.999Z</time></trkpt><trkpt lat="45.02033441607022" lon="7.946568182927084"><ele>287.0</ele><time>2026-04-11T09:54:22.999Z</time></trkpt><trkpt lat="45.02039124800465" lon="7.9466566754567465"><ele>287.0</ele><time>2026-04-11T09:54:24.999Z</time></trkpt><trkpt lat="45.02043491621434" lon="7.946723946715692"><ele>287.0</ele><time>2026-04-11T09:54:26.999Z</time></trkpt><trkpt lat="45.02050086206684" lon="7.946790269844458"><ele>287.0</ele><time>2026-04-11T09:54:29.999Z</time></trkpt><trkpt lat="45.020569051849684" lon="7.946919640102671"><ele>287.0</ele><time>2026-04-11T09:54:33.999Z</time></trkpt><trkpt lat="45.020620609474534" lon="7.946994461781677"><ele>287.4</ele><time>2026-04-11T09:54:36.999Z</time></trkpt><trkpt lat="45.020676357881" lon="7.947074441619308"><ele>287.79999999999995</ele><time>2026-04-11T09:54:39.999Z</time></trkpt><trkpt lat="45.02075498385416" lon="7.947187242834801"><ele>288.2</ele><time>2026-04-11T09:54:42.999Z</time></trkpt><trkpt lat="45.02081342996191" lon="7.9472536458802425"><ele>288.59999999999997</ele><time>2026-04-11T09:54:45.999Z</time></trkpt><trkpt lat="45.02092391602679" lon="7.947376693176742"><ele>289.0</ele><time>2026-04-11T09:54:47.999Z</time></trkpt><trkpt lat="45.020981469073995" lon="7.947441618837521"><ele>289.0</ele><time>2026-04-11T09:54:48.999Z</time></trkpt><trkpt lat="45.021032527563904" lon="7.947496547049"><ele>289.0</ele><time>2026-04-11T09:54:49.999Z</time></trkpt><trkpt lat="45.021104837732516" lon="7.947593189405382"><ele>289.0</ele><time>2026-04-11T09:54:51.999Z</time></trkpt><trkpt lat="45.021147127126454" lon="7.947709372590505"><ele>289.0</ele><time>2026-04-11T09:54:54.999Z</time></trkpt><trkpt lat="45.021217793088354" lon="7.947776792686083"><ele>289.0</ele><time>2026-04-11T09:54:57.999Z</time></trkpt><trkpt lat="45.02129984094075" lon="7.9478759849369025"><ele>289.0</ele><time>2026-04-11T09:54:59.999Z</time></trkpt><trkpt lat="45.02139097490853" lon="7.947976511581255"><ele>289.16666666666663</ele><time>2026-04-11T09:55:02Z</time></trkpt><trkpt lat="45.021437086491346" lon="7.948040746195798"><ele>289.3333333333333</ele><time>2026-04-11T09:55:03Z</time></trkpt><trkpt lat="45.021485597195415" lon="7.948142599117489"><ele>289.5</ele><time>2026-04-11T09:55:07Z</time></trkpt><trkpt lat="45.02155740611372" lon="7.948255786898098"><ele>289.6666666666667</ele><time>2026-04-11T09:55:09Z</time></trkpt><trkpt lat="45.02160829636235" lon="7.948347009770774"><ele>289.83333333333337</ele><time>2026-04-11T09:55:12Z</time></trkpt><trkpt lat="45.02165648447704" lon="7.9484486470013485"><ele>290.0</ele><time>2026-04-11T09:55:14Z</time></trkpt><trkpt lat="45.02169667901255" lon="7.9485468380362825"><ele>289.83333333333337</ele><time>2026-04-11T09:55:16Z</time></trkpt><trkpt lat="45.02171843071443" lon="7.948638515454477"><ele>289.6666666666667</ele><time>2026-04-11T09:55:18Z</time></trkpt><trkpt lat="45.02169974054915" lon="7.948724305718319"><ele>289.5</ele><time>2026-04-11T09:55:20Z</time></trkpt><trkpt lat="45.021674224647306" lon="7.94884667591684"><ele>289.3333333333333</ele><time>2026-04-11T09:55:23Z</time></trkpt><trkpt lat="45.02166491616178" lon="7.948939431315087"><ele>289.16666666666663</ele><time>2026-04-11T09:55:25Z</time></trkpt><trkpt lat="45.02163928945193" lon="7.949049397111222"><ele>289.0</ele><time>2026-04-11T09:55:27Z</time></trkpt><trkpt lat="45.021616932932716" lon="7.9491677859409275"><ele>289.3333333333333</ele><time>2026-04-11T09:55:29Z</time></trkpt><trkpt lat="45.02159360536871" lon="7.9492699267364255"><ele>289.66666666666663</ele><time>2026-04-11T09:55:31Z</time></trkpt><trkpt lat="45.021568456357535" lon="7.9493802511473834"><ele>290.0</ele><time>2026-04-11T09:55:33Z</time></trkpt><trkpt lat="45.02153092828238" lon="7.9495055932295"><ele>290.3333333333333</ele><time>2026-04-11T09:55:35Z</time></trkpt><trkpt lat="45.02147076199299" lon="7.949635451961581"><ele>290.6666666666667</ele><time>2026-04-11T09:55:37Z</time></trkpt><trkpt lat="45.02147036342974" lon="7.949744703743785"><ele>291.0</ele><time>2026-04-11T09:55:39Z</time></trkpt><trkpt lat="45.02144201353663" lon="7.949827481859131"><ele>291.0</ele><time>2026-04-11T09:55:41Z</time></trkpt><trkpt lat="45.02142287347875" lon="7.94991952599974"><ele>291.0</ele><time>2026-04-11T09:55:43Z</time></trkpt><trkpt lat="45.02140517911804" lon="7.950021697270931"><ele>291.0</ele><time>2026-04-11T09:55:45Z</time></trkpt><trkpt lat="45.021383570986266" lon="7.950113356857314"><ele>291.0</ele><time>2026-04-11T09:55:47Z</time></trkpt><trkpt lat="45.02135285956908" lon="7.950191193498132"><ele>291.0</ele><time>2026-04-11T09:55:50Z</time></trkpt><trkpt lat="45.02145882976949" lon="7.9502514514334"><ele>291.0</ele><time>2026-04-11T09:55:52Z</time></trkpt><trkpt lat="45.021529238979646" lon="7.950288441051528"><ele>291.1666666666667</ele><time>2026-04-11T09:55:55Z</time></trkpt><trkpt lat="45.02159544132174" lon="7.9503274357482985"><ele>291.3333333333333</ele><time>2026-04-11T09:55:57Z</time></trkpt><trkpt lat="45.0216453138324" lon="7.9503880983578465"><ele>291.5</ele><time>2026-04-11T09:55:59Z</time></trkpt><trkpt lat="45.02171776845365" lon="7.950414462593545"><ele>291.66666666666663</ele><time>2026-04-11T09:56:02Z</time></trkpt><trkpt lat="45.02179538284162" lon="7.950447553092405"><ele>291.8333333333333</ele><time>2026-04-11T09:56:05Z</time></trkpt><trkpt lat="45.021862415211146" lon="7.950486958783373"><ele>292.0</ele><time>2026-04-11T09:56:07Z</time></trkpt><trkpt lat="45.02194487104733" lon="7.950525899963691"><ele>292.66666666666663</ele><time>2026-04-11T09:56:08.999Z</time></trkpt><trkpt lat="45.022007688627305" lon="7.950562166100255"><ele>293.3333333333333</ele><time>2026-04-11T09:56:10.999Z</time></trkpt><trkpt lat="45.02210077168681" lon="7.9505613408309745"><ele>294.0</ele><time>2026-04-11T09:56:12.999Z</time></trkpt><trkpt lat="45.02212031937986" lon="7.950666053489202"><ele>294.6666666666667</ele><time>2026-04-11T09:56:17.999Z</time></trkpt><trkpt lat="45.022196049742675" lon="7.9506819511327365"><ele>295.33333333333337</ele><time>2026-04-11T09:56:19.999Z</time></trkpt><trkpt lat="45.022275923769456" lon="7.950702468916342"><ele>296.0</ele><time>2026-04-11T09:56:22.999Z</time></trkpt><trkpt lat="45.022449685858696" lon="7.950683803130069"><ele>296.0</ele><time>2026-04-11T10:03:42Z</time></trkpt><trkpt lat="45.02243513294819" lon="7.950594141434156"><ele>296.0</ele><time>2026-04-11T10:03:47Z</time></trkpt><trkpt lat="45.022456810299516" lon="7.950483629912308"><ele>296.0</ele><time>2026-04-11T10:03:51Z</time></trkpt><trkpt lat="45.022474500112864" lon="7.9503743308204875"><ele>296.0</ele><time>2026-04-11T10:03:54Z</time></trkpt><trkpt lat="45.02254731360837" lon="7.9502885456874965"><ele>296.0</ele><time>2026-04-11T10:03:58Z</time></trkpt><trkpt lat="45.02260107404287" lon="7.950215060891822"><ele>296.0</ele><time>2026-04-11T10:04:01Z</time></trkpt><trkpt lat="45.02259096138662" lon="7.9500971145170425"><ele>296.33333333333337</ele><time>2026-04-11T10:04:04Z</time></trkpt><trkpt lat="45.02260702827738" lon="7.950009944192219"><ele>296.6666666666667</ele><time>2026-04-11T10:04:05Z</time></trkpt><trkpt lat="45.022632188115" lon="7.949922490953291"><ele>297.0</ele><time>2026-04-11T10:04:07Z</time></trkpt><trkpt lat="45.02266937649137" lon="7.94980695411842"><ele>297.3333333333333</ele><time>2026-04-11T10:04:10Z</time></trkpt><trkpt lat="45.02270684562471" lon="7.949692393553571"><ele>297.66666666666663</ele><time>2026-04-11T10:04:12Z</time></trkpt><trkpt lat="45.02272278962671" lon="7.9495830529211275"><ele>298.0</ele><time>2026-04-11T10:04:14Z</time></trkpt><trkpt lat="45.022741131697316" lon="7.949461475923289"><ele>298.0</ele><time>2026-04-11T10:04:17Z</time></trkpt><trkpt lat="45.022777973907445" lon="7.949355694193614"><ele>298.0</ele><time>2026-04-11T10:04:19Z</time></trkpt><trkpt lat="45.02281079472336" lon="7.949243020817805"><ele>298.0</ele><time>2026-04-11T10:04:21Z</time></trkpt><trkpt lat="45.022834139347616" lon="7.9491418065885595"><ele>298.0</ele><time>2026-04-11T10:04:23Z</time></trkpt><trkpt lat="45.02286838681315" lon="7.949047576483429"><ele>298.0</ele><time>2026-04-11T10:04:25Z</time></trkpt><trkpt lat="45.0228830285879" lon="7.948953060950359"><ele>298.0</ele><time>2026-04-11T10:04:27Z</time></trkpt><trkpt lat="45.022916553243356" lon="7.948846307426698"><ele>297.5</ele><time>2026-04-11T10:04:29.999Z</time></trkpt><trkpt lat="45.02297833042165" lon="7.948807450753059"><ele>297.0</ele><time>2026-04-11T10:04:33.999Z</time></trkpt><trkpt lat="45.02307180440728" lon="7.948786409425416"><ele>296.5</ele><time>2026-04-11T10:04:36.999Z</time></trkpt><trkpt lat="45.02315931297127" lon="7.948764216218218"><ele>296.0</ele><time>2026-04-11T10:04:39.999Z</time></trkpt><trkpt lat="45.023231930133896" lon="7.948743507117027"><ele>295.5</ele><time>2026-04-11T10:04:41.999Z</time></trkpt><trkpt lat="45.0233247588919" lon="7.948754767647342"><ele>295.0</ele><time>2026-04-11T10:04:43.999Z</time></trkpt><trkpt lat="45.023445712149794" lon="7.948749845209259"><ele>295.0</ele><time>2026-04-11T10:04:46.999Z</time></trkpt><trkpt lat="45.02353238120628" lon="7.948744911342416"><ele>295.0</ele><time>2026-04-11T10:04:48.999Z</time></trkpt><trkpt lat="45.0236875758339" lon="7.948734583371731"><ele>295.0</ele><time>2026-04-11T10:04:52.999Z</time></trkpt><trkpt lat="45.02376249667925" lon="7.94871710397684"><ele>295.0</ele><time>2026-04-11T10:04:54.999Z</time></trkpt><trkpt lat="45.023837737440154" lon="7.9486993737543825"><ele>295.0</ele><time>2026-04-11T10:04:56.999Z</time></trkpt><trkpt lat="45.023928529622715" lon="7.948656979884402"><ele>295.0</ele><time>2026-04-11T10:04:58.999Z</time></trkpt><trkpt lat="45.02400970865799" lon="7.94860592456195"><ele>295.0</ele><time>2026-04-11T10:05:00.999Z</time></trkpt><trkpt lat="45.024095452451256" lon="7.948567362796857"><ele>295.0</ele><time>2026-04-11T10:05:02.999Z</time></trkpt><trkpt lat="45.02415820516316" lon="7.948535471569584"><ele>295.0</ele><time>2026-04-11T10:05:04.999Z</time></trkpt><trkpt lat="45.02422199652053" lon="7.948484467411065"><ele>295.0</ele><time>2026-04-11T10:05:06.999Z</time></trkpt><trkpt lat="45.02428595389505" lon="7.948448624651099"><ele>295.0</ele><time>2026-04-11T10:05:08.999Z</time></trkpt><trkpt lat="45.02436472179765" lon="7.948368649562304"><ele>294.8333333333333</ele><time>2026-04-11T10:05:11.999Z</time></trkpt><trkpt lat="45.02441436057113" lon="7.948286306855235"><ele>294.66666666666663</ele><time>2026-04-11T10:05:14.999Z</time></trkpt><trkpt lat="45.02445974057215" lon="7.948215430962395"><ele>294.5</ele><time>2026-04-11T10:05:17.999Z</time></trkpt><trkpt lat="45.02452936815686" lon="7.948148302832472"><ele>294.3333333333333</ele><time>2026-04-11T10:05:20.999Z</time></trkpt><trkpt lat="45.02460153533857" lon="7.9480531141382915"><ele>294.1666666666667</ele><time>2026-04-11T10:05:23.999Z</time></trkpt><trkpt lat="45.02468923654621" lon="7.947962633703356"><ele>294.0</ele><time>2026-04-11T10:05:26.999Z</time></trkpt><trkpt lat="45.024748778263344" lon="7.947882310149291"><ele>294.0</ele><time>2026-04-11T10:05:29.999Z</time></trkpt><trkpt lat="45.024817572601876" lon="7.947803503994196"><ele>294.0</ele><time>2026-04-11T10:05:32Z</time></trkpt><trkpt lat="45.02489455597279" lon="7.9477363820629385"><ele>294.0</ele><time>2026-04-11T10:05:34Z</time></trkpt><trkpt lat="45.024977939665476" lon="7.947632308725611"><ele>294.0</ele><time>2026-04-11T10:05:36Z</time></trkpt><trkpt lat="45.02506206016959" lon="7.947543334573027"><ele>294.0</ele><time>2026-04-11T10:05:38Z</time></trkpt><trkpt lat="45.025133448042034" lon="7.947460420992941"><ele>294.0</ele><time>2026-04-11T10:05:40Z</time></trkpt><trkpt lat="45.02519018054528" lon="7.947374862524727"><ele>294.0</ele><time>2026-04-11T10:05:42Z</time></trkpt><trkpt lat="45.02527475844343" lon="7.94729856262731"><ele>294.0</ele><time>2026-04-11T10:05:44Z</time></trkpt><trkpt lat="45.025349227457006" lon="7.947211515457287"><ele>294.0</ele><time>2026-04-11T10:05:46Z</time></trkpt><trkpt lat="45.025410995854074" lon="7.947148177284964"><ele>294.0</ele><time>2026-04-11T10:05:48Z</time></trkpt><trkpt lat="45.02547503553914" lon="7.947067460746869"><ele>294.0</ele><time>2026-04-11T10:05:50Z</time></trkpt><trkpt lat="45.02554292804535" lon="7.946994274136634"><ele>294.0</ele><time>2026-04-11T10:05:52Z</time></trkpt><trkpt lat="45.025599940089265" lon="7.946921138052912"><ele>294.0</ele><time>2026-04-11T10:05:54Z</time></trkpt><trkpt lat="45.02567185699978" lon="7.946841422532271"><ele>294.0</ele><time>2026-04-11T10:05:56Z</time></trkpt><trkpt lat="45.025742389048496" lon="7.946760875307867"><ele>294.0</ele><time>2026-04-11T10:05:58Z</time></trkpt><trkpt lat="45.0258123323321" lon="7.946684611665311"><ele>294.0</ele><time>2026-04-11T10:06:00Z</time></trkpt><trkpt lat="45.02588720648745" lon="7.946588515864099"><ele>294.0</ele><time>2026-04-11T10:06:02Z</time></trkpt><trkpt lat="45.02597255659894" lon="7.946504849125062"><ele>293.4</ele><time>2026-04-11T10:06:04Z</time></trkpt><trkpt lat="45.02605515150165" lon="7.9464083834480395"><ele>292.79999999999995</ele><time>2026-04-11T10:06:06Z</time></trkpt><trkpt lat="45.026131231625804" lon="7.946318669251562"><ele>292.20000000000005</ele><time>2026-04-11T10:06:08Z</time></trkpt><trkpt lat="45.02620898798803" lon="7.946232260819415"><ele>291.6</ele><time>2026-04-11T10:06:10Z</time></trkpt><trkpt lat="45.02628043373936" lon="7.946153834779894"><ele>291.0</ele><time>2026-04-11T10:06:12Z</time></trkpt><trkpt lat="45.02635886690673" lon="7.946053930472195"><ele>291.0</ele><time>2026-04-11T10:06:14Z</time></trkpt><trkpt lat="45.026440559486154" lon="7.945977420033492"><ele>291.0</ele><time>2026-04-11T10:06:16Z</time></trkpt><trkpt lat="45.02651420050366" lon="7.9458931510644275"><ele>291.0</ele><time>2026-04-11T10:06:18Z</time></trkpt><trkpt lat="45.026604976855005" lon="7.945793036399899"><ele>291.0</ele><time>2026-04-11T10:06:20Z</time></trkpt><trkpt lat="45.02669281220771" lon="7.945699557809247"><ele>291.0</ele><time>2026-04-11T10:06:22Z</time></trkpt><trkpt lat="45.02677252402963" lon="7.945607237103918"><ele>290.6</ele><time>2026-04-11T10:06:24Z</time></trkpt><trkpt lat="45.02685338935763" lon="7.945513308197957"><ele>290.20000000000005</ele><time>2026-04-11T10:06:26Z</time></trkpt><trkpt lat="45.02692217510474" lon="7.945427782403346"><ele>289.79999999999995</ele><time>2026-04-11T10:06:27.999Z</time></trkpt><trkpt lat="45.027013417342985" lon="7.945326151074372"><ele>289.4</ele><time>2026-04-11T10:06:29.999Z</time></trkpt><trkpt lat="45.02708553490815" lon="7.945241479454293"><ele>289.0</ele><time>2026-04-11T10:06:31.999Z</time></trkpt><trkpt lat="45.02715482545637" lon="7.945162527177021"><ele>289.0</ele><time>2026-04-11T10:06:33.999Z</time></trkpt><trkpt lat="45.02722708588588" lon="7.945084409247114"><ele>289.0</ele><time>2026-04-11T10:06:35.999Z</time></trkpt><trkpt lat="45.02729629427228" lon="7.944998604220019"><ele>289.0</ele><time>2026-04-11T10:06:37.999Z</time></trkpt><trkpt lat="45.02737657727307" lon="7.944932996896863"><ele>289.0</ele><time>2026-04-11T10:06:39.999Z</time></trkpt><trkpt lat="45.02743896994857" lon="7.94483544748244"><ele>289.0</ele><time>2026-04-11T10:06:41.999Z</time></trkpt><trkpt lat="45.02750066382326" lon="7.944768754116875"><ele>289.0</ele><time>2026-04-11T10:06:43.999Z</time></trkpt><trkpt lat="45.0275764509161" lon="7.944685769046791"><ele>289.2</ele><time>2026-04-11T10:06:45.999Z</time></trkpt><trkpt lat="45.027659910887756" lon="7.944665338733147"><ele>289.4</ele><time>2026-04-11T10:06:47.999Z</time></trkpt><trkpt lat="45.027803788845745" lon="7.944672498517089"><ele>289.6</ele><time>2026-04-11T10:06:50.999Z</time></trkpt><trkpt lat="45.027894997698986" lon="7.944674722305865"><ele>289.8</ele><time>2026-04-11T10:06:52.999Z</time></trkpt><trkpt lat="45.02797983332891" lon="7.944673650025216"><ele>290.0</ele><time>2026-04-11T10:06:54.999Z</time></trkpt><trkpt lat="45.02810948053054" lon="7.944672905891107"><ele>290.0</ele><time>2026-04-11T10:06:57.999Z</time></trkpt><trkpt lat="45.02830229427609" lon="7.944670343188532"><ele>290.0</ele><time>2026-04-11T10:07:02.999Z</time></trkpt><trkpt lat="45.02839174995439" lon="7.944648207545348"><ele>290.0</ele><time>2026-04-11T10:07:04.999Z</time></trkpt><trkpt lat="45.02846800253662" lon="7.94463877387526"><ele>290.0</ele><time>2026-04-11T10:07:06.999Z</time></trkpt><trkpt lat="45.0286487951089" lon="7.944637943615573"><ele>290.2</ele><time>2026-04-11T10:07:11.999Z</time></trkpt><trkpt lat="45.02877974411876" lon="7.944611032265655"><ele>290.4</ele><time>2026-04-11T10:07:18.999Z</time></trkpt><trkpt lat="45.02885875188985" lon="7.944580548925979"><ele>290.6</ele><time>2026-04-11T10:07:23.999Z</time></trkpt><trkpt lat="45.02893981073296" lon="7.944559534911926"><ele>290.8</ele><time>2026-04-11T10:07:26.999Z</time></trkpt><trkpt lat="45.02900491966082" lon="7.94455093605712"><ele>291.0</ele><time>2026-04-11T10:07:29.999Z</time></trkpt><trkpt lat="45.02910067888431" lon="7.944522587092081"><ele>291.40000000000003</ele><time>2026-04-11T10:07:32.999Z</time></trkpt><trkpt lat="45.029232324264036" lon="7.9444930486281855"><ele>291.8</ele><time>2026-04-11T10:07:38Z</time></trkpt><trkpt lat="45.02932342262156" lon="7.9444674126773975"><ele>292.20000000000005</ele><time>2026-04-11T10:07:41Z</time></trkpt><trkpt lat="45.0293980285743" lon="7.944450816559306"><ele>292.6</ele><time>2026-04-11T10:07:43Z</time></trkpt><trkpt lat="45.029472200788675" lon="7.944439781039258"><ele>293.0</ele><time>2026-04-11T10:07:45Z</time></trkpt><trkpt lat="45.029560080572466" lon="7.944428414033418"><ele>293.0</ele><time>2026-04-11T10:07:48Z</time></trkpt><trkpt lat="45.02965622299504" lon="7.944419990242068"><ele>293.0</ele><time>2026-04-11T10:07:51Z</time></trkpt><trkpt lat="45.02988551545122" lon="7.944414421157513"><ele>293.0</ele><time>2026-04-11T10:07:59Z</time></trkpt><trkpt lat="45.02997999603508" lon="7.94445230822115"><ele>293.0</ele><time>2026-04-11T10:08:02Z</time></trkpt><trkpt lat="45.030075853566" lon="7.944458720950031"><ele>294.1666666666667</ele><time>2026-04-11T10:08:05Z</time></trkpt><trkpt lat="45.030169367882706" lon="7.944484940983103"><ele>295.33333333333337</ele><time>2026-04-11T10:08:08Z</time></trkpt><trkpt lat="45.030262657324734" lon="7.944512358103963"><ele>296.5</ele><time>2026-04-11T10:08:11Z</time></trkpt><trkpt lat="45.03032863319625" lon="7.9445268187515135"><ele>297.6666666666667</ele><time>2026-04-11T10:08:14Z</time></trkpt><trkpt lat="45.03041523458237" lon="7.944533776690854"><ele>298.8333333333333</ele><time>2026-04-11T10:08:17Z</time></trkpt><trkpt lat="45.030496201391664" lon="7.944570209298831"><ele>300.0</ele><time>2026-04-11T10:08:20Z</time></trkpt><trkpt lat="45.030564269745994" lon="7.944601914336869"><ele>300.0</ele><time>2026-04-11T10:08:23Z</time></trkpt><trkpt lat="45.03075568601461" lon="7.944594602510593"><ele>300.0</ele><time>2026-04-11T10:08:31Z</time></trkpt><trkpt lat="45.03083590868001" lon="7.9446039459309326"><ele>300.0</ele><time>2026-04-11T10:08:33.999Z</time></trkpt><trkpt lat="45.03090278480223" lon="7.944628334213019"><ele>300.0</ele><time>2026-04-11T10:08:36.999Z</time></trkpt><trkpt lat="45.03099804953875" lon="7.944636269971827"><ele>300.0</ele><time>2026-04-11T10:08:39.999Z</time></trkpt><trkpt lat="45.03107084537072" lon="7.944669521751935"><ele>301.0</ele><time>2026-04-11T10:08:41.999Z</time></trkpt><trkpt lat="45.03113805582209" lon="7.944679635518628"><ele>302.0</ele><time>2026-04-11T10:08:43.999Z</time></trkpt><trkpt lat="45.03120611695029" lon="7.9446938651160055"><ele>303.0</ele><time>2026-04-11T10:08:45.999Z</time></trkpt><trkpt lat="45.03129976426353" lon="7.944709010573443"><ele>304.0</ele><time>2026-04-11T10:08:48.999Z</time></trkpt><trkpt lat="45.031372344775995" lon="7.944713852591827"><ele>305.0</ele><time>2026-04-11T10:08:50.999Z</time></trkpt><trkpt lat="45.03143576233047" lon="7.944732406239091"><ele>306.0</ele><time>2026-04-11T10:08:53.999Z</time></trkpt><trkpt lat="45.03151980691429" lon="7.944752115588536"><ele>306.0</ele><time>2026-04-11T10:08:56.999Z</time></trkpt><trkpt lat="45.031593501440916" lon="7.944780571644103"><ele>306.0</ele><time>2026-04-11T10:08:59.999Z</time></trkpt><trkpt lat="45.03166462125999" lon="7.9448075041306465"><ele>306.0</ele><time>2026-04-11T10:09:02.999Z</time></trkpt><trkpt lat="45.03172744240142" lon="7.944828441107119"><ele>306.0</ele><time>2026-04-11T10:09:05.999Z</time></trkpt><trkpt lat="45.031791619053294" lon="7.944842449678798"><ele>306.0</ele><time>2026-04-11T10:09:07.999Z</time></trkpt><trkpt lat="45.031871565818285" lon="7.944874634909423"><ele>306.0</ele><time>2026-04-11T10:09:09.999Z</time></trkpt><trkpt lat="45.03193605277728" lon="7.9448953620097065"><ele>306.0</ele><time>2026-04-11T10:09:11.999Z</time></trkpt><trkpt lat="45.032000319481554" lon="7.944923224516215"><ele>306.6666666666667</ele><time>2026-04-11T10:09:13.999Z</time></trkpt><trkpt lat="45.03206246607864" lon="7.944949898384568"><ele>307.3333333333333</ele><time>2026-04-11T10:09:15.999Z</time></trkpt><trkpt lat="45.032131335908126" lon="7.94496074394876"><ele>308.0</ele><time>2026-04-11T10:09:17.999Z</time></trkpt><trkpt lat="45.03220163064656" lon="7.944961844980822"><ele>308.66666666666663</ele><time>2026-04-11T10:09:19.999Z</time></trkpt><trkpt lat="45.03228018577484" lon="7.944977767472819"><ele>309.3333333333333</ele><time>2026-04-11T10:09:21.999Z</time></trkpt><trkpt lat="45.03238259144527" lon="7.944986674026045"><ele>310.0</ele><time>2026-04-11T10:09:24.999Z</time></trkpt><trkpt lat="45.03245378957243" lon="7.944998017277004"><ele>310.0</ele><time>2026-04-11T10:09:26.999Z</time></trkpt><trkpt lat="45.03251466520643" lon="7.9450218281978096"><ele>310.0</ele><time>2026-04-11T10:09:28.999Z</time></trkpt><trkpt lat="45.03258254774923" lon="7.945026402059658"><ele>310.0</ele><time>2026-04-11T10:09:30.999Z</time></trkpt><trkpt lat="45.03264327756562" lon="7.945050016317443"><ele>310.0</ele><time>2026-04-11T10:09:32.999Z</time></trkpt><trkpt lat="45.03271183261268" lon="7.945080230219092"><ele>310.0</ele><time>2026-04-11T10:09:34.999Z</time></trkpt><trkpt lat="45.03281053555715" lon="7.945089743050926"><ele>310.0</ele><time>2026-04-11T10:09:37.999Z</time></trkpt><trkpt lat="45.03288635932615" lon="7.94512394110071"><ele>310.0</ele><time>2026-04-11T10:09:40.999Z</time></trkpt><trkpt lat="45.03294455929481" lon="7.94516451438423"><ele>310.14285714285717</ele><time>2026-04-11T10:09:43Z</time></trkpt><trkpt lat="45.033003376551534" lon="7.94521359419099"><ele>310.2857142857143</ele><time>2026-04-11T10:09:45Z</time></trkpt><trkpt lat="45.033067262787405" lon="7.9452883266734755"><ele>310.42857142857144</ele><time>2026-04-11T10:09:48Z</time></trkpt><trkpt lat="45.033116303406295" lon="7.945348077309039"><ele>310.57142857142856</ele><time>2026-04-11T10:09:52Z</time></trkpt><trkpt lat="45.03317389574974" lon="7.945406708513858"><ele>310.7142857142857</ele><time>2026-04-11T10:10:58.999Z</time></trkpt><trkpt lat="45.03322928178131" lon="7.945454917315682"><ele>310.85714285714283</ele><time>2026-04-11T10:11:01.999Z</time></trkpt><trkpt lat="45.03331096592224" lon="7.945500998383802"><ele>311.0</ele><time>2026-04-11T10:11:04.999Z</time></trkpt><trkpt lat="45.033380054225546" lon="7.9455381351380865"><ele>311.0</ele><time>2026-04-11T10:11:06.999Z</time></trkpt><trkpt lat="45.03344686558559" lon="7.945546806539949"><ele>311.0</ele><time>2026-04-11T10:11:08.999Z</time></trkpt><trkpt lat="45.03354567949567" lon="7.945582537854602"><ele>311.0</ele><time>2026-04-11T10:11:11.999Z</time></trkpt><trkpt lat="45.03371757217285" lon="7.945572212058424"><ele>311.0</ele><time>2026-04-11T10:11:16.999Z</time></trkpt><trkpt lat="45.03378215515954" lon="7.945552401163603"><ele>311.0</ele><time>2026-04-11T10:11:18.999Z</time></trkpt><trkpt lat="45.03384784848125" lon="7.945525083652802"><ele>311.0</ele><time>2026-04-11T10:11:20.999Z</time></trkpt><trkpt lat="45.03393986017114" lon="7.945509580864183"><ele>311.0</ele><time>2026-04-11T10:11:23.999Z</time></trkpt><trkpt lat="45.03403093327281" lon="7.945487041290658"><ele>311.0</ele><time>2026-04-11T10:11:26.999Z</time></trkpt><trkpt lat="45.034117599683285" lon="7.945466185448749"><ele>311.0</ele><time>2026-04-11T10:11:28.999Z</time></trkpt><trkpt lat="45.03418078247972" lon="7.945453782222227"><ele>311.0</ele><time>2026-04-11T10:11:30.999Z</time></trkpt><trkpt lat="45.03429394957375" lon="7.945432273675088"><ele>310.2</ele><time>2026-04-11T10:11:32.999Z</time></trkpt><trkpt lat="45.034379106087535" lon="7.945420602496987"><ele>309.40000000000003</ele><time>2026-04-11T10:11:34.999Z</time></trkpt><trkpt lat="45.03448134327417" lon="7.945409130812315"><ele>308.6</ele><time>2026-04-11T10:11:37.999Z</time></trkpt><trkpt lat="45.03458012318354" lon="7.945372112961275"><ele>307.8</ele><time>2026-04-11T10:11:39.999Z</time></trkpt><trkpt lat="45.03466002231936" lon="7.945355093978201"><ele>307.0</ele><time>2026-04-11T10:11:41.999Z</time></trkpt><trkpt lat="45.034777002224196" lon="7.945352885946853"><ele>307.0</ele><time>2026-04-11T10:11:45.999Z</time></trkpt><trkpt lat="45.034842930733426" lon="7.945333940129144"><ele>307.0</ele><time>2026-04-11T10:11:47.999Z</time></trkpt><trkpt lat="45.035050912460974" lon="7.945315385036036"><ele>307.0</ele><time>2026-04-11T10:11:53Z</time></trkpt><trkpt lat="45.035144824175724" lon="7.945309614709494"><ele>307.0</ele><time>2026-04-11T10:11:55Z</time></trkpt><trkpt lat="45.03523982127296" lon="7.945334556075111"><ele>307.6</ele><time>2026-04-11T10:11:57Z</time></trkpt><trkpt lat="45.03534788068914" lon="7.945414417932085"><ele>308.2</ele><time>2026-04-11T10:11:59Z</time></trkpt><trkpt lat="45.03540283007418" lon="7.945460995354586"><ele>308.8</ele><time>2026-04-11T10:12:00Z</time></trkpt><trkpt lat="45.03549744489488" lon="7.945570260724355"><ele>309.4</ele><time>2026-04-11T10:12:02Z</time></trkpt><trkpt lat="45.03558718810741" lon="7.945668821932726"><ele>310.0</ele><time>2026-04-11T10:12:04Z</time></trkpt><trkpt lat="45.03567915187345" lon="7.945759417270744"><ele>310.0</ele><time>2026-04-11T10:12:06Z</time></trkpt><trkpt lat="45.0357516879518" lon="7.945857211944224"><ele>310.0</ele><time>2026-04-11T10:12:08Z</time></trkpt><trkpt lat="45.035820275107554" lon="7.945938042267344"><ele>310.0</ele><time>2026-04-11T10:12:10Z</time></trkpt><trkpt lat="45.0358756203403" lon="7.946012061235701"><ele>310.0</ele><time>2026-04-11T10:12:12Z</time></trkpt><trkpt lat="45.03594704207216" lon="7.9461214121456045"><ele>310.0</ele><time>2026-04-11T10:12:14Z</time></trkpt><trkpt lat="45.03601257045118" lon="7.946219787512591"><ele>309.8333333333333</ele><time>2026-04-11T10:12:16Z</time></trkpt><trkpt lat="45.03607221981618" lon="7.94631494941996"><ele>309.66666666666663</ele><time>2026-04-11T10:12:18Z</time></trkpt><trkpt lat="45.036134856724466" lon="7.946369828042357"><ele>309.5</ele><time>2026-04-11T10:12:20Z</time></trkpt><trkpt lat="45.03619384830498" lon="7.946451512586949"><ele>309.3333333333333</ele><time>2026-04-11T10:12:22Z</time></trkpt><trkpt lat="45.036246848576035" lon="7.946512616592199"><ele>309.1666666666667</ele><time>2026-04-11T10:12:24Z</time></trkpt><trkpt lat="45.0363151056767" lon="7.946551427035458"><ele>309.0</ele><time>2026-04-11T10:12:49.999Z</time></trkpt><trkpt lat="45.03637830488397" lon="7.946570418995011"><ele>309.00000000000006</ele><time>2026-04-11T10:14:17Z</time></trkpt><trkpt lat="45.036403948652264" lon="7.946666666159458"><ele>309.0</ele><time>2026-04-11T10:14:20Z</time></trkpt><trkpt lat="45.03645728530567" lon="7.946750503328637"><ele>309.0</ele><time>2026-04-11T10:14:24Z</time></trkpt><trkpt lat="45.03651775065657" lon="7.946816209803627"><ele>309.0</ele><time>2026-04-11T10:14:28Z</time></trkpt><trkpt lat="45.03659593411833" lon="7.946822590356002"><ele>309.0</ele><time>2026-04-11T10:14:31Z</time></trkpt><trkpt lat="45.03666268017586" lon="7.946824330854264"><ele>309.00000000000006</ele><time>2026-04-11T10:14:33Z</time></trkpt><trkpt lat="45.03672977630158" lon="7.946835546936325"><ele>309.0</ele><time>2026-04-11T10:14:35Z</time></trkpt><trkpt lat="45.03680517714399" lon="7.946847680884018"><ele>309.00000000000006</ele><time>2026-04-11T10:14:37Z</time></trkpt><trkpt lat="45.03687500361141" lon="7.946853029595906"><ele>309.0</ele><time>2026-04-11T10:14:39Z</time></trkpt><trkpt lat="45.036944289601855" lon="7.946856619842593"><ele>309.0</ele><time>2026-04-11T10:14:41Z</time></trkpt><trkpt lat="45.03701275028222" lon="7.946856319007421"><ele>309.0</ele><time>2026-04-11T10:14:43Z</time></trkpt><trkpt lat="45.037075930391126" lon="7.946852872620807"><ele>309.0</ele><time>2026-04-11T10:14:45Z</time></trkpt><trkpt lat="45.03714557509342" lon="7.9468552320551105"><ele>309.00000000000006</ele><time>2026-04-11T10:14:47Z</time></trkpt><trkpt lat="45.0372253755444" lon="7.946852560344476"><ele>309.0</ele><time>2026-04-11T10:14:49Z</time></trkpt><trkpt lat="45.03731771936219" lon="7.946851905399535"><ele>309.0</ele><time>2026-04-11T10:14:52.999Z</time></trkpt><trkpt lat="45.03738747497918" lon="7.946859972472798"><ele>309.0</ele><time>2026-04-11T10:14:54.999Z</time></trkpt><trkpt lat="45.03746239471882" lon="7.946816844032961"><ele>309.0</ele><time>2026-04-11T10:14:57.999Z</time></trkpt><trkpt lat="45.03754445718661" lon="7.946781400750899"><ele>309.0</ele><time>2026-04-11T10:15:00.999Z</time></trkpt><trkpt lat="45.03761270740979" lon="7.946772847140755"><ele>309.0</ele><time>2026-04-11T10:15:04.999Z</time></trkpt><trkpt lat="45.03765350046927" lon="7.9466786641137555"><ele>309.0</ele><time>2026-04-11T10:15:08.999Z</time></trkpt><trkpt lat="45.03769840555" lon="7.946558112111672"><ele>310.5</ele><time>2026-04-11T10:15:11.999Z</time></trkpt><trkpt lat="45.03774016446792" lon="7.94644405862776"><ele>312.0</ele><time>2026-04-11T10:15:14.999Z</time></trkpt><trkpt lat="45.037788510079025" lon="7.946310964188999"><ele>313.5</ele><time>2026-04-11T10:15:18.999Z</time></trkpt><trkpt lat="45.03780118534192" lon="7.946182291845893"><ele>315.0</ele><time>2026-04-11T10:15:21.999Z</time></trkpt><trkpt lat="45.037876850106095" lon="7.946137087115668"><ele>316.5</ele><time>2026-04-11T10:15:23.999Z</time></trkpt><trkpt lat="45.03794497157429" lon="7.946122014581148"><ele>318.0</ele><time>2026-04-11T10:15:25.999Z</time></trkpt><trkpt lat="45.03815987623745" lon="7.946138825869079"><ele>318.0</ele><time>2026-04-11T10:15:32.999Z</time></trkpt><trkpt lat="45.038291590668734" lon="7.9461407089604625"><ele>318.0</ele><time>2026-04-11T10:15:36.999Z</time></trkpt><trkpt lat="45.038364210097804" lon="7.946059112995066"><ele>318.0</ele><time>2026-04-11T10:15:39.999Z</time></trkpt><trkpt lat="45.03842438239251" lon="7.945977986491631"><ele>318.0</ele><time>2026-04-11T10:15:41.999Z</time></trkpt><trkpt lat="45.03848744741336" lon="7.945892765874538"><ele>318.0</ele><time>2026-04-11T10:15:43.999Z</time></trkpt><trkpt lat="45.03857723569486" lon="7.945697431329013"><ele>320.2</ele><time>2026-04-11T10:15:47.999Z</time></trkpt><trkpt lat="45.038673657289" lon="7.945608021599502"><ele>322.4</ele><time>2026-04-11T10:15:51.999Z</time></trkpt><trkpt lat="45.03875395730626" lon="7.945523082447012"><ele>324.59999999999997</ele><time>2026-04-11T10:15:53.999Z</time></trkpt><trkpt lat="45.03887411818195" lon="7.945609909328543"><ele>326.8</ele><time>2026-04-11T10:15:56.999Z</time></trkpt><trkpt lat="45.038955114891785" lon="7.945641259960792"><ele>329.0</ele><time>2026-04-11T10:16:01Z</time></trkpt><trkpt lat="45.03900864291451" lon="7.945688690962152"><ele>329.0</ele><time>2026-04-11T10:16:04Z</time></trkpt><trkpt lat="45.039089295689585" lon="7.945717602115388"><ele>329.0</ele><time>2026-04-11T10:16:06Z</time></trkpt><trkpt lat="45.039161915521035" lon="7.945709262084699"><ele>329.0</ele><time>2026-04-11T10:16:10Z</time></trkpt><trkpt lat="45.039221549490996" lon="7.945586465978657"><ele>329.0</ele><time>2026-04-11T10:16:11Z</time></trkpt><trkpt lat="45.03922676348612" lon="7.945488416229674"><ele>329.0</ele><time>2026-04-11T10:16:13Z</time></trkpt><trkpt lat="45.03922197527069" lon="7.945393778300995"><ele>329.0</ele><time>2026-04-11T10:16:15Z</time></trkpt><trkpt lat="45.03923446603845" lon="7.9452801397429855"><ele>328.0</ele><time>2026-04-11T10:16:17Z</time></trkpt><trkpt lat="45.03926805569295" lon="7.945192256465181"><ele>327.0</ele><time>2026-04-11T10:16:19Z</time></trkpt><trkpt lat="45.039311245980855" lon="7.945039589153949"><ele>326.0</ele><time>2026-04-11T10:16:22Z</time></trkpt><trkpt lat="45.03929532165865" lon="7.94492656904432"><ele>325.0</ele><time>2026-04-11T10:16:24Z</time></trkpt><trkpt lat="45.03928964641892" lon="7.944785131875931"><ele>324.0</ele><time>2026-04-11T10:16:26Z</time></trkpt><trkpt lat="45.03928959241599" lon="7.944666523148762"><ele>323.6</ele><time>2026-04-11T10:16:28Z</time></trkpt><trkpt lat="45.03930500252775" lon="7.9445541178233485"><ele>323.2</ele><time>2026-04-11T10:16:30Z</time></trkpt><trkpt lat="45.03930869725871" lon="7.944418048093532"><ele>322.8</ele><time>2026-04-11T10:16:32Z</time></trkpt><trkpt lat="45.039304763624955" lon="7.944272002931084"><ele>322.40000000000003</ele><time>2026-04-11T10:16:34Z</time></trkpt><trkpt lat="45.03940274313298" lon="7.944226429382084"><ele>322.0</ele><time>2026-04-11T10:16:39Z</time></trkpt><trkpt lat="45.039472351974226" lon="7.94425726904475"><ele>322.0</ele><time>2026-04-11T10:16:41Z</time></trkpt><trkpt lat="45.03954528616516" lon="7.944332659416454"><ele>322.0</ele><time>2026-04-11T10:16:44Z</time></trkpt><trkpt lat="45.03961943753689" lon="7.944395331187186"><ele>322.0</ele><time>2026-04-11T10:16:47Z</time></trkpt><trkpt lat="45.039696722771545" lon="7.944454754421804"><ele>322.0</ele><time>2026-04-11T10:16:50Z</time></trkpt><trkpt lat="45.0397720308298" lon="7.944496554672516"><ele>322.0</ele><time>2026-04-11T10:16:53Z</time></trkpt><trkpt lat="45.03983772885777" lon="7.944562897282759"><ele>322.0</ele><time>2026-04-11T10:16:56Z</time></trkpt><trkpt lat="45.039885420095004" lon="7.944625920050552"><ele>322.0</ele><time>2026-04-11T10:17:00Z</time></trkpt><trkpt lat="45.039912217390764" lon="7.944750802500553"><ele>322.0</ele><time>2026-04-11T10:17:02.999Z</time></trkpt><trkpt lat="45.03992464945711" lon="7.944871409098102"><ele>322.0</ele><time>2026-04-11T10:17:05.999Z</time></trkpt><trkpt lat="45.03991028480585" lon="7.944996579961321"><ele>322.0</ele><time>2026-04-11T10:17:08.999Z</time></trkpt><trkpt lat="45.03989841110542" lon="7.945090137884836"><ele>322.0</ele><time>2026-04-11T10:17:10.999Z</time></trkpt><trkpt lat="45.03990030430145" lon="7.945190997564684"><ele>322.0</ele><time>2026-04-11T10:17:12.999Z</time></trkpt><trkpt lat="45.039893459145475" lon="7.94529056928497"><ele>322.3333333333333</ele><time>2026-04-11T10:17:14.999Z</time></trkpt><trkpt lat="45.039893797157106" lon="7.945386036326088"><ele>322.66666666666663</ele><time>2026-04-11T10:17:16.999Z</time></trkpt><trkpt lat="45.03988600970523" lon="7.945486542698978"><ele>323.0</ele><time>2026-04-11T10:17:18.999Z</time></trkpt><trkpt lat="45.03989257136148" lon="7.945621141856677"><ele>323.3333333333333</ele><time>2026-04-11T10:17:21.999Z</time></trkpt><trkpt lat="45.03990295232935" lon="7.945715347874027"><ele>323.6666666666667</ele><time>2026-04-11T10:17:23.999Z</time></trkpt><trkpt lat="45.03993461978317" lon="7.945849316397409"><ele>324.0</ele><time>2026-04-11T10:17:25.999Z</time></trkpt><trkpt lat="45.03996415328041" lon="7.9459769147638655"><ele>321.8333333333333</ele><time>2026-04-11T10:17:27.999Z</time></trkpt><trkpt lat="45.03998062664703" lon="7.9461333226752675"><ele>319.6666666666667</ele><time>2026-04-11T10:17:29.999Z</time></trkpt><trkpt lat="45.03996287610159" lon="7.946220463426823"><ele>317.5</ele><time>2026-04-11T10:17:30.999Z</time></trkpt><trkpt lat="45.039878683729526" lon="7.9463499891741405"><ele>315.33333333333337</ele><time>2026-04-11T10:17:32.999Z</time></trkpt><trkpt lat="45.03981680538298" lon="7.946395680587795"><ele>313.1666666666667</ele><time>2026-04-11T10:17:33.999Z</time></trkpt><trkpt lat="45.03974851693853" lon="7.946422655174501"><ele>311.0</ele><time>2026-04-11T10:17:34.999Z</time></trkpt><trkpt lat="45.039672916040935" lon="7.946443086002393"><ele>311.0</ele><time>2026-04-11T10:17:35.999Z</time></trkpt><trkpt lat="45.03958768926695" lon="7.94645670457456"><ele>311.0</ele><time>2026-04-11T10:17:36.999Z</time></trkpt><trkpt lat="45.03951084071942" lon="7.946468604898789"><ele>311.0</ele><time>2026-04-11T10:17:37.999Z</time></trkpt><trkpt lat="45.03943574134085" lon="7.946528629060493"><ele>311.0</ele><time>2026-04-11T10:17:38.999Z</time></trkpt><trkpt lat="45.03936069070889" lon="7.946609605320528"><ele>311.0</ele><time>2026-04-11T10:17:39.999Z</time></trkpt><trkpt lat="45.039321115923606" lon="7.946716309780097"><ele>311.0</ele><time>2026-04-11T10:17:40.999Z</time></trkpt><trkpt lat="45.039299534628725" lon="7.946839837161213"><ele>308.1666666666667</ele><time>2026-04-11T10:17:41.999Z</time></trkpt><trkpt lat="45.039278939493855" lon="7.946956572407634"><ele>305.33333333333337</ele><time>2026-04-11T10:17:42.999Z</time></trkpt><trkpt lat="45.03926295270515" lon="7.947074349272504"><ele>302.5</ele><time>2026-04-11T10:17:43.999Z</time></trkpt><trkpt lat="45.0392530824523" lon="7.947190903560951"><ele>299.6666666666667</ele><time>2026-04-11T10:17:44.999Z</time></trkpt><trkpt lat="45.039243379080695" lon="7.9473209062783505"><ele>296.8333333333333</ele><time>2026-04-11T10:17:45.999Z</time></trkpt><trkpt lat="45.03924374237466" lon="7.947434514656855"><ele>294.0</ele><time>2026-04-11T10:17:46.999Z</time></trkpt><trkpt lat="45.03924095998415" lon="7.947552519148184"><ele>290.8</ele><time>2026-04-11T10:17:47.999Z</time></trkpt><trkpt lat="45.03922493444958" lon="7.9476708964200835"><ele>287.59999999999997</ele><time>2026-04-11T10:17:48.999Z</time></trkpt><trkpt lat="45.03919012166743" lon="7.947787900051411"><ele>284.4</ele><time>2026-04-11T10:17:49.999Z</time></trkpt><trkpt lat="45.03914327861146" lon="7.947912062151188"><ele>281.2</ele><time>2026-04-11T10:17:50.999Z</time></trkpt><trkpt lat="45.039093689577996" lon="7.948020711883322"><ele>278.0</ele><time>2026-04-11T10:17:51.999Z</time></trkpt><trkpt lat="45.039061790924386" lon="7.948142348957259"><ele>277.8</ele><time>2026-04-11T10:17:52.999Z</time></trkpt><trkpt lat="45.03905847864797" lon="7.948278283993297"><ele>277.6</ele><time>2026-04-11T10:17:53.999Z</time></trkpt><trkpt lat="45.03908090233608" lon="7.948414230634886"><ele>277.4</ele><time>2026-04-11T10:17:54.999Z</time></trkpt><trkpt lat="45.0391019767649" lon="7.948573570778691"><ele>277.2</ele><time>2026-04-11T10:17:55.999Z</time></trkpt><trkpt lat="45.03912215137066" lon="7.948732490416247"><ele>277.0</ele><time>2026-04-11T10:17:56.999Z</time></trkpt><trkpt lat="45.039148285767226" lon="7.948879394674582"><ele>275.4</ele><time>2026-04-11T10:17:57.999Z</time></trkpt><trkpt lat="45.039175464374026" lon="7.949024865922513"><ele>273.79999999999995</ele><time>2026-04-11T10:17:58.999Z</time></trkpt><trkpt lat="45.03919899119137" lon="7.949164672588244"><ele>272.2</ele><time>2026-04-11T10:17:59.999Z</time></trkpt><trkpt lat="45.03921449918921" lon="7.94932446683551"><ele>270.59999999999997</ele><time>2026-04-11T10:18:00.999Z</time></trkpt><trkpt lat="45.03923809280247" lon="7.949479905194112"><ele>269.0</ele><time>2026-04-11T10:18:01.999Z</time></trkpt><trkpt lat="45.039255321665074" lon="7.949635241163311"><ele>268.4</ele><time>2026-04-11T10:18:02.999Z</time></trkpt><trkpt lat="45.03927780305049" lon="7.9497789202512275"><ele>267.79999999999995</ele><time>2026-04-11T10:18:03.999Z</time></trkpt><trkpt lat="45.03928995771702" lon="7.949921169049979"><ele>267.20000000000005</ele><time>2026-04-11T10:18:04.999Z</time></trkpt><trkpt lat="45.03930560032079" lon="7.950050288570052"><ele>266.6</ele><time>2026-04-11T10:18:05.999Z</time></trkpt><trkpt lat="45.03929089214523" lon="7.950193284713267"><ele>266.0</ele><time>2026-04-11T10:18:07Z</time></trkpt><trkpt lat="45.039267760829595" lon="7.9503575638935065"><ele>265.8</ele><time>2026-04-11T10:18:08Z</time></trkpt><trkpt lat="45.0392291185561" lon="7.950498933090786"><ele>265.6</ele><time>2026-04-11T10:18:09Z</time></trkpt><trkpt lat="45.03917406815186" lon="7.9506362256109835"><ele>265.4</ele><time>2026-04-11T10:18:10Z</time></trkpt><trkpt lat="45.03911811357963" lon="7.950769178598476"><ele>265.2</ele><time>2026-04-11T10:18:11Z</time></trkpt><trkpt lat="45.03904652125167" lon="7.950899483577957"><ele>265.0</ele><time>2026-04-11T10:18:12Z</time></trkpt><trkpt lat="45.03898923110939" lon="7.951031363920163"><ele>262.25</ele><time>2026-04-11T10:18:13Z</time></trkpt><trkpt lat="45.038928308362316" lon="7.951168736741262"><ele>259.5</ele><time>2026-04-11T10:18:14Z</time></trkpt><trkpt lat="45.03886192269242" lon="7.95131299119336"><ele>256.75</ele><time>2026-04-11T10:18:15Z</time></trkpt><trkpt lat="45.03879390258744" lon="7.951460528830622"><ele>254.0</ele><time>2026-04-11T10:18:16Z</time></trkpt><trkpt lat="45.03873128775786" lon="7.951617967388581"><ele>252.5</ele><time>2026-04-11T10:18:17Z</time></trkpt><trkpt lat="45.03867180036896" lon="7.951777023878335"><ele>251.0</ele><time>2026-04-11T10:18:18Z</time></trkpt><trkpt lat="45.03862009721148" lon="7.951942731455159"><ele>249.5</ele><time>2026-04-11T10:18:19Z</time></trkpt><trkpt lat="45.038580959021466" lon="7.952118994466811"><ele>248.0</ele><time>2026-04-11T10:18:20Z</time></trkpt><trkpt lat="45.03856366274642" lon="7.952305260460456"><ele>248.0</ele><time>2026-04-11T10:18:21Z</time></trkpt><trkpt lat="45.03855681481117" lon="7.952490685014366"><ele>248.0</ele><time>2026-04-11T10:18:22Z</time></trkpt><trkpt lat="45.038566164593576" lon="7.952682775936633"><ele>248.0</ele><time>2026-04-11T10:18:23Z</time></trkpt><trkpt lat="45.03859931558682" lon="7.952860016469306"><ele>248.0</ele><time>2026-04-11T10:18:24Z</time></trkpt><trkpt lat="45.03864424986504" lon="7.953038934727197"><ele>247.0</ele><time>2026-04-11T10:18:25Z</time></trkpt><trkpt lat="45.03868616514121" lon="7.953211445338383"><ele>246.0</ele><time>2026-04-11T10:18:26Z</time></trkpt><trkpt lat="45.038728144559876" lon="7.95338405081639"><ele>245.0</ele><time>2026-04-11T10:18:27Z</time></trkpt><trkpt lat="45.03876874389163" lon="7.953560206213776"><ele>244.0</ele><time>2026-04-11T10:18:28Z</time></trkpt><trkpt lat="45.03881315703656" lon="7.953726715846511"><ele>243.75</ele><time>2026-04-11T10:18:29Z</time></trkpt><trkpt lat="45.03885167485324" lon="7.953896988827556"><ele>243.5</ele><time>2026-04-11T10:18:30Z</time></trkpt><trkpt lat="45.03889162280012" lon="7.954054282945589"><ele>243.25</ele><time>2026-04-11T10:18:31Z</time></trkpt><trkpt lat="45.03892735047014" lon="7.954215014217377"><ele>243.0</ele><time>2026-04-11T10:18:32Z</time></trkpt><trkpt lat="45.0389638889728" lon="7.9543618132049705"><ele>242.8</ele><time>2026-04-11T10:18:33Z</time></trkpt><trkpt lat="45.03899611781422" lon="7.9545136813800745"><ele>242.60000000000002</ele><time>2026-04-11T10:18:34Z</time></trkpt><trkpt lat="45.039035265415464" lon="7.954643265577509"><ele>242.39999999999998</ele><time>2026-04-11T10:18:35Z</time></trkpt><trkpt lat="45.039067376909955" lon="7.954767473758272"><ele>242.2</ele><time>2026-04-11T10:18:36Z</time></trkpt><trkpt lat="45.03910158577349" lon="7.954891402467546"><ele>242.0</ele><time>2026-04-11T10:18:37Z</time></trkpt><trkpt lat="45.03913181532723" lon="7.955005362312419"><ele>245.50000000000003</ele><time>2026-04-11T10:18:38Z</time></trkpt><trkpt lat="45.039161435896034" lon="7.955121125085242"><ele>249.0</ele><time>2026-04-11T10:18:39Z</time></trkpt><trkpt lat="45.03918654821572" lon="7.9552364675596445"><ele>252.5</ele><time>2026-04-11T10:18:40Z</time></trkpt><trkpt lat="45.03921745889263" lon="7.955337076254965"><ele>256.0</ele><time>2026-04-11T10:18:41Z</time></trkpt><trkpt lat="45.039244895982655" lon="7.9554433778422045"><ele>259.5</ele><time>2026-04-11T10:18:42Z</time></trkpt><trkpt lat="45.039266194144496" lon="7.955553076959603"><ele>263.0</ele><time>2026-04-11T10:18:43Z</time></trkpt><trkpt lat="45.03928573683186" lon="7.955658770176133"><ele>263.0</ele><time>2026-04-11T10:18:44Z</time></trkpt><trkpt lat="45.03929965646326" lon="7.955752880168608"><ele>263.0</ele><time>2026-04-11T10:18:45Z</time></trkpt><trkpt lat="45.03931973329806" lon="7.95584952343531"><ele>263.0</ele><time>2026-04-11T10:18:46Z</time></trkpt><trkpt lat="45.03933820304749" lon="7.955953121971628"><ele>263.0</ele><time>2026-04-11T10:18:47Z</time></trkpt><trkpt lat="45.03937337840871" lon="7.956032558749721"><ele>263.0</ele><time>2026-04-11T10:18:48Z</time></trkpt><trkpt lat="45.039421657806436" lon="7.956193535064105"><ele>263.0</ele><time>2026-04-11T10:18:50Z</time></trkpt><trkpt lat="45.03944486262299" lon="7.956285416096727"><ele>264.0</ele><time>2026-04-11T10:18:51Z</time></trkpt><trkpt lat="45.03950529709277" lon="7.956461059504065"><ele>265.0</ele><time>2026-04-11T10:18:53Z</time></trkpt><trkpt lat="45.03954282213988" lon="7.95654146085895"><ele>266.0</ele><time>2026-04-11T10:18:54Z</time></trkpt><trkpt lat="45.03956544995668" lon="7.9567462969555605"><ele>267.0</ele><time>2026-04-11T10:18:56Z</time></trkpt><trkpt lat="45.03960237248703" lon="7.956860729469367"><ele>268.0</ele><time>2026-04-11T10:18:57Z</time></trkpt><trkpt lat="45.03963663274183" lon="7.956970947568616"><ele>268.0</ele><time>2026-04-11T10:18:58Z</time></trkpt><trkpt lat="45.03967254639877" lon="7.957068598260861"><ele>268.0</ele><time>2026-04-11T10:18:59Z</time></trkpt><trkpt lat="45.03970488737462" lon="7.957171041378556"><ele>268.0</ele><time>2026-04-11T10:19:00Z</time></trkpt><trkpt lat="45.03973416563478" lon="7.957262897673039"><ele>268.0</ele><time>2026-04-11T10:19:01Z</time></trkpt><trkpt lat="45.039782581247295" lon="7.957336055501555"><ele>268.0</ele><time>2026-04-11T10:19:02Z</time></trkpt><trkpt lat="45.03979858006756" lon="7.957434028495179"><ele>268.0</ele><time>2026-04-11T10:19:03Z</time></trkpt><trkpt lat="45.03983040566602" lon="7.957511782945464"><ele>268.0</ele><time>2026-04-11T10:19:04Z</time></trkpt><trkpt lat="45.03986581839905" lon="7.957677745500352"><ele>267.0</ele><time>2026-04-11T10:19:06Z</time></trkpt><trkpt lat="45.039926580941774" lon="7.957821788847407"><ele>266.0</ele><time>2026-04-11T10:19:07.999Z</time></trkpt><trkpt lat="45.03996893475371" lon="7.957933028701043"><ele>265.0</ele><time>2026-04-11T10:19:09.999Z</time></trkpt><trkpt lat="45.0399744107577" lon="7.958041168619724"><ele>264.0</ele><time>2026-04-11T10:19:11.999Z</time></trkpt><trkpt lat="45.03999387562851" lon="7.958150807999753"><ele>263.0</ele><time>2026-04-11T10:19:14.999Z</time></trkpt><trkpt lat="45.039993622141154" lon="7.95824836058861"><ele>262.0</ele><time>2026-04-11T10:19:18.999Z</time></trkpt><trkpt lat="45.04000952501296" lon="7.9583520013124005"><ele>261.0</ele><time>2026-04-11T10:19:44.999Z</time></trkpt><trkpt lat="45.04004108095268" lon="7.958459787572111"><ele>260.0</ele><time>2026-04-11T10:19:48.999Z</time></trkpt><trkpt lat="45.03993197067546" lon="7.958551452136247"><ele>259.0</ele><time>2026-04-11T10:19:49.999Z</time></trkpt><trkpt lat="45.03988458628783" lon="7.958619884651357"><ele>258.0</ele><time>2026-04-11T10:19:51.999Z</time></trkpt><trkpt lat="45.039838476778854" lon="7.958682225898264"><ele>257.0</ele><time>2026-04-11T10:19:53.999Z</time></trkpt><trkpt lat="45.03976408867755" lon="7.958758300959608"><ele>256.0</ele><time>2026-04-11T10:19:56.999Z</time></trkpt><trkpt lat="45.039698661420395" lon="7.958823894049712"><ele>255.99999999999997</ele><time>2026-04-11T10:19:59.999Z</time></trkpt><trkpt lat="45.03964589272104" lon="7.958898457184044"><ele>256.0</ele><time>2026-04-11T10:20:03.999Z</time></trkpt><trkpt lat="45.039582309628344" lon="7.95897495115633"><ele>256.0</ele><time>2026-04-11T10:20:08.999Z</time></trkpt><trkpt lat="45.03951457883867" lon="7.959054544600673"><ele>256.0</ele><time>2026-04-11T10:20:11.999Z</time></trkpt><trkpt lat="45.03945155333163" lon="7.95915053443242"><ele>255.99999999999997</ele><time>2026-04-11T10:20:14Z</time></trkpt><trkpt lat="45.03937144607279" lon="7.959215480285507"><ele>256.0</ele><time>2026-04-11T10:20:16Z</time></trkpt><trkpt lat="45.03930763844864" lon="7.959290252252475"><ele>254.60000000000002</ele><time>2026-04-11T10:20:18Z</time></trkpt><trkpt lat="45.03922007798888" lon="7.959385470835296"><ele>253.20000000000002</ele><time>2026-04-11T10:20:20Z</time></trkpt><trkpt lat="45.0391630345734" lon="7.959426717626286"><ele>251.79999999999998</ele><time>2026-04-11T10:20:21Z</time></trkpt><trkpt lat="45.03908550101089" lon="7.959503664747429"><ele>250.39999999999998</ele><time>2026-04-11T10:20:23Z</time></trkpt><trkpt lat="45.039011357318785" lon="7.9596221740598985"><ele>249.0</ele><time>2026-04-11T10:20:25Z</time></trkpt><trkpt lat="45.03893407271946" lon="7.9597532312119155"><ele>249.0</ele><time>2026-04-11T10:20:27Z</time></trkpt><trkpt lat="45.038895146590406" lon="7.959825937489098"><ele>248.99999999999997</ele><time>2026-04-11T10:20:28Z</time></trkpt><trkpt lat="45.03885230016601" lon="7.959907630238907"><ele>249.0</ele><time>2026-04-11T10:20:29Z</time></trkpt><trkpt lat="45.03881693704036" lon="7.959986273662044"><ele>249.0</ele><time>2026-04-11T10:20:30Z</time></trkpt><trkpt lat="45.038775518512814" lon="7.960060634865531"><ele>248.99999999999997</ele><time>2026-04-11T10:20:31Z</time></trkpt><trkpt lat="45.03875084035486" lon="7.960146474159369"><ele>249.0</ele><time>2026-04-11T10:20:32Z</time></trkpt><trkpt lat="45.03872053759537" lon="7.960229626804605"><ele>249.0</ele><time>2026-04-11T10:20:33Z</time></trkpt><trkpt lat="45.03868968659748" lon="7.960326436116963"><ele>247.83333333333334</ele><time>2026-04-11T10:20:34Z</time></trkpt><trkpt lat="45.03866441673425" lon="7.960423246130857"><ele>246.66666666666669</ele><time>2026-04-11T10:20:35Z</time></trkpt><trkpt lat="45.038630704399644" lon="7.960525938619532"><ele>245.5</ele><time>2026-04-11T10:20:36Z</time></trkpt><trkpt lat="45.038623646776244" lon="7.960633052566664"><ele>244.33333333333334</ele><time>2026-04-11T10:20:37Z</time></trkpt><trkpt lat="45.03860871933804" lon="7.96074306020124"><ele>243.16666666666669</ele><time>2026-04-11T10:20:38Z</time></trkpt><trkpt lat="45.03859609481359" lon="7.960846906978816"><ele>242.0</ele><time>2026-04-11T10:20:39Z</time></trkpt><trkpt lat="45.03858428055988" lon="7.9609539534565466"><ele>241.33333333333334</ele><time>2026-04-11T10:20:40Z</time></trkpt><trkpt lat="45.038578942760644" lon="7.961054668250545"><ele>240.66666666666669</ele><time>2026-04-11T10:20:41Z</time></trkpt><trkpt lat="45.038585864979275" lon="7.961151445033201"><ele>240.0</ele><time>2026-04-11T10:20:42Z</time></trkpt><trkpt lat="45.03857740836145" lon="7.961331146140983"><ele>239.33333333333331</ele><time>2026-04-11T10:20:44Z</time></trkpt><trkpt lat="45.03858624357599" lon="7.961432565511757"><ele>238.66666666666666</ele><time>2026-04-11T10:20:45Z</time></trkpt><trkpt lat="45.03859585651461" lon="7.961525226150442"><ele>238.0</ele><time>2026-04-11T10:20:46Z</time></trkpt><trkpt lat="45.03860684320947" lon="7.961614448760527"><ele>237.83333333333331</ele><time>2026-04-11T10:20:47Z</time></trkpt><trkpt lat="45.03860303376652" lon="7.961705599875618"><ele>237.66666666666666</ele><time>2026-04-11T10:20:48Z</time></trkpt><trkpt lat="45.03859591921355" lon="7.961797128921311"><ele>237.5</ele><time>2026-04-11T10:20:49Z</time></trkpt><trkpt lat="45.0385989499102" lon="7.961890613967315"><ele>237.33333333333331</ele><time>2026-04-11T10:20:50Z</time></trkpt><trkpt lat="45.0386124536309" lon="7.962062933110132"><ele>237.16666666666666</ele><time>2026-04-11T10:20:52Z</time></trkpt><trkpt lat="45.038623721785775" lon="7.962237519136305"><ele>237.0</ele><time>2026-04-11T10:20:54Z</time></trkpt><trkpt lat="45.0386467395225" lon="7.962420103657497"><ele>236.8</ele><time>2026-04-11T10:20:56Z</time></trkpt><trkpt lat="45.038665966225885" lon="7.9625931309901565"><ele>236.6</ele><time>2026-04-11T10:20:58Z</time></trkpt><trkpt lat="45.03865607999972" lon="7.96269032223468"><ele>236.40000000000003</ele><time>2026-04-11T10:20:59Z</time></trkpt><trkpt lat="45.03863779966139" lon="7.962857204111026"><ele>236.20000000000002</ele><time>2026-04-11T10:21:01Z</time></trkpt><trkpt lat="45.03862843990488" lon="7.962950944722818"><ele>236.0</ele><time>2026-04-11T10:21:02Z</time></trkpt><trkpt lat="45.038642120855435" lon="7.963051266364431"><ele>236.00000000000003</ele><time>2026-04-11T10:21:03Z</time></trkpt><trkpt lat="45.03864200755368" lon="7.963148820259129"><ele>236.0</ele><time>2026-04-11T10:21:04Z</time></trkpt><trkpt lat="45.038633676531916" lon="7.963242541735443"><ele>236.0</ele><time>2026-04-11T10:21:04.999Z</time></trkpt><trkpt lat="45.03864207729631" lon="7.963342251106399"><ele>236.0</ele><time>2026-04-11T10:21:05.999Z</time></trkpt><trkpt lat="45.03866976060632" lon="7.9635080484533205"><ele>236.00000000000003</ele><time>2026-04-11T10:21:07.999Z</time></trkpt><trkpt lat="45.03867733420957" lon="7.963602921075491"><ele>236.0</ele><time>2026-04-11T10:21:08.999Z</time></trkpt><trkpt lat="45.03868252008399" lon="7.963697411601243"><ele>236.00000000000003</ele><time>2026-04-11T10:21:09.999Z</time></trkpt><trkpt lat="45.03868680863467" lon="7.963791368864132"><ele>236.0</ele><time>2026-04-11T10:21:10.999Z</time></trkpt><trkpt lat="45.03868507041119" lon="7.963959958721334"><ele>236.0</ele><time>2026-04-11T10:21:12.999Z</time></trkpt><trkpt lat="45.0387272211272" lon="7.964113653722045"><ele>236.0</ele><time>2026-04-11T10:21:14.999Z</time></trkpt><trkpt lat="45.03877436872657" lon="7.964182144516164"><ele>236.00000000000003</ele><time>2026-04-11T10:21:15.999Z</time></trkpt><trkpt lat="45.038817456160515" lon="7.96425402376106"><ele>236.0</ele><time>2026-04-11T10:21:16.999Z</time></trkpt><trkpt lat="45.038865385656" lon="7.964326606943395"><ele>236.0</ele><time>2026-04-11T10:21:17.999Z</time></trkpt><trkpt lat="45.03896701452371" lon="7.9644401631752855"><ele>236.00000000000003</ele><time>2026-04-11T10:21:19.999Z</time></trkpt><trkpt lat="45.03902496624818" lon="7.964492373477735"><ele>236.00000000000003</ele><time>2026-04-11T10:21:20.999Z</time></trkpt><trkpt lat="45.039122725515114" lon="7.964590355241836"><ele>236.0</ele><time>2026-04-11T10:21:22.999Z</time></trkpt><trkpt lat="45.03920859062482" lon="7.9646857976203815"><ele>236.0</ele><time>2026-04-11T10:21:24.999Z</time></trkpt><trkpt lat="45.03929660282262" lon="7.964763673506607"><ele>236.20000000000002</ele><time>2026-04-11T10:21:26.999Z</time></trkpt><trkpt lat="45.03936825908235" lon="7.964846630269478"><ele>236.40000000000003</ele><time>2026-04-11T10:21:28.999Z</time></trkpt><trkpt lat="45.039442326668734" lon="7.964939587589252"><ele>236.6</ele><time>2026-04-11T10:21:30.999Z</time></trkpt><trkpt lat="45.0394901159419" lon="7.965005333679854"><ele>236.8</ele><time>2026-04-11T10:21:31.999Z</time></trkpt><trkpt lat="45.03955325581331" lon="7.965115482267903"><ele>237.0</ele><time>2026-04-11T10:21:33.999Z</time></trkpt><trkpt lat="45.039646233748364" lon="7.965218733433249"><ele>237.2</ele><time>2026-04-11T10:21:35.999Z</time></trkpt><trkpt lat="45.0397349001697" lon="7.965305466642589"><ele>237.39999999999998</ele><time>2026-04-11T10:21:37.999Z</time></trkpt><trkpt lat="45.03982475228222" lon="7.965384194459253"><ele>237.60000000000002</ele><time>2026-04-11T10:21:39.999Z</time></trkpt><trkpt lat="45.0398777646761" lon="7.965493523989718"><ele>237.8</ele><time>2026-04-11T10:21:41.999Z</time></trkpt><trkpt lat="45.03993522571037" lon="7.965559619991905"><ele>238.0</ele><time>2026-04-11T10:21:43.999Z</time></trkpt><trkpt lat="45.039979739075704" lon="7.965654970362623"><ele>237.99999999999997</ele><time>2026-04-11T10:21:45.999Z</time></trkpt><trkpt lat="45.0399798485594" lon="7.965774912700349"><ele>238.0</ele><time>2026-04-11T10:21:47.999Z</time></trkpt><trkpt lat="45.03995641829846" lon="7.965858167355652"><ele>238.0</ele><time>2026-04-11T10:21:48.999Z</time></trkpt><trkpt lat="45.03990153043324" lon="7.965939630204682"><ele>238.0</ele><time>2026-04-11T10:21:50.999Z</time></trkpt><trkpt lat="45.03984549837718" lon="7.966033426524103"><ele>237.99999999999997</ele><time>2026-04-11T10:21:52.999Z</time></trkpt><trkpt lat="45.03978181177956" lon="7.966131051114903"><ele>238.0</ele><time>2026-04-11T10:21:54.999Z</time></trkpt><trkpt lat="45.03970851030489" lon="7.966213504071835"><ele>237.99999999999997</ele><time>2026-04-11T10:21:56.999Z</time></trkpt><trkpt lat="45.0396390686409" lon="7.966296798758028"><ele>238.0</ele><time>2026-04-11T10:21:58.999Z</time></trkpt><trkpt lat="45.03958316380856" lon="7.9663907589722"><ele>238.0</ele><time>2026-04-11T10:22:00.999Z</time></trkpt><trkpt lat="45.03953229682357" lon="7.96651957608549"><ele>238.0</ele><time>2026-04-11T10:22:02.999Z</time></trkpt><trkpt lat="45.03951161801894" lon="7.96662819596648"><ele>237.99999999999997</ele><time>2026-04-11T10:22:04.999Z</time></trkpt><trkpt lat="45.03950394226732" lon="7.966732584834579"><ele>238.0</ele><time>2026-04-11T10:22:06.999Z</time></trkpt><trkpt lat="45.03950590866609" lon="7.966822299597837"><ele>238.16666666666666</ele><time>2026-04-11T10:22:08.999Z</time></trkpt><trkpt lat="45.039518045006574" lon="7.96693395957479"><ele>238.33333333333331</ele><time>2026-04-11T10:22:11.999Z</time></trkpt><trkpt lat="45.03953316831181" lon="7.96704563684838"><ele>238.5</ele><time>2026-04-11T10:22:14.999Z</time></trkpt><trkpt lat="45.039540980622604" lon="7.967144809140069"><ele>238.66666666666669</ele><time>2026-04-11T10:22:19Z</time></trkpt><trkpt lat="45.03956132894209" lon="7.967257160117933"><ele>238.83333333333334</ele><time>2026-04-11T10:22:22Z</time></trkpt><trkpt lat="45.03959459815698" lon="7.96736485533351"><ele>239.0</ele><time>2026-04-11T10:22:25Z</time></trkpt><trkpt lat="45.039615607509816" lon="7.967464703002115"><ele>239.28571428571433</ele><time>2026-04-11T10:22:28Z</time></trkpt><trkpt lat="45.039638193617684" lon="7.967550746449594"><ele>239.57142857142858</ele><time>2026-04-11T10:22:31Z</time></trkpt><trkpt lat="45.039693689868486" lon="7.96762973504371"><ele>239.8571428571429</ele><time>2026-04-11T10:22:35Z</time></trkpt><trkpt lat="45.03973774430475" lon="7.967694224434172"><ele>240.14285714285717</ele><time>2026-04-11T10:22:38Z</time></trkpt><trkpt lat="45.03972818576302" lon="7.9677822900356645"><ele>240.42857142857144</ele><time>2026-04-11T10:22:42Z</time></trkpt><trkpt lat="45.03971463991601" lon="7.967881571221744"><ele>240.71428571428572</ele><time>2026-04-11T10:22:45Z</time></trkpt><trkpt lat="45.039719649848294" lon="7.967974680742741"><ele>241.0</ele><time>2026-04-11T10:22:48Z</time></trkpt><trkpt lat="45.03971786162091" lon="7.9680710345327626"><ele>241.0</ele><time>2026-04-11T10:22:53Z</time></trkpt><trkpt lat="45.03971266593285" lon="7.968162558572554"><ele>241.00000000000003</ele><time>2026-04-11T10:28:07.999Z</time></trkpt><trkpt lat="45.03974366465697" lon="7.968250459654685"><ele>241.0</ele><time>2026-04-11T10:28:12.999Z</time></trkpt><trkpt lat="45.039774543568974" lon="7.968340247293526"><ele>241.0</ele><time>2026-04-11T10:28:16.999Z</time></trkpt><trkpt lat="45.0397962847323" lon="7.968440478269919"><ele>241.00000000000003</ele><time>2026-04-11T10:28:20.999Z</time></trkpt><trkpt lat="45.03982444250531" lon="7.968548618595524"><ele>241.0</ele><time>2026-04-11T10:28:23.999Z</time></trkpt><trkpt lat="45.0398344377742" lon="7.968649885656782"><ele>241.0</ele><time>2026-04-11T10:28:26.999Z</time></trkpt><trkpt lat="45.03987166163865" lon="7.968749073094418"><ele>241.57142857142858</ele><time>2026-04-11T10:28:29.999Z</time></trkpt><trkpt lat="45.039889109315155" lon="7.968855332991439"><ele>242.14285714285717</ele><time>2026-04-11T10:28:32.999Z</time></trkpt><trkpt lat="45.03991204276682" lon="7.968968605604092"><ele>242.71428571428572</ele><time>2026-04-11T10:28:35.999Z</time></trkpt><trkpt lat="45.03993233401254" lon="7.969057400514328"><ele>243.28571428571428</ele><time>2026-04-11T10:28:39Z</time></trkpt><trkpt lat="45.03994371924809" lon="7.969153134157756"><ele>243.85714285714286</ele><time>2026-04-11T10:28:43Z</time></trkpt><trkpt lat="45.03994197365739" lon="7.969254882695509"><ele>244.42857142857144</ele><time>2026-04-11T10:28:48Z</time></trkpt><trkpt lat="45.039993558330536" lon="7.969344460933593"><ele>245.0</ele><time>2026-04-11T10:33:46Z</time></trkpt><trkpt lat="45.040010080075824" lon="7.969473427968021"><ele>245.50000000000003</ele><time>2026-04-11T10:33:49Z</time></trkpt><trkpt lat="45.04003621640695" lon="7.96959960014192"><ele>246.0</ele><time>2026-04-11T10:33:52Z</time></trkpt><trkpt lat="45.04004294516958" lon="7.969693247485693"><ele>246.5</ele><time>2026-04-11T10:33:54Z</time></trkpt><trkpt lat="45.04007697045817" lon="7.969792724166728"><ele>247.0</ele><time>2026-04-11T10:33:55.999Z</time></trkpt><trkpt lat="45.04009313097481" lon="7.969892211739106"><ele>247.50000000000003</ele><time>2026-04-11T10:33:57.999Z</time></trkpt><trkpt lat="45.04011183409362" lon="7.969990942724824"><ele>248.0</ele><time>2026-04-11T10:33:59.999Z</time></trkpt><trkpt lat="45.04015806132236" lon="7.97026592729867"><ele>250.8</ele><time>2026-04-11T10:34:06.999Z</time></trkpt><trkpt lat="45.040152829056574" lon="7.970385312117747"><ele>253.60000000000002</ele><time>2026-04-11T10:34:10.999Z</time></trkpt><trkpt lat="45.04016188514004" lon="7.970517360394012"><ele>256.4</ele><time>2026-04-11T10:34:13.999Z</time></trkpt><trkpt lat="45.040198041482086" lon="7.970657957494274"><ele>259.2</ele><time>2026-04-11T10:34:16.999Z</time></trkpt><trkpt lat="45.0402180256783" lon="7.970782692784468"><ele>262.0</ele><time>2026-04-11T10:34:19.999Z</time></trkpt><trkpt lat="45.04024009352681" lon="7.970888879372075"><ele>263.3333333333333</ele><time>2026-04-11T10:34:21.999Z</time></trkpt><trkpt lat="45.04026307633356" lon="7.970984460901278"><ele>264.66666666666663</ele><time>2026-04-11T10:34:23.999Z</time></trkpt><trkpt lat="45.04028674095777" lon="7.971099247694396"><ele>266.0</ele><time>2026-04-11T10:34:25.999Z</time></trkpt><trkpt lat="45.0403111428343" lon="7.971212045004508"><ele>267.3333333333333</ele><time>2026-04-11T10:34:27.999Z</time></trkpt><trkpt lat="45.04031752836222" lon="7.971331497402325"><ele>268.6666666666667</ele><time>2026-04-11T10:34:29.999Z</time></trkpt><trkpt lat="45.04031999650695" lon="7.971428594630341"><ele>270.0</ele><time>2026-04-11T10:34:31.999Z</time></trkpt><trkpt lat="45.040327236355616" lon="7.971525309167732"><ele>270.0</ele><time>2026-04-11T10:34:32.999Z</time></trkpt><trkpt lat="45.04034280577469" lon="7.971639267832397"><ele>270.0</ele><time>2026-04-11T10:34:33.999Z</time></trkpt><trkpt lat="45.04035593253291" lon="7.971782989186196"><ele>270.0</ele><time>2026-04-11T10:34:35.999Z</time></trkpt><trkpt lat="45.04036685087869" lon="7.971919705431668"><ele>270.0</ele><time>2026-04-11T10:34:37.999Z</time></trkpt><trkpt lat="45.040386828333844" lon="7.9720704310428"><ele>270.0</ele><time>2026-04-11T10:34:39.999Z</time></trkpt><trkpt lat="45.04040547837742" lon="7.972235493216816"><ele>267.4</ele><time>2026-04-11T10:34:41.999Z</time></trkpt><trkpt lat="45.040434753566466" lon="7.972387633319617"><ele>264.8</ele><time>2026-04-11T10:34:43.999Z</time></trkpt><trkpt lat="45.04046710222269" lon="7.97253618064931"><ele>262.2</ele><time>2026-04-11T10:34:45.999Z</time></trkpt><trkpt lat="45.04048966416086" lon="7.972667918252407"><ele>259.6</ele><time>2026-04-11T10:34:47.999Z</time></trkpt><trkpt lat="45.04050427967524" lon="7.972806816623365"><ele>257.0</ele><time>2026-04-11T10:34:49.999Z</time></trkpt><trkpt lat="45.04052064642958" lon="7.9729352247371095"><ele>256.1666666666667</ele><time>2026-04-11T10:34:51.999Z</time></trkpt><trkpt lat="45.04054466993788" lon="7.973066485000764"><ele>255.33333333333334</ele><time>2026-04-11T10:34:53.999Z</time></trkpt><trkpt lat="45.0405534126288" lon="7.973200974880744"><ele>254.5</ele><time>2026-04-11T10:34:56Z</time></trkpt><trkpt lat="45.040581833964666" lon="7.973299850806984"><ele>253.66666666666669</ele><time>2026-04-11T10:34:58Z</time></trkpt><trkpt lat="45.04059898519655" lon="7.973417773291652"><ele>252.83333333333334</ele><time>2026-04-11T10:35:00Z</time></trkpt><trkpt lat="45.04060928265324" lon="7.973523337302121"><ele>252.0</ele><time>2026-04-11T10:35:02Z</time></trkpt><trkpt lat="45.0406350458126" lon="7.973648896290665"><ele>254.0</ele><time>2026-04-11T10:35:04Z</time></trkpt><trkpt lat="45.040648833955544" lon="7.973758045449241"><ele>256.0</ele><time>2026-04-11T10:35:06Z</time></trkpt><trkpt lat="45.040657317286616" lon="7.973850381413905"><ele>258.0</ele><time>2026-04-11T10:35:08Z</time></trkpt><trkpt lat="45.04066373955745" lon="7.97395770255404"><ele>260.0</ele><time>2026-04-11T10:35:10Z</time></trkpt><trkpt lat="45.040673866123356" lon="7.974071706529053"><ele>262.0</ele><time>2026-04-11T10:35:12Z</time></trkpt><trkpt lat="45.04066436589293" lon="7.974167855614712"><ele>264.0</ele><time>2026-04-11T10:35:16Z</time></trkpt><trkpt lat="45.040670665748976" lon="7.974279231903105"><ele>266.0</ele><time>2026-04-11T10:35:19Z</time></trkpt><trkpt lat="45.04069225175993" lon="7.974372202928844"><ele>270.0</ele><time>2026-04-11T10:35:21Z</time></trkpt><trkpt lat="45.04070434899932" lon="7.974480603736125"><ele>274.0</ele><time>2026-04-11T10:35:24Z</time></trkpt><trkpt lat="45.04070664362851" lon="7.974589039656123"><ele>278.0</ele><time>2026-04-11T10:35:27Z</time></trkpt><trkpt lat="45.0408374315217" lon="7.975976336263241"><ele>278.0</ele><time>2026-04-11T10:35:45Z</time></trkpt><trkpt lat="45.04084018618175" lon="7.976182527297585"><ele>278.0</ele><time>2026-04-11T10:35:46Z</time></trkpt><trkpt lat="45.04088327511902" lon="7.97628032635761"><ele>278.0</ele><time>2026-04-11T10:35:47Z</time></trkpt><trkpt lat="45.04088205314749" lon="7.976374932624071"><ele>278.0</ele><time>2026-04-11T10:35:48Z</time></trkpt><trkpt lat="45.04090078097976" lon="7.976534689936704"><ele>278.0</ele><time>2026-04-11T10:35:50Z</time></trkpt><trkpt lat="45.04093092777677" lon="7.976622982940941"><ele>274.83333333333337</ele><time>2026-04-11T10:35:51Z</time></trkpt><trkpt lat="45.04094591519234" lon="7.976797525738191"><ele>271.6666666666667</ele><time>2026-04-11T10:35:53Z</time></trkpt><trkpt lat="45.040955639495124" lon="7.976888719838435"><ele>268.5</ele><time>2026-04-11T10:35:54Z</time></trkpt><trkpt lat="45.04097401875968" lon="7.976986025589009"><ele>265.3333333333333</ele><time>2026-04-11T10:35:55Z</time></trkpt><trkpt lat="45.040990321187294" lon="7.977080367343274"><ele>262.16666666666663</ele><time>2026-04-11T10:35:56Z</time></trkpt><trkpt lat="45.04100730532802" lon="7.977179121206109"><ele>259.0</ele><time>2026-04-11T10:35:57Z</time></trkpt><trkpt lat="45.041024391478295" lon="7.9772758515759685"><ele>259.0</ele><time>2026-04-11T10:35:58Z</time></trkpt><trkpt lat="45.041038730167344" lon="7.977375689476698"><ele>259.0</ele><time>2026-04-11T10:35:59Z</time></trkpt><trkpt lat="45.041049910812454" lon="7.977481324898942"><ele>259.0</ele><time>2026-04-11T10:36:00Z</time></trkpt><trkpt lat="45.04106479518215" lon="7.977584208360467"><ele>259.0</ele><time>2026-04-11T10:36:01Z</time></trkpt><trkpt lat="45.041089194026526" lon="7.977681523216022"><ele>259.0</ele><time>2026-04-11T10:36:02Z</time></trkpt><trkpt lat="45.04110598657457" lon="7.977788036816562"><ele>259.0</ele><time>2026-04-11T10:36:03Z</time></trkpt><trkpt lat="45.04112165624519" lon="7.977891984453987"><ele>259.0</ele><time>2026-04-11T10:36:04Z</time></trkpt><trkpt lat="45.04113529662206" lon="7.9779993913332"><ele>259.2857142857143</ele><time>2026-04-11T10:36:04.999Z</time></trkpt><trkpt lat="45.04114436975788" lon="7.978096894335858"><ele>259.57142857142856</ele><time>2026-04-11T10:36:05.999Z</time></trkpt><trkpt lat="45.04114509143865" lon="7.978191714000701"><ele>259.8571428571429</ele><time>2026-04-11T10:36:06.999Z</time></trkpt><trkpt lat="45.04113185578646" lon="7.9782851979511635"><ele>260.1428571428571</ele><time>2026-04-11T10:36:07.999Z</time></trkpt><trkpt lat="45.041083789251054" lon="7.978363542552814"><ele>260.42857142857144</ele><time>2026-04-11T10:36:08.999Z</time></trkpt><trkpt lat="45.041043612329" lon="7.978439023851178"><ele>260.7142857142857</ele><time>2026-04-11T10:36:09.999Z</time></trkpt><trkpt lat="45.0410234264278" lon="7.9785272019351385"><ele>261.0</ele><time>2026-04-11T10:36:10.999Z</time></trkpt><trkpt lat="45.041022706379756" lon="7.978616935082635"><ele>261.0</ele><time>2026-04-11T10:36:11.999Z</time></trkpt><trkpt lat="45.04102862116694" lon="7.978706598396015"><ele>261.0</ele><time>2026-04-11T10:36:12.999Z</time></trkpt><trkpt lat="45.041095335091356" lon="7.978859514719909"><ele>261.0</ele><time>2026-04-11T10:36:14.999Z</time></trkpt><trkpt lat="45.041187964977226" lon="7.978954234118677"><ele>261.0</ele><time>2026-04-11T10:36:16.999Z</time></trkpt><trkpt lat="45.04125333338094" lon="7.978928645317919"><ele>261.0</ele><time>2026-04-11T10:36:17.999Z</time></trkpt><trkpt lat="45.04124865249985" lon="7.9790802853337075"><ele>262.8333333333333</ele><time>2026-04-11T10:36:18.999Z</time></trkpt><trkpt lat="45.04127933945167" lon="7.979213033978103"><ele>264.6666666666667</ele><time>2026-04-11T10:36:20.999Z</time></trkpt><trkpt lat="45.04128055953018" lon="7.979310789003705"><ele>266.5</ele><time>2026-04-11T10:36:22.999Z</time></trkpt><trkpt lat="45.04123206386492" lon="7.979422370149247"><ele>268.33333333333337</ele><time>2026-04-11T10:36:25.999Z</time></trkpt><trkpt lat="45.04125773687027" lon="7.979505658718697"><ele>270.1666666666667</ele><time>2026-04-11T10:36:27.999Z</time></trkpt><trkpt lat="45.04127162336513" lon="7.979626822977813"><ele>272.0</ele><time>2026-04-11T10:36:30.999Z</time></trkpt><trkpt lat="45.04128367806224" lon="7.979732004345646"><ele>272.0</ele><time>2026-04-11T10:36:33.999Z</time></trkpt><trkpt lat="45.041169282972064" lon="7.979784213345261"><ele>272.0</ele><time>2026-04-11T10:36:34.999Z</time></trkpt><trkpt lat="45.04116742067907" lon="7.979889620233399"><ele>272.0</ele><time>2026-04-11T10:36:37.999Z</time></trkpt><trkpt lat="45.04115961402353" lon="7.980010328757972"><ele>272.0</ele><time>2026-04-11T10:36:40.999Z</time></trkpt><trkpt lat="45.04120219027025" lon="7.980124241919083"><ele>272.0</ele><time>2026-04-11T10:36:43.999Z</time></trkpt><trkpt lat="45.04121867784664" lon="7.980220532352585"><ele>272.0</ele><time>2026-04-11T10:36:45.999Z</time></trkpt><trkpt lat="45.041231542409456" lon="7.980312025135128"><ele>274.1666666666667</ele><time>2026-04-11T10:36:48.999Z</time></trkpt><trkpt lat="45.04124042706475" lon="7.980408316650966"><ele>276.33333333333337</ele><time>2026-04-11T10:36:51.999Z</time></trkpt><trkpt lat="45.041257300206425" lon="7.9805053715706205"><ele>278.5</ele><time>2026-04-11T10:36:54.999Z</time></trkpt><trkpt lat="45.04128225167893" lon="7.980621582042771"><ele>280.6666666666667</ele><time>2026-04-11T10:36:57.999Z</time></trkpt><trkpt lat="45.041304086615376" lon="7.98072791200101"><ele>282.8333333333333</ele><time>2026-04-11T10:37:01Z</time></trkpt><trkpt lat="45.04131597433672" lon="7.9808455391544095"><ele>285.0</ele><time>2026-04-11T10:37:04Z</time></trkpt><trkpt lat="45.041337404934275" lon="7.980947200445377"><ele>286.6666666666667</ele><time>2026-04-11T10:37:07Z</time></trkpt><trkpt lat="45.04138708286635" lon="7.98104312033653"><ele>288.3333333333333</ele><time>2026-04-11T10:37:10Z</time></trkpt><trkpt lat="45.041430278849724" lon="7.9811475116528925"><ele>290.0</ele><time>2026-04-11T10:37:13Z</time></trkpt><trkpt lat="45.04146000310909" lon="7.981259421968162"><ele>291.66666666666663</ele><time>2026-04-11T10:37:16Z</time></trkpt><trkpt lat="45.04148301743536" lon="7.98135420155533"><ele>293.3333333333333</ele><time>2026-04-11T10:37:19Z</time></trkpt><trkpt lat="45.041514258587256" lon="7.981458149644209"><ele>295.0</ele><time>2026-04-11T10:37:23Z</time></trkpt><trkpt lat="45.041539395316526" lon="7.981577347348459"><ele>295.16666666666663</ele><time>2026-04-11T10:37:27Z</time></trkpt><trkpt lat="45.041542445546284" lon="7.981684270487037"><ele>295.3333333333333</ele><time>2026-04-11T10:37:31Z</time></trkpt><trkpt lat="45.041547215471894" lon="7.981776847081861"><ele>295.5</ele><time>2026-04-11T10:37:34Z</time></trkpt><trkpt lat="45.04154029817837" lon="7.981898937794169"><ele>295.6666666666667</ele><time>2026-04-11T10:37:38Z</time></trkpt><trkpt lat="45.04151528663731" lon="7.981992811881114"><ele>295.83333333333337</ele><time>2026-04-11T10:37:41Z</time></trkpt><trkpt lat="45.04150077495515" lon="7.982103193170077"><ele>296.0</ele><time>2026-04-11T10:37:45Z</time></trkpt><trkpt lat="45.041468477646305" lon="7.9822027366877055"><ele>296.0</ele><time>2026-04-11T10:37:49Z</time></trkpt><trkpt lat="45.04143355037513" lon="7.982295338246398"><ele>296.0</ele><time>2026-04-11T10:37:53Z</time></trkpt><trkpt lat="45.041395325200675" lon="7.9823902904217565"><ele>296.0</ele><time>2026-04-11T10:37:57Z</time></trkpt><trkpt lat="45.0413559439826" lon="7.982472370538782"><ele>296.0</ele><time>2026-04-11T10:38:01Z</time></trkpt><trkpt lat="45.0413188842234" lon="7.982553963925042"><ele>296.0</ele><time>2026-04-11T10:38:04Z</time></trkpt><trkpt lat="45.0412740330571" lon="7.982645884084153"><ele>296.0</ele><time>2026-04-11T10:38:08Z</time></trkpt><trkpt lat="45.04122462713365" lon="7.982728362666069"><ele>296.0</ele><time>2026-04-11T10:38:11.999Z</time></trkpt><trkpt lat="45.04116205388348" lon="7.982810578858957"><ele>295.57142857142856</ele><time>2026-04-11T10:38:15.999Z</time></trkpt><trkpt lat="45.04110786599382" lon="7.982860455624987"><ele>295.1428571428571</ele><time>2026-04-11T10:38:18.999Z</time></trkpt><trkpt lat="45.04106010542359" lon="7.98291889222116"><ele>294.71428571428567</ele><time>2026-04-11T10:38:21.999Z</time></trkpt><trkpt lat="45.04099798500298" lon="7.982974421520334"><ele>294.2857142857143</ele><time>2026-04-11T10:38:24.999Z</time></trkpt><trkpt lat="45.04094247297561" lon="7.983026707920921"><ele>293.85714285714283</ele><time>2026-04-11T10:38:27.999Z</time></trkpt><trkpt lat="45.04088456955822" lon="7.983066288472972"><ele>293.4285714285714</ele><time>2026-04-11T10:38:30.999Z</time></trkpt><trkpt lat="45.04081396121609" lon="7.983096837938161"><ele>293.0</ele><time>2026-04-11T10:38:33.999Z</time></trkpt><trkpt lat="45.04074247284839" lon="7.983115563199211"><ele>293.2857142857143</ele><time>2026-04-11T10:38:37.999Z</time></trkpt><trkpt lat="45.040659143410224" lon="7.983141531028631"><ele>293.57142857142856</ele><time>2026-04-11T10:38:41.999Z</time></trkpt><trkpt lat="45.04059787175347" lon="7.983168318061963"><ele>293.8571428571429</ele><time>2026-04-11T10:38:44.999Z</time></trkpt><trkpt lat="45.04053015296101" lon="7.983213450117594"><ele>294.1428571428571</ele><time>2026-04-11T10:38:47.999Z</time></trkpt><trkpt lat="45.0404682176678" lon="7.983232012535114"><ele>294.42857142857144</ele><time>2026-04-11T10:38:49.999Z</time></trkpt><trkpt lat="45.04038896934878" lon="7.983294197074359"><ele>294.7142857142857</ele><time>2026-04-11T10:38:52.999Z</time></trkpt><trkpt lat="45.040333481532116" lon="7.9833372275827115"><ele>295.0</ele><time>2026-04-11T10:38:54.999Z</time></trkpt><trkpt lat="45.040269627055146" lon="7.9833762155388355"><ele>295.0</ele><time>2026-04-11T10:38:56.999Z</time></trkpt><trkpt lat="45.04020237215198" lon="7.983428235443916"><ele>295.0</ele><time>2026-04-11T10:38:58.999Z</time></trkpt><trkpt lat="45.04013217744442" lon="7.983493510033365"><ele>295.0</ele><time>2026-04-11T10:39:00.999Z</time></trkpt><trkpt lat="45.040054577137354" lon="7.983550594854542"><ele>295.0</ele><time>2026-04-11T10:39:02.999Z</time></trkpt><trkpt lat="45.0399726733736" lon="7.98362196509789"><ele>295.0</ele><time>2026-04-11T10:39:04.999Z</time></trkpt><trkpt lat="45.03989227300134" lon="7.9836778432229005"><ele>295.0</ele><time>2026-04-11T10:39:07Z</time></trkpt><trkpt lat="45.03981308927853" lon="7.9837452670453715"><ele>295.0</ele><time>2026-04-11T10:39:09Z</time></trkpt><trkpt lat="45.03973592046315" lon="7.983809037596682"><ele>295.0</ele><time>2026-04-11T10:39:11Z</time></trkpt><trkpt lat="45.039643235997254" lon="7.983890430520519"><ele>295.0</ele><time>2026-04-11T10:39:13Z</time></trkpt><trkpt lat="45.03955013654702" lon="7.983967539126329"><ele>295.0</ele><time>2026-04-11T10:39:15Z</time></trkpt><trkpt lat="45.03946770427648" lon="7.984037410049223"><ele>295.0</ele><time>2026-04-11T10:39:17Z</time></trkpt><trkpt lat="45.03939833921089" lon="7.984089728695049"><ele>295.0</ele><time>2026-04-11T10:39:19Z</time></trkpt><trkpt lat="45.03929102763009" lon="7.984176000249576"><ele>295.0</ele><time>2026-04-11T10:39:21Z</time></trkpt><trkpt lat="45.03919657860632" lon="7.98424575439272"><ele>295.0</ele><time>2026-04-11T10:39:23Z</time></trkpt><trkpt lat="45.03910876505386" lon="7.984311011056261"><ele>295.0</ele><time>2026-04-11T10:39:25Z</time></trkpt><trkpt lat="45.03902126309709" lon="7.984368619175024"><ele>295.0</ele><time>2026-04-11T10:39:27Z</time></trkpt><trkpt lat="45.03892846966406" lon="7.984432485266953"><ele>293.8</ele><time>2026-04-11T10:39:29Z</time></trkpt><trkpt lat="45.03884011216981" lon="7.9845018978548765"><ele>292.6</ele><time>2026-04-11T10:39:31Z</time></trkpt><trkpt lat="45.03874520770365" lon="7.98456813250043"><ele>291.4</ele><time>2026-04-11T10:39:33Z</time></trkpt><trkpt lat="45.03864185104539" lon="7.9846479636195715"><ele>290.2</ele><time>2026-04-11T10:39:35Z</time></trkpt><trkpt lat="45.03854683338084" lon="7.984755094984793"><ele>289.0</ele><time>2026-04-11T10:39:37Z</time></trkpt><trkpt lat="45.038480869691575" lon="7.984797634728012"><ele>289.0</ele><time>2026-04-11T10:39:38Z</time></trkpt><trkpt lat="45.0384213704143" lon="7.984863100400468"><ele>289.0</ele><time>2026-04-11T10:39:39Z</time></trkpt><trkpt lat="45.038365473932195" lon="7.984924115475675"><ele>289.0</ele><time>2026-04-11T10:39:40Z</time></trkpt><trkpt lat="45.038307325106" lon="7.984996718251108"><ele>289.0</ele><time>2026-04-11T10:39:41Z</time></trkpt><trkpt lat="45.03823029716443" lon="7.9850420430799485"><ele>289.0</ele><time>2026-04-11T10:39:42Z</time></trkpt><trkpt lat="45.03814865818955" lon="7.985078743351702"><ele>289.0</ele><time>2026-04-11T10:39:43Z</time></trkpt><trkpt lat="45.038060624717815" lon="7.985092963582941"><ele>290.3333333333333</ele><time>2026-04-11T10:39:44Z</time></trkpt><trkpt lat="45.03797991876053" lon="7.985086475329143"><ele>291.66666666666663</ele><time>2026-04-11T10:39:45Z</time></trkpt><trkpt lat="45.03790247094896" lon="7.985070366888627"><ele>293.0</ele><time>2026-04-11T10:39:46Z</time></trkpt><trkpt lat="45.03782713809142" lon="7.985062649833482"><ele>294.3333333333333</ele><time>2026-04-11T10:39:47Z</time></trkpt><trkpt lat="45.037741700631365" lon="7.985058836829923"><ele>295.6666666666667</ele><time>2026-04-11T10:39:48Z</time></trkpt><trkpt lat="45.03766953644745" lon="7.985082702819755"><ele>297.0</ele><time>2026-04-11T10:39:49Z</time></trkpt><trkpt lat="45.03760141657715" lon="7.985116347944214"><ele>297.0</ele><time>2026-04-11T10:39:50Z</time></trkpt><trkpt lat="45.03753423874982" lon="7.985143337166698"><ele>297.0</ele><time>2026-04-11T10:39:51Z</time></trkpt><trkpt lat="45.03746957910619" lon="7.985190814170965"><ele>297.0</ele><time>2026-04-11T10:39:52Z</time></trkpt><trkpt lat="45.03740559318079" lon="7.985229064008054"><ele>297.0</ele><time>2026-04-11T10:39:53Z</time></trkpt><trkpt lat="45.0373100588315" lon="7.985334344598789"><ele>297.0</ele><time>2026-04-11T10:39:55Z</time></trkpt><trkpt lat="45.03724822451883" lon="7.985417866123183"><ele>297.0</ele><time>2026-04-11T10:39:56Z</time></trkpt><trkpt lat="45.03719985355796" lon="7.98548673227145"><ele>296.2857142857143</ele><time>2026-04-11T10:39:57Z</time></trkpt><trkpt lat="45.03714336622822" lon="7.985543493246144"><ele>295.5714285714286</ele><time>2026-04-11T10:39:58Z</time></trkpt><trkpt lat="45.03707375850126" lon="7.98559958581676"><ele>294.8571428571429</ele><time>2026-04-11T10:39:59Z</time></trkpt><trkpt lat="45.03700603016689" lon="7.985635024199522"><ele>294.14285714285717</ele><time>2026-04-11T10:40:00Z</time></trkpt><trkpt lat="45.0369328623202" lon="7.985655436826097"><ele>293.42857142857144</ele><time>2026-04-11T10:40:01Z</time></trkpt><trkpt lat="45.03686136719033" lon="7.985660511241629"><ele>292.7142857142857</ele><time>2026-04-11T10:40:02Z</time></trkpt><trkpt lat="45.0367893340721" lon="7.985665260479795"><ele>292.0</ele><time>2026-04-11T10:40:03Z</time></trkpt><trkpt lat="45.0367132805695" lon="7.98567061295249"><ele>292.0</ele><time>2026-04-11T10:40:04Z</time></trkpt><trkpt lat="45.03663977242825" lon="7.985670398900102"><ele>292.0</ele><time>2026-04-11T10:40:05Z</time></trkpt><trkpt lat="45.03656701684748" lon="7.985674292945136"><ele>292.0</ele><time>2026-04-11T10:40:06Z</time></trkpt><trkpt lat="45.03649198200716" lon="7.985674912114386"><ele>292.0</ele><time>2026-04-11T10:40:07Z</time></trkpt><trkpt lat="45.0364272814095" lon="7.985683725184124"><ele>292.0</ele><time>2026-04-11T10:40:08Z</time></trkpt><trkpt lat="45.03636339760838" lon="7.98568946578868"><ele>292.0</ele><time>2026-04-11T10:40:09Z</time></trkpt><trkpt lat="45.03629515789221" lon="7.985691391048163"><ele>292.0</ele><time>2026-04-11T10:40:10Z</time></trkpt><trkpt lat="45.036231273907454" lon="7.985695438251148"><ele>290.5</ele><time>2026-04-11T10:40:11Z</time></trkpt><trkpt lat="45.03611281254682" lon="7.985689919166248"><ele>289.0</ele><time>2026-04-11T10:40:13Z</time></trkpt><trkpt lat="45.03599514273433" lon="7.98565681889071"><ele>287.5</ele><time>2026-04-11T10:40:15Z</time></trkpt><trkpt lat="45.03588884712123" lon="7.985591439010999"><ele>286.0</ele><time>2026-04-11T10:40:17Z</time></trkpt><trkpt lat="45.0357813803858" lon="7.985499515758935"><ele>285.2857142857143</ele><time>2026-04-11T10:40:18.999Z</time></trkpt><trkpt lat="45.03573137194942" lon="7.98543847882456"><ele>284.57142857142856</ele><time>2026-04-11T10:40:19.999Z</time></trkpt><trkpt lat="45.03568683263491" lon="7.985360601461318"><ele>283.8571428571429</ele><time>2026-04-11T10:40:20.999Z</time></trkpt><trkpt lat="45.03564486021111" lon="7.985281491422049"><ele>283.1428571428571</ele><time>2026-04-11T10:40:21.999Z</time></trkpt><trkpt lat="45.035609071954966" lon="7.98519391194014"><ele>282.42857142857144</ele><time>2026-04-11T10:40:22.999Z</time></trkpt><trkpt lat="45.035564950139495" lon="7.985110602694787"><ele>281.7142857142857</ele><time>2026-04-11T10:40:23.999Z</time></trkpt><trkpt lat="45.03549179347336" lon="7.985049756320674"><ele>281.0</ele><time>2026-04-11T10:40:24.999Z</time></trkpt><trkpt lat="45.035421017335096" lon="7.9850114669928445"><ele>281.0</ele><time>2026-04-11T10:40:25.999Z</time></trkpt><trkpt lat="45.03534113476914" lon="7.984976014593521"><ele>281.0</ele><time>2026-04-11T10:40:26.999Z</time></trkpt><trkpt lat="45.03526136056957" lon="7.984948771694535"><ele>281.0</ele><time>2026-04-11T10:40:27.999Z</time></trkpt><trkpt lat="45.03518373190557" lon="7.984919481575625"><ele>281.0</ele><time>2026-04-11T10:40:28.999Z</time></trkpt><trkpt lat="45.03510499057985" lon="7.984883925628369"><ele>281.0</ele><time>2026-04-11T10:40:29.999Z</time></trkpt><trkpt lat="45.03503012626187" lon="7.984847143173903"><ele>281.0</ele><time>2026-04-11T10:40:30.999Z</time></trkpt><trkpt lat="45.034954619642804" lon="7.984809450391884"><ele>281.42857142857144</ele><time>2026-04-11T10:40:31.999Z</time></trkpt><trkpt lat="45.03487745822893" lon="7.984791544981448"><ele>281.8571428571429</ele><time>2026-04-11T10:40:32.999Z</time></trkpt><trkpt lat="45.034799203886145" lon="7.98478946738993"><ele>282.2857142857143</ele><time>2026-04-11T10:40:33.999Z</time></trkpt><trkpt lat="45.034723372484926" lon="7.984797775281111"><ele>282.7142857142857</ele><time>2026-04-11T10:40:34.999Z</time></trkpt><trkpt lat="45.03465034720821" lon="7.984821221327171"><ele>283.1428571428571</ele><time>2026-04-11T10:40:35.999Z</time></trkpt><trkpt lat="45.03458333069292" lon="7.984854775396803"><ele>283.57142857142856</ele><time>2026-04-11T10:40:36.999Z</time></trkpt><trkpt lat="45.034519880196754" lon="7.9848921974930445"><ele>284.0</ele><time>2026-04-11T10:40:37.999Z</time></trkpt><trkpt lat="45.03445692449553" lon="7.984928064570682"><ele>284.0</ele><time>2026-04-11T10:40:38.999Z</time></trkpt><trkpt lat="45.034398273409074" lon="7.984971381566976"><ele>284.0</ele><time>2026-04-11T10:40:39.999Z</time></trkpt><trkpt lat="45.03429247933098" lon="7.985050750869967"><ele>284.0</ele><time>2026-04-11T10:40:41.999Z</time></trkpt><trkpt lat="45.03417691686954" lon="7.985094808258745"><ele>284.0</ele><time>2026-04-11T10:40:43.999Z</time></trkpt><trkpt lat="45.03404996764405" lon="7.985121826925968"><ele>284.0</ele><time>2026-04-11T10:40:45.999Z</time></trkpt><trkpt lat="45.03397787434474" lon="7.985125869615875"><ele>283.5</ele><time>2026-04-11T10:40:46.999Z</time></trkpt><trkpt lat="45.033901617027766" lon="7.985126905502141"><ele>283.0</ele><time>2026-04-11T10:40:47.999Z</time></trkpt><trkpt lat="45.03382106798658" lon="7.9851171677724855"><ele>282.5</ele><time>2026-04-11T10:40:48.999Z</time></trkpt><trkpt lat="45.033742156233664" lon="7.985103336295335"><ele>282.0</ele><time>2026-04-11T10:40:49.999Z</time></trkpt><trkpt lat="45.03365914725946" lon="7.985076653975884"><ele>281.5</ele><time>2026-04-11T10:40:50.999Z</time></trkpt><trkpt lat="45.03357936857888" lon="7.985034886664909"><ele>281.0</ele><time>2026-04-11T10:40:51.999Z</time></trkpt><trkpt lat="45.03349680017973" lon="7.984989203483211"><ele>281.0</ele><time>2026-04-11T10:40:52.999Z</time></trkpt><trkpt lat="45.0334195192546" lon="7.9849329985327895"><ele>281.0</ele><time>2026-04-11T10:40:53.999Z</time></trkpt><trkpt lat="45.033346297015946" lon="7.984862609793563"><ele>281.0</ele><time>2026-04-11T10:40:54.999Z</time></trkpt><trkpt lat="45.03326937087264" lon="7.984807237307623"><ele>281.0</ele><time>2026-04-11T10:40:55.999Z</time></trkpt><trkpt lat="45.03319676869235" lon="7.984739741419241"><ele>281.0</ele><time>2026-04-11T10:40:56.999Z</time></trkpt><trkpt lat="45.03312833724253" lon="7.9846710705449535"><ele>281.0</ele><time>2026-04-11T10:40:57.999Z</time></trkpt><trkpt lat="45.03306027700575" lon="7.9846077117527665"><ele>279.5</ele><time>2026-04-11T10:40:58.999Z</time></trkpt><trkpt lat="45.03299050932416" lon="7.984545300735369"><ele>278.0</ele><time>2026-04-11T10:40:59.999Z</time></trkpt><trkpt lat="45.03291360256844" lon="7.984496972704828"><ele>276.5</ele><time>2026-04-11T10:41:00.999Z</time></trkpt><trkpt lat="45.032835141293475" lon="7.984468178631463"><ele>275.0</ele><time>2026-04-11T10:41:01.999Z</time></trkpt><trkpt lat="45.032752740722714" lon="7.984466329165812"><ele>273.5</ele><time>2026-04-11T10:41:02.999Z</time></trkpt><trkpt lat="45.03266494691381" lon="7.984471687365545"><ele>272.0</ele><time>2026-04-11T10:41:03.999Z</time></trkpt><trkpt lat="45.03257519475273" lon="7.984475436335688"><ele>272.0</ele><time>2026-04-11T10:41:04.999Z</time></trkpt><trkpt lat="45.03248822658108" lon="7.984485055568187"><ele>272.0</ele><time>2026-04-11T10:41:05.999Z</time></trkpt><trkpt lat="45.03240122681182" lon="7.9844977133932815"><ele>272.0</ele><time>2026-04-11T10:41:06.999Z</time></trkpt><trkpt lat="45.03231733873267" lon="7.984522522318142"><ele>272.0</ele><time>2026-04-11T10:41:07.999Z</time></trkpt><trkpt lat="45.032237105947566" lon="7.984554236123869"><ele>272.0</ele><time>2026-04-11T10:41:08.999Z</time></trkpt><trkpt lat="45.03215672274852" lon="7.9845889739406495"><ele>272.0</ele><time>2026-04-11T10:41:09.999Z</time></trkpt><trkpt lat="45.032076860526566" lon="7.9846290240860025"><ele>272.0</ele><time>2026-04-11T10:41:10.999Z</time></trkpt><trkpt lat="45.032002031384394" lon="7.984679645859237"><ele>272.0</ele><time>2026-04-11T10:41:11.999Z</time></trkpt><trkpt lat="45.03193134204887" lon="7.984740468035894"><ele>272.0</ele><time>2026-04-11T10:41:13Z</time></trkpt><trkpt lat="45.0318644324389" lon="7.984803522441409"><ele>272.0</ele><time>2026-04-11T10:41:14Z</time></trkpt><trkpt lat="45.03179847380958" lon="7.984874036639732"><ele>272.0</ele><time>2026-04-11T10:41:15Z</time></trkpt><trkpt lat="45.03172857533339" lon="7.984944761374085"><ele>272.0</ele><time>2026-04-11T10:41:16Z</time></trkpt><trkpt lat="45.031654688842636" lon="7.985015064671613"><ele>271.8</ele><time>2026-04-11T10:41:17Z</time></trkpt><trkpt lat="45.03157361326015" lon="7.98508999728573"><ele>271.6</ele><time>2026-04-11T10:41:18Z</time></trkpt><trkpt lat="45.03149188318893" lon="7.985163485797069"><ele>271.40000000000003</ele><time>2026-04-11T10:41:19Z</time></trkpt><trkpt lat="45.031405492025286" lon="7.985236137497891"><ele>271.2</ele><time>2026-04-11T10:41:20Z</time></trkpt><trkpt lat="45.03131619822255" lon="7.985317859922009"><ele>271.0</ele><time>2026-04-11T10:41:21Z</time></trkpt><trkpt lat="45.031227916849595" lon="7.98539543247792"><ele>271.0</ele><time>2026-04-11T10:41:22Z</time></trkpt><trkpt lat="45.031140958745105" lon="7.985470298955969"><ele>271.0</ele><time>2026-04-11T10:41:23Z</time></trkpt><trkpt lat="45.03105907513713" lon="7.985545697049268"><ele>271.0</ele><time>2026-04-11T10:41:24Z</time></trkpt><trkpt lat="45.0309833606356" lon="7.985625452596275"><ele>271.0</ele><time>2026-04-11T10:41:25Z</time></trkpt><trkpt lat="45.03091549254502" lon="7.985705274384009"><ele>271.0</ele><time>2026-04-11T10:41:26Z</time></trkpt><trkpt lat="45.03084761072445" lon="7.985764697913314"><ele>271.6</ele><time>2026-04-11T10:41:27Z</time></trkpt><trkpt lat="45.03079358370278" lon="7.985843651532266"><ele>272.20000000000005</ele><time>2026-04-11T10:41:28Z</time></trkpt><trkpt lat="45.03074709927925" lon="7.985918908706675"><ele>272.79999999999995</ele><time>2026-04-11T10:41:29Z</time></trkpt><trkpt lat="45.03067965405679" lon="7.986036831518504"><ele>273.4</ele><time>2026-04-11T10:41:31Z</time></trkpt><trkpt lat="45.03061796533746" lon="7.986166221380368"><ele>274.0</ele><time>2026-04-11T10:41:33Z</time></trkpt><trkpt lat="45.0305482090393" lon="7.986276246620689"><ele>274.0</ele><time>2026-04-11T10:41:35Z</time></trkpt><trkpt lat="45.030462111021016" lon="7.986390560398285"><ele>274.0</ele><time>2026-04-11T10:41:37Z</time></trkpt><trkpt lat="45.03035297265892" lon="7.986469571899418"><ele>274.0</ele><time>2026-04-11T10:41:39Z</time></trkpt><trkpt lat="45.03023394799158" lon="7.986529043097119"><ele>274.0</ele><time>2026-04-11T10:41:41Z</time></trkpt><trkpt lat="45.03012777829896" lon="7.986613094713377"><ele>274.0</ele><time>2026-04-11T10:41:43Z</time></trkpt><trkpt lat="45.03001078576069" lon="7.986671033750065"><ele>274.0</ele><time>2026-04-11T10:41:45Z</time></trkpt><trkpt lat="45.02994393078172" lon="7.986709784927369"><ele>274.0</ele><time>2026-04-11T10:41:46Z</time></trkpt><trkpt lat="45.029878373474375" lon="7.986747874177406"><ele>274.0</ele><time>2026-04-11T10:41:47Z</time></trkpt><trkpt lat="45.02981390346869" lon="7.986786173132065"><ele>274.0</ele><time>2026-04-11T10:41:48Z</time></trkpt><trkpt lat="45.02975146928174" lon="7.986838431236578"><ele>274.0</ele><time>2026-04-11T10:41:49Z</time></trkpt><trkpt lat="45.02967987182146" lon="7.986888742398159"><ele>273.3333333333333</ele><time>2026-04-11T10:41:50Z</time></trkpt><trkpt lat="45.02960700454214" lon="7.986937296395166"><ele>272.66666666666663</ele><time>2026-04-11T10:41:51Z</time></trkpt><trkpt lat="45.02953754683665" lon="7.986980058120841"><ele>272.0</ele><time>2026-04-11T10:41:52Z</time></trkpt><trkpt lat="45.02945804063734" lon="7.987023519433814"><ele>271.3333333333333</ele><time>2026-04-11T10:41:53Z</time></trkpt><trkpt lat="45.029394922855246" lon="7.987050642942888"><ele>270.6666666666667</ele><time>2026-04-11T10:41:54Z</time></trkpt><trkpt lat="45.029308716272766" lon="7.987091152360921"><ele>270.0</ele><time>2026-04-11T10:41:55Z</time></trkpt><trkpt lat="45.02922096447936" lon="7.987126836620225"><ele>270.1666666666667</ele><time>2026-04-11T10:41:56Z</time></trkpt><trkpt lat="45.02914135565563" lon="7.987147103135827"><ele>270.3333333333333</ele><time>2026-04-11T10:41:57Z</time></trkpt><trkpt lat="45.029056713312535" lon="7.987168400134643"><ele>270.5</ele><time>2026-04-11T10:41:58Z</time></trkpt><trkpt lat="45.02897038395791" lon="7.987192030054833"><ele>270.66666666666663</ele><time>2026-04-11T10:41:59Z</time></trkpt><trkpt lat="45.02889460166228" lon="7.9871935823854745"><ele>270.8333333333333</ele><time>2026-04-11T10:42:00Z</time></trkpt><trkpt lat="45.02881189045557" lon="7.9872038081083065"><ele>271.0</ele><time>2026-04-11T10:42:01Z</time></trkpt><trkpt lat="45.02872659966837" lon="7.987218274179358"><ele>271.0</ele><time>2026-04-11T10:42:02Z</time></trkpt><trkpt lat="45.0286454108244" lon="7.987229292755163"><ele>271.0</ele><time>2026-04-11T10:42:03Z</time></trkpt><trkpt lat="45.028561775002835" lon="7.987240643077464"><ele>271.0</ele><time>2026-04-11T10:42:04Z</time></trkpt><trkpt lat="45.0284782919747" lon="7.987239576747327"><ele>271.0</ele><time>2026-04-11T10:42:05Z</time></trkpt><trkpt lat="45.028395110084595" lon="7.9872318109882"><ele>271.0</ele><time>2026-04-11T10:42:06Z</time></trkpt><trkpt lat="45.02831422193985" lon="7.987221714956293"><ele>271.0</ele><time>2026-04-11T10:42:07Z</time></trkpt><trkpt lat="45.028227402269835" lon="7.987197990195873"><ele>269.8</ele><time>2026-04-11T10:42:08Z</time></trkpt><trkpt lat="45.02814080762889" lon="7.987165482829586"><ele>268.6</ele><time>2026-04-11T10:42:09Z</time></trkpt><trkpt lat="45.028054405816064" lon="7.987132764550332"><ele>267.4</ele><time>2026-04-11T10:42:10Z</time></trkpt><trkpt lat="45.02796754337725" lon="7.98708926486391"><ele>266.2</ele><time>2026-04-11T10:42:11Z</time></trkpt><trkpt lat="45.02788008731079" lon="7.9870503021884405"><ele>265.0</ele><time>2026-04-11T10:42:12Z</time></trkpt><trkpt lat="45.027790655380876" lon="7.987013104779042"><ele>265.0</ele><time>2026-04-11T10:42:13Z</time></trkpt><trkpt lat="45.02770039240258" lon="7.986972871984002"><ele>265.0</ele><time>2026-04-11T10:42:14Z</time></trkpt><trkpt lat="45.02760580748677" lon="7.986938596509841"><ele>265.0</ele><time>2026-04-11T10:42:15Z</time></trkpt><trkpt lat="45.027516162626824" lon="7.986904138091174"><ele>265.0</ele><time>2026-04-11T10:42:16Z</time></trkpt><trkpt lat="45.02742292676679" lon="7.986870422098262"><ele>265.0</ele><time>2026-04-11T10:42:17Z</time></trkpt><trkpt lat="45.027325928890114" lon="7.9868466149249375"><ele>265.0</ele><time>2026-04-11T10:42:18Z</time></trkpt><trkpt lat="45.02722958926892" lon="7.986829866689738"><ele>265.0</ele><time>2026-04-11T10:42:19Z</time></trkpt><trkpt lat="45.02713210662546" lon="7.986831013488184"><ele>265.0</ele><time>2026-04-11T10:42:20Z</time></trkpt><trkpt lat="45.02703745493799" lon="7.986850793563958"><ele>265.0</ele><time>2026-04-11T10:42:21Z</time></trkpt><trkpt lat="45.026948462794046" lon="7.98688445271845"><ele>265.0</ele><time>2026-04-11T10:42:22Z</time></trkpt><trkpt lat="45.02686134641935" lon="7.986931984543444"><ele>265.0</ele><time>2026-04-11T10:42:22.999Z</time></trkpt><trkpt lat="45.02676882825236" lon="7.986969031624636"><ele>265.0</ele><time>2026-04-11T10:42:23.999Z</time></trkpt><trkpt lat="45.0266764922552" lon="7.987012709901287"><ele>265.0</ele><time>2026-04-11T10:42:24.999Z</time></trkpt><trkpt lat="45.02659060932271" lon="7.9870632583765655"><ele>265.0</ele><time>2026-04-11T10:42:25.999Z</time></trkpt><trkpt lat="45.02650465685513" lon="7.987114796375753"><ele>265.0</ele><time>2026-04-11T10:42:26.999Z</time></trkpt><trkpt lat="45.02642271132429" lon="7.987156877846285"><ele>266.16666666666663</ele><time>2026-04-11T10:42:27.999Z</time></trkpt><trkpt lat="45.026341664688346" lon="7.98720254875245"><ele>267.3333333333333</ele><time>2026-04-11T10:42:28.999Z</time></trkpt><trkpt lat="45.0262631674163" lon="7.98725423031657"><ele>268.5</ele><time>2026-04-11T10:42:29.999Z</time></trkpt><trkpt lat="45.026183929631344" lon="7.987302169187865"><ele>269.6666666666667</ele><time>2026-04-11T10:42:30.999Z</time></trkpt><trkpt lat="45.02610744922529" lon="7.987352641520318"><ele>270.83333333333337</ele><time>2026-04-11T10:42:31.999Z</time></trkpt><trkpt lat="45.02603468629918" lon="7.987408215027972"><ele>272.0</ele><time>2026-04-11T10:42:32.999Z</time></trkpt><trkpt lat="45.025966887568956" lon="7.98747839294929"><ele>270.83333333333337</ele><time>2026-04-11T10:42:33.999Z</time></trkpt><trkpt lat="45.02589892879226" lon="7.987543832681449"><ele>269.6666666666667</ele><time>2026-04-11T10:42:34.999Z</time></trkpt><trkpt lat="45.02583323923055" lon="7.987617759484088"><ele>268.5</ele><time>2026-04-11T10:42:35.999Z</time></trkpt><trkpt lat="45.025770917965254" lon="7.9876939243189"><ele>267.3333333333333</ele><time>2026-04-11T10:42:36.999Z</time></trkpt><trkpt lat="45.02570983294387" lon="7.987777107945485"><ele>266.16666666666663</ele><time>2026-04-11T10:42:37.999Z</time></trkpt><trkpt lat="45.025656682735075" lon="7.987876061435827"><ele>265.0</ele><time>2026-04-11T10:42:38.999Z</time></trkpt><trkpt lat="45.0256090231883" lon="7.987973160267841"><ele>265.8333333333333</ele><time>2026-04-11T10:42:39.999Z</time></trkpt><trkpt lat="45.025562890696634" lon="7.988078397845108"><ele>266.66666666666663</ele><time>2026-04-11T10:42:40.999Z</time></trkpt><trkpt lat="45.0255215691429" lon="7.988176973123885"><ele>267.5</ele><time>2026-04-11T10:42:41.999Z</time></trkpt><trkpt lat="45.02547902965569" lon="7.988270820278842"><ele>268.3333333333333</ele><time>2026-04-11T10:42:42.999Z</time></trkpt><trkpt lat="45.02543618821355" lon="7.988356502833663"><ele>269.1666666666667</ele><time>2026-04-11T10:42:43.999Z</time></trkpt><trkpt lat="45.0253916773653" lon="7.988433663855334"><ele>270.0</ele><time>2026-04-11T10:42:44.999Z</time></trkpt><trkpt lat="45.025337042458645" lon="7.9885029327898325"><ele>270.0</ele><time>2026-04-11T10:42:45.999Z</time></trkpt><trkpt lat="45.02528626466581" lon="7.988571353784481"><ele>270.0</ele><time>2026-04-11T10:42:46.999Z</time></trkpt><trkpt lat="45.025228854002094" lon="7.988644275137164"><ele>270.0</ele><time>2026-04-11T10:42:47.999Z</time></trkpt><trkpt lat="45.02516923730691" lon="7.988718414272075"><ele>270.0</ele><time>2026-04-11T10:42:48.999Z</time></trkpt><trkpt lat="45.025108682900346" lon="7.9887810900116465"><ele>270.0</ele><time>2026-04-11T10:42:49.999Z</time></trkpt><trkpt lat="45.02504399963701" lon="7.988837424580523"><ele>270.0</ele><time>2026-04-11T10:42:50.999Z</time></trkpt><trkpt lat="45.02497952803371" lon="7.988894908949223"><ele>269.3333333333333</ele><time>2026-04-11T10:42:51.999Z</time></trkpt><trkpt lat="45.024909993330894" lon="7.988945932228877"><ele>268.6666666666667</ele><time>2026-04-11T10:42:52.999Z</time></trkpt><trkpt lat="45.0248383019924" lon="7.988998310218315"><ele>268.0</ele><time>2026-04-11T10:42:53.999Z</time></trkpt><trkpt lat="45.02476730157432" lon="7.989053941047165"><ele>267.33333333333337</ele><time>2026-04-11T10:42:54.999Z</time></trkpt><trkpt lat="45.024695980966996" lon="7.989098119435419"><ele>266.6666666666667</ele><time>2026-04-11T10:42:55.999Z</time></trkpt><trkpt lat="45.02462541002212" lon="7.989138971020062"><ele>266.0</ele><time>2026-04-11T10:42:56.999Z</time></trkpt><trkpt lat="45.02454893294576" lon="7.98917502946876"><ele>266.0</ele><time>2026-04-11T10:42:57.999Z</time></trkpt><trkpt lat="45.024463380817345" lon="7.989188562982145"><ele>266.0</ele><time>2026-04-11T10:42:58.999Z</time></trkpt><trkpt lat="45.024375182137476" lon="7.989173807933339"><ele>266.0</ele><time>2026-04-11T10:42:59.999Z</time></trkpt><trkpt lat="45.02429088553301" lon="7.989118796043774"><ele>266.0</ele><time>2026-04-11T10:43:00.999Z</time></trkpt><trkpt lat="45.02421402589232" lon="7.9890377403451005"><ele>266.0</ele><time>2026-04-11T10:43:01.999Z</time></trkpt><trkpt lat="45.024139528137056" lon="7.988954875577121"><ele>262.8</ele><time>2026-04-11T10:43:02.999Z</time></trkpt><trkpt lat="45.02405691146606" lon="7.988874142645643"><ele>259.6</ele><time>2026-04-11T10:43:03.999Z</time></trkpt><trkpt lat="45.02397549197166" lon="7.988792948579267"><ele>256.4</ele><time>2026-04-11T10:43:04.999Z</time></trkpt><trkpt lat="45.02388749373264" lon="7.988721168119072"><ele>253.2</ele><time>2026-04-11T10:43:05.999Z</time></trkpt><trkpt lat="45.02379512763728" lon="7.988659909360051"><ele>250.0</ele><time>2026-04-11T10:43:06.999Z</time></trkpt><trkpt lat="45.02370166355181" lon="7.988607569904491"><ele>250.0</ele><time>2026-04-11T10:43:07.999Z</time></trkpt><trkpt lat="45.02360775653251" lon="7.988552817183529"><ele>250.0</ele><time>2026-04-11T10:43:08.999Z</time></trkpt><trkpt lat="45.02351281072438" lon="7.9884991097050095"><ele>250.0</ele><time>2026-04-11T10:43:09.999Z</time></trkpt><trkpt lat="45.02341611401851" lon="7.9884511479178695"><ele>250.0</ele><time>2026-04-11T10:43:10.999Z</time></trkpt><trkpt lat="45.023319922152915" lon="7.988396820549288"><ele>250.0</ele><time>2026-04-11T10:43:11.999Z</time></trkpt><trkpt lat="45.02322568389972" lon="7.988341899535721"><ele>251.8</ele><time>2026-04-11T10:43:12.999Z</time></trkpt><trkpt lat="45.023133974628955" lon="7.988286231155884"><ele>253.6</ele><time>2026-04-11T10:43:13.999Z</time></trkpt><trkpt lat="45.02304148073899" lon="7.988230975120677"><ele>255.39999999999998</ele><time>2026-04-11T10:43:14.999Z</time></trkpt><trkpt lat="45.02294826407543" lon="7.988177383386424"><ele>257.2</ele><time>2026-04-11T10:43:15.999Z</time></trkpt><trkpt lat="45.022854232121844" lon="7.988113137935372"><ele>259.0</ele><time>2026-04-11T10:43:16.999Z</time></trkpt><trkpt lat="45.022761591126596" lon="7.988053373387874"><ele>259.0</ele><time>2026-04-11T10:43:17.999Z</time></trkpt><trkpt lat="45.022671624340596" lon="7.987993898304866"><ele>259.0</ele><time>2026-04-11T10:43:19Z</time></trkpt><trkpt lat="45.02258946638344" lon="7.987932556751803"><ele>259.0</ele><time>2026-04-11T10:43:20Z</time></trkpt><trkpt lat="45.0225086076427" lon="7.987881321970721"><ele>259.0</ele><time>2026-04-11T10:43:21Z</time></trkpt><trkpt lat="45.022427741521284" lon="7.987842776677256"><ele>259.0</ele><time>2026-04-11T10:43:22Z</time></trkpt><trkpt lat="45.02235688939972" lon="7.9878052078265265"><ele>259.0</ele><time>2026-04-11T10:43:23Z</time></trkpt><trkpt lat="45.022301472200226" lon="7.987760683303669"><ele>260.16666666666663</ele><time>2026-04-11T10:43:24Z</time></trkpt><trkpt lat="45.02224213385696" lon="7.987728790518631"><ele>261.3333333333333</ele><time>2026-04-11T10:43:25Z</time></trkpt><trkpt lat="45.02217822519419" lon="7.987716148760098"><ele>262.5</ele><time>2026-04-11T10:43:26Z</time></trkpt><trkpt lat="45.02205959133645" lon="7.987716563422872"><ele>263.6666666666667</ele><time>2026-04-11T10:43:28Z</time></trkpt><trkpt lat="45.021996049956705" lon="7.987736249636102"><ele>264.83333333333337</ele><time>2026-04-11T10:43:29Z</time></trkpt><trkpt lat="45.02188835788193" lon="7.987791950620551"><ele>266.0</ele><time>2026-04-11T10:43:31Z</time></trkpt><trkpt lat="45.021782365457945" lon="7.987839940567608"><ele>266.0</ele><time>2026-04-11T10:43:33Z</time></trkpt><trkpt lat="45.02168389430017" lon="7.987888100268749"><ele>266.0</ele><time>2026-04-11T10:43:35Z</time></trkpt><trkpt lat="45.021589549038296" lon="7.987934981026494"><ele>266.0</ele><time>2026-04-11T10:43:37Z</time></trkpt><trkpt lat="45.0214846367348" lon="7.98797025588945"><ele>266.0</ele><time>2026-04-11T10:43:39Z</time></trkpt><trkpt lat="45.02139304221122" lon="7.988003377317363"><ele>266.0</ele><time>2026-04-11T10:43:41Z</time></trkpt><trkpt lat="45.021312508257274" lon="7.988023939069836"><ele>267.14285714285717</ele><time>2026-04-11T10:43:43Z</time></trkpt><trkpt lat="45.02123920509379" lon="7.98804488547175"><ele>268.2857142857143</ele><time>2026-04-11T10:43:45Z</time></trkpt><trkpt lat="45.021175110975136" lon="7.988055426741583"><ele>269.42857142857144</ele><time>2026-04-11T10:43:47Z</time></trkpt><trkpt lat="45.02111242735515" lon="7.988081210581597"><ele>270.57142857142856</ele><time>2026-04-11T10:43:49Z</time></trkpt><trkpt lat="45.02104312581662" lon="7.988094825954605"><ele>271.7142857142857</ele><time>2026-04-11T10:43:51Z</time></trkpt><trkpt lat="45.020975609280065" lon="7.988103988479591"><ele>272.8571428571429</ele><time>2026-04-11T10:43:53Z</time></trkpt><trkpt lat="45.02091401809827" lon="7.988083099866295"><ele>274.0</ele><time>2026-04-11T10:43:55Z</time></trkpt><trkpt lat="45.02084433848625" lon="7.988064902332517"><ele>274.14285714285717</ele><time>2026-04-11T10:43:57Z</time></trkpt><trkpt lat="45.020778219385726" lon="7.988030708655652"><ele>274.2857142857143</ele><time>2026-04-11T10:43:59Z</time></trkpt><trkpt lat="45.02070930108632" lon="7.987994866189533"><ele>274.42857142857144</ele><time>2026-04-11T10:44:01Z</time></trkpt><trkpt lat="45.02064268574438" lon="7.987979545573547"><ele>274.57142857142856</ele><time>2026-04-11T10:44:04Z</time></trkpt><trkpt lat="45.02056255905523" lon="7.987966922603881"><ele>274.7142857142857</ele><time>2026-04-11T10:44:07Z</time></trkpt><trkpt lat="45.020491097451604" lon="7.987952028392386"><ele>274.8571428571429</ele><time>2026-04-11T10:44:10Z</time></trkpt><trkpt lat="45.02042949011262" lon="7.987916156106713"><ele>275.0</ele><time>2026-04-11T10:44:11Z</time></trkpt><trkpt lat="45.02034184243598" lon="7.987869364530327"><ele>275.0</ele><time>2026-04-11T10:44:13Z</time></trkpt><trkpt lat="45.02026345549692" lon="7.987839562982186"><ele>275.0</ele><time>2026-04-11T10:44:15Z</time></trkpt><trkpt lat="45.0201850138812" lon="7.987784745427249"><ele>275.0</ele><time>2026-04-11T10:44:17Z</time></trkpt><trkpt lat="45.02010759944364" lon="7.98774789753661"><ele>275.0</ele><time>2026-04-11T10:44:19Z</time></trkpt><trkpt lat="45.02003348812247" lon="7.987720568921888"><ele>275.0</ele><time>2026-04-11T10:44:21Z</time></trkpt><trkpt lat="45.019945261554284" lon="7.987666420103521"><ele>275.0</ele><time>2026-04-11T10:44:22.999Z</time></trkpt><trkpt lat="45.01985703917765" lon="7.987636082671497"><ele>274.75</ele><time>2026-04-11T10:44:24.999Z</time></trkpt><trkpt lat="45.01974578760736" lon="7.987633153620071"><ele>274.5</ele><time>2026-04-11T10:44:26.999Z</time></trkpt><trkpt lat="45.01963145924401" lon="7.987654623501236"><ele>274.25</ele><time>2026-04-11T10:44:28.999Z</time></trkpt><trkpt lat="45.01951452159921" lon="7.987697455156651"><ele>274.0</ele><time>2026-04-11T10:44:30.999Z</time></trkpt><trkpt lat="45.019388767543475" lon="7.98773436124656"><ele>274.00000000000006</ele><time>2026-04-11T10:44:32.999Z</time></trkpt><trkpt lat="45.01933474821952" lon="7.987794116690615"><ele>274.0</ele><time>2026-04-11T10:44:33.999Z</time></trkpt><trkpt lat="45.01927677163879" lon="7.987837893114418"><ele>274.0</ele><time>2026-04-11T10:44:34.999Z</time></trkpt><trkpt lat="45.019214484380846" lon="7.987870617289431"><ele>274.0</ele><time>2026-04-11T10:44:35.999Z</time></trkpt><trkpt lat="45.019158309093015" lon="7.987924559857733"><ele>274.0</ele><time>2026-04-11T10:44:36.999Z</time></trkpt><trkpt lat="45.0191157097651" lon="7.987999260097393"><ele>274.00000000000006</ele><time>2026-04-11T10:44:37.999Z</time></trkpt><trkpt lat="45.01906369340227" lon="7.98805628520886"><ele>274.0</ele><time>2026-04-11T10:44:38.999Z</time></trkpt><trkpt lat="45.01901468302021" lon="7.988115356286759"><ele>274.25</ele><time>2026-04-11T10:44:39.999Z</time></trkpt><trkpt lat="45.01893132768129" lon="7.988239115162413"><ele>274.5</ele><time>2026-04-11T10:44:41.999Z</time></trkpt><trkpt lat="45.018857984916906" lon="7.9883717322856"><ele>274.75</ele><time>2026-04-11T10:44:43.999Z</time></trkpt><trkpt lat="45.01880303305453" lon="7.988512785577748"><ele>275.0</ele><time>2026-04-11T10:44:45.999Z</time></trkpt><trkpt lat="45.01873495332006" lon="7.988653088258721"><ele>275.0</ele><time>2026-04-11T10:44:47.999Z</time></trkpt><trkpt lat="45.0186963545049" lon="7.988820594853451"><ele>275.0</ele><time>2026-04-11T10:44:49.999Z</time></trkpt><trkpt lat="45.01865338533509" lon="7.988891258512842"><ele>275.0</ele><time>2026-04-11T10:44:50.999Z</time></trkpt><trkpt lat="45.01862518760124" lon="7.988972374091758"><ele>275.0</ele><time>2026-04-11T10:44:51.999Z</time></trkpt><trkpt lat="45.01859621632454" lon="7.989055714967552"><ele>275.0</ele><time>2026-04-11T10:44:52.999Z</time></trkpt><trkpt lat="45.01856765905587" lon="7.989137864863224"><ele>275.0</ele><time>2026-04-11T10:44:53.999Z</time></trkpt><trkpt lat="45.01851268318586" lon="7.989296015860128"><ele>274.2857142857143</ele><time>2026-04-11T10:44:55.999Z</time></trkpt><trkpt lat="45.018492239211774" lon="7.989385452607122"><ele>273.57142857142856</ele><time>2026-04-11T10:44:56.999Z</time></trkpt><trkpt lat="45.01846141236907" lon="7.989470538536796"><ele>272.85714285714283</ele><time>2026-04-11T10:44:57.999Z</time></trkpt><trkpt lat="45.01843317385916" lon="7.989558768483535"><ele>272.1428571428571</ele><time>2026-04-11T10:44:58.999Z</time></trkpt><trkpt lat="45.01839620090005" lon="7.989643776008671"><ele>271.4285714285714</ele><time>2026-04-11T10:44:59.999Z</time></trkpt><trkpt lat="45.0183610536878" lon="7.989724163160857"><ele>270.7142857142857</ele><time>2026-04-11T10:45:00.999Z</time></trkpt><trkpt lat="45.01833063806992" lon="7.989809651520085"><ele>270.0</ele><time>2026-04-11T10:45:01.999Z</time></trkpt><trkpt lat="45.018299038372994" lon="7.989906879721002"><ele>269.1428571428571</ele><time>2026-04-11T10:45:02.999Z</time></trkpt><trkpt lat="45.0182649415613" lon="7.9900027488574645"><ele>268.2857142857143</ele><time>2026-04-11T10:45:03.999Z</time></trkpt><trkpt lat="45.0182346159585" lon="7.990097838008506"><ele>267.42857142857144</ele><time>2026-04-11T10:45:04.999Z</time></trkpt><trkpt lat="45.01820212874368" lon="7.990187637966721"><ele>266.57142857142856</ele><time>2026-04-11T10:45:05.999Z</time></trkpt><trkpt lat="45.01816958121616" lon="7.990281951086381"><ele>265.7142857142857</ele><time>2026-04-11T10:45:06.999Z</time></trkpt><trkpt lat="45.01813367509357" lon="7.990374739573757"><ele>264.85714285714283</ele><time>2026-04-11T10:45:07.999Z</time></trkpt><trkpt lat="45.01809896037704" lon="7.990471881226653"><ele>264.0</ele><time>2026-04-11T10:45:08.999Z</time></trkpt><trkpt lat="45.01806215255173" lon="7.990566250922106"><ele>264.0</ele><time>2026-04-11T10:45:09.999Z</time></trkpt><trkpt lat="45.0180238764343" lon="7.990657905928426"><ele>264.0</ele><time>2026-04-11T10:45:10.999Z</time></trkpt><trkpt lat="45.01798359373349" lon="7.990748714843517"><ele>264.0</ele><time>2026-04-11T10:45:11.999Z</time></trkpt><trkpt lat="45.01794494433884" lon="7.9908367389808"><ele>264.0</ele><time>2026-04-11T10:45:12.999Z</time></trkpt><trkpt lat="45.01790611835179" lon="7.9909256041670425"><ele>264.0</ele><time>2026-04-11T10:45:13.999Z</time></trkpt><trkpt lat="45.017865464999566" lon="7.991013984645398"><ele>264.0</ele><time>2026-04-11T10:45:14.999Z</time></trkpt><trkpt lat="45.01782507807357" lon="7.991098852814535"><ele>264.0</ele><time>2026-04-11T10:45:15.999Z</time></trkpt><trkpt lat="45.017782171222386" lon="7.991181369698545"><ele>263.8333333333333</ele><time>2026-04-11T10:45:16.999Z</time></trkpt><trkpt lat="45.017741382013135" lon="7.991262884676313"><ele>263.6666666666667</ele><time>2026-04-11T10:45:17.999Z</time></trkpt><trkpt lat="45.01769853365045" lon="7.991337171237157"><ele>263.5</ele><time>2026-04-11T10:45:18.999Z</time></trkpt><trkpt lat="45.01765311559841" lon="7.991412671826099"><ele>263.33333333333337</ele><time>2026-04-11T10:45:19.999Z</time></trkpt><trkpt lat="45.01760900977729" lon="7.991481196854275"><ele>263.1666666666667</ele><time>2026-04-11T10:45:20.999Z</time></trkpt><trkpt lat="45.01756033239351" lon="7.991542429609454"><ele>263.0</ele><time>2026-04-11T10:45:21.999Z</time></trkpt><trkpt lat="45.01746208908287" lon="7.99164950638263"><ele>264.75</ele><time>2026-04-11T10:45:23.999Z</time></trkpt><trkpt lat="45.01736805775307" lon="7.991759663770471"><ele>266.5</ele><time>2026-04-11T10:45:26Z</time></trkpt><trkpt lat="45.01726575473396" lon="7.9918558462187645"><ele>268.25</ele><time>2026-04-11T10:45:28Z</time></trkpt><trkpt lat="45.01716332553496" lon="7.991946324115072"><ele>270.0</ele><time>2026-04-11T10:45:30Z</time></trkpt><trkpt lat="45.017061179824" lon="7.992035070934333"><ele>270.0</ele><time>2026-04-11T10:45:32Z</time></trkpt><trkpt lat="45.01696186069911" lon="7.992119048958644"><ele>270.0</ele><time>2026-04-11T10:45:34Z</time></trkpt><trkpt lat="45.01685862872135" lon="7.992196740116917"><ele>270.0</ele><time>2026-04-11T10:45:36Z</time></trkpt><trkpt lat="45.01675920898069" lon="7.99227406970828"><ele>270.0</ele><time>2026-04-11T10:45:38Z</time></trkpt><trkpt lat="45.01666706571469" lon="7.992349546087311"><ele>270.0</ele><time>2026-04-11T10:45:40Z</time></trkpt><trkpt lat="45.016573448962625" lon="7.992411072592923"><ele>270.0</ele><time>2026-04-11T10:45:42Z</time></trkpt><trkpt lat="45.01648795599445" lon="7.992468318667289"><ele>270.0</ele><time>2026-04-11T10:45:44Z</time></trkpt><trkpt lat="45.0164007990346" lon="7.992525141391308"><ele>270.0</ele><time>2026-04-11T10:45:46Z</time></trkpt><trkpt lat="45.01631123485519" lon="7.992578410148565"><ele>270.0</ele><time>2026-04-11T10:45:48Z</time></trkpt><trkpt lat="45.01622691331318" lon="7.992610389772657"><ele>270.0</ele><time>2026-04-11T10:45:50Z</time></trkpt><trkpt lat="45.016135827084995" lon="7.992639872967783"><ele>270.0</ele><time>2026-04-11T10:45:52Z</time></trkpt><trkpt lat="45.01604756165711" lon="7.99266000129111"><ele>270.0</ele><time>2026-04-11T10:45:54Z</time></trkpt><trkpt lat="45.015952086969165" lon="7.99268015068602"><ele>270.0</ele><time>2026-04-11T10:45:56Z</time></trkpt><trkpt lat="45.0158605350224" lon="7.992686176193621"><ele>270.0</ele><time>2026-04-11T10:45:58Z</time></trkpt><trkpt lat="45.01576372853832" lon="7.992697576780218"><ele>269.2</ele><time>2026-04-11T10:46:00Z</time></trkpt><trkpt lat="45.015665100018495" lon="7.9927013062485095"><ele>268.4</ele><time>2026-04-11T10:46:02Z</time></trkpt><trkpt lat="45.015563069638944" lon="7.992699683713842"><ele>267.6</ele><time>2026-04-11T10:46:04Z</time></trkpt><trkpt lat="45.01545331120216" lon="7.992696607502282"><ele>266.8</ele><time>2026-04-11T10:46:06Z</time></trkpt><trkpt lat="45.01533497760148" lon="7.992674997411204"><ele>266.0</ele><time>2026-04-11T10:46:08Z</time></trkpt><trkpt lat="45.015223730371346" lon="7.992662076559409"><ele>266.0</ele><time>2026-04-11T10:46:10Z</time></trkpt><trkpt lat="45.01516154346635" lon="7.992640633869429"><ele>266.0</ele><time>2026-04-11T10:46:11Z</time></trkpt><trkpt lat="45.0150485894985" lon="7.99260306523725"><ele>266.0</ele><time>2026-04-11T10:46:13Z</time></trkpt><trkpt lat="45.014985216501074" lon="7.992589541204733"><ele>266.0</ele><time>2026-04-11T10:46:14Z</time></trkpt><trkpt lat="45.014921567618316" lon="7.992564669057969"><ele>266.0</ele><time>2026-04-11T10:46:15Z</time></trkpt><trkpt lat="45.01480668461866" lon="7.992528756285732"><ele>266.0</ele><time>2026-04-11T10:46:17Z</time></trkpt><trkpt lat="45.014740817252104" lon="7.992508383208422"><ele>266.2</ele><time>2026-04-11T10:46:18Z</time></trkpt><trkpt lat="45.014675095751976" lon="7.992482243360316"><ele>266.40000000000003</ele><time>2026-04-11T10:46:19Z</time></trkpt><trkpt lat="45.0145472227742" lon="7.992450061192814"><ele>266.6</ele><time>2026-04-11T10:46:21Z</time></trkpt><trkpt lat="45.0144826451553" lon="7.992425320296127"><ele>266.8</ele><time>2026-04-11T10:46:22Z</time></trkpt><trkpt lat="45.014420135444965" lon="7.992404395618281"><ele>267.0</ele><time>2026-04-11T10:46:23Z</time></trkpt><trkpt lat="45.014298825434416" lon="7.992362574230621"><ele>267.00000000000006</ele><time>2026-04-11T10:46:25Z</time></trkpt><trkpt lat="45.014232896863966" lon="7.9923424169775465"><ele>267.0</ele><time>2026-04-11T10:46:26Z</time></trkpt><trkpt lat="45.01416493158999" lon="7.9923194726357"><ele>267.0</ele><time>2026-04-11T10:46:27Z</time></trkpt><trkpt lat="45.01409853268334" lon="7.992300526513295"><ele>267.0</ele><time>2026-04-11T10:46:28Z</time></trkpt><trkpt lat="45.01403760708595" lon="7.992272529785027"><ele>267.0</ele><time>2026-04-11T10:46:29Z</time></trkpt><trkpt lat="45.01397180171235" lon="7.992255097273854"><ele>267.00000000000006</ele><time>2026-04-11T10:46:30Z</time></trkpt><trkpt lat="45.01390202708709" lon="7.992239855500777"><ele>267.0</ele><time>2026-04-11T10:46:31Z</time></trkpt><trkpt lat="45.01383534152985" lon="7.992216869603178"><ele>266.28571428571433</ele><time>2026-04-11T10:46:32Z</time></trkpt><trkpt lat="45.013768152470846" lon="7.992192595633055"><ele>265.57142857142856</ele><time>2026-04-11T10:46:32.999Z</time></trkpt><trkpt lat="45.0137012819622" lon="7.992169351069558"><ele>264.8571428571429</ele><time>2026-04-11T10:46:33.999Z</time></trkpt><trkpt lat="45.01363060441821" lon="7.992141929850499"><ele>264.14285714285717</ele><time>2026-04-11T10:46:34.999Z</time></trkpt><trkpt lat="45.013560663832266" lon="7.992101399037282"><ele>263.42857142857144</ele><time>2026-04-11T10:46:35.999Z</time></trkpt><trkpt lat="45.01349350488143" lon="7.992058856002527"><ele>262.7142857142857</ele><time>2026-04-11T10:46:36.999Z</time></trkpt><trkpt lat="45.013424291551594" lon="7.992013456843414"><ele>262.0</ele><time>2026-04-11T10:46:37.999Z</time></trkpt><trkpt lat="45.01335645534831" lon="7.99195282463868"><ele>262.3333333333333</ele><time>2026-04-11T10:46:38.999Z</time></trkpt><trkpt lat="45.013292796061066" lon="7.991884650910408"><ele>262.66666666666663</ele><time>2026-04-11T10:46:39.999Z</time></trkpt><trkpt lat="45.01323046686233" lon="7.991810009896782"><ele>263.0</ele><time>2026-04-11T10:46:40.999Z</time></trkpt><trkpt lat="45.01317108654397" lon="7.991725386927571"><ele>263.3333333333333</ele><time>2026-04-11T10:46:41.999Z</time></trkpt><trkpt lat="45.013113420515815" lon="7.991634463743234"><ele>263.6666666666667</ele><time>2026-04-11T10:46:42.999Z</time></trkpt><trkpt lat="45.01305592626441" lon="7.9915332212149695"><ele>264.0</ele><time>2026-04-11T10:46:43.999Z</time></trkpt><trkpt lat="45.013005274003355" lon="7.991424898400544"><ele>264.0</ele><time>2026-04-11T10:46:44.999Z</time></trkpt><trkpt lat="45.01295293433079" lon="7.991312909796273"><ele>264.0</ele><time>2026-04-11T10:46:45.999Z</time></trkpt><trkpt lat="45.012900951682326" lon="7.991195551561025"><ele>264.0</ele><time>2026-04-11T10:46:46.999Z</time></trkpt><trkpt lat="45.012851855258575" lon="7.991075316059865"><ele>264.0</ele><time>2026-04-11T10:46:47.999Z</time></trkpt><trkpt lat="45.012803128930514" lon="7.99095564238202"><ele>264.0</ele><time>2026-04-11T10:46:48.999Z</time></trkpt><trkpt lat="45.01274819032192" lon="7.9908396114147076"><ele>262.8</ele><time>2026-04-11T10:46:49.999Z</time></trkpt><trkpt lat="45.012689655281754" lon="7.9907265682438195"><ele>261.59999999999997</ele><time>2026-04-11T10:46:50.999Z</time></trkpt><trkpt lat="45.012620657762035" lon="7.990617836871824"><ele>260.4</ele><time>2026-04-11T10:46:51.999Z</time></trkpt><trkpt lat="45.01254152720727" lon="7.99051680767749"><ele>259.2</ele><time>2026-04-11T10:46:52.999Z</time></trkpt><trkpt lat="45.01246010332605" lon="7.9904275458186005"><ele>258.0</ele><time>2026-04-11T10:46:53.999Z</time></trkpt><trkpt lat="45.01236578531364" lon="7.990355270630657"><ele>257.6</ele><time>2026-04-11T10:46:54.999Z</time></trkpt><trkpt lat="45.012271812048986" lon="7.9902940853198094"><ele>257.20000000000005</ele><time>2026-04-11T10:46:55.999Z</time></trkpt><trkpt lat="45.01217555930457" lon="7.99024660625094"><ele>256.8</ele><time>2026-04-11T10:46:56.999Z</time></trkpt><trkpt lat="45.01207415928888" lon="7.990205587664728"><ele>256.40000000000003</ele><time>2026-04-11T10:46:57.999Z</time></trkpt><trkpt lat="45.011975138722185" lon="7.9901674982160955"><ele>256.0</ele><time>2026-04-11T10:46:58.999Z</time></trkpt><trkpt lat="45.01188186472848" lon="7.990127096844325"><ele>256.0</ele><time>2026-04-11T10:46:59.999Z</time></trkpt><trkpt lat="45.01178405679217" lon="7.990092900172561"><ele>256.0</ele><time>2026-04-11T10:47:00.999Z</time></trkpt><trkpt lat="45.011693636966086" lon="7.990057479361723"><ele>256.0</ele><time>2026-04-11T10:47:01.999Z</time></trkpt><trkpt lat="45.01160368086999" lon="7.990029111305322"><ele>256.0</ele><time>2026-04-11T10:47:02.999Z</time></trkpt><trkpt lat="45.01151621904685" lon="7.99000370228892"><ele>256.0</ele><time>2026-04-11T10:47:03.999Z</time></trkpt><trkpt lat="45.01142436122688" lon="7.989986005945694"><ele>254.4</ele><time>2026-04-11T10:47:04.999Z</time></trkpt><trkpt lat="45.01133532476844" lon="7.989975183832732"><ele>252.8</ele><time>2026-04-11T10:47:05.999Z</time></trkpt><trkpt lat="45.01124794738931" lon="7.989969554291562"><ele>251.20000000000002</ele><time>2026-04-11T10:47:06.999Z</time></trkpt><trkpt lat="45.01115731413089" lon="7.989963092301404"><ele>249.60000000000002</ele><time>2026-04-11T10:47:07.999Z</time></trkpt><trkpt lat="45.01106369864014" lon="7.989955071988426"><ele>248.0</ele><time>2026-04-11T10:47:08.999Z</time></trkpt><trkpt lat="45.01096924736373" lon="7.989947295456755"><ele>248.00000000000003</ele><time>2026-04-11T10:47:09.999Z</time></trkpt><trkpt lat="45.01088022955443" lon="7.989937393954765"><ele>248.0</ele><time>2026-04-11T10:47:10.999Z</time></trkpt><trkpt lat="45.01079457540582" lon="7.989924059699909"><ele>248.0</ele><time>2026-04-11T10:47:11.999Z</time></trkpt><trkpt lat="45.01070972970385" lon="7.9899099581174635"><ele>248.0</ele><time>2026-04-11T10:47:12.999Z</time></trkpt><trkpt lat="45.01062418834782" lon="7.989897018138135"><ele>248.00000000000003</ele><time>2026-04-11T10:47:13.999Z</time></trkpt><trkpt lat="45.01053621493571" lon="7.989887029213581"><ele>248.0</ele><time>2026-04-11T10:47:14.999Z</time></trkpt><trkpt lat="45.01044588801498" lon="7.98987402173336"><ele>247.50000000000003</ele><time>2026-04-11T10:47:15.999Z</time></trkpt><trkpt lat="45.010352561471734" lon="7.989860020540958"><ele>247.0</ele><time>2026-04-11T10:47:16.999Z</time></trkpt><trkpt lat="45.01026282322819" lon="7.989843457780635"><ele>246.5</ele><time>2026-04-11T10:47:17.999Z</time></trkpt><trkpt lat="45.010179742938185" lon="7.989821636944067"><ele>246.0</ele><time>2026-04-11T10:47:18.999Z</time></trkpt><trkpt lat="45.01010000699223" lon="7.989801853626655"><ele>245.50000000000003</ele><time>2026-04-11T10:47:19.999Z</time></trkpt><trkpt lat="45.01002338633649" lon="7.989780249010687"><ele>245.0</ele><time>2026-04-11T10:47:20.999Z</time></trkpt><trkpt lat="45.00995474248101" lon="7.989761404892318"><ele>245.00000000000003</ele><time>2026-04-11T10:47:21.999Z</time></trkpt><trkpt lat="45.009852543554864" lon="7.989726029745408"><ele>245.0</ele><time>2026-04-11T10:47:23.999Z</time></trkpt><trkpt lat="45.00980418208678" lon="7.9896371811893685"><ele>245.0</ele><time>2026-04-11T10:47:25.999Z</time></trkpt><trkpt lat="45.00981695974788" lon="7.989516030354742"><ele>245.0</ele><time>2026-04-11T10:47:27.999Z</time></trkpt><trkpt lat="45.00990529567829" lon="7.989474445126401"><ele>245.00000000000003</ele><time>2026-04-11T10:47:29.999Z</time></trkpt><trkpt lat="45.009957808643776" lon="7.98941487805251"><ele>245.0</ele><time>2026-04-11T10:47:32Z</time></trkpt><trkpt lat="45.01003067347006" lon="7.989386883920687"><ele>245.0</ele><time>2026-04-11T10:47:34Z</time></trkpt><trkpt lat="45.01012416481025" lon="7.9893332897309985"><ele>245.0</ele><time>2026-04-11T10:47:36Z</time></trkpt><trkpt lat="45.01021782097736" lon="7.989257323237195"><ele>245.0</ele><time>2026-04-11T10:47:38Z</time></trkpt><trkpt lat="45.01029636317763" lon="7.989140008454953"><ele>245.0</ele><time>2026-04-11T10:47:40Z</time></trkpt><trkpt lat="45.01032229312484" lon="7.9890498884137315"><ele>245.0</ele><time>2026-04-11T10:47:41Z</time></trkpt><trkpt lat="45.0103438004889" lon="7.988945362964362"><ele>242.50000000000003</ele><time>2026-04-11T10:47:42Z</time></trkpt><trkpt lat="45.010359274616704" lon="7.988836013479523"><ele>240.0</ele><time>2026-04-11T10:47:43Z</time></trkpt><trkpt lat="45.01037853251322" lon="7.9887137840709705"><ele>237.5</ele><time>2026-04-11T10:47:44Z</time></trkpt><trkpt lat="45.01039253741883" lon="7.988589902837759"><ele>235.0</ele><time>2026-04-11T10:47:45Z</time></trkpt><trkpt lat="45.01040478096748" lon="7.988458050156459"><ele>232.50000000000003</ele><time>2026-04-11T10:47:46Z</time></trkpt><trkpt lat="45.01042284832172" lon="7.988325420461325"><ele>230.0</ele><time>2026-04-11T10:47:47Z</time></trkpt><trkpt lat="45.010437015540454" lon="7.988190473109963"><ele>228.6</ele><time>2026-04-11T10:47:48Z</time></trkpt><trkpt lat="45.01045232995765" lon="7.988056357513613"><ele>227.2</ele><time>2026-04-11T10:47:49Z</time></trkpt><trkpt lat="45.0104662132493" lon="7.987925289117567"><ele>225.8</ele><time>2026-04-11T10:47:50Z</time></trkpt><trkpt lat="45.010482596353484" lon="7.987799499753084"><ele>224.4</ele><time>2026-04-11T10:47:51Z</time></trkpt><trkpt lat="45.01049571555473" lon="7.98767758681579"><ele>223.0</ele><time>2026-04-11T10:47:52Z</time></trkpt><trkpt lat="45.01050709030245" lon="7.987559685034341"><ele>222.16666666666666</ele><time>2026-04-11T10:47:53Z</time></trkpt><trkpt lat="45.01052252665519" lon="7.987441634083064"><ele>221.33333333333331</ele><time>2026-04-11T10:47:54Z</time></trkpt><trkpt lat="45.010538853342815" lon="7.9873291252746625"><ele>220.5</ele><time>2026-04-11T10:47:55Z</time></trkpt><trkpt lat="45.01055402022992" lon="7.987222471525244"><ele>219.66666666666669</ele><time>2026-04-11T10:47:56Z</time></trkpt><trkpt lat="45.01056432707837" lon="7.987119555686149"><ele>218.83333333333334</ele><time>2026-04-11T10:47:57Z</time></trkpt><trkpt lat="45.01057621633637" lon="7.987022269556006"><ele>218.0</ele><time>2026-04-11T10:47:58Z</time></trkpt><trkpt lat="45.01059713072518" lon="7.986855977117864"><ele>218.00000000000003</ele><time>2026-04-11T10:48:00Z</time></trkpt><trkpt lat="45.0106133832919" lon="7.98671577804104"><ele>218.0</ele><time>2026-04-11T10:48:02Z</time></trkpt><trkpt lat="45.01062812533995" lon="7.986594380811369"><ele>218.0</ele><time>2026-04-11T10:48:04Z</time></trkpt><trkpt lat="45.010621304964545" lon="7.986499147104992"><ele>218.0</ele><time>2026-04-11T10:48:07Z</time></trkpt><trkpt lat="45.01052569923129" lon="7.986530245045425"><ele>218.00000000000003</ele><time>2026-04-11T10:48:10Z</time></trkpt><trkpt lat="45.010464229262" lon="7.9864807888620355"><ele>218.0</ele><time>2026-04-11T10:48:13Z</time></trkpt><trkpt lat="45.010390539758134" lon="7.986457313511191"><ele>217.50000000000003</ele><time>2026-04-11T10:48:17Z</time></trkpt><trkpt lat="45.0103177310011" lon="7.986462904233448"><ele>217.0</ele><time>2026-04-11T10:48:35Z</time></trkpt><trkpt lat="45.01025161294861" lon="7.98647504836786"><ele>216.5</ele><time>2026-04-11T10:48:38.999Z</time></trkpt><trkpt lat="45.01017644836771" lon="7.986460177755899"><ele>216.0</ele><time>2026-04-11T10:48:41.999Z</time></trkpt><trkpt lat="45.010097572369375" lon="7.986461336671834"><ele>215.50000000000003</ele><time>2026-04-11T10:48:44.999Z</time></trkpt><trkpt lat="45.01001485976112" lon="7.986458763659047"><ele>215.0</ele><time>2026-04-11T10:48:48.999Z</time></trkpt><trkpt lat="45.009935980491456" lon="7.986465337297798"><ele>216.42857142857142</ele><time>2026-04-11T10:48:52.999Z</time></trkpt><trkpt lat="45.00987217865705" lon="7.98646807654265"><ele>217.8571428571429</ele><time>2026-04-11T10:48:55.999Z</time></trkpt><trkpt lat="45.009803890743214" lon="7.98647422742793"><ele>219.2857142857143</ele><time>2026-04-11T10:48:58.999Z</time></trkpt><trkpt lat="45.00972458519865" lon="7.986475589840547"><ele>220.71428571428572</ele><time>2026-04-11T10:49:01.999Z</time></trkpt><trkpt lat="45.00965919757105" lon="7.986496400573523"><ele>222.14285714285717</ele><time>2026-04-11T10:49:03.999Z</time></trkpt><trkpt lat="45.00959492054555" lon="7.986497894922787"><ele>223.5714285714286</ele><time>2026-04-11T10:49:05.999Z</time></trkpt><trkpt lat="45.009529966537926" lon="7.98650874199388"><ele>225.00000000000003</ele><time>2026-04-11T10:49:07.999Z</time></trkpt><trkpt lat="45.00946351277798" lon="7.9865209847121506"><ele>225.00000000000003</ele><time>2026-04-11T10:49:09.999Z</time></trkpt><trkpt lat="45.00939153558255" lon="7.98651929502838"><ele>225.0</ele><time>2026-04-11T10:49:11.999Z</time></trkpt><trkpt lat="45.009328442086165" lon="7.9865349116127105"><ele>225.00000000000003</ele><time>2026-04-11T10:49:13.999Z</time></trkpt><trkpt lat="45.0092651899036" lon="7.986548585462494"><ele>225.00000000000003</ele><time>2026-04-11T10:49:15.999Z</time></trkpt><trkpt lat="45.00920176094284" lon="7.986564717131542"><ele>225.0</ele><time>2026-04-11T10:49:17.999Z</time></trkpt><trkpt lat="45.00912289633677" lon="7.986586968974019"><ele>225.00000000000003</ele><time>2026-04-11T10:49:20.999Z</time></trkpt><trkpt lat="45.00905711265524" lon="7.986610597637367"><ele>225.00000000000003</ele><time>2026-04-11T10:49:23.999Z</time></trkpt><trkpt lat="45.00898146609455" lon="7.986640011649973"><ele>225.33333333333334</ele><time>2026-04-11T10:49:26.999Z</time></trkpt><trkpt lat="45.00892202501926" lon="7.986671180793333"><ele>225.66666666666669</ele><time>2026-04-11T10:49:28.999Z</time></trkpt><trkpt lat="45.00885719569952" lon="7.986700282910028"><ele>226.0</ele><time>2026-04-11T10:49:30.999Z</time></trkpt><trkpt lat="45.00878633458717" lon="7.986736900139802"><ele>226.33333333333334</ele><time>2026-04-11T10:49:33.999Z</time></trkpt><trkpt lat="45.00870862988734" lon="7.986767020608083"><ele>226.66666666666669</ele><time>2026-04-11T10:49:35.999Z</time></trkpt><trkpt lat="45.008613763218904" lon="7.986778150218349"><ele>227.0</ele><time>2026-04-11T10:49:39Z</time></trkpt><trkpt lat="45.00853124098706" lon="7.986773039842879"><ele>230.6</ele><time>2026-04-11T10:49:41Z</time></trkpt><trkpt lat="45.0084401336406" lon="7.986771592469572"><ele>234.2</ele><time>2026-04-11T10:49:43Z</time></trkpt><trkpt lat="45.00833293654526" lon="7.986770025724189"><ele>237.8</ele><time>2026-04-11T10:49:46Z</time></trkpt><trkpt lat="45.008267129336915" lon="7.986775109688848"><ele>241.4</ele><time>2026-04-11T10:49:48Z</time></trkpt><trkpt lat="45.008194081275626" lon="7.9867763802753"><ele>245.0</ele><time>2026-04-11T10:49:50Z</time></trkpt><trkpt lat="45.00796207503958" lon="7.98680392647937"><ele>245.28571428571428</ele><time>2026-04-11T10:49:52Z</time></trkpt><trkpt lat="45.00789255024294" lon="7.986844691100736"><ele>245.57142857142856</ele><time>2026-04-11T10:49:54Z</time></trkpt><trkpt lat="45.00782895609696" lon="7.986877951108437"><ele>245.85714285714286</ele><time>2026-04-11T10:49:56Z</time></trkpt><trkpt lat="45.007763351516985" lon="7.986926109001102"><ele>246.14285714285714</ele><time>2026-04-11T10:49:58Z</time></trkpt><trkpt lat="45.00769860890051" lon="7.986974853569838"><ele>246.42857142857142</ele><time>2026-04-11T10:50:00Z</time></trkpt><trkpt lat="45.00763414025938" lon="7.9870017861019225"><ele>246.71428571428572</ele><time>2026-04-11T10:50:02Z</time></trkpt><trkpt lat="45.0075711058776" lon="7.987031331727482"><ele>247.0</ele><time>2026-04-11T10:50:04Z</time></trkpt><trkpt lat="45.007511527557206" lon="7.987073509427397"><ele>245.99999999999997</ele><time>2026-04-11T10:50:06Z</time></trkpt><trkpt lat="45.007435874197114" lon="7.987140594243053"><ele>245.0</ele><time>2026-04-11T10:50:09Z</time></trkpt><trkpt lat="45.00736365840354" lon="7.987172481845146"><ele>244.0</ele><time>2026-04-11T10:50:11Z</time></trkpt><trkpt lat="45.007291337923" lon="7.987210945488152"><ele>243.0</ele><time>2026-04-11T10:50:13Z</time></trkpt><trkpt lat="45.00722295936993" lon="7.987248163825791"><ele>241.99999999999997</ele><time>2026-04-11T10:50:16Z</time></trkpt><trkpt lat="45.00715455622384" lon="7.987278125025063"><ele>241.0</ele><time>2026-04-11T10:50:19Z</time></trkpt><trkpt lat="45.00708981511487" lon="7.987307836054224"><ele>240.99999999999997</ele><time>2026-04-11T10:50:21Z</time></trkpt><trkpt lat="45.00699537682176" lon="7.987315915694046"><ele>241.0</ele><time>2026-04-11T10:50:24Z</time></trkpt><trkpt lat="45.00691809069459" lon="7.987328823976087"><ele>241.0</ele><time>2026-04-11T10:50:26Z</time></trkpt><trkpt lat="45.006830320474585" lon="7.98736102182922"><ele>241.0</ele><time>2026-04-11T10:50:28Z</time></trkpt><trkpt lat="45.006753630998396" lon="7.987370500495367"><ele>240.99999999999997</ele><time>2026-04-11T10:50:30Z</time></trkpt><trkpt lat="45.00667995134894" lon="7.987397256433421"><ele>241.0</ele><time>2026-04-11T10:50:32Z</time></trkpt><trkpt lat="45.00661016340593" lon="7.987432745182216"><ele>240.49999999999997</ele><time>2026-04-11T10:50:34Z</time></trkpt><trkpt lat="45.00654116053384" lon="7.987449560811466"><ele>240.0</ele><time>2026-04-11T10:50:35.999Z</time></trkpt><trkpt lat="45.00648018019038" lon="7.987488181513746"><ele>239.5</ele><time>2026-04-11T10:50:37.999Z</time></trkpt><trkpt lat="45.00642373844888" lon="7.987578911968042"><ele>239.0</ele><time>2026-04-11T10:50:40.999Z</time></trkpt><trkpt lat="45.00642564891751" lon="7.987689862180642"><ele>238.49999999999997</ele><time>2026-04-11T10:50:43.999Z</time></trkpt><trkpt lat="45.00644344051245" lon="7.987810744029552"><ele>238.0</ele><time>2026-04-11T10:51:11.999Z</time></trkpt><trkpt lat="45.00637715979266" lon="7.987832993943933"><ele>237.99999999999997</ele><time>2026-04-11T10:51:13.999Z</time></trkpt><trkpt lat="45.00635970081777" lon="7.987962669418935"><ele>238.0</ele><time>2026-04-11T10:51:17.999Z</time></trkpt><trkpt lat="45.006370904181075" lon="7.988057195385708"><ele>238.0</ele><time>2026-04-11T10:51:20.999Z</time></trkpt><trkpt lat="45.006389850606105" lon="7.988179115015517"><ele>238.0</ele><time>2026-04-11T10:51:23.999Z</time></trkpt><trkpt lat="45.00642092607187" lon="7.988303377179015"><ele>237.99999999999997</ele><time>2026-04-11T10:51:26.999Z</time></trkpt><trkpt lat="45.006447273774825" lon="7.988387952836664"><ele>238.0</ele><time>2026-04-11T10:51:28.999Z</time></trkpt><trkpt lat="45.0065085863748" lon="7.988481492357105"><ele>238.16666666666666</ele><time>2026-04-11T10:51:31.999Z</time></trkpt><trkpt lat="45.00658529885688" lon="7.988548795798986"><ele>238.33333333333331</ele><time>2026-04-11T10:51:34.999Z</time></trkpt><trkpt lat="45.00664503308009" lon="7.988581785812227"><ele>238.5</ele><time>2026-04-11T10:51:36.999Z</time></trkpt><trkpt lat="45.00670786214689" lon="7.9886348260355105"><ele>238.66666666666669</ele><time>2026-04-11T10:51:38.999Z</time></trkpt><trkpt lat="45.00678448185477" lon="7.988702049913614"><ele>238.83333333333334</ele><time>2026-04-11T10:51:40.999Z</time></trkpt><trkpt lat="45.006848280104116" lon="7.9887750628957335"><ele>239.0</ele><time>2026-04-11T10:51:44Z</time></trkpt><trkpt lat="45.006908599242536" lon="7.988811289751703"><ele>239.00000000000003</ele><time>2026-04-11T10:51:46Z</time></trkpt><trkpt lat="45.006966050171414" lon="7.988871483456653"><ele>239.0</ele><time>2026-04-11T10:51:48Z</time></trkpt><trkpt lat="45.00704557685426" lon="7.988948473247679"><ele>239.0</ele><time>2026-04-11T10:51:51Z</time></trkpt><trkpt lat="45.00710690922472" lon="7.988996882133601"><ele>239.0</ele><time>2026-04-11T10:51:53Z</time></trkpt><trkpt lat="45.0071867871555" lon="7.989046413616511"><ele>239.00000000000003</ele><time>2026-04-11T10:51:56Z</time></trkpt><trkpt lat="45.00725446687932" lon="7.9891035370909105"><ele>239.0</ele><time>2026-04-11T10:51:58Z</time></trkpt><trkpt lat="45.00733009997721" lon="7.989166876006035"><ele>240.6</ele><time>2026-04-11T10:52:00Z</time></trkpt><trkpt lat="45.007401560455975" lon="7.989227961421643"><ele>242.2</ele><time>2026-04-11T10:52:02Z</time></trkpt><trkpt lat="45.00749073040399" lon="7.9892959758836035"><ele>243.79999999999998</ele><time>2026-04-11T10:52:05Z</time></trkpt><trkpt lat="45.007557455617274" lon="7.989346159469277"><ele>245.39999999999998</ele><time>2026-04-11T10:52:07Z</time></trkpt><trkpt lat="45.00763510534251" lon="7.98941711770004"><ele>247.0</ele><time>2026-04-11T10:52:10Z</time></trkpt><trkpt lat="45.00771433925127" lon="7.989495706876465"><ele>247.0</ele><time>2026-04-11T10:52:13Z</time></trkpt><trkpt lat="45.007785727558726" lon="7.989540514695295"><ele>247.0</ele><time>2026-04-11T10:52:16Z</time></trkpt><trkpt lat="45.00782976105407" lon="7.989608591888748"><ele>247.0</ele><time>2026-04-11T10:52:19Z</time></trkpt><trkpt lat="45.00790043439864" lon="7.989673796503587"><ele>247.0</ele><time>2026-04-11T10:52:22Z</time></trkpt><trkpt lat="45.00797471648128" lon="7.989704883511704"><ele>247.0</ele><time>2026-04-11T10:52:25Z</time></trkpt><trkpt lat="45.00803501389623" lon="7.989745976240127"><ele>247.0</ele><time>2026-04-11T10:52:28Z</time></trkpt><trkpt lat="45.00809407807485" lon="7.9897877323742"><ele>247.0</ele><time>2026-04-11T10:52:31Z</time></trkpt><trkpt lat="45.008164036481894" lon="7.989848398207591"><ele>246.99999999999997</ele><time>2026-04-11T10:52:35Z</time></trkpt><trkpt lat="45.00823359960102" lon="7.989910334093351"><ele>247.0</ele><time>2026-04-11T10:52:39Z</time></trkpt><trkpt lat="45.008287622230185" lon="7.989969488858275"><ele>247.0</ele><time>2026-04-11T10:52:42Z</time></trkpt><trkpt lat="45.00833834943473" lon="7.990031108543041"><ele>247.0</ele><time>2026-04-11T10:52:44.999Z</time></trkpt><trkpt lat="45.00839031591956" lon="7.990098405320485"><ele>246.99999999999997</ele><time>2026-04-11T10:52:47.999Z</time></trkpt><trkpt lat="45.00844418590889" lon="7.990148848603956"><ele>247.0</ele><time>2026-04-11T10:52:50.999Z</time></trkpt><trkpt lat="45.00853521430356" lon="7.990219483174281"><ele>246.57142857142858</ele><time>2026-04-11T10:52:54.999Z</time></trkpt><trkpt lat="45.00859558931022" lon="7.990253756033815"><ele>246.1428571428571</ele><time>2026-04-11T10:52:56.999Z</time></trkpt><trkpt lat="45.00865272865238" lon="7.990297653514639"><ele>245.7142857142857</ele><time>2026-04-11T10:52:58.999Z</time></trkpt><trkpt lat="45.00871674287746" lon="7.990343946265051"><ele>245.28571428571428</ele><time>2026-04-11T10:53:00.999Z</time></trkpt><trkpt lat="45.008776961120695" lon="7.990379127703321"><ele>244.85714285714283</ele><time>2026-04-11T10:53:02.999Z</time></trkpt><trkpt lat="45.00884311444303" lon="7.990435577963411"><ele>244.4285714285714</ele><time>2026-04-11T10:53:04.999Z</time></trkpt><trkpt lat="45.008926857204195" lon="7.990497033290354"><ele>243.99999999999997</ele><time>2026-04-11T10:53:07.999Z</time></trkpt><trkpt lat="45.00898932330818" lon="7.990582384323871"><ele>243.99999999999997</ele><time>2026-04-11T10:53:10.999Z</time></trkpt><trkpt lat="45.00905012930459" lon="7.9906325949336"><ele>244.0</ele><time>2026-04-11T10:53:13.999Z</time></trkpt><trkpt lat="45.009117598699454" lon="7.990641888942931"><ele>243.99999999999997</ele><time>2026-04-11T10:53:15.999Z</time></trkpt><trkpt lat="45.00918597065338" lon="7.99063858415818"><ele>243.99999999999997</ele><time>2026-04-11T10:53:17.999Z</time></trkpt><trkpt lat="45.00925640920444" lon="7.9906343323590905"><ele>244.0</ele><time>2026-04-11T10:53:19.999Z</time></trkpt><trkpt lat="45.00933305372201" lon="7.990607799920947"><ele>243.99999999999997</ele><time>2026-04-11T10:53:21.999Z</time></trkpt><trkpt lat="45.00940421219251" lon="7.990557522693554"><ele>243.99999999999997</ele><time>2026-04-11T10:53:23.999Z</time></trkpt><trkpt lat="45.00946187786649" lon="7.990508281037763"><ele>244.99999999999997</ele><time>2026-04-11T10:53:25.999Z</time></trkpt><trkpt lat="45.00953507606167" lon="7.990465524343701"><ele>246.0</ele><time>2026-04-11T10:53:28.999Z</time></trkpt><trkpt lat="45.00958772488718" lon="7.99052142650188"><ele>247.0</ele><time>2026-04-11T10:53:30.999Z</time></trkpt><trkpt lat="45.009633517225915" lon="7.990625944628696"><ele>248.0</ele><time>2026-04-11T10:53:33.999Z</time></trkpt><trkpt lat="45.009673128618815" lon="7.990721448514792"><ele>248.99999999999997</ele><time>2026-04-11T10:53:36.999Z</time></trkpt><trkpt lat="45.009708030582935" lon="7.990795644258991"><ele>250.0</ele><time>2026-04-11T10:53:38.999Z</time></trkpt><trkpt lat="45.00976186229016" lon="7.990875666227294"><ele>250.33333333333331</ele><time>2026-04-11T10:53:41.999Z</time></trkpt><trkpt lat="45.00982975295281" lon="7.990896461912854"><ele>250.66666666666666</ele><time>2026-04-11T10:53:44.999Z</time></trkpt><trkpt lat="45.00991953747862" lon="7.990885640149211"><ele>251.0</ele><time>2026-04-11T10:53:49Z</time></trkpt><trkpt lat="45.01000329597803" lon="7.990858678214856"><ele>251.33333333333331</ele><time>2026-04-11T10:53:51Z</time></trkpt><trkpt lat="45.0100793525733" lon="7.990844803571564"><ele>251.66666666666666</ele><time>2026-04-11T10:53:53Z</time></trkpt><trkpt lat="45.010167022667986" lon="7.990841226514648"><ele>252.0</ele><time>2026-04-11T10:53:56Z</time></trkpt><trkpt lat="45.01027379931374" lon="7.990805263739636"><ele>252.0</ele><time>2026-04-11T10:54:00Z</time></trkpt><trkpt lat="45.01035945980605" lon="7.990837220190648"><ele>252.0</ele><time>2026-04-11T10:54:05Z</time></trkpt><trkpt lat="45.01038941118235" lon="7.990951031911531"><ele>252.0</ele><time>2026-04-11T10:54:09Z</time></trkpt><trkpt lat="45.01033731211148" lon="7.991027381050253"><ele>252.0</ele><time>2026-04-11T10:54:15Z</time></trkpt><trkpt lat="45.01023497256329" lon="7.991049639611552"><ele>252.0</ele><time>2026-04-11T10:54:18Z</time></trkpt><trkpt lat="45.01014504100534" lon="7.991084165356568"><ele>252.0</ele><time>2026-04-11T10:54:20Z</time></trkpt><trkpt lat="45.01007716275746" lon="7.991098362205552"><ele>250.16666666666666</ele><time>2026-04-11T10:54:22Z</time></trkpt><trkpt lat="45.00999352225235" lon="7.991116118434934"><ele>248.33333333333331</ele><time>2026-04-11T10:54:25Z</time></trkpt><trkpt lat="45.009916240639384" lon="7.991121644250301"><ele>246.5</ele><time>2026-04-11T10:54:28Z</time></trkpt><trkpt lat="45.00984982774244" lon="7.9911116273781335"><ele>244.66666666666666</ele><time>2026-04-11T10:54:31Z</time></trkpt><trkpt lat="45.0097733829638" lon="7.991153525693668"><ele>242.83333333333331</ele><time>2026-04-11T10:54:35Z</time></trkpt><trkpt lat="45.009686357411255" lon="7.991161173521228"><ele>241.0</ele><time>2026-04-11T10:55:47.999Z</time></trkpt><trkpt lat="45.00961540874845" lon="7.991205465742783"><ele>240.0</ele><time>2026-04-11T10:55:53.999Z</time></trkpt><trkpt lat="45.009544086435746" lon="7.991192281122055"><ele>239.00000000000003</ele><time>2026-04-11T10:55:56Z</time></trkpt><trkpt lat="45.009442540307354" lon="7.991159314750629"><ele>238.00000000000003</ele><time>2026-04-11T10:55:58Z</time></trkpt><trkpt lat="45.00934293090022" lon="7.99112494845007"><ele>237.0</ele><time>2026-04-11T10:56:00Z</time></trkpt><trkpt lat="45.00923417376195" lon="7.991085247943257"><ele>236.0</ele><time>2026-04-11T10:56:02Z</time></trkpt><trkpt lat="45.009141662391606" lon="7.991054112452776"><ele>233.8</ele><time>2026-04-11T10:56:04Z</time></trkpt><trkpt lat="45.00904621354284" lon="7.991016836263178"><ele>231.60000000000002</ele><time>2026-04-11T10:56:06Z</time></trkpt><trkpt lat="45.00896186352506" lon="7.9909823404393485"><ele>229.4</ele><time>2026-04-11T10:56:08Z</time></trkpt><trkpt lat="45.0088817019302" lon="7.990952688460646"><ele>227.2</ele><time>2026-04-11T10:56:10Z</time></trkpt><trkpt lat="45.008786960751735" lon="7.9909230698019975"><ele>225.0</ele><time>2026-04-11T10:56:12Z</time></trkpt><trkpt lat="45.00870414389156" lon="7.9908902007404565"><ele>225.0</ele><time>2026-04-11T10:56:14Z</time></trkpt><trkpt lat="45.0086074090819" lon="7.990847484237632"><ele>225.0</ele><time>2026-04-11T10:56:16Z</time></trkpt><trkpt lat="45.00852673159371" lon="7.990829557454559"><ele>225.0</ele><time>2026-04-11T10:56:18Z</time></trkpt><trkpt lat="45.00843846322751" lon="7.990794724536146"><ele>225.0</ele><time>2026-04-11T10:56:20Z</time></trkpt><trkpt lat="45.008356054225416" lon="7.990753308388069"><ele>225.0</ele><time>2026-04-11T10:56:22Z</time></trkpt><trkpt lat="45.00825478136241" lon="7.990714570312019"><ele>225.4</ele><time>2026-04-11T10:56:24Z</time></trkpt><trkpt lat="45.00815197416565" lon="7.9906600036962665"><ele>225.8</ele><time>2026-04-11T10:56:26Z</time></trkpt><trkpt lat="45.00806427920739" lon="7.9905987168505686"><ele>226.2</ele><time>2026-04-11T10:56:28Z</time></trkpt><trkpt lat="45.007994600757385" lon="7.990530526323441"><ele>226.6</ele><time>2026-04-11T10:56:30Z</time></trkpt><trkpt lat="45.00795675709297" lon="7.990436379073033"><ele>227.0</ele><time>2026-04-11T10:56:32Z</time></trkpt><trkpt lat="45.00790454219404" lon="7.990310022897914"><ele>227.0</ele><time>2026-04-11T10:56:34Z</time></trkpt><trkpt lat="45.0078197197647" lon="7.990188730794245"><ele>227.0</ele><time>2026-04-11T10:56:36Z</time></trkpt><trkpt lat="45.00773263518904" lon="7.990088939019312"><ele>227.0</ele><time>2026-04-11T10:56:38Z</time></trkpt><trkpt lat="45.00765244993331" lon="7.990026857094306"><ele>227.0</ele><time>2026-04-11T10:56:40Z</time></trkpt><trkpt lat="45.007571999003005" lon="7.989948838430163"><ele>227.0</ele><time>2026-04-11T10:56:42Z</time></trkpt><trkpt lat="45.00751712065383" lon="7.989868566165945"><ele>225.8</ele><time>2026-04-11T10:56:44Z</time></trkpt><trkpt lat="45.00744226018994" lon="7.989829949001275"><ele>224.6</ele><time>2026-04-11T10:56:46Z</time></trkpt><trkpt lat="45.00737380526053" lon="7.989758269896126"><ele>223.40000000000003</ele><time>2026-04-11T10:56:48Z</time></trkpt><trkpt lat="45.00731183417923" lon="7.98970271657722"><ele>222.20000000000002</ele><time>2026-04-11T10:56:50Z</time></trkpt><trkpt lat="45.007197598927625" lon="7.98962738440885"><ele>221.0</ele><time>2026-04-11T10:56:52.999Z</time></trkpt><trkpt lat="45.00711435586176" lon="7.989563517469426"><ele>221.0</ele><time>2026-04-11T10:56:55.999Z</time></trkpt><trkpt lat="45.00705229919363" lon="7.989468418887742"><ele>221.00000000000003</ele><time>2026-04-11T10:56:57.999Z</time></trkpt><trkpt lat="45.00697693710958" lon="7.989371769300893"><ele>221.00000000000003</ele><time>2026-04-11T10:56:59.999Z</time></trkpt><trkpt lat="45.0069123677465" lon="7.989302030020291"><ele>221.0</ele><time>2026-04-11T10:57:01.999Z</time></trkpt><trkpt lat="45.00681306479573" lon="7.989220256003252"><ele>221.0</ele><time>2026-04-11T10:57:03.999Z</time></trkpt><trkpt lat="45.006751502188706" lon="7.989123083729428"><ele>221.50000000000003</ele><time>2026-04-11T10:57:05.999Z</time></trkpt><trkpt lat="45.00670129356052" lon="7.989067942192163"><ele>222.0</ele><time>2026-04-11T10:57:07.999Z</time></trkpt><trkpt lat="45.00664448829389" lon="7.988984206450252"><ele>222.5</ele><time>2026-04-11T10:57:09.999Z</time></trkpt><trkpt lat="45.00659120196012" lon="7.988929693273711"><ele>223.0</ele><time>2026-04-11T10:57:11.999Z</time></trkpt><trkpt lat="45.00652890411234" lon="7.988872363508091"><ele>223.50000000000003</ele><time>2026-04-11T10:57:13.999Z</time></trkpt><trkpt lat="45.00646940526738" lon="7.988833140532778"><ele>224.0</ele><time>2026-04-11T10:57:14.999Z</time></trkpt><trkpt lat="45.00634206309533" lon="7.988817689000059"><ele>224.00000000000003</ele><time>2026-04-11T10:57:16.999Z</time></trkpt><trkpt lat="45.00627177842287" lon="7.988807600684009"><ele>224.0</ele><time>2026-04-11T10:57:17.999Z</time></trkpt><trkpt lat="45.006197399248755" lon="7.988798063570739"><ele>224.0</ele><time>2026-04-11T10:57:18.999Z</time></trkpt><trkpt lat="45.0061326303355" lon="7.988782885282207"><ele>224.0</ele><time>2026-04-11T10:57:19.999Z</time></trkpt><trkpt lat="45.006008100943916" lon="7.988728280606577"><ele>224.00000000000003</ele><time>2026-04-11T10:57:21.999Z</time></trkpt><trkpt lat="45.00593684269162" lon="7.988703196195616"><ele>224.0</ele><time>2026-04-11T10:57:22.999Z</time></trkpt><trkpt lat="45.00587272270398" lon="7.988673274525668"><ele>222.16666666666669</ele><time>2026-04-11T10:57:23.999Z</time></trkpt><trkpt lat="45.00580552819754" lon="7.988637834900671"><ele>220.33333333333334</ele><time>2026-04-11T10:57:24.999Z</time></trkpt><trkpt lat="45.00574073851715" lon="7.988604546563239"><ele>218.5</ele><time>2026-04-11T10:57:25.999Z</time></trkpt><trkpt lat="45.00564151946771" lon="7.9885701215933"><ele>216.66666666666669</ele><time>2026-04-11T10:57:27.999Z</time></trkpt><trkpt lat="45.00555352822405" lon="7.988516543896273"><ele>214.83333333333334</ele><time>2026-04-11T10:57:29.999Z</time></trkpt><trkpt lat="45.00549971906561" lon="7.98858851259275"><ele>213.0</ele><time>2026-04-11T10:57:32.999Z</time></trkpt><trkpt lat="45.005537906300404" lon="7.988686158367227"><ele>213.0</ele><time>2026-04-11T10:57:34.999Z</time></trkpt><trkpt lat="45.00561285580826" lon="7.988744004868435"><ele>213.0</ele><time>2026-04-11T10:57:36.999Z</time></trkpt><trkpt lat="45.005672614071464" lon="7.988808322555205"><ele>213.0</ele><time>2026-04-11T10:57:38.999Z</time></trkpt><trkpt lat="45.00573502818804" lon="7.988895776485869"><ele>213.0</ele><time>2026-04-11T10:57:41.999Z</time></trkpt><trkpt lat="45.00578756387761" lon="7.988982163255343"><ele>213.0</ele><time>2026-04-11T10:57:43.999Z</time></trkpt><trkpt lat="45.005843556820096" lon="7.989059910453569"><ele>213.0</ele><time>2026-04-11T10:57:45.999Z</time></trkpt><trkpt lat="45.00591643103934" lon="7.989110396654617"><ele>213.0</ele><time>2026-04-11T10:57:47.999Z</time></trkpt><trkpt lat="45.00592046854194" lon="7.989211786082219"><ele>213.0</ele><time>2026-04-11T10:57:50.999Z</time></trkpt><trkpt lat="45.00584168877469" lon="7.989193884701152"><ele>213.0</ele><time>2026-04-11T10:57:53.999Z</time></trkpt><trkpt lat="45.00578400790986" lon="7.98913616535075"><ele>213.0</ele><time>2026-04-11T10:57:55.999Z</time></trkpt><trkpt lat="45.00572059494427" lon="7.989087665938195"><ele>213.0</ele><time>2026-04-11T10:57:57.999Z</time></trkpt><trkpt lat="45.005653481676184" lon="7.989038844168079"><ele>213.0</ele><time>2026-04-11T10:57:59.999Z</time></trkpt><trkpt lat="45.00557610426225" lon="7.9889951691892325"><ele>213.0</ele><time>2026-04-11T10:58:02Z</time></trkpt><trkpt lat="45.005504379727" lon="7.988941464143062"><ele>213.0</ele><time>2026-04-11T10:58:04Z</time></trkpt><trkpt lat="45.0054305268523" lon="7.988886460879087"><ele>213.0</ele><time>2026-04-11T10:58:06Z</time></trkpt><trkpt lat="45.00536136591333" lon="7.988811773588257"><ele>213.0</ele><time>2026-04-11T10:58:08Z</time></trkpt><trkpt lat="45.00529641315899" lon="7.988720957559331"><ele>213.0</ele><time>2026-04-11T10:58:10Z</time></trkpt><trkpt lat="45.005225295563" lon="7.9886428697706116"><ele>213.0</ele><time>2026-04-11T10:58:12Z</time></trkpt><trkpt lat="45.00515541519952" lon="7.988563269734959"><ele>213.0</ele><time>2026-04-11T10:58:14Z</time></trkpt><trkpt lat="45.00507445015725" lon="7.988487399187521"><ele>213.0</ele><time>2026-04-11T10:58:16Z</time></trkpt><trkpt lat="45.00499494962124" lon="7.988403587159746"><ele>213.0</ele><time>2026-04-11T10:58:18Z</time></trkpt><trkpt lat="45.00493276305295" lon="7.988323240081072"><ele>213.0</ele><time>2026-04-11T10:58:20Z</time></trkpt><trkpt lat="45.004871306224835" lon="7.988271660652794"><ele>213.0</ele><time>2026-04-11T10:58:22Z</time></trkpt><trkpt lat="45.00481205893859" lon="7.988201431134943"><ele>213.0</ele><time>2026-04-11T10:58:24Z</time></trkpt><trkpt lat="45.00474322633042" lon="7.988140529083421"><ele>213.28571428571428</ele><time>2026-04-11T10:58:27Z</time></trkpt><trkpt lat="45.00466938427663" lon="7.988098506833476"><ele>213.57142857142856</ele><time>2026-04-11T10:58:30Z</time></trkpt><trkpt lat="45.004606029867524" lon="7.9880987793046625"><ele>213.85714285714283</ele><time>2026-04-11T10:58:33Z</time></trkpt><trkpt lat="45.00456194323447" lon="7.988171778783089"><ele>214.14285714285714</ele><time>2026-04-11T10:58:35Z</time></trkpt><trkpt lat="45.00453035111461" lon="7.988258256852519"><ele>214.42857142857144</ele><time>2026-04-11T10:58:37Z</time></trkpt><trkpt lat="45.00448906968942" lon="7.988342132320597"><ele>214.7142857142857</ele><time>2026-04-11T10:58:39Z</time></trkpt><trkpt lat="45.00445025627702" lon="7.988433609817253"><ele>215.0</ele><time>2026-04-11T10:58:41Z</time></trkpt><trkpt lat="45.004411884916" lon="7.988526846330689"><ele>215.00000000000003</ele><time>2026-04-11T10:58:43Z</time></trkpt><trkpt lat="45.004369023835366" lon="7.988619743434576"><ele>215.0</ele><time>2026-04-11T10:58:45Z</time></trkpt><trkpt lat="45.004332101813155" lon="7.988715024080201"><ele>215.0</ele><time>2026-04-11T10:58:47Z</time></trkpt><trkpt lat="45.0042916248232" lon="7.988804425409972"><ele>215.0</ele><time>2026-04-11T10:58:49Z</time></trkpt><trkpt lat="45.00425068640629" lon="7.9888957624728505"><ele>215.00000000000003</ele><time>2026-04-11T10:58:51Z</time></trkpt><trkpt lat="45.00421372648202" lon="7.988988106682316"><ele>215.0</ele><time>2026-04-11T10:58:53Z</time></trkpt><trkpt lat="45.004172938851724" lon="7.989075450141891"><ele>215.00000000000003</ele><time>2026-04-11T10:58:55Z</time></trkpt><trkpt lat="45.004135602254145" lon="7.989164421786427"><ele>215.0</ele><time>2026-04-11T10:58:57Z</time></trkpt><trkpt lat="45.00410523417269" lon="7.989242919981272"><ele>215.0</ele><time>2026-04-11T10:58:58.999Z</time></trkpt><trkpt lat="45.00405642736394" lon="7.989347438518552"><ele>215.0</ele><time>2026-04-11T10:59:01.999Z</time></trkpt><trkpt lat="45.00400875622945" lon="7.98945397247269"><ele>215.00000000000003</ele><time>2026-04-11T10:59:04.999Z</time></trkpt><trkpt lat="45.003971165881204" lon="7.989533629828943"><ele>215.0</ele><time>2026-04-11T10:59:06.999Z</time></trkpt><trkpt lat="45.00392422553282" lon="7.98964335393882"><ele>215.00000000000003</ele><time>2026-04-11T10:59:09.999Z</time></trkpt><trkpt lat="45.00387761546769" lon="7.989747280822068"><ele>215.0</ele><time>2026-04-11T10:59:12.999Z</time></trkpt><trkpt lat="45.00383412692626" lon="7.989855931304303"><ele>215.0</ele><time>2026-04-11T10:59:15.999Z</time></trkpt><trkpt lat="45.003798848948094" lon="7.989933569952288"><ele>215.0</ele><time>2026-04-11T10:59:17.999Z</time></trkpt><trkpt lat="45.00375701735716" lon="7.990042268696259"><ele>215.00000000000003</ele><time>2026-04-11T10:59:20.999Z</time></trkpt><trkpt lat="45.00372070529537" lon="7.990159360948641"><ele>215.0</ele><time>2026-04-11T10:59:23.999Z</time></trkpt><trkpt lat="45.00368358227244" lon="7.990276957448331"><ele>216.00000000000003</ele><time>2026-04-11T10:59:26.999Z</time></trkpt><trkpt lat="45.00367217980965" lon="7.990367894083899"><ele>217.0</ele><time>2026-04-11T10:59:29.999Z</time></trkpt><trkpt lat="45.00365749776446" lon="7.990484077321426"><ele>218.0</ele><time>2026-04-11T10:59:32.999Z</time></trkpt><trkpt lat="45.00366136789611" lon="7.990599160554567"><ele>219.0</ele><time>2026-04-11T10:59:35.999Z</time></trkpt><trkpt lat="45.003656091509264" lon="7.990740883764586"><ele>220.00000000000003</ele><time>2026-04-11T10:59:38.999Z</time></trkpt><trkpt lat="45.00365213458529" lon="7.990854035860574"><ele>221.0</ele><time>2026-04-11T10:59:41.999Z</time></trkpt><trkpt lat="45.0036460437541" lon="7.990976735129038"><ele>221.33333333333334</ele><time>2026-04-11T10:59:44.999Z</time></trkpt><trkpt lat="45.003643710097165" lon="7.991079690011425"><ele>221.66666666666669</ele><time>2026-04-11T10:59:46.999Z</time></trkpt><trkpt lat="45.00364720247976" lon="7.991193962852715"><ele>222.0</ele><time>2026-04-11T10:59:49.999Z</time></trkpt><trkpt lat="45.00364419902211" lon="7.991309674498584"><ele>222.33333333333331</ele><time>2026-04-11T10:59:52.999Z</time></trkpt><trkpt lat="45.00364124606795" lon="7.991427784602023"><ele>222.66666666666666</ele><time>2026-04-11T10:59:55.999Z</time></trkpt><trkpt lat="45.00364509533745" lon="7.991520577970908"><ele>223.0</ele><time>2026-04-11T10:59:57.999Z</time></trkpt><trkpt lat="45.00365456907838" lon="7.991643102217898"><ele>222.99999999999997</ele><time>2026-04-11T11:00:01.999Z</time></trkpt><trkpt lat="45.00367747074128" lon="7.991750059231077"><ele>223.0</ele><time>2026-04-11T11:00:04.999Z</time></trkpt><trkpt lat="45.003717892830956" lon="7.991866510724126"><ele>223.0</ele><time>2026-04-11T11:00:08Z</time></trkpt><trkpt lat="45.00377507077191" lon="7.9919413091926"><ele>223.0</ele><time>2026-04-11T11:00:11Z</time></trkpt><trkpt lat="45.00383695833633" lon="7.992006476987863"><ele>222.99999999999997</ele><time>2026-04-11T11:00:14Z</time></trkpt><trkpt lat="45.00390081768001" lon="7.99204915393867"><ele>223.0</ele><time>2026-04-11T11:00:16Z</time></trkpt><trkpt lat="45.00396608996292" lon="7.992099595662016"><ele>223.0</ele><time>2026-04-11T11:00:18Z</time></trkpt><trkpt lat="45.00402485936904" lon="7.992151137168769"><ele>223.0</ele><time>2026-04-11T11:00:21Z</time></trkpt><trkpt lat="45.00409234904623" lon="7.992237033888919"><ele>223.0</ele><time>2026-04-11T11:00:23Z</time></trkpt><trkpt lat="45.004146595007796" lon="7.992305094705755"><ele>223.0</ele><time>2026-04-11T11:00:25Z</time></trkpt><trkpt lat="45.00416596268676" lon="7.992403085448246"><ele>223.0</ele><time>2026-04-11T11:00:27Z</time></trkpt><trkpt lat="45.004154292761015" lon="7.992512075458246"><ele>223.0</ele><time>2026-04-11T11:00:29Z</time></trkpt><trkpt lat="45.00414120359958" lon="7.992603547497169"><ele>223.0</ele><time>2026-04-11T11:00:31Z</time></trkpt><trkpt lat="45.004131251871186" lon="7.992693280921402"><ele>223.49999999999997</ele><time>2026-04-11T11:00:33Z</time></trkpt><trkpt lat="45.00415138211301" lon="7.992810604706311"><ele>224.0</ele><time>2026-04-11T11:00:35Z</time></trkpt><trkpt lat="45.00418286997609" lon="7.992890623147945"><ele>224.5</ele><time>2026-04-11T11:00:38Z</time></trkpt><trkpt lat="45.00422501120684" lon="7.992978623019806"><ele>225.0</ele><time>2026-04-11T11:00:40Z</time></trkpt><trkpt lat="45.00427945347384" lon="7.9930736031107115"><ele>225.49999999999997</ele><time>2026-04-11T11:00:42Z</time></trkpt><trkpt lat="45.004326587903456" lon="7.99317612831572"><ele>226.0</ele><time>2026-04-11T11:00:44Z</time></trkpt><trkpt lat="45.00436229069373" lon="7.993254179215569"><ele>227.28571428571428</ele><time>2026-04-11T11:00:46Z</time></trkpt><trkpt lat="45.00440054790032" lon="7.993330098033828"><ele>228.57142857142856</ele><time>2026-04-11T11:00:48Z</time></trkpt><trkpt lat="45.004436123785375" lon="7.993412339234319"><ele>229.85714285714283</ele><time>2026-04-11T11:00:50Z</time></trkpt><trkpt lat="45.00447041419838" lon="7.993505277308789"><ele>231.14285714285714</ele><time>2026-04-11T11:00:52Z</time></trkpt><trkpt lat="45.00449620027297" lon="7.993587390246995"><ele>232.4285714285714</ele><time>2026-04-11T11:00:54Z</time></trkpt><trkpt lat="45.00450448794362" lon="7.993693059014159"><ele>233.7142857142857</ele><time>2026-04-11T11:00:56Z</time></trkpt><trkpt lat="45.00451110490535" lon="7.993822900040455"><ele>235.0</ele><time>2026-04-11T11:00:59Z</time></trkpt><trkpt lat="45.00450585851695" lon="7.993914825024457"><ele>235.83333333333331</ele><time>2026-04-11T11:01:01Z</time></trkpt><trkpt lat="45.004496684111864" lon="7.994047161507461"><ele>236.66666666666666</ele><time>2026-04-11T11:01:04Z</time></trkpt><trkpt lat="45.0044938201113" lon="7.994138790218807"><ele>237.5</ele><time>2026-04-11T11:01:06Z</time></trkpt><trkpt lat="45.0044945963742" lon="7.994235334117963"><ele>238.33333333333331</ele><time>2026-04-11T11:01:08Z</time></trkpt><trkpt lat="45.00448817506248" lon="7.99436147054345"><ele>239.16666666666666</ele><time>2026-04-11T11:01:10.999Z</time></trkpt><trkpt lat="45.00448140673669" lon="7.994456816522178"><ele>240.0</ele><time>2026-04-11T11:01:12.999Z</time></trkpt><trkpt lat="45.00449197141064" lon="7.994571520017242"><ele>241.16666666666666</ele><time>2026-04-11T11:01:14.999Z</time></trkpt><trkpt lat="45.00447349605931" lon="7.9946787500635885"><ele>242.33333333333331</ele><time>2026-04-11T11:01:16.999Z</time></trkpt><trkpt lat="45.00446775782859" lon="7.994785992805831"><ele>243.5</ele><time>2026-04-11T11:01:18.999Z</time></trkpt><trkpt lat="45.00448442894096" lon="7.994884584604547"><ele>244.66666666666666</ele><time>2026-04-11T11:01:20.999Z</time></trkpt><trkpt lat="45.004482305792216" lon="7.994995372454135"><ele>245.83333333333331</ele><time>2026-04-11T11:01:22.999Z</time></trkpt><trkpt lat="45.00446716727946" lon="7.995103961439298"><ele>247.0</ele><time>2026-04-11T11:01:24.999Z</time></trkpt><trkpt lat="45.00445905863441" lon="7.995216125230855"><ele>247.33333333333331</ele><time>2026-04-11T11:01:26.999Z</time></trkpt><trkpt lat="45.00442029992537" lon="7.995328386494655"><ele>247.66666666666666</ele><time>2026-04-11T11:01:28.999Z</time></trkpt><trkpt lat="45.0043630793911" lon="7.995401402523961"><ele>248.0</ele><time>2026-04-11T11:01:30.999Z</time></trkpt><trkpt lat="45.00429628119708" lon="7.99543563309812"><ele>248.33333333333331</ele><time>2026-04-11T11:01:32.999Z</time></trkpt><trkpt lat="45.004219977238336" lon="7.995440966174812"><ele>248.66666666666666</ele><time>2026-04-11T11:01:34.999Z</time></trkpt><trkpt lat="45.004150951093735" lon="7.995454021535738"><ele>249.0</ele><time>2026-04-11T11:01:36.999Z</time></trkpt><trkpt lat="45.00407357241176" lon="7.995450962527069"><ele>249.0</ele><time>2026-04-11T11:01:38.999Z</time></trkpt><trkpt lat="45.00400144302179" lon="7.995459923477874"><ele>249.0</ele><time>2026-04-11T11:01:40.999Z</time></trkpt><trkpt lat="45.00392740304338" lon="7.99546107555718"><ele>249.0</ele><time>2026-04-11T11:01:42.999Z</time></trkpt><trkpt lat="45.00384726541906" lon="7.99547295880364"><ele>249.0</ele><time>2026-04-11T11:01:44.999Z</time></trkpt><trkpt lat="45.0037714112379" lon="7.995509573130026"><ele>249.0</ele><time>2026-04-11T11:01:46.999Z</time></trkpt><trkpt lat="45.00369376951623" lon="7.995566905253598"><ele>249.0</ele><time>2026-04-11T11:01:48.999Z</time></trkpt><trkpt lat="45.0036286628224" lon="7.995640053878821"><ele>249.0</ele><time>2026-04-11T11:01:50.999Z</time></trkpt><trkpt lat="45.00358454111165" lon="7.995720886731787"><ele>249.0</ele><time>2026-04-11T11:01:52.999Z</time></trkpt><trkpt lat="45.003530278846256" lon="7.99581724732585"><ele>249.0</ele><time>2026-04-11T11:01:54.999Z</time></trkpt><trkpt lat="45.00347819636544" lon="7.99591298432588"><ele>249.0</ele><time>2026-04-11T11:01:56.999Z</time></trkpt><trkpt lat="45.00342549767463" lon="7.996009276437772"><ele>249.0</ele><time>2026-04-11T11:01:58.999Z</time></trkpt><trkpt lat="45.00337981203662" lon="7.9960975464964354"><ele>249.0</ele><time>2026-04-11T11:02:00.999Z</time></trkpt><trkpt lat="45.00332810063034" lon="7.996191855419535"><ele>249.83333333333334</ele><time>2026-04-11T11:02:02.999Z</time></trkpt><trkpt lat="45.003278030153275" lon="7.9962906642180736"><ele>250.66666666666669</ele><time>2026-04-11T11:02:04.999Z</time></trkpt><trkpt lat="45.00323092750758" lon="7.996377479733916"><ele>251.5</ele><time>2026-04-11T11:02:06.999Z</time></trkpt><trkpt lat="45.00318512881174" lon="7.996463611470896"><ele>252.33333333333334</ele><time>2026-04-11T11:02:08.999Z</time></trkpt><trkpt lat="45.00315022271684" lon="7.99654921203339"><ele>253.16666666666669</ele><time>2026-04-11T11:02:10.999Z</time></trkpt><trkpt lat="45.00311393787075" lon="7.996647087553143"><ele>254.0</ele><time>2026-04-11T11:02:13Z</time></trkpt><trkpt lat="45.00312122940507" lon="7.996765602435107"><ele>254.0</ele><time>2026-04-11T11:02:15Z</time></trkpt><trkpt lat="45.00321133951301" lon="7.996851052730926"><ele>253.99999999999997</ele><time>2026-04-11T11:02:17Z</time></trkpt><trkpt lat="45.00330289155201" lon="7.996891480724139"><ele>253.99999999999997</ele><time>2026-04-11T11:02:19Z</time></trkpt><trkpt lat="45.0033876925676" lon="7.996947792035463"><ele>254.0</ele><time>2026-04-11T11:02:21Z</time></trkpt><trkpt lat="45.00346479688751" lon="7.997002387135025"><ele>254.0</ele><time>2026-04-11T11:02:23Z</time></trkpt><trkpt lat="45.00354000118951" lon="7.997072637557458"><ele>253.33333333333334</ele><time>2026-04-11T11:02:25Z</time></trkpt><trkpt lat="45.00360431793124" lon="7.997151225981447"><ele>252.66666666666669</ele><time>2026-04-11T11:02:27Z</time></trkpt><trkpt lat="45.00366690478789" lon="7.997226871993945"><ele>252.0</ele><time>2026-04-11T11:02:29Z</time></trkpt><trkpt lat="45.003725499164055" lon="7.997297968977409"><ele>251.33333333333331</ele><time>2026-04-11T11:02:31Z</time></trkpt><trkpt lat="45.00378086326249" lon="7.997367133080696"><ele>250.66666666666666</ele><time>2026-04-11T11:02:33Z</time></trkpt><trkpt lat="45.00383992796215" lon="7.997441879524587"><ele>250.0</ele><time>2026-04-11T11:02:35Z</time></trkpt><trkpt lat="45.00389033018964" lon="7.99751019980685"><ele>247.8</ele><time>2026-04-11T11:02:37Z</time></trkpt><trkpt lat="45.0039617407417" lon="7.997599964955447"><ele>245.6</ele><time>2026-04-11T11:02:40Z</time></trkpt><trkpt lat="45.00402756656194" lon="7.99766976217691"><ele>243.39999999999998</ele><time>2026-04-11T11:02:42Z</time></trkpt><trkpt lat="45.00410153678175" lon="7.99772341208445"><ele>241.2</ele><time>2026-04-11T11:02:44Z</time></trkpt><trkpt lat="45.004127925393846" lon="7.997849939817903"><ele>239.0</ele><time>2026-04-11T11:02:46Z</time></trkpt><trkpt lat="45.00415130119684" lon="7.997984897665628"><ele>239.00000000000003</ele><time>2026-04-11T11:02:48Z</time></trkpt><trkpt lat="45.00417577559159" lon="7.998149292570068"><ele>239.0</ele><time>2026-04-11T11:02:50Z</time></trkpt><trkpt lat="45.004178258903394" lon="7.998243275748534"><ele>239.0</ele><time>2026-04-11T11:02:51Z</time></trkpt><trkpt lat="45.00416868329569" lon="7.998347707292133"><ele>239.0</ele><time>2026-04-11T11:02:52Z</time></trkpt><trkpt lat="45.004147746422134" lon="7.998445104711786"><ele>239.00000000000003</ele><time>2026-04-11T11:02:53Z</time></trkpt><trkpt lat="45.00412633235902" lon="7.998549665172988"><ele>239.0</ele><time>2026-04-11T11:02:54Z</time></trkpt><trkpt lat="45.00409812812244" lon="7.998642884370736"><ele>239.00000000000003</ele><time>2026-04-11T11:02:55Z</time></trkpt><trkpt lat="45.00406765803619" lon="7.998741743163564"><ele>239.0</ele><time>2026-04-11T11:02:56Z</time></trkpt><trkpt lat="45.00404480306368" lon="7.998843699506954"><ele>239.0</ele><time>2026-04-11T11:02:57Z</time></trkpt><trkpt lat="45.00401129323706" lon="7.998952140018973"><ele>239.0</ele><time>2026-04-11T11:02:58Z</time></trkpt><trkpt lat="45.00399244220241" lon="7.9990569707553"><ele>239.00000000000003</ele><time>2026-04-11T11:02:59Z</time></trkpt><trkpt lat="45.00396578894025" lon="7.999167060905529"><ele>239.0</ele><time>2026-04-11T11:03:00Z</time></trkpt><trkpt lat="45.003937043242374" lon="7.9992711382074475"><ele>239.16666666666669</ele><time>2026-04-11T11:03:01Z</time></trkpt><trkpt lat="45.00391645998111" lon="7.999369717754009"><ele>239.33333333333334</ele><time>2026-04-11T11:03:02Z</time></trkpt><trkpt lat="45.00387732865703" lon="7.999472703060761"><ele>239.5</ele><time>2026-04-11T11:03:03Z</time></trkpt><trkpt lat="45.0038512584223" lon="7.999588430212775"><ele>239.66666666666669</ele><time>2026-04-11T11:03:04Z</time></trkpt><trkpt lat="45.003825800231716" lon="7.999716709122166"><ele>239.83333333333334</ele><time>2026-04-11T11:03:05Z</time></trkpt><trkpt lat="45.00379632760841" lon="7.999834809843277"><ele>240.0</ele><time>2026-04-11T11:03:06Z</time></trkpt><trkpt lat="45.00376168973999" lon="7.9999421198097345"><ele>240.0</ele><time>2026-04-11T11:03:07Z</time></trkpt><trkpt lat="45.00372343371603" lon="8.000052720407902"><ele>240.0</ele><time>2026-04-11T11:03:08Z</time></trkpt><trkpt lat="45.00370122909082" lon="8.000151629986219"><ele>240.0</ele><time>2026-04-11T11:03:08.999Z</time></trkpt><trkpt lat="45.00363701045274" lon="8.000262971537495"><ele>240.0</ele><time>2026-04-11T11:03:09.999Z</time></trkpt><trkpt lat="45.00360121576534" lon="8.000393783880757"><ele>240.0</ele><time>2026-04-11T11:03:10.999Z</time></trkpt><trkpt lat="45.003546748068786" lon="8.000513866940388"><ele>240.0</ele><time>2026-04-11T11:03:11.999Z</time></trkpt><trkpt lat="45.003474180016184" lon="8.000631317592214"><ele>240.0</ele><time>2026-04-11T11:03:12.999Z</time></trkpt><trkpt lat="45.00341044084809" lon="8.000744212892668"><ele>240.0</ele><time>2026-04-11T11:03:13.999Z</time></trkpt><trkpt lat="45.00334281493498" lon="8.00085166890628"><ele>240.0</ele><time>2026-04-11T11:03:14.999Z</time></trkpt><trkpt lat="45.00328120348765" lon="8.000970088347483"><ele>240.0</ele><time>2026-04-11T11:03:15.999Z</time></trkpt><trkpt lat="45.00320229703387" lon="8.00102120644321"><ele>237.16666666666666</ele><time>2026-04-11T11:03:16.999Z</time></trkpt><trkpt lat="45.003120759450276" lon="8.001065464627603"><ele>234.33333333333331</ele><time>2026-04-11T11:03:17.999Z</time></trkpt><trkpt lat="45.00303917517731" lon="8.001067799097143"><ele>231.5</ele><time>2026-04-11T11:03:18.999Z</time></trkpt><trkpt lat="45.00296429996375" lon="8.00099946107468"><ele>228.66666666666666</ele><time>2026-04-11T11:03:19.999Z</time></trkpt><trkpt lat="45.00295694527914" lon="8.000877433661547"><ele>225.83333333333331</ele><time>2026-04-11T11:03:20.999Z</time></trkpt><trkpt lat="45.00301288013902" lon="8.000800856748056"><ele>223.0</ele><time>2026-04-11T11:03:21.999Z</time></trkpt><trkpt lat="45.00304155034582" lon="8.000683354956934"><ele>222.4</ele><time>2026-04-11T11:03:22.999Z</time></trkpt><trkpt lat="45.00310298050319" lon="8.000597259498875"><ele>221.8</ele><time>2026-04-11T11:03:23.999Z</time></trkpt><trkpt lat="45.00313318339648" lon="8.000483851557584"><ele>221.2</ele><time>2026-04-11T11:03:24.999Z</time></trkpt><trkpt lat="45.003162874501136" lon="8.000356308858743"><ele>220.6</ele><time>2026-04-11T11:03:25.999Z</time></trkpt><trkpt lat="45.003148213074624" lon="8.000215100583086"><ele>220.0</ele><time>2026-04-11T11:03:26.999Z</time></trkpt><trkpt lat="45.00309767145309" lon="8.000083129811822"><ele>220.0</ele><time>2026-04-11T11:03:27.999Z</time></trkpt><trkpt lat="45.00301836989369" lon="7.999988674510558"><ele>220.0</ele><time>2026-04-11T11:03:28.999Z</time></trkpt><trkpt lat="45.002915470601096" lon="7.999939284103343"><ele>220.0</ele><time>2026-04-11T11:03:29.999Z</time></trkpt><trkpt lat="45.00279192043915" lon="7.999935964137075"><ele>220.0</ele><time>2026-04-11T11:03:30.999Z</time></trkpt><trkpt lat="45.00267003059354" lon="7.999973373808214"><ele>220.0</ele><time>2026-04-11T11:03:31.999Z</time></trkpt><trkpt lat="45.00255618059621" lon="8.000065708714484"><ele>220.0</ele><time>2026-04-11T11:03:32.999Z</time></trkpt><trkpt lat="45.00245774409087" lon="8.000194050512"><ele>220.0</ele><time>2026-04-11T11:03:33.999Z</time></trkpt><trkpt lat="45.00237516547934" lon="8.000350310068013"><ele>220.0</ele><time>2026-04-11T11:03:34.999Z</time></trkpt><trkpt lat="45.00229918414077" lon="8.000519786347018"><ele>218.5</ele><time>2026-04-11T11:03:35.999Z</time></trkpt><trkpt lat="45.00221735559896" lon="8.000690889886753"><ele>217.0</ele><time>2026-04-11T11:03:36.999Z</time></trkpt><trkpt lat="45.00213202265611" lon="8.000852129858698"><ele>215.5</ele><time>2026-04-11T11:03:37.999Z</time></trkpt><trkpt lat="45.00206168197547" lon="8.001009974662994"><ele>214.0</ele><time>2026-04-11T11:03:38.999Z</time></trkpt><trkpt lat="45.00199915238532" lon="8.001166682967616"><ele>214.0</ele><time>2026-04-11T11:03:39.999Z</time></trkpt><trkpt lat="45.0019703548831" lon="8.001312320040313"><ele>214.0</ele><time>2026-04-11T11:03:40.999Z</time></trkpt><trkpt lat="45.00198112438856" lon="8.001495083850868"><ele>214.0</ele><time>2026-04-11T11:03:41.999Z</time></trkpt><trkpt lat="45.002018708615424" lon="8.001683982419078"><ele>214.0</ele><time>2026-04-11T11:03:42.999Z</time></trkpt><trkpt lat="45.00206120449272" lon="8.001866970075977"><ele>214.0</ele><time>2026-04-11T11:03:43.999Z</time></trkpt><trkpt lat="45.002106527356034" lon="8.002055857653247"><ele>214.0</ele><time>2026-04-11T11:03:44.999Z</time></trkpt><trkpt lat="45.002151502291866" lon="8.002246476122588"><ele>214.0</ele><time>2026-04-11T11:03:45.999Z</time></trkpt><trkpt lat="45.00219516933513" lon="8.002439045437578"><ele>214.0</ele><time>2026-04-11T11:03:46.999Z</time></trkpt><trkpt lat="45.00224390487433" lon="8.002653516186845"><ele>214.0</ele><time>2026-04-11T11:03:47.999Z</time></trkpt><trkpt lat="45.00229224567573" lon="8.002854074352419"><ele>214.0</ele><time>2026-04-11T11:03:48.999Z</time></trkpt><trkpt lat="45.002357376091965" lon="8.003053725766156"><ele>214.0</ele><time>2026-04-11T11:03:49.999Z</time></trkpt><trkpt lat="45.00240655080786" lon="8.003260912912937"><ele>214.75</ele><time>2026-04-11T11:03:50.999Z</time></trkpt><trkpt lat="45.00245901630292" lon="8.003453205591901"><ele>215.5</ele><time>2026-04-11T11:03:51.999Z</time></trkpt><trkpt lat="45.00250753753956" lon="8.003646823894588"><ele>216.25</ele><time>2026-04-11T11:03:52.999Z</time></trkpt><trkpt lat="45.00254191084504" lon="8.003843731098573"><ele>217.0</ele><time>2026-04-11T11:03:53.999Z</time></trkpt><trkpt lat="45.00258950398991" lon="8.00403019190835"><ele>212.75</ele><time>2026-04-11T11:03:54.999Z</time></trkpt><trkpt lat="45.00263503720873" lon="8.004207756401737"><ele>208.5</ele><time>2026-04-11T11:03:55.999Z</time></trkpt><trkpt lat="45.00269414550177" lon="8.004375609684304"><ele>204.25</ele><time>2026-04-11T11:03:56.999Z</time></trkpt><trkpt lat="45.00272676450347" lon="8.004545446002002"><ele>200.0</ele><time>2026-04-11T11:03:57.999Z</time></trkpt><trkpt lat="45.002763038028164" lon="8.004678996292114"><ele>200.0</ele><time>2026-04-11T11:03:58.999Z</time></trkpt><trkpt lat="45.00279384444749" lon="8.004802465134139"><ele>200.0</ele><time>2026-04-11T11:03:59.999Z</time></trkpt><trkpt lat="45.00282405995413" lon="8.004933008766624"><ele>200.0</ele><time>2026-04-11T11:04:00.999Z</time></trkpt><trkpt lat="45.00285913092478" lon="8.005062254373494"><ele>200.0</ele><time>2026-04-11T11:04:01.999Z</time></trkpt><trkpt lat="45.00289354116823" lon="8.00518192584367"><ele>200.0</ele><time>2026-04-11T11:04:02.999Z</time></trkpt><trkpt lat="45.00292598855645" lon="8.005303403356208"><ele>199.00000000000003</ele><time>2026-04-11T11:04:03.999Z</time></trkpt><trkpt lat="45.00295711219386" lon="8.005418220222355"><ele>198.0</ele><time>2026-04-11T11:04:04.999Z</time></trkpt><trkpt lat="45.00298850581551" lon="8.00553668836936"><ele>197.0</ele><time>2026-04-11T11:04:05.999Z</time></trkpt><trkpt lat="45.00301376476903" lon="8.005647844248003"><ele>196.0</ele><time>2026-04-11T11:04:06.999Z</time></trkpt><trkpt lat="45.0030394104686" lon="8.005752643348222"><ele>195.00000000000003</ele><time>2026-04-11T11:04:07.999Z</time></trkpt><trkpt lat="45.003065824264105" lon="8.005856960241472"><ele>194.0</ele><time>2026-04-11T11:04:08.999Z</time></trkpt><trkpt lat="45.00308484516921" lon="8.005959731752323"><ele>193.83333333333334</ele><time>2026-04-11T11:04:09.999Z</time></trkpt><trkpt lat="45.00308530354994" lon="8.006065826143564"><ele>193.66666666666669</ele><time>2026-04-11T11:04:10.999Z</time></trkpt><trkpt lat="45.00306784546484" lon="8.006169554065169"><ele>193.5</ele><time>2026-04-11T11:04:11.999Z</time></trkpt><trkpt lat="45.003030201834065" lon="8.006267027211216"><ele>193.33333333333331</ele><time>2026-04-11T11:04:12.999Z</time></trkpt><trkpt lat="45.00297718845447" lon="8.006345454842148"><ele>193.16666666666666</ele><time>2026-04-11T11:04:13.999Z</time></trkpt><trkpt lat="45.002906260053784" lon="8.006400074656769"><ele>193.0</ele><time>2026-04-11T11:04:14.999Z</time></trkpt><trkpt lat="45.002834601494754" lon="8.006459490768206"><ele>192.99999999999997</ele><time>2026-04-11T11:04:15.999Z</time></trkpt><trkpt lat="45.00275623452017" lon="8.006513008780837"><ele>193.0</ele><time>2026-04-11T11:04:16.999Z</time></trkpt><trkpt lat="45.002676839647656" lon="8.00657190506566"><ele>193.0</ele><time>2026-04-11T11:04:17.999Z</time></trkpt><trkpt lat="45.00259695365956" lon="8.00663285801298"><ele>193.0</ele><time>2026-04-11T11:04:19Z</time></trkpt><trkpt lat="45.00251760901166" lon="8.006692542528626"><ele>192.99999999999997</ele><time>2026-04-11T11:04:20Z</time></trkpt><trkpt lat="45.00243721349757" lon="8.00674654045574"><ele>193.0</ele><time>2026-04-11T11:04:21Z</time></trkpt><trkpt lat="45.00235949414645" lon="8.006807455110279"><ele>192.99999999999997</ele><time>2026-04-11T11:04:22Z</time></trkpt><trkpt lat="45.00228280503834" lon="8.006866651333787"><ele>193.0</ele><time>2026-04-11T11:04:23Z</time></trkpt><trkpt lat="45.00221234181762" lon="8.00693434333218"><ele>193.0</ele><time>2026-04-11T11:04:24Z</time></trkpt><trkpt lat="45.00213486590061" lon="8.006996773729826"><ele>193.0</ele><time>2026-04-11T11:04:25Z</time></trkpt><trkpt lat="45.00204976443048" lon="8.007045848760164"><ele>192.99999999999997</ele><time>2026-04-11T11:04:26Z</time></trkpt><trkpt lat="45.001972448499956" lon="8.00711039294833"><ele>193.0</ele><time>2026-04-11T11:04:27Z</time></trkpt><trkpt lat="45.00189189481979" lon="8.007167719470916"><ele>193.0</ele><time>2026-04-11T11:04:28Z</time></trkpt><trkpt lat="45.001816487097535" lon="8.007225195849559"><ele>193.0</ele><time>2026-04-11T11:04:29Z</time></trkpt><trkpt lat="45.00173821433658" lon="8.007285727773063"><ele>193.0</ele><time>2026-04-11T11:04:30Z</time></trkpt><trkpt lat="45.001660854191535" lon="8.007353923068328"><ele>193.0</ele><time>2026-04-11T11:04:31Z</time></trkpt><trkpt lat="45.00157993564919" lon="8.007423886744773"><ele>193.0</ele><time>2026-04-11T11:04:32Z</time></trkpt><trkpt lat="45.00149910995954" lon="8.007491725957989"><ele>194.2</ele><time>2026-04-11T11:04:33Z</time></trkpt><trkpt lat="45.001419436672116" lon="8.007568486714208"><ele>195.4</ele><time>2026-04-11T11:04:34Z</time></trkpt><trkpt lat="45.00133955495552" lon="8.00764462959727"><ele>196.6</ele><time>2026-04-11T11:04:35Z</time></trkpt><trkpt lat="45.00125954924344" lon="8.007722511525554"><ele>197.79999999999998</ele><time>2026-04-11T11:04:36Z</time></trkpt><trkpt lat="45.00118185086847" lon="8.007803642574958"><ele>199.0</ele><time>2026-04-11T11:04:37Z</time></trkpt><trkpt lat="45.00110250770069" lon="8.007878684654948"><ele>199.0</ele><time>2026-04-11T11:04:38Z</time></trkpt><trkpt lat="45.00102442458175" lon="8.00794653609988"><ele>199.0</ele><time>2026-04-11T11:04:39Z</time></trkpt><trkpt lat="45.00094737108135" lon="8.008016876476383"><ele>199.0</ele><time>2026-04-11T11:04:40Z</time></trkpt><trkpt lat="45.00086099797353" lon="8.008076046685805"><ele>199.0</ele><time>2026-04-11T11:04:41Z</time></trkpt><trkpt lat="45.000784316435414" lon="8.008128140347193"><ele>199.0</ele><time>2026-04-11T11:04:42Z</time></trkpt><trkpt lat="45.0006934633225" lon="8.008163945984428"><ele>198.28571428571428</ele><time>2026-04-11T11:04:43Z</time></trkpt><trkpt lat="45.00061315072713" lon="8.00818959049564"><ele>197.57142857142856</ele><time>2026-04-11T11:04:44Z</time></trkpt><trkpt lat="45.00053168922931" lon="8.008190690362953"><ele>196.85714285714283</ele><time>2026-04-11T11:04:45Z</time></trkpt><trkpt lat="45.000455562424534" lon="8.008183082158903"><ele>196.14285714285714</ele><time>2026-04-11T11:04:46Z</time></trkpt><trkpt lat="45.000381222124275" lon="8.00817556993942"><ele>195.42857142857144</ele><time>2026-04-11T11:04:47Z</time></trkpt><trkpt lat="45.00031477714777" lon="8.008172241839617"><ele>194.7142857142857</ele><time>2026-04-11T11:04:48Z</time></trkpt><trkpt lat="45.000250557096955" lon="8.008184739682292"><ele>194.0</ele><time>2026-04-11T11:04:49Z</time></trkpt><trkpt lat="45.00013457637149" lon="8.008282992992141"><ele>194.28571428571428</ele><time>2026-04-11T11:04:51Z</time></trkpt><trkpt lat="45.00008196506051" lon="8.008349550219252"><ele>194.57142857142858</ele><time>2026-04-11T11:04:52Z</time></trkpt><trkpt lat="45.000030078312705" lon="8.008415804301569"><ele>194.85714285714286</ele><time>2026-04-11T11:04:53Z</time></trkpt><trkpt lat="44.999982021722886" lon="8.00848601789429"><ele>195.14285714285714</ele><time>2026-04-11T11:04:54Z</time></trkpt><trkpt lat="44.999936526470826" lon="8.008554237352845"><ele>195.42857142857144</ele><time>2026-04-11T11:04:55Z</time></trkpt><trkpt lat="44.99989369449868" lon="8.00862635337049"><ele>195.71428571428572</ele><time>2026-04-11T11:04:56Z</time></trkpt><trkpt lat="44.99984866105642" lon="8.008700026888931"><ele>196.0</ele><time>2026-04-11T11:04:57Z</time></trkpt><trkpt lat="44.999806866756046" lon="8.008772576694978"><ele>195.99999999999997</ele><time>2026-04-11T11:04:58Z</time></trkpt><trkpt lat="44.99975948996056" lon="8.008848993438871"><ele>196.0</ele><time>2026-04-11T11:04:59Z</time></trkpt><trkpt lat="44.99971466873776" lon="8.008915979070458"><ele>196.0</ele><time>2026-04-11T11:05:00Z</time></trkpt><trkpt lat="44.999675530995006" lon="8.00898936285367"><ele>196.0</ele><time>2026-04-11T11:05:01Z</time></trkpt><trkpt lat="44.999637546596205" lon="8.009061083164086"><ele>195.99999999999997</ele><time>2026-04-11T11:05:02Z</time></trkpt><trkpt lat="44.999562685196075" lon="8.009196952266795"><ele>196.0</ele><time>2026-04-11T11:05:04Z</time></trkpt><trkpt lat="44.99952366613121" lon="8.00927027206028"><ele>196.28571428571428</ele><time>2026-04-11T11:05:05Z</time></trkpt><trkpt lat="44.99949138900045" lon="8.009352258169953"><ele>196.57142857142856</ele><time>2026-04-11T11:05:06Z</time></trkpt><trkpt lat="44.99945841264899" lon="8.0094326122819"><ele>196.85714285714286</ele><time>2026-04-11T11:05:07Z</time></trkpt><trkpt lat="44.99942721989967" lon="8.009514323906895"><ele>197.14285714285714</ele><time>2026-04-11T11:05:08Z</time></trkpt><trkpt lat="44.999395938125986" lon="8.00960225264062"><ele>197.42857142857142</ele><time>2026-04-11T11:05:09Z</time></trkpt><trkpt lat="44.99936461014107" lon="8.009689096661896"><ele>197.71428571428572</ele><time>2026-04-11T11:05:10Z</time></trkpt><trkpt lat="44.999333008782465" lon="8.00977501779513"><ele>198.0</ele><time>2026-04-11T11:05:11Z</time></trkpt><trkpt lat="44.99930232965957" lon="8.009862226628817"><ele>198.0</ele><time>2026-04-11T11:05:12Z</time></trkpt><trkpt lat="44.999271159375674" lon="8.009948660161683"><ele>198.0</ele><time>2026-04-11T11:05:13Z</time></trkpt><trkpt lat="44.99924172188025" lon="8.010037167067502"><ele>198.0</ele><time>2026-04-11T11:05:14Z</time></trkpt><trkpt lat="44.99921278298425" lon="8.010124967003703"><ele>198.0</ele><time>2026-04-11T11:05:15Z</time></trkpt><trkpt lat="44.999188148507955" lon="8.010216564006706"><ele>198.0</ele><time>2026-04-11T11:05:16Z</time></trkpt><trkpt lat="44.99916821089477" lon="8.010310401960533"><ele>198.0</ele><time>2026-04-11T11:05:17Z</time></trkpt><trkpt lat="44.9991534516647" lon="8.010405788154301"><ele>198.0</ele><time>2026-04-11T11:05:18Z</time></trkpt><trkpt lat="44.99914556890454" lon="8.0105030382478"><ele>198.4</ele><time>2026-04-11T11:05:19Z</time></trkpt><trkpt lat="44.9991433920528" lon="8.010596143780072"><ele>198.8</ele><time>2026-04-11T11:05:19.999Z</time></trkpt><trkpt lat="44.99915240247183" lon="8.01076657109722"><ele>199.2</ele><time>2026-04-11T11:05:21.999Z</time></trkpt><trkpt lat="44.99917391814105" lon="8.010931865800647"><ele>199.6</ele><time>2026-04-11T11:05:23.999Z</time></trkpt><trkpt lat="44.99920016635407" lon="8.011092280621739"><ele>200.0</ele><time>2026-04-11T11:05:25.999Z</time></trkpt><trkpt lat="44.99922857954822" lon="8.011245353011493"><ele>200.0</ele><time>2026-04-11T11:05:27.999Z</time></trkpt><trkpt lat="44.99923969041942" lon="8.011411983879814"><ele>200.0</ele><time>2026-04-11T11:05:29.999Z</time></trkpt><trkpt lat="44.99925819134285" lon="8.011578175701953"><ele>200.0</ele><time>2026-04-11T11:05:31.999Z</time></trkpt><trkpt lat="44.99926860097956" lon="8.011748893839583"><ele>200.0</ele><time>2026-04-11T11:05:33.999Z</time></trkpt><trkpt lat="44.99929171833357" lon="8.011916048005135"><ele>201.5</ele><time>2026-04-11T11:05:35.999Z</time></trkpt><trkpt lat="44.999290386947024" lon="8.012083602081153"><ele>203.0</ele><time>2026-04-11T11:05:37.999Z</time></trkpt><trkpt lat="44.999291130235484" lon="8.012253176909901"><ele>204.5</ele><time>2026-04-11T11:05:39.999Z</time></trkpt><trkpt lat="44.99929639923482" lon="8.0124307543893"><ele>206.0</ele><time>2026-04-11T11:05:41.999Z</time></trkpt><trkpt lat="44.99929559984155" lon="8.012606925854108"><ele>209.0</ele><time>2026-04-11T11:05:43.999Z</time></trkpt><trkpt lat="44.999300088484155" lon="8.012777359490242"><ele>212.0</ele><time>2026-04-11T11:05:45.999Z</time></trkpt><trkpt lat="44.99929989193097" lon="8.012942986992288"><ele>215.0</ele><time>2026-04-11T11:05:47.999Z</time></trkpt><trkpt lat="44.9993084208429" lon="8.013116547972926"><ele>218.0</ele><time>2026-04-11T11:05:49.999Z</time></trkpt><trkpt lat="44.99931835600538" lon="8.01327232852152"><ele>218.60000000000002</ele><time>2026-04-11T11:05:51.999Z</time></trkpt><trkpt lat="44.99933009137973" lon="8.01343608085726"><ele>219.20000000000002</ele><time>2026-04-11T11:05:53.999Z</time></trkpt><trkpt lat="44.9993312088278" lon="8.013580107720058"><ele>219.8</ele><time>2026-04-11T11:05:55.999Z</time></trkpt><trkpt lat="44.99929555525346" lon="8.013700027339008"><ele>220.4</ele><time>2026-04-11T11:05:57.999Z</time></trkpt><trkpt lat="44.99923720878085" lon="8.013779844153532"><ele>221.0</ele><time>2026-04-11T11:05:59.999Z</time></trkpt><trkpt lat="44.99916829341627" lon="8.013790512524087"><ele>217.0</ele><time>2026-04-11T11:06:02.999Z</time></trkpt><trkpt lat="44.99911062689212" lon="8.013749110270373"><ele>213.0</ele><time>2026-04-11T11:06:07.999Z</time></trkpt><trkpt lat="44.99904084819505" lon="8.014071463814162"><ele>209.0</ele><time>2026-04-11T11:06:23.999Z</time></trkpt><trkpt lat="44.99900498781236" lon="8.014185509581258"><ele>205.0</ele><time>2026-04-11T11:06:26Z</time></trkpt><trkpt lat="44.99896081145894" lon="8.01431849705352"><ele>205.0</ele><time>2026-04-11T11:06:28Z</time></trkpt><trkpt lat="44.99891700465014" lon="8.0144894346304"><ele>205.0</ele><time>2026-04-11T11:06:30Z</time></trkpt><trkpt lat="44.9988629028244" lon="8.014645845010783"><ele>205.0</ele><time>2026-04-11T11:06:32Z</time></trkpt><trkpt lat="44.99881840037357" lon="8.01480816256349"><ele>205.0</ele><time>2026-04-11T11:06:34Z</time></trkpt><trkpt lat="44.99878530524749" lon="8.014903472672415"><ele>204.2857142857143</ele><time>2026-04-11T11:06:35Z</time></trkpt><trkpt lat="44.998763254245304" lon="8.015003457605092"><ele>203.57142857142856</ele><time>2026-04-11T11:06:36Z</time></trkpt><trkpt lat="44.99875102994444" lon="8.015103393709733"><ele>202.85714285714286</ele><time>2026-04-11T11:06:37Z</time></trkpt><trkpt lat="44.99873299297434" lon="8.015193684505872"><ele>202.14285714285717</ele><time>2026-04-11T11:06:38Z</time></trkpt><trkpt lat="44.9987129663872" lon="8.015298278840229"><ele>201.42857142857144</ele><time>2026-04-11T11:06:39Z</time></trkpt><trkpt lat="44.99869416212523" lon="8.015407403749217"><ele>200.71428571428572</ele><time>2026-04-11T11:06:40Z</time></trkpt><trkpt lat="44.99867771327835" lon="8.015516270880267"><ele>200.0</ele><time>2026-04-11T11:06:41Z</time></trkpt><trkpt lat="44.99866013404368" lon="8.015622795537903"><ele>200.00000000000003</ele><time>2026-04-11T11:06:42Z</time></trkpt><trkpt lat="44.9986417597346" lon="8.015725291965648"><ele>200.0</ele><time>2026-04-11T11:06:43Z</time></trkpt><trkpt lat="44.998633964874934" lon="8.01582329182651"><ele>200.0</ele><time>2026-04-11T11:06:44Z</time></trkpt><trkpt lat="44.998624440912245" lon="8.015922397362203"><ele>200.0</ele><time>2026-04-11T11:06:45Z</time></trkpt><trkpt lat="44.9986362040015" lon="8.016020634307079"><ele>200.00000000000003</ele><time>2026-04-11T11:06:46Z</time></trkpt><trkpt lat="44.998632831971335" lon="8.01621411604262"><ele>200.0</ele><time>2026-04-11T11:06:48Z</time></trkpt><trkpt lat="44.99862905888224" lon="8.016317244790702"><ele>198.85714285714286</ele><time>2026-04-11T11:06:49Z</time></trkpt><trkpt lat="44.99862208234948" lon="8.016415987558343"><ele>197.71428571428572</ele><time>2026-04-11T11:06:50Z</time></trkpt><trkpt lat="44.99862208941401" lon="8.0165136964794"><ele>196.57142857142856</ele><time>2026-04-11T11:06:51Z</time></trkpt><trkpt lat="44.99861863390037" lon="8.01661085872534"><ele>195.42857142857144</ele><time>2026-04-11T11:06:52Z</time></trkpt><trkpt lat="44.99861542586365" lon="8.016704700581187"><ele>194.28571428571428</ele><time>2026-04-11T11:06:53Z</time></trkpt><trkpt lat="44.99861033869169" lon="8.016802321769578"><ele>193.14285714285714</ele><time>2026-04-11T11:06:54Z</time></trkpt><trkpt lat="44.998609728973896" lon="8.016907244480832"><ele>192.0</ele><time>2026-04-11T11:06:55Z</time></trkpt><trkpt lat="44.998609228094324" lon="8.017004505388531"><ele>191.39999999999998</ele><time>2026-04-11T11:06:56Z</time></trkpt><trkpt lat="44.99861463127608" lon="8.017098942553455"><ele>190.79999999999998</ele><time>2026-04-11T11:06:57Z</time></trkpt><trkpt lat="44.998598575029355" lon="8.01725839247684"><ele>190.2</ele><time>2026-04-11T11:06:59Z</time></trkpt><trkpt lat="44.99860865900159" lon="8.01740078656657"><ele>189.6</ele><time>2026-04-11T11:07:01Z</time></trkpt><trkpt lat="44.99860222030958" lon="8.017564278829997"><ele>189.0</ele><time>2026-04-11T11:07:03Z</time></trkpt><trkpt lat="44.99859533173697" lon="8.017732304171204"><ele>188.6</ele><time>2026-04-11T11:07:05Z</time></trkpt><trkpt lat="44.998589127074275" lon="8.017886418899154"><ele>188.2</ele><time>2026-04-11T11:07:07Z</time></trkpt><trkpt lat="44.998579980446706" lon="8.01804398978034"><ele>187.79999999999998</ele><time>2026-04-11T11:07:09Z</time></trkpt><trkpt lat="44.99857339165253" lon="8.01820080092579"><ele>187.39999999999998</ele><time>2026-04-11T11:07:11Z</time></trkpt><trkpt lat="44.998563677779245" lon="8.018358379114563"><ele>187.0</ele><time>2026-04-11T11:07:13Z</time></trkpt><trkpt lat="44.99854696113603" lon="8.018506623307703"><ele>186.8</ele><time>2026-04-11T11:07:15Z</time></trkpt><trkpt lat="44.99852005555037" lon="8.01864572963167"><ele>186.6</ele><time>2026-04-11T11:07:17Z</time></trkpt><trkpt lat="44.998499212368806" lon="8.01877159646176"><ele>186.4</ele><time>2026-04-11T11:07:19Z</time></trkpt><trkpt lat="44.99847937203685" lon="8.018897899514776"><ele>186.20000000000002</ele><time>2026-04-11T11:07:21Z</time></trkpt><trkpt lat="44.99847559986172" lon="8.019032512331126"><ele>186.0</ele><time>2026-04-11T11:07:23Z</time></trkpt><trkpt lat="44.998472592442184" lon="8.01914621793807"><ele>186.16666666666666</ele><time>2026-04-11T11:07:24.999Z</time></trkpt><trkpt lat="44.998474084667045" lon="8.019261611265005"><ele>186.33333333333334</ele><time>2026-04-11T11:07:26.999Z</time></trkpt><trkpt lat="44.99848024108971" lon="8.019366369979181"><ele>186.5</ele><time>2026-04-11T11:07:29.999Z</time></trkpt><trkpt lat="44.99849263181599" lon="8.01945893044295"><ele>186.66666666666669</ele><time>2026-04-11T11:07:32.999Z</time></trkpt><trkpt lat="44.99850176461655" lon="8.019570266431856"><ele>186.83333333333334</ele><time>2026-04-11T11:07:35.999Z</time></trkpt><trkpt lat="44.998518009116985" lon="8.019689946333898"><ele>187.0</ele><time>2026-04-11T11:07:38.999Z</time></trkpt><trkpt lat="44.99852678804167" lon="8.019780188129614"><ele>187.0</ele><time>2026-04-11T11:07:40.999Z</time></trkpt><trkpt lat="44.99853883960288" lon="8.019901816232565"><ele>187.0</ele><time>2026-04-11T11:07:43.999Z</time></trkpt><trkpt lat="44.998535481354736" lon="8.020000860912807"><ele>187.0</ele><time>2026-04-11T11:07:45.999Z</time></trkpt><trkpt lat="44.998527752304305" lon="8.02013175236775"><ele>187.0</ele><time>2026-04-11T11:07:48.999Z</time></trkpt><trkpt lat="44.9985156775593" lon="8.020270645644661"><ele>187.0</ele><time>2026-04-11T11:07:51.999Z</time></trkpt><trkpt lat="44.998510929692735" lon="8.02037266985321"><ele>187.0</ele><time>2026-04-11T11:07:53.999Z</time></trkpt><trkpt lat="44.9985029076839" lon="8.020463511480294"><ele>187.0</ele><time>2026-04-11T11:07:55.999Z</time></trkpt><trkpt lat="44.9984916817145" lon="8.020552770361785"><ele>187.0</ele><time>2026-04-11T11:07:57.999Z</time></trkpt><trkpt lat="44.99847959451833" lon="8.020646000242287"><ele>187.0</ele><time>2026-04-11T11:07:59.999Z</time></trkpt><trkpt lat="44.99844736295461" lon="8.020760769053737"><ele>187.0</ele><time>2026-04-11T11:08:02.999Z</time></trkpt><trkpt lat="44.99841894627878" lon="8.020885202404417"><ele>187.0</ele><time>2026-04-11T11:08:05.999Z</time></trkpt><trkpt lat="44.99840169855669" lon="8.02099394544515"><ele>187.0</ele><time>2026-04-11T11:08:08.999Z</time></trkpt><trkpt lat="44.998382175194294" lon="8.021078738846388"><ele>187.0</ele><time>2026-04-11T11:08:11.999Z</time></trkpt><trkpt lat="44.99833248343549" lon="8.02114053087715"><ele>187.0</ele><time>2026-04-11T11:08:18.999Z</time></trkpt><trkpt lat="44.99820904739988" lon="8.021072317643704"><ele>187.0</ele><time>2026-04-11T11:08:19.999Z</time></trkpt><trkpt lat="44.998143855736544" lon="8.021047057398492"><ele>187.0</ele><time>2026-04-11T11:08:21.999Z</time></trkpt><trkpt lat="44.998081136806874" lon="8.021031646793041"><ele>187.0</ele><time>2026-04-11T11:08:23.999Z</time></trkpt><trkpt lat="44.99799894921477" lon="8.021014452482156"><ele>187.0</ele><time>2026-04-11T11:08:25.999Z</time></trkpt><trkpt lat="44.9979060843049" lon="8.020992155077998"><ele>187.0</ele><time>2026-04-11T11:08:27.999Z</time></trkpt><trkpt lat="44.997808073225976" lon="8.020972309461508"><ele>187.0</ele><time>2026-04-11T11:08:29.999Z</time></trkpt><trkpt lat="44.99771573246591" lon="8.020973497132173"><ele>187.0</ele><time>2026-04-11T11:08:32Z</time></trkpt><trkpt lat="44.997598723624314" lon="8.020983233411625"><ele>187.0</ele><time>2026-04-11T11:08:34Z</time></trkpt><trkpt lat="44.99749318939593" lon="8.020981231228532"><ele>187.0</ele><time>2026-04-11T11:08:36Z</time></trkpt><trkpt lat="44.997383998803876" lon="8.020987656446003"><ele>188.39999999999998</ele><time>2026-04-11T11:08:38Z</time></trkpt><trkpt lat="44.997286765084425" lon="8.020986643898159"><ele>189.79999999999998</ele><time>2026-04-11T11:08:40Z</time></trkpt><trkpt lat="44.99718587533343" lon="8.020996789845467"><ele>191.2</ele><time>2026-04-11T11:08:42Z</time></trkpt><trkpt lat="44.99707941673709" lon="8.020992634460734"><ele>192.6</ele><time>2026-04-11T11:08:44Z</time></trkpt><trkpt lat="44.99697599322016" lon="8.021001865620242"><ele>194.0</ele><time>2026-04-11T11:08:46Z</time></trkpt><trkpt lat="44.996871281613274" lon="8.021012919772373"><ele>194.0</ele><time>2026-04-11T11:08:48Z</time></trkpt><trkpt lat="44.9967756595654" lon="8.021018716543269"><ele>194.0</ele><time>2026-04-11T11:08:50Z</time></trkpt><trkpt lat="44.996676948569515" lon="8.02103017257195"><ele>194.0</ele><time>2026-04-11T11:08:52Z</time></trkpt><trkpt lat="44.996570950993814" lon="8.021031641355526"><ele>194.0</ele><time>2026-04-11T11:08:54Z</time></trkpt><trkpt lat="44.996467646929766" lon="8.02104645247228"><ele>194.0</ele><time>2026-04-11T11:08:56Z</time></trkpt><trkpt lat="44.99637743193302" lon="8.021060538728356"><ele>193.33333333333334</ele><time>2026-04-11T11:08:58Z</time></trkpt><trkpt lat="44.99627154604724" lon="8.021066420543253"><ele>192.66666666666669</ele><time>2026-04-11T11:09:00Z</time></trkpt><trkpt lat="44.9962049316988" lon="8.02105707627543"><ele>192.0</ele><time>2026-04-11T11:09:01Z</time></trkpt><trkpt lat="44.996140095962446" lon="8.02105865442575"><ele>191.33333333333334</ele><time>2026-04-11T11:09:02Z</time></trkpt><trkpt lat="44.99607507268655" lon="8.021059359176729"><ele>190.66666666666669</ele><time>2026-04-11T11:09:03Z</time></trkpt><trkpt lat="44.99596488796274" lon="8.02107857064541"><ele>190.0</ele><time>2026-04-11T11:09:05Z</time></trkpt><trkpt lat="44.99589724748203" lon="8.02108363675729"><ele>190.0</ele><time>2026-04-11T11:09:06Z</time></trkpt><trkpt lat="44.995834436152386" lon="8.021077203825536"><ele>190.0</ele><time>2026-04-11T11:09:07Z</time></trkpt><trkpt lat="44.9957679313102" lon="8.021083977570214"><ele>190.0</ele><time>2026-04-11T11:09:08Z</time></trkpt><trkpt lat="44.99565240576371" lon="8.02109338595476"><ele>190.0</ele><time>2026-04-11T11:09:10Z</time></trkpt><trkpt lat="44.99552758958854" lon="8.021099595355778"><ele>190.0</ele><time>2026-04-11T11:09:12Z</time></trkpt><trkpt lat="44.99540327393555" lon="8.021102570844425"><ele>190.0</ele><time>2026-04-11T11:09:14Z</time></trkpt><trkpt lat="44.99528441829542" lon="8.02110057535386"><ele>190.0</ele><time>2026-04-11T11:09:16Z</time></trkpt><trkpt lat="44.99517651239326" lon="8.021100126381107"><ele>190.0</ele><time>2026-04-11T11:09:18Z</time></trkpt><trkpt lat="44.995077894288215" lon="8.021102150867025"><ele>190.0</ele><time>2026-04-11T11:09:20Z</time></trkpt><trkpt lat="44.995016003882135" lon="8.021077804367092"><ele>190.0</ele><time>2026-04-11T11:09:22Z</time></trkpt><trkpt lat="44.99496668576538" lon="8.021230366728645"><ele>189.83333333333334</ele><time>2026-04-11T11:09:24Z</time></trkpt><trkpt lat="44.99492684777639" lon="8.021338538495751"><ele>189.66666666666669</ele><time>2026-04-11T11:09:26Z</time></trkpt><trkpt lat="44.99488805252901" lon="8.021442715496114"><ele>189.5</ele><time>2026-04-11T11:09:28Z</time></trkpt><trkpt lat="44.99486089089523" lon="8.021552184847504"><ele>189.33333333333334</ele><time>2026-04-11T11:09:30Z</time></trkpt><trkpt lat="44.99482103097287" lon="8.02166587627046"><ele>189.16666666666666</ele><time>2026-04-11T11:09:32Z</time></trkpt><trkpt lat="44.99476795753741" lon="8.021765207082717"><ele>189.0</ele><time>2026-04-11T11:09:33.999Z</time></trkpt><trkpt lat="44.99472958974338" lon="8.021878702276632"><ele>189.0</ele><time>2026-04-11T11:09:35.999Z</time></trkpt><trkpt lat="44.9946875395476" lon="8.021978262470196"><ele>189.0</ele><time>2026-04-11T11:09:37.999Z</time></trkpt><trkpt lat="44.99464656703992" lon="8.02208479170555"><ele>189.0</ele><time>2026-04-11T11:09:39.999Z</time></trkpt><trkpt lat="44.994616210028724" lon="8.022190856296646"><ele>189.0</ele><time>2026-04-11T11:09:41.999Z</time></trkpt><trkpt lat="44.9945755782952" lon="8.02228913516312"><ele>189.0</ele><time>2026-04-11T11:09:43.999Z</time></trkpt><trkpt lat="44.99453915162596" lon="8.022402752582828"><ele>189.0</ele><time>2026-04-11T11:09:45.999Z</time></trkpt><trkpt lat="44.99450594819827" lon="8.022502172648505"><ele>190.14285714285714</ele><time>2026-04-11T11:09:47.999Z</time></trkpt><trkpt lat="44.994469721418064" lon="8.022596835857327"><ele>191.28571428571428</ele><time>2026-04-11T11:09:49.999Z</time></trkpt><trkpt lat="44.99443747641704" lon="8.022695076699538"><ele>192.42857142857144</ele><time>2026-04-11T11:09:51.999Z</time></trkpt><trkpt lat="44.99440607626625" lon="8.022775048475689"><ele>193.57142857142856</ele><time>2026-04-11T11:09:53.999Z</time></trkpt><trkpt lat="44.994369784906986" lon="8.02286914699608"><ele>194.71428571428572</ele><time>2026-04-11T11:09:55.999Z</time></trkpt><trkpt lat="44.99433955966625" lon="8.022961155526282"><ele>195.85714285714286</ele><time>2026-04-11T11:09:57.999Z</time></trkpt><trkpt lat="44.99430829494593" lon="8.023052106100751"><ele>197.0</ele><time>2026-04-11T11:09:59.999Z</time></trkpt><trkpt lat="44.99428265443376" lon="8.023149626761036"><ele>197.00000000000003</ele><time>2026-04-11T11:10:01.999Z</time></trkpt><trkpt lat="44.99425842760843" lon="8.023253188207937"><ele>197.0</ele><time>2026-04-11T11:10:03.999Z</time></trkpt><trkpt lat="44.99422452591898" lon="8.023355898423267"><ele>197.0</ele><time>2026-04-11T11:10:05.999Z</time></trkpt><trkpt lat="44.994212106516564" lon="8.023446199074419"><ele>197.0</ele><time>2026-04-11T11:10:07.999Z</time></trkpt><trkpt lat="44.99417943717815" lon="8.02353095620529"><ele>197.00000000000003</ele><time>2026-04-11T11:10:09.999Z</time></trkpt><trkpt lat="44.994144349079185" lon="8.023635358073795"><ele>197.0</ele><time>2026-04-11T11:10:11.999Z</time></trkpt><trkpt lat="44.99411070542015" lon="8.023750249763053"><ele>196.50000000000003</ele><time>2026-04-11T11:10:13.999Z</time></trkpt><trkpt lat="44.994087128180006" lon="8.023853765489372"><ele>196.0</ele><time>2026-04-11T11:10:15.999Z</time></trkpt><trkpt lat="44.99407073929581" lon="8.023963019174648"><ele>195.5</ele><time>2026-04-11T11:10:17.999Z</time></trkpt><trkpt lat="44.99404366251435" lon="8.024069266125945"><ele>195.0</ele><time>2026-04-11T11:10:19.999Z</time></trkpt><trkpt lat="44.99402695618362" lon="8.024191488911722"><ele>194.50000000000003</ele><time>2026-04-11T11:10:21.999Z</time></trkpt><trkpt lat="44.99400812891701" lon="8.024300675475374"><ele>194.0</ele><time>2026-04-11T11:10:23.999Z</time></trkpt><trkpt lat="44.99398394960994" lon="8.024409104403556"><ele>194.00000000000003</ele><time>2026-04-11T11:10:25.999Z</time></trkpt><trkpt lat="44.99397626660585" lon="8.024537429603358"><ele>194.0</ele><time>2026-04-11T11:10:27.999Z</time></trkpt><trkpt lat="44.99396597243839" lon="8.024650610536654"><ele>194.0</ele><time>2026-04-11T11:10:29.999Z</time></trkpt><trkpt lat="44.993955999117624" lon="8.024762634656817"><ele>194.0</ele><time>2026-04-11T11:10:31.999Z</time></trkpt><trkpt lat="44.993942682554724" lon="8.024877939298097"><ele>194.00000000000003</ele><time>2026-04-11T11:10:33.999Z</time></trkpt><trkpt lat="44.9939543886028" lon="8.024990807855959"><ele>194.0</ele><time>2026-04-11T11:10:35.999Z</time></trkpt><trkpt lat="44.99397270348329" lon="8.025099054440126"><ele>193.66666666666669</ele><time>2026-04-11T11:10:38Z</time></trkpt><trkpt lat="44.99398929571036" lon="8.025218332958104"><ele>193.33333333333334</ele><time>2026-04-11T11:10:40Z</time></trkpt><trkpt lat="44.9940085846622" lon="8.025332405126694"><ele>193.0</ele><time>2026-04-11T11:10:42Z</time></trkpt><trkpt lat="44.99402331672677" lon="8.02544655186578"><ele>192.66666666666669</ele><time>2026-04-11T11:10:44Z</time></trkpt><trkpt lat="44.994048700167504" lon="8.025558352173334"><ele>192.33333333333334</ele><time>2026-04-11T11:10:46Z</time></trkpt><trkpt lat="44.994074895528094" lon="8.025659224448297"><ele>192.0</ele><time>2026-04-11T11:10:48Z</time></trkpt><trkpt lat="44.99412511159503" lon="8.02575159153607"><ele>192.57142857142856</ele><time>2026-04-11T11:10:50Z</time></trkpt><trkpt lat="44.99415489679285" lon="8.025855075361184"><ele>193.14285714285714</ele><time>2026-04-11T11:10:52Z</time></trkpt><trkpt lat="44.9941952408114" lon="8.025934698614147"><ele>193.71428571428572</ele><time>2026-04-11T11:10:54Z</time></trkpt><trkpt lat="44.994223574795" lon="8.026025274477352"><ele>194.28571428571428</ele><time>2026-04-11T11:10:56Z</time></trkpt><trkpt lat="44.994257334718824" lon="8.026102358121086"><ele>194.85714285714286</ele><time>2026-04-11T11:10:58Z</time></trkpt><trkpt lat="44.99428331491961" lon="8.026218131567564"><ele>195.42857142857142</ele><time>2026-04-11T11:11:00Z</time></trkpt><trkpt lat="44.99431762126854" lon="8.026314496957667"><ele>196.0</ele><time>2026-04-11T11:11:02Z</time></trkpt><trkpt lat="44.99434715112376" lon="8.026412261676734"><ele>197.42857142857142</ele><time>2026-04-11T11:11:04Z</time></trkpt><trkpt lat="44.99437983178486" lon="8.026499049549788"><ele>198.85714285714286</ele><time>2026-04-11T11:11:06Z</time></trkpt><trkpt lat="44.99437112856213" lon="8.02660493312382"><ele>200.28571428571428</ele><time>2026-04-11T11:11:08Z</time></trkpt><trkpt lat="44.99435316384993" lon="8.026695426905718"><ele>201.71428571428572</ele><time>2026-04-11T11:11:10Z</time></trkpt><trkpt lat="44.99434546877754" lon="8.026806053722643"><ele>203.14285714285714</ele><time>2026-04-11T11:11:12Z</time></trkpt><trkpt lat="44.99433974027791" lon="8.026901025464767"><ele>204.57142857142856</ele><time>2026-04-11T11:11:14Z</time></trkpt><trkpt lat="44.99434964952388" lon="8.027011247983856"><ele>206.0</ele><time>2026-04-11T11:11:16Z</time></trkpt><trkpt lat="44.99437097116386" lon="8.027126854313055"><ele>206.00000000000003</ele><time>2026-04-11T11:11:18Z</time></trkpt><trkpt lat="44.99439934494468" lon="8.027236874024252"><ele>206.0</ele><time>2026-04-11T11:11:20Z</time></trkpt><trkpt lat="44.99444132089111" lon="8.027331082811969"><ele>206.0</ele><time>2026-04-11T11:11:22Z</time></trkpt><trkpt lat="44.9944837592957" lon="8.02744566454663"><ele>206.0</ele><time>2026-04-11T11:11:24Z</time></trkpt><trkpt lat="44.994515204822456" lon="8.027551122544255"><ele>206.00000000000003</ele><time>2026-04-11T11:11:26Z</time></trkpt><trkpt lat="44.99454274908792" lon="8.027645616207334"><ele>206.0</ele><time>2026-04-11T11:11:28Z</time></trkpt><trkpt lat="44.99458570043685" lon="8.027761879812303"><ele>205.66666666666669</ele><time>2026-04-11T11:11:30Z</time></trkpt><trkpt lat="44.99460264676827" lon="8.02788022225493"><ele>205.33333333333334</ele><time>2026-04-11T11:11:32Z</time></trkpt><trkpt lat="44.99463973604901" lon="8.027993301129962"><ele>205.0</ele><time>2026-04-11T11:11:34Z</time></trkpt><trkpt lat="44.99466961260967" lon="8.028107563134903"><ele>204.66666666666669</ele><time>2026-04-11T11:11:35.999Z</time></trkpt><trkpt lat="44.99470327093905" lon="8.028200325197604"><ele>204.33333333333334</ele><time>2026-04-11T11:11:37.999Z</time></trkpt><trkpt lat="44.994724921679264" lon="8.028309549516386"><ele>204.0</ele><time>2026-04-11T11:11:39.999Z</time></trkpt><trkpt lat="44.99475911459594" lon="8.028426663624682"><ele>203.33333333333334</ele><time>2026-04-11T11:11:41.999Z</time></trkpt><trkpt lat="44.9947841585668" lon="8.028538011259378"><ele>202.66666666666669</ele><time>2026-04-11T11:11:43.999Z</time></trkpt><trkpt lat="44.99480703996277" lon="8.028651542080059"><ele>202.0</ele><time>2026-04-11T11:11:45.999Z</time></trkpt><trkpt lat="44.994830123794706" lon="8.028767609959305"><ele>201.33333333333334</ele><time>2026-04-11T11:11:47.999Z</time></trkpt><trkpt lat="44.99485174039192" lon="8.02887000531214"><ele>200.66666666666669</ele><time>2026-04-11T11:11:49.999Z</time></trkpt><trkpt lat="44.994863005024406" lon="8.028982799380872"><ele>200.0</ele><time>2026-04-11T11:11:51.999Z</time></trkpt><trkpt lat="44.99487481208912" lon="8.029080041965159"><ele>200.16666666666669</ele><time>2026-04-11T11:11:53.999Z</time></trkpt><trkpt lat="44.99489370805762" lon="8.029191236168222"><ele>200.33333333333334</ele><time>2026-04-11T11:11:55.999Z</time></trkpt><trkpt lat="44.99491063023027" lon="8.029305627852871"><ele>200.5</ele><time>2026-04-11T11:11:57.999Z</time></trkpt><trkpt lat="44.99493406013773" lon="8.02941733895408"><ele>200.66666666666669</ele><time>2026-04-11T11:11:59.999Z</time></trkpt><trkpt lat="44.99494488110715" lon="8.029518532076716"><ele>200.83333333333334</ele><time>2026-04-11T11:12:01.999Z</time></trkpt><trkpt lat="44.9949701793697" lon="8.02962941799561"><ele>201.0</ele><time>2026-04-11T11:12:03.999Z</time></trkpt><trkpt lat="44.99498539178096" lon="8.029737767949205"><ele>201.0</ele><time>2026-04-11T11:12:05.999Z</time></trkpt><trkpt lat="44.99499817209259" lon="8.029842315285611"><ele>201.0</ele><time>2026-04-11T11:12:07.999Z</time></trkpt><trkpt lat="44.99503211209622" lon="8.029939650804383"><ele>201.0</ele><time>2026-04-11T11:12:09.999Z</time></trkpt><trkpt lat="44.99508668810278" lon="8.030030890968051"><ele>201.0</ele><time>2026-04-11T11:12:12.999Z</time></trkpt><trkpt lat="44.995173632863455" lon="8.030096166782457"><ele>201.0</ele><time>2026-04-11T11:12:15.999Z</time></trkpt><trkpt lat="44.99524877381882" lon="8.030116813990627"><ele>201.0</ele><time>2026-04-11T11:12:17.999Z</time></trkpt><trkpt lat="44.99531885435658" lon="8.03015943050973"><ele>201.0</ele><time>2026-04-11T11:12:19.999Z</time></trkpt><trkpt lat="44.99539448880518" lon="8.030195234473995"><ele>201.0</ele><time>2026-04-11T11:12:21.999Z</time></trkpt><trkpt lat="44.99546890097104" lon="8.030214416535737"><ele>201.0</ele><time>2026-04-11T11:12:23.999Z</time></trkpt><trkpt lat="44.99554606713946" lon="8.030258365148713"><ele>201.0</ele><time>2026-04-11T11:12:25.999Z</time></trkpt><trkpt lat="44.995624153929356" lon="8.030285186260366"><ele>201.0</ele><time>2026-04-11T11:12:27.999Z</time></trkpt><trkpt lat="44.99570339222485" lon="8.030312682621291"><ele>201.0</ele><time>2026-04-11T11:12:29.999Z</time></trkpt><trkpt lat="44.995777981589015" lon="8.030336942036538"><ele>201.7142857142857</ele><time>2026-04-11T11:12:31.999Z</time></trkpt><trkpt lat="44.995846856421295" lon="8.030358333629954"><ele>202.42857142857144</ele><time>2026-04-11T11:12:33.999Z</time></trkpt><trkpt lat="44.995912290083744" lon="8.03037222957358"><ele>203.14285714285714</ele><time>2026-04-11T11:12:35.999Z</time></trkpt><trkpt lat="44.99598339625242" lon="8.030394932008146"><ele>203.85714285714283</ele><time>2026-04-11T11:12:37.999Z</time></trkpt><trkpt lat="44.996059228418765" lon="8.030413759889813"><ele>204.57142857142856</ele><time>2026-04-11T11:12:39.999Z</time></trkpt><trkpt lat="44.99613601470408" lon="8.030420060357747"><ele>205.28571428571428</ele><time>2026-04-11T11:12:41.999Z</time></trkpt><trkpt lat="44.99621665771926" lon="8.03042220350546"><ele>206.0</ele><time>2026-04-11T11:12:44Z</time></trkpt><trkpt lat="44.9962918442049" lon="8.030435235249334"><ele>206.00000000000003</ele><time>2026-04-11T11:12:46Z</time></trkpt><trkpt lat="44.99638219948174" lon="8.030437041448057"><ele>206.0</ele><time>2026-04-11T11:12:49Z</time></trkpt><trkpt lat="44.996464156055914" lon="8.03043750806341"><ele>206.0</ele><time>2026-04-11T11:12:51Z</time></trkpt><trkpt lat="44.99654195148194" lon="8.030445690375663"><ele>206.0</ele><time>2026-04-11T11:12:53Z</time></trkpt><trkpt lat="44.99660893368592" lon="8.03047254691696"><ele>206.00000000000003</ele><time>2026-04-11T11:12:57Z</time></trkpt><trkpt lat="44.996599949442135" lon="8.030618122153738"><ele>206.0</ele><time>2026-04-11T11:13:00Z</time></trkpt><trkpt lat="44.99661694644793" lon="8.030706252902027"><ele>206.42857142857142</ele><time>2026-04-11T11:13:02Z</time></trkpt><trkpt lat="44.99660619190153" lon="8.030838891465402"><ele>206.85714285714286</ele><time>2026-04-11T11:13:05Z</time></trkpt><trkpt lat="44.99660496706601" lon="8.030936988836016"><ele>207.28571428571428</ele><time>2026-04-11T11:13:07Z</time></trkpt><trkpt lat="44.9965991967189" lon="8.031034425705418"><ele>207.71428571428572</ele><time>2026-04-11T11:13:09Z</time></trkpt><trkpt lat="44.99660366445112" lon="8.031129532011878"><ele>208.14285714285714</ele><time>2026-04-11T11:13:11Z</time></trkpt><trkpt lat="44.99660192902701" lon="8.03122607011581"><ele>208.57142857142856</ele><time>2026-04-11T11:13:13Z</time></trkpt><trkpt lat="44.99660737725297" lon="8.03131776644045"><ele>209.0</ele><time>2026-04-11T11:13:15Z</time></trkpt><trkpt lat="44.996619886436086" lon="8.031416979216514"><ele>209.00000000000003</ele><time>2026-04-11T11:13:17Z</time></trkpt><trkpt lat="44.99661957689331" lon="8.031548706691769"><ele>209.0</ele><time>2026-04-11T11:13:20Z</time></trkpt><trkpt lat="44.99660895323241" lon="8.031673557183945"><ele>209.0</ele><time>2026-04-11T11:13:23Z</time></trkpt><trkpt lat="44.99661373031141" lon="8.031763720188405"><ele>209.0</ele><time>2026-04-11T11:13:25Z</time></trkpt><trkpt lat="44.99663436194152" lon="8.031878981554586"><ele>209.00000000000003</ele><time>2026-04-11T11:13:28Z</time></trkpt><trkpt lat="44.99663992519844" lon="8.031979314272245"><ele>209.0</ele><time>2026-04-11T11:13:31Z</time></trkpt><trkpt lat="44.99664801463485" lon="8.032093652077435"><ele>210.50000000000003</ele><time>2026-04-11T11:13:34Z</time></trkpt><trkpt lat="44.99665850219656" lon="8.03220850318215"><ele>212.0</ele><time>2026-04-11T11:13:37Z</time></trkpt><trkpt lat="44.99666117426381" lon="8.032298252880933"><ele>213.5</ele><time>2026-04-11T11:13:39Z</time></trkpt><trkpt lat="44.996689189939666" lon="8.032418145251858"><ele>215.0</ele><time>2026-04-11T11:13:42Z</time></trkpt><trkpt lat="44.996708434188896" lon="8.032516415416744"><ele>216.50000000000003</ele><time>2026-04-11T11:13:45Z</time></trkpt><trkpt lat="44.99675818445439" lon="8.032612974815965"><ele>218.0</ele><time>2026-04-11T11:13:48.999Z</time></trkpt><trkpt lat="44.99680814228923" lon="8.032705979989458"><ele>222.16666666666669</ele><time>2026-04-11T11:13:51.999Z</time></trkpt><trkpt lat="44.996855312999585" lon="8.032783046343408"><ele>226.33333333333334</ele><time>2026-04-11T11:13:54.999Z</time></trkpt><trkpt lat="44.99691251469178" lon="8.032863170703791"><ele>230.5</ele><time>2026-04-11T11:13:58.999Z</time></trkpt><trkpt lat="44.99695335223021" lon="8.03296539059955"><ele>234.66666666666669</ele><time>2026-04-11T11:14:01.999Z</time></trkpt><trkpt lat="44.99701733195181" lon="8.03303212965831"><ele>238.83333333333334</ele><time>2026-04-11T11:14:04.999Z</time></trkpt><trkpt lat="44.99707330491318" lon="8.033119185061317"><ele>243.0</ele><time>2026-04-11T11:14:07.999Z</time></trkpt><trkpt lat="44.99713692976572" lon="8.033176007180861"><ele>243.0</ele><time>2026-04-11T11:14:10.999Z</time></trkpt><trkpt lat="44.997200143564726" lon="8.03325849953879"><ele>243.0</ele><time>2026-04-11T11:14:14.999Z</time></trkpt><trkpt lat="44.99724973993054" lon="8.033345977003203"><ele>243.0</ele><time>2026-04-11T11:14:18.999Z</time></trkpt><trkpt lat="44.9973156796697" lon="8.03340781583856"><ele>243.0</ele><time>2026-04-11T11:14:22.999Z</time></trkpt><trkpt lat="44.99738558917225" lon="8.033473208759052"><ele>243.0</ele><time>2026-04-11T11:14:26.999Z</time></trkpt><trkpt lat="44.99744375842118" lon="8.033548562611706"><ele>243.0</ele><time>2026-04-11T11:14:30.999Z</time></trkpt><trkpt lat="44.997497362071655" lon="8.03360712649345"><ele>245.28571428571428</ele><time>2026-04-11T11:14:33.999Z</time></trkpt><trkpt lat="44.9975604411435" lon="8.033686799727958"><ele>247.57142857142858</ele><time>2026-04-11T11:14:37.999Z</time></trkpt><trkpt lat="44.99761659556983" lon="8.033752319296255"><ele>249.85714285714286</ele><time>2026-04-11T11:14:41.999Z</time></trkpt><trkpt lat="44.997674627718716" lon="8.033812605239127"><ele>252.14285714285714</ele><time>2026-04-11T11:14:44.999Z</time></trkpt><trkpt lat="44.99772956124779" lon="8.033875143852613"><ele>254.42857142857144</ele><time>2026-04-11T11:14:49Z</time></trkpt><trkpt lat="44.99774121494385" lon="8.033967043194073"><ele>256.7142857142857</ele><time>2026-04-11T11:14:53Z</time></trkpt><trkpt lat="44.99768817098578" lon="8.034017157235207"><ele>259.0</ele><time>2026-04-11T11:14:56Z</time></trkpt><trkpt lat="44.99761663414503" lon="8.034026972072294"><ele>259.0</ele><time>2026-04-11T11:15:02Z</time></trkpt><trkpt lat="44.99755516588573" lon="8.034072045647314"><ele>259.0</ele><time>2026-04-11T11:15:05Z</time></trkpt><trkpt lat="44.99751054892886" lon="8.034155319179648"><ele>259.0</ele><time>2026-04-11T11:15:07Z</time></trkpt><trkpt lat="44.9975118626297" lon="8.03424929394549"><ele>259.0</ele><time>2026-04-11T11:15:09Z</time></trkpt><trkpt lat="44.997537023921254" lon="8.03436374966219"><ele>259.0</ele><time>2026-04-11T11:15:12Z</time></trkpt><trkpt lat="44.99757940665101" lon="8.034452749023346"><ele>259.0</ele><time>2026-04-11T11:15:17Z</time></trkpt><trkpt lat="44.99762837596648" lon="8.034535250055272"><ele>259.0</ele><time>2026-04-11T11:15:21Z</time></trkpt><trkpt lat="44.99769487625756" lon="8.034581125445044"><ele>258.57142857142856</ele><time>2026-04-11T11:15:24Z</time></trkpt><trkpt lat="44.99775575163619" lon="8.034652689302806"><ele>258.1428571428571</ele><time>2026-04-11T11:15:27Z</time></trkpt><trkpt lat="44.997800463318" lon="8.03473131008856"><ele>257.7142857142857</ele><time>2026-04-11T11:15:31Z</time></trkpt><trkpt lat="44.9978276988008" lon="8.034820158861745"><ele>257.2857142857143</ele><time>2026-04-11T11:15:36Z</time></trkpt><trkpt lat="44.99778606677278" lon="8.034912958580152"><ele>256.85714285714283</ele><time>2026-04-11T11:15:40Z</time></trkpt><trkpt lat="44.99773971755377" lon="8.034836186415983"><ele>256.42857142857144</ele><time>2026-04-11T11:15:46Z</time></trkpt><trkpt lat="44.99767746135471" lon="8.034761981410075"><ele>256.0</ele><time>2026-04-11T11:15:49.999Z</time></trkpt><trkpt lat="44.99762298820253" lon="8.034707483267617"><ele>255.99999999999997</ele><time>2026-04-11T11:15:52.999Z</time></trkpt><trkpt lat="44.99756130055089" lon="8.034632404899483"><ele>256.0</ele><time>2026-04-11T11:15:56.999Z</time></trkpt><trkpt lat="44.99748919894714" lon="8.034584424095575"><ele>256.0</ele><time>2026-04-11T11:16:00.999Z</time></trkpt><trkpt lat="44.99742605622437" lon="8.034537720172738"><ele>256.0</ele><time>2026-04-11T11:16:03.999Z</time></trkpt><trkpt lat="44.997356246671366" lon="8.034476587080276"><ele>255.99999999999997</ele><time>2026-04-11T11:16:07.999Z</time></trkpt><trkpt lat="44.997307547981855" lon="8.03439739524046"><ele>256.0</ele><time>2026-04-11T11:16:11.999Z</time></trkpt><trkpt lat="44.997233219362975" lon="8.034357156781729"><ele>254.0</ele><time>2026-04-11T11:16:14.999Z</time></trkpt><trkpt lat="44.99716508846404" lon="8.03432338759175"><ele>251.99999999999997</ele><time>2026-04-11T11:16:17.999Z</time></trkpt><trkpt lat="44.99709209822948" lon="8.034290169562265"><ele>250.0</ele><time>2026-04-11T11:16:20.999Z</time></trkpt><trkpt lat="44.99702564628287" lon="8.03428393201321"><ele>248.0</ele><time>2026-04-11T11:16:24.999Z</time></trkpt><trkpt lat="44.99695359777854" lon="8.034297477570439"><ele>245.99999999999997</ele><time>2026-04-11T11:16:27.999Z</time></trkpt><trkpt lat="44.996867894971636" lon="8.034312143283534"><ele>244.0</ele><time>2026-04-11T11:16:31.999Z</time></trkpt><trkpt lat="44.99680583368309" lon="8.034335164749384"><ele>242.0</ele><time>2026-04-11T11:16:34.999Z</time></trkpt><trkpt lat="44.99673465354334" lon="8.034366385948736"><ele>242.00000000000003</ele><time>2026-04-11T11:16:37.999Z</time></trkpt><trkpt lat="44.99667680435918" lon="8.034411335585537"><ele>242.0</ele><time>2026-04-11T11:16:39.999Z</time></trkpt><trkpt lat="44.99662488447659" lon="8.034512080966126"><ele>242.0</ele><time>2026-04-11T11:16:42.999Z</time></trkpt><trkpt lat="44.99658785291215" lon="8.034589791811849"><ele>242.0</ele><time>2026-04-11T11:16:45.999Z</time></trkpt><trkpt lat="44.9965273328432" lon="8.03469662311633"><ele>242.00000000000003</ele><time>2026-04-11T11:16:50.999Z</time></trkpt><trkpt lat="44.99647974449269" lon="8.034800741158264"><ele>242.0</ele><time>2026-04-11T11:16:55Z</time></trkpt><trkpt lat="44.9964236769064" lon="8.03489678300781"><ele>245.66666666666669</ele><time>2026-04-11T11:16:59Z</time></trkpt><trkpt lat="44.99638903522758" lon="8.035003980376727"><ele>249.33333333333334</ele><time>2026-04-11T11:17:02Z</time></trkpt><trkpt lat="44.99633976661235" lon="8.035106533999581"><ele>253.0</ele><time>2026-04-11T11:17:04Z</time></trkpt><trkpt lat="44.996295592205904" lon="8.0351926026595"><ele>256.6666666666667</ele><time>2026-04-11T11:17:06Z</time></trkpt><trkpt lat="44.9962486237286" lon="8.03528681759209"><ele>260.3333333333333</ele><time>2026-04-11T11:17:08Z</time></trkpt><trkpt lat="44.996191751295285" lon="8.035398380789166"><ele>264.0</ele><time>2026-04-11T11:17:10Z</time></trkpt><trkpt lat="44.99614766199524" lon="8.035467988402235"><ele>264.0</ele><time>2026-04-11T11:17:12Z</time></trkpt><trkpt lat="44.99607861226967" lon="8.035585343321884"><ele>264.0</ele><time>2026-04-11T11:17:14Z</time></trkpt><trkpt lat="44.9960144783311" lon="8.035689835424936"><ele>264.0</ele><time>2026-04-11T11:17:16Z</time></trkpt><trkpt lat="44.9959569455733" lon="8.035798229564183"><ele>264.0</ele><time>2026-04-11T11:17:18Z</time></trkpt><trkpt lat="44.9959011677499" lon="8.035872930607098"><ele>264.0</ele><time>2026-04-11T11:17:20Z</time></trkpt><trkpt lat="44.995858194516764" lon="8.035951988492503"><ele>264.0</ele><time>2026-04-11T11:17:23Z</time></trkpt><trkpt lat="44.9958212839842" lon="8.036036665260497"><ele>263.3333333333333</ele><time>2026-04-11T11:17:50.999Z</time></trkpt><trkpt lat="44.995792145056726" lon="8.036132340164894"><ele>262.6666666666667</ele><time>2026-04-11T11:17:55.999Z</time></trkpt><trkpt lat="44.995751560191145" lon="8.036232783501562"><ele>262.0</ele><time>2026-04-11T11:17:58.999Z</time></trkpt><trkpt lat="44.99571821187096" lon="8.03632756010891"><ele>261.33333333333337</ele><time>2026-04-11T11:18:01.999Z</time></trkpt><trkpt lat="44.99565277223933" lon="8.03639112405909"><ele>260.6666666666667</ele><time>2026-04-11T11:18:04.999Z</time></trkpt><trkpt lat="44.995590258332086" lon="8.036468640693572"><ele>260.0</ele><time>2026-04-11T11:18:07.999Z</time></trkpt><trkpt lat="44.99553750138723" lon="8.03652327661913"><ele>260.0</ele><time>2026-04-11T11:18:09.999Z</time></trkpt><trkpt lat="44.995478742869615" lon="8.036565289206594"><ele>260.0</ele><time>2026-04-11T11:18:12.999Z</time></trkpt><trkpt lat="44.99540690574084" lon="8.036603027410566"><ele>260.0</ele><time>2026-04-11T11:18:15.999Z</time></trkpt><trkpt lat="44.99532380979488" lon="8.036657399037137"><ele>260.0</ele><time>2026-04-11T11:18:18.999Z</time></trkpt><trkpt lat="44.99524763106324" lon="8.036697424494104"><ele>260.0</ele><time>2026-04-11T11:18:20.999Z</time></trkpt><trkpt lat="44.9951536966389" lon="8.036744970436269"><ele>260.0</ele><time>2026-04-11T11:18:22.999Z</time></trkpt><trkpt lat="44.995059958076084" lon="8.036801037946164"><ele>259.4</ele><time>2026-04-11T11:18:24.999Z</time></trkpt><trkpt lat="44.99498675523924" lon="8.03684369629961"><ele>258.8</ele><time>2026-04-11T11:18:26.999Z</time></trkpt><trkpt lat="44.994897267393064" lon="8.036888226564601"><ele>258.2</ele><time>2026-04-11T11:18:28.999Z</time></trkpt><trkpt lat="44.99480932847939" lon="8.036920367596423"><ele>257.6</ele><time>2026-04-11T11:18:30.999Z</time></trkpt><trkpt lat="44.9947279579486" lon="8.036959240668807"><ele>257.0</ele><time>2026-04-11T11:18:32.999Z</time></trkpt><trkpt lat="44.99462372235093" lon="8.036991267849626"><ele>257.0</ele><time>2026-04-11T11:18:34.999Z</time></trkpt><trkpt lat="44.99452462277484" lon="8.03701824825561"><ele>257.0</ele><time>2026-04-11T11:18:36.999Z</time></trkpt><trkpt lat="44.994447632942624" lon="8.037065320174285"><ele>257.0</ele><time>2026-04-11T11:18:38.999Z</time></trkpt><trkpt lat="44.99438781137386" lon="8.037132911384512"><ele>257.0</ele><time>2026-04-11T11:18:40.999Z</time></trkpt><trkpt lat="44.99432018076489" lon="8.03724833096709"><ele>257.0</ele><time>2026-04-11T11:18:43.999Z</time></trkpt><trkpt lat="44.99426454642045" lon="8.037310794811603"><ele>257.0</ele><time>2026-04-11T11:18:45.999Z</time></trkpt><trkpt lat="44.99420842745016" lon="8.037378097154814"><ele>256.6666666666667</ele><time>2026-04-11T11:18:47.999Z</time></trkpt><trkpt lat="44.99413625801527" lon="8.037417607095295"><ele>256.33333333333337</ele><time>2026-04-11T11:18:49.999Z</time></trkpt><trkpt lat="44.9940720167853" lon="8.037429216808718"><ele>256.0</ele><time>2026-04-11T11:18:51.999Z</time></trkpt><trkpt lat="44.99397594925617" lon="8.0374584601157"><ele>255.66666666666669</ele><time>2026-04-11T11:18:53.999Z</time></trkpt><trkpt lat="44.993860448897536" lon="8.037496135765977"><ele>255.33333333333334</ele><time>2026-04-11T11:18:55.999Z</time></trkpt><trkpt lat="44.99378721122478" lon="8.037545833384343"><ele>255.0</ele><time>2026-04-11T11:18:57.999Z</time></trkpt><trkpt lat="44.993685966330844" lon="8.037616566860143"><ele>255.0</ele><time>2026-04-11T11:18:59.999Z</time></trkpt><trkpt lat="44.99361573968158" lon="8.03771731328726"><ele>255.0</ele><time>2026-04-11T11:19:02Z</time></trkpt><trkpt lat="44.99356395018887" lon="8.03782000157797"><ele>255.0</ele><time>2026-04-11T11:19:04Z</time></trkpt><trkpt lat="44.99351269629189" lon="8.037940467820492"><ele>255.0</ele><time>2026-04-11T11:19:06Z</time></trkpt><trkpt lat="44.9934807294411" lon="8.038051992408914"><ele>255.0</ele><time>2026-04-11T11:19:08Z</time></trkpt><trkpt lat="44.99346967220387" lon="8.038170210318865"><ele>252.83333333333334</ele><time>2026-04-11T11:19:10Z</time></trkpt><trkpt lat="44.99344464454762" lon="8.038319375380397"><ele>250.66666666666669</ele><time>2026-04-11T11:19:13Z</time></trkpt><trkpt lat="44.99344789600588" lon="8.038428967940598"><ele>248.5</ele><time>2026-04-11T11:19:15Z</time></trkpt><trkpt lat="44.99343460663837" lon="8.038565400850366"><ele>246.33333333333334</ele><time>2026-04-11T11:19:17Z</time></trkpt><trkpt lat="44.993418774222704" lon="8.038689080066156"><ele>244.16666666666669</ele><time>2026-04-11T11:19:19Z</time></trkpt><trkpt lat="44.99341729058975" lon="8.038784233101282"><ele>242.0</ele><time>2026-04-11T11:19:21Z</time></trkpt><trkpt lat="44.99340943585133" lon="8.038893561975325"><ele>242.00000000000003</ele><time>2026-04-11T11:19:23Z</time></trkpt><trkpt lat="44.993391141194095" lon="8.039010780652832"><ele>242.0</ele><time>2026-04-11T11:19:25Z</time></trkpt><trkpt lat="44.99333696312359" lon="8.039114773771669"><ele>242.0</ele><time>2026-04-11T11:19:28Z</time></trkpt><trkpt lat="44.993284409638896" lon="8.039255935095738"><ele>242.0</ele><time>2026-04-11T11:19:30Z</time></trkpt><trkpt lat="44.993224912680674" lon="8.039341157112279"><ele>242.00000000000003</ele><time>2026-04-11T11:19:32Z</time></trkpt><trkpt lat="44.993177609174595" lon="8.039418338854649"><ele>242.0</ele><time>2026-04-11T11:19:34Z</time></trkpt><trkpt lat="44.99310145409901" lon="8.039505624273314"><ele>243.39999999999998</ele><time>2026-04-11T11:19:37Z</time></trkpt><trkpt lat="44.993068938788866" lon="8.039587211859685"><ele>244.79999999999998</ele><time>2026-04-11T11:19:39Z</time></trkpt><trkpt lat="44.99302832991656" lon="8.039699072215289"><ele>246.2</ele><time>2026-04-11T11:19:41Z</time></trkpt><trkpt lat="44.99300286082453" lon="8.039827280688751"><ele>247.6</ele><time>2026-04-11T11:19:43Z</time></trkpt><trkpt lat="44.99297667004694" lon="8.03997847377746"><ele>249.0</ele><time>2026-04-11T11:19:45Z</time></trkpt><trkpt lat="44.992953598065526" lon="8.040142572433448"><ele>249.0</ele><time>2026-04-11T11:19:47Z</time></trkpt><trkpt lat="44.992927890634874" lon="8.040275325917467"><ele>248.99999999999997</ele><time>2026-04-11T11:19:49Z</time></trkpt><trkpt lat="44.992878177484165" lon="8.040421572626538"><ele>248.99999999999997</ele><time>2026-04-11T11:19:51Z</time></trkpt><trkpt lat="44.99285184148858" lon="8.04050496925148"><ele>249.0</ele><time>2026-04-11T11:19:52Z</time></trkpt><trkpt lat="44.99282213937712" lon="8.04058665800821"><ele>249.0</ele><time>2026-04-11T11:19:53Z</time></trkpt><trkpt lat="44.992777078090135" lon="8.04074002579444"><ele>246.2</ele><time>2026-04-11T11:19:55Z</time></trkpt><trkpt lat="44.99274062743462" lon="8.040920102267744"><ele>243.39999999999998</ele><time>2026-04-11T11:19:57Z</time></trkpt><trkpt lat="44.9926861207298" lon="8.041095823691396"><ele>240.6</ele><time>2026-04-11T11:19:59Z</time></trkpt><trkpt lat="44.99265074499554" lon="8.041207913303069"><ele>237.8</ele><time>2026-04-11T11:19:59.999Z</time></trkpt><trkpt lat="44.992621942022986" lon="8.04130022499078"><ele>235.0</ele><time>2026-04-11T11:20:00.999Z</time></trkpt><trkpt lat="44.99255702031253" lon="8.041460216272021"><ele>234.99999999999997</ele><time>2026-04-11T11:20:02.999Z</time></trkpt><trkpt lat="44.992517895878706" lon="8.041543057447669"><ele>235.0</ele><time>2026-04-11T11:20:03.999Z</time></trkpt><trkpt lat="44.99245561208293" lon="8.041622547627913"><ele>235.0</ele><time>2026-04-11T11:20:04.999Z</time></trkpt><trkpt lat="44.992391711194685" lon="8.041684977954466"><ele>235.0</ele><time>2026-04-11T11:20:05.999Z</time></trkpt><trkpt lat="44.99234186935193" lon="8.04175486651484"><ele>234.99999999999997</ele><time>2026-04-11T11:20:06.999Z</time></trkpt><trkpt lat="44.99227127186422" lon="8.041809183206304"><ele>235.0</ele><time>2026-04-11T11:20:07.999Z</time></trkpt><trkpt lat="44.992166733198765" lon="8.04188059806862"><ele>237.0</ele><time>2026-04-11T11:20:09.999Z</time></trkpt><trkpt lat="44.99208941581991" lon="8.04195324044605"><ele>239.0</ele><time>2026-04-11T11:20:10.999Z</time></trkpt><trkpt lat="44.99202270616145" lon="8.042113232702516"><ele>241.0</ele><time>2026-04-11T11:20:12.999Z</time></trkpt><trkpt lat="44.99199583357211" lon="8.042194043951513"><ele>243.0</ele><time>2026-04-11T11:20:13.999Z</time></trkpt><trkpt lat="44.99194187518206" lon="8.0423179960307"><ele>245.0</ele><time>2026-04-11T11:20:15.999Z</time></trkpt><trkpt lat="44.99187850490237" lon="8.04242503360641"><ele>245.0</ele><time>2026-04-11T11:20:17.999Z</time></trkpt><trkpt lat="44.991819781192774" lon="8.042562070423505"><ele>245.0</ele><time>2026-04-11T11:20:19.999Z</time></trkpt><trkpt lat="44.99175465677487" lon="8.042704484054351"><ele>245.0</ele><time>2026-04-11T11:20:21.999Z</time></trkpt><trkpt lat="44.99169696539367" lon="8.042855121416224"><ele>245.0</ele><time>2026-04-11T11:20:23.999Z</time></trkpt><trkpt lat="44.99165163477318" lon="8.043000138486143"><ele>245.00000000000003</ele><time>2026-04-11T11:20:25.999Z</time></trkpt><trkpt lat="44.991617825642194" lon="8.043113400916893"><ele>245.0</ele><time>2026-04-11T11:20:27.999Z</time></trkpt><trkpt lat="44.99156326113983" lon="8.043219190516341"><ele>245.0</ele><time>2026-04-11T11:20:29.999Z</time></trkpt><trkpt lat="44.991513283263046" lon="8.043314575976199"><ele>245.0</ele><time>2026-04-11T11:20:31.999Z</time></trkpt><trkpt lat="44.99146588250003" lon="8.043417408287645"><ele>245.00000000000003</ele><time>2026-04-11T11:20:33.999Z</time></trkpt><trkpt lat="44.991413437460004" lon="8.04351099714083"><ele>245.0</ele><time>2026-04-11T11:20:35.999Z</time></trkpt><trkpt lat="44.99136405327908" lon="8.04360808202234"><ele>244.50000000000003</ele><time>2026-04-11T11:20:38.999Z</time></trkpt><trkpt lat="44.99130071517386" lon="8.043703516638095"><ele>244.0</ele><time>2026-04-11T11:20:41.999Z</time></trkpt><trkpt lat="44.99123358290747" lon="8.043755765996794"><ele>243.5</ele><time>2026-04-11T11:20:43.999Z</time></trkpt><trkpt lat="44.99116422040645" lon="8.043797403911618"><ele>243.0</ele><time>2026-04-11T11:20:45.999Z</time></trkpt><trkpt lat="44.99109995284301" lon="8.043847106439047"><ele>242.50000000000003</ele><time>2026-04-11T11:20:47.999Z</time></trkpt><trkpt lat="44.99102520108296" lon="8.043884542703434"><ele>242.0</ele><time>2026-04-11T11:20:49.999Z</time></trkpt><trkpt lat="44.99094767976002" lon="8.04393752820402"><ele>242.00000000000003</ele><time>2026-04-11T11:20:51.999Z</time></trkpt><trkpt lat="44.99088181130638" lon="8.043976736220024"><ele>242.0</ele><time>2026-04-11T11:20:53.999Z</time></trkpt><trkpt lat="44.99080096739149" lon="8.043996070838283"><ele>242.0</ele><time>2026-04-11T11:20:57.999Z</time></trkpt><trkpt lat="44.99073081215029" lon="8.044042544533601"><ele>242.0</ele><time>2026-04-11T11:20:59.999Z</time></trkpt><trkpt lat="44.990671653440835" lon="8.044097440672115"><ele>242.00000000000003</ele><time>2026-04-11T11:21:01.999Z</time></trkpt><trkpt lat="44.99059905142559" lon="8.044170560512962"><ele>242.0</ele><time>2026-04-11T11:21:04.999Z</time></trkpt><trkpt lat="44.99051364905889" lon="8.04427608612252"><ele>243.2</ele><time>2026-04-11T11:21:08Z</time></trkpt><trkpt lat="44.99047727897834" lon="8.04441842159713"><ele>244.39999999999998</ele><time>2026-04-11T11:21:10Z</time></trkpt><trkpt lat="44.99045450415667" lon="8.044577259188342"><ele>245.60000000000002</ele><time>2026-04-11T11:21:12Z</time></trkpt><trkpt lat="44.99043895905899" lon="8.044724038782846"><ele>246.8</ele><time>2026-04-11T11:21:14Z</time></trkpt><trkpt lat="44.99042074607009" lon="8.044883041174057"><ele>248.0</ele><time>2026-04-11T11:21:16Z</time></trkpt><trkpt lat="44.99039405523586" lon="8.044980332340819"><ele>246.83333333333334</ele><time>2026-04-11T11:21:17Z</time></trkpt><trkpt lat="44.990334391553276" lon="8.04505262451424"><ele>245.66666666666669</ele><time>2026-04-11T11:21:18Z</time></trkpt><trkpt lat="44.990257929777705" lon="8.045098289440979"><ele>244.5</ele><time>2026-04-11T11:21:19Z</time></trkpt><trkpt lat="44.990196159233086" lon="8.045151323082177"><ele>243.33333333333331</ele><time>2026-04-11T11:21:20Z</time></trkpt><trkpt lat="44.99012702551425" lon="8.045224589810273"><ele>242.16666666666666</ele><time>2026-04-11T11:21:21Z</time></trkpt><trkpt lat="44.990059543905616" lon="8.045307360290106"><ele>241.0</ele><time>2026-04-11T11:21:22Z</time></trkpt><trkpt lat="44.99000192981227" lon="8.045391969075602"><ele>240.99999999999997</ele><time>2026-04-11T11:21:23Z</time></trkpt><trkpt lat="44.98994234365981" lon="8.045482862797305"><ele>241.0</ele><time>2026-04-11T11:21:24Z</time></trkpt><trkpt lat="44.98988858723283" lon="8.04555761382754"><ele>241.0</ele><time>2026-04-11T11:21:25Z</time></trkpt><trkpt lat="44.98982513425491" lon="8.04563640958957"><ele>241.0</ele><time>2026-04-11T11:21:26Z</time></trkpt><trkpt lat="44.989761619586204" lon="8.045681091263631"><ele>240.99999999999997</ele><time>2026-04-11T11:21:27Z</time></trkpt><trkpt lat="44.98970393861572" lon="8.045741458891857"><ele>241.0</ele><time>2026-04-11T11:21:28Z</time></trkpt><trkpt lat="44.98965297816035" lon="8.045827602394077"><ele>240.14285714285717</ele><time>2026-04-11T11:21:29Z</time></trkpt><trkpt lat="44.989586698819586" lon="8.045881681504804"><ele>239.2857142857143</ele><time>2026-04-11T11:21:30Z</time></trkpt><trkpt lat="44.989528885305056" lon="8.045958813295487"><ele>238.42857142857144</ele><time>2026-04-11T11:21:31Z</time></trkpt><trkpt lat="44.98949070629784" lon="8.046041475268755"><ele>237.57142857142856</ele><time>2026-04-11T11:21:32Z</time></trkpt><trkpt lat="44.989443502520075" lon="8.04610892427252"><ele>236.7142857142857</ele><time>2026-04-11T11:21:33Z</time></trkpt><trkpt lat="44.98939571680527" lon="8.04617270023655"><ele>235.85714285714283</ele><time>2026-04-11T11:21:34Z</time></trkpt><trkpt lat="44.9893348245424" lon="8.046216924334754"><ele>235.0</ele><time>2026-04-11T11:21:35Z</time></trkpt><trkpt lat="44.989249021173904" lon="8.046330206454027"><ele>235.4</ele><time>2026-04-11T11:21:37Z</time></trkpt><trkpt lat="44.98917043224703" lon="8.04643857964876"><ele>235.8</ele><time>2026-04-11T11:21:39Z</time></trkpt><trkpt lat="44.98911296048254" lon="8.04656489004561"><ele>236.2</ele><time>2026-04-11T11:21:41Z</time></trkpt><trkpt lat="44.98905339892413" lon="8.046667528128507"><ele>236.6</ele><time>2026-04-11T11:21:43Z</time></trkpt><trkpt lat="44.98900302636692" lon="8.046817451802713"><ele>237.0</ele><time>2026-04-11T11:21:45Z</time></trkpt><trkpt lat="44.98896224328304" lon="8.046890300945487"><ele>237.6</ele><time>2026-04-11T11:21:46Z</time></trkpt><trkpt lat="44.98887860069371" lon="8.047006642977513"><ele>238.2</ele><time>2026-04-11T11:21:48Z</time></trkpt><trkpt lat="44.98880781151732" lon="8.047054890808615"><ele>238.8</ele><time>2026-04-11T11:21:49Z</time></trkpt><trkpt lat="44.98874243318886" lon="8.04709340884697"><ele>239.4</ele><time>2026-04-11T11:21:50Z</time></trkpt><trkpt lat="44.98860842645427" lon="8.047128282845623"><ele>240.0</ele><time>2026-04-11T11:21:52Z</time></trkpt><trkpt lat="44.98854640483266" lon="8.04715689054595"><ele>240.0</ele><time>2026-04-11T11:21:53Z</time></trkpt><trkpt lat="44.98846610523446" lon="8.047228947472925"><ele>240.0</ele><time>2026-04-11T11:21:54Z</time></trkpt><trkpt lat="44.98839293053542" lon="8.047278604623681"><ele>240.0</ele><time>2026-04-11T11:21:55Z</time></trkpt><trkpt lat="44.98834323396637" lon="8.047369183318448"><ele>240.0</ele><time>2026-04-11T11:21:56Z</time></trkpt><trkpt lat="44.988281693528165" lon="8.047432630281396"><ele>240.0</ele><time>2026-04-11T11:21:57Z</time></trkpt><trkpt lat="44.98821411692466" lon="8.047478161613242"><ele>240.0</ele><time>2026-04-11T11:21:58Z</time></trkpt><trkpt lat="44.98814492144663" lon="8.04751799323425"><ele>239.5</ele><time>2026-04-11T11:21:59Z</time></trkpt><trkpt lat="44.98807152940904" lon="8.04755537178484"><ele>239.0</ele><time>2026-04-11T11:22:00Z</time></trkpt><trkpt lat="44.988010219360866" lon="8.047600371295957"><ele>238.5</ele><time>2026-04-11T11:22:01Z</time></trkpt><trkpt lat="44.98794329004965" lon="8.047638262801094"><ele>238.0</ele><time>2026-04-11T11:22:02Z</time></trkpt><trkpt lat="44.98787187515796" lon="8.047688146644955"><ele>237.5</ele><time>2026-04-11T11:22:03Z</time></trkpt><trkpt lat="44.98780342228638" lon="8.047733451106469"><ele>237.0</ele><time>2026-04-11T11:22:04Z</time></trkpt><trkpt lat="44.987731328640265" lon="8.047784784590421"><ele>237.0</ele><time>2026-04-11T11:22:05Z</time></trkpt><trkpt lat="44.98765282409102" lon="8.04784009410556"><ele>237.0</ele><time>2026-04-11T11:22:06Z</time></trkpt><trkpt lat="44.98757649120879" lon="8.047894738981428"><ele>237.0</ele><time>2026-04-11T11:22:07Z</time></trkpt><trkpt lat="44.98750009149102" lon="8.047946772695468"><ele>237.0</ele><time>2026-04-11T11:22:08Z</time></trkpt><trkpt lat="44.98742239325999" lon="8.047994806435383"><ele>237.0</ele><time>2026-04-11T11:22:08.999Z</time></trkpt><trkpt lat="44.987340379967456" lon="8.048041377427301"><ele>237.0</ele><time>2026-04-11T11:22:09.999Z</time></trkpt><trkpt lat="44.987265909473656" lon="8.048091006034863"><ele>237.0</ele><time>2026-04-11T11:22:10.999Z</time></trkpt><trkpt lat="44.98718300841995" lon="8.048143535979992"><ele>237.0</ele><time>2026-04-11T11:22:11.999Z</time></trkpt><trkpt lat="44.98710340255732" lon="8.048206867733992"><ele>237.0</ele><time>2026-04-11T11:22:12.999Z</time></trkpt><trkpt lat="44.98702212691561" lon="8.048268720248233"><ele>237.0</ele><time>2026-04-11T11:22:13.999Z</time></trkpt><trkpt lat="44.98692958594469" lon="8.048315627191736"><ele>237.0</ele><time>2026-04-11T11:22:14.999Z</time></trkpt><trkpt lat="44.98684760759986" lon="8.04838972811514"><ele>237.0</ele><time>2026-04-11T11:22:15.999Z</time></trkpt><trkpt lat="44.98677620083167" lon="8.048467246365256"><ele>237.0</ele><time>2026-04-11T11:22:16.999Z</time></trkpt><trkpt lat="44.9867012267506" lon="8.048544800416842"><ele>237.0</ele><time>2026-04-11T11:22:17.999Z</time></trkpt><trkpt lat="44.98662405488312" lon="8.04862453460235"><ele>237.0</ele><time>2026-04-11T11:22:18.999Z</time></trkpt><trkpt lat="44.98653532842283" lon="8.048695261562816"><ele>237.0</ele><time>2026-04-11T11:22:19.999Z</time></trkpt><trkpt lat="44.9864529986506" lon="8.048785281257475"><ele>234.8</ele><time>2026-04-11T11:22:20.999Z</time></trkpt><trkpt lat="44.986368174165705" lon="8.048874758290955"><ele>232.6</ele><time>2026-04-11T11:22:21.999Z</time></trkpt><trkpt lat="44.98628664798202" lon="8.048976838816891"><ele>230.40000000000003</ele><time>2026-04-11T11:22:22.999Z</time></trkpt><trkpt lat="44.986196030245445" lon="8.049069753614607"><ele>228.20000000000002</ele><time>2026-04-11T11:22:23.999Z</time></trkpt><trkpt lat="44.98611672352892" lon="8.049191878513732"><ele>226.0</ele><time>2026-04-11T11:22:24.999Z</time></trkpt><trkpt lat="44.98603335540483" lon="8.049311723794384"><ele>226.0</ele><time>2026-04-11T11:22:25.999Z</time></trkpt><trkpt lat="44.985952669592294" lon="8.049430841825707"><ele>226.0</ele><time>2026-04-11T11:22:26.999Z</time></trkpt><trkpt lat="44.98586407955235" lon="8.049549422396776"><ele>226.0</ele><time>2026-04-11T11:22:27.999Z</time></trkpt><trkpt lat="44.98577833344175" lon="8.049665954261013"><ele>226.0</ele><time>2026-04-11T11:22:28.999Z</time></trkpt><trkpt lat="44.98569303796219" lon="8.049778486536207"><ele>222.75</ele><time>2026-04-11T11:22:29.999Z</time></trkpt><trkpt lat="44.985607212007025" lon="8.049890808663635"><ele>219.5</ele><time>2026-04-11T11:22:30.999Z</time></trkpt><trkpt lat="44.98551917450149" lon="8.049993786561437"><ele>216.25</ele><time>2026-04-11T11:22:31.999Z</time></trkpt><trkpt lat="44.985428314118764" lon="8.050093790368694"><ele>213.0</ele><time>2026-04-11T11:22:32.999Z</time></trkpt><trkpt lat="44.98534495657643" lon="8.050196779829946"><ele>213.0</ele><time>2026-04-11T11:22:33.999Z</time></trkpt><trkpt lat="44.985266704117734" lon="8.050296226192549"><ele>213.0</ele><time>2026-04-11T11:22:34.999Z</time></trkpt><trkpt lat="44.985193154671116" lon="8.05039645224841"><ele>213.0</ele><time>2026-04-11T11:22:35.999Z</time></trkpt><trkpt lat="44.985137554402115" lon="8.050500204564981"><ele>213.0</ele><time>2026-04-11T11:22:36.999Z</time></trkpt><trkpt lat="44.9850879031068" lon="8.050607666633951"><ele>213.0</ele><time>2026-04-11T11:22:37.999Z</time></trkpt><trkpt lat="44.98506536893696" lon="8.05069673122344"><ele>213.16666666666666</ele><time>2026-04-11T11:22:38.999Z</time></trkpt><trkpt lat="44.985031794392214" lon="8.050800761158984"><ele>213.33333333333331</ele><time>2026-04-11T11:22:39.999Z</time></trkpt><trkpt lat="44.9850087612606" lon="8.050890289148633"><ele>213.5</ele><time>2026-04-11T11:22:40.999Z</time></trkpt><trkpt lat="44.98497748011024" lon="8.051005370011595"><ele>213.66666666666666</ele><time>2026-04-11T11:22:41.999Z</time></trkpt><trkpt lat="44.98494014106519" lon="8.051109027269137"><ele>213.83333333333331</ele><time>2026-04-11T11:22:42.999Z</time></trkpt><trkpt lat="44.9849111961334" lon="8.051205271721832"><ele>214.0</ele><time>2026-04-11T11:22:43.999Z</time></trkpt><trkpt lat="44.984885448074415" lon="8.051303020735023"><ele>213.99999999999997</ele><time>2026-04-11T11:22:44.999Z</time></trkpt><trkpt lat="44.98485507480287" lon="8.051403217886252"><ele>214.0</ele><time>2026-04-11T11:22:45.999Z</time></trkpt><trkpt lat="44.98482651703801" lon="8.051493230498856"><ele>214.0</ele><time>2026-04-11T11:22:46.999Z</time></trkpt><trkpt lat="44.984797726259345" lon="8.05158292478128"><ele>214.0</ele><time>2026-04-11T11:22:47.999Z</time></trkpt><trkpt lat="44.98476687792022" lon="8.051674268514464"><ele>213.99999999999997</ele><time>2026-04-11T11:22:48.999Z</time></trkpt><trkpt lat="44.984744897566394" lon="8.051759769469312"><ele>214.0</ele><time>2026-04-11T11:22:49.999Z</time></trkpt><trkpt lat="44.9846965365407" lon="8.051913670791116"><ele>216.6</ele><time>2026-04-11T11:22:51.999Z</time></trkpt><trkpt lat="44.984647561346605" lon="8.052064733651022"><ele>219.2</ele><time>2026-04-11T11:22:53.999Z</time></trkpt><trkpt lat="44.984600003681855" lon="8.05219050401864"><ele>221.79999999999998</ele><time>2026-04-11T11:22:55.999Z</time></trkpt><trkpt lat="44.98457530429578" lon="8.052304691343668"><ele>224.39999999999998</ele><time>2026-04-11T11:22:57.999Z</time></trkpt><trkpt lat="44.9845588135054" lon="8.052415722837212"><ele>227.0</ele><time>2026-04-11T11:22:59.999Z</time></trkpt><trkpt lat="44.984540860399854" lon="8.052565365574441"><ele>228.00000000000003</ele><time>2026-04-11T11:23:01.999Z</time></trkpt><trkpt lat="44.984524190922066" lon="8.052727046076738"><ele>229.0</ele><time>2026-04-11T11:23:03.999Z</time></trkpt><trkpt lat="44.98452498978398" lon="8.05283252291908"><ele>230.0</ele><time>2026-04-11T11:23:04.999Z</time></trkpt><trkpt lat="44.98450903859172" lon="8.05293721200305"><ele>231.0</ele><time>2026-04-11T11:23:05.999Z</time></trkpt><trkpt lat="44.98449091494577" lon="8.053051722967984"><ele>232.00000000000003</ele><time>2026-04-11T11:23:06.999Z</time></trkpt><trkpt lat="44.9844702056709" lon="8.053178527607297"><ele>233.0</ele><time>2026-04-11T11:23:07.999Z</time></trkpt><trkpt lat="44.984448257263466" lon="8.053305957212375"><ele>231.16666666666669</ele><time>2026-04-11T11:23:08.999Z</time></trkpt><trkpt lat="44.98441827194633" lon="8.053428593117577"><ele>229.33333333333334</ele><time>2026-04-11T11:23:09.999Z</time></trkpt><trkpt lat="44.984375023342615" lon="8.05353701920701"><ele>227.5</ele><time>2026-04-11T11:23:10.999Z</time></trkpt><trkpt lat="44.98432073150365" lon="8.053636368239196"><ele>225.66666666666669</ele><time>2026-04-11T11:23:11.999Z</time></trkpt><trkpt lat="44.984265187977975" lon="8.05372056767131"><ele>223.83333333333334</ele><time>2026-04-11T11:23:13Z</time></trkpt><trkpt lat="44.98419962366972" lon="8.05377114995819"><ele>222.0</ele><time>2026-04-11T11:23:14Z</time></trkpt><trkpt lat="44.9841298614349" lon="8.053810974580273"><ele>222.0</ele><time>2026-04-11T11:23:15Z</time></trkpt><trkpt lat="44.984055015704264" lon="8.053835168242232"><ele>222.0</ele><time>2026-04-11T11:23:16Z</time></trkpt><trkpt lat="44.983987572507345" lon="8.053855589748416"><ele>222.0</ele><time>2026-04-11T11:23:17Z</time></trkpt><trkpt lat="44.98387153241597" lon="8.053838578541205"><ele>222.0</ele><time>2026-04-11T11:23:19Z</time></trkpt><trkpt lat="44.98375436793462" lon="8.053859624699685"><ele>222.0</ele><time>2026-04-11T11:23:21Z</time></trkpt><trkpt lat="44.98368050748662" lon="8.053967699090085"><ele>222.0</ele><time>2026-04-11T11:23:23Z</time></trkpt><trkpt lat="44.98363571018232" lon="8.054118906156123"><ele>222.0</ele><time>2026-04-11T11:23:25Z</time></trkpt><trkpt lat="44.9836106288238" lon="8.054297088459542"><ele>222.0</ele><time>2026-04-11T11:23:27Z</time></trkpt><trkpt lat="44.983602510252716" lon="8.054401181415978"><ele>222.0</ele><time>2026-04-11T11:23:28Z</time></trkpt><trkpt lat="44.98359870732967" lon="8.05450517096287"><ele>222.0</ele><time>2026-04-11T11:23:29Z</time></trkpt><trkpt lat="44.983602697770216" lon="8.054610011703295"><ele>220.66666666666666</ele><time>2026-04-11T11:23:30Z</time></trkpt><trkpt lat="44.98361339458739" lon="8.05471752656044"><ele>219.33333333333331</ele><time>2026-04-11T11:23:31Z</time></trkpt><trkpt lat="44.98363798218961" lon="8.054815733698815"><ele>218.0</ele><time>2026-04-11T11:23:32Z</time></trkpt><trkpt lat="44.983685282103515" lon="8.054907551508816"><ele>216.66666666666666</ele><time>2026-04-11T11:23:33Z</time></trkpt><trkpt lat="44.98372106993872" lon="8.055005967570159"><ele>215.33333333333331</ele><time>2026-04-11T11:23:34Z</time></trkpt><trkpt lat="44.98375865302324" lon="8.055130579747408"><ele>214.0</ele><time>2026-04-11T11:23:35Z</time></trkpt><trkpt lat="44.983810332850354" lon="8.055249607752929"><ele>211.25</ele><time>2026-04-11T11:23:36Z</time></trkpt><trkpt lat="44.98386598651599" lon="8.05537962644855"><ele>208.5</ele><time>2026-04-11T11:23:37Z</time></trkpt><trkpt lat="44.98392259230831" lon="8.055520782663443"><ele>205.75</ele><time>2026-04-11T11:23:38Z</time></trkpt><trkpt lat="44.98398268012182" lon="8.055662009571764"><ele>203.0</ele><time>2026-04-11T11:23:39Z</time></trkpt><trkpt lat="44.98404960497074" lon="8.055808875260144"><ele>201.0</ele><time>2026-04-11T11:23:40Z</time></trkpt><trkpt lat="44.98410213472491" lon="8.05596108627269"><ele>199.0</ele><time>2026-04-11T11:23:41Z</time></trkpt><trkpt lat="44.984147896509356" lon="8.056105120216513"><ele>197.0</ele><time>2026-04-11T11:23:42Z</time></trkpt><trkpt lat="44.9841772678494" lon="8.056231824965069"><ele>195.0</ele><time>2026-04-11T11:23:43Z</time></trkpt><trkpt lat="44.98420998592794" lon="8.056350074060413"><ele>193.0</ele><time>2026-04-11T11:23:44Z</time></trkpt><trkpt lat="44.98423813624176" lon="8.056468721362167"><ele>192.49999999999997</ele><time>2026-04-11T11:23:45Z</time></trkpt><trkpt lat="44.98425569878854" lon="8.056568976268757"><ele>192.0</ele><time>2026-04-11T11:23:46Z</time></trkpt><trkpt lat="44.98427381539792" lon="8.056660205134376"><ele>191.5</ele><time>2026-04-11T11:23:47Z</time></trkpt><trkpt lat="44.984301956864826" lon="8.056808502121816"><ele>191.0</ele><time>2026-04-11T11:23:49Z</time></trkpt><trkpt lat="44.98432224089873" lon="8.05691182416767"><ele>190.5</ele><time>2026-04-11T11:23:51Z</time></trkpt><trkpt lat="44.98433920267805" lon="8.05702077714985"><ele>190.0</ele><time>2026-04-11T11:23:54Z</time></trkpt><trkpt lat="44.98443597235135" lon="8.056992024590793"><ele>188.6</ele><time>2026-04-11T11:23:55Z</time></trkpt><trkpt lat="44.984517406099094" lon="8.056935874839455"><ele>187.2</ele><time>2026-04-11T11:23:57Z</time></trkpt><trkpt lat="44.98460312513998" lon="8.056898760870943"><ele>185.8</ele><time>2026-04-11T11:23:59Z</time></trkpt><trkpt lat="44.98470365098911" lon="8.056871319039846"><ele>184.4</ele><time>2026-04-11T11:24:01Z</time></trkpt><trkpt lat="44.984799444063235" lon="8.056824209636476"><ele>183.0</ele><time>2026-04-11T11:24:03Z</time></trkpt><trkpt lat="44.9849078801693" lon="8.056780104499062"><ele>182.8</ele><time>2026-04-11T11:24:05Z</time></trkpt><trkpt lat="44.98501460445825" lon="8.056728239493673"><ele>182.60000000000002</ele><time>2026-04-11T11:24:07Z</time></trkpt><trkpt lat="44.98513035404679" lon="8.056673571280733"><ele>182.39999999999998</ele><time>2026-04-11T11:24:09Z</time></trkpt><trkpt lat="44.98518792213477" lon="8.056636662672338"><ele>182.2</ele><time>2026-04-11T11:24:10Z</time></trkpt><trkpt lat="44.985295213934904" lon="8.056601951222472"><ele>182.0</ele><time>2026-04-11T11:24:12Z</time></trkpt><trkpt lat="44.98540449616223" lon="8.056555585372507"><ele>182.25</ele><time>2026-04-11T11:24:14Z</time></trkpt><trkpt lat="44.98551727865368" lon="8.05650567390332"><ele>182.5</ele><time>2026-04-11T11:24:16Z</time></trkpt><trkpt lat="44.985638969450655" lon="8.056481851326087"><ele>182.75</ele><time>2026-04-11T11:24:17.999Z</time></trkpt><trkpt lat="44.98575549306562" lon="8.056468939472229"><ele>183.0</ele><time>2026-04-11T11:24:19.999Z</time></trkpt><trkpt lat="44.98586168410536" lon="8.056484233727998"><ele>183.0</ele><time>2026-04-11T11:24:21.999Z</time></trkpt><trkpt lat="44.98596961900721" lon="8.056506954150036"><ele>183.0</ele><time>2026-04-11T11:24:23.999Z</time></trkpt><trkpt lat="44.98607195697555" lon="8.056550773276085"><ele>183.0</ele><time>2026-04-11T11:24:25.999Z</time></trkpt><trkpt lat="44.98617069544969" lon="8.056610431845494"><ele>183.0</ele><time>2026-04-11T11:24:27.999Z</time></trkpt><trkpt lat="44.98625648712518" lon="8.056683774857905"><ele>183.0</ele><time>2026-04-11T11:24:29.999Z</time></trkpt><trkpt lat="44.986338677721825" lon="8.056778670121046"><ele>183.2</ele><time>2026-04-11T11:24:31.999Z</time></trkpt><trkpt lat="44.986420419173115" lon="8.05688715298328"><ele>183.4</ele><time>2026-04-11T11:24:33.999Z</time></trkpt><trkpt lat="44.98649394283654" lon="8.05701757660645"><ele>183.6</ele><time>2026-04-11T11:24:35.999Z</time></trkpt><trkpt lat="44.98652710622012" lon="8.05709787277673"><ele>183.79999999999998</ele><time>2026-04-11T11:24:36.999Z</time></trkpt><trkpt lat="44.98661542491166" lon="8.057208532610439"><ele>184.0</ele><time>2026-04-11T11:24:38.999Z</time></trkpt><trkpt lat="44.98669505516691" lon="8.057334025244964"><ele>186.0</ele><time>2026-04-11T11:24:40.999Z</time></trkpt><trkpt lat="44.9867354227368" lon="8.057404711260473"><ele>188.0</ele><time>2026-04-11T11:24:41.999Z</time></trkpt><trkpt lat="44.98681851601254" lon="8.057531969833162"><ele>190.0</ele><time>2026-04-11T11:24:43.999Z</time></trkpt><trkpt lat="44.986861521906405" lon="8.057601732164304"><ele>192.0</ele><time>2026-04-11T11:24:44.999Z</time></trkpt><trkpt lat="44.98690453306273" lon="8.057670864801874"><ele>193.99999999999997</ele><time>2026-04-11T11:24:45.999Z</time></trkpt><trkpt lat="44.9869908259657" lon="8.057798464460676"><ele>196.0</ele><time>2026-04-11T11:24:47.999Z</time></trkpt><trkpt lat="44.98706881467779" lon="8.05792877905722"><ele>196.0</ele><time>2026-04-11T11:24:49.999Z</time></trkpt><trkpt lat="44.987151433526805" lon="8.058067178460666"><ele>196.0</ele><time>2026-04-11T11:24:51.999Z</time></trkpt><trkpt lat="44.987232400995026" lon="8.058194614295513"><ele>196.0</ele><time>2026-04-11T11:24:53.999Z</time></trkpt><trkpt lat="44.98730909514234" lon="8.058329375182446"><ele>196.0</ele><time>2026-04-11T11:24:55.999Z</time></trkpt><trkpt lat="44.987392537177634" lon="8.0584621429716"><ele>196.5</ele><time>2026-04-11T11:24:57.999Z</time></trkpt><trkpt lat="44.98747280440298" lon="8.058588050694546"><ele>197.0</ele><time>2026-04-11T11:24:59.999Z</time></trkpt><trkpt lat="44.98755473711901" lon="8.058714412988932"><ele>197.5</ele><time>2026-04-11T11:25:01.999Z</time></trkpt><trkpt lat="44.98763649215009" lon="8.058844449424182"><ele>198.0</ele><time>2026-04-11T11:25:03.999Z</time></trkpt><trkpt lat="44.98772086020206" lon="8.058971756810967"><ele>198.0</ele><time>2026-04-11T11:25:05.999Z</time></trkpt><trkpt lat="44.98779218039535" lon="8.059091968731318"><ele>198.0</ele><time>2026-04-11T11:25:07.999Z</time></trkpt><trkpt lat="44.987875643992545" lon="8.059209124277979"><ele>198.0</ele><time>2026-04-11T11:25:09.999Z</time></trkpt><trkpt lat="44.987950049108036" lon="8.059334792848084"><ele>198.0</ele><time>2026-04-11T11:25:11.999Z</time></trkpt><trkpt lat="44.98802834081964" lon="8.059453836594493"><ele>196.0</ele><time>2026-04-11T11:25:13.999Z</time></trkpt><trkpt lat="44.98810396133332" lon="8.05957628434657"><ele>194.0</ele><time>2026-04-11T11:25:15.999Z</time></trkpt><trkpt lat="44.988175653580996" lon="8.059709193937225"><ele>192.0</ele><time>2026-04-11T11:25:17.999Z</time></trkpt><trkpt lat="44.98825799379003" lon="8.059835526185706"><ele>190.0</ele><time>2026-04-11T11:25:20Z</time></trkpt><trkpt lat="44.98830936040881" lon="8.059896086446114"><ele>188.0</ele><time>2026-04-11T11:25:21Z</time></trkpt><trkpt lat="44.988382208510764" lon="8.06003985659828"><ele>188.0</ele><time>2026-04-11T11:25:23Z</time></trkpt><trkpt lat="44.98842653185029" lon="8.060104646313253"><ele>188.0</ele><time>2026-04-11T11:25:24Z</time></trkpt><trkpt lat="44.98846705479669" lon="8.060173095494122"><ele>188.0</ele><time>2026-04-11T11:25:25Z</time></trkpt><trkpt lat="44.988544252471094" lon="8.060293909246646"><ele>188.0</ele><time>2026-04-11T11:25:27Z</time></trkpt><trkpt lat="44.988635867306506" lon="8.06041826219418"><ele>188.0</ele><time>2026-04-11T11:25:29Z</time></trkpt><trkpt lat="44.988718581891874" lon="8.060548307263133"><ele>188.0</ele><time>2026-04-11T11:25:31Z</time></trkpt><trkpt lat="44.98876122894548" lon="8.060615259614035"><ele>188.0</ele><time>2026-04-11T11:25:32Z</time></trkpt><trkpt lat="44.98884469063617" lon="8.060742987280614"><ele>188.0</ele><time>2026-04-11T11:25:34Z</time></trkpt><trkpt lat="44.9889333264837" lon="8.060870955006843"><ele>188.0</ele><time>2026-04-11T11:25:36Z</time></trkpt><trkpt lat="44.98902245724719" lon="8.06098338555644"><ele>188.0</ele><time>2026-04-11T11:25:38Z</time></trkpt><trkpt lat="44.98911854836611" lon="8.061082402409792"><ele>188.0</ele><time>2026-04-11T11:25:40Z</time></trkpt><trkpt lat="44.989223684778494" lon="8.061168504944995"><ele>188.0</ele><time>2026-04-11T11:25:42Z</time></trkpt><trkpt lat="44.98932709866346" lon="8.061234961552957"><ele>188.0</ele><time>2026-04-11T11:25:44Z</time></trkpt><trkpt lat="44.989435628209655" lon="8.061283868688763"><ele>188.0</ele><time>2026-04-11T11:25:46Z</time></trkpt><trkpt lat="44.98954871499195" lon="8.061318063715717"><ele>188.0</ele><time>2026-04-11T11:25:48Z</time></trkpt><trkpt lat="44.98966122945642" lon="8.06134043117856"><ele>188.0</ele><time>2026-04-11T11:25:50Z</time></trkpt><trkpt lat="44.98977296772882" lon="8.061359231860536"><ele>188.0</ele><time>2026-04-11T11:25:52Z</time></trkpt><trkpt lat="44.989886779986705" lon="8.061350543512038"><ele>188.0</ele><time>2026-04-11T11:25:54Z</time></trkpt><trkpt lat="44.98999826781988" lon="8.061332333635974"><ele>187.5</ele><time>2026-04-11T11:25:56Z</time></trkpt><trkpt lat="44.990108197354175" lon="8.061312121482207"><ele>187.0</ele><time>2026-04-11T11:25:58Z</time></trkpt><trkpt lat="44.99021946288827" lon="8.061291325585207"><ele>186.5</ele><time>2026-04-11T11:26:00Z</time></trkpt><trkpt lat="44.99034484710026" lon="8.061269613879169"><ele>186.0</ele><time>2026-04-11T11:26:02Z</time></trkpt><trkpt lat="44.99045699450441" lon="8.061247893740004"><ele>186.0</ele><time>2026-04-11T11:26:04Z</time></trkpt><trkpt lat="44.99056757163277" lon="8.061228537165077"><ele>186.0</ele><time>2026-04-11T11:26:06Z</time></trkpt><trkpt lat="44.99067729548058" lon="8.061212154803771"><ele>186.0</ele><time>2026-04-11T11:26:08Z</time></trkpt><trkpt lat="44.990784343720165" lon="8.061192039232155"><ele>186.0</ele><time>2026-04-11T11:26:10Z</time></trkpt><trkpt lat="44.99089184726975" lon="8.061168450590674"><ele>186.0</ele><time>2026-04-11T11:26:12Z</time></trkpt><trkpt lat="44.99099937950886" lon="8.06115135194961"><ele>187.20000000000002</ele><time>2026-04-11T11:26:14Z</time></trkpt><trkpt lat="44.99110754923442" lon="8.061133813112242"><ele>188.4</ele><time>2026-04-11T11:26:16Z</time></trkpt><trkpt lat="44.99121429029145" lon="8.061113233917649"><ele>189.6</ele><time>2026-04-11T11:26:17.999Z</time></trkpt><trkpt lat="44.991322884387934" lon="8.061098061841186"><ele>190.8</ele><time>2026-04-11T11:26:19.999Z</time></trkpt><trkpt lat="44.99142778826433" lon="8.06108206665968"><ele>192.0</ele><time>2026-04-11T11:26:21.999Z</time></trkpt><trkpt lat="44.99153290767952" lon="8.061063793358153"><ele>192.0</ele><time>2026-04-11T11:26:23.999Z</time></trkpt><trkpt lat="44.99163630320234" lon="8.061046205154472"><ele>192.0</ele><time>2026-04-11T11:26:25.999Z</time></trkpt><trkpt lat="44.99173974603705" lon="8.061031458831945"><ele>192.0</ele><time>2026-04-11T11:26:27.999Z</time></trkpt><trkpt lat="44.991846145830614" lon="8.061018199337951"><ele>192.0</ele><time>2026-04-11T11:26:29.999Z</time></trkpt><trkpt lat="44.991950660364594" lon="8.061003986212315"><ele>192.0</ele><time>2026-04-11T11:26:31.999Z</time></trkpt><trkpt lat="44.99205683946187" lon="8.06098666847781"><ele>190.6</ele><time>2026-04-11T11:26:33.999Z</time></trkpt><trkpt lat="44.99216133101459" lon="8.060969036255996"><ele>189.2</ele><time>2026-04-11T11:26:35.999Z</time></trkpt><trkpt lat="44.99226704676607" lon="8.060956072935868"><ele>187.8</ele><time>2026-04-11T11:26:37.999Z</time></trkpt><trkpt lat="44.99236717801028" lon="8.060940345492712"><ele>186.4</ele><time>2026-04-11T11:26:39.999Z</time></trkpt><trkpt lat="44.992478264453574" lon="8.060925394370129"><ele>185.0</ele><time>2026-04-11T11:26:41.999Z</time></trkpt><trkpt lat="44.99258326280204" lon="8.060906668458744"><ele>185.0</ele><time>2026-04-11T11:26:43.999Z</time></trkpt><trkpt lat="44.99268951904055" lon="8.060886834524114"><ele>185.0</ele><time>2026-04-11T11:26:45.999Z</time></trkpt><trkpt lat="44.99279946416574" lon="8.060870044255326"><ele>185.0</ele><time>2026-04-11T11:26:47.999Z</time></trkpt><trkpt lat="44.992902867505805" lon="8.060852428930156"><ele>185.0</ele><time>2026-04-11T11:26:49.999Z</time></trkpt><trkpt lat="44.99301069344793" lon="8.06083070814038"><ele>185.0</ele><time>2026-04-11T11:26:51.999Z</time></trkpt><trkpt lat="44.99311933173455" lon="8.060814044041212"><ele>185.0</ele><time>2026-04-11T11:26:53.999Z</time></trkpt><trkpt lat="44.99322586819188" lon="8.060794311253744"><ele>185.0</ele><time>2026-04-11T11:26:55.999Z</time></trkpt><trkpt lat="44.99333678841025" lon="8.060775763481194"><ele>185.0</ele><time>2026-04-11T11:26:57.999Z</time></trkpt><trkpt lat="44.99344080804272" lon="8.060756007544924"><ele>185.0</ele><time>2026-04-11T11:26:59.999Z</time></trkpt><trkpt lat="44.9935484502754" lon="8.060740356809328"><ele>185.0</ele><time>2026-04-11T11:27:01.999Z</time></trkpt><trkpt lat="44.99365438705547" lon="8.060721991471219"><ele>186.0</ele><time>2026-04-11T11:27:03.999Z</time></trkpt><trkpt lat="44.99376635405222" lon="8.060700359044798"><ele>187.0</ele><time>2026-04-11T11:27:05.999Z</time></trkpt><trkpt lat="44.99387659062332" lon="8.060679567678475"><ele>188.0</ele><time>2026-04-11T11:27:07.999Z</time></trkpt><trkpt lat="44.99398835817052" lon="8.060660596018794"><ele>189.0</ele><time>2026-04-11T11:27:09.999Z</time></trkpt><trkpt lat="44.99410065076824" lon="8.060643061068642"><ele>189.79999999999998</ele><time>2026-04-11T11:27:11.999Z</time></trkpt><trkpt lat="44.994204916078395" lon="8.060624980932078"><ele>190.6</ele><time>2026-04-11T11:27:13.999Z</time></trkpt><trkpt lat="44.994319531012124" lon="8.06060140792666"><ele>191.4</ele><time>2026-04-11T11:27:15.999Z</time></trkpt><trkpt lat="44.9944254291162" lon="8.060587944430218"><ele>192.2</ele><time>2026-04-11T11:27:17.999Z</time></trkpt><trkpt lat="44.99453692543722" lon="8.060568945553829"><ele>193.0</ele><time>2026-04-11T11:27:19.999Z</time></trkpt><trkpt lat="44.99465002520371" lon="8.060557005948061"><ele>193.0</ele><time>2026-04-11T11:27:21.999Z</time></trkpt><trkpt lat="44.99476125363141" lon="8.060536868204986"><ele>193.0</ele><time>2026-04-11T11:27:23.999Z</time></trkpt><trkpt lat="44.9948695707327" lon="8.06051628635424"><ele>193.0</ele><time>2026-04-11T11:27:26Z</time></trkpt><trkpt lat="44.99497852688439" lon="8.060503048840973"><ele>193.0</ele><time>2026-04-11T11:27:28Z</time></trkpt><trkpt lat="44.99508283690163" lon="8.06048467761341"><ele>193.0</ele><time>2026-04-11T11:27:30Z</time></trkpt><trkpt lat="44.99518696385713" lon="8.060464542610784"><ele>192.4</ele><time>2026-04-11T11:27:32Z</time></trkpt><trkpt lat="44.99528983877872" lon="8.060444672484794"><ele>191.8</ele><time>2026-04-11T11:27:34Z</time></trkpt><trkpt lat="44.99539350372869" lon="8.060430805101845"><ele>191.2</ele><time>2026-04-11T11:27:36Z</time></trkpt><trkpt lat="44.995497516146294" lon="8.060413120267789"><ele>190.6</ele><time>2026-04-11T11:27:38Z</time></trkpt><trkpt lat="44.99559980151931" lon="8.060396274202017"><ele>190.0</ele><time>2026-04-11T11:27:40Z</time></trkpt><trkpt lat="44.995703622969444" lon="8.060377270806084"><ele>190.0</ele><time>2026-04-11T11:27:42Z</time></trkpt><trkpt lat="44.99580749440807" lon="8.060366449823357"><ele>190.0</ele><time>2026-04-11T11:27:44Z</time></trkpt><trkpt lat="44.99592424231774" lon="8.060355484026914"><ele>190.0</ele><time>2026-04-11T11:27:46Z</time></trkpt><trkpt lat="44.996031439962906" lon="8.060326779682798"><ele>190.0</ele><time>2026-04-11T11:27:48Z</time></trkpt><trkpt lat="44.99614025994699" lon="8.060304282451684"><ele>190.0</ele><time>2026-04-11T11:27:50Z</time></trkpt><trkpt lat="44.99624784560317" lon="8.060290376909965"><ele>190.0</ele><time>2026-04-11T11:27:52Z</time></trkpt><trkpt lat="44.996360011154565" lon="8.06026597040116"><ele>190.0</ele><time>2026-04-11T11:27:54Z</time></trkpt><trkpt lat="44.996466419738766" lon="8.060242139209214"><ele>190.0</ele><time>2026-04-11T11:27:56Z</time></trkpt><trkpt lat="44.99657345592728" lon="8.060222813881333"><ele>190.0</ele><time>2026-04-11T11:27:58Z</time></trkpt><trkpt lat="44.99668661560485" lon="8.060198123469132"><ele>190.0</ele><time>2026-04-11T11:28:00Z</time></trkpt><trkpt lat="44.99679955383868" lon="8.060174244883324"><ele>190.0</ele><time>2026-04-11T11:28:02Z</time></trkpt><trkpt lat="44.99691079144648" lon="8.060156795466224"><ele>190.0</ele><time>2026-04-11T11:28:04Z</time></trkpt><trkpt lat="44.99701624484812" lon="8.060136845766666"><ele>190.0</ele><time>2026-04-11T11:28:06Z</time></trkpt><trkpt lat="44.99712894619853" lon="8.060119377851132"><ele>190.0</ele><time>2026-04-11T11:28:08Z</time></trkpt><trkpt lat="44.997240917316155" lon="8.060100051045179"><ele>190.0</ele><time>2026-04-11T11:28:10Z</time></trkpt><trkpt lat="44.997352623101136" lon="8.060080121121691"><ele>190.0</ele><time>2026-04-11T11:28:12Z</time></trkpt><trkpt lat="44.99746826090332" lon="8.060065307058116"><ele>190.0</ele><time>2026-04-11T11:28:14Z</time></trkpt><trkpt lat="44.997583052489055" lon="8.06003996899196"><ele>190.0</ele><time>2026-04-11T11:28:16Z</time></trkpt><trkpt lat="44.997693388395874" lon="8.060012698425666"><ele>190.0</ele><time>2026-04-11T11:28:18Z</time></trkpt><trkpt lat="44.99780417013777" lon="8.060000969283307"><ele>190.2</ele><time>2026-04-11T11:28:20Z</time></trkpt><trkpt lat="44.997915973780806" lon="8.059983752399576"><ele>190.4</ele><time>2026-04-11T11:28:22Z</time></trkpt><trkpt lat="44.99797876254004" lon="8.059972969616576"><ele>190.60000000000002</ele><time>2026-04-11T11:28:23Z</time></trkpt><trkpt lat="44.99808414890173" lon="8.059954276793572"><ele>190.8</ele><time>2026-04-11T11:28:25Z</time></trkpt><trkpt lat="44.99819394494465" lon="8.059953276460217"><ele>191.0</ele><time>2026-04-11T11:28:27Z</time></trkpt><trkpt lat="44.998298117858994" lon="8.059932270724312"><ele>192.4</ele><time>2026-04-11T11:28:28.999Z</time></trkpt><trkpt lat="44.99840298212118" lon="8.059913483350229"><ele>193.8</ele><time>2026-04-11T11:28:30.999Z</time></trkpt><trkpt lat="44.998507251425764" lon="8.059897860020731"><ele>195.20000000000002</ele><time>2026-04-11T11:28:32.999Z</time></trkpt><trkpt lat="44.998619360262545" lon="8.059881930689855"><ele>196.60000000000002</ele><time>2026-04-11T11:28:34.999Z</time></trkpt><trkpt lat="44.998732905053146" lon="8.059858315148741"><ele>198.0</ele><time>2026-04-11T11:28:36.999Z</time></trkpt><trkpt lat="44.998853762696974" lon="8.0598460267234"><ele>198.0</ele><time>2026-04-11T11:28:38.999Z</time></trkpt><trkpt lat="44.99896610149595" lon="8.059828609102063"><ele>198.0</ele><time>2026-04-11T11:28:40.999Z</time></trkpt><trkpt lat="44.99907563967244" lon="8.059806860932984"><ele>198.0</ele><time>2026-04-11T11:28:42.999Z</time></trkpt><trkpt lat="44.999192763847404" lon="8.059784695529242"><ele>198.0</ele><time>2026-04-11T11:28:44.999Z</time></trkpt><trkpt lat="44.9993012046324" lon="8.059764513019571"><ele>199.2</ele><time>2026-04-11T11:28:46.999Z</time></trkpt><trkpt lat="44.999392207545604" lon="8.059747187631542"><ele>200.4</ele><time>2026-04-11T11:28:48.999Z</time></trkpt><trkpt lat="44.99949194141763" lon="8.05972743964943"><ele>201.6</ele><time>2026-04-11T11:28:50.999Z</time></trkpt><trkpt lat="44.99961278152963" lon="8.059702341035555"><ele>202.79999999999998</ele><time>2026-04-11T11:28:52.999Z</time></trkpt><trkpt lat="44.99972601527333" lon="8.059679440418957"><ele>204.0</ele><time>2026-04-11T11:28:54.999Z</time></trkpt><trkpt lat="44.99985025472878" lon="8.059678723701321"><ele>204.0</ele><time>2026-04-11T11:28:56.999Z</time></trkpt><trkpt lat="44.999966533050106" lon="8.05965572189272"><ele>204.0</ele><time>2026-04-11T11:28:58.999Z</time></trkpt><trkpt lat="45.00008477813535" lon="8.05963565806399"><ele>204.0</ele><time>2026-04-11T11:29:00.999Z</time></trkpt><trkpt lat="45.00015008767322" lon="8.059630415057088"><ele>204.0</ele><time>2026-04-11T11:29:01.999Z</time></trkpt><trkpt lat="45.00026235272995" lon="8.059619533229405"><ele>204.0</ele><time>2026-04-11T11:29:03.999Z</time></trkpt><trkpt lat="45.00038620506315" lon="8.059614927879485"><ele>204.0</ele><time>2026-04-11T11:29:05.999Z</time></trkpt><trkpt lat="45.000494770368775" lon="8.059642770873209"><ele>204.0</ele><time>2026-04-11T11:29:07.999Z</time></trkpt><trkpt lat="45.00062392450104" lon="8.059663083020245"><ele>204.0</ele><time>2026-04-11T11:29:09.999Z</time></trkpt><trkpt lat="45.00069520566727" lon="8.059673431620444"><ele>204.0</ele><time>2026-04-11T11:29:10.999Z</time></trkpt><trkpt lat="45.00076268781383" lon="8.059678545011048"><ele>204.0</ele><time>2026-04-11T11:29:11.999Z</time></trkpt><trkpt lat="45.00084401868956" lon="8.05969944305382"><ele>202.39999999999998</ele><time>2026-04-11T11:29:13.999Z</time></trkpt><trkpt lat="45.00092041814495" lon="8.059725343940814"><ele>200.8</ele><time>2026-04-11T11:29:14.999Z</time></trkpt><trkpt lat="45.00098304796687" lon="8.059750895150572"><ele>199.2</ele><time>2026-04-11T11:29:15.999Z</time></trkpt><trkpt lat="45.001092678479715" lon="8.0598029548815"><ele>197.60000000000002</ele><time>2026-04-11T11:29:17.999Z</time></trkpt><trkpt lat="45.00120833845165" lon="8.059864704526687"><ele>196.0</ele><time>2026-04-11T11:29:19.999Z</time></trkpt><trkpt lat="45.00131938578947" lon="8.059923991523236"><ele>195.75</ele><time>2026-04-11T11:29:21.999Z</time></trkpt><trkpt lat="45.001433396492104" lon="8.05998486057979"><ele>195.5</ele><time>2026-04-11T11:29:23.999Z</time></trkpt><trkpt lat="45.00154369202956" lon="8.060042436737199"><ele>195.25</ele><time>2026-04-11T11:29:25.999Z</time></trkpt><trkpt lat="45.00166051743041" lon="8.060103197471243"><ele>195.0</ele><time>2026-04-11T11:29:27.999Z</time></trkpt><trkpt lat="45.00176687566761" lon="8.06018283711035"><ele>194.75</ele><time>2026-04-11T11:29:29.999Z</time></trkpt><trkpt lat="45.00188343698818" lon="8.06022050842326"><ele>194.5</ele><time>2026-04-11T11:29:32Z</time></trkpt><trkpt lat="45.00199557207485" lon="8.060279847347084"><ele>194.25</ele><time>2026-04-11T11:29:34Z</time></trkpt><trkpt lat="45.002098138742994" lon="8.060357795180371"><ele>194.0</ele><time>2026-04-11T11:29:36Z</time></trkpt><trkpt lat="45.00220942078259" lon="8.060406967804484"><ele>194.0</ele><time>2026-04-11T11:29:38Z</time></trkpt><trkpt lat="45.00231861150457" lon="8.060468252019495"><ele>194.0</ele><time>2026-04-11T11:29:40Z</time></trkpt><trkpt lat="45.00242691470726" lon="8.060524486419096"><ele>194.0</ele><time>2026-04-11T11:29:42Z</time></trkpt><trkpt lat="45.00253324933221" lon="8.060580996703655"><ele>194.0</ele><time>2026-04-11T11:29:44Z</time></trkpt><trkpt lat="45.00264108418007" lon="8.060633883951661"><ele>194.6</ele><time>2026-04-11T11:29:46Z</time></trkpt><trkpt lat="45.00274839635092" lon="8.060680002106002"><ele>195.2</ele><time>2026-04-11T11:29:48Z</time></trkpt><trkpt lat="45.00285218327007" lon="8.060739328787035"><ele>195.79999999999998</ele><time>2026-04-11T11:29:50Z</time></trkpt><trkpt lat="45.00295320495727" lon="8.06079464759273"><ele>196.39999999999998</ele><time>2026-04-11T11:29:52Z</time></trkpt><trkpt lat="45.00305843333947" lon="8.060848080417243"><ele>197.0</ele><time>2026-04-11T11:29:54Z</time></trkpt><trkpt lat="45.00316595505919" lon="8.06090500828417"><ele>197.0</ele><time>2026-04-11T11:29:56Z</time></trkpt><trkpt lat="45.00326987176925" lon="8.060966153837722"><ele>197.0</ele><time>2026-04-11T11:29:58Z</time></trkpt><trkpt lat="45.00337320801164" lon="8.061012306067866"><ele>197.0</ele><time>2026-04-11T11:30:00Z</time></trkpt><trkpt lat="45.00347360531222" lon="8.061058292814808"><ele>197.0</ele><time>2026-04-11T11:30:02Z</time></trkpt><trkpt lat="45.003573023153265" lon="8.061097275037032"><ele>197.0</ele><time>2026-04-11T11:30:04Z</time></trkpt><trkpt lat="45.0036712921914" lon="8.061145161821896"><ele>197.2</ele><time>2026-04-11T11:30:06Z</time></trkpt><trkpt lat="45.00376991561317" lon="8.061198762242597"><ele>197.39999999999998</ele><time>2026-04-11T11:30:08Z</time></trkpt><trkpt lat="45.00387120191744" lon="8.061244832269683"><ele>197.60000000000002</ele><time>2026-04-11T11:30:10Z</time></trkpt><trkpt lat="45.00397566322619" lon="8.06128290917628"><ele>197.8</ele><time>2026-04-11T11:30:12Z</time></trkpt><trkpt lat="45.00407660189973" lon="8.061322943453735"><ele>198.0</ele><time>2026-04-11T11:30:14Z</time></trkpt><trkpt lat="45.0041792656143" lon="8.061355165395698"><ele>198.0</ele><time>2026-04-11T11:30:16Z</time></trkpt><trkpt lat="45.00427742519285" lon="8.06137932622578"><ele>198.0</ele><time>2026-04-11T11:30:18Z</time></trkpt><trkpt lat="45.004371000778285" lon="8.061404939139383"><ele>198.0</ele><time>2026-04-11T11:30:20Z</time></trkpt><trkpt lat="45.004455568463115" lon="8.061430644602671"><ele>198.0</ele><time>2026-04-11T11:30:22Z</time></trkpt><trkpt lat="45.00453432169461" lon="8.061435943989578"><ele>198.0</ele><time>2026-04-11T11:30:24Z</time></trkpt><trkpt lat="45.00460929291504" lon="8.061456369292316"><ele>198.0</ele><time>2026-04-11T11:30:27Z</time></trkpt><trkpt lat="45.004563742783795" lon="8.061607771098325"><ele>197.2</ele><time>2026-04-11T11:30:29Z</time></trkpt><trkpt lat="45.00455626705769" lon="8.061728948212394"><ele>196.4</ele><time>2026-04-11T11:30:31Z</time></trkpt><trkpt lat="45.00453713051667" lon="8.061859825690915"><ele>195.6</ele><time>2026-04-11T11:30:33Z</time></trkpt><trkpt lat="45.00452186440039" lon="8.061995510254281"><ele>194.79999999999998</ele><time>2026-04-11T11:30:35Z</time></trkpt><trkpt lat="45.00450560390143" lon="8.062121216816685"><ele>194.0</ele><time>2026-04-11T11:30:36.999Z</time></trkpt><trkpt lat="45.00448514287872" lon="8.062259814378308"><ele>194.0</ele><time>2026-04-11T11:30:38.999Z</time></trkpt><trkpt lat="45.004470672994465" lon="8.06240971658568"><ele>194.0</ele><time>2026-04-11T11:30:40.999Z</time></trkpt><trkpt lat="45.00445430206961" lon="8.062564612427462"><ele>194.0</ele><time>2026-04-11T11:30:42.999Z</time></trkpt><trkpt lat="45.00444079954664" lon="8.062717839886396"><ele>194.0</ele><time>2026-04-11T11:30:44.999Z</time></trkpt><trkpt lat="45.00443745434851" lon="8.062860580727069"><ele>194.0</ele><time>2026-04-11T11:30:46.999Z</time></trkpt><trkpt lat="45.00444527293535" lon="8.062997662481186"><ele>193.83333333333334</ele><time>2026-04-11T11:30:48.999Z</time></trkpt><trkpt lat="45.00445824693131" lon="8.063118702122502"><ele>193.66666666666669</ele><time>2026-04-11T11:30:50.999Z</time></trkpt><trkpt lat="45.00446953617726" lon="8.06323815383588"><ele>193.5</ele><time>2026-04-11T11:30:52.999Z</time></trkpt><trkpt lat="45.00448225818282" lon="8.063353437418595"><ele>193.33333333333331</ele><time>2026-04-11T11:30:54.999Z</time></trkpt><trkpt lat="45.00449200631886" lon="8.0634636102927"><ele>193.16666666666666</ele><time>2026-04-11T11:30:56.999Z</time></trkpt><trkpt lat="45.00449958410508" lon="8.063568624336693"><ele>193.0</ele><time>2026-04-11T11:30:58.999Z</time></trkpt><trkpt lat="45.00450880971984" lon="8.063658403345999"><ele>193.0</ele><time>2026-04-11T11:31:00.999Z</time></trkpt><trkpt lat="45.00451914132397" lon="8.063784777094858"><ele>193.0</ele><time>2026-04-11T11:31:03.999Z</time></trkpt><trkpt lat="45.0045282226618" lon="8.06389878265434"><ele>193.0</ele><time>2026-04-11T11:31:06.999Z</time></trkpt><trkpt lat="45.00453477757144" lon="8.064013773329794"><ele>193.0</ele><time>2026-04-11T11:31:09.999Z</time></trkpt><trkpt lat="45.004532612248944" lon="8.064104730347701"><ele>193.0</ele><time>2026-04-11T11:31:12.999Z</time></trkpt><trkpt lat="45.00464954080631" lon="8.063994897563417"><ele>193.00000000000003</ele><time>2026-04-11T11:31:16.999Z</time></trkpt><trkpt lat="45.00466666176616" lon="8.063901948795717"><ele>193.0</ele><time>2026-04-11T11:31:18.999Z</time></trkpt><trkpt lat="45.004692579964434" lon="8.063809523892662"><ele>193.0</ele><time>2026-04-11T11:31:20.999Z</time></trkpt><trkpt lat="45.00472704673263" lon="8.063723655087236"><ele>193.0</ele><time>2026-04-11T11:31:22.999Z</time></trkpt><trkpt lat="45.004768361545146" lon="8.06364138347268"><ele>193.0</ele><time>2026-04-11T11:31:24.999Z</time></trkpt><trkpt lat="45.00482595490066" lon="8.06357034454551"><ele>193.00000000000003</ele><time>2026-04-11T11:31:26.999Z</time></trkpt><trkpt lat="45.00487932079323" lon="8.063507415409532"><ele>193.0</ele><time>2026-04-11T11:31:28.999Z</time></trkpt><trkpt lat="45.00493744857782" lon="8.063473083793104"><ele>193.16666666666666</ele><time>2026-04-11T11:31:30.999Z</time></trkpt><trkpt lat="45.00501509674694" lon="8.063428779416402"><ele>193.33333333333331</ele><time>2026-04-11T11:31:32.999Z</time></trkpt><trkpt lat="45.005083593452994" lon="8.063397208294466"><ele>193.5</ele><time>2026-04-11T11:31:34.999Z</time></trkpt><trkpt lat="45.00515651179331" lon="8.063378289194764"><ele>193.66666666666669</ele><time>2026-04-11T11:31:37Z</time></trkpt><trkpt lat="45.00523873620139" lon="8.0633746829805"><ele>193.83333333333334</ele><time>2026-04-11T11:31:39Z</time></trkpt><trkpt lat="45.0053058772139" lon="8.06339935841068"><ele>194.0</ele><time>2026-04-11T11:31:41Z</time></trkpt><trkpt lat="45.00537795868372" lon="8.06342850357161"><ele>194.00000000000003</ele><time>2026-04-11T11:31:43Z</time></trkpt><trkpt lat="45.0054548649033" lon="8.063475456816876"><ele>194.0</ele><time>2026-04-11T11:31:45Z</time></trkpt><trkpt lat="45.0055155664132" lon="8.063514785622369"><ele>194.0</ele><time>2026-04-11T11:31:47Z</time></trkpt><trkpt lat="45.00560810844408" lon="8.063534333314786"><ele>194.0</ele><time>2026-04-11T11:31:50Z</time></trkpt><trkpt lat="45.00569341679707" lon="8.063534938008466"><ele>194.00000000000003</ele><time>2026-04-11T11:31:52Z</time></trkpt><trkpt lat="45.00578048455324" lon="8.063528463731759"><ele>194.0</ele><time>2026-04-11T11:31:54Z</time></trkpt><trkpt lat="45.00586488278446" lon="8.063531472845572"><ele>194.50000000000003</ele><time>2026-04-11T11:31:56Z</time></trkpt><trkpt lat="45.00595677475155" lon="8.063519599548007"><ele>195.0</ele><time>2026-04-11T11:31:58Z</time></trkpt><trkpt lat="45.00605256374397" lon="8.063508343816054"><ele>195.5</ele><time>2026-04-11T11:32:00Z</time></trkpt><trkpt lat="45.0061448158458" lon="8.063504158574279"><ele>196.0</ele><time>2026-04-11T11:32:02Z</time></trkpt><trkpt lat="45.00622906109595" lon="8.063514904733793"><ele>196.50000000000003</ele><time>2026-04-11T11:32:04Z</time></trkpt><trkpt lat="45.00631240955446" lon="8.063529850557003"><ele>197.0</ele><time>2026-04-11T11:32:06Z</time></trkpt><trkpt lat="45.00638922578165" lon="8.063554275907627"><ele>197.00000000000003</ele><time>2026-04-11T11:32:08Z</time></trkpt><trkpt lat="45.006457738480734" lon="8.063590530036"><ele>197.0</ele><time>2026-04-11T11:32:10Z</time></trkpt><trkpt lat="45.006527981234086" lon="8.063615857246754"><ele>197.0</ele><time>2026-04-11T11:32:12Z</time></trkpt><trkpt lat="45.00659356069077" lon="8.063650859460864"><ele>197.0</ele><time>2026-04-11T11:32:14Z</time></trkpt><trkpt lat="45.006672386778654" lon="8.06368035736958"><ele>197.00000000000003</ele><time>2026-04-11T11:32:16Z</time></trkpt><trkpt lat="45.006747281927076" lon="8.063708583187315"><ele>197.0</ele><time>2026-04-11T11:32:18Z</time></trkpt><trkpt lat="45.006823341407625" lon="8.063727012110766"><ele>197.0</ele><time>2026-04-11T11:32:20Z</time></trkpt><trkpt lat="45.00690461027835" lon="8.063744343779383"><ele>197.0</ele><time>2026-04-11T11:32:22Z</time></trkpt><trkpt lat="45.00699377142244" lon="8.063787080781719"><ele>197.0</ele><time>2026-04-11T11:32:24Z</time></trkpt><trkpt lat="45.00708541834101" lon="8.063822037792235"><ele>197.0</ele><time>2026-04-11T11:32:26Z</time></trkpt><trkpt lat="45.00718183591296" lon="8.06384058970159"><ele>197.0</ele><time>2026-04-11T11:32:28Z</time></trkpt><trkpt lat="45.00726251592251" lon="8.063885594911495"><ele>197.0</ele><time>2026-04-11T11:32:30Z</time></trkpt><trkpt lat="45.00735096329916" lon="8.063919040074476"><ele>197.0</ele><time>2026-04-11T11:32:32Z</time></trkpt><trkpt lat="45.007439250783" lon="8.06396185184798"><ele>197.0</ele><time>2026-04-11T11:32:34Z</time></trkpt><trkpt lat="45.007520446539324" lon="8.063994630530765"><ele>197.0</ele><time>2026-04-11T11:32:36Z</time></trkpt><trkpt lat="45.007631543919594" lon="8.064025435825043"><ele>197.0</ele><time>2026-04-11T11:32:37.999Z</time></trkpt><trkpt lat="45.007723457995816" lon="8.064060654565122"><ele>196.00000000000003</ele><time>2026-04-11T11:32:39.999Z</time></trkpt><trkpt lat="45.00781095625692" lon="8.064072038410282"><ele>195.0</ele><time>2026-04-11T11:32:41.999Z</time></trkpt><trkpt lat="45.00789856532491" lon="8.064074991076344"><ele>194.0</ele><time>2026-04-11T11:32:43.999Z</time></trkpt><trkpt lat="45.00797765579881" lon="8.06401521954482"><ele>193.0</ele><time>2026-04-11T11:32:45.999Z</time></trkpt><trkpt lat="45.00805765114437" lon="8.063997274220192"><ele>192.0</ele><time>2026-04-11T11:32:47.999Z</time></trkpt><trkpt lat="45.00813758209229" lon="8.06401517470992"><ele>191.0</ele><time>2026-04-11T11:32:49.999Z</time></trkpt><trkpt lat="45.0082026619309" lon="8.064025338220247"><ele>191.0</ele><time>2026-04-11T11:32:51.999Z</time></trkpt><trkpt lat="45.008291600953015" lon="8.06404353581984"><ele>191.0</ele><time>2026-04-11T11:32:54.999Z</time></trkpt><trkpt lat="45.00837825927548" lon="8.06406819752102"><ele>191.0</ele><time>2026-04-11T11:32:57.999Z</time></trkpt><trkpt lat="45.008469134360176" lon="8.064077043986423"><ele>191.0</ele><time>2026-04-11T11:33:00.999Z</time></trkpt><trkpt lat="45.00854036628982" lon="8.06408582620452"><ele>191.0</ele><time>2026-04-11T11:33:03.999Z</time></trkpt><trkpt lat="45.00861738649351" lon="8.06410456552396"><ele>191.0</ele><time>2026-04-11T11:33:06.999Z</time></trkpt><trkpt lat="45.008680894586206" lon="8.064115427988714"><ele>191.0</ele><time>2026-04-11T11:33:08.999Z</time></trkpt><trkpt lat="45.00875128447796" lon="8.064128728714312"><ele>191.0</ele><time>2026-04-11T11:33:10.999Z</time></trkpt><trkpt lat="45.00882304555797" lon="8.064142716303229"><ele>191.0</ele><time>2026-04-11T11:33:12.999Z</time></trkpt><trkpt lat="45.00888982696187" lon="8.06416953502233"><ele>191.0</ele><time>2026-04-11T11:33:14.999Z</time></trkpt><trkpt lat="45.008949171628984" lon="8.064200642043572"><ele>191.0</ele><time>2026-04-11T11:33:16.999Z</time></trkpt><trkpt lat="45.00903363639055" lon="8.064239884558543"><ele>191.0</ele><time>2026-04-11T11:33:19.999Z</time></trkpt><trkpt lat="45.00912987753717" lon="8.064255480362494"><ele>191.2857142857143</ele><time>2026-04-11T11:33:22.999Z</time></trkpt><trkpt lat="45.00919888615554" lon="8.06427005323065"><ele>191.57142857142856</ele><time>2026-04-11T11:33:24.999Z</time></trkpt><trkpt lat="45.00927507357661" lon="8.064286047858864"><ele>191.85714285714286</ele><time>2026-04-11T11:33:26.999Z</time></trkpt><trkpt lat="45.009342798871614" lon="8.06429391271472"><ele>192.14285714285717</ele><time>2026-04-11T11:33:28.999Z</time></trkpt><trkpt lat="45.009417654370914" lon="8.06431978469193"><ele>192.42857142857144</ele><time>2026-04-11T11:33:30.999Z</time></trkpt><trkpt lat="45.009488816457846" lon="8.064321306645256"><ele>192.71428571428572</ele><time>2026-04-11T11:33:32.999Z</time></trkpt><trkpt lat="45.00957318753773" lon="8.064330250134745"><ele>193.0</ele><time>2026-04-11T11:33:34.999Z</time></trkpt><trkpt lat="45.00964774622993" lon="8.064343895304006"><ele>192.99999999999997</ele><time>2026-04-11T11:33:36.999Z</time></trkpt><trkpt lat="45.00971686741529" lon="8.064361109907992"><ele>193.0</ele><time>2026-04-11T11:33:38.999Z</time></trkpt><trkpt lat="45.0098086046418" lon="8.064368309437826"><ele>193.0</ele><time>2026-04-11T11:33:41.999Z</time></trkpt><trkpt lat="45.00990426948614" lon="8.064387389508283"><ele>193.0</ele><time>2026-04-11T11:33:45Z</time></trkpt><trkpt lat="45.00998668572743" lon="8.064411408241483"><ele>192.99999999999997</ele><time>2026-04-11T11:33:48Z</time></trkpt><trkpt lat="45.010068847927535" lon="8.064430631113144"><ele>193.0</ele><time>2026-04-11T11:33:51Z</time></trkpt><trkpt lat="45.01015828842078" lon="8.064460660876655"><ele>193.16666666666666</ele><time>2026-04-11T11:33:54Z</time></trkpt><trkpt lat="45.010243853885825" lon="8.064484259073248"><ele>193.33333333333331</ele><time>2026-04-11T11:33:57Z</time></trkpt><trkpt lat="45.010329621427736" lon="8.064520623843737"><ele>193.5</ele><time>2026-04-11T11:34:00Z</time></trkpt><trkpt lat="45.01040719605428" lon="8.064542779047935"><ele>193.66666666666669</ele><time>2026-04-11T11:34:03Z</time></trkpt><trkpt lat="45.0104774212836" lon="8.064568300052315"><ele>193.83333333333334</ele><time>2026-04-11T11:34:05Z</time></trkpt><trkpt lat="45.010542424502994" lon="8.064588549797454"><ele>194.0</ele><time>2026-04-11T11:34:07Z</time></trkpt><trkpt lat="45.010608407861014" lon="8.064613380585756"><ele>194.00000000000003</ele><time>2026-04-11T11:34:09Z</time></trkpt><trkpt lat="45.01070096467009" lon="8.06465520067864"><ele>194.0</ele><time>2026-04-11T11:34:12Z</time></trkpt><trkpt lat="45.010796014923855" lon="8.06468673509383"><ele>194.0</ele><time>2026-04-11T11:34:15Z</time></trkpt><trkpt lat="45.01085539997" lon="8.064717315905277"><ele>194.0</ele><time>2026-04-11T11:34:17Z</time></trkpt><trkpt lat="45.01092047178785" lon="8.064740788067807"><ele>194.00000000000003</ele><time>2026-04-11T11:34:19Z</time></trkpt><trkpt lat="45.01100963636028" lon="8.06477180728001"><ele>194.0</ele><time>2026-04-11T11:34:22Z</time></trkpt><trkpt lat="45.01107474518941" lon="8.064792436157369"><ele>194.14285714285714</ele><time>2026-04-11T11:34:24Z</time></trkpt><trkpt lat="45.01115869967026" lon="8.064826779180978"><ele>194.2857142857143</ele><time>2026-04-11T11:34:27Z</time></trkpt><trkpt lat="45.011224587266625" lon="8.064844654492926"><ele>194.42857142857144</ele><time>2026-04-11T11:34:29Z</time></trkpt><trkpt lat="45.011287444466305" lon="8.064865205659219"><ele>194.57142857142856</ele><time>2026-04-11T11:34:31Z</time></trkpt><trkpt lat="45.01135207699583" lon="8.064888441948098"><ele>194.71428571428572</ele><time>2026-04-11T11:34:33Z</time></trkpt><trkpt lat="45.011425844160314" lon="8.064902995363326"><ele>194.85714285714286</ele><time>2026-04-11T11:34:35Z</time></trkpt><trkpt lat="45.01150148014241" lon="8.064923450470761"><ele>195.0</ele><time>2026-04-11T11:34:37Z</time></trkpt><trkpt lat="45.01157340354062" lon="8.064942403848551"><ele>195.0</ele><time>2026-04-11T11:34:39Z</time></trkpt><trkpt lat="45.011643392711775" lon="8.06496702425207"><ele>195.0</ele><time>2026-04-11T11:34:41Z</time></trkpt><trkpt lat="45.011710774030554" lon="8.064995846111232"><ele>195.0</ele><time>2026-04-11T11:34:43Z</time></trkpt><trkpt lat="45.01178054775284" lon="8.065016133497187"><ele>195.0</ele><time>2026-04-11T11:34:45Z</time></trkpt><trkpt lat="45.01185175538828" lon="8.065040331221917"><ele>195.0</ele><time>2026-04-11T11:34:46.999Z</time></trkpt><trkpt lat="45.01191595856125" lon="8.065072048177495"><ele>195.0</ele><time>2026-04-11T11:34:48.999Z</time></trkpt><trkpt lat="45.01199771583954" lon="8.065115074982772"><ele>195.0</ele><time>2026-04-11T11:34:51.999Z</time></trkpt><trkpt lat="45.01209063236748" lon="8.065134289956044"><ele>195.0</ele><time>2026-04-11T11:34:54.999Z</time></trkpt><trkpt lat="45.012154426368966" lon="8.065165050891803"><ele>195.0</ele><time>2026-04-11T11:34:56.999Z</time></trkpt><trkpt lat="45.01222067138983" lon="8.065200045141559"><ele>195.0</ele><time>2026-04-11T11:34:58.999Z</time></trkpt><trkpt lat="45.01227998216169" lon="8.065239290886916"><ele>195.0</ele><time>2026-04-11T11:35:00.999Z</time></trkpt><trkpt lat="45.0123475467193" lon="8.065283788490067"><ele>195.0</ele><time>2026-04-11T11:35:02.999Z</time></trkpt><trkpt lat="45.012414077412146" lon="8.065324102904595"><ele>195.0</ele><time>2026-04-11T11:35:04.999Z</time></trkpt><trkpt lat="45.01247785558537" lon="8.065385080547328"><ele>195.0</ele><time>2026-04-11T11:35:06.999Z</time></trkpt><trkpt lat="45.01254290027323" lon="8.065425427181372"><ele>195.33333333333334</ele><time>2026-04-11T11:35:08.999Z</time></trkpt><trkpt lat="45.01260055323641" lon="8.06547252694541"><ele>195.66666666666669</ele><time>2026-04-11T11:35:10.999Z</time></trkpt><trkpt lat="45.012669249029216" lon="8.065523213949353"><ele>196.0</ele><time>2026-04-11T11:35:12.999Z</time></trkpt><trkpt lat="45.01274470038814" lon="8.065578288296573"><ele>196.33333333333334</ele><time>2026-04-11T11:35:14.999Z</time></trkpt><trkpt lat="45.012818904184215" lon="8.065636904217548"><ele>196.66666666666669</ele><time>2026-04-11T11:35:16.999Z</time></trkpt><trkpt lat="45.01289375230172" lon="8.065696889560469"><ele>197.0</ele><time>2026-04-11T11:35:18.999Z</time></trkpt><trkpt lat="45.012971290855496" lon="8.065749060898911"><ele>197.50000000000003</ele><time>2026-04-11T11:35:20.999Z</time></trkpt><trkpt lat="45.01305062238217" lon="8.065781583888782"><ele>198.0</ele><time>2026-04-11T11:35:22.999Z</time></trkpt><trkpt lat="45.01312601932453" lon="8.065858784592518"><ele>198.5</ele><time>2026-04-11T11:35:24.999Z</time></trkpt><trkpt lat="45.01320545975526" lon="8.065919670006709"><ele>199.0</ele><time>2026-04-11T11:35:26.999Z</time></trkpt><trkpt lat="45.01328467727962" lon="8.065978510030252"><ele>199.50000000000003</ele><time>2026-04-11T11:35:28.999Z</time></trkpt><trkpt lat="45.013370481168764" lon="8.066026599565127"><ele>200.0</ele><time>2026-04-11T11:35:30.999Z</time></trkpt><trkpt lat="45.01344634075533" lon="8.066065626689115"><ele>200.00000000000003</ele><time>2026-04-11T11:35:32.999Z</time></trkpt><trkpt lat="45.01351851690086" lon="8.066109714897902"><ele>200.0</ele><time>2026-04-11T11:35:34.999Z</time></trkpt><trkpt lat="45.01359531612925" lon="8.06615205292776"><ele>200.0</ele><time>2026-04-11T11:35:36.999Z</time></trkpt><trkpt lat="45.01367292874245" lon="8.06619256395547"><ele>200.0</ele><time>2026-04-11T11:35:38.999Z</time></trkpt><trkpt lat="45.01375261928534" lon="8.066243773558622"><ele>200.00000000000003</ele><time>2026-04-11T11:35:40.999Z</time></trkpt><trkpt lat="45.01383346394088" lon="8.066302858936094"><ele>200.0</ele><time>2026-04-11T11:35:42.999Z</time></trkpt><trkpt lat="45.01391422498233" lon="8.066346998528944"><ele>200.00000000000003</ele><time>2026-04-11T11:35:44.999Z</time></trkpt><trkpt lat="45.013996660745455" lon="8.06639138609905"><ele>200.0</ele><time>2026-04-11T11:35:46.999Z</time></trkpt><trkpt lat="45.014080415079334" lon="8.066443613670742"><ele>200.0</ele><time>2026-04-11T11:35:49Z</time></trkpt><trkpt lat="45.01416458771411" lon="8.066485828623797"><ele>200.0</ele><time>2026-04-11T11:35:51Z</time></trkpt><trkpt lat="45.014251054511945" lon="8.06652058860349"><ele>200.00000000000003</ele><time>2026-04-11T11:35:53Z</time></trkpt><trkpt lat="45.01433733554799" lon="8.066554264198041"><ele>200.0</ele><time>2026-04-11T11:35:55Z</time></trkpt><trkpt lat="45.01442635845878" lon="8.066585492801503"><ele>199.66666666666669</ele><time>2026-04-11T11:35:57Z</time></trkpt><trkpt lat="45.01450967128535" lon="8.06661372811895"><ele>199.33333333333334</ele><time>2026-04-11T11:35:59Z</time></trkpt><trkpt lat="45.014589437365665" lon="8.066634282134597"><ele>199.0</ele><time>2026-04-11T11:36:01Z</time></trkpt><trkpt lat="45.01466745451521" lon="8.0666623356166"><ele>198.66666666666669</ele><time>2026-04-11T11:36:03Z</time></trkpt><trkpt lat="45.014750103668284" lon="8.066680828314608"><ele>198.33333333333334</ele><time>2026-04-11T11:36:05Z</time></trkpt><trkpt lat="45.01483075506103" lon="8.06673056651677"><ele>198.0</ele><time>2026-04-11T11:36:07Z</time></trkpt><trkpt lat="45.01491806008494" lon="8.06675963015252"><ele>197.83333333333334</ele><time>2026-04-11T11:36:09Z</time></trkpt><trkpt lat="45.015007685" lon="8.066790373122835"><ele>197.66666666666669</ele><time>2026-04-11T11:36:11Z</time></trkpt><trkpt lat="45.01509152042186" lon="8.066821448251721"><ele>197.5</ele><time>2026-04-11T11:36:13Z</time></trkpt><trkpt lat="45.01518094202098" lon="8.066833324399328"><ele>197.33333333333334</ele><time>2026-04-11T11:36:15Z</time></trkpt><trkpt lat="45.015265521557126" lon="8.066867158399955"><ele>197.16666666666669</ele><time>2026-04-11T11:36:17Z</time></trkpt><trkpt lat="45.01535129927771" lon="8.06689552279901"><ele>197.0</ele><time>2026-04-11T11:36:19Z</time></trkpt><trkpt lat="45.01543249656345" lon="8.066925925219001"><ele>197.00000000000003</ele><time>2026-04-11T11:36:21Z</time></trkpt><trkpt lat="45.01551809074914" lon="8.066954940046049"><ele>197.0</ele><time>2026-04-11T11:36:23Z</time></trkpt><trkpt lat="45.01560277712515" lon="8.066985855458636"><ele>197.0</ele><time>2026-04-11T11:36:25Z</time></trkpt><trkpt lat="45.01567729547585" lon="8.067033744912981"><ele>197.0</ele><time>2026-04-11T11:36:27Z</time></trkpt><trkpt lat="45.015764208926925" lon="8.06703990239461"><ele>197.00000000000003</ele><time>2026-04-11T11:36:29Z</time></trkpt><trkpt lat="45.01584902337582" lon="8.067072722833274"><ele>197.0</ele><time>2026-04-11T11:36:31Z</time></trkpt><trkpt lat="45.01592968870269" lon="8.067105913757498"><ele>197.14285714285714</ele><time>2026-04-11T11:36:33Z</time></trkpt><trkpt lat="45.01600257367274" lon="8.067136764087408"><ele>197.28571428571428</ele><time>2026-04-11T11:36:35Z</time></trkpt><trkpt lat="45.01607066537291" lon="8.067150618166982"><ele>197.42857142857144</ele><time>2026-04-11T11:36:37Z</time></trkpt><trkpt lat="45.0161367149775" lon="8.06718236306981"><ele>197.57142857142856</ele><time>2026-04-11T11:36:39Z</time></trkpt><trkpt lat="45.01621557552395" lon="8.067211385314451"><ele>197.7142857142857</ele><time>2026-04-11T11:36:41Z</time></trkpt><trkpt lat="45.01628827425225" lon="8.067228124495548"><ele>197.85714285714286</ele><time>2026-04-11T11:36:43Z</time></trkpt><trkpt lat="45.01635249285902" lon="8.067244540146113"><ele>198.0</ele><time>2026-04-11T11:36:45Z</time></trkpt><trkpt lat="45.0164305762624" lon="8.067282341626882"><ele>198.0</ele><time>2026-04-11T11:36:48Z</time></trkpt><trkpt lat="45.016480275128544" lon="8.067340797406032"><ele>198.0</ele><time>2026-04-11T11:36:53Z</time></trkpt><trkpt lat="45.01644627964741" lon="8.067462040549696"><ele>198.0</ele><time>2026-04-11T11:36:53.999Z</time></trkpt><trkpt lat="45.01641348714817" lon="8.067544091294485"><ele>198.0</ele><time>2026-04-11T11:36:55.999Z</time></trkpt><trkpt lat="45.016381596099045" lon="8.067631080944585"><ele>198.0</ele><time>2026-04-11T11:36:57.999Z</time></trkpt><trkpt lat="45.01636012738962" lon="8.067745716118125"><ele>198.0</ele><time>2026-04-11T11:36:59.999Z</time></trkpt><trkpt lat="45.01634490668225" lon="8.06785170456671"><ele>198.33333333333334</ele><time>2026-04-11T11:37:01.999Z</time></trkpt><trkpt lat="45.016326658284626" lon="8.067959798162853"><ele>198.66666666666669</ele><time>2026-04-11T11:37:03.999Z</time></trkpt><trkpt lat="45.01631074980557" lon="8.068067023184632"><ele>199.0</ele><time>2026-04-11T11:37:05.999Z</time></trkpt><trkpt lat="45.01629426488323" lon="8.068187968263677"><ele>199.33333333333334</ele><time>2026-04-11T11:37:07.999Z</time></trkpt><trkpt lat="45.016286922231494" lon="8.068311572049128"><ele>199.66666666666669</ele><time>2026-04-11T11:37:09.999Z</time></trkpt><trkpt lat="45.01628791100822" lon="8.0684262123638"><ele>200.0</ele><time>2026-04-11T11:37:11.999Z</time></trkpt><trkpt lat="45.016273704825146" lon="8.068557919256152"><ele>200.0</ele><time>2026-04-11T11:37:13.999Z</time></trkpt><trkpt lat="45.01627057976159" lon="8.06868237996372"><ele>200.0</ele><time>2026-04-11T11:37:16.999Z</time></trkpt><trkpt lat="45.01627494131968" lon="8.068806487744212"><ele>200.0</ele><time>2026-04-11T11:37:19.999Z</time></trkpt><trkpt lat="45.016286226021194" lon="8.068973821597643"><ele>200.0</ele><time>2026-04-11T11:37:21.999Z</time></trkpt><trkpt lat="45.01629671480362" lon="8.069090991711306"><ele>200.0</ele><time>2026-04-11T11:37:23.999Z</time></trkpt><trkpt lat="45.016303187106665" lon="8.069209197265845"><ele>200.33333333333334</ele><time>2026-04-11T11:37:25.999Z</time></trkpt><trkpt lat="45.01631601591819" lon="8.069327833079367"><ele>200.66666666666669</ele><time>2026-04-11T11:37:27.999Z</time></trkpt><trkpt lat="45.0163276148291" lon="8.069442623519812"><ele>201.0</ele><time>2026-04-11T11:37:29.999Z</time></trkpt><trkpt lat="45.016339552580305" lon="8.069549142016065"><ele>201.33333333333331</ele><time>2026-04-11T11:37:31.999Z</time></trkpt><trkpt lat="45.016350041724465" lon="8.06965433595058"><ele>201.66666666666666</ele><time>2026-04-11T11:37:33.999Z</time></trkpt><trkpt lat="45.016359233275544" lon="8.06975713349884"><ele>202.0</ele><time>2026-04-11T11:37:35.999Z</time></trkpt><trkpt lat="45.016367793078636" lon="8.06985484641585"><ele>201.85714285714286</ele><time>2026-04-11T11:37:37.999Z</time></trkpt><trkpt lat="45.016374895115334" lon="8.069947735454036"><ele>201.71428571428572</ele><time>2026-04-11T11:37:39.999Z</time></trkpt><trkpt lat="45.01638710208061" lon="8.070046085959062"><ele>201.57142857142856</ele><time>2026-04-11T11:37:41.999Z</time></trkpt><trkpt lat="45.016399230578806" lon="8.070146056160725"><ele>201.42857142857144</ele><time>2026-04-11T11:37:43.999Z</time></trkpt><trkpt lat="45.01640644366914" lon="8.070252081086002"><ele>201.2857142857143</ele><time>2026-04-11T11:37:45.999Z</time></trkpt><trkpt lat="45.01641917986818" lon="8.070352425983677"><ele>201.14285714285714</ele><time>2026-04-11T11:37:47.999Z</time></trkpt><trkpt lat="45.01642331632534" lon="8.070457299337702"><ele>201.0</ele><time>2026-04-11T11:37:49.999Z</time></trkpt><trkpt lat="45.016438973732505" lon="8.070545518095015"><ele>201.0</ele><time>2026-04-11T11:37:51.999Z</time></trkpt><trkpt lat="45.01644790175592" lon="8.070676873972092"><ele>201.0</ele><time>2026-04-11T11:37:55Z</time></trkpt><trkpt lat="45.01646523044121" lon="8.07079837530113"><ele>201.0</ele><time>2026-04-11T11:37:58Z</time></trkpt><trkpt lat="45.016484911023184" lon="8.07091941831729"><ele>201.0</ele><time>2026-04-11T11:38:01Z</time></trkpt><trkpt lat="45.01649366460731" lon="8.071053517976651"><ele>201.0</ele><time>2026-04-11T11:38:04Z</time></trkpt><trkpt lat="45.01649625263114" lon="8.071155295480828"><ele>201.0</ele><time>2026-04-11T11:38:06Z</time></trkpt><trkpt lat="45.01650305877232" lon="8.071258494155726"><ele>201.0</ele><time>2026-04-11T11:38:08Z</time></trkpt><trkpt lat="45.01651022719079" lon="8.071368278263988"><ele>201.0</ele><time>2026-04-11T11:38:10Z</time></trkpt><trkpt lat="45.01652673313264" lon="8.071478239409378"><ele>201.0</ele><time>2026-04-11T11:38:12Z</time></trkpt><trkpt lat="45.01653785914558" lon="8.071590468464965"><ele>201.0</ele><time>2026-04-11T11:38:14Z</time></trkpt><trkpt lat="45.01654060224012" lon="8.07171154866853"><ele>201.0</ele><time>2026-04-11T11:38:16Z</time></trkpt><trkpt lat="45.01656063310639" lon="8.07182762086085"><ele>201.0</ele><time>2026-04-11T11:38:18Z</time></trkpt><trkpt lat="45.016567283706706" lon="8.071944446040801"><ele>201.33333333333334</ele><time>2026-04-11T11:38:20Z</time></trkpt><trkpt lat="45.01657720334802" lon="8.07205772040928"><ele>201.66666666666669</ele><time>2026-04-11T11:38:22Z</time></trkpt><trkpt lat="45.01659026050321" lon="8.072175120097674"><ele>202.0</ele><time>2026-04-11T11:38:24Z</time></trkpt><trkpt lat="45.01659702446483" lon="8.07229561790809"><ele>202.33333333333334</ele><time>2026-04-11T11:38:26Z</time></trkpt><trkpt lat="45.01660471945838" lon="8.0724224029483"><ele>202.66666666666669</ele><time>2026-04-11T11:38:28Z</time></trkpt><trkpt lat="45.01661718616724" lon="8.07255096623569"><ele>203.0</ele><time>2026-04-11T11:38:30Z</time></trkpt><trkpt lat="45.01663258914024" lon="8.072677244425641"><ele>203.2</ele><time>2026-04-11T11:38:32Z</time></trkpt><trkpt lat="45.01664246368676" lon="8.072806539670651"><ele>203.4</ele><time>2026-04-11T11:38:34Z</time></trkpt><trkpt lat="45.01665861451898" lon="8.072939331614217"><ele>203.6</ele><time>2026-04-11T11:38:36Z</time></trkpt><trkpt lat="45.016666473271485" lon="8.073083650277143"><ele>203.79999999999998</ele><time>2026-04-11T11:38:38Z</time></trkpt><trkpt lat="45.0166557470641" lon="8.073207578093806"><ele>204.0</ele><time>2026-04-11T11:38:40Z</time></trkpt><trkpt lat="45.016641943620854" lon="8.07335540687712"><ele>204.79999999999998</ele><time>2026-04-11T11:38:42Z</time></trkpt><trkpt lat="45.01661894527301" lon="8.073492484730961"><ele>205.6</ele><time>2026-04-11T11:38:44Z</time></trkpt><trkpt lat="45.01657984957973" lon="8.073646919961359"><ele>206.4</ele><time>2026-04-11T11:38:46Z</time></trkpt><trkpt lat="45.01655340790168" lon="8.073782139490598"><ele>207.2</ele><time>2026-04-11T11:38:48Z</time></trkpt><trkpt lat="45.01651667149538" lon="8.073909675473109"><ele>208.0</ele><time>2026-04-11T11:38:50Z</time></trkpt><trkpt lat="45.016465515856275" lon="8.07401983071255"><ele>208.8</ele><time>2026-04-11T11:38:52Z</time></trkpt><trkpt lat="45.01640703148801" lon="8.07413530269611"><ele>209.60000000000002</ele><time>2026-04-11T11:38:54Z</time></trkpt><trkpt lat="45.01634738935637" lon="8.074246802110197"><ele>210.39999999999998</ele><time>2026-04-11T11:38:56Z</time></trkpt><trkpt lat="45.01628334434691" lon="8.07435507967713"><ele>211.2</ele><time>2026-04-11T11:38:57.999Z</time></trkpt><trkpt lat="45.016215244442435" lon="8.074454981512801"><ele>212.0</ele><time>2026-04-11T11:38:59.999Z</time></trkpt><trkpt lat="45.01615294004006" lon="8.074562167991255"><ele>212.0</ele><time>2026-04-11T11:39:01.999Z</time></trkpt><trkpt lat="45.016095053365945" lon="8.074660468212464"><ele>212.0</ele><time>2026-04-11T11:39:03.999Z</time></trkpt><trkpt lat="45.01603332550571" lon="8.074764951206932"><ele>212.0</ele><time>2026-04-11T11:39:05.999Z</time></trkpt><trkpt lat="45.01597748732922" lon="8.074861358387547"><ele>212.0</ele><time>2026-04-11T11:39:07.999Z</time></trkpt><trkpt lat="45.0159140726705" lon="8.074958908406035"><ele>212.0</ele><time>2026-04-11T11:39:09.999Z</time></trkpt><trkpt lat="45.015850885373155" lon="8.075060628744708"><ele>211.39999999999998</ele><time>2026-04-11T11:39:11.999Z</time></trkpt><trkpt lat="45.01578558935183" lon="8.075159769529062"><ele>210.79999999999998</ele><time>2026-04-11T11:39:13.999Z</time></trkpt><trkpt lat="45.01572725417746" lon="8.075270450021808"><ele>210.2</ele><time>2026-04-11T11:39:15.999Z</time></trkpt><trkpt lat="45.01567035035498" lon="8.0753774172055"><ele>209.6</ele><time>2026-04-11T11:39:17.999Z</time></trkpt><trkpt lat="45.015606372819164" lon="8.075474636194333"><ele>209.0</ele><time>2026-04-11T11:39:19.999Z</time></trkpt><trkpt lat="45.01554929543394" lon="8.075582961503946"><ele>209.0</ele><time>2026-04-11T11:39:21.999Z</time></trkpt><trkpt lat="45.01548418400414" lon="8.075681657235874"><ele>209.0</ele><time>2026-04-11T11:39:23.999Z</time></trkpt><trkpt lat="45.01542031990694" lon="8.075779514327612"><ele>209.0</ele><time>2026-04-11T11:39:25.999Z</time></trkpt><trkpt lat="45.0153617367674" lon="8.075880492254537"><ele>209.0</ele><time>2026-04-11T11:39:27.999Z</time></trkpt><trkpt lat="45.01529137141442" lon="8.075981191479203"><ele>209.0</ele><time>2026-04-11T11:39:29.999Z</time></trkpt><trkpt lat="45.015228445271376" lon="8.076083919291666"><ele>208.79999999999998</ele><time>2026-04-11T11:39:31.999Z</time></trkpt><trkpt lat="45.01516017674733" lon="8.076190691143045"><ele>208.6</ele><time>2026-04-11T11:39:33.999Z</time></trkpt><trkpt lat="45.01509555164733" lon="8.076284681172469"><ele>208.4</ele><time>2026-04-11T11:39:35.999Z</time></trkpt><trkpt lat="45.01503986229247" lon="8.076386975840324"><ele>208.2</ele><time>2026-04-11T11:39:37.999Z</time></trkpt><trkpt lat="45.01498262135113" lon="8.076491396416566"><ele>208.0</ele><time>2026-04-11T11:39:39.999Z</time></trkpt><trkpt lat="45.014929158662376" lon="8.07658372585878"><ele>208.33333333333331</ele><time>2026-04-11T11:39:41.999Z</time></trkpt><trkpt lat="45.01488804373065" lon="8.076700360671502"><ele>208.66666666666666</ele><time>2026-04-11T11:39:43.999Z</time></trkpt><trkpt lat="45.01485665587001" lon="8.076803487219154"><ele>209.0</ele><time>2026-04-11T11:39:45.999Z</time></trkpt><trkpt lat="45.01483574231905" lon="8.076933622432213"><ele>209.33333333333331</ele><time>2026-04-11T11:39:47.999Z</time></trkpt><trkpt lat="45.01481918831615" lon="8.077062061028085"><ele>209.66666666666666</ele><time>2026-04-11T11:39:49.999Z</time></trkpt><trkpt lat="45.01480724825379" lon="8.077189897903752"><ele>210.0</ele><time>2026-04-11T11:39:51.999Z</time></trkpt><trkpt lat="45.014806499680354" lon="8.077320047126515"><ele>210.5</ele><time>2026-04-11T11:39:53.999Z</time></trkpt><trkpt lat="45.01481592529946" lon="8.077438531191941"><ele>211.0</ele><time>2026-04-11T11:39:55.999Z</time></trkpt><trkpt lat="45.01481938939838" lon="8.07756357035766"><ele>211.5</ele><time>2026-04-11T11:39:57.999Z</time></trkpt><trkpt lat="45.01484049306057" lon="8.077684959304635"><ele>212.0</ele><time>2026-04-11T11:39:59.999Z</time></trkpt><trkpt lat="45.01485526256909" lon="8.077819362956324"><ele>212.5</ele><time>2026-04-11T11:40:02Z</time></trkpt><trkpt lat="45.01489409569482" lon="8.077928863960896"><ele>213.0</ele><time>2026-04-11T11:40:04Z</time></trkpt><trkpt lat="45.01490793379025" lon="8.07806304323705"><ele>213.0</ele><time>2026-04-11T11:40:06Z</time></trkpt><trkpt lat="45.01493021312192" lon="8.078183197698976"><ele>213.0</ele><time>2026-04-11T11:40:08Z</time></trkpt><trkpt lat="45.014957643336395" lon="8.078307512734115"><ele>213.0</ele><time>2026-04-11T11:40:10Z</time></trkpt><trkpt lat="45.014988473058665" lon="8.078418538596834"><ele>213.0</ele><time>2026-04-11T11:40:12Z</time></trkpt><trkpt lat="45.01501780285034" lon="8.078533454816961"><ele>213.0</ele><time>2026-04-11T11:40:14Z</time></trkpt><trkpt lat="45.015051772947665" lon="8.078647853406917"><ele>213.0</ele><time>2026-04-11T11:40:16Z</time></trkpt><trkpt lat="45.01508682768587" lon="8.078761718433855"><ele>215.33333333333334</ele><time>2026-04-11T11:40:18Z</time></trkpt><trkpt lat="45.01512120000302" lon="8.078879468608076"><ele>217.66666666666669</ele><time>2026-04-11T11:40:20Z</time></trkpt><trkpt lat="45.01515348850819" lon="8.0789825908008"><ele>220.0</ele><time>2026-04-11T11:40:22Z</time></trkpt><trkpt lat="45.01518695864584" lon="8.079094069188502"><ele>222.33333333333334</ele><time>2026-04-11T11:40:24Z</time></trkpt><trkpt lat="45.01522391104252" lon="8.079201971184306"><ele>224.66666666666669</ele><time>2026-04-11T11:40:26Z</time></trkpt><trkpt lat="45.01525423930229" lon="8.079316538163496"><ele>227.0</ele><time>2026-04-11T11:40:28Z</time></trkpt><trkpt lat="45.01529148658204" lon="8.079432585176543"><ele>227.0</ele><time>2026-04-11T11:40:30Z</time></trkpt><trkpt lat="45.015328721871086" lon="8.079547468513947"><ele>227.0</ele><time>2026-04-11T11:40:32Z</time></trkpt><trkpt lat="45.01536081272072" lon="8.079669238885096"><ele>227.0</ele><time>2026-04-11T11:40:34Z</time></trkpt><trkpt lat="45.015396346779134" lon="8.079787543115076"><ele>227.0</ele><time>2026-04-11T11:40:36Z</time></trkpt><trkpt lat="45.01543117619544" lon="8.07990580332379"><ele>227.0</ele><time>2026-04-11T11:40:38Z</time></trkpt><trkpt lat="45.0154697088498" lon="8.08002522773043"><ele>227.0</ele><time>2026-04-11T11:40:40Z</time></trkpt><trkpt lat="45.01550042933895" lon="8.080148849434543"><ele>227.0</ele><time>2026-04-11T11:40:42Z</time></trkpt><trkpt lat="45.01553382673588" lon="8.080275835303146"><ele>227.0</ele><time>2026-04-11T11:40:44Z</time></trkpt><trkpt lat="45.01555765587172" lon="8.080405845268"><ele>227.0</ele><time>2026-04-11T11:40:46Z</time></trkpt><trkpt lat="45.01558279561998" lon="8.080527963563735"><ele>227.0</ele><time>2026-04-11T11:40:48Z</time></trkpt><trkpt lat="45.015599188747046" lon="8.080656928968413"><ele>227.66666666666669</ele><time>2026-04-11T11:40:50Z</time></trkpt><trkpt lat="45.015614131901025" lon="8.080783445618327"><ele>228.33333333333334</ele><time>2026-04-11T11:40:52Z</time></trkpt><trkpt lat="45.01562801795849" lon="8.080906295036076"><ele>229.0</ele><time>2026-04-11T11:40:54Z</time></trkpt><trkpt lat="45.01563589554537" lon="8.08103549404372"><ele>229.66666666666669</ele><time>2026-04-11T11:40:56Z</time></trkpt><trkpt lat="45.01563705742754" lon="8.081169100408466"><ele>230.33333333333334</ele><time>2026-04-11T11:40:58Z</time></trkpt><trkpt lat="45.01563042310742" lon="8.081287912662155"><ele>231.0</ele><time>2026-04-11T11:41:00Z</time></trkpt><trkpt lat="45.015595113097504" lon="8.081401628322507"><ele>231.0</ele><time>2026-04-11T11:41:02Z</time></trkpt><trkpt lat="45.015533026796895" lon="8.08148385525982"><ele>231.0</ele><time>2026-04-11T11:41:03.999Z</time></trkpt><trkpt lat="45.01545177064288" lon="8.08151829635719"><ele>231.0</ele><time>2026-04-11T11:41:05.999Z</time></trkpt><trkpt lat="45.01537085527329" lon="8.081527237048808"><ele>231.0</ele><time>2026-04-11T11:41:07.999Z</time></trkpt><trkpt lat="45.01528838720373" lon="8.081508249195993"><ele>231.0</ele><time>2026-04-11T11:41:09.999Z</time></trkpt><trkpt lat="45.015201240898406" lon="8.081494162619004"><ele>231.0</ele><time>2026-04-11T11:41:11.999Z</time></trkpt><trkpt lat="45.01511826395624" lon="8.081479627617586"><ele>231.0</ele><time>2026-04-11T11:41:13.999Z</time></trkpt><trkpt lat="45.015032467345826" lon="8.081471417601369"><ele>231.0</ele><time>2026-04-11T11:41:15.999Z</time></trkpt><trkpt lat="45.01494476160196" lon="8.081457201838887"><ele>231.0</ele><time>2026-04-11T11:41:17.999Z</time></trkpt><trkpt lat="45.01485001747948" lon="8.081454517437555"><ele>231.0</ele><time>2026-04-11T11:41:19.999Z</time></trkpt><trkpt lat="45.01476194342151" lon="8.081454480374969"><ele>231.0</ele><time>2026-04-11T11:41:21.999Z</time></trkpt><trkpt lat="45.014671728298254" lon="8.081447601481358"><ele>231.0</ele><time>2026-04-11T11:41:23.999Z</time></trkpt><trkpt lat="45.014576584824084" lon="8.08144823735633"><ele>231.0</ele><time>2026-04-11T11:41:25.999Z</time></trkpt><trkpt lat="45.01449287024756" lon="8.08146312594945"><ele>231.0</ele><time>2026-04-11T11:41:27.999Z</time></trkpt><trkpt lat="45.014401181961944" lon="8.081491771540856"><ele>231.0</ele><time>2026-04-11T11:41:29.999Z</time></trkpt><trkpt lat="45.01431742116288" lon="8.081507414273034"><ele>231.0</ele><time>2026-04-11T11:41:31.999Z</time></trkpt><trkpt lat="45.01423152346946" lon="8.081550288736938"><ele>231.0</ele><time>2026-04-11T11:41:33.999Z</time></trkpt><trkpt lat="45.01414960125849" lon="8.081593758730754"><ele>231.0</ele><time>2026-04-11T11:41:35.999Z</time></trkpt><trkpt lat="45.01406380104087" lon="8.081639043999724"><ele>233.0</ele><time>2026-04-11T11:41:37.999Z</time></trkpt><trkpt lat="45.013988864155905" lon="8.081694511007685"><ele>235.00000000000003</ele><time>2026-04-11T11:41:39.999Z</time></trkpt><trkpt lat="45.013894580133986" lon="8.081759262774572"><ele>237.00000000000003</ele><time>2026-04-11T11:41:41.999Z</time></trkpt><trkpt lat="45.013825559765706" lon="8.081819111716609"><ele>239.0</ele><time>2026-04-11T11:41:43.999Z</time></trkpt><trkpt lat="45.01374966040383" lon="8.081883519167395"><ele>241.0</ele><time>2026-04-11T11:41:45.999Z</time></trkpt><trkpt lat="45.013667315415084" lon="8.081954713255804"><ele>241.0</ele><time>2026-04-11T11:41:47.999Z</time></trkpt><trkpt lat="45.01358356167805" lon="8.082031728495702"><ele>241.00000000000003</ele><time>2026-04-11T11:41:49.999Z</time></trkpt><trkpt lat="45.01350821626451" lon="8.08211266521536"><ele>241.00000000000003</ele><time>2026-04-11T11:41:51.999Z</time></trkpt><trkpt lat="45.01343792628579" lon="8.082196305446244"><ele>241.0</ele><time>2026-04-11T11:41:53.999Z</time></trkpt><trkpt lat="45.0133611427698" lon="8.082281400301882"><ele>241.0</ele><time>2026-04-11T11:41:55.999Z</time></trkpt><trkpt lat="45.01329228833497" lon="8.08235854209788"><ele>242.33333333333331</ele><time>2026-04-11T11:41:57.999Z</time></trkpt><trkpt lat="45.0132172617531" lon="8.082430210372754"><ele>243.66666666666666</ele><time>2026-04-11T11:41:59.999Z</time></trkpt><trkpt lat="45.01314408144098" lon="8.0824879646409"><ele>245.0</ele><time>2026-04-11T11:42:01.999Z</time></trkpt><trkpt lat="45.013057775793094" lon="8.082515703226877"><ele>246.33333333333331</ele><time>2026-04-11T11:42:03.999Z</time></trkpt><trkpt lat="45.01297923607617" lon="8.08250369645092"><ele>247.66666666666666</ele><time>2026-04-11T11:42:05.999Z</time></trkpt><trkpt lat="45.01289807876025" lon="8.082474529853677"><ele>249.0</ele><time>2026-04-11T11:42:08Z</time></trkpt><trkpt lat="45.01282390485682" lon="8.082411378665105"><ele>249.0</ele><time>2026-04-11T11:42:10Z</time></trkpt><trkpt lat="45.012755704839684" lon="8.08233338268937"><ele>249.0</ele><time>2026-04-11T11:42:12Z</time></trkpt><trkpt lat="45.01269562208001" lon="8.082243871868211"><ele>249.0</ele><time>2026-04-11T11:42:14Z</time></trkpt><trkpt lat="45.01264982958734" lon="8.082149440642766"><ele>249.0</ele><time>2026-04-11T11:42:16Z</time></trkpt><trkpt lat="45.01259916201562" lon="8.08206265527957"><ele>249.0</ele><time>2026-04-11T11:42:18Z</time></trkpt><trkpt lat="45.0125612070081" lon="8.08196978758007"><ele>249.0</ele><time>2026-04-11T11:42:20Z</time></trkpt><trkpt lat="45.01251588923722" lon="8.081865982894787"><ele>249.16666666666666</ele><time>2026-04-11T11:42:22Z</time></trkpt><trkpt lat="45.01246751039574" lon="8.081762601068608"><ele>249.33333333333331</ele><time>2026-04-11T11:42:24Z</time></trkpt><trkpt lat="45.01242952680142" lon="8.081666342320473"><ele>249.5</ele><time>2026-04-11T11:42:26Z</time></trkpt><trkpt lat="45.01237825759133" lon="8.08156873929499"><ele>249.66666666666666</ele><time>2026-04-11T11:42:28Z</time></trkpt><trkpt lat="45.01231559521394" lon="8.081468918420619"><ele>249.83333333333331</ele><time>2026-04-11T11:42:30Z</time></trkpt><trkpt lat="45.012253124378766" lon="8.08139136202325"><ele>250.0</ele><time>2026-04-11T11:42:32Z</time></trkpt><trkpt lat="45.01217465280776" lon="8.081314217588956"><ele>247.33333333333331</ele><time>2026-04-11T11:42:34Z</time></trkpt><trkpt lat="45.01209116098005" lon="8.081285998822219"><ele>244.66666666666666</ele><time>2026-04-11T11:42:36Z</time></trkpt><trkpt lat="45.01200317392642" lon="8.081275816790209"><ele>242.0</ele><time>2026-04-11T11:42:38Z</time></trkpt><trkpt lat="45.011910596794344" lon="8.08130362477635"><ele>239.33333333333331</ele><time>2026-04-11T11:42:40Z</time></trkpt><trkpt lat="45.01182876898223" lon="8.081348108768287"><ele>236.66666666666666</ele><time>2026-04-11T11:42:42Z</time></trkpt><trkpt lat="45.01175556398121" lon="8.08140030655138"><ele>234.0</ele><time>2026-04-11T11:42:44Z</time></trkpt><trkpt lat="45.01168045916686" lon="8.081469982798648"><ele>233.33333333333334</ele><time>2026-04-11T11:42:46Z</time></trkpt><trkpt lat="45.011612472795846" lon="8.081545502294611"><ele>232.66666666666669</ele><time>2026-04-11T11:42:48Z</time></trkpt><trkpt lat="45.011544694479" lon="8.081620144335002"><ele>232.0</ele><time>2026-04-11T11:42:50Z</time></trkpt><trkpt lat="45.01147748330297" lon="8.081696261612846"><ele>231.33333333333334</ele><time>2026-04-11T11:42:52Z</time></trkpt><trkpt lat="45.01140678572324" lon="8.081768573880494"><ele>230.66666666666669</ele><time>2026-04-11T11:42:54Z</time></trkpt><trkpt lat="45.01134234384287" lon="8.081851399360751"><ele>230.0</ele><time>2026-04-11T11:42:56Z</time></trkpt><trkpt lat="45.01127333727021" lon="8.081923060654223"><ele>232.66666666666669</ele><time>2026-04-11T11:42:58Z</time></trkpt><trkpt lat="45.01120624635693" lon="8.082007172347074"><ele>235.33333333333334</ele><time>2026-04-11T11:43:00Z</time></trkpt><trkpt lat="45.01113866341598" lon="8.08208843234288"><ele>238.0</ele><time>2026-04-11T11:43:02Z</time></trkpt><trkpt lat="45.011067449402766" lon="8.08217137477522"><ele>240.66666666666669</ele><time>2026-04-11T11:43:04Z</time></trkpt><trkpt lat="45.01099869684013" lon="8.082250015278376"><ele>243.33333333333334</ele><time>2026-04-11T11:43:06Z</time></trkpt><trkpt lat="45.01093380530239" lon="8.082323191066276"><ele>246.0</ele><time>2026-04-11T11:43:08Z</time></trkpt><trkpt lat="45.010878855682535" lon="8.082409946306077"><ele>246.16666666666666</ele><time>2026-04-11T11:43:09.999Z</time></trkpt><trkpt lat="45.01082182026834" lon="8.082498082785705"><ele>246.33333333333331</ele><time>2026-04-11T11:43:11.999Z</time></trkpt><trkpt lat="45.01077145948448" lon="8.082595461599027"><ele>246.5</ele><time>2026-04-11T11:43:13.999Z</time></trkpt><trkpt lat="45.01072207186574" lon="8.082693224582076"><ele>246.66666666666666</ele><time>2026-04-11T11:43:15.999Z</time></trkpt><trkpt lat="45.01066729934796" lon="8.08278527591862"><ele>246.83333333333331</ele><time>2026-04-11T11:43:17.999Z</time></trkpt><trkpt lat="45.01063356374397" lon="8.082890021818766"><ele>247.0</ele><time>2026-04-11T11:43:19.999Z</time></trkpt><trkpt lat="45.010573947287504" lon="8.08297238676264"><ele>246.99999999999997</ele><time>2026-04-11T11:43:21.999Z</time></trkpt><trkpt lat="45.010528917088806" lon="8.083078882260937"><ele>247.0</ele><time>2026-04-11T11:43:23.999Z</time></trkpt><trkpt lat="45.0104644445524" lon="8.083163295129289"><ele>247.0</ele><time>2026-04-11T11:43:25.999Z</time></trkpt><trkpt lat="45.01040210503658" lon="8.083240531882728"><ele>247.0</ele><time>2026-04-11T11:43:27.999Z</time></trkpt><trkpt lat="45.010335888384496" lon="8.083321090930733"><ele>246.99999999999997</ele><time>2026-04-11T11:43:29.999Z</time></trkpt><trkpt lat="45.010273483736334" lon="8.083383781755618"><ele>247.0</ele><time>2026-04-11T11:43:31.999Z</time></trkpt><trkpt lat="45.010202585649445" lon="8.0834500491532"><ele>246.33333333333331</ele><time>2026-04-11T11:43:33.999Z</time></trkpt><trkpt lat="45.01013347331047" lon="8.083518045607144"><ele>245.66666666666666</ele><time>2026-04-11T11:43:35.999Z</time></trkpt><trkpt lat="45.010061428083254" lon="8.083586509983194"><ele>245.0</ele><time>2026-04-11T11:43:37.999Z</time></trkpt><trkpt lat="45.00999857038634" lon="8.083664487109466"><ele>244.33333333333331</ele><time>2026-04-11T11:43:39.999Z</time></trkpt><trkpt lat="45.009932948194376" lon="8.08374190530605"><ele>243.66666666666666</ele><time>2026-04-11T11:43:41.999Z</time></trkpt><trkpt lat="45.009875380269044" lon="8.083824469573692"><ele>243.0</ele><time>2026-04-11T11:43:43.999Z</time></trkpt><trkpt lat="45.00982321114197" lon="8.083919692887266"><ele>243.0</ele><time>2026-04-11T11:43:45.999Z</time></trkpt><trkpt lat="45.009773612836554" lon="8.084016911677786"><ele>243.0</ele><time>2026-04-11T11:43:47.999Z</time></trkpt><trkpt lat="45.009729067917114" lon="8.084122473643813"><ele>243.0</ele><time>2026-04-11T11:43:49.999Z</time></trkpt><trkpt lat="45.009682712918845" lon="8.084224448798702"><ele>243.0</ele><time>2026-04-11T11:43:51.999Z</time></trkpt><trkpt lat="45.00964347540644" lon="8.084336160047267"><ele>243.0</ele><time>2026-04-11T11:43:53.999Z</time></trkpt><trkpt lat="45.009610462409086" lon="8.08444661059808"><ele>243.0</ele><time>2026-04-11T11:43:55.999Z</time></trkpt><trkpt lat="45.00957425031741" lon="8.084555324120277"><ele>244.66666666666666</ele><time>2026-04-11T11:43:57.999Z</time></trkpt><trkpt lat="45.00953390081217" lon="8.084656894881123"><ele>246.33333333333331</ele><time>2026-04-11T11:43:59.999Z</time></trkpt><trkpt lat="45.009507295765836" lon="8.084749010948949"><ele>248.0</ele><time>2026-04-11T11:44:01.999Z</time></trkpt><trkpt lat="45.0094790336114" lon="8.08484167286297"><ele>249.66666666666666</ele><time>2026-04-11T11:44:03.999Z</time></trkpt><trkpt lat="45.00945310461105" lon="8.084944599421238"><ele>251.33333333333331</ele><time>2026-04-11T11:44:05.999Z</time></trkpt><trkpt lat="45.00943719200646" lon="8.085056421632645"><ele>253.0</ele><time>2026-04-11T11:44:07.999Z</time></trkpt><trkpt lat="45.009425631856075" lon="8.085191057097688"><ele>255.99999999999997</ele><time>2026-04-11T11:44:09.999Z</time></trkpt><trkpt lat="45.00943147693566" lon="8.085312326668129"><ele>259.0</ele><time>2026-04-11T11:44:11.999Z</time></trkpt><trkpt lat="45.009447574253706" lon="8.0854270566907"><ele>262.0</ele><time>2026-04-11T11:44:14Z</time></trkpt><trkpt lat="45.009453775833634" lon="8.085516736157352"><ele>265.0</ele><time>2026-04-11T11:44:16Z</time></trkpt><trkpt lat="45.009482337664515" lon="8.085617254811432"><ele>268.0</ele><time>2026-04-11T11:44:18Z</time></trkpt><trkpt lat="45.00950923104969" lon="8.08570683460874"><ele>271.0</ele><time>2026-04-11T11:44:20Z</time></trkpt><trkpt lat="45.009545436928754" lon="8.085832556564906"><ele>272.8333333333333</ele><time>2026-04-11T11:44:22Z</time></trkpt><trkpt lat="45.00960261739594" lon="8.085926622553666"><ele>274.66666666666663</ele><time>2026-04-11T11:44:24Z</time></trkpt><trkpt lat="45.00965044913504" lon="8.086031031646353"><ele>276.5</ele><time>2026-04-11T11:44:26Z</time></trkpt><trkpt lat="45.00970070656674" lon="8.086101093192621"><ele>278.3333333333333</ele><time>2026-04-11T11:44:28Z</time></trkpt><trkpt lat="45.00976037142857" lon="8.086143969244791"><ele>280.1666666666667</ele><time>2026-04-11T11:44:30Z</time></trkpt><trkpt lat="45.009821996891255" lon="8.0861671333302"><ele>282.0</ele><time>2026-04-11T11:44:33Z</time></trkpt><trkpt lat="45.00990716419919" lon="8.086171936913518"><ele>282.0</ele><time>2026-04-11T11:45:27.999Z</time></trkpt><trkpt lat="45.009984620719656" lon="8.086206671731599"><ele>282.0</ele><time>2026-04-11T11:45:39.999Z</time></trkpt><trkpt lat="45.01006902396183" lon="8.086184292759302"><ele>282.0</ele><time>2026-04-11T11:45:42.999Z</time></trkpt><trkpt lat="45.01013232920824" lon="8.086184061277638"><ele>282.0</ele><time>2026-04-11T11:45:44.999Z</time></trkpt><trkpt lat="45.01020182323465" lon="8.086187741972175"><ele>282.0</ele><time>2026-04-11T11:45:46.999Z</time></trkpt><trkpt lat="45.01027262754652" lon="8.086189898820136"><ele>282.0</ele><time>2026-04-11T11:45:48.999Z</time></trkpt><trkpt lat="45.01034987576069" lon="8.086193481733595"><ele>282.0</ele><time>2026-04-11T11:45:50.999Z</time></trkpt><trkpt lat="45.010430441639535" lon="8.086192092494988"><ele>280.5</ele><time>2026-04-11T11:45:52.999Z</time></trkpt><trkpt lat="45.010512106177515" lon="8.086188057799466"><ele>279.0</ele><time>2026-04-11T11:45:54.999Z</time></trkpt><trkpt lat="45.01059665075791" lon="8.086179399337624"><ele>277.5</ele><time>2026-04-11T11:45:56.999Z</time></trkpt><trkpt lat="45.01067867697109" lon="8.086168893748264"><ele>276.0</ele><time>2026-04-11T11:45:58.999Z</time></trkpt><trkpt lat="45.010765844108064" lon="8.08617246307857"><ele>274.5</ele><time>2026-04-11T11:46:00.999Z</time></trkpt><trkpt lat="45.010858089081445" lon="8.086170031894246"><ele>273.0</ele><time>2026-04-11T11:46:02.999Z</time></trkpt><trkpt lat="45.010950195744144" lon="8.086144010473634"><ele>271.6</ele><time>2026-04-11T11:46:04.999Z</time></trkpt><trkpt lat="45.01104553325708" lon="8.086140605124328"><ele>270.20000000000005</ele><time>2026-04-11T11:46:06.999Z</time></trkpt><trkpt lat="45.01114414231822" lon="8.08613648970829"><ele>268.8</ele><time>2026-04-11T11:46:08.999Z</time></trkpt><trkpt lat="45.01124686186377" lon="8.086134440332582"><ele>267.40000000000003</ele><time>2026-04-11T11:46:10.999Z</time></trkpt><trkpt lat="45.011351292585616" lon="8.08613330915882"><ele>266.0</ele><time>2026-04-11T11:46:12.999Z</time></trkpt><trkpt lat="45.01145597060042" lon="8.086149706450595"><ele>266.0</ele><time>2026-04-11T11:46:14.999Z</time></trkpt><trkpt lat="45.01156016150973" lon="8.086172466478418"><ele>266.0</ele><time>2026-04-11T11:46:16.999Z</time></trkpt><trkpt lat="45.01167027272586" lon="8.086201755791668"><ele>266.0</ele><time>2026-04-11T11:46:19Z</time></trkpt><trkpt lat="45.011779507970886" lon="8.086250384886814"><ele>266.0</ele><time>2026-04-11T11:46:21Z</time></trkpt><trkpt lat="45.011887646308764" lon="8.086305061057228"><ele>266.0</ele><time>2026-04-11T11:46:23Z</time></trkpt><trkpt lat="45.012003506961875" lon="8.086352078323372"><ele>265.75</ele><time>2026-04-11T11:46:25Z</time></trkpt><trkpt lat="45.01211616199891" lon="8.086388749199918"><ele>265.5</ele><time>2026-04-11T11:46:27Z</time></trkpt><trkpt lat="45.01223044937888" lon="8.086442324994296"><ele>265.25</ele><time>2026-04-11T11:46:29Z</time></trkpt><trkpt lat="45.01234403091674" lon="8.086480884232232"><ele>265.0</ele><time>2026-04-11T11:46:31Z</time></trkpt><trkpt lat="45.01246021259157" lon="8.086489911214422"><ele>265.25</ele><time>2026-04-11T11:46:33Z</time></trkpt><trkpt lat="45.01257519641487" lon="8.08646980526795"><ele>265.5</ele><time>2026-04-11T11:46:35Z</time></trkpt><trkpt lat="45.012686050538086" lon="8.086414168477665"><ele>265.75</ele><time>2026-04-11T11:46:37Z</time></trkpt><trkpt lat="45.012792928133194" lon="8.086350173956331"><ele>266.0</ele><time>2026-04-11T11:46:39Z</time></trkpt><trkpt lat="45.01289204750598" lon="8.086249375531771"><ele>266.0</ele><time>2026-04-11T11:46:41Z</time></trkpt><trkpt lat="45.0129919741781" lon="8.086150194682217"><ele>266.0</ele><time>2026-04-11T11:46:43Z</time></trkpt><trkpt lat="45.01310351413661" lon="8.086098699190797"><ele>266.0</ele><time>2026-04-11T11:46:45Z</time></trkpt><trkpt lat="45.0131789355045" lon="8.086084969424373"><ele>266.0</ele><time>2026-04-11T11:46:46Z</time></trkpt><trkpt lat="45.01324770548686" lon="8.086090848596825"><ele>266.0</ele><time>2026-04-11T11:46:47Z</time></trkpt><trkpt lat="45.01331015150043" lon="8.086135048578418"><ele>265.0</ele><time>2026-04-11T11:46:48Z</time></trkpt><trkpt lat="45.013370620152294" lon="8.08618167427932"><ele>264.0</ele><time>2026-04-11T11:46:49Z</time></trkpt><trkpt lat="45.013427353905456" lon="8.086237271683391"><ele>263.0</ele><time>2026-04-11T11:46:50Z</time></trkpt><trkpt lat="45.01348204832964" lon="8.086293326372157"><ele>262.0</ele><time>2026-04-11T11:46:51Z</time></trkpt><trkpt lat="45.01353479580837" lon="8.086351749244752"><ele>261.0</ele><time>2026-04-11T11:46:52Z</time></trkpt><trkpt lat="45.01358953978203" lon="8.086408783039943"><ele>260.0</ele><time>2026-04-11T11:46:53Z</time></trkpt><trkpt lat="45.01368950171478" lon="8.086514813011268"><ele>260.0</ele><time>2026-04-11T11:46:55Z</time></trkpt><trkpt lat="45.0137441357652" lon="8.086564599195775"><ele>260.0</ele><time>2026-04-11T11:46:56Z</time></trkpt><trkpt lat="45.01383574130216" lon="8.08666225886097"><ele>260.0</ele><time>2026-04-11T11:46:58Z</time></trkpt><trkpt lat="45.01393787280714" lon="8.086761216901046"><ele>260.0</ele><time>2026-04-11T11:47:00Z</time></trkpt><trkpt lat="45.014035810732814" lon="8.086869753569546"><ele>260.0</ele><time>2026-04-11T11:47:02Z</time></trkpt><trkpt lat="45.01413218817602" lon="8.086977769007712"><ele>258.4</ele><time>2026-04-11T11:47:04Z</time></trkpt><trkpt lat="45.01421482841486" lon="8.087065110527716"><ele>256.8</ele><time>2026-04-11T11:47:06Z</time></trkpt><trkpt lat="45.01429051508313" lon="8.087140363807569"><ele>255.2</ele><time>2026-04-11T11:47:08Z</time></trkpt><trkpt lat="45.01436626824944" lon="8.087209987348603"><ele>253.6</ele><time>2026-04-11T11:47:10Z</time></trkpt><trkpt lat="45.01442913458468" lon="8.087291152037759"><ele>252.0</ele><time>2026-04-11T11:47:12Z</time></trkpt><trkpt lat="45.01449772604706" lon="8.087368156591056"><ele>251.33333333333334</ele><time>2026-04-11T11:47:14Z</time></trkpt><trkpt lat="45.01455156331927" lon="8.087476136592867"><ele>250.66666666666669</ele><time>2026-04-11T11:47:16Z</time></trkpt><trkpt lat="45.0145708300758" lon="8.087587551044187"><ele>250.0</ele><time>2026-04-11T11:47:18Z</time></trkpt><trkpt lat="45.01456812706835" lon="8.087690468762068"><ele>249.33333333333334</ele><time>2026-04-11T11:47:19.999Z</time></trkpt><trkpt lat="45.014556708573785" lon="8.08777810598344"><ele>248.66666666666669</ele><time>2026-04-11T11:47:21.999Z</time></trkpt><trkpt lat="45.014507097151736" lon="8.087891840248925"><ele>248.0</ele><time>2026-04-11T11:47:24.999Z</time></trkpt><trkpt lat="45.014458128567696" lon="8.087953427107305"><ele>248.00000000000003</ele><time>2026-04-11T11:47:26.999Z</time></trkpt><trkpt lat="45.01439187229108" lon="8.088007317933299"><ele>248.0</ele><time>2026-04-11T11:47:28.999Z</time></trkpt><trkpt lat="45.014310142734104" lon="8.088040866600586"><ele>248.0</ele><time>2026-04-11T11:47:30.999Z</time></trkpt><trkpt lat="45.014234948315476" lon="8.088022533639874"><ele>248.0</ele><time>2026-04-11T11:47:32.999Z</time></trkpt><trkpt lat="45.01414312604025" lon="8.087978447240213"><ele>248.00000000000003</ele><time>2026-04-11T11:47:34.999Z</time></trkpt><trkpt lat="45.01406483730392" lon="8.087893689404353"><ele>248.0</ele><time>2026-04-11T11:47:36.999Z</time></trkpt><trkpt lat="45.01398953170762" lon="8.087787978086407"><ele>247.33333333333334</ele><time>2026-04-11T11:47:38.999Z</time></trkpt><trkpt lat="45.013905614932746" lon="8.087683933094581"><ele>246.66666666666669</ele><time>2026-04-11T11:47:40.999Z</time></trkpt><trkpt lat="45.01383438477932" lon="8.087595407240347"><ele>246.0</ele><time>2026-04-11T11:47:42.999Z</time></trkpt><trkpt lat="45.0137773438432" lon="8.08754049847036"><ele>245.33333333333331</ele><time>2026-04-11T11:47:44.999Z</time></trkpt><trkpt lat="45.0137309445544" lon="8.087451895674993"><ele>244.66666666666666</ele><time>2026-04-11T11:47:48.999Z</time></trkpt><trkpt lat="45.01368258284457" lon="8.08738752036534"><ele>244.0</ele><time>2026-04-11T11:50:46Z</time></trkpt><trkpt lat="45.013609802734074" lon="8.087387868863644"><ele>243.66666666666666</ele><time>2026-04-11T11:50:51Z</time></trkpt><trkpt lat="45.01353240827828" lon="8.0873888698391"><ele>243.33333333333331</ele><time>2026-04-11T11:50:53Z</time></trkpt><trkpt lat="45.01346258687196" lon="8.087370285511346"><ele>243.0</ele><time>2026-04-11T11:50:55Z</time></trkpt><trkpt lat="45.01337436095581" lon="8.087390540753407"><ele>242.66666666666669</ele><time>2026-04-11T11:50:57Z</time></trkpt><trkpt lat="45.01328095110783" lon="8.08740857959498"><ele>242.33333333333334</ele><time>2026-04-11T11:50:59Z</time></trkpt><trkpt lat="45.01318210200621" lon="8.0874469655818"><ele>242.0</ele><time>2026-04-11T11:51:01Z</time></trkpt><trkpt lat="45.01306990914424" lon="8.087480100057716"><ele>242.0</ele><time>2026-04-11T11:51:03Z</time></trkpt><trkpt lat="45.012958881682906" lon="8.087520710455612"><ele>242.0</ele><time>2026-04-11T11:51:05Z</time></trkpt><trkpt lat="45.01284284016651" lon="8.087546661615606"><ele>242.0</ele><time>2026-04-11T11:51:07Z</time></trkpt><trkpt lat="45.01272062387097" lon="8.087584167232787"><ele>242.0</ele><time>2026-04-11T11:51:09Z</time></trkpt><trkpt lat="45.01265847643411" lon="8.087603636556162"><ele>242.0</ele><time>2026-04-11T11:51:10Z</time></trkpt><trkpt lat="45.01259406084463" lon="8.087623384021805"><ele>242.0</ele><time>2026-04-11T11:51:11Z</time></trkpt><trkpt lat="45.012527821252334" lon="8.087643996227307"><ele>241.99999999999997</ele><time>2026-04-11T11:51:12Z</time></trkpt><trkpt lat="45.01246001830879" lon="8.08766023907106"><ele>242.0</ele><time>2026-04-11T11:51:13Z</time></trkpt><trkpt lat="45.012392497736876" lon="8.087676410200391"><ele>242.0</ele><time>2026-04-11T11:51:14Z</time></trkpt><trkpt lat="45.012322263367466" lon="8.087696164083432"><ele>241.99999999999997</ele><time>2026-04-11T11:51:15Z</time></trkpt><trkpt lat="45.012249035320316" lon="8.08772178691697"><ele>242.0</ele><time>2026-04-11T11:51:16Z</time></trkpt><trkpt lat="45.01217659850401" lon="8.087742714872181"><ele>242.0</ele><time>2026-04-11T11:51:17Z</time></trkpt><trkpt lat="45.01209876094609" lon="8.087764553481826"><ele>242.50000000000003</ele><time>2026-04-11T11:51:18Z</time></trkpt><trkpt lat="45.01202351156347" lon="8.087787166474442"><ele>243.0</ele><time>2026-04-11T11:51:19Z</time></trkpt><trkpt lat="45.01194789208816" lon="8.087811242485904"><ele>243.5</ele><time>2026-04-11T11:51:20Z</time></trkpt><trkpt lat="45.01186781280857" lon="8.087833338725618"><ele>244.0</ele><time>2026-04-11T11:51:21Z</time></trkpt><trkpt lat="45.011789476289536" lon="8.087853638794362"><ele>244.50000000000003</ele><time>2026-04-11T11:51:22Z</time></trkpt><trkpt lat="45.01171050213015" lon="8.087870850634372"><ele>245.0</ele><time>2026-04-11T11:51:23Z</time></trkpt><trkpt lat="45.011633506368796" lon="8.0878940065189"><ele>245.00000000000003</ele><time>2026-04-11T11:51:24Z</time></trkpt><trkpt lat="45.01155630670655" lon="8.087917026992782"><ele>245.0</ele><time>2026-04-11T11:51:25Z</time></trkpt><trkpt lat="45.01147545068449" lon="8.087936837350552"><ele>245.0</ele><time>2026-04-11T11:51:26Z</time></trkpt><trkpt lat="45.01139407852017" lon="8.087959247518757"><ele>245.0</ele><time>2026-04-11T11:51:27Z</time></trkpt><trkpt lat="45.01131276260716" lon="8.087981843203286"><ele>245.00000000000003</ele><time>2026-04-11T11:51:28Z</time></trkpt><trkpt lat="45.01122970287927" lon="8.088006522688227"><ele>245.0</ele><time>2026-04-11T11:51:29Z</time></trkpt><trkpt lat="45.01114628997122" lon="8.088030243828067"><ele>245.00000000000003</ele><time>2026-04-11T11:51:29.999Z</time></trkpt><trkpt lat="45.011060681293166" lon="8.088053659845707"><ele>245.0</ele><time>2026-04-11T11:51:30.999Z</time></trkpt><trkpt lat="45.010978419019835" lon="8.088076578437532"><ele>245.0</ele><time>2026-04-11T11:51:31.999Z</time></trkpt><trkpt lat="45.0108938067903" lon="8.088098489972463"><ele>245.0</ele><time>2026-04-11T11:51:32.999Z</time></trkpt><trkpt lat="45.01080908431487" lon="8.088123113992019"><ele>245.00000000000003</ele><time>2026-04-11T11:51:33.999Z</time></trkpt><trkpt lat="45.01072309801822" lon="8.088146384732001"><ele>245.0</ele><time>2026-04-11T11:51:34.999Z</time></trkpt><trkpt lat="45.01063502463444" lon="8.088166874317599"><ele>244.66666666666669</ele><time>2026-04-11T11:51:35.999Z</time></trkpt><trkpt lat="45.0105467659799" lon="8.088189931986125"><ele>244.33333333333334</ele><time>2026-04-11T11:51:36.999Z</time></trkpt><trkpt lat="45.01045827512008" lon="8.08821481100492"><ele>244.0</ele><time>2026-04-11T11:51:37.999Z</time></trkpt><trkpt lat="45.010371802560556" lon="8.088242114196277"><ele>243.66666666666669</ele><time>2026-04-11T11:51:38.999Z</time></trkpt><trkpt lat="45.01028431871416" lon="8.088268240936161"><ele>243.33333333333334</ele><time>2026-04-11T11:51:39.999Z</time></trkpt><trkpt lat="45.01020153918691" lon="8.088301652207381"><ele>243.0</ele><time>2026-04-11T11:51:40.999Z</time></trkpt><trkpt lat="45.010119124285765" lon="8.088340491938654"><ele>242.16666666666666</ele><time>2026-04-11T11:51:41.999Z</time></trkpt><trkpt lat="45.01004024541777" lon="8.088381821499572"><ele>241.33333333333331</ele><time>2026-04-11T11:51:42.999Z</time></trkpt><trkpt lat="45.00996636937875" lon="8.088430945466337"><ele>240.5</ele><time>2026-04-11T11:51:43.999Z</time></trkpt><trkpt lat="45.0098966321944" lon="8.08848639035784"><ele>239.66666666666666</ele><time>2026-04-11T11:51:44.999Z</time></trkpt><trkpt lat="45.00982835892288" lon="8.088551673263318"><ele>238.83333333333331</ele><time>2026-04-11T11:51:45.999Z</time></trkpt><trkpt lat="45.00976326118751" lon="8.08861757969121"><ele>238.0</ele><time>2026-04-11T11:51:46.999Z</time></trkpt><trkpt lat="45.00969942279413" lon="8.0886913326858"><ele>237.99999999999997</ele><time>2026-04-11T11:51:47.999Z</time></trkpt><trkpt lat="45.00963934270972" lon="8.088765124088004"><ele>238.0</ele><time>2026-04-11T11:51:48.999Z</time></trkpt><trkpt lat="45.00957661091104" lon="8.088840178939778"><ele>238.0</ele><time>2026-04-11T11:51:49.999Z</time></trkpt><trkpt lat="45.0095127355073" lon="8.088917937755843"><ele>238.0</ele><time>2026-04-11T11:51:50.999Z</time></trkpt><trkpt lat="45.00944921944574" lon="8.088994722357706"><ele>237.99999999999997</ele><time>2026-04-11T11:51:51.999Z</time></trkpt><trkpt lat="45.00938693960734" lon="8.08907379422149"><ele>238.0</ele><time>2026-04-11T11:51:52.999Z</time></trkpt><trkpt lat="45.00932755358387" lon="8.08915455949622"><ele>237.66666666666666</ele><time>2026-04-11T11:51:53.999Z</time></trkpt><trkpt lat="45.009266495739546" lon="8.089233278834888"><ele>237.33333333333331</ele><time>2026-04-11T11:51:54.999Z</time></trkpt><trkpt lat="45.00920494480406" lon="8.089309415361505"><ele>237.0</ele><time>2026-04-11T11:51:55.999Z</time></trkpt><trkpt lat="45.00914659779164" lon="8.08938192088587"><ele>236.66666666666669</ele><time>2026-04-11T11:51:56.999Z</time></trkpt><trkpt lat="45.00908957980817" lon="8.089456745095738"><ele>236.33333333333334</ele><time>2026-04-11T11:51:57.999Z</time></trkpt><trkpt lat="45.00903219756124" lon="8.089530036745836"><ele>236.0</ele><time>2026-04-11T11:51:58.999Z</time></trkpt><trkpt lat="45.00897385890904" lon="8.08960249201924"><ele>236.00000000000003</ele><time>2026-04-11T11:51:59.999Z</time></trkpt><trkpt lat="45.008913250988286" lon="8.089678829489785"><ele>236.0</ele><time>2026-04-11T11:52:00.999Z</time></trkpt><trkpt lat="45.00885033509671" lon="8.089755666184846"><ele>236.0</ele><time>2026-04-11T11:52:01.999Z</time></trkpt><trkpt lat="45.00878784757499" lon="8.089831380218135"><ele>236.0</ele><time>2026-04-11T11:52:02.999Z</time></trkpt><trkpt lat="45.00872657719086" lon="8.08990837622207"><ele>236.00000000000003</ele><time>2026-04-11T11:52:03.999Z</time></trkpt><trkpt lat="45.0086638070624" lon="8.089985542969577"><ele>236.0</ele><time>2026-04-11T11:52:04.999Z</time></trkpt><trkpt lat="45.00860492884827" lon="8.090064431477323"><ele>235.50000000000003</ele><time>2026-04-11T11:52:05.999Z</time></trkpt><trkpt lat="45.00854428585407" lon="8.09014815092969"><ele>235.0</ele><time>2026-04-11T11:52:06.999Z</time></trkpt><trkpt lat="45.00848216767021" lon="8.090235896555564"><ele>234.5</ele><time>2026-04-11T11:52:07.999Z</time></trkpt><trkpt lat="45.00842531241434" lon="8.090330207479386"><ele>234.0</ele><time>2026-04-11T11:52:08.999Z</time></trkpt><trkpt lat="45.00837267674829" lon="8.09042782151945"><ele>233.50000000000003</ele><time>2026-04-11T11:52:09.999Z</time></trkpt><trkpt lat="45.00832571287436" lon="8.090529261112634"><ele>233.0</ele><time>2026-04-11T11:52:10.999Z</time></trkpt><trkpt lat="45.00828330202203" lon="8.090639101596215"><ele>233.0</ele><time>2026-04-11T11:52:11.999Z</time></trkpt><trkpt lat="45.008251192087364" lon="8.090754894557055"><ele>233.0</ele><time>2026-04-11T11:52:12.999Z</time></trkpt><trkpt lat="45.008206670703196" lon="8.090868494379094"><ele>233.0</ele><time>2026-04-11T11:52:13.999Z</time></trkpt><trkpt lat="45.00819758370704" lon="8.091002193170276"><ele>233.0</ele><time>2026-04-11T11:52:14.999Z</time></trkpt><trkpt lat="45.00817251672265" lon="8.091126507232238"><ele>233.0</ele><time>2026-04-11T11:52:15.999Z</time></trkpt><trkpt lat="45.008164574006216" lon="8.091255427820458"><ele>233.0</ele><time>2026-04-11T11:52:16.999Z</time></trkpt><trkpt lat="45.00816313615202" lon="8.091387669119054"><ele>233.0</ele><time>2026-04-11T11:52:17.999Z</time></trkpt><trkpt lat="45.008173452254574" lon="8.091518176918264"><ele>233.0</ele><time>2026-04-11T11:52:18.999Z</time></trkpt><trkpt lat="45.00818553981311" lon="8.09164870338584"><ele>233.0</ele><time>2026-04-11T11:52:19.999Z</time></trkpt><trkpt lat="45.008199470744785" lon="8.091782680129826"><ele>233.0</ele><time>2026-04-11T11:52:20.999Z</time></trkpt><trkpt lat="45.00820998437545" lon="8.091917596062705"><ele>233.0</ele><time>2026-04-11T11:52:21.999Z</time></trkpt><trkpt lat="45.008221690613574" lon="8.09205282550086"><ele>233.0</ele><time>2026-04-11T11:52:22.999Z</time></trkpt><trkpt lat="45.00823217707093" lon="8.092185516239372"><ele>233.0</ele><time>2026-04-11T11:52:23.999Z</time></trkpt><trkpt lat="45.00823858448912" lon="8.09231521247605"><ele>233.0</ele><time>2026-04-11T11:52:24.999Z</time></trkpt><trkpt lat="45.008237508100514" lon="8.09243933124908"><ele>233.0</ele><time>2026-04-11T11:52:25.999Z</time></trkpt><trkpt lat="45.00823224767229" lon="8.092565689621178"><ele>232.85714285714286</ele><time>2026-04-11T11:52:26.999Z</time></trkpt><trkpt lat="45.008217669164914" lon="8.092676968040582"><ele>232.71428571428572</ele><time>2026-04-11T11:52:27.999Z</time></trkpt><trkpt lat="45.00820431344294" lon="8.092785456729839"><ele>232.57142857142858</ele><time>2026-04-11T11:52:28.999Z</time></trkpt><trkpt lat="45.008190294097986" lon="8.092883905197388"><ele>232.42857142857144</ele><time>2026-04-11T11:52:29.999Z</time></trkpt><trkpt lat="45.00817730301271" lon="8.092977854420738"><ele>232.28571428571428</ele><time>2026-04-11T11:52:30.999Z</time></trkpt><trkpt lat="45.008168194636056" lon="8.093072018013391"><ele>232.14285714285717</ele><time>2026-04-11T11:52:31.999Z</time></trkpt><trkpt lat="45.0081598188157" lon="8.093169475064126"><ele>232.00000000000003</ele><time>2026-04-11T11:52:32.999Z</time></trkpt><trkpt lat="45.00814555952163" lon="8.093266782245381"><ele>230.83333333333331</ele><time>2026-04-11T11:52:33.999Z</time></trkpt><trkpt lat="45.008131860511405" lon="8.093363889275489"><ele>229.66666666666666</ele><time>2026-04-11T11:52:34.999Z</time></trkpt><trkpt lat="45.00811979416838" lon="8.093467157164454"><ele>228.5</ele><time>2026-04-11T11:52:35.999Z</time></trkpt><trkpt lat="45.008106768863975" lon="8.093574283663598"><ele>227.33333333333331</ele><time>2026-04-11T11:52:37Z</time></trkpt><trkpt lat="45.008085490780225" lon="8.093678974079143"><ele>226.16666666666666</ele><time>2026-04-11T11:52:38Z</time></trkpt><trkpt lat="45.00806826412791" lon="8.093786719460653"><ele>225.0</ele><time>2026-04-11T11:52:39Z</time></trkpt><trkpt lat="45.00805640908149" lon="8.093894665560379"><ele>225.00000000000003</ele><time>2026-04-11T11:52:40Z</time></trkpt><trkpt lat="45.00804262155058" lon="8.094000222504162"><ele>225.0</ele><time>2026-04-11T11:52:41Z</time></trkpt><trkpt lat="45.00802875583563" lon="8.094106041748447"><ele>225.00000000000003</ele><time>2026-04-11T11:52:42Z</time></trkpt><trkpt lat="45.008015813246914" lon="8.094210010139522"><ele>225.00000000000003</ele><time>2026-04-11T11:52:43Z</time></trkpt><trkpt lat="45.0080027148193" lon="8.094312635860478"><ele>225.0</ele><time>2026-04-11T11:52:44Z</time></trkpt><trkpt lat="45.00798857419763" lon="8.094408664700046"><ele>225.00000000000003</ele><time>2026-04-11T11:52:45Z</time></trkpt><trkpt lat="45.00797541449252" lon="8.094503189883168"><ele>225.00000000000003</ele><time>2026-04-11T11:52:46Z</time></trkpt><trkpt lat="45.00796085079727" lon="8.094601102881963"><ele>225.14285714285717</ele><time>2026-04-11T11:52:47Z</time></trkpt><trkpt lat="45.007949162553864" lon="8.094701917548802"><ele>225.28571428571428</ele><time>2026-04-11T11:52:48Z</time></trkpt><trkpt lat="45.00793534742088" lon="8.094804668722631"><ele>225.42857142857144</ele><time>2026-04-11T11:52:49Z</time></trkpt><trkpt lat="45.00792226057439" lon="8.09490355191811"><ele>225.57142857142858</ele><time>2026-04-11T11:52:50Z</time></trkpt><trkpt lat="45.00790581738557" lon="8.095005489229631"><ele>225.71428571428572</ele><time>2026-04-11T11:52:51Z</time></trkpt><trkpt lat="45.007889300859496" lon="8.09510953323032"><ele>225.85714285714286</ele><time>2026-04-11T11:52:52Z</time></trkpt><trkpt lat="45.00787210141069" lon="8.095213059530598"><ele>226.0</ele><time>2026-04-11T11:52:53Z</time></trkpt><trkpt lat="45.00784863846687" lon="8.095313479843714"><ele>224.33333333333331</ele><time>2026-04-11T11:52:54Z</time></trkpt><trkpt lat="45.00782369020853" lon="8.095418982809415"><ele>222.66666666666666</ele><time>2026-04-11T11:52:55Z</time></trkpt><trkpt lat="45.0077997789365" lon="8.095519348631345"><ele>221.0</ele><time>2026-04-11T11:52:56Z</time></trkpt><trkpt lat="45.00776961536811" lon="8.095617877966317"><ele>219.33333333333331</ele><time>2026-04-11T11:52:57Z</time></trkpt><trkpt lat="45.007736547462656" lon="8.095711240067471"><ele>217.66666666666666</ele><time>2026-04-11T11:52:58Z</time></trkpt><trkpt lat="45.007708910896056" lon="8.09580980047156"><ele>216.0</ele><time>2026-04-11T11:52:59Z</time></trkpt><trkpt lat="45.00767222926765" lon="8.09590514733164"><ele>215.0</ele><time>2026-04-11T11:53:00Z</time></trkpt><trkpt lat="45.00762940755228" lon="8.09599687933606"><ele>214.0</ele><time>2026-04-11T11:53:01Z</time></trkpt><trkpt lat="45.007587209017856" lon="8.09609385876891"><ele>213.0</ele><time>2026-04-11T11:53:02Z</time></trkpt><trkpt lat="45.007545733209795" lon="8.096181986097646"><ele>212.0</ele><time>2026-04-11T11:53:03Z</time></trkpt><trkpt lat="45.00749799417316" lon="8.096265739126313"><ele>211.0</ele><time>2026-04-11T11:53:04Z</time></trkpt><trkpt lat="45.00744140304886" lon="8.09635087106205"><ele>210.0</ele><time>2026-04-11T11:53:05Z</time></trkpt><trkpt lat="45.007387393123295" lon="8.096433351174253"><ele>209.66666666666666</ele><time>2026-04-11T11:53:06Z</time></trkpt><trkpt lat="45.00733144058485" lon="8.09651260962885"><ele>209.33333333333331</ele><time>2026-04-11T11:53:07Z</time></trkpt><trkpt lat="45.007273801184425" lon="8.096597468077523"><ele>209.0</ele><time>2026-04-11T11:53:08Z</time></trkpt><trkpt lat="45.00721582423056" lon="8.096678104498233"><ele>208.66666666666666</ele><time>2026-04-11T11:53:09Z</time></trkpt><trkpt lat="45.0071542446489" lon="8.096762332050677"><ele>208.33333333333331</ele><time>2026-04-11T11:53:10Z</time></trkpt><trkpt lat="45.00709278166476" lon="8.096852667260094"><ele>208.0</ele><time>2026-04-11T11:53:11Z</time></trkpt><trkpt lat="45.00702859906889" lon="8.096942764174027"><ele>207.0</ele><time>2026-04-11T11:53:12Z</time></trkpt><trkpt lat="45.006966024865854" lon="8.097029833550112"><ele>206.0</ele><time>2026-04-11T11:53:13Z</time></trkpt><trkpt lat="45.0069011810628" lon="8.097119590661762"><ele>205.0</ele><time>2026-04-11T11:53:14Z</time></trkpt><trkpt lat="45.00683860842701" lon="8.097212051201433"><ele>204.0</ele><time>2026-04-11T11:53:15Z</time></trkpt><trkpt lat="45.00677576728986" lon="8.09730344780484"><ele>203.0</ele><time>2026-04-11T11:53:16Z</time></trkpt><trkpt lat="45.00671214203829" lon="8.097394843801009"><ele>203.33333333333334</ele><time>2026-04-11T11:53:17Z</time></trkpt><trkpt lat="45.006648625687276" lon="8.09747886539375"><ele>203.66666666666669</ele><time>2026-04-11T11:53:18Z</time></trkpt><trkpt lat="45.00658913515007" lon="8.09756456452894"><ele>204.0</ele><time>2026-04-11T11:53:19Z</time></trkpt><trkpt lat="45.00652808954681" lon="8.097646523505563"><ele>204.33333333333331</ele><time>2026-04-11T11:53:20Z</time></trkpt><trkpt lat="45.006467402955764" lon="8.0977278790839"><ele>204.66666666666666</ele><time>2026-04-11T11:53:21Z</time></trkpt><trkpt lat="45.00640782047273" lon="8.097808605307035"><ele>205.0</ele><time>2026-04-11T11:53:22Z</time></trkpt><trkpt lat="45.00635091657208" lon="8.097889805628613"><ele>204.99999999999997</ele><time>2026-04-11T11:53:23Z</time></trkpt><trkpt lat="45.006294283114066" lon="8.097969681672042"><ele>205.0</ele><time>2026-04-11T11:53:24Z</time></trkpt><trkpt lat="45.006234956425956" lon="8.098043221299616"><ele>205.0</ele><time>2026-04-11T11:53:25Z</time></trkpt><trkpt lat="45.006176583484645" lon="8.098116947670354"><ele>205.0</ele><time>2026-04-11T11:53:26Z</time></trkpt><trkpt lat="45.0061161751859" lon="8.098192539886067"><ele>204.99999999999997</ele><time>2026-04-11T11:53:27Z</time></trkpt><trkpt lat="45.00605883851732" lon="8.098265577287927"><ele>205.0</ele><time>2026-04-11T11:53:28Z</time></trkpt><trkpt lat="45.006007417611215" lon="8.098350736112009"><ele>204.83333333333331</ele><time>2026-04-11T11:53:29Z</time></trkpt><trkpt lat="45.00595254733453" lon="8.098426336508876"><ele>204.66666666666666</ele><time>2026-04-11T11:53:30Z</time></trkpt><trkpt lat="45.00589948246948" lon="8.098499670368867"><ele>204.5</ele><time>2026-04-11T11:53:31Z</time></trkpt><trkpt lat="45.005842227768376" lon="8.098575952261966"><ele>204.33333333333331</ele><time>2026-04-11T11:53:32Z</time></trkpt><trkpt lat="45.00578285548164" lon="8.09865073414682"><ele>204.16666666666666</ele><time>2026-04-11T11:53:33Z</time></trkpt><trkpt lat="45.00572576384734" lon="8.098731800642886"><ele>204.0</ele><time>2026-04-11T11:53:34Z</time></trkpt><trkpt lat="45.00566535179791" lon="8.098807030035102"><ele>203.16666666666666</ele><time>2026-04-11T11:53:35Z</time></trkpt><trkpt lat="45.00560468076542" lon="8.098887100887309"><ele>202.33333333333331</ele><time>2026-04-11T11:53:36Z</time></trkpt><trkpt lat="45.00554598456016" lon="8.098968572098173"><ele>201.5</ele><time>2026-04-11T11:53:36.999Z</time></trkpt><trkpt lat="45.005489007089515" lon="8.099046344295918"><ele>200.66666666666666</ele><time>2026-04-11T11:53:37.999Z</time></trkpt><trkpt lat="45.00543017592578" lon="8.09911795258165"><ele>199.83333333333331</ele><time>2026-04-11T11:53:38.999Z</time></trkpt><trkpt lat="45.00537497891238" lon="8.099192471224374"><ele>199.0</ele><time>2026-04-11T11:53:39.999Z</time></trkpt><trkpt lat="45.0053190035684" lon="8.099270313357907"><ele>198.66666666666666</ele><time>2026-04-11T11:53:40.999Z</time></trkpt><trkpt lat="45.00526167422825" lon="8.099349447731761"><ele>198.33333333333331</ele><time>2026-04-11T11:53:41.999Z</time></trkpt><trkpt lat="45.00520372205712" lon="8.099432921815202"><ele>198.0</ele><time>2026-04-11T11:53:42.999Z</time></trkpt><trkpt lat="45.00514916557249" lon="8.099510527548617"><ele>197.66666666666669</ele><time>2026-04-11T11:53:43.999Z</time></trkpt><trkpt lat="45.00509542009683" lon="8.099591065879807"><ele>197.33333333333334</ele><time>2026-04-11T11:53:44.999Z</time></trkpt><trkpt lat="45.00503904546119" lon="8.099665460250925"><ele>197.0</ele><time>2026-04-11T11:53:45.999Z</time></trkpt><trkpt lat="45.00498431473414" lon="8.099738524441706"><ele>197.42857142857144</ele><time>2026-04-11T11:53:46.999Z</time></trkpt><trkpt lat="45.00492569230698" lon="8.099809681740295"><ele>197.85714285714286</ele><time>2026-04-11T11:53:47.999Z</time></trkpt><trkpt lat="45.004875340547656" lon="8.099879988019763"><ele>198.28571428571428</ele><time>2026-04-11T11:53:48.999Z</time></trkpt><trkpt lat="45.0048255192408" lon="8.099948109457252"><ele>198.71428571428572</ele><time>2026-04-11T11:53:49.999Z</time></trkpt><trkpt lat="45.004776567405415" lon="8.100015408666483"><ele>199.14285714285714</ele><time>2026-04-11T11:53:50.999Z</time></trkpt><trkpt lat="45.00472540617073" lon="8.100092912964403"><ele>199.57142857142858</ele><time>2026-04-11T11:53:51.999Z</time></trkpt><trkpt lat="45.00466955630615" lon="8.100161903870951"><ele>200.0</ele><time>2026-04-11T11:53:52.999Z</time></trkpt><trkpt lat="45.00461686007645" lon="8.100233346398264"><ele>200.00000000000003</ele><time>2026-04-11T11:53:53.999Z</time></trkpt><trkpt lat="45.00456547248607" lon="8.100307777182492"><ele>200.0</ele><time>2026-04-11T11:53:54.999Z</time></trkpt><trkpt lat="45.00451529660411" lon="8.100383153760273"><ele>200.0</ele><time>2026-04-11T11:53:55.999Z</time></trkpt><trkpt lat="45.004463326229434" lon="8.100454296126168"><ele>200.0</ele><time>2026-04-11T11:53:56.999Z</time></trkpt><trkpt lat="45.00441379057874" lon="8.100522919442609"><ele>200.0</ele><time>2026-04-11T11:53:57.999Z</time></trkpt><trkpt lat="45.004361384919044" lon="8.10058390860604"><ele>200.00000000000003</ele><time>2026-04-11T11:53:58.999Z</time></trkpt><trkpt lat="45.004312868639964" lon="8.100649512330557"><ele>200.0</ele><time>2026-04-11T11:53:59.999Z</time></trkpt><trkpt lat="45.0042622118263" lon="8.100713797546472"><ele>199.71428571428572</ele><time>2026-04-11T11:54:00.999Z</time></trkpt><trkpt lat="45.00420816235864" lon="8.100790008195256"><ele>199.42857142857144</ele><time>2026-04-11T11:54:01.999Z</time></trkpt><trkpt lat="45.004155125241596" lon="8.100860082369598"><ele>199.14285714285717</ele><time>2026-04-11T11:54:02.999Z</time></trkpt><trkpt lat="45.00410461671264" lon="8.100924274914576"><ele>198.85714285714286</ele><time>2026-04-11T11:54:03.999Z</time></trkpt><trkpt lat="45.00404946985223" lon="8.100985142955714"><ele>198.57142857142856</ele><time>2026-04-11T11:54:04.999Z</time></trkpt><trkpt lat="45.003995831618965" lon="8.101042661182335"><ele>198.2857142857143</ele><time>2026-04-11T11:54:05.999Z</time></trkpt><trkpt lat="45.0039450355129" lon="8.101097140820018"><ele>198.0</ele><time>2026-04-11T11:54:06.999Z</time></trkpt><trkpt lat="45.00389460598625" lon="8.101154961544992"><ele>197.5</ele><time>2026-04-11T11:54:07.999Z</time></trkpt><trkpt lat="45.00380088262229" lon="8.101261870730422"><ele>197.0</ele><time>2026-04-11T11:54:09.999Z</time></trkpt><trkpt lat="45.00370368295183" lon="8.101356863076935"><ele>196.5</ele><time>2026-04-11T11:54:11.999Z</time></trkpt><trkpt lat="45.00360550870059" lon="8.101433057377385"><ele>196.0</ele><time>2026-04-11T11:54:13.999Z</time></trkpt><trkpt lat="45.00350500024105" lon="8.101470055226613"><ele>196.0</ele><time>2026-04-11T11:54:15.999Z</time></trkpt><trkpt lat="45.003408522308575" lon="8.10145957708605"><ele>196.0</ele><time>2026-04-11T11:54:17.999Z</time></trkpt><trkpt lat="45.00332357397003" lon="8.101484305023467"><ele>196.0</ele><time>2026-04-11T11:54:19.999Z</time></trkpt><trkpt lat="45.00325947415645" lon="8.101367632463363"><ele>196.0</ele><time>2026-04-11T11:54:21.999Z</time></trkpt><trkpt lat="45.003211800508254" lon="8.101298125495697"><ele>196.0</ele><time>2026-04-11T11:54:24.999Z</time></trkpt><trkpt lat="45.003032614234705" lon="8.101505052881102"><ele>196.0</ele><time>2026-04-11T11:55:18Z</time></trkpt><trkpt lat="45.003189121024676" lon="8.10126623171388"><ele>196.0</ele><time>2026-04-11T11:55:20Z</time></trkpt><trkpt lat="45.00314964233947" lon="8.101195210905818"><ele>196.0</ele><time>2026-04-11T11:55:50.999Z</time></trkpt><trkpt lat="45.00310448414354" lon="8.10112625869844"><ele>196.0</ele><time>2026-04-11T11:55:53.999Z</time></trkpt><trkpt lat="45.003064129364006" lon="8.101041624215894"><ele>196.0</ele><time>2026-04-11T11:55:56.999Z</time></trkpt><trkpt lat="45.00299793199353" lon="8.100954245499636"><ele>196.0</ele><time>2026-04-11T11:55:59.999Z</time></trkpt><trkpt lat="45.002944087193896" lon="8.10084547376329"><ele>196.0</ele><time>2026-04-11T11:56:02.999Z</time></trkpt><trkpt lat="45.002900024078784" lon="8.100775834407134"><ele>196.0</ele><time>2026-04-11T11:56:04.999Z</time></trkpt><trkpt lat="45.00286263418762" lon="8.10070137887175"><ele>196.0</ele><time>2026-04-11T11:56:06.999Z</time></trkpt><trkpt lat="45.00281576257647" lon="8.10062487404206"><ele>196.0</ele><time>2026-04-11T11:56:08.999Z</time></trkpt><trkpt lat="45.00276498640145" lon="8.100553619052535"><ele>196.0</ele><time>2026-04-11T11:56:10.999Z</time></trkpt><trkpt lat="45.00272530208364" lon="8.100467087602434"><ele>196.0</ele><time>2026-04-11T11:56:12.999Z</time></trkpt><trkpt lat="45.00266417777212" lon="8.100375478927964"><ele>196.71428571428572</ele><time>2026-04-11T11:56:15.999Z</time></trkpt><trkpt lat="45.00261851383096" lon="8.10029985476511"><ele>197.42857142857144</ele><time>2026-04-11T11:56:17.999Z</time></trkpt><trkpt lat="45.00256218464257" lon="8.100193159133283"><ele>198.14285714285714</ele><time>2026-04-11T11:56:20.999Z</time></trkpt><trkpt lat="45.00252667469318" lon="8.100116661033287"><ele>198.85714285714286</ele><time>2026-04-11T11:56:22.999Z</time></trkpt><trkpt lat="45.002484425385695" lon="8.100041422867573"><ele>199.57142857142858</ele><time>2026-04-11T11:56:24.999Z</time></trkpt><trkpt lat="45.00244459103615" lon="8.099972441523128"><ele>200.28571428571428</ele><time>2026-04-11T11:56:26.999Z</time></trkpt><trkpt lat="45.002403158645926" lon="8.09989986227734"><ele>201.0</ele><time>2026-04-11T11:56:28.999Z</time></trkpt><trkpt lat="45.00236284691671" lon="8.099825676152436"><ele>202.16666666666666</ele><time>2026-04-11T11:56:30.999Z</time></trkpt><trkpt lat="45.002327454167755" lon="8.099751695607281"><ele>203.33333333333331</ele><time>2026-04-11T11:56:32.999Z</time></trkpt><trkpt lat="45.00226485214129" lon="8.099651729921671"><ele>204.5</ele><time>2026-04-11T11:56:35.999Z</time></trkpt><trkpt lat="45.00220338738423" lon="8.099547818503336"><ele>205.66666666666666</ele><time>2026-04-11T11:56:38.999Z</time></trkpt><trkpt lat="45.00213916252119" lon="8.099469492862204"><ele>206.83333333333331</ele><time>2026-04-11T11:56:41.999Z</time></trkpt><trkpt lat="45.00208114346652" lon="8.099379504490082"><ele>208.0</ele><time>2026-04-11T11:56:44.999Z</time></trkpt><trkpt lat="45.002021363070334" lon="8.099299052886256"><ele>207.99999999999997</ele><time>2026-04-11T11:56:47.999Z</time></trkpt><trkpt lat="45.00195019872354" lon="8.099219494123297"><ele>208.0</ele><time>2026-04-11T11:56:51Z</time></trkpt><trkpt lat="45.00188597461182" lon="8.099133946382299"><ele>208.0</ele><time>2026-04-11T11:56:54Z</time></trkpt><trkpt lat="45.00182073828801" lon="8.099059512488315"><ele>208.0</ele><time>2026-04-11T11:56:57Z</time></trkpt><trkpt lat="45.001753723979974" lon="8.098985504687084"><ele>207.99999999999997</ele><time>2026-04-11T11:57:00Z</time></trkpt><trkpt lat="45.00168677436902" lon="8.098905033390794"><ele>208.0</ele><time>2026-04-11T11:57:03Z</time></trkpt><trkpt lat="45.00162462148182" lon="8.098830215152779"><ele>208.99999999999997</ele><time>2026-04-11T11:57:06Z</time></trkpt><trkpt lat="45.00156199544258" lon="8.098757128599889"><ele>210.0</ele><time>2026-04-11T11:57:09Z</time></trkpt><trkpt lat="45.001514981243005" lon="8.09869389796949"><ele>211.0</ele><time>2026-04-11T11:57:12Z</time></trkpt><trkpt lat="45.00144443394268" lon="8.098629254121516"><ele>212.0</ele><time>2026-04-11T11:57:15Z</time></trkpt><trkpt lat="45.00139100481112" lon="8.098572676824732"><ele>212.99999999999997</ele><time>2026-04-11T11:57:17Z</time></trkpt><trkpt lat="45.00133456688525" lon="8.098495784530195"><ele>214.0</ele><time>2026-04-11T11:57:20Z</time></trkpt><trkpt lat="45.00128367827934" lon="8.09841649069242"><ele>213.99999999999997</ele><time>2026-04-11T11:57:23Z</time></trkpt><trkpt lat="45.0012186913203" lon="8.098343447848947"><ele>214.0</ele><time>2026-04-11T11:57:26Z</time></trkpt><trkpt lat="45.001162513419416" lon="8.098273970884366"><ele>214.0</ele><time>2026-04-11T11:57:29Z</time></trkpt><trkpt lat="45.00110272410815" lon="8.098210654873688"><ele>214.0</ele><time>2026-04-11T11:57:32Z</time></trkpt><trkpt lat="45.0010490173683" lon="8.098146346446898"><ele>213.99999999999997</ele><time>2026-04-11T11:57:35Z</time></trkpt><trkpt lat="45.0009956719711" lon="8.098081738745158"><ele>214.0</ele><time>2026-04-11T11:57:38Z</time></trkpt><trkpt lat="45.000944077950436" lon="8.097994664394655"><ele>214.42857142857144</ele><time>2026-04-11T11:57:40.999Z</time></trkpt><trkpt lat="45.000877983467376" lon="8.097930253634617"><ele>214.85714285714286</ele><time>2026-04-11T11:57:43.999Z</time></trkpt><trkpt lat="45.0008206522852" lon="8.09786605317419"><ele>215.28571428571428</ele><time>2026-04-11T11:57:46.999Z</time></trkpt><trkpt lat="45.00077323974841" lon="8.097797214862803"><ele>215.71428571428572</ele><time>2026-04-11T11:57:49.999Z</time></trkpt><trkpt lat="45.00071789873291" lon="8.097740617133155"><ele>216.14285714285714</ele><time>2026-04-11T11:57:52.999Z</time></trkpt><trkpt lat="45.00066809054451" lon="8.097679235783591"><ele>216.57142857142858</ele><time>2026-04-11T11:57:55.999Z</time></trkpt><trkpt lat="45.00060926934338" lon="8.09762277744996"><ele>217.0</ele><time>2026-04-11T11:57:58.999Z</time></trkpt><trkpt lat="45.000553525610655" lon="8.097565542811985"><ele>217.0</ele><time>2026-04-11T11:58:01.999Z</time></trkpt><trkpt lat="45.00048885463271" lon="8.097492521041506"><ele>217.0</ele><time>2026-04-11T11:58:04.999Z</time></trkpt><trkpt lat="45.000440049101186" lon="8.097421799542921"><ele>217.0</ele><time>2026-04-11T11:58:07.999Z</time></trkpt><trkpt lat="45.000389232789544" lon="8.097353027894803"><ele>217.0</ele><time>2026-04-11T11:58:10.999Z</time></trkpt><trkpt lat="45.00033581148047" lon="8.09728493300882"><ele>217.0</ele><time>2026-04-11T11:58:13.999Z</time></trkpt><trkpt lat="45.00029144891979" lon="8.097214993975896"><ele>217.0</ele><time>2026-04-11T11:58:16.999Z</time></trkpt><trkpt lat="45.00024387142306" lon="8.097131413186627"><ele>217.0</ele><time>2026-04-11T11:58:19.999Z</time></trkpt><trkpt lat="45.0001799622264" lon="8.097051405295671"><ele>218.28571428571428</ele><time>2026-04-11T11:58:22.999Z</time></trkpt><trkpt lat="45.00013315875111" lon="8.09697728994966"><ele>219.57142857142856</ele><time>2026-04-11T11:58:25.999Z</time></trkpt><trkpt lat="45.00008783606761" lon="8.096903038269469"><ele>220.85714285714286</ele><time>2026-04-11T11:58:28.999Z</time></trkpt><trkpt lat="45.00004080916544" lon="8.096830894006105"><ele>222.14285714285714</ele><time>2026-04-11T11:58:31.999Z</time></trkpt><trkpt lat="44.99999579947301" lon="8.096749745250467"><ele>223.42857142857142</ele><time>2026-04-11T11:58:34.999Z</time></trkpt><trkpt lat="44.99994676936962" lon="8.096678456346407"><ele>224.71428571428572</ele><time>2026-04-11T11:58:37.999Z</time></trkpt><trkpt lat="44.999902298516815" lon="8.096608939968124"><ele>226.0</ele><time>2026-04-11T11:58:40.999Z</time></trkpt><trkpt lat="44.999852826375005" lon="8.09653915425485"><ele>227.42857142857144</ele><time>2026-04-11T11:58:43.999Z</time></trkpt><trkpt lat="44.999804772944906" lon="8.096469327226206"><ele>228.85714285714283</ele><time>2026-04-11T11:58:46.999Z</time></trkpt><trkpt lat="44.99976088393408" lon="8.09639633273835"><ele>230.28571428571428</ele><time>2026-04-11T11:58:49.999Z</time></trkpt><trkpt lat="44.99971299140628" lon="8.096328217978163"><ele>231.71428571428572</ele><time>2026-04-11T11:58:52.999Z</time></trkpt><trkpt lat="44.99966854516626" lon="8.096252008544502"><ele>233.14285714285717</ele><time>2026-04-11T11:58:56Z</time></trkpt><trkpt lat="44.99961869322853" lon="8.09617335594245"><ele>234.57142857142856</ele><time>2026-04-11T11:58:59Z</time></trkpt><trkpt lat="44.999564704932055" lon="8.096091809839567"><ele>236.0</ele><time>2026-04-11T11:59:02Z</time></trkpt><trkpt lat="44.999515038332085" lon="8.096008607624068"><ele>236.00000000000003</ele><time>2026-04-11T11:59:05Z</time></trkpt><trkpt lat="44.99945905929148" lon="8.095940859294718"><ele>236.0</ele><time>2026-04-11T11:59:08Z</time></trkpt><trkpt lat="44.99942039474105" lon="8.095855136760045"><ele>236.0</ele><time>2026-04-11T11:59:11Z</time></trkpt><trkpt lat="44.999357297925854" lon="8.09577415887049"><ele>236.0</ele><time>2026-04-11T11:59:15Z</time></trkpt><trkpt lat="44.99930676007709" lon="8.095693683150147"><ele>236.00000000000003</ele><time>2026-04-11T11:59:18Z</time></trkpt><trkpt lat="44.99926720917584" lon="8.09559573117036"><ele>236.0</ele><time>2026-04-11T11:59:21Z</time></trkpt><trkpt lat="44.9992536846257" lon="8.095508159477554"><ele>237.60000000000002</ele><time>2026-04-11T11:59:24Z</time></trkpt><trkpt lat="44.999294914466105" lon="8.09542782623002"><ele>239.20000000000002</ele><time>2026-04-11T11:59:27Z</time></trkpt><trkpt lat="44.999404594809704" lon="8.095354098986183"><ele>240.79999999999998</ele><time>2026-04-11T11:59:33Z</time></trkpt><trkpt lat="44.999470725132184" lon="8.095368531527832"><ele>242.39999999999998</ele><time>2026-04-11T11:59:37Z</time></trkpt><trkpt lat="44.999563621146386" lon="8.095388212519776"><ele>244.0</ele><time>2026-04-11T11:59:41Z</time></trkpt><trkpt lat="44.99966470184455" lon="8.095412352799734"><ele>243.99999999999997</ele><time>2026-04-11T11:59:45Z</time></trkpt><trkpt lat="44.999743472368" lon="8.095417413089846"><ele>244.0</ele><time>2026-04-11T11:59:48Z</time></trkpt><trkpt lat="44.99981438293079" lon="8.09542609911072"><ele>243.99999999999997</ele><time>2026-04-11T11:59:51Z</time></trkpt><trkpt lat="44.99988669523873" lon="8.095442112982944"><ele>243.99999999999997</ele><time>2026-04-11T11:59:54Z</time></trkpt><trkpt lat="44.9999609414411" lon="8.095450720930565"><ele>244.0</ele><time>2026-04-11T11:59:57Z</time></trkpt><trkpt lat="45.000031119197935" lon="8.095461915769691"><ele>243.99999999999997</ele><time>2026-04-11T11:59:59.999Z</time></trkpt><trkpt lat="45.00010720971013" lon="8.095457595249073"><ele>243.99999999999997</ele><time>2026-04-11T12:00:02.999Z</time></trkpt><trkpt lat="45.000174358593874" lon="8.095476548425955"><ele>243.99999999999997</ele><time>2026-04-11T12:00:05.999Z</time></trkpt><trkpt lat="45.00024575342094" lon="8.095491145065779"><ele>244.0</ele><time>2026-04-11T12:00:08.999Z</time></trkpt><trkpt lat="45.00031081716602" lon="8.09551204284057"><ele>243.99999999999997</ele><time>2026-04-11T12:00:11.999Z</time></trkpt><trkpt lat="45.0003751573863" lon="8.095523471441519"><ele>243.99999999999997</ele><time>2026-04-11T12:00:14.999Z</time></trkpt><trkpt lat="45.00044802343306" lon="8.095526577488044"><ele>244.0</ele><time>2026-04-11T12:00:17.999Z</time></trkpt><trkpt lat="45.000517558715906" lon="8.095526271920903"><ele>243.99999999999997</ele><time>2026-04-11T12:00:20.999Z</time></trkpt><trkpt lat="45.00060023978051" lon="8.095537659104252"><ele>243.99999999999997</ele><time>2026-04-11T12:00:24.999Z</time></trkpt><trkpt lat="45.000674725118714" lon="8.095545728964854"><ele>243.99999999999997</ele><time>2026-04-11T12:00:27.999Z</time></trkpt><trkpt lat="45.00075726940503" lon="8.095563431626843"><ele>244.0</ele><time>2026-04-11T12:00:31.999Z</time></trkpt><trkpt lat="45.000826544665635" lon="8.09556803792561"><ele>244.0</ele><time>2026-04-11T12:00:34.999Z</time></trkpt><trkpt lat="45.0009058729015" lon="8.095591184022648"><ele>244.0</ele><time>2026-04-11T12:00:38.999Z</time></trkpt><trkpt lat="45.000979436440105" lon="8.095595996775716"><ele>243.99999999999997</ele><time>2026-04-11T12:00:41.999Z</time></trkpt><trkpt lat="45.00106157650664" lon="8.095634803487155"><ele>244.0</ele><time>2026-04-11T12:00:45.999Z</time></trkpt><trkpt lat="45.00112709517337" lon="8.0956501731934"><ele>243.99999999999997</ele><time>2026-04-11T12:00:48.999Z</time></trkpt><trkpt lat="45.00119370142908" lon="8.095677660273056"><ele>244.0</ele><time>2026-04-11T12:00:51.999Z</time></trkpt><trkpt lat="45.001260101103156" lon="8.095716846756837"><ele>243.99999999999997</ele><time>2026-04-11T12:00:54.999Z</time></trkpt><trkpt lat="45.001320022534934" lon="8.095769933508668"><ele>243.99999999999997</ele><time>2026-04-11T12:00:57.999Z</time></trkpt><trkpt lat="45.001392711021104" lon="8.095811864579176"><ele>244.0</ele><time>2026-04-11T12:01:01Z</time></trkpt><trkpt lat="45.00145749121522" lon="8.095843181178676"><ele>243.99999999999997</ele><time>2026-04-11T12:01:04Z</time></trkpt><trkpt lat="45.00152915538499" lon="8.095878800079484"><ele>243.99999999999997</ele><time>2026-04-11T12:01:07Z</time></trkpt><trkpt lat="45.00160304740929" lon="8.095902714882834"><ele>245.57142857142856</ele><time>2026-04-11T12:01:10Z</time></trkpt><trkpt lat="45.001668093328824" lon="8.095925107092697"><ele>247.14285714285714</ele><time>2026-04-11T12:01:13Z</time></trkpt><trkpt lat="45.00173570269052" lon="8.095915624583414"><ele>248.71428571428572</ele><time>2026-04-11T12:01:16Z</time></trkpt><trkpt lat="45.00179892287159" lon="8.095891013510933"><ele>250.28571428571428</ele><time>2026-04-11T12:01:19Z</time></trkpt><trkpt lat="45.00186261204263" lon="8.095832626717042"><ele>251.8571428571429</ele><time>2026-04-11T12:01:22Z</time></trkpt><trkpt lat="45.00189566916948" lon="8.095753050443243"><ele>253.42857142857144</ele><time>2026-04-11T12:01:25Z</time></trkpt><trkpt lat="45.001900968048034" lon="8.095655138264254"><ele>255.0</ele><time>2026-04-11T12:01:28Z</time></trkpt><trkpt lat="45.00188372547772" lon="8.095556653397812"><ele>255.2857142857143</ele><time>2026-04-11T12:01:31Z</time></trkpt><trkpt lat="45.00185365629013" lon="8.095457348425512"><ele>255.5714285714286</ele><time>2026-04-11T12:01:34Z</time></trkpt><trkpt lat="45.001804981577045" lon="8.095361147106413"><ele>255.85714285714286</ele><time>2026-04-11T12:01:37Z</time></trkpt><trkpt lat="45.001755461629536" lon="8.095285840181587"><ele>256.14285714285717</ele><time>2026-04-11T12:01:40Z</time></trkpt><trkpt lat="45.001702256925604" lon="8.09522064361751"><ele>256.42857142857144</ele><time>2026-04-11T12:01:43Z</time></trkpt><trkpt lat="45.00164836995757" lon="8.095158414697998"><ele>256.7142857142857</ele><time>2026-04-11T12:01:46Z</time></trkpt><trkpt lat="45.001592568331766" lon="8.095106130675525"><ele>257.0</ele><time>2026-04-11T12:01:48Z</time></trkpt><trkpt lat="45.00154097977993" lon="8.095036858659068"><ele>257.0</ele><time>2026-04-11T12:01:51Z</time></trkpt><trkpt lat="45.001483037863075" lon="8.09497181346542"><ele>257.0</ele><time>2026-04-11T12:01:54Z</time></trkpt><trkpt lat="45.00142844508262" lon="8.094907418913644"><ele>257.0</ele><time>2026-04-11T12:01:57Z</time></trkpt><trkpt lat="45.00136657718419" lon="8.094834182440023"><ele>257.0</ele><time>2026-04-11T12:02:00Z</time></trkpt><trkpt lat="45.00130437023524" lon="8.094771939132814"><ele>257.0</ele><time>2026-04-11T12:02:03Z</time></trkpt><trkpt lat="45.00125380159199" lon="8.094684599820587"><ele>257.0</ele><time>2026-04-11T12:02:07Z</time></trkpt><trkpt lat="45.00119405786062" lon="8.094640363411132"><ele>257.0</ele><time>2026-04-11T12:02:09Z</time></trkpt><trkpt lat="45.00113695544408" lon="8.094575187935083"><ele>257.57142857142856</ele><time>2026-04-11T12:02:12Z</time></trkpt><trkpt lat="45.00108529450009" lon="8.094512721895388"><ele>258.14285714285717</ele><time>2026-04-11T12:02:14.999Z</time></trkpt><trkpt lat="45.0010203198149" lon="8.09445187001101"><ele>258.7142857142857</ele><time>2026-04-11T12:02:17.999Z</time></trkpt><trkpt lat="45.00096411957892" lon="8.094383313615596"><ele>259.2857142857143</ele><time>2026-04-11T12:02:20.999Z</time></trkpt><trkpt lat="45.00091798240688" lon="8.094317815448047"><ele>259.85714285714283</ele><time>2026-04-11T12:02:23.999Z</time></trkpt><trkpt lat="45.00085389791036" lon="8.094247951902728"><ele>260.42857142857144</ele><time>2026-04-11T12:02:26.999Z</time></trkpt><trkpt lat="45.000812927856764" lon="8.094177481929577"><ele>261.0</ele><time>2026-04-11T12:02:29.999Z</time></trkpt><trkpt lat="45.000757022403064" lon="8.094110800941868"><ele>263.7142857142857</ele><time>2026-04-11T12:02:32.999Z</time></trkpt><trkpt lat="45.000706207404754" lon="8.094053272684462"><ele>266.42857142857144</ele><time>2026-04-11T12:02:35.999Z</time></trkpt><trkpt lat="45.000652335696515" lon="8.093983840671982"><ele>269.1428571428571</ele><time>2026-04-11T12:02:38.999Z</time></trkpt><trkpt lat="45.00058762890037" lon="8.093914997988955"><ele>271.8571428571429</ele><time>2026-04-11T12:02:41.999Z</time></trkpt><trkpt lat="45.00054084067841" lon="8.093850318856457"><ele>274.57142857142856</ele><time>2026-04-11T12:02:44.999Z</time></trkpt><trkpt lat="45.00048709547878" lon="8.093784875340813"><ele>277.2857142857143</ele><time>2026-04-11T12:02:47.999Z</time></trkpt><trkpt lat="45.000426077038526" lon="8.093716282864353"><ele>280.0</ele><time>2026-04-11T12:02:50.999Z</time></trkpt><trkpt lat="45.00036600401032" lon="8.09365526209911"><ele>280.0</ele><time>2026-04-11T12:02:53.999Z</time></trkpt><trkpt lat="45.00031380759713" lon="8.09358070589068"><ele>280.0</ele><time>2026-04-11T12:02:56.999Z</time></trkpt><trkpt lat="45.00024999249895" lon="8.093514543869878"><ele>280.0</ele><time>2026-04-11T12:02:59.999Z</time></trkpt><trkpt lat="45.00019262248177" lon="8.093456034963593"><ele>280.0</ele><time>2026-04-11T12:03:02.999Z</time></trkpt><trkpt lat="45.00013006763818" lon="8.093385614007328"><ele>280.0</ele><time>2026-04-11T12:03:05.999Z</time></trkpt><trkpt lat="45.00009085249743" lon="8.093300709727233"><ele>280.0</ele><time>2026-04-11T12:03:10Z</time></trkpt><trkpt lat="45.00001901807324" lon="8.093238611440704"><ele>281.42857142857144</ele><time>2026-04-11T12:03:13Z</time></trkpt><trkpt lat="44.99995895762135" lon="8.093159284005177"><ele>282.8571428571429</ele><time>2026-04-11T12:03:16Z</time></trkpt><trkpt lat="44.99990065131054" lon="8.093099517216338"><ele>284.2857142857143</ele><time>2026-04-11T12:03:19Z</time></trkpt><trkpt lat="44.99982994668375" lon="8.093031457849255"><ele>285.7142857142857</ele><time>2026-04-11T12:03:23Z</time></trkpt><trkpt lat="44.999775446492066" lon="8.092976160084278"><ele>287.14285714285717</ele><time>2026-04-11T12:03:26Z</time></trkpt><trkpt lat="44.999724219234174" lon="8.09291861343306"><ele>288.57142857142856</ele><time>2026-04-11T12:03:29Z</time></trkpt><trkpt lat="44.99966614403068" lon="8.092876696796145"><ele>290.0</ele><time>2026-04-11T12:03:32Z</time></trkpt><trkpt lat="44.99960619158762" lon="8.092838760719616"><ele>290.0</ele><time>2026-04-11T12:03:35Z</time></trkpt><trkpt lat="44.99953763748001" lon="8.092814516881239"><ele>290.0</ele><time>2026-04-11T12:03:39Z</time></trkpt><trkpt lat="44.99947063469469" lon="8.092798127695408"><ele>290.0</ele><time>2026-04-11T12:03:42Z</time></trkpt><trkpt lat="44.999408222781014" lon="8.092777004788383"><ele>290.0</ele><time>2026-04-11T12:03:45Z</time></trkpt><trkpt lat="44.99933838745041" lon="8.092770953442631"><ele>290.0</ele><time>2026-04-11T12:03:48Z</time></trkpt><trkpt lat="44.999265676235154" lon="8.092730087350903"><ele>290.0</ele><time>2026-04-11T12:03:52Z</time></trkpt><trkpt lat="44.999189315688426" lon="8.0927225927672"><ele>290.0</ele><time>2026-04-11T12:03:56Z</time></trkpt><trkpt lat="44.99911700436397" lon="8.092701927523418"><ele>290.7142857142857</ele><time>2026-04-11T12:04:00Z</time></trkpt><trkpt lat="44.999039340556706" lon="8.09268199182814"><ele>291.42857142857144</ele><time>2026-04-11T12:04:04Z</time></trkpt><trkpt lat="44.998971070663295" lon="8.092677698602513"><ele>292.14285714285717</ele><time>2026-04-11T12:04:08Z</time></trkpt><trkpt lat="44.998893416143176" lon="8.092678933348726"><ele>292.8571428571429</ele><time>2026-04-11T12:04:12.999Z</time></trkpt><trkpt lat="44.99882553467151" lon="8.092686182427475"><ele>293.57142857142856</ele><time>2026-04-11T12:04:16.999Z</time></trkpt><trkpt lat="44.998751273431814" lon="8.09270395202098"><ele>294.28571428571433</ele><time>2026-04-11T12:04:21.999Z</time></trkpt><trkpt lat="44.99868396137709" lon="8.092725537417339"><ele>295.0</ele><time>2026-04-11T12:04:25.999Z</time></trkpt><trkpt lat="44.99862403538304" lon="8.09279722025565"><ele>295.00000000000006</ele><time>2026-04-11T12:04:30.999Z</time></trkpt><trkpt lat="44.998565058571046" lon="8.092848310318498"><ele>295.0</ele><time>2026-04-11T12:04:33.999Z</time></trkpt><trkpt lat="44.99851513385122" lon="8.092908287081533"><ele>295.0</ele><time>2026-04-11T12:04:36.999Z</time></trkpt><trkpt lat="44.99845701546594" lon="8.092972273491892"><ele>295.0</ele><time>2026-04-11T12:04:39.999Z</time></trkpt><trkpt lat="44.99840603393548" lon="8.093035399067668"><ele>295.0</ele><time>2026-04-11T12:04:42.999Z</time></trkpt><trkpt lat="44.99833684868389" lon="8.093103721197865"><ele>295.00000000000006</ele><time>2026-04-11T12:04:46.999Z</time></trkpt><trkpt lat="44.99827288601333" lon="8.093150000579222"><ele>295.0</ele><time>2026-04-11T12:04:49.999Z</time></trkpt><trkpt lat="44.998212006723506" lon="8.093172668891953"><ele>295.8333333333333</ele><time>2026-04-11T12:04:52.999Z</time></trkpt><trkpt lat="44.99813566796791" lon="8.093150375809302"><ele>296.66666666666663</ele><time>2026-04-11T12:04:55.999Z</time></trkpt><trkpt lat="44.998064622874125" lon="8.093110449313071"><ele>297.5</ele><time>2026-04-11T12:04:58.999Z</time></trkpt><trkpt lat="44.99801307511635" lon="8.0930449288239"><ele>298.3333333333333</ele><time>2026-04-11T12:05:01.999Z</time></trkpt><trkpt lat="44.99795164012421" lon="8.092977032177181"><ele>299.1666666666667</ele><time>2026-04-11T12:05:04.999Z</time></trkpt><trkpt lat="44.997885281760205" lon="8.092914406012722"><ele>300.0</ele><time>2026-04-11T12:05:07.999Z</time></trkpt><trkpt lat="44.997825975819" lon="8.092839572492267"><ele>300.0</ele><time>2026-04-11T12:05:10.999Z</time></trkpt><trkpt lat="44.9977645414352" lon="8.092772616480197"><ele>300.0</ele><time>2026-04-11T12:05:14Z</time></trkpt><trkpt lat="44.9977052215503" lon="8.09270324538916"><ele>300.0</ele><time>2026-04-11T12:05:17Z</time></trkpt><trkpt lat="44.997641314473235" lon="8.092631297781248"><ele>300.0</ele><time>2026-04-11T12:05:20Z</time></trkpt><trkpt lat="44.997583949649496" lon="8.09257291723164"><ele>300.0</ele><time>2026-04-11T12:05:23Z</time></trkpt><trkpt lat="44.99749214590555" lon="8.09252565811632"><ele>300.0</ele><time>2026-04-11T12:05:26Z</time></trkpt><trkpt lat="44.99745020635498" lon="8.092449327468401"><ele>299.57142857142856</ele><time>2026-04-11T12:05:29Z</time></trkpt><trkpt lat="44.99740293951883" lon="8.092381219656174"><ele>299.1428571428571</ele><time>2026-04-11T12:05:33Z</time></trkpt><trkpt lat="44.99734385935383" lon="8.092316536738291"><ele>298.7142857142857</ele><time>2026-04-11T12:05:37Z</time></trkpt><trkpt lat="44.997385104340374" lon="8.092248281692063"><ele>298.2857142857143</ele><time>2026-04-11T12:05:41Z</time></trkpt><trkpt lat="44.99745529033269" lon="8.092304493687907"><ele>297.8571428571429</ele><time>2026-04-11T12:05:45Z</time></trkpt><trkpt lat="44.99751855726704" lon="8.092345387816966"><ele>297.42857142857144</ele><time>2026-04-11T12:05:49Z</time></trkpt><trkpt lat="44.99759710390952" lon="8.092395423657347"><ele>297.0</ele><time>2026-04-11T12:05:53Z</time></trkpt><trkpt lat="44.9976648583327" lon="8.09241630583549"><ele>297.5</ele><time>2026-04-11T12:05:56Z</time></trkpt><trkpt lat="44.997732579990995" lon="8.092423345460976"><ele>298.0</ele><time>2026-04-11T12:05:59Z</time></trkpt><trkpt lat="44.99782883442861" lon="8.092438018302007"><ele>298.5</ele><time>2026-04-11T12:06:03Z</time></trkpt><trkpt lat="44.99789457848062" lon="8.09244215379009"><ele>299.0</ele><time>2026-04-11T12:06:06Z</time></trkpt><trkpt lat="44.99798347640159" lon="8.092419047150328"><ele>299.5</ele><time>2026-04-11T12:06:10Z</time></trkpt><trkpt lat="44.998048469084075" lon="8.092362624294081"><ele>300.0</ele><time>2026-04-11T12:06:14Z</time></trkpt><trkpt lat="44.998104292148966" lon="8.092284418624986"><ele>301.1666666666667</ele><time>2026-04-11T12:06:18Z</time></trkpt><trkpt lat="44.998156623836024" lon="8.09220323970068"><ele>302.3333333333333</ele><time>2026-04-11T12:06:21Z</time></trkpt><trkpt lat="44.998224293024016" lon="8.092128736250444"><ele>303.5</ele><time>2026-04-11T12:06:24.999Z</time></trkpt><trkpt lat="44.99827532306612" lon="8.092042188476603"><ele>304.66666666666663</ele><time>2026-04-11T12:06:28.999Z</time></trkpt><trkpt lat="44.998329521153345" lon="8.091964976681979"><ele>305.8333333333333</ele><time>2026-04-11T12:06:31.999Z</time></trkpt><trkpt lat="44.99836550939544" lon="8.09188245046126"><ele>307.0</ele><time>2026-04-11T12:06:34.999Z</time></trkpt><trkpt lat="44.998407314113045" lon="8.091806489228272"><ele>307.0</ele><time>2026-04-11T12:06:37.999Z</time></trkpt><trkpt lat="44.99846863089447" lon="8.091746892953614"><ele>307.0</ele><time>2026-04-11T12:06:41.999Z</time></trkpt><trkpt lat="44.998533690210785" lon="8.091762283770493"><ele>307.0</ele><time>2026-04-11T12:06:47.999Z</time></trkpt><trkpt lat="44.99846787896889" lon="8.091759388479984"><ele>307.0</ele><time>2026-04-11T12:13:09.999Z</time></trkpt><trkpt lat="44.99839476411538" lon="8.091815332031391"><ele>307.0</ele><time>2026-04-11T12:13:13.999Z</time></trkpt><trkpt lat="44.9983352520527" lon="8.091920259916769"><ele>307.0</ele><time>2026-04-11T12:13:16.999Z</time></trkpt><trkpt lat="44.9982757446101" lon="8.092016911088553"><ele>307.0</ele><time>2026-04-11T12:13:18.999Z</time></trkpt><trkpt lat="44.998218140934156" lon="8.092099176814655"><ele>307.0</ele><time>2026-04-11T12:13:20.999Z</time></trkpt><trkpt lat="44.99815949008265" lon="8.09219335384008"><ele>307.0</ele><time>2026-04-11T12:13:22.999Z</time></trkpt><trkpt lat="44.99810027706689" lon="8.092276631986511"><ele>307.0</ele><time>2026-04-11T12:13:24.999Z</time></trkpt><trkpt lat="44.998032916886324" lon="8.092362781536764"><ele>307.0</ele><time>2026-04-11T12:13:26.999Z</time></trkpt><trkpt lat="44.99795681841612" lon="8.092425136696235"><ele>307.0</ele><time>2026-04-11T12:13:28.999Z</time></trkpt><trkpt lat="44.997848525637366" lon="8.092435804594222"><ele>307.0</ele><time>2026-04-11T12:13:30.999Z</time></trkpt><trkpt lat="44.99772404155524" lon="8.092424729019381"><ele>307.0</ele><time>2026-04-11T12:13:32.999Z</time></trkpt><trkpt lat="44.99762614754789" lon="8.092394578017583"><ele>307.0</ele><time>2026-04-11T12:13:34.999Z</time></trkpt><trkpt lat="44.99752300221299" lon="8.092349537532328"><ele>307.0</ele><time>2026-04-11T12:13:37Z</time></trkpt><trkpt lat="44.99743764079883" lon="8.09228536865621"><ele>307.0</ele><time>2026-04-11T12:13:39Z</time></trkpt><trkpt lat="44.99733192701719" lon="8.092228019972731"><ele>305.3333333333333</ele><time>2026-04-11T12:13:41Z</time></trkpt><trkpt lat="44.99726951091625" lon="8.092214816477869"><ele>303.66666666666663</ele><time>2026-04-11T12:13:42Z</time></trkpt><trkpt lat="44.997181394866" lon="8.092156921295672"><ele>302.0</ele><time>2026-04-11T12:13:44Z</time></trkpt><trkpt lat="44.997129358145735" lon="8.092090075454305"><ele>300.3333333333333</ele><time>2026-04-11T12:13:46Z</time></trkpt><trkpt lat="44.997076918251324" lon="8.091987036824921"><ele>298.6666666666667</ele><time>2026-04-11T12:13:49Z</time></trkpt><trkpt lat="44.99703445264535" lon="8.091899283256453"><ele>297.0</ele><time>2026-04-11T12:13:51Z</time></trkpt><trkpt lat="44.996999527587484" lon="8.091801087171115"><ele>297.0</ele><time>2026-04-11T12:13:53Z</time></trkpt><trkpt lat="44.996922076278835" lon="8.091721479879885"><ele>297.0</ele><time>2026-04-11T12:13:55Z</time></trkpt><trkpt lat="44.99688185461939" lon="8.091620087946938"><ele>297.0</ele><time>2026-04-11T12:13:57Z</time></trkpt><trkpt lat="44.99683935528524" lon="8.0915057682469"><ele>297.0</ele><time>2026-04-11T12:13:59Z</time></trkpt><trkpt lat="44.99680126799831" lon="8.091421110787111"><ele>297.0</ele><time>2026-04-11T12:14:01Z</time></trkpt><trkpt lat="44.99676119041561" lon="8.091321680575827"><ele>297.0</ele><time>2026-04-11T12:14:04Z</time></trkpt><trkpt lat="44.99672220913298" lon="8.091242844444952"><ele>297.1666666666667</ele><time>2026-04-11T12:14:06Z</time></trkpt><trkpt lat="44.99666888273339" lon="8.091117826739058"><ele>297.3333333333333</ele><time>2026-04-11T12:14:08Z</time></trkpt><trkpt lat="44.99660865094547" lon="8.09105517034304"><ele>297.5</ele><time>2026-04-11T12:14:10Z</time></trkpt><trkpt lat="44.996540021095555" lon="8.090992381186794"><ele>297.66666666666663</ele><time>2026-04-11T12:14:12Z</time></trkpt><trkpt lat="44.99646566026127" lon="8.090943727548577"><ele>297.8333333333333</ele><time>2026-04-11T12:14:14Z</time></trkpt><trkpt lat="44.996395193723664" lon="8.090914978616151"><ele>298.0</ele><time>2026-04-11T12:14:16Z</time></trkpt><trkpt lat="44.99631643368044" lon="8.090908795670599"><ele>298.0</ele><time>2026-04-11T12:14:18Z</time></trkpt><trkpt lat="44.99623054851282" lon="8.090918001941018"><ele>298.0</ele><time>2026-04-11T12:14:20Z</time></trkpt><trkpt lat="44.996153771645105" lon="8.090930011488638"><ele>298.0</ele><time>2026-04-11T12:14:22Z</time></trkpt><trkpt lat="44.99607025251479" lon="8.090936300805561"><ele>298.0</ele><time>2026-04-11T12:14:24Z</time></trkpt><trkpt lat="44.99599050914247" lon="8.09094693034307"><ele>298.0</ele><time>2026-04-11T12:14:26Z</time></trkpt><trkpt lat="44.99590328077693" lon="8.090968231900861"><ele>298.0</ele><time>2026-04-11T12:14:28Z</time></trkpt><trkpt lat="44.99581476759495" lon="8.090979499936921"><ele>298.0</ele><time>2026-04-11T12:14:30Z</time></trkpt><trkpt lat="44.99574100442066" lon="8.09099024534467"><ele>298.0</ele><time>2026-04-11T12:14:32Z</time></trkpt><trkpt lat="44.9956664893741" lon="8.090994820487847"><ele>298.0</ele><time>2026-04-11T12:14:33.999Z</time></trkpt><trkpt lat="44.99557789237793" lon="8.09100287654611"><ele>298.0</ele><time>2026-04-11T12:14:35.999Z</time></trkpt><trkpt lat="44.99548711748377" lon="8.091025592854304"><ele>298.0</ele><time>2026-04-11T12:14:37.999Z</time></trkpt><trkpt lat="44.99540374549223" lon="8.091032507749759"><ele>298.0</ele><time>2026-04-11T12:14:39.999Z</time></trkpt><trkpt lat="44.99532294182843" lon="8.091030536399268"><ele>298.0</ele><time>2026-04-11T12:14:41.999Z</time></trkpt><trkpt lat="44.99523690426917" lon="8.091016230489592"><ele>298.0</ele><time>2026-04-11T12:14:43.999Z</time></trkpt><trkpt lat="44.99514944968416" lon="8.090998615570328"><ele>298.0</ele><time>2026-04-11T12:14:45.999Z</time></trkpt><trkpt lat="44.995069473227105" lon="8.090980308270522"><ele>298.0</ele><time>2026-04-11T12:14:47.999Z</time></trkpt><trkpt lat="44.9949886664307" lon="8.090955145267547"><ele>298.0</ele><time>2026-04-11T12:14:49.999Z</time></trkpt><trkpt lat="44.99489772816226" lon="8.090925463018673"><ele>298.0</ele><time>2026-04-11T12:14:51.999Z</time></trkpt><trkpt lat="44.99481716863553" lon="8.090896974253372"><ele>298.8333333333333</ele><time>2026-04-11T12:14:53.999Z</time></trkpt><trkpt lat="44.99473107412837" lon="8.09086661349853"><ele>299.66666666666663</ele><time>2026-04-11T12:14:55.999Z</time></trkpt><trkpt lat="44.99465333221344" lon="8.090836447427103"><ele>300.5</ele><time>2026-04-11T12:14:57.999Z</time></trkpt><trkpt lat="44.99456040690304" lon="8.090818980262831"><ele>301.3333333333333</ele><time>2026-04-11T12:14:59.999Z</time></trkpt><trkpt lat="44.99448500105467" lon="8.09081837728826"><ele>302.1666666666667</ele><time>2026-04-11T12:15:01.999Z</time></trkpt><trkpt lat="44.994391693055476" lon="8.090817933598311"><ele>303.0</ele><time>2026-04-11T12:15:03.999Z</time></trkpt><trkpt lat="44.994302711801595" lon="8.090828188806544"><ele>303.0</ele><time>2026-04-11T12:15:05.999Z</time></trkpt><trkpt lat="44.99422595553942" lon="8.090830581856267"><ele>303.0</ele><time>2026-04-11T12:15:07.999Z</time></trkpt><trkpt lat="44.994159959713485" lon="8.090837970584756"><ele>303.0</ele><time>2026-04-11T12:15:08.999Z</time></trkpt><trkpt lat="44.994037616049795" lon="8.090849025360798"><ele>303.0</ele><time>2026-04-11T12:15:10.999Z</time></trkpt><trkpt lat="44.99392303597468" lon="8.090855997455977"><ele>303.0</ele><time>2026-04-11T12:15:12.999Z</time></trkpt><trkpt lat="44.99380583129738" lon="8.090842597660368"><ele>303.2</ele><time>2026-04-11T12:15:14.999Z</time></trkpt><trkpt lat="44.99369523269897" lon="8.090856038991152"><ele>303.4</ele><time>2026-04-11T12:15:16.999Z</time></trkpt><trkpt lat="44.99356414568104" lon="8.090877190014725"><ele>303.59999999999997</ele><time>2026-04-11T12:15:18.999Z</time></trkpt><trkpt lat="44.99349099642375" lon="8.090889263424385"><ele>303.8</ele><time>2026-04-11T12:15:19.999Z</time></trkpt><trkpt lat="44.99337214967908" lon="8.090897007289376"><ele>304.0</ele><time>2026-04-11T12:15:21.999Z</time></trkpt><trkpt lat="44.99330746445277" lon="8.090892275328972"><ele>303.16666666666663</ele><time>2026-04-11T12:15:22.999Z</time></trkpt><trkpt lat="44.99324056971859" lon="8.090902292210364"><ele>302.3333333333333</ele><time>2026-04-11T12:15:23.999Z</time></trkpt><trkpt lat="44.9931764857221" lon="8.090912580228927"><ele>301.5</ele><time>2026-04-11T12:15:24.999Z</time></trkpt><trkpt lat="44.99310331794783" lon="8.090911596791369"><ele>300.6666666666667</ele><time>2026-04-11T12:15:25.999Z</time></trkpt><trkpt lat="44.99303954785343" lon="8.09091696353996"><ele>299.83333333333337</ele><time>2026-04-11T12:15:26.999Z</time></trkpt><trkpt lat="44.99292001815051" lon="8.09093602238345"><ele>299.0</ele><time>2026-04-11T12:15:28.999Z</time></trkpt><trkpt lat="44.99282723388053" lon="8.090939680971518"><ele>299.0</ele><time>2026-04-11T12:15:29.999Z</time></trkpt><trkpt lat="44.99274883485316" lon="8.090937545161205"><ele>299.0</ele><time>2026-04-11T12:15:30.999Z</time></trkpt><trkpt lat="44.99267884614971" lon="8.09092966190219"><ele>299.0</ele><time>2026-04-11T12:15:31.999Z</time></trkpt><trkpt lat="44.992608936227825" lon="8.090923600556938"><ele>299.0</ele><time>2026-04-11T12:15:32.999Z</time></trkpt><trkpt lat="44.99249164249651" lon="8.090943795276232"><ele>299.0</ele><time>2026-04-11T12:15:34.999Z</time></trkpt><trkpt lat="44.99241566593016" lon="8.090952716825816"><ele>299.0</ele><time>2026-04-11T12:15:35.999Z</time></trkpt><trkpt lat="44.99231461409884" lon="8.090958684225212"><ele>298.4</ele><time>2026-04-11T12:15:36.999Z</time></trkpt><trkpt lat="44.99222850659954" lon="8.090955724981404"><ele>297.79999999999995</ele><time>2026-04-11T12:15:37.999Z</time></trkpt><trkpt lat="44.99213891644606" lon="8.09096252851223"><ele>297.20000000000005</ele><time>2026-04-11T12:15:38.999Z</time></trkpt><trkpt lat="44.992054579308416" lon="8.090969253412714"><ele>296.6</ele><time>2026-04-11T12:15:39.999Z</time></trkpt><trkpt lat="44.991939458673954" lon="8.090981089923819"><ele>296.0</ele><time>2026-04-11T12:15:41.999Z</time></trkpt><trkpt lat="44.99180880489519" lon="8.090985073354997"><ele>296.0</ele><time>2026-04-11T12:15:44Z</time></trkpt><trkpt lat="44.99170902948436" lon="8.090982110864607"><ele>296.0</ele><time>2026-04-11T12:15:46Z</time></trkpt><trkpt lat="44.991647235476094" lon="8.090955501200801"><ele>296.0</ele><time>2026-04-11T12:15:47Z</time></trkpt><trkpt lat="44.99154468646435" lon="8.090930186096466"><ele>296.0</ele><time>2026-04-11T12:15:49Z</time></trkpt><trkpt lat="44.99148096468168" lon="8.090878828969954"><ele>296.0</ele><time>2026-04-11T12:15:51Z</time></trkpt><trkpt lat="44.99140579952471" lon="8.09083686350501"><ele>296.0</ele><time>2026-04-11T12:15:53Z</time></trkpt><trkpt lat="44.9913412907398" lon="8.090778919131884"><ele>293.6666666666667</ele><time>2026-04-11T12:15:55Z</time></trkpt><trkpt lat="44.991281079350905" lon="8.090727460390857"><ele>291.33333333333337</ele><time>2026-04-11T12:15:57Z</time></trkpt><trkpt lat="44.99121234235939" lon="8.090664088585603"><ele>289.0</ele><time>2026-04-11T12:15:59Z</time></trkpt><trkpt lat="44.991157568272406" lon="8.090612562521926"><ele>286.6666666666667</ele><time>2026-04-11T12:16:01Z</time></trkpt><trkpt lat="44.991102570049854" lon="8.090534791646075"><ele>284.3333333333333</ele><time>2026-04-11T12:16:04Z</time></trkpt><trkpt lat="44.991023708961976" lon="8.090474812000396"><ele>282.0</ele><time>2026-04-11T12:16:07Z</time></trkpt><trkpt lat="44.9909383079856" lon="8.090413282070488"><ele>282.0</ele><time>2026-04-11T12:16:10Z</time></trkpt><trkpt lat="44.99085892453249" lon="8.0904231637547"><ele>282.0</ele><time>2026-04-11T12:16:13Z</time></trkpt><trkpt lat="44.99076021697405" lon="8.090470856026862"><ele>282.0</ele><time>2026-04-11T12:16:16Z</time></trkpt><trkpt lat="44.99065893312399" lon="8.090538967733279"><ele>282.0</ele><time>2026-04-11T12:16:18Z</time></trkpt><trkpt lat="44.99057401880106" lon="8.0906315175415"><ele>282.0</ele><time>2026-04-11T12:16:20Z</time></trkpt><trkpt lat="44.990507638080366" lon="8.090644046172942"><ele>284.6</ele><time>2026-04-11T12:16:21Z</time></trkpt><trkpt lat="44.990453225513015" lon="8.090692968366124"><ele>287.2</ele><time>2026-04-11T12:16:22Z</time></trkpt><trkpt lat="44.99040008312169" lon="8.090740748416618"><ele>289.8</ele><time>2026-04-11T12:16:23Z</time></trkpt><trkpt lat="44.99030181345494" lon="8.090829102329495"><ele>292.4</ele><time>2026-04-11T12:16:25Z</time></trkpt><trkpt lat="44.9902137107461" lon="8.090909068051442"><ele>295.0</ele><time>2026-04-11T12:16:27Z</time></trkpt><trkpt lat="44.99012252729782" lon="8.090987507055866"><ele>294.8</ele><time>2026-04-11T12:16:29Z</time></trkpt><trkpt lat="44.99000837109628" lon="8.091036309606782"><ele>294.6</ele><time>2026-04-11T12:16:31Z</time></trkpt><trkpt lat="44.98990535555731" lon="8.091093019796139"><ele>294.4</ele><time>2026-04-11T12:16:33Z</time></trkpt><trkpt lat="44.98984170175048" lon="8.091126257270124"><ele>294.2</ele><time>2026-04-11T12:16:34Z</time></trkpt><trkpt lat="44.98974073628515" lon="8.09119868679947"><ele>294.0</ele><time>2026-04-11T12:16:36Z</time></trkpt><trkpt lat="44.98964156517808" lon="8.091225386934068"><ele>294.0</ele><time>2026-04-11T12:16:37.999Z</time></trkpt><trkpt lat="44.98954448664814" lon="8.091204785285104"><ele>294.0</ele><time>2026-04-11T12:16:39.999Z</time></trkpt><trkpt lat="44.989455466561395" lon="8.091163611636008"><ele>294.0</ele><time>2026-04-11T12:16:41.999Z</time></trkpt><trkpt lat="44.98935761107206" lon="8.091142024508862"><ele>294.0</ele><time>2026-04-11T12:16:43.999Z</time></trkpt><trkpt lat="44.9892700546242" lon="8.091121296516553"><ele>294.0</ele><time>2026-04-11T12:16:45.999Z</time></trkpt><trkpt lat="44.98916839301641" lon="8.091098377448372"><ele>293.6666666666667</ele><time>2026-04-11T12:16:47.999Z</time></trkpt><trkpt lat="44.98906958841577" lon="8.091068629099862"><ele>293.3333333333333</ele><time>2026-04-11T12:16:49.999Z</time></trkpt><trkpt lat="44.988978479925365" lon="8.091048269368716"><ele>293.0</ele><time>2026-04-11T12:16:51.999Z</time></trkpt><trkpt lat="44.98891314255359" lon="8.091019218434136"><ele>292.66666666666663</ele><time>2026-04-11T12:16:53.999Z</time></trkpt><trkpt lat="44.988818804855626" lon="8.091000287884182"><ele>292.3333333333333</ele><time>2026-04-11T12:16:55.999Z</time></trkpt><trkpt lat="44.98873882683404" lon="8.090951636805505"><ele>292.0</ele><time>2026-04-11T12:16:57.999Z</time></trkpt><trkpt lat="44.988637401233575" lon="8.090959476667013"><ele>292.0</ele><time>2026-04-11T12:16:59.999Z</time></trkpt><trkpt lat="44.98855482110999" lon="8.090924729627126"><ele>292.0</ele><time>2026-04-11T12:17:01.999Z</time></trkpt><trkpt lat="44.988469818152915" lon="8.090871983232615"><ele>292.0</ele><time>2026-04-11T12:17:03.999Z</time></trkpt><trkpt lat="44.98838791576971" lon="8.09089658480554"><ele>292.0</ele><time>2026-04-11T12:17:05.999Z</time></trkpt><trkpt lat="44.98830486133161" lon="8.09087799514126"><ele>292.0</ele><time>2026-04-11T12:17:07.999Z</time></trkpt><trkpt lat="44.98822013354465" lon="8.090864083061343"><ele>292.0</ele><time>2026-04-11T12:17:09.999Z</time></trkpt><trkpt lat="44.98814011959046" lon="8.090855571237425"><ele>293.25</ele><time>2026-04-11T12:17:11.999Z</time></trkpt><trkpt lat="44.98802764095384" lon="8.09083627488996"><ele>294.5</ele><time>2026-04-11T12:17:13.999Z</time></trkpt><trkpt lat="44.98791626589786" lon="8.090754284813505"><ele>295.75</ele><time>2026-04-11T12:17:15.999Z</time></trkpt><trkpt lat="44.98777149163344" lon="8.090705048657759"><ele>297.0</ele><time>2026-04-11T12:17:17.999Z</time></trkpt><trkpt lat="44.98770328702849" lon="8.090674675234926"><ele>296.0</ele><time>2026-04-11T12:17:18.999Z</time></trkpt><trkpt lat="44.98762759903423" lon="8.090664816213643"><ele>295.0</ele><time>2026-04-11T12:17:19.999Z</time></trkpt><trkpt lat="44.987578105316054" lon="8.090592996665963"><ele>294.0</ele><time>2026-04-11T12:17:20.999Z</time></trkpt><trkpt lat="44.98751034220972" lon="8.090548529811018"><ele>293.0</ele><time>2026-04-11T12:17:21.999Z</time></trkpt><trkpt lat="44.987437172870486" lon="8.090499449373649"><ele>292.0</ele><time>2026-04-11T12:17:22.999Z</time></trkpt><trkpt lat="44.987361768959325" lon="8.090444550204275"><ele>291.0</ele><time>2026-04-11T12:17:23.999Z</time></trkpt><trkpt lat="44.98725755064857" lon="8.090329826743355"><ele>291.0</ele><time>2026-04-11T12:17:25.999Z</time></trkpt><trkpt lat="44.98720098731614" lon="8.090245217255966"><ele>291.0</ele><time>2026-04-11T12:17:26.999Z</time></trkpt><trkpt lat="44.98713949787981" lon="8.090144533204182"><ele>291.0</ele><time>2026-04-11T12:17:27.999Z</time></trkpt><trkpt lat="44.98708550519269" lon="8.090049509381602"><ele>291.0</ele><time>2026-04-11T12:17:28.999Z</time></trkpt><trkpt lat="44.987033219737505" lon="8.089955067234298"><ele>291.0</ele><time>2026-04-11T12:17:29.999Z</time></trkpt><trkpt lat="44.986982746728316" lon="8.089863898102148"><ele>291.0</ele><time>2026-04-11T12:17:30.999Z</time></trkpt><trkpt lat="44.98693571695247" lon="8.089776809725448"><ele>289.0</ele><time>2026-04-11T12:17:31.999Z</time></trkpt><trkpt lat="44.98687880014019" lon="8.089671666891007"><ele>287.0</ele><time>2026-04-11T12:17:32.999Z</time></trkpt><trkpt lat="44.98682367937917" lon="8.08956984204495"><ele>285.0</ele><time>2026-04-11T12:17:33.999Z</time></trkpt><trkpt lat="44.986773388401566" lon="8.089473132138448"><ele>283.0</ele><time>2026-04-11T12:17:34.999Z</time></trkpt><trkpt lat="44.98671467918151" lon="8.089378837156998"><ele>281.0</ele><time>2026-04-11T12:17:35.999Z</time></trkpt><trkpt lat="44.98663816026479" lon="8.089302798330223"><ele>281.0</ele><time>2026-04-11T12:17:36.999Z</time></trkpt><trkpt lat="44.98656218431057" lon="8.08923453344927"><ele>281.0</ele><time>2026-04-11T12:17:37.999Z</time></trkpt><trkpt lat="44.98647565100031" lon="8.089195766343497"><ele>281.0</ele><time>2026-04-11T12:17:38.999Z</time></trkpt><trkpt lat="44.98638507075928" lon="8.089162465161893"><ele>281.0</ele><time>2026-04-11T12:17:39.999Z</time></trkpt><trkpt lat="44.98628976383327" lon="8.08914240404996"><ele>281.0</ele><time>2026-04-11T12:17:40.999Z</time></trkpt><trkpt lat="44.986188817745024" lon="8.08913434893804"><ele>281.0</ele><time>2026-04-11T12:17:41.999Z</time></trkpt><trkpt lat="44.98608522362645" lon="8.089117716549161"><ele>281.0</ele><time>2026-04-11T12:17:42.999Z</time></trkpt><trkpt lat="44.98597454189324" lon="8.08909295631222"><ele>281.0</ele><time>2026-04-11T12:17:43.999Z</time></trkpt><trkpt lat="44.98587029604186" lon="8.089062244391803"><ele>281.0</ele><time>2026-04-11T12:17:44.999Z</time></trkpt><trkpt lat="44.98576855737512" lon="8.089022673595315"><ele>281.0</ele><time>2026-04-11T12:17:45.999Z</time></trkpt><trkpt lat="44.98567063895427" lon="8.088958447891727"><ele>282.75</ele><time>2026-04-11T12:17:46.999Z</time></trkpt><trkpt lat="44.985570416427876" lon="8.088887820712245"><ele>284.5</ele><time>2026-04-11T12:17:47.999Z</time></trkpt><trkpt lat="44.985462091593384" lon="8.088805875619359"><ele>286.25</ele><time>2026-04-11T12:17:49Z</time></trkpt><trkpt lat="44.9853597884178" lon="8.088715866599108"><ele>288.0</ele><time>2026-04-11T12:17:50Z</time></trkpt><trkpt lat="44.98526096253935" lon="8.088618523917054"><ele>288.0</ele><time>2026-04-11T12:17:51Z</time></trkpt><trkpt lat="44.98516269195888" lon="8.088522712539186"><ele>288.0</ele><time>2026-04-11T12:17:52Z</time></trkpt><trkpt lat="44.98506053801672" lon="8.088421850460684"><ele>288.0</ele><time>2026-04-11T12:17:53Z</time></trkpt><trkpt lat="44.984962711842506" lon="8.088300379543757"><ele>288.0</ele><time>2026-04-11T12:17:54Z</time></trkpt><trkpt lat="44.98487452378624" lon="8.088190052078257"><ele>285.5</ele><time>2026-04-11T12:17:55Z</time></trkpt><trkpt lat="44.984777120015856" lon="8.088074639423136"><ele>283.0</ele><time>2026-04-11T12:17:56Z</time></trkpt><trkpt lat="44.9846770025168" lon="8.087955955911955"><ele>280.5</ele><time>2026-04-11T12:17:57Z</time></trkpt><trkpt lat="44.98457596052604" lon="8.087859857751718"><ele>278.0</ele><time>2026-04-11T12:17:58Z</time></trkpt><trkpt lat="44.984475507060104" lon="8.087782990696212"><ele>278.0</ele><time>2026-04-11T12:17:59Z</time></trkpt><trkpt lat="44.98434639790164" lon="8.087726884120348"><ele>278.0</ele><time>2026-04-11T12:18:00Z</time></trkpt><trkpt lat="44.98421245053618" lon="8.087697511713161"><ele>278.0</ele><time>2026-04-11T12:18:01Z</time></trkpt><trkpt lat="44.9840910199769" lon="8.087687744560618"><ele>278.0</ele><time>2026-04-11T12:18:02Z</time></trkpt><trkpt lat="44.9839745257189" lon="8.087702521924424"><ele>274.8</ele><time>2026-04-11T12:18:03Z</time></trkpt><trkpt lat="44.98385684454071" lon="8.087723214597542"><ele>271.6</ele><time>2026-04-11T12:18:04Z</time></trkpt><trkpt lat="44.98374757925354" lon="8.087748014513455"><ele>268.4</ele><time>2026-04-11T12:18:05Z</time></trkpt><trkpt lat="44.98365766198951" lon="8.087790609311066"><ele>265.2</ele><time>2026-04-11T12:18:06Z</time></trkpt><trkpt lat="44.98355647552595" lon="8.087796853911735"><ele>262.0</ele><time>2026-04-11T12:18:07Z</time></trkpt><trkpt lat="44.98346310840433" lon="8.087825029281255"><ele>262.0</ele><time>2026-04-11T12:18:08Z</time></trkpt><trkpt lat="44.98337965529582" lon="8.087860297198208"><ele>262.0</ele><time>2026-04-11T12:18:09Z</time></trkpt><trkpt lat="44.98330510521481" lon="8.087884352022815"><ele>262.0</ele><time>2026-04-11T12:18:10Z</time></trkpt><trkpt lat="44.98323203494695" lon="8.087906956622012"><ele>262.0</ele><time>2026-04-11T12:18:11Z</time></trkpt><trkpt lat="44.983164433225234" lon="8.087922291545544"><ele>262.0</ele><time>2026-04-11T12:18:12Z</time></trkpt><trkpt lat="44.983042901008226" lon="8.087945026268839"><ele>262.0</ele><time>2026-04-11T12:18:14Z</time></trkpt><trkpt lat="44.98292994058936" lon="8.087950675904574"><ele>263.0</ele><time>2026-04-11T12:18:16Z</time></trkpt><trkpt lat="44.9828294611824" lon="8.087934909474924"><ele>264.0</ele><time>2026-04-11T12:18:18Z</time></trkpt><trkpt lat="44.9827383650293" lon="8.087912010440595"><ele>265.0</ele><time>2026-04-11T12:18:20Z</time></trkpt><trkpt lat="44.98265871777015" lon="8.087878389894131"><ele>266.0</ele><time>2026-04-11T12:18:22Z</time></trkpt><trkpt lat="44.98257484061932" lon="8.087842280666342"><ele>267.0</ele><time>2026-04-11T12:18:24Z</time></trkpt><trkpt lat="44.98249988822508" lon="8.087803298471309"><ele>268.0</ele><time>2026-04-11T12:18:26Z</time></trkpt><trkpt lat="44.98242994795666" lon="8.08776718382624"><ele>268.66666666666663</ele><time>2026-04-11T12:18:28Z</time></trkpt><trkpt lat="44.98235693866399" lon="8.087715800234628"><ele>269.3333333333333</ele><time>2026-04-11T12:18:30Z</time></trkpt><trkpt lat="44.982278838389966" lon="8.08767273116911"><ele>270.0</ele><time>2026-04-11T12:18:32Z</time></trkpt><trkpt lat="44.982213244576606" lon="8.087622182301603"><ele>270.6666666666667</ele><time>2026-04-11T12:18:34Z</time></trkpt><trkpt lat="44.98212910119976" lon="8.08759003676562"><ele>271.33333333333337</ele><time>2026-04-11T12:18:36Z</time></trkpt><trkpt lat="44.98205995570109" lon="8.087548162391426"><ele>272.0</ele><time>2026-04-11T12:18:38Z</time></trkpt><trkpt lat="44.981986909773184" lon="8.087523641063374"><ele>272.0</ele><time>2026-04-11T12:18:40Z</time></trkpt><trkpt lat="44.981904553622485" lon="8.087488144306832"><ele>272.0</ele><time>2026-04-11T12:18:42Z</time></trkpt><trkpt lat="44.9818204729998" lon="8.087440493976104"><ele>272.0</ele><time>2026-04-11T12:18:44Z</time></trkpt><trkpt lat="44.98172836369925" lon="8.087399139209827"><ele>272.0</ele><time>2026-04-11T12:18:46Z</time></trkpt><trkpt lat="44.98165484561119" lon="8.087368436220244"><ele>272.0</ele><time>2026-04-11T12:18:47.999Z</time></trkpt><trkpt lat="44.981565711540405" lon="8.08735068930459"><ele>272.0</ele><time>2026-04-11T12:18:49.999Z</time></trkpt><trkpt lat="44.981489234781144" lon="8.087300202011612"><ele>269.33333333333337</ele><time>2026-04-11T12:18:51.999Z</time></trkpt><trkpt lat="44.98141059805046" lon="8.087267933215278"><ele>266.6666666666667</ele><time>2026-04-11T12:18:53.999Z</time></trkpt><trkpt lat="44.98134610702103" lon="8.087247320952786"><ele>264.0</ele><time>2026-04-11T12:18:57.999Z</time></trkpt><trkpt lat="44.98124075303326" lon="8.087213072971325"><ele>261.3333333333333</ele><time>2026-04-11T12:18:59.999Z</time></trkpt><trkpt lat="44.98116397311885" lon="8.087171362876774"><ele>258.66666666666663</ele><time>2026-04-11T12:19:03.999Z</time></trkpt><trkpt lat="44.981079941174244" lon="8.087122910588803"><ele>256.0</ele><time>2026-04-11T12:19:06.999Z</time></trkpt><trkpt lat="44.981010961356674" lon="8.087116933153247"><ele>256.0</ele><time>2026-04-11T12:19:08.999Z</time></trkpt><trkpt lat="44.98094062424903" lon="8.087027714407423"><ele>256.0</ele><time>2026-04-11T12:19:11.999Z</time></trkpt><trkpt lat="44.980856336733396" lon="8.086935524415049"><ele>256.0</ele><time>2026-04-11T12:19:13.999Z</time></trkpt><trkpt lat="44.980800341484176" lon="8.086872781228433"><ele>256.0</ele><time>2026-04-11T12:19:15.999Z</time></trkpt><trkpt lat="44.98071180411971" lon="8.086793497754726"><ele>256.0</ele><time>2026-04-11T12:19:18.999Z</time></trkpt><trkpt lat="44.98066465335475" lon="8.086679580056032"><ele>258.0</ele><time>2026-04-11T12:19:21.999Z</time></trkpt><trkpt lat="44.98063963476922" lon="8.086577815828694"><ele>260.0</ele><time>2026-04-11T12:19:23.999Z</time></trkpt><trkpt lat="44.980625466391" lon="8.086474414276"><ele>262.0</ele><time>2026-04-11T12:19:25.999Z</time></trkpt><trkpt lat="44.980592724056216" lon="8.086376561761845"><ele>264.0</ele><time>2026-04-11T12:19:27.999Z</time></trkpt><trkpt lat="44.98058964678337" lon="8.0862774598908"><ele>266.0</ele><time>2026-04-11T12:19:29.999Z</time></trkpt><trkpt lat="44.98058150006552" lon="8.086183832316415"><ele>268.0</ele><time>2026-04-11T12:19:31.999Z</time></trkpt><trkpt lat="44.980586302794656" lon="8.086068380235304"><ele>270.0</ele><time>2026-04-11T12:19:33.999Z</time></trkpt><trkpt lat="44.98059205148467" lon="8.085932227946886"><ele>270.0</ele><time>2026-04-11T12:19:35.999Z</time></trkpt><trkpt lat="44.98059061900254" lon="8.085793578598864"><ele>270.0</ele><time>2026-04-11T12:19:37.999Z</time></trkpt><trkpt lat="44.98059731452665" lon="8.085636360037833"><ele>270.0</ele><time>2026-04-11T12:19:39.999Z</time></trkpt><trkpt lat="44.98061355965482" lon="8.085468397712969"><ele>270.0</ele><time>2026-04-11T12:19:41.999Z</time></trkpt><trkpt lat="44.980607498850716" lon="8.08528907553719"><ele>269.0</ele><time>2026-04-11T12:19:43.999Z</time></trkpt><trkpt lat="44.98057828037149" lon="8.085118803718327"><ele>268.0</ele><time>2026-04-11T12:19:45.999Z</time></trkpt><trkpt lat="44.98054304887633" lon="8.084941654967167"><ele>267.0</ele><time>2026-04-11T12:19:47.999Z</time></trkpt><trkpt lat="44.980491157188055" lon="8.084797470188974"><ele>266.0</ele><time>2026-04-11T12:19:49.999Z</time></trkpt><trkpt lat="44.980440887490445" lon="8.084648473663641"><ele>266.0</ele><time>2026-04-11T12:19:51.999Z</time></trkpt><trkpt lat="44.98036799386853" lon="8.084537048003927"><ele>266.0</ele><time>2026-04-11T12:19:53.999Z</time></trkpt><trkpt lat="44.98029135572376" lon="8.084441015092867"><ele>266.0</ele><time>2026-04-11T12:19:56Z</time></trkpt><trkpt lat="44.98022795731663" lon="8.08433790393474"><ele>266.0</ele><time>2026-04-11T12:19:58Z</time></trkpt><trkpt lat="44.980195509128826" lon="8.084257965072988"><ele>266.0</ele><time>2026-04-11T12:20:00Z</time></trkpt><trkpt lat="44.980145057194065" lon="8.084181246918757"><ele>266.0</ele><time>2026-04-11T12:20:02Z</time></trkpt><trkpt lat="44.980088002173325" lon="8.084084376937211"><ele>267.0</ele><time>2026-04-11T12:20:04Z</time></trkpt><trkpt lat="44.98004001000249" lon="8.083999694781314"><ele>268.0</ele><time>2026-04-11T12:20:06Z</time></trkpt><trkpt lat="44.97997910315882" lon="8.083892224736593"><ele>269.0</ele><time>2026-04-11T12:20:08Z</time></trkpt><trkpt lat="44.97990239702654" lon="8.083809249177266"><ele>270.0</ele><time>2026-04-11T12:20:10Z</time></trkpt><trkpt lat="44.97983887729184" lon="8.083717271213398"><ele>271.0</ele><time>2026-04-11T12:20:12Z</time></trkpt><trkpt lat="44.97977630863662" lon="8.083621332379291"><ele>271.66666666666663</ele><time>2026-04-11T12:20:14Z</time></trkpt><trkpt lat="44.979717546346606" lon="8.083514682185786"><ele>272.3333333333333</ele><time>2026-04-11T12:20:16Z</time></trkpt><trkpt lat="44.97964219713108" lon="8.083437128060392"><ele>273.0</ele><time>2026-04-11T12:20:18Z</time></trkpt><trkpt lat="44.979576049007086" lon="8.083366963136688"><ele>273.6666666666667</ele><time>2026-04-11T12:20:20Z</time></trkpt><trkpt lat="44.97951863377011" lon="8.083313401592207"><ele>274.33333333333337</ele><time>2026-04-11T12:20:22Z</time></trkpt><trkpt lat="44.97946360663617" lon="8.083262746898756"><ele>275.0</ele><time>2026-04-11T12:20:24Z</time></trkpt><trkpt lat="44.97938925735649" lon="8.083200051927273"><ele>273.4</ele><time>2026-04-11T12:20:26Z</time></trkpt><trkpt lat="44.97931207226901" lon="8.083132261393985"><ele>271.8</ele><time>2026-04-11T12:20:29Z</time></trkpt><trkpt lat="44.979252315062446" lon="8.083078154245975"><ele>270.2</ele><time>2026-04-11T12:20:31Z</time></trkpt><trkpt lat="44.97919031865429" lon="8.083005869374466"><ele>268.6</ele><time>2026-04-11T12:20:33Z</time></trkpt><trkpt lat="44.97910803302021" lon="8.082946979409972"><ele>267.0</ele><time>2026-04-11T12:20:35Z</time></trkpt><trkpt lat="44.97901377606987" lon="8.082845062992138"><ele>267.0</ele><time>2026-04-11T12:20:37Z</time></trkpt><trkpt lat="44.97895024140417" lon="8.082795951384323"><ele>267.0</ele><time>2026-04-11T12:20:38Z</time></trkpt><trkpt lat="44.97889682051085" lon="8.082744557059188"><ele>267.0</ele><time>2026-04-11T12:20:39Z</time></trkpt><trkpt lat="44.97881543289769" lon="8.082677558919826"><ele>267.0</ele><time>2026-04-11T12:20:40Z</time></trkpt><trkpt lat="44.97875147138976" lon="8.082623327825136"><ele>267.0</ele><time>2026-04-11T12:20:41Z</time></trkpt><trkpt lat="44.97868501691961" lon="8.082555529185669"><ele>267.0</ele><time>2026-04-11T12:20:42Z</time></trkpt><trkpt lat="44.97862465958705" lon="8.082478572681977"><ele>265.3333333333333</ele><time>2026-04-11T12:20:43Z</time></trkpt><trkpt lat="44.97854016392578" lon="8.08239713292389"><ele>263.6666666666667</ele><time>2026-04-11T12:20:44Z</time></trkpt><trkpt lat="44.97846284851243" lon="8.082332519385714"><ele>262.0</ele><time>2026-04-11T12:20:45Z</time></trkpt><trkpt lat="44.97839219188212" lon="8.082266980477923"><ele>260.33333333333337</ele><time>2026-04-11T12:20:46Z</time></trkpt><trkpt lat="44.97831309769081" lon="8.082211175273576"><ele>258.6666666666667</ele><time>2026-04-11T12:20:47Z</time></trkpt><trkpt lat="44.978241358088056" lon="8.082149073861357"><ele>257.0</ele><time>2026-04-11T12:20:48Z</time></trkpt><trkpt lat="44.978167906823856" lon="8.082090987411865"><ele>257.0</ele><time>2026-04-11T12:20:49Z</time></trkpt><trkpt lat="44.97811100802241" lon="8.082017634743556"><ele>257.0</ele><time>2026-04-11T12:20:50Z</time></trkpt><trkpt lat="44.97804818414514" lon="8.0819622778973"><ele>257.0</ele><time>2026-04-11T12:20:51Z</time></trkpt><trkpt lat="44.97798244930299" lon="8.081925960478163"><ele>257.0</ele><time>2026-04-11T12:20:52Z</time></trkpt><trkpt lat="44.97792680421036" lon="8.081874559765069"><ele>257.0</ele><time>2026-04-11T12:20:53Z</time></trkpt><trkpt lat="44.97787261352078" lon="8.081828592815908"><ele>257.0</ele><time>2026-04-11T12:20:54Z</time></trkpt><trkpt lat="44.97778444053067" lon="8.081729294876768"><ele>257.0</ele><time>2026-04-11T12:20:55.999Z</time></trkpt><trkpt lat="44.97769919710476" lon="8.081659999756049"><ele>257.0</ele><time>2026-04-11T12:20:57.999Z</time></trkpt><trkpt lat="44.97762568202695" lon="8.081601850426917"><ele>257.0</ele><time>2026-04-11T12:20:59.999Z</time></trkpt><trkpt lat="44.977548461679895" lon="8.081540770858695"><ele>257.0</ele><time>2026-04-11T12:21:01.999Z</time></trkpt><trkpt lat="44.97748122970448" lon="8.081487591820864"><ele>257.0</ele><time>2026-04-11T12:21:03.999Z</time></trkpt><trkpt lat="44.977420376206794" lon="8.081438475309929"><ele>257.0</ele><time>2026-04-11T12:21:05.999Z</time></trkpt><trkpt lat="44.97735785599196" lon="8.081403135696986"><ele>258.0</ele><time>2026-04-11T12:21:07.999Z</time></trkpt><trkpt lat="44.97727211117155" lon="8.08135374876203"><ele>259.0</ele><time>2026-04-11T12:21:10.999Z</time></trkpt><trkpt lat="44.97720840276364" lon="8.081341458659562"><ele>260.0</ele><time>2026-04-11T12:21:13.999Z</time></trkpt><trkpt lat="44.977146635612165" lon="8.081323810731332"><ele>261.0</ele><time>2026-04-11T12:21:16.999Z</time></trkpt><trkpt lat="44.97703380771351" lon="8.081325653545946"><ele>262.0</ele><time>2026-04-11T12:21:19.999Z</time></trkpt><trkpt lat="44.9769539049233" lon="8.081385601495699"><ele>263.0</ele><time>2026-04-11T12:21:23.999Z</time></trkpt><trkpt lat="44.97690960237556" lon="8.081450591568625"><ele>263.0</ele><time>2026-04-11T12:21:25.999Z</time></trkpt><trkpt lat="44.97685110241301" lon="8.081512445101223"><ele>263.0</ele><time>2026-04-11T12:21:27.999Z</time></trkpt><trkpt lat="44.97676693044986" lon="8.081567187170034"><ele>263.0</ele><time>2026-04-11T12:21:28.999Z</time></trkpt><trkpt lat="44.976695355810534" lon="8.081634052267601"><ele>263.0</ele><time>2026-04-11T12:21:29.999Z</time></trkpt><trkpt lat="44.976614996751934" lon="8.081715086215722"><ele>263.0</ele><time>2026-04-11T12:21:30.999Z</time></trkpt><trkpt lat="44.97651431952681" lon="8.08172975951149"><ele>264.5</ele><time>2026-04-11T12:21:31.999Z</time></trkpt><trkpt lat="44.9764594350193" lon="8.081820094624334"><ele>266.0</ele><time>2026-04-11T12:21:32.999Z</time></trkpt><trkpt lat="44.976391237855026" lon="8.08187567314186"><ele>267.5</ele><time>2026-04-11T12:21:33.999Z</time></trkpt><trkpt lat="44.97629875057599" lon="8.081902491430837"><ele>269.0</ele><time>2026-04-11T12:21:34.999Z</time></trkpt><trkpt lat="44.97622877324248" lon="8.081955940745816"><ele>270.5</ele><time>2026-04-11T12:21:35.999Z</time></trkpt><trkpt lat="44.97615305453831" lon="8.081994124858994"><ele>272.0</ele><time>2026-04-11T12:21:36.999Z</time></trkpt><trkpt lat="44.97608169705184" lon="8.082035750738104"><ele>272.0</ele><time>2026-04-11T12:21:37.999Z</time></trkpt><trkpt lat="44.97600181190278" lon="8.082063426672683"><ele>272.0</ele><time>2026-04-11T12:21:38.999Z</time></trkpt><trkpt lat="44.975920025014474" lon="8.082055616891463"><ele>272.0</ele><time>2026-04-11T12:21:39.999Z</time></trkpt><trkpt lat="44.975853136055946" lon="8.082083056132808"><ele>272.0</ele><time>2026-04-11T12:21:40.999Z</time></trkpt><trkpt lat="44.97579118078853" lon="8.082065745192091"><ele>272.0</ele><time>2026-04-11T12:21:41.999Z</time></trkpt><trkpt lat="44.975692087317235" lon="8.082070824431373"><ele>272.0</ele><time>2026-04-11T12:21:43.999Z</time></trkpt><trkpt lat="44.97557998205812" lon="8.082076570531322"><ele>268.8</ele><time>2026-04-11T12:21:45.999Z</time></trkpt><trkpt lat="44.97545911791423" lon="8.082074483985961"><ele>265.6</ele><time>2026-04-11T12:21:47.999Z</time></trkpt><trkpt lat="44.97539125221337" lon="8.082045504892076"><ele>262.40000000000003</ele><time>2026-04-11T12:21:48.999Z</time></trkpt><trkpt lat="44.97525992184312" lon="8.082024999937898"><ele>259.2</ele><time>2026-04-11T12:21:50.999Z</time></trkpt><trkpt lat="44.975165213992256" lon="8.081987688062092"><ele>256.0</ele><time>2026-04-11T12:21:52.999Z</time></trkpt><trkpt lat="44.97507673710827" lon="8.081941526579048"><ele>256.8</ele><time>2026-04-11T12:21:54.999Z</time></trkpt><trkpt lat="44.97498044669377" lon="8.081883993007997"><ele>257.6</ele><time>2026-04-11T12:21:57.999Z</time></trkpt><trkpt lat="44.97490060651482" lon="8.081860423043631"><ele>258.4</ele><time>2026-04-11T12:21:59.999Z</time></trkpt><trkpt lat="44.974806678522334" lon="8.0818256120823"><ele>259.2</ele><time>2026-04-11T12:22:02Z</time></trkpt><trkpt lat="44.9747273117006" lon="8.081766951525658"><ele>260.0</ele><time>2026-04-11T12:22:03Z</time></trkpt><trkpt lat="44.97465275414521" lon="8.081671010334222"><ele>257.0</ele><time>2026-04-11T12:22:05Z</time></trkpt><trkpt lat="44.974584415750655" lon="8.081596794052006"><ele>254.0</ele><time>2026-04-11T12:22:07Z</time></trkpt><trkpt lat="44.97452173484266" lon="8.081490266426037"><ele>251.0</ele><time>2026-04-11T12:22:09Z</time></trkpt><trkpt lat="44.97444920548235" lon="8.081419113626506"><ele>248.0</ele><time>2026-04-11T12:22:11Z</time></trkpt><trkpt lat="44.97437753610835" lon="8.081393560469492"><ele>245.00000000000003</ele><time>2026-04-11T12:22:13Z</time></trkpt><trkpt lat="44.97431047288909" lon="8.08140909822961"><ele>242.0</ele><time>2026-04-11T12:22:15Z</time></trkpt><trkpt lat="44.97423567756189" lon="8.081487396604752"><ele>242.39999999999998</ele><time>2026-04-11T12:22:18Z</time></trkpt><trkpt lat="44.97418793148697" lon="8.081569294990237"><ele>242.79999999999998</ele><time>2026-04-11T12:22:21Z</time></trkpt><trkpt lat="44.97411741576884" lon="8.081652706441462"><ele>243.2</ele><time>2026-04-11T12:22:24Z</time></trkpt><trkpt lat="44.974049599746934" lon="8.08181137013384"><ele>243.6</ele><time>2026-04-11T12:22:27Z</time></trkpt><trkpt lat="44.973993595803044" lon="8.08186941768301"><ele>244.0</ele><time>2026-04-11T12:22:28Z</time></trkpt><trkpt lat="44.973918368551885" lon="8.081960806670814"><ele>247.0</ele><time>2026-04-11T12:22:30Z</time></trkpt><trkpt lat="44.973824790977496" lon="8.082006191658657"><ele>249.99999999999997</ele><time>2026-04-11T12:22:32Z</time></trkpt><trkpt lat="44.973746961401375" lon="8.08204075094254"><ele>252.99999999999997</ele><time>2026-04-11T12:22:34Z</time></trkpt><trkpt lat="44.97365466036476" lon="8.082071717249367"><ele>256.0</ele><time>2026-04-11T12:22:36Z</time></trkpt><trkpt lat="44.97354088481011" lon="8.082079905800981"><ele>259.0</ele><time>2026-04-11T12:22:38Z</time></trkpt><trkpt lat="44.97343274411951" lon="8.082104457367373"><ele>255.79999999999998</ele><time>2026-04-11T12:22:40Z</time></trkpt><trkpt lat="44.97333208451173" lon="8.082108434489626"><ele>252.59999999999997</ele><time>2026-04-11T12:22:42Z</time></trkpt><trkpt lat="44.97321403197271" lon="8.082114812772945"><ele>249.4</ele><time>2026-04-11T12:22:44Z</time></trkpt><trkpt lat="44.97312063697463" lon="8.082150945903505"><ele>246.2</ele><time>2026-04-11T12:22:46Z</time></trkpt><trkpt lat="44.973027528896374" lon="8.082202294713419"><ele>243.0</ele><time>2026-04-11T12:22:48Z</time></trkpt><trkpt lat="44.972914867163794" lon="8.082171391019903"><ele>243.0</ele><time>2026-04-11T12:22:50Z</time></trkpt><trkpt lat="44.97282829245717" lon="8.082109812140944"><ele>243.0</ele><time>2026-04-11T12:22:52Z</time></trkpt><trkpt lat="44.97276379411975" lon="8.082089463231311"><ele>243.0</ele><time>2026-04-11T12:22:53Z</time></trkpt><trkpt lat="44.97266751668491" lon="8.082076797494251"><ele>243.0</ele><time>2026-04-11T12:22:55Z</time></trkpt><trkpt lat="44.97260298234989" lon="8.082050183840744"><ele>243.0</ele><time>2026-04-11T12:22:57Z</time></trkpt><trkpt lat="44.97249552675566" lon="8.082044733632122"><ele>243.0</ele><time>2026-04-11T12:22:59.999Z</time></trkpt><trkpt lat="44.97242958869832" lon="8.082029112895837"><ele>244.28571428571428</ele><time>2026-04-11T12:23:01.999Z</time></trkpt><trkpt lat="44.97235917599492" lon="8.082043725408873"><ele>245.57142857142858</ele><time>2026-04-11T12:23:03.999Z</time></trkpt><trkpt lat="44.9722985988032" lon="8.082108214276307"><ele>246.85714285714286</ele><time>2026-04-11T12:23:05.999Z</time></trkpt><trkpt lat="44.97224013248726" lon="8.082158758228926"><ele>248.14285714285714</ele><time>2026-04-11T12:23:07.999Z</time></trkpt><trkpt lat="44.97217797484732" lon="8.08220392571023"><ele>249.42857142857144</ele><time>2026-04-11T12:23:10.999Z</time></trkpt><trkpt lat="44.97211752786356" lon="8.082234762268527"><ele>250.71428571428572</ele><time>2026-04-11T12:23:13.999Z</time></trkpt><trkpt lat="44.972039341315565" lon="8.082280080028301"><ele>252.0</ele><time>2026-04-11T12:23:16.999Z</time></trkpt><trkpt lat="44.971954973639534" lon="8.082320343085811"><ele>252.0</ele><time>2026-04-11T12:23:19.999Z</time></trkpt><trkpt lat="44.97186767342585" lon="8.082337881247929"><ele>252.0</ele><time>2026-04-11T12:23:22.999Z</time></trkpt><trkpt lat="44.97180115426341" lon="8.08232276404165"><ele>252.0</ele><time>2026-04-11T12:23:25.999Z</time></trkpt><trkpt lat="44.97170783260974" lon="8.082322647309812"><ele>252.0</ele><time>2026-04-11T12:23:28.999Z</time></trkpt><trkpt lat="44.97163120451611" lon="8.082342430319086"><ele>252.0</ele><time>2026-04-11T12:23:31.999Z</time></trkpt><trkpt lat="44.97154906383783" lon="8.0823580122306"><ele>252.0</ele><time>2026-04-11T12:23:33.999Z</time></trkpt><trkpt lat="44.9714544546156" lon="8.082373961480936"><ele>251.66666666666666</ele><time>2026-04-11T12:23:35.999Z</time></trkpt><trkpt lat="44.971362991903405" lon="8.08238631173911"><ele>251.33333333333331</ele><time>2026-04-11T12:23:37.999Z</time></trkpt><trkpt lat="44.971290120713746" lon="8.082396337304239"><ele>251.0</ele><time>2026-04-11T12:23:39.999Z</time></trkpt><trkpt lat="44.97122503998574" lon="8.08239412633592"><ele>250.66666666666666</ele><time>2026-04-11T12:23:41.999Z</time></trkpt><trkpt lat="44.97115710153848" lon="8.082384277675699"><ele>250.33333333333331</ele><time>2026-04-11T12:23:43.999Z</time></trkpt><trkpt lat="44.97107321595621" lon="8.082376163942449"><ele>250.0</ele><time>2026-04-11T12:23:45.999Z</time></trkpt><trkpt lat="44.97099312231287" lon="8.082376029698338"><ele>249.99999999999997</ele><time>2026-04-11T12:23:47.999Z</time></trkpt><trkpt lat="44.970920287511454" lon="8.082371861070452"><ele>250.0</ele><time>2026-04-11T12:23:49.999Z</time></trkpt><trkpt lat="44.970840272831765" lon="8.082374709025304"><ele>250.0</ele><time>2026-04-11T12:23:51.999Z</time></trkpt><trkpt lat="44.9707608473346" lon="8.082374297715498"><ele>250.0</ele><time>2026-04-11T12:23:53.999Z</time></trkpt><trkpt lat="44.97069293858915" lon="8.082366764640966"><ele>249.99999999999997</ele><time>2026-04-11T12:23:55.999Z</time></trkpt><trkpt lat="44.97060381098389" lon="8.082356316389266"><ele>250.0</ele><time>2026-04-11T12:23:57.999Z</time></trkpt><trkpt lat="44.97053801647818" lon="8.082375017088816"><ele>249.33333333333331</ele><time>2026-04-11T12:23:59.999Z</time></trkpt><trkpt lat="44.97044828623646" lon="8.082396711105655"><ele>248.66666666666666</ele><time>2026-04-11T12:24:02.999Z</time></trkpt><trkpt lat="44.970370598106896" lon="8.082398380794947"><ele>248.0</ele><time>2026-04-11T12:24:05.999Z</time></trkpt><trkpt lat="44.97030599389013" lon="8.08241853945341"><ele>247.33333333333331</ele><time>2026-04-11T12:24:08Z</time></trkpt><trkpt lat="44.97020429308458" lon="8.082430751965932"><ele>246.66666666666666</ele><time>2026-04-11T12:24:10Z</time></trkpt><trkpt lat="44.97012692403001" lon="8.08240573773226"><ele>246.0</ele><time>2026-04-11T12:24:11Z</time></trkpt><trkpt lat="44.97006260516338" lon="8.082412519163515"><ele>246.8</ele><time>2026-04-11T12:24:12Z</time></trkpt><trkpt lat="44.96993912378634" lon="8.082434878142598"><ele>247.60000000000002</ele><time>2026-04-11T12:24:14Z</time></trkpt><trkpt lat="44.96985646940155" lon="8.082472051619376"><ele>248.4</ele><time>2026-04-11T12:24:15Z</time></trkpt><trkpt lat="44.96979151576166" lon="8.082516742454725"><ele>249.2</ele><time>2026-04-11T12:24:16Z</time></trkpt><trkpt lat="44.96967927043751" lon="8.082567114005403"><ele>250.0</ele><time>2026-04-11T12:24:18Z</time></trkpt><trkpt lat="44.96959635217718" lon="8.082623322225173"><ele>250.0</ele><time>2026-04-11T12:24:20Z</time></trkpt><trkpt lat="44.96953278147877" lon="8.082657294515219"><ele>250.0</ele><time>2026-04-11T12:24:21Z</time></trkpt><trkpt lat="44.96947115128068" lon="8.082679719436902"><ele>250.0</ele><time>2026-04-11T12:24:22Z</time></trkpt><trkpt lat="44.96937148154621" lon="8.082711913335869"><ele>250.0</ele><time>2026-04-11T12:24:24Z</time></trkpt><trkpt lat="44.969269746241885" lon="8.082738864590047"><ele>250.0</ele><time>2026-04-11T12:24:26Z</time></trkpt><trkpt lat="44.96916480503934" lon="8.082823096747168"><ele>249.33333333333331</ele><time>2026-04-11T12:24:28Z</time></trkpt><trkpt lat="44.9690932158623" lon="8.08289025405593"><ele>248.66666666666666</ele><time>2026-04-11T12:24:30Z</time></trkpt><trkpt lat="44.96901365727334" lon="8.082940562173745"><ele>248.0</ele><time>2026-04-11T12:24:32Z</time></trkpt><trkpt lat="44.968930639546386" lon="8.082971850515678"><ele>247.33333333333331</ele><time>2026-04-11T12:24:35Z</time></trkpt><trkpt lat="44.96884834221935" lon="8.083003428228086"><ele>246.66666666666666</ele><time>2026-04-11T12:24:37Z</time></trkpt><trkpt lat="44.9687804491731" lon="8.08302866948065"><ele>246.0</ele><time>2026-04-11T12:24:39Z</time></trkpt><trkpt lat="44.96870231481798" lon="8.083058767037093"><ele>246.0</ele><time>2026-04-11T12:24:41Z</time></trkpt><trkpt lat="44.96863510009872" lon="8.083069968576002"><ele>246.0</ele><time>2026-04-11T12:24:43Z</time></trkpt><trkpt lat="44.968540502901604" lon="8.083061720897813"><ele>246.0</ele><time>2026-04-11T12:24:46Z</time></trkpt><trkpt lat="44.96846799500212" lon="8.08306073924511"><ele>246.0</ele><time>2026-04-11T12:24:49Z</time></trkpt><trkpt lat="44.96839692649902" lon="8.083022116496387"><ele>246.0</ele><time>2026-04-11T12:24:52Z</time></trkpt><trkpt lat="44.96831937960056" lon="8.083017026844454"><ele>246.0</ele><time>2026-04-11T12:24:55Z</time></trkpt><trkpt lat="44.96824575875009" lon="8.083032152053537"><ele>245.5</ele><time>2026-04-11T12:24:58Z</time></trkpt><trkpt lat="44.96816306330389" lon="8.083040432613725"><ele>245.0</ele><time>2026-04-11T12:25:02.999Z</time></trkpt><trkpt lat="44.96809219328517" lon="8.083048132829914"><ele>244.5</ele><time>2026-04-11T12:25:05.999Z</time></trkpt><trkpt lat="44.96800149864223" lon="8.083112077134965"><ele>244.0</ele><time>2026-04-11T12:25:08.999Z</time></trkpt><trkpt lat="44.96791416440648" lon="8.083143370803361"><ele>243.5</ele><time>2026-04-11T12:25:11.999Z</time></trkpt><trkpt lat="44.96781871757378" lon="8.083162660112016"><ele>243.0</ele><time>2026-04-11T12:25:14.999Z</time></trkpt><trkpt lat="44.967735881437264" lon="8.083193091285667"><ele>243.0</ele><time>2026-04-11T12:25:17.999Z</time></trkpt><trkpt lat="44.967656508521465" lon="8.08322556624058"><ele>243.0</ele><time>2026-04-11T12:25:21.999Z</time></trkpt><trkpt lat="44.96759245724325" lon="8.083284113572555"><ele>243.0</ele><time>2026-04-11T12:25:23.999Z</time></trkpt><trkpt lat="44.967521814245906" lon="8.083386851221768"><ele>243.0</ele><time>2026-04-11T12:25:25.999Z</time></trkpt><trkpt lat="44.96743479690703" lon="8.083453897352731"><ele>243.0</ele><time>2026-04-11T12:25:26.999Z</time></trkpt><trkpt lat="44.96735129091564" lon="8.083518031957794"><ele>244.0</ele><time>2026-04-11T12:25:28.999Z</time></trkpt><trkpt lat="44.967274451916886" lon="8.083562201447378"><ele>245.0</ele><time>2026-04-11T12:25:30.999Z</time></trkpt><trkpt lat="44.967195174623775" lon="8.08363779581532"><ele>246.0</ele><time>2026-04-11T12:25:32.999Z</time></trkpt><trkpt lat="44.9671288920289" lon="8.083703931224157"><ele>247.0</ele><time>2026-04-11T12:25:34.999Z</time></trkpt><trkpt lat="44.967059064706284" lon="8.083798520831303"><ele>248.0</ele><time>2026-04-11T12:25:36.999Z</time></trkpt><trkpt lat="44.966972706286654" lon="8.083894184656156"><ele>248.0</ele><time>2026-04-11T12:25:38.999Z</time></trkpt><trkpt lat="44.96690456900436" lon="8.08394660425229"><ele>248.0</ele><time>2026-04-11T12:25:40.999Z</time></trkpt><trkpt lat="44.96682694454706" lon="8.083994946180797"><ele>248.0</ele><time>2026-04-11T12:25:42.999Z</time></trkpt><trkpt lat="44.96674287260051" lon="8.084075249849013"><ele>248.0</ele><time>2026-04-11T12:25:44.999Z</time></trkpt><trkpt lat="44.96663011875513" lon="8.084122920388893"><ele>248.0</ele><time>2026-04-11T12:25:46.999Z</time></trkpt><trkpt lat="44.966533275724125" lon="8.084154341239714"><ele>247.16666666666669</ele><time>2026-04-11T12:25:48.999Z</time></trkpt><trkpt lat="44.966457114269716" lon="8.084168831622753"><ele>246.33333333333334</ele><time>2026-04-11T12:25:50.999Z</time></trkpt><trkpt lat="44.96638178945008" lon="8.084204084328382"><ele>245.5</ele><time>2026-04-11T12:25:51.999Z</time></trkpt><trkpt lat="44.96628347104104" lon="8.084239273910446"><ele>244.66666666666669</ele><time>2026-04-11T12:25:53.999Z</time></trkpt><trkpt lat="44.966183821400215" lon="8.084254801305544"><ele>243.83333333333334</ele><time>2026-04-11T12:25:55.999Z</time></trkpt><trkpt lat="44.96609670457267" lon="8.084287764298015"><ele>243.0</ele><time>2026-04-11T12:25:57.999Z</time></trkpt><trkpt lat="44.96603448406746" lon="8.084343609709705"><ele>243.0</ele><time>2026-04-11T12:25:59.999Z</time></trkpt><trkpt lat="44.965946872836746" lon="8.084386616678184"><ele>243.0</ele><time>2026-04-11T12:26:01.999Z</time></trkpt><trkpt lat="44.96585959604963" lon="8.084430237711086"><ele>243.0</ele><time>2026-04-11T12:26:04.999Z</time></trkpt><trkpt lat="44.96579749471252" lon="8.084450866530604"><ele>243.0</ele><time>2026-04-11T12:26:06.999Z</time></trkpt><trkpt lat="44.9657193969816" lon="8.084459732175015"><ele>243.0</ele><time>2026-04-11T12:26:08.999Z</time></trkpt><trkpt lat="44.96562114634769" lon="8.084460647791667"><ele>243.0</ele><time>2026-04-11T12:26:11.999Z</time></trkpt><trkpt lat="44.96554161604697" lon="8.084441618422025"><ele>243.5</ele><time>2026-04-11T12:26:14Z</time></trkpt><trkpt lat="44.96545558601904" lon="8.08442976312538"><ele>244.0</ele><time>2026-04-11T12:26:16Z</time></trkpt><trkpt lat="44.9653695941751" lon="8.084415046870053"><ele>244.5</ele><time>2026-04-11T12:26:18Z</time></trkpt><trkpt lat="44.96529453181052" lon="8.084373534940594"><ele>245.0</ele><time>2026-04-11T12:26:20Z</time></trkpt><trkpt lat="44.965211885217826" lon="8.084344117898421"><ele>245.5</ele><time>2026-04-11T12:26:22Z</time></trkpt><trkpt lat="44.96512579343868" lon="8.08434217175919"><ele>246.0</ele><time>2026-04-11T12:26:24Z</time></trkpt><trkpt lat="44.965063431488616" lon="8.084357161725263"><ele>245.4</ele><time>2026-04-11T12:26:26Z</time></trkpt><trkpt lat="44.965009999495535" lon="8.084425516315708"><ele>244.8</ele><time>2026-04-11T12:26:29Z</time></trkpt><trkpt lat="44.9649456847701" lon="8.0845025757267"><ele>244.20000000000002</ele><time>2026-04-11T12:26:31Z</time></trkpt><trkpt lat="44.96484297124851" lon="8.084554286184433"><ele>243.60000000000002</ele><time>2026-04-11T12:26:33Z</time></trkpt><trkpt lat="44.96475223777082" lon="8.084619498652176"><ele>243.0</ele><time>2026-04-11T12:26:35Z</time></trkpt><trkpt lat="44.96468240190422" lon="8.084699589759454"><ele>243.0</ele><time>2026-04-11T12:26:37Z</time></trkpt><trkpt lat="44.96462804807344" lon="8.084760647656363"><ele>243.0</ele><time>2026-04-11T12:26:39Z</time></trkpt><trkpt lat="44.964570434203594" lon="8.084829264267874"><ele>243.0</ele><time>2026-04-11T12:26:41Z</time></trkpt><trkpt lat="44.964515371771" lon="8.084883651342643"><ele>243.0</ele><time>2026-04-11T12:26:43Z</time></trkpt><trkpt lat="44.964459673703985" lon="8.084970714260434"><ele>243.0</ele><time>2026-04-11T12:26:45Z</time></trkpt><trkpt lat="44.96438572726001" lon="8.085027444585018"><ele>243.0</ele><time>2026-04-11T12:26:47Z</time></trkpt><trkpt lat="44.96429465349141" lon="8.085102428706687"><ele>243.33333333333334</ele><time>2026-04-11T12:26:49Z</time></trkpt><trkpt lat="44.96424263272617" lon="8.085155348372314"><ele>243.66666666666669</ele><time>2026-04-11T12:26:50Z</time></trkpt><trkpt lat="44.96412800638624" lon="8.085157870634799"><ele>244.0</ele><time>2026-04-11T12:26:52Z</time></trkpt><trkpt lat="44.964052328660046" lon="8.085164585303142"><ele>244.33333333333334</ele><time>2026-04-11T12:26:53Z</time></trkpt><trkpt lat="44.963985643257395" lon="8.085171417723965"><ele>244.66666666666669</ele><time>2026-04-11T12:26:54Z</time></trkpt><trkpt lat="44.96391113769568" lon="8.085176605623385"><ele>245.0</ele><time>2026-04-11T12:26:56Z</time></trkpt><trkpt lat="44.96383184557981" lon="8.085147423269817"><ele>244.33333333333334</ele><time>2026-04-11T12:26:57Z</time></trkpt><trkpt lat="44.96374074422677" lon="8.085131665596746"><ele>243.66666666666669</ele><time>2026-04-11T12:26:59Z</time></trkpt><trkpt lat="44.963673166638394" lon="8.085078276064218"><ele>243.0</ele><time>2026-04-11T12:27:01Z</time></trkpt><trkpt lat="44.963584103245324" lon="8.084993664860098"><ele>242.33333333333331</ele><time>2026-04-11T12:27:03Z</time></trkpt><trkpt lat="44.96351474606921" lon="8.084927066146173"><ele>241.66666666666666</ele><time>2026-04-11T12:27:05Z</time></trkpt><trkpt lat="44.96344752958874" lon="8.084862862248043"><ele>241.0</ele><time>2026-04-11T12:27:07Z</time></trkpt><trkpt lat="44.96337716460309" lon="8.084792057690734"><ele>240.99999999999997</ele><time>2026-04-11T12:27:09Z</time></trkpt><trkpt lat="44.96331146669475" lon="8.084735887436588"><ele>241.0</ele><time>2026-04-11T12:27:11Z</time></trkpt><trkpt lat="44.96323283483896" lon="8.084658949722387"><ele>241.0</ele><time>2026-04-11T12:27:13Z</time></trkpt><trkpt lat="44.96318033968804" lon="8.084603131738087"><ele>241.0</ele><time>2026-04-11T12:27:14Z</time></trkpt><trkpt lat="44.9631205454565" lon="8.084531517379968"><ele>240.99999999999997</ele><time>2026-04-11T12:27:15.999Z</time></trkpt><trkpt lat="44.963057016451636" lon="8.084420358826506"><ele>241.0</ele><time>2026-04-11T12:27:17.999Z</time></trkpt><trkpt lat="44.962982444560275" lon="8.084328601406392"><ele>241.0</ele><time>2026-04-11T12:27:19.999Z</time></trkpt><trkpt lat="44.96292658942829" lon="8.084228134674639"><ele>241.00000000000003</ele><time>2026-04-11T12:27:21.999Z</time></trkpt><trkpt lat="44.96287029352516" lon="8.084122318989326"><ele>241.00000000000003</ele><time>2026-04-11T12:27:23.999Z</time></trkpt><trkpt lat="44.96284979812754" lon="8.084033306059043"><ele>241.0</ele><time>2026-04-11T12:27:24.999Z</time></trkpt><trkpt lat="44.96281291854998" lon="8.083884635206037"><ele>241.0</ele><time>2026-04-11T12:27:26.999Z</time></trkpt><trkpt lat="44.962744792111295" lon="8.083773026654303"><ele>239.60000000000002</ele><time>2026-04-11T12:27:28.999Z</time></trkpt><trkpt lat="44.962662900145055" lon="8.083675550761003"><ele>238.20000000000002</ele><time>2026-04-11T12:27:30.999Z</time></trkpt><trkpt lat="44.9625605939704" lon="8.083656366666844"><ele>236.79999999999998</ele><time>2026-04-11T12:27:32.999Z</time></trkpt><trkpt lat="44.962443012770926" lon="8.083641299435513"><ele>235.39999999999998</ele><time>2026-04-11T12:27:34.999Z</time></trkpt><trkpt lat="44.962372101443904" lon="8.08360089512541"><ele>234.0</ele><time>2026-04-11T12:27:35.999Z</time></trkpt><trkpt lat="44.962309369424005" lon="8.08357398777685"><ele>233.39999999999998</ele><time>2026-04-11T12:27:36.999Z</time></trkpt><trkpt lat="44.962227373935086" lon="8.08354710292369"><ele>232.79999999999998</ele><time>2026-04-11T12:27:37.999Z</time></trkpt><trkpt lat="44.962159059277" lon="8.083534507841913"><ele>232.20000000000002</ele><time>2026-04-11T12:27:38.999Z</time></trkpt><trkpt lat="44.962076125428446" lon="8.08347134536327"><ele>231.60000000000002</ele><time>2026-04-11T12:27:40.999Z</time></trkpt><trkpt lat="44.96197016617749" lon="8.083415958712608"><ele>231.0</ele><time>2026-04-11T12:27:42.999Z</time></trkpt><trkpt lat="44.961892509060355" lon="8.083340098822251"><ele>230.60000000000002</ele><time>2026-04-11T12:27:44.999Z</time></trkpt><trkpt lat="44.96181463376276" lon="8.083263369855805"><ele>230.20000000000002</ele><time>2026-04-11T12:27:46.999Z</time></trkpt><trkpt lat="44.96172278365159" lon="8.083195561471525"><ele>229.79999999999998</ele><time>2026-04-11T12:27:48.999Z</time></trkpt><trkpt lat="44.961657498349204" lon="8.083109031139195"><ele>229.39999999999998</ele><time>2026-04-11T12:27:50.999Z</time></trkpt><trkpt lat="44.96156997861543" lon="8.083027336985898"><ele>229.0</ele><time>2026-04-11T12:27:52.999Z</time></trkpt><trkpt lat="44.961494746451415" lon="8.082945734071918"><ele>228.99999999999997</ele><time>2026-04-11T12:27:54.999Z</time></trkpt><trkpt lat="44.96144535113164" lon="8.082865944783059"><ele>229.0</ele><time>2026-04-11T12:27:56.999Z</time></trkpt><trkpt lat="44.961420047857175" lon="8.082758139886707"><ele>229.0</ele><time>2026-04-11T12:27:58.999Z</time></trkpt><trkpt lat="44.961425726061734" lon="8.08266434390411"><ele>229.0</ele><time>2026-04-11T12:28:00.999Z</time></trkpt><trkpt lat="44.96147093220454" lon="8.082545551426534"><ele>228.99999999999997</ele><time>2026-04-11T12:28:02.999Z</time></trkpt><trkpt lat="44.96148980615137" lon="8.082412116916117"><ele>229.0</ele><time>2026-04-11T12:28:04.999Z</time></trkpt><trkpt lat="44.9614739395295" lon="8.082257138087762"><ele>228.66666666666666</ele><time>2026-04-11T12:28:06.999Z</time></trkpt><trkpt lat="44.96144242487879" lon="8.082164451310867"><ele>228.33333333333331</ele><time>2026-04-11T12:28:08.999Z</time></trkpt><trkpt lat="44.96140137312923" lon="8.082076891745764"><ele>228.0</ele><time>2026-04-11T12:28:11.999Z</time></trkpt><trkpt lat="44.96134265941374" lon="8.081972868234123"><ele>227.66666666666669</ele><time>2026-04-11T12:28:13.999Z</time></trkpt><trkpt lat="44.961270941467205" lon="8.081893359086092"><ele>227.33333333333334</ele><time>2026-04-11T12:28:15.999Z</time></trkpt><trkpt lat="44.96122090754178" lon="8.081820999088231"><ele>227.0</ele><time>2026-04-11T12:28:17.999Z</time></trkpt><trkpt lat="44.961160496829514" lon="8.081761786387656"><ele>227.00000000000003</ele><time>2026-04-11T12:28:20Z</time></trkpt><trkpt lat="44.961050398446815" lon="8.08173195795059"><ele>227.0</ele><time>2026-04-11T12:28:23Z</time></trkpt><trkpt lat="44.960986239227786" lon="8.081680939414314"><ele>227.0</ele><time>2026-04-11T12:28:25Z</time></trkpt><trkpt lat="44.960935452625186" lon="8.08162759739181"><ele>227.0</ele><time>2026-04-11T12:28:27Z</time></trkpt><trkpt lat="44.96086685348115" lon="8.08164924871201"><ele>227.00000000000003</ele><time>2026-04-11T12:28:31Z</time></trkpt><trkpt lat="44.960830592496194" lon="8.08176013428651"><ele>227.0</ele><time>2026-04-11T12:28:33Z</time></trkpt><trkpt lat="44.960875479180146" lon="8.081853853787077"><ele>227.00000000000003</ele><time>2026-04-11T12:28:35Z</time></trkpt><trkpt lat="44.96091185593776" lon="8.081946706580576"><ele>227.0</ele><time>2026-04-11T12:28:37Z</time></trkpt><trkpt lat="44.96094838465341" lon="8.082049617079333"><ele>227.0</ele><time>2026-04-11T12:28:39Z</time></trkpt><trkpt lat="44.96095148560336" lon="8.08214565053218"><ele>227.0</ele><time>2026-04-11T12:28:41Z</time></trkpt><trkpt lat="44.96095373921387" lon="8.082274450501805"><ele>227.00000000000003</ele><time>2026-04-11T12:28:43Z</time></trkpt><trkpt lat="44.96094867572754" lon="8.08241257467733"><ele>227.0</ele><time>2026-04-11T12:28:45Z</time></trkpt><trkpt lat="44.96093749237418" lon="8.082510170740624"><ele>227.2857142857143</ele><time>2026-04-11T12:28:47Z</time></trkpt><trkpt lat="44.96093089495988" lon="8.082600702780617"><ele>227.5714285714286</ele><time>2026-04-11T12:28:49Z</time></trkpt><trkpt lat="44.96087828119345" lon="8.082651517189566"><ele>227.85714285714286</ele><time>2026-04-11T12:28:52Z</time></trkpt><trkpt lat="44.96080517241677" lon="8.082615087471236"><ele>228.14285714285717</ele><time>2026-04-11T12:28:57Z</time></trkpt><trkpt lat="44.96073794762175" lon="8.08258074313457"><ele>228.42857142857144</ele><time>2026-04-11T12:28:59Z</time></trkpt><trkpt lat="44.960733244280185" lon="8.082685146984407"><ele>228.71428571428572</ele><time>2026-04-11T12:29:06Z</time></trkpt><trkpt lat="44.96075995432784" lon="8.082787020431113"><ele>229.0</ele><time>2026-04-11T12:29:09Z</time></trkpt><trkpt lat="44.960796894078946" lon="8.0828873488734"><ele>228.99999999999997</ele><time>2026-04-11T12:29:12Z</time></trkpt><trkpt lat="44.9608494609128" lon="8.083016476158866"><ele>229.0</ele><time>2026-04-11T12:29:15Z</time></trkpt><trkpt lat="44.9608906353453" lon="8.083116904263196"><ele>229.0</ele><time>2026-04-11T12:29:17Z</time></trkpt><trkpt lat="44.960930065287485" lon="8.08320478199143"><ele>229.0</ele><time>2026-04-11T12:29:19Z</time></trkpt><trkpt lat="44.9609762528729" lon="8.083287955538733"><ele>228.99999999999997</ele><time>2026-04-11T12:29:20.999Z</time></trkpt><trkpt lat="44.96102856877631" lon="8.083376548560947"><ele>229.0</ele><time>2026-04-11T12:29:22.999Z</time></trkpt><trkpt lat="44.96108932484485" lon="8.083454771918012"><ele>227.83333333333331</ele><time>2026-04-11T12:29:24.999Z</time></trkpt><trkpt lat="44.961126021246336" lon="8.083544200875991"><ele>226.66666666666666</ele><time>2026-04-11T12:29:26.999Z</time></trkpt><trkpt lat="44.96117491590208" lon="8.083606576707208"><ele>225.5</ele><time>2026-04-11T12:29:28.999Z</time></trkpt><trkpt lat="44.96123981953194" lon="8.083694752807325"><ele>224.33333333333331</ele><time>2026-04-11T12:29:31.999Z</time></trkpt><trkpt lat="44.96129370547658" lon="8.083770082023117"><ele>223.16666666666666</ele><time>2026-04-11T12:29:34.999Z</time></trkpt><trkpt lat="44.96134090845168" lon="8.083842393295685"><ele>222.0</ele><time>2026-04-11T12:29:37.999Z</time></trkpt><trkpt lat="44.96139604709213" lon="8.083921361036966"><ele>222.0</ele><time>2026-04-11T12:29:40.999Z</time></trkpt><trkpt lat="44.96146406665206" lon="8.08400746139353"><ele>222.0</ele><time>2026-04-11T12:29:43.999Z</time></trkpt><trkpt lat="44.96153276318744" lon="8.084085972414162"><ele>222.0</ele><time>2026-04-11T12:29:46.999Z</time></trkpt><trkpt lat="44.961588610212985" lon="8.084176867264949"><ele>222.0</ele><time>2026-04-11T12:29:49.999Z</time></trkpt><trkpt lat="44.96165206912913" lon="8.084244157111222"><ele>222.0</ele><time>2026-04-11T12:29:51.999Z</time></trkpt><trkpt lat="44.96170632127597" lon="8.084303645907916"><ele>222.0</ele><time>2026-04-11T12:29:53.999Z</time></trkpt><trkpt lat="44.961754100992685" lon="8.084369772111764"><ele>222.66666666666666</ele><time>2026-04-11T12:29:55.999Z</time></trkpt><trkpt lat="44.961822821120116" lon="8.084460375622799"><ele>223.33333333333331</ele><time>2026-04-11T12:29:58.999Z</time></trkpt><trkpt lat="44.96187396038441" lon="8.084533795464026"><ele>224.0</ele><time>2026-04-11T12:30:00.999Z</time></trkpt><trkpt lat="44.96193325186761" lon="8.084624723263456"><ele>224.66666666666666</ele><time>2026-04-11T12:30:03.999Z</time></trkpt><trkpt lat="44.96198248897429" lon="8.084693508558933"><ele>225.33333333333331</ele><time>2026-04-11T12:30:05.999Z</time></trkpt><trkpt lat="44.96204809725626" lon="8.084793760383153"><ele>226.0</ele><time>2026-04-11T12:30:08.999Z</time></trkpt><trkpt lat="44.96210613155873" lon="8.084862258248139"><ele>225.99999999999997</ele><time>2026-04-11T12:30:10.999Z</time></trkpt><trkpt lat="44.962156646432796" lon="8.084927695295338"><ele>226.0</ele><time>2026-04-11T12:30:12.999Z</time></trkpt><trkpt lat="44.96221651220366" lon="8.085028332957513"><ele>226.0</ele><time>2026-04-11T12:30:15.999Z</time></trkpt><trkpt lat="44.96226134505904" lon="8.085105930972514"><ele>226.0</ele><time>2026-04-11T12:30:17.999Z</time></trkpt><trkpt lat="44.96231080805857" lon="8.085181787558668"><ele>225.99999999999997</ele><time>2026-04-11T12:30:19.999Z</time></trkpt><trkpt lat="44.96234211363003" lon="8.085262584316787"><ele>226.0</ele><time>2026-04-11T12:30:21.999Z</time></trkpt><trkpt lat="44.962386787598966" lon="8.085379974693554"><ele>224.49999999999997</ele><time>2026-04-11T12:30:25Z</time></trkpt><trkpt lat="44.962432985345835" lon="8.085450202074625"><ele>223.0</ele><time>2026-04-11T12:30:27Z</time></trkpt><trkpt lat="44.96248225456209" lon="8.08557125925425"><ele>221.5</ele><time>2026-04-11T12:30:30Z</time></trkpt><trkpt lat="44.96249917717383" lon="8.08570045784178"><ele>220.0</ele><time>2026-04-11T12:30:33Z</time></trkpt><trkpt lat="44.962512442237085" lon="8.085832513472816"><ele>218.49999999999997</ele><time>2026-04-11T12:30:36Z</time></trkpt><trkpt lat="44.96250219392856" lon="8.085947586125293"><ele>217.0</ele><time>2026-04-11T12:30:39Z</time></trkpt><trkpt lat="44.9624938542247" lon="8.086057994746016"><ele>216.99999999999997</ele><time>2026-04-11T12:30:42Z</time></trkpt><trkpt lat="44.962476079221" lon="8.086160908538567"><ele>217.0</ele><time>2026-04-11T12:30:45Z</time></trkpt><trkpt lat="44.96244598278724" lon="8.08626683547739"><ele>217.0</ele><time>2026-04-11T12:30:48Z</time></trkpt><trkpt lat="44.96242540389148" lon="8.086370183146169"><ele>217.0</ele><time>2026-04-11T12:30:51Z</time></trkpt><trkpt lat="44.96240768522645" lon="8.08647247530301"><ele>216.99999999999997</ele><time>2026-04-11T12:30:54Z</time></trkpt><trkpt lat="44.96239240702409" lon="8.086585513403906"><ele>217.0</ele><time>2026-04-11T12:30:57Z</time></trkpt><trkpt lat="44.96236647580073" lon="8.08669891070594"><ele>218.57142857142856</ele><time>2026-04-11T12:31:01Z</time></trkpt><trkpt lat="44.962349664432054" lon="8.086802003753307"><ele>220.14285714285714</ele><time>2026-04-11T12:31:04Z</time></trkpt><trkpt lat="44.962333902268504" lon="8.086891298877752"><ele>221.71428571428572</ele><time>2026-04-11T12:31:07Z</time></trkpt><trkpt lat="44.96231464328657" lon="8.087003085154944"><ele>223.28571428571428</ele><time>2026-04-11T12:31:10Z</time></trkpt><trkpt lat="44.96229661727783" lon="8.087108805234928"><ele>224.85714285714283</ele><time>2026-04-11T12:31:13Z</time></trkpt><trkpt lat="44.962305173741186" lon="8.08721664104677"><ele>226.42857142857142</ele><time>2026-04-11T12:31:18Z</time></trkpt><trkpt lat="44.96229414572606" lon="8.087316169269881"><ele>228.0</ele><time>2026-04-11T12:31:22Z</time></trkpt><trkpt lat="44.962271474027226" lon="8.087402241456449"><ele>229.66666666666666</ele><time>2026-04-11T12:31:25Z</time></trkpt><trkpt lat="44.96226220605647" lon="8.087506646956758"><ele>231.33333333333331</ele><time>2026-04-11T12:31:28.999Z</time></trkpt><trkpt lat="44.96224671144205" lon="8.087624672655961"><ele>233.0</ele><time>2026-04-11T12:31:32.999Z</time></trkpt><trkpt lat="44.96221625160198" lon="8.087737083736512"><ele>234.66666666666666</ele><time>2026-04-11T12:31:35.999Z</time></trkpt><trkpt lat="44.96218369131964" lon="8.087847106671516"><ele>236.33333333333331</ele><time>2026-04-11T12:31:39.999Z</time></trkpt><trkpt lat="44.96217668042203" lon="8.087944346798293"><ele>238.0</ele><time>2026-04-11T12:31:43.999Z</time></trkpt><trkpt lat="44.96213705885836" lon="8.088031630476552"><ele>238.0</ele><time>2026-04-11T12:31:46.999Z</time></trkpt><trkpt lat="44.96217231071427" lon="8.088162547205261"><ele>238.0</ele><time>2026-04-11T12:31:48.999Z</time></trkpt><trkpt lat="44.962172473599175" lon="8.088259592588845"><ele>238.0</ele><time>2026-04-11T12:31:51.999Z</time></trkpt><trkpt lat="44.96219661725948" lon="8.088403239458614"><ele>238.0</ele><time>2026-04-11T12:31:55.999Z</time></trkpt><trkpt lat="44.962231205092195" lon="8.08851573598542"><ele>238.0</ele><time>2026-04-11T12:31:57.999Z</time></trkpt><trkpt lat="44.96227958663522" lon="8.088650172790189"><ele>238.66666666666666</ele><time>2026-04-11T12:31:59.999Z</time></trkpt><trkpt lat="44.96235437528434" lon="8.088775071852412"><ele>239.33333333333331</ele><time>2026-04-11T12:32:01.999Z</time></trkpt><trkpt lat="44.96238646609289" lon="8.08886016971459"><ele>240.0</ele><time>2026-04-11T12:32:02.999Z</time></trkpt><trkpt lat="44.96242019679649" lon="8.088948373535201"><ele>240.66666666666669</ele><time>2026-04-11T12:32:03.999Z</time></trkpt><trkpt lat="44.96241219054442" lon="8.089054069573653"><ele>241.33333333333334</ele><time>2026-04-11T12:32:04.999Z</time></trkpt><trkpt lat="44.96244315817817" lon="8.089213255454773"><ele>242.0</ele><time>2026-04-11T12:32:06.999Z</time></trkpt><trkpt lat="44.96244405216387" lon="8.089312934446006"><ele>240.16666666666669</ele><time>2026-04-11T12:32:07.999Z</time></trkpt><trkpt lat="44.96241665508619" lon="8.089404018016252"><ele>238.33333333333334</ele><time>2026-04-11T12:32:08.999Z</time></trkpt><trkpt lat="44.962375990664185" lon="8.089526057792543"><ele>236.5</ele><time>2026-04-11T12:32:09.999Z</time></trkpt><trkpt lat="44.96233122635793" lon="8.089638255239224"><ele>234.66666666666669</ele><time>2026-04-11T12:32:10.999Z</time></trkpt><trkpt lat="44.962306840233005" lon="8.08976106366007"><ele>232.83333333333334</ele><time>2026-04-11T12:32:11.999Z</time></trkpt><trkpt lat="44.962265558113536" lon="8.08987870961931"><ele>231.0</ele><time>2026-04-11T12:32:12.999Z</time></trkpt><trkpt lat="44.962230744562426" lon="8.089997104768255"><ele>229.0</ele><time>2026-04-11T12:32:13.999Z</time></trkpt><trkpt lat="44.96221341799274" lon="8.090115269878735"><ele>227.0</ele><time>2026-04-11T12:32:14.999Z</time></trkpt><trkpt lat="44.962213699219404" lon="8.090231419801205"><ele>225.0</ele><time>2026-04-11T12:32:15.999Z</time></trkpt><trkpt lat="44.96222336868969" lon="8.090322105189726"><ele>223.0</ele><time>2026-04-11T12:32:16.999Z</time></trkpt><trkpt lat="44.962245990505146" lon="8.090415638768663"><ele>221.0</ele><time>2026-04-11T12:32:17.999Z</time></trkpt><trkpt lat="44.96227100734525" lon="8.090518686172443"><ele>219.0</ele><time>2026-04-11T12:32:18.999Z</time></trkpt><trkpt lat="44.96229758897574" lon="8.090610434505097"><ele>219.0</ele><time>2026-04-11T12:32:19.999Z</time></trkpt><trkpt lat="44.96233155612478" lon="8.090692488574518"><ele>219.0</ele><time>2026-04-11T12:32:20.999Z</time></trkpt><trkpt lat="44.962363396157684" lon="8.090776837304563"><ele>219.0</ele><time>2026-04-11T12:32:21.999Z</time></trkpt><trkpt lat="44.96240468686161" lon="8.09085061977494"><ele>219.0</ele><time>2026-04-11T12:32:22.999Z</time></trkpt><trkpt lat="44.96245560117273" lon="8.090921130795959"><ele>219.0</ele><time>2026-04-11T12:32:23.999Z</time></trkpt><trkpt lat="44.96255050079984" lon="8.091050030896499"><ele>219.0</ele><time>2026-04-11T12:32:25.999Z</time></trkpt><trkpt lat="44.96259673433724" lon="8.091123548652275"><ele>219.6</ele><time>2026-04-11T12:32:26.999Z</time></trkpt><trkpt lat="44.962671554880416" lon="8.091249576909286"><ele>220.2</ele><time>2026-04-11T12:32:28.999Z</time></trkpt><trkpt lat="44.9627278633152" lon="8.091388548231864"><ele>220.79999999999998</ele><time>2026-04-11T12:32:31Z</time></trkpt><trkpt lat="44.96280245537011" lon="8.091456754517024"><ele>221.39999999999998</ele><time>2026-04-11T12:32:33Z</time></trkpt><trkpt lat="44.96281432682172" lon="8.091559904863084"><ele>222.0</ele><time>2026-04-11T12:32:35Z</time></trkpt><trkpt lat="44.96273918075697" lon="8.091621751311067"><ele>222.0</ele><time>2026-04-11T12:32:37Z</time></trkpt><trkpt lat="44.96266317343128" lon="8.091708605234833"><ele>222.0</ele><time>2026-04-11T12:32:39Z</time></trkpt><trkpt lat="44.962590253973104" lon="8.091799209723833"><ele>222.0</ele><time>2026-04-11T12:32:41Z</time></trkpt><trkpt lat="44.96251333194931" lon="8.091904148595257"><ele>222.0</ele><time>2026-04-11T12:32:43Z</time></trkpt><trkpt lat="44.96243957549133" lon="8.09199626508324"><ele>222.0</ele><time>2026-04-11T12:32:45Z</time></trkpt><trkpt lat="44.96236619164644" lon="8.092102115714688"><ele>220.39999999999998</ele><time>2026-04-11T12:32:47Z</time></trkpt><trkpt lat="44.962300591093566" lon="8.0922024717793"><ele>218.79999999999998</ele><time>2026-04-11T12:32:49Z</time></trkpt><trkpt lat="44.962232475916856" lon="8.092280607301646"><ele>217.2</ele><time>2026-04-11T12:32:51Z</time></trkpt><trkpt lat="44.96217420105281" lon="8.09237945783501"><ele>215.6</ele><time>2026-04-11T12:32:53Z</time></trkpt><trkpt lat="44.96210791813101" lon="8.092484232259732"><ele>214.0</ele><time>2026-04-11T12:32:55Z</time></trkpt><trkpt lat="44.96203680283329" lon="8.092590442241994"><ele>214.0</ele><time>2026-04-11T12:32:57Z</time></trkpt><trkpt lat="44.96197216753863" lon="8.092682253399822"><ele>213.99999999999997</ele><time>2026-04-11T12:32:59Z</time></trkpt><trkpt lat="44.96192289996846" lon="8.09278695407256"><ele>213.99999999999997</ele><time>2026-04-11T12:33:01Z</time></trkpt><trkpt lat="44.9618619157503" lon="8.09289102937857"><ele>214.0</ele><time>2026-04-11T12:33:03Z</time></trkpt><trkpt lat="44.961801161380066" lon="8.09298331641138"><ele>214.0</ele><time>2026-04-11T12:33:05Z</time></trkpt><trkpt lat="44.96173772245379" lon="8.09309271857756"><ele>213.2</ele><time>2026-04-11T12:33:07Z</time></trkpt><trkpt lat="44.9616674134831" lon="8.09318450436452"><ele>212.39999999999998</ele><time>2026-04-11T12:33:09Z</time></trkpt><trkpt lat="44.96158523616043" lon="8.093275767899021"><ele>211.6</ele><time>2026-04-11T12:33:11Z</time></trkpt><trkpt lat="44.96151948973257" lon="8.093362291941997"><ele>210.8</ele><time>2026-04-11T12:33:13Z</time></trkpt><trkpt lat="44.961438333159066" lon="8.09344475401982"><ele>210.0</ele><time>2026-04-11T12:33:15Z</time></trkpt><trkpt lat="44.961362664914226" lon="8.093542620566001"><ele>209.6</ele><time>2026-04-11T12:33:17Z</time></trkpt><trkpt lat="44.96128044098947" lon="8.093615984515615"><ele>209.2</ele><time>2026-04-11T12:33:19Z</time></trkpt><trkpt lat="44.96121047887271" lon="8.093716214583353"><ele>208.8</ele><time>2026-04-11T12:33:21Z</time></trkpt><trkpt lat="44.96114093640515" lon="8.093804843128288"><ele>208.4</ele><time>2026-04-11T12:33:23Z</time></trkpt><trkpt lat="44.96108072020153" lon="8.093919540912738"><ele>208.0</ele><time>2026-04-11T12:33:24.999Z</time></trkpt><trkpt lat="44.96100849264715" lon="8.094028122853903"><ele>208.8</ele><time>2026-04-11T12:33:26.999Z</time></trkpt><trkpt lat="44.960969205577975" lon="8.094109833946453"><ele>209.60000000000002</ele><time>2026-04-11T12:33:28.999Z</time></trkpt><trkpt lat="44.960907346143514" lon="8.09420624252952"><ele>210.39999999999998</ele><time>2026-04-11T12:33:30.999Z</time></trkpt><trkpt lat="44.96084399593178" lon="8.094329952161742"><ele>211.2</ele><time>2026-04-11T12:33:32.999Z</time></trkpt><trkpt lat="44.96076722390601" lon="8.094455595060676"><ele>212.0</ele><time>2026-04-11T12:33:34.999Z</time></trkpt><trkpt lat="44.96068322737557" lon="8.094558584355033"><ele>212.0</ele><time>2026-04-11T12:33:36.999Z</time></trkpt><trkpt lat="44.96060680330939" lon="8.094658875808285"><ele>212.0</ele><time>2026-04-11T12:33:38.999Z</time></trkpt><trkpt lat="44.96053621319998" lon="8.094776590026111"><ele>212.0</ele><time>2026-04-11T12:33:40.999Z</time></trkpt><trkpt lat="44.96046213743686" lon="8.094872392223396"><ele>212.0</ele><time>2026-04-11T12:33:42.999Z</time></trkpt><trkpt lat="44.96041653554813" lon="8.095022610168627"><ele>212.0</ele><time>2026-04-11T12:33:44.999Z</time></trkpt><trkpt lat="44.960354568998795" lon="8.095164378372482"><ele>212.0</ele><time>2026-04-11T12:33:46.999Z</time></trkpt><trkpt lat="44.960332616818235" lon="8.095292602228884"><ele>212.0</ele><time>2026-04-11T12:33:48.999Z</time></trkpt><trkpt lat="44.96029651008899" lon="8.095447872585407"><ele>212.0</ele><time>2026-04-11T12:33:50.999Z</time></trkpt><trkpt lat="44.96024553923366" lon="8.095572225486043"><ele>212.0</ele><time>2026-04-11T12:33:52.999Z</time></trkpt><trkpt lat="44.960186052433585" lon="8.095708675050513"><ele>212.0</ele><time>2026-04-11T12:33:54.999Z</time></trkpt><trkpt lat="44.96011867472969" lon="8.095835756485934"><ele>211.6</ele><time>2026-04-11T12:33:56.999Z</time></trkpt><trkpt lat="44.9600361112362" lon="8.095987506044446"><ele>211.2</ele><time>2026-04-11T12:33:58.999Z</time></trkpt><trkpt lat="44.959968287508545" lon="8.09612473988039"><ele>210.8</ele><time>2026-04-11T12:34:00.999Z</time></trkpt><trkpt lat="44.959886384334965" lon="8.09625891038742"><ele>210.4</ele><time>2026-04-11T12:34:02.999Z</time></trkpt><trkpt lat="44.95985197316056" lon="8.096333443393084"><ele>210.0</ele><time>2026-04-11T12:34:03.999Z</time></trkpt><trkpt lat="44.95978505179978" lon="8.0964720523492"><ele>210.0</ele><time>2026-04-11T12:34:05.999Z</time></trkpt><trkpt lat="44.95973959232168" lon="8.096533994458346"><ele>210.0</ele><time>2026-04-11T12:34:06.999Z</time></trkpt><trkpt lat="44.959653170793466" lon="8.096688987380828"><ele>210.0</ele><time>2026-04-11T12:34:08.999Z</time></trkpt><trkpt lat="44.95957406080897" lon="8.096809822967149"><ele>210.0</ele><time>2026-04-11T12:34:10.999Z</time></trkpt><trkpt lat="44.95952167101855" lon="8.096860135006247"><ele>210.0</ele><time>2026-04-11T12:34:11.999Z</time></trkpt><trkpt lat="44.95946639910564" lon="8.096927304907215"><ele>210.0</ele><time>2026-04-11T12:34:12.999Z</time></trkpt><trkpt lat="44.95938901072406" lon="8.097056860233554"><ele>210.0</ele><time>2026-04-11T12:34:14.999Z</time></trkpt><trkpt lat="44.95929235678488" lon="8.097188145833895"><ele>210.0</ele><time>2026-04-11T12:34:16.999Z</time></trkpt><trkpt lat="44.95925223530673" lon="8.097257742405603"><ele>210.0</ele><time>2026-04-11T12:34:17.999Z</time></trkpt><trkpt lat="44.95919721869904" lon="8.09733893883292"><ele>210.0</ele><time>2026-04-11T12:34:18.999Z</time></trkpt><trkpt lat="44.95913108715869" lon="8.097469999611786"><ele>210.0</ele><time>2026-04-11T12:34:20.999Z</time></trkpt><trkpt lat="44.95906611615631" lon="8.097638263461118"><ele>210.0</ele><time>2026-04-11T12:34:22.999Z</time></trkpt><trkpt lat="44.959025865242744" lon="8.09771760660971"><ele>210.0</ele><time>2026-04-11T12:34:23.999Z</time></trkpt><trkpt lat="44.958948116272026" lon="8.097853657522107"><ele>210.0</ele><time>2026-04-11T12:34:25.999Z</time></trkpt><trkpt lat="44.958904303645085" lon="8.097932229103389"><ele>210.0</ele><time>2026-04-11T12:34:26.999Z</time></trkpt><trkpt lat="44.958829649105695" lon="8.098043067874512"><ele>210.0</ele><time>2026-04-11T12:34:28.999Z</time></trkpt><trkpt lat="44.95875017809704" lon="8.098182411526274"><ele>210.0</ele><time>2026-04-11T12:34:30.999Z</time></trkpt><trkpt lat="44.958713430276816" lon="8.098262691399803"><ele>210.0</ele><time>2026-04-11T12:34:31.999Z</time></trkpt><trkpt lat="44.958640788997904" lon="8.098413121110045"><ele>210.0</ele><time>2026-04-11T12:34:33.999Z</time></trkpt><trkpt lat="44.958570371772815" lon="8.098541522775275"><ele>210.0</ele><time>2026-04-11T12:34:35.999Z</time></trkpt><trkpt lat="44.958514483252145" lon="8.098681995915268"><ele>210.2</ele><time>2026-04-11T12:34:38Z</time></trkpt><trkpt lat="44.95846438810758" lon="8.098824735454428"><ele>210.4</ele><time>2026-04-11T12:34:40Z</time></trkpt><trkpt lat="44.958430054842665" lon="8.09891964885665"><ele>210.60000000000002</ele><time>2026-04-11T12:34:42Z</time></trkpt><trkpt lat="44.95839377415652" lon="8.099057885008024"><ele>210.8</ele><time>2026-04-11T12:34:44Z</time></trkpt><trkpt lat="44.95834973009288" lon="8.099180301274952"><ele>211.0</ele><time>2026-04-11T12:34:46Z</time></trkpt><trkpt lat="44.95833022476864" lon="8.099267581999861"><ele>210.20000000000002</ele><time>2026-04-11T12:34:47Z</time></trkpt><trkpt lat="44.958291719325075" lon="8.099410987014098"><ele>209.4</ele><time>2026-04-11T12:34:49Z</time></trkpt><trkpt lat="44.958283837222716" lon="8.099509538899184"><ele>208.6</ele><time>2026-04-11T12:34:50Z</time></trkpt><trkpt lat="44.958228396432524" lon="8.099667128398751"><ele>207.8</ele><time>2026-04-11T12:34:52Z</time></trkpt><trkpt lat="44.95817539730497" lon="8.099802747560567"><ele>207.0</ele><time>2026-04-11T12:34:54Z</time></trkpt><trkpt lat="44.95813130024115" lon="8.09992762226027"><ele>207.0</ele><time>2026-04-11T12:34:56Z</time></trkpt><trkpt lat="44.95809095397861" lon="8.100062765440045"><ele>207.0</ele><time>2026-04-11T12:34:58Z</time></trkpt><trkpt lat="44.95805589646325" lon="8.100196946921912"><ele>207.0</ele><time>2026-04-11T12:35:00Z</time></trkpt><trkpt lat="44.958039357914764" lon="8.100320756951465"><ele>207.0</ele><time>2026-04-11T12:35:02Z</time></trkpt><trkpt lat="44.95803108744817" lon="8.100443852978684"><ele>207.0</ele><time>2026-04-11T12:35:04Z</time></trkpt><trkpt lat="44.95803297105876" lon="8.100614775031282"><ele>217.0</ele><time>2026-04-11T12:35:06Z</time></trkpt><trkpt lat="44.962476079221" lon="8.086160908538567"><ele>216.99999999999997</ele><time>2026-04-11T12:30:45Z</time></trkpt><trkpt lat="44.96244598278724" lon="8.08626683547739"><ele>217.0</ele><time>2026-04-11T12:30:48Z</time></trkpt><trkpt lat="44.96242540389148" lon="8.086370183146169"><ele>217.0</ele><time>2026-04-11T12:30:51Z</time></trkpt><trkpt lat="44.96240768522645" lon="8.08647247530301"><ele>217.0</ele><time>2026-04-11T12:30:54Z</time></trkpt><trkpt lat="44.96239240702409" lon="8.086585513403906"><ele>216.99999999999997</ele><time>2026-04-11T12:30:57Z</time></trkpt><trkpt lat="44.96236647580073" lon="8.08669891070594"><ele>217.0</ele><time>2026-04-11T12:31:01Z</time></trkpt><trkpt lat="44.962349664432054" lon="8.086802003753307"><ele>218.57142857142856</ele><time>2026-04-11T12:31:04Z</time></trkpt><trkpt lat="44.962333902268504" lon="8.086891298877752"><ele>220.14285714285714</ele><time>2026-04-11T12:31:07Z</time></trkpt><trkpt lat="44.96231464328657" lon="8.087003085154944"><ele>221.71428571428572</ele><time>2026-04-11T12:31:10Z</time></trkpt><trkpt lat="44.96229661727783" lon="8.087108805234928"><ele>223.28571428571428</ele><time>2026-04-11T12:31:13Z</time></trkpt><trkpt lat="44.962305173741186" lon="8.08721664104677"><ele>224.85714285714283</ele><time>2026-04-11T12:31:18Z</time></trkpt><trkpt lat="44.96229414572606" lon="8.087316169269881"><ele>226.42857142857142</ele><time>2026-04-11T12:31:22Z</time></trkpt><trkpt lat="44.962271474027226" lon="8.087402241456449"><ele>228.0</ele><time>2026-04-11T12:31:25Z</time></trkpt><trkpt lat="44.96226220605647" lon="8.087506646956758"><ele>229.66666666666666</ele><time>2026-04-11T12:31:28.999Z</time></trkpt><trkpt lat="44.96224671144205" lon="8.087624672655961"><ele>231.33333333333331</ele><time>2026-04-11T12:31:32.999Z</time></trkpt><trkpt lat="44.96221625160198" lon="8.087737083736512"><ele>233.0</ele><time>2026-04-11T12:31:35.999Z</time></trkpt><trkpt lat="44.96218369131964" lon="8.087847106671516"><ele>234.66666666666666</ele><time>2026-04-11T12:31:39.999Z</time></trkpt><trkpt lat="44.96217668042203" lon="8.087944346798293"><ele>236.33333333333331</ele><time>2026-04-11T12:31:43.999Z</time></trkpt><trkpt lat="44.96213705885836" lon="8.088031630476552"><ele>238.0</ele><time>2026-04-11T12:31:46.999Z</time></trkpt><trkpt lat="44.96217231071427" lon="8.088162547205261"><ele>238.0</ele><time>2026-04-11T12:31:48.999Z</time></trkpt><trkpt lat="44.962172473599175" lon="8.088259592588845"><ele>238.0</ele><time>2026-04-11T12:31:51.999Z</time></trkpt><trkpt lat="44.96219661725948" lon="8.088403239458614"><ele>238.0</ele><time>2026-04-11T12:31:55.999Z</time></trkpt><trkpt lat="44.962231205092195" lon="8.08851573598542"><ele>238.0</ele><time>2026-04-11T12:31:57.999Z</time></trkpt><trkpt lat="44.96227958663522" lon="8.088650172790189"><ele>238.0</ele><time>2026-04-11T12:31:59.999Z</time></trkpt><trkpt lat="44.96235437528434" lon="8.088775071852412"><ele>238.66666666666666</ele><time>2026-04-11T12:32:01.999Z</time></trkpt><trkpt lat="44.96238646609289" lon="8.08886016971459"><ele>239.33333333333331</ele><time>2026-04-11T12:32:02.999Z</time></trkpt><trkpt lat="44.96242019679649" lon="8.088948373535201"><ele>240.0</ele><time>2026-04-11T12:32:03.999Z</time></trkpt><trkpt lat="44.96241219054442" lon="8.089054069573653"><ele>240.66666666666669</ele><time>2026-04-11T12:32:04.999Z</time></trkpt><trkpt lat="44.96244315817817" lon="8.089213255454773"><ele>241.33333333333334</ele><time>2026-04-11T12:32:06.999Z</time></trkpt><trkpt lat="44.96244405216387" lon="8.089312934446006"><ele>242.0</ele><time>2026-04-11T12:32:07.999Z</time></trkpt><trkpt lat="44.96241665508619" lon="8.089404018016252"><ele>239.8</ele><time>2026-04-11T12:32:08.999Z</time></trkpt><trkpt lat="44.962375990664185" lon="8.089526057792543"><ele>237.6</ele><time>2026-04-11T12:32:09.999Z</time></trkpt><trkpt lat="44.96233122635793" lon="8.089638255239224"><ele>235.40000000000003</ele><time>2026-04-11T12:32:10.999Z</time></trkpt><trkpt lat="44.962306840233005" lon="8.08976106366007"><ele>233.20000000000002</ele><time>2026-04-11T12:32:11.999Z</time></trkpt><trkpt lat="44.962265558113536" lon="8.08987870961931"><ele>231.0</ele><time>2026-04-11T12:32:12.999Z</time></trkpt><trkpt lat="44.962230744562426" lon="8.089997104768255"><ele>229.0</ele><time>2026-04-11T12:32:13.999Z</time></trkpt><trkpt lat="44.96221341799274" lon="8.090115269878735"><ele>227.0</ele><time>2026-04-11T12:32:14.999Z</time></trkpt><trkpt lat="44.962213699219404" lon="8.090231419801205"><ele>225.0</ele><time>2026-04-11T12:32:15.999Z</time></trkpt><trkpt lat="44.96222336868969" lon="8.090322105189726"><ele>223.0</ele><time>2026-04-11T12:32:16.999Z</time></trkpt><trkpt lat="44.962245990505146" lon="8.090415638768663"><ele>221.0</ele><time>2026-04-11T12:32:17.999Z</time></trkpt><trkpt lat="44.96227100734525" lon="8.090518686172443"><ele>219.0</ele><time>2026-04-11T12:32:18.999Z</time></trkpt><trkpt lat="44.96229758897574" lon="8.090610434505097"><ele>219.0</ele><time>2026-04-11T12:32:19.999Z</time></trkpt><trkpt lat="44.96233155612478" lon="8.090692488574518"><ele>219.0</ele><time>2026-04-11T12:32:20.999Z</time></trkpt><trkpt lat="44.962363396157684" lon="8.090776837304563"><ele>219.0</ele><time>2026-04-11T12:32:21.999Z</time></trkpt><trkpt lat="44.96240468686161" lon="8.09085061977494"><ele>219.0</ele><time>2026-04-11T12:32:22.999Z</time></trkpt><trkpt lat="44.96245560117273" lon="8.090921130795959"><ele>219.0</ele><time>2026-04-11T12:32:23.999Z</time></trkpt><trkpt lat="44.96255050079984" lon="8.091050030896499"><ele>219.0</ele><time>2026-04-11T12:32:25.999Z</time></trkpt><trkpt lat="44.96259673433724" lon="8.091123548652275"><ele>219.6</ele><time>2026-04-11T12:32:26.999Z</time></trkpt><trkpt lat="44.962671554880416" lon="8.091249576909286"><ele>220.2</ele><time>2026-04-11T12:32:28.999Z</time></trkpt><trkpt lat="44.9627278633152" lon="8.091388548231864"><ele>220.79999999999998</ele><time>2026-04-11T12:32:31Z</time></trkpt><trkpt lat="44.96280245537011" lon="8.091456754517024"><ele>221.39999999999998</ele><time>2026-04-11T12:32:33Z</time></trkpt><trkpt lat="44.96281432682172" lon="8.091559904863084"><ele>222.0</ele><time>2026-04-11T12:32:35Z</time></trkpt><trkpt lat="44.96273918075697" lon="8.091621751311067"><ele>222.0</ele><time>2026-04-11T12:32:37Z</time></trkpt><trkpt lat="44.96266317343128" lon="8.091708605234833"><ele>222.0</ele><time>2026-04-11T12:32:39Z</time></trkpt><trkpt lat="44.962590253973104" lon="8.091799209723833"><ele>222.0</ele><time>2026-04-11T12:32:41Z</time></trkpt><trkpt lat="44.96251333194931" lon="8.091904148595257"><ele>222.0</ele><time>2026-04-11T12:32:43Z</time></trkpt><trkpt lat="44.96243957549133" lon="8.09199626508324"><ele>222.0</ele><time>2026-04-11T12:32:45Z</time></trkpt><trkpt lat="44.96236619164644" lon="8.092102115714688"><ele>220.39999999999998</ele><time>2026-04-11T12:32:47Z</time></trkpt><trkpt lat="44.962300591093566" lon="8.0922024717793"><ele>218.79999999999998</ele><time>2026-04-11T12:32:49Z</time></trkpt><trkpt lat="44.962232475916856" lon="8.092280607301646"><ele>217.2</ele><time>2026-04-11T12:32:51Z</time></trkpt><trkpt lat="44.96217420105281" lon="8.09237945783501"><ele>215.6</ele><time>2026-04-11T12:32:53Z</time></trkpt><trkpt lat="44.96210791813101" lon="8.092484232259732"><ele>214.0</ele><time>2026-04-11T12:32:55Z</time></trkpt><trkpt lat="44.96203680283329" lon="8.092590442241994"><ele>214.0</ele><time>2026-04-11T12:32:57Z</time></trkpt><trkpt lat="44.96197216753863" lon="8.092682253399822"><ele>213.99999999999997</ele><time>2026-04-11T12:32:59Z</time></trkpt><trkpt lat="44.96192289996846" lon="8.09278695407256"><ele>213.99999999999997</ele><time>2026-04-11T12:33:01Z</time></trkpt><trkpt lat="44.9618619157503" lon="8.09289102937857"><ele>214.0</ele><time>2026-04-11T12:33:03Z</time></trkpt><trkpt lat="44.961801161380066" lon="8.09298331641138"><ele>214.0</ele><time>2026-04-11T12:33:05Z</time></trkpt><trkpt lat="44.96173772245379" lon="8.09309271857756"><ele>213.2</ele><time>2026-04-11T12:33:07Z</time></trkpt><trkpt lat="44.9616674134831" lon="8.09318450436452"><ele>212.39999999999998</ele><time>2026-04-11T12:33:09Z</time></trkpt><trkpt lat="44.96158523616043" lon="8.093275767899021"><ele>211.6</ele><time>2026-04-11T12:33:11Z</time></trkpt><trkpt lat="44.96151948973257" lon="8.093362291941997"><ele>210.8</ele><time>2026-04-11T12:33:13Z</time></trkpt><trkpt lat="44.961438333159066" lon="8.09344475401982"><ele>210.0</ele><time>2026-04-11T12:33:15Z</time></trkpt><trkpt lat="44.961362664914226" lon="8.093542620566001"><ele>209.6</ele><time>2026-04-11T12:33:17Z</time></trkpt><trkpt lat="44.96128044098947" lon="8.093615984515615"><ele>209.2</ele><time>2026-04-11T12:33:19Z</time></trkpt><trkpt lat="44.96121047887271" lon="8.093716214583353"><ele>208.8</ele><time>2026-04-11T12:33:21Z</time></trkpt><trkpt lat="44.96114093640515" lon="8.093804843128288"><ele>208.4</ele><time>2026-04-11T12:33:23Z</time></trkpt><trkpt lat="44.96108072020153" lon="8.093919540912738"><ele>208.0</ele><time>2026-04-11T12:33:24.999Z</time></trkpt><trkpt lat="44.96100849264715" lon="8.094028122853903"><ele>208.8</ele><time>2026-04-11T12:33:26.999Z</time></trkpt><trkpt lat="44.960969205577975" lon="8.094109833946453"><ele>209.60000000000002</ele><time>2026-04-11T12:33:28.999Z</time></trkpt><trkpt lat="44.960907346143514" lon="8.09420624252952"><ele>210.39999999999998</ele><time>2026-04-11T12:33:30.999Z</time></trkpt><trkpt lat="44.96084399593178" lon="8.094329952161742"><ele>211.2</ele><time>2026-04-11T12:33:32.999Z</time></trkpt><trkpt lat="44.96076722390601" lon="8.094455595060676"><ele>212.0</ele><time>2026-04-11T12:33:34.999Z</time></trkpt><trkpt lat="44.96068322737557" lon="8.094558584355033"><ele>212.0</ele><time>2026-04-11T12:33:36.999Z</time></trkpt><trkpt lat="44.96060680330939" lon="8.094658875808285"><ele>212.0</ele><time>2026-04-11T12:33:38.999Z</time></trkpt><trkpt lat="44.96053621319998" lon="8.094776590026111"><ele>212.0</ele><time>2026-04-11T12:33:40.999Z</time></trkpt><trkpt lat="44.96046213743686" lon="8.094872392223396"><ele>212.0</ele><time>2026-04-11T12:33:42.999Z</time></trkpt><trkpt lat="44.96041653554813" lon="8.095022610168627"><ele>212.0</ele><time>2026-04-11T12:33:44.999Z</time></trkpt><trkpt lat="44.960354568998795" lon="8.095164378372482"><ele>212.0</ele><time>2026-04-11T12:33:46.999Z</time></trkpt><trkpt lat="44.960332616818235" lon="8.095292602228884"><ele>212.0</ele><time>2026-04-11T12:33:48.999Z</time></trkpt><trkpt lat="44.96029651008899" lon="8.095447872585407"><ele>212.0</ele><time>2026-04-11T12:33:50.999Z</time></trkpt><trkpt lat="44.96024553923366" lon="8.095572225486043"><ele>212.0</ele><time>2026-04-11T12:33:52.999Z</time></trkpt><trkpt lat="44.960186052433585" lon="8.095708675050513"><ele>212.0</ele><time>2026-04-11T12:33:54.999Z</time></trkpt><trkpt lat="44.96011867472969" lon="8.095835756485934"><ele>211.6</ele><time>2026-04-11T12:33:56.999Z</time></trkpt><trkpt lat="44.9600361112362" lon="8.095987506044446"><ele>211.2</ele><time>2026-04-11T12:33:58.999Z</time></trkpt><trkpt lat="44.959968287508545" lon="8.09612473988039"><ele>210.8</ele><time>2026-04-11T12:34:00.999Z</time></trkpt><trkpt lat="44.959886384334965" lon="8.09625891038742"><ele>210.4</ele><time>2026-04-11T12:34:02.999Z</time></trkpt><trkpt lat="44.95985197316056" lon="8.096333443393084"><ele>210.0</ele><time>2026-04-11T12:34:03.999Z</time></trkpt><trkpt lat="44.95978505179978" lon="8.0964720523492"><ele>210.0</ele><time>2026-04-11T12:34:05.999Z</time></trkpt><trkpt lat="44.95973959232168" lon="8.096533994458346"><ele>210.0</ele><time>2026-04-11T12:34:06.999Z</time></trkpt><trkpt lat="44.959653170793466" lon="8.096688987380828"><ele>210.0</ele><time>2026-04-11T12:34:08.999Z</time></trkpt><trkpt lat="44.95957406080897" lon="8.096809822967149"><ele>210.0</ele><time>2026-04-11T12:34:10.999Z</time></trkpt><trkpt lat="44.95952167101855" lon="8.096860135006247"><ele>210.0</ele><time>2026-04-11T12:34:11.999Z</time></trkpt><trkpt lat="44.95946639910564" lon="8.096927304907215"><ele>210.0</ele><time>2026-04-11T12:34:12.999Z</time></trkpt><trkpt lat="44.95938901072406" lon="8.097056860233554"><ele>210.0</ele><time>2026-04-11T12:34:14.999Z</time></trkpt><trkpt lat="44.95929235678488" lon="8.097188145833895"><ele>210.0</ele><time>2026-04-11T12:34:16.999Z</time></trkpt><trkpt lat="44.95925223530673" lon="8.097257742405603"><ele>210.0</ele><time>2026-04-11T12:34:17.999Z</time></trkpt><trkpt lat="44.95919721869904" lon="8.09733893883292"><ele>210.0</ele><time>2026-04-11T12:34:18.999Z</time></trkpt><trkpt lat="44.95913108715869" lon="8.097469999611786"><ele>210.0</ele><time>2026-04-11T12:34:20.999Z</time></trkpt><trkpt lat="44.95906611615631" lon="8.097638263461118"><ele>210.0</ele><time>2026-04-11T12:34:22.999Z</time></trkpt><trkpt lat="44.959025865242744" lon="8.09771760660971"><ele>210.0</ele><time>2026-04-11T12:34:23.999Z</time></trkpt><trkpt lat="44.958948116272026" lon="8.097853657522107"><ele>210.0</ele><time>2026-04-11T12:34:25.999Z</time></trkpt><trkpt lat="44.958904303645085" lon="8.097932229103389"><ele>210.0</ele><time>2026-04-11T12:34:26.999Z</time></trkpt><trkpt lat="44.958829649105695" lon="8.098043067874512"><ele>210.0</ele><time>2026-04-11T12:34:28.999Z</time></trkpt><trkpt lat="44.95875017809704" lon="8.098182411526274"><ele>210.0</ele><time>2026-04-11T12:34:30.999Z</time></trkpt><trkpt lat="44.958713430276816" lon="8.098262691399803"><ele>210.0</ele><time>2026-04-11T12:34:31.999Z</time></trkpt><trkpt lat="44.958640788997904" lon="8.098413121110045"><ele>210.0</ele><time>2026-04-11T12:34:33.999Z</time></trkpt><trkpt lat="44.958570371772815" lon="8.098541522775275"><ele>210.0</ele><time>2026-04-11T12:34:35.999Z</time></trkpt><trkpt lat="44.958514483252145" lon="8.098681995915268"><ele>210.2</ele><time>2026-04-11T12:34:38Z</time></trkpt><trkpt lat="44.95846438810758" lon="8.098824735454428"><ele>210.4</ele><time>2026-04-11T12:34:40Z</time></trkpt><trkpt lat="44.958430054842665" lon="8.09891964885665"><ele>210.60000000000002</ele><time>2026-04-11T12:34:42Z</time></trkpt><trkpt lat="44.95839377415652" lon="8.099057885008024"><ele>210.8</ele><time>2026-04-11T12:34:44Z</time></trkpt><trkpt lat="44.95834973009288" lon="8.099180301274952"><ele>211.0</ele><time>2026-04-11T12:34:46Z</time></trkpt><trkpt lat="44.95833022476864" lon="8.099267581999861"><ele>210.20000000000002</ele><time>2026-04-11T12:34:47Z</time></trkpt><trkpt lat="44.958291719325075" lon="8.099410987014098"><ele>209.4</ele><time>2026-04-11T12:34:49Z</time></trkpt><trkpt lat="44.958283837222716" lon="8.099509538899184"><ele>208.6</ele><time>2026-04-11T12:34:50Z</time></trkpt><trkpt lat="44.958228396432524" lon="8.099667128398751"><ele>207.8</ele><time>2026-04-11T12:34:52Z</time></trkpt><trkpt lat="44.95817539730497" lon="8.099802747560567"><ele>207.0</ele><time>2026-04-11T12:34:54Z</time></trkpt><trkpt lat="44.95813130024115" lon="8.09992762226027"><ele>207.0</ele><time>2026-04-11T12:34:56Z</time></trkpt><trkpt lat="44.95809095397861" lon="8.100062765440045"><ele>207.0</ele><time>2026-04-11T12:34:58Z</time></trkpt><trkpt lat="44.95805589646325" lon="8.100196946921912"><ele>207.0</ele><time>2026-04-11T12:35:00Z</time></trkpt><trkpt lat="44.958039357914764" lon="8.100320756951465"><ele>207.0</ele><time>2026-04-11T12:35:02Z</time></trkpt><trkpt lat="44.95803108744817" lon="8.100443852978684"><ele>207.0</ele><time>2026-04-11T12:35:04Z</time></trkpt><trkpt lat="44.95803297105876" lon="8.100614775031282"><ele>207.0</ele><time>2026-04-11T12:35:06Z</time></trkpt><trkpt lat="44.95803182151623" lon="8.100713342227136"><ele>207.0</ele><time>2026-04-11T12:35:07Z</time></trkpt><trkpt lat="44.95803448498932" lon="8.100862640936384"><ele>207.0</ele><time>2026-04-11T12:35:09Z</time></trkpt><trkpt lat="44.95803295624714" lon="8.100957170260425"><ele>207.0</ele><time>2026-04-11T12:35:10Z</time></trkpt><trkpt lat="44.95800973291459" lon="8.101097959992165"><ele>207.0</ele><time>2026-04-11T12:35:12Z</time></trkpt><trkpt lat="44.957959506526386" lon="8.101251604913294"><ele>207.39999999999998</ele><time>2026-04-11T12:35:14Z</time></trkpt><trkpt lat="44.957925627289605" lon="8.10138072301506"><ele>207.79999999999998</ele><time>2026-04-11T12:35:16Z</time></trkpt><trkpt lat="44.957923288634795" lon="8.101549933340698"><ele>208.2</ele><time>2026-04-11T12:35:18Z</time></trkpt><trkpt lat="44.95792295766904" lon="8.101727011997689"><ele>208.6</ele><time>2026-04-11T12:35:20Z</time></trkpt><trkpt lat="44.957927768428" lon="8.101873594239054"><ele>209.0</ele><time>2026-04-11T12:35:22Z</time></trkpt><trkpt lat="44.957874101519124" lon="8.102004552900706"><ele>209.0</ele><time>2026-04-11T12:35:24Z</time></trkpt><trkpt lat="44.957833048613146" lon="8.102143448395552"><ele>209.0</ele><time>2026-04-11T12:35:26Z</time></trkpt><trkpt lat="44.95779107145755" lon="8.10227937632726"><ele>209.0</ele><time>2026-04-11T12:35:28Z</time></trkpt><trkpt lat="44.95774878155516" lon="8.102428800641702"><ele>209.0</ele><time>2026-04-11T12:35:30Z</time></trkpt><trkpt lat="44.95771573721282" lon="8.102509949791216"><ele>209.0</ele><time>2026-04-11T12:35:31Z</time></trkpt><trkpt lat="44.957677553787065" lon="8.102650419823558"><ele>208.0</ele><time>2026-04-11T12:35:33Z</time></trkpt><trkpt lat="44.957626481139485" lon="8.102793917644119"><ele>207.0</ele><time>2026-04-11T12:35:34.999Z</time></trkpt><trkpt lat="44.95754333896947" lon="8.102896821321913"><ele>206.0</ele><time>2026-04-11T12:35:36.999Z</time></trkpt><trkpt lat="44.957501787796055" lon="8.103026613396416"><ele>205.0</ele><time>2026-04-11T12:35:38.999Z</time></trkpt><trkpt lat="44.95745302494471" lon="8.103176879558792"><ele>204.0</ele><time>2026-04-11T12:35:40.999Z</time></trkpt><trkpt lat="44.957416584938336" lon="8.103304027600023"><ele>203.79999999999998</ele><time>2026-04-11T12:35:42.999Z</time></trkpt><trkpt lat="44.95737010879696" lon="8.103431731054876"><ele>203.6</ele><time>2026-04-11T12:35:44.999Z</time></trkpt><trkpt lat="44.957286245873846" lon="8.103527336808453"><ele>203.4</ele><time>2026-04-11T12:35:46.999Z</time></trkpt><trkpt lat="44.957204880598255" lon="8.103611688303104"><ele>203.2</ele><time>2026-04-11T12:35:48.999Z</time></trkpt><trkpt lat="44.95709023554625" lon="8.103715296156158"><ele>203.0</ele><time>2026-04-11T12:35:50.999Z</time></trkpt><trkpt lat="44.9569990728732" lon="8.103836483551042"><ele>203.00000000000003</ele><time>2026-04-11T12:35:52.999Z</time></trkpt><trkpt lat="44.95694926052449" lon="8.10390098535567"><ele>203.0</ele><time>2026-04-11T12:35:53.999Z</time></trkpt><trkpt lat="44.95685941154883" lon="8.104020210119637"><ele>203.0</ele><time>2026-04-11T12:35:55.999Z</time></trkpt><trkpt lat="44.95681086614184" lon="8.10408113491332"><ele>203.0</ele><time>2026-04-11T12:35:56.999Z</time></trkpt><trkpt lat="44.95676045514214" lon="8.104144390596083"><ele>203.00000000000003</ele><time>2026-04-11T12:35:57.999Z</time></trkpt><trkpt lat="44.95671095086948" lon="8.10420754358085"><ele>203.0</ele><time>2026-04-11T12:35:58.999Z</time></trkpt><trkpt lat="44.956660289011154" lon="8.104268647440923"><ele>202.50000000000003</ele><time>2026-04-11T12:35:59.999Z</time></trkpt><trkpt lat="44.956610306157906" lon="8.104329245459455"><ele>202.0</ele><time>2026-04-11T12:36:00.999Z</time></trkpt><trkpt lat="44.95656414956319" lon="8.104404831725814"><ele>201.5</ele><time>2026-04-11T12:36:01.999Z</time></trkpt><trkpt lat="44.95647275828514" lon="8.104531857889476"><ele>201.0</ele><time>2026-04-11T12:36:03.999Z</time></trkpt><trkpt lat="44.956422288810096" lon="8.104589708252805"><ele>200.50000000000003</ele><time>2026-04-11T12:36:04.999Z</time></trkpt><trkpt lat="44.95636929159261" lon="8.104645575842332"><ele>200.0</ele><time>2026-04-11T12:36:05.999Z</time></trkpt><trkpt lat="44.95632755602141" lon="8.104716044483864"><ele>200.00000000000003</ele><time>2026-04-11T12:36:06.999Z</time></trkpt><trkpt lat="44.956279308303756" lon="8.10478028901868"><ele>200.0</ele><time>2026-04-11T12:36:07.999Z</time></trkpt><trkpt lat="44.956231940791056" lon="8.104850000653387"><ele>200.0</ele><time>2026-04-11T12:36:08.999Z</time></trkpt><trkpt lat="44.95614709761342" lon="8.104990676301712"><ele>200.0</ele><time>2026-04-11T12:36:10.999Z</time></trkpt><trkpt lat="44.95610830507434" lon="8.10506665030111"><ele>200.00000000000003</ele><time>2026-04-11T12:36:11.999Z</time></trkpt><trkpt lat="44.956053825192484" lon="8.105205737668953"><ele>200.0</ele><time>2026-04-11T12:36:13.999Z</time></trkpt><trkpt lat="44.95601985668278" lon="8.105281471850216"><ele>199.6</ele><time>2026-04-11T12:36:14.999Z</time></trkpt><trkpt lat="44.955984224481384" lon="8.105355094777087"><ele>199.2</ele><time>2026-04-11T12:36:15.999Z</time></trkpt><trkpt lat="44.95594175897299" lon="8.10551642524686"><ele>198.8</ele><time>2026-04-11T12:36:17.999Z</time></trkpt><trkpt lat="44.95590286091732" lon="8.105664823843977"><ele>198.4</ele><time>2026-04-11T12:36:19.999Z</time></trkpt><trkpt lat="44.955864103102584" lon="8.10581740868498"><ele>198.0</ele><time>2026-04-11T12:36:21.999Z</time></trkpt><trkpt lat="44.95582725093173" lon="8.105990280268168"><ele>198.0</ele><time>2026-04-11T12:36:23.999Z</time></trkpt><trkpt lat="44.95580166565393" lon="8.106106005624682"><ele>198.0</ele><time>2026-04-11T12:36:25.999Z</time></trkpt><trkpt lat="44.955801323964025" lon="8.106210884516733"><ele>198.0</ele><time>2026-04-11T12:36:26.999Z</time></trkpt><trkpt lat="44.955789788754146" lon="8.106301784091979"><ele>198.0</ele><time>2026-04-11T12:36:27.999Z</time></trkpt><trkpt lat="44.955776567998434" lon="8.106451000823402"><ele>198.0</ele><time>2026-04-11T12:36:29.999Z</time></trkpt><trkpt lat="44.955769190864565" lon="8.10660767588968"><ele>198.0</ele><time>2026-04-11T12:36:31.999Z</time></trkpt><trkpt lat="44.955788491736804" lon="8.10673099110052"><ele>198.0</ele><time>2026-04-11T12:36:33.999Z</time></trkpt><trkpt lat="44.95582911505809" lon="8.10685422264364"><ele>198.0</ele><time>2026-04-11T12:36:35.999Z</time></trkpt><trkpt lat="44.95587997822127" lon="8.106938508269963"><ele>198.0</ele><time>2026-04-11T12:36:37.999Z</time></trkpt><trkpt lat="44.955934295114005" lon="8.107019107852953"><ele>198.0</ele><time>2026-04-11T12:36:39.999Z</time></trkpt><trkpt lat="44.95597436047471" lon="8.107101139830316"><ele>198.0</ele><time>2026-04-11T12:36:41.999Z</time></trkpt><trkpt lat="44.955975361218115" lon="8.107201117583365"><ele>198.0</ele><time>2026-04-11T12:36:45Z</time></trkpt><trkpt lat="44.955918038373476" lon="8.107282091257048"><ele>198.0</ele><time>2026-04-11T12:36:48Z</time></trkpt><trkpt lat="44.95583299832616" lon="8.107336899363366"><ele>198.0</ele><time>2026-04-11T12:36:51Z</time></trkpt><trkpt lat="44.95576508628806" lon="8.107376864938905"><ele>198.0</ele><time>2026-04-11T12:36:53Z</time></trkpt><trkpt lat="44.95570035779858" lon="8.107421223938443"><ele>198.0</ele><time>2026-04-11T12:36:55Z</time></trkpt><trkpt lat="44.95563992722379" lon="8.107471638666166"><ele>198.0</ele><time>2026-04-11T12:36:57Z</time></trkpt><trkpt lat="44.95557436091152" lon="8.107528746832271"><ele>198.0</ele><time>2026-04-11T12:36:59Z</time></trkpt><trkpt lat="44.95551594667458" lon="8.107610479965336"><ele>198.0</ele><time>2026-04-11T12:37:01Z</time></trkpt><trkpt lat="44.95545786799146" lon="8.107660561007382"><ele>198.0</ele><time>2026-04-11T12:37:03Z</time></trkpt><trkpt lat="44.95537539761777" lon="8.107691426012716"><ele>198.0</ele><time>2026-04-11T12:37:05Z</time></trkpt><trkpt lat="44.95527891248128" lon="8.107707330847042"><ele>198.0</ele><time>2026-04-11T12:37:07Z</time></trkpt><trkpt lat="44.95519267418133" lon="8.107769219492479"><ele>198.0</ele><time>2026-04-11T12:37:09Z</time></trkpt><trkpt lat="44.95512011895834" lon="8.107818098631252"><ele>198.0</ele><time>2026-04-11T12:37:11Z</time></trkpt><trkpt lat="44.95503174752022" lon="8.107832214415877"><ele>198.0</ele><time>2026-04-11T12:37:13Z</time></trkpt><trkpt lat="44.954938588979246" lon="8.107909182751326"><ele>198.0</ele><time>2026-04-11T12:37:15Z</time></trkpt><trkpt lat="44.95484947108283" lon="8.10799420981529"><ele>198.0</ele><time>2026-04-11T12:37:17Z</time></trkpt><trkpt lat="44.95478596816314" lon="8.108028366472428"><ele>198.0</ele><time>2026-04-11T12:37:18Z</time></trkpt><trkpt lat="44.954731310055514" lon="8.108075216130324"><ele>198.0</ele><time>2026-04-11T12:37:19Z</time></trkpt><trkpt lat="44.95462107382823" lon="8.108150155473862"><ele>198.0</ele><time>2026-04-11T12:37:21Z</time></trkpt><trkpt lat="44.95452721497843" lon="8.10821072608232"><ele>198.0</ele><time>2026-04-11T12:37:23Z</time></trkpt><trkpt lat="44.954461876987814" lon="8.108252194286377"><ele>198.0</ele><time>2026-04-11T12:37:24Z</time></trkpt><trkpt lat="44.954391510039216" lon="8.108296610968699"><ele>198.0</ele><time>2026-04-11T12:37:25Z</time></trkpt><trkpt lat="44.95432645463003" lon="8.108334233479196"><ele>198.0</ele><time>2026-04-11T12:37:26Z</time></trkpt><trkpt lat="44.954243729567956" lon="8.108411925904237"><ele>198.0</ele><time>2026-04-11T12:37:28Z</time></trkpt><trkpt lat="44.95415938405258" lon="8.108489161955475"><ele>198.2</ele><time>2026-04-11T12:37:30Z</time></trkpt><trkpt lat="44.95408574444789" lon="8.10857356691202"><ele>198.4</ele><time>2026-04-11T12:37:32Z</time></trkpt><trkpt lat="44.95404028931648" lon="8.108657415547416"><ele>198.6</ele><time>2026-04-11T12:37:34Z</time></trkpt><trkpt lat="44.953979637195246" lon="8.108761846915499"><ele>198.79999999999998</ele><time>2026-04-11T12:37:36Z</time></trkpt><trkpt lat="44.95394309951877" lon="8.108881162947108"><ele>199.0</ele><time>2026-04-11T12:37:38Z</time></trkpt><trkpt lat="44.95385676097806" lon="8.108944366531617"><ele>199.0</ele><time>2026-04-11T12:37:40Z</time></trkpt><trkpt lat="44.953765613630104" lon="8.109027206937766"><ele>199.0</ele><time>2026-04-11T12:37:41.999Z</time></trkpt><trkpt lat="44.95370740797655" lon="8.109065686674034"><ele>199.0</ele><time>2026-04-11T12:37:42.999Z</time></trkpt><trkpt lat="44.95359751424435" lon="8.109155778481004"><ele>199.0</ele><time>2026-04-11T12:37:44.999Z</time></trkpt><trkpt lat="44.95354297124794" lon="8.109201055932877"><ele>199.0</ele><time>2026-04-11T12:37:45.999Z</time></trkpt><trkpt lat="44.95341450616487" lon="8.109291955853514"><ele>198.85714285714283</ele><time>2026-04-11T12:37:47.999Z</time></trkpt><trkpt lat="44.9533514205662" lon="8.109334516093343"><ele>198.71428571428572</ele><time>2026-04-11T12:37:48.999Z</time></trkpt><trkpt lat="44.95327944350507" lon="8.109387650808886"><ele>198.57142857142856</ele><time>2026-04-11T12:37:49.999Z</time></trkpt><trkpt lat="44.953216678435716" lon="8.10943271015135"><ele>198.42857142857142</ele><time>2026-04-11T12:37:50.999Z</time></trkpt><trkpt lat="44.953154235721584" lon="8.109481652733459"><ele>198.28571428571428</ele><time>2026-04-11T12:37:51.999Z</time></trkpt><trkpt lat="44.95309883104361" lon="8.109527058931391"><ele>198.14285714285714</ele><time>2026-04-11T12:37:52.999Z</time></trkpt><trkpt lat="44.95303890841355" lon="8.10957200519261"><ele>198.0</ele><time>2026-04-11T12:37:53.999Z</time></trkpt><trkpt lat="44.952982628895924" lon="8.109619266285492"><ele>198.0</ele><time>2026-04-11T12:37:54.999Z</time></trkpt><trkpt lat="44.95291986147776" lon="8.109665950394305"><ele>198.0</ele><time>2026-04-11T12:37:55.999Z</time></trkpt><trkpt lat="44.95280879777949" lon="8.1097285490685"><ele>198.0</ele><time>2026-04-11T12:37:57.999Z</time></trkpt><trkpt lat="44.95274780475614" lon="8.10975806033681"><ele>198.0</ele><time>2026-04-11T12:37:58.999Z</time></trkpt><trkpt lat="44.95264687625827" lon="8.109790287162044"><ele>198.0</ele><time>2026-04-11T12:38:00.999Z</time></trkpt><trkpt lat="44.952518245125695" lon="8.109784088198914"><ele>197.33333333333334</ele><time>2026-04-11T12:38:02.999Z</time></trkpt><trkpt lat="44.952415275332925" lon="8.109830274086619"><ele>196.66666666666669</ele><time>2026-04-11T12:38:04.999Z</time></trkpt><trkpt lat="44.95233793539884" lon="8.109837415844146"><ele>196.0</ele><time>2026-04-11T12:38:05.999Z</time></trkpt><trkpt lat="44.952234077868944" lon="8.10986273466858"><ele>195.33333333333334</ele><time>2026-04-11T12:38:07.999Z</time></trkpt><trkpt lat="44.952163956547665" lon="8.109893773238424"><ele>194.66666666666669</ele><time>2026-04-11T12:38:08.999Z</time></trkpt><trkpt lat="44.95208420855069" lon="8.10990447888443"><ele>194.0</ele><time>2026-04-11T12:38:09.999Z</time></trkpt><trkpt lat="44.95202022548154" lon="8.109925905434377"><ele>194.6</ele><time>2026-04-11T12:38:10.999Z</time></trkpt><trkpt lat="44.951956927807764" lon="8.109954436348776"><ele>195.2</ele><time>2026-04-11T12:38:11.999Z</time></trkpt><trkpt lat="44.951843508762884" lon="8.110041599251486"><ele>195.79999999999998</ele><time>2026-04-11T12:38:13.999Z</time></trkpt><trkpt lat="44.95175308280808" lon="8.110132201985232"><ele>196.39999999999998</ele><time>2026-04-11T12:38:15.999Z</time></trkpt><trkpt lat="44.951665211036456" lon="8.110214327933761"><ele>197.0</ele><time>2026-04-11T12:38:17.999Z</time></trkpt><trkpt lat="44.951577805472446" lon="8.110309254432282"><ele>197.0</ele><time>2026-04-11T12:38:19.999Z</time></trkpt><trkpt lat="44.95152452817622" lon="8.110358001153593"><ele>197.0</ele><time>2026-04-11T12:38:20.999Z</time></trkpt><trkpt lat="44.95142476331851" lon="8.110444237717086"><ele>197.0</ele><time>2026-04-11T12:38:22.999Z</time></trkpt><trkpt lat="44.95137106211515" lon="8.110496666441264"><ele>197.0</ele><time>2026-04-11T12:38:23.999Z</time></trkpt><trkpt lat="44.951320143742564" lon="8.11054917855589"><ele>197.0</ele><time>2026-04-11T12:38:24.999Z</time></trkpt><trkpt lat="44.95126475059101" lon="8.110600443893784"><ele>197.0</ele><time>2026-04-11T12:38:25.999Z</time></trkpt><trkpt lat="44.95121015860108" lon="8.11064815816384"><ele>197.0</ele><time>2026-04-11T12:38:26.999Z</time></trkpt><trkpt lat="44.95110831040968" lon="8.110749588244282"><ele>196.6</ele><time>2026-04-11T12:38:28.999Z</time></trkpt><trkpt lat="44.95101083910555" lon="8.11083907348107"><ele>196.2</ele><time>2026-04-11T12:38:30.999Z</time></trkpt><trkpt lat="44.95092569933381" lon="8.110916150003057"><ele>195.8</ele><time>2026-04-11T12:38:32.999Z</time></trkpt><trkpt lat="44.950845868199906" lon="8.111006942643323"><ele>195.4</ele><time>2026-04-11T12:38:34.999Z</time></trkpt><trkpt lat="44.95080175945989" lon="8.111121636129077"><ele>195.0</ele><time>2026-04-11T12:38:36.999Z</time></trkpt><trkpt lat="44.95085534813741" lon="8.111258535305893"><ele>196.6</ele><time>2026-04-11T12:38:38.999Z</time></trkpt><trkpt lat="44.95092531959093" lon="8.111379484397228"><ele>198.2</ele><time>2026-04-11T12:38:40.999Z</time></trkpt><trkpt lat="44.950989054873716" lon="8.111496118577785"><ele>199.8</ele><time>2026-04-11T12:38:42.999Z</time></trkpt><trkpt lat="44.951062993833965" lon="8.111612718370464"><ele>201.4</ele><time>2026-04-11T12:38:44.999Z</time></trkpt><trkpt lat="44.951118597697196" lon="8.111717054253855"><ele>203.0</ele><time>2026-04-11T12:38:46.999Z</time></trkpt><trkpt lat="44.95115629194784" lon="8.111820429905292"><ele>203.83333333333334</ele><time>2026-04-11T12:38:49Z</time></trkpt><trkpt lat="44.95121643368495" lon="8.11189790694195"><ele>204.66666666666669</ele><time>2026-04-11T12:38:51Z</time></trkpt><trkpt lat="44.95125659421912" lon="8.111977088615168"><ele>205.5</ele><time>2026-04-11T12:38:53Z</time></trkpt><trkpt lat="44.95130265184942" lon="8.112061348792599"><ele>206.33333333333331</ele><time>2026-04-11T12:38:55Z</time></trkpt><trkpt lat="44.951345689004256" lon="8.112142438603083"><ele>207.16666666666666</ele><time>2026-04-11T12:38:57Z</time></trkpt><trkpt lat="44.9513915274812" lon="8.11224280433056"><ele>208.0</ele><time>2026-04-11T12:38:59Z</time></trkpt><trkpt lat="44.95143191574118" lon="8.112326086627753"><ele>206.99999999999997</ele><time>2026-04-11T12:39:01Z</time></trkpt><trkpt lat="44.95145764048351" lon="8.112412383940459"><ele>206.0</ele><time>2026-04-11T12:39:03Z</time></trkpt><trkpt lat="44.95150865274662" lon="8.112517200409808"><ele>205.0</ele><time>2026-04-11T12:39:05Z</time></trkpt><trkpt lat="44.9515567778093" lon="8.112610618328532"><ele>204.0</ele><time>2026-04-11T12:39:07Z</time></trkpt><trkpt lat="44.95160456710531" lon="8.112705239231037"><ele>202.99999999999997</ele><time>2026-04-11T12:39:09Z</time></trkpt><trkpt lat="44.95164623075088" lon="8.112808696881961"><ele>202.0</ele><time>2026-04-11T12:39:11Z</time></trkpt><trkpt lat="44.95171088742151" lon="8.11291128504831"><ele>204.8</ele><time>2026-04-11T12:39:13Z</time></trkpt><trkpt lat="44.95175577927689" lon="8.113010721766768"><ele>207.6</ele><time>2026-04-11T12:39:15Z</time></trkpt><trkpt lat="44.951814478066865" lon="8.113119211362829"><ele>210.40000000000003</ele><time>2026-04-11T12:39:17Z</time></trkpt><trkpt lat="44.95186342722957" lon="8.113234110314753"><ele>213.20000000000002</ele><time>2026-04-11T12:39:19Z</time></trkpt><trkpt lat="44.95192925174204" lon="8.113343404439423"><ele>216.0</ele><time>2026-04-11T12:39:21Z</time></trkpt><trkpt lat="44.95200123309222" lon="8.113465044925235"><ele>216.0</ele><time>2026-04-11T12:39:23Z</time></trkpt><trkpt lat="44.95208184600879" lon="8.11357370440816"><ele>216.00000000000003</ele><time>2026-04-11T12:39:25Z</time></trkpt><trkpt lat="44.95209196078556" lon="8.113664662933918"><ele>216.00000000000003</ele><time>2026-04-11T12:39:26Z</time></trkpt><trkpt lat="44.95217301081259" lon="8.113757020490688"><ele>216.0</ele><time>2026-04-11T12:39:28Z</time></trkpt><trkpt lat="44.95223212580345" lon="8.113848362868032"><ele>216.0</ele><time>2026-04-11T12:39:30Z</time></trkpt><trkpt lat="44.95229518324133" lon="8.113946499969838"><ele>216.0</ele><time>2026-04-11T12:39:32Z</time></trkpt><trkpt lat="44.95235658680652" lon="8.114027430826962"><ele>216.0</ele><time>2026-04-11T12:39:34Z</time></trkpt><trkpt lat="44.952399778044224" lon="8.114134569221818"><ele>216.0</ele><time>2026-04-11T12:39:36Z</time></trkpt><trkpt lat="44.95245351718105" lon="8.114232031407369"><ele>216.0</ele><time>2026-04-11T12:39:38Z</time></trkpt><trkpt lat="44.952484034545805" lon="8.114350811344009"><ele>216.0</ele><time>2026-04-11T12:39:40Z</time></trkpt><trkpt lat="44.95252458010009" lon="8.114434004129015"><ele>216.0</ele><time>2026-04-11T12:39:42Z</time></trkpt><trkpt lat="44.95256800612457" lon="8.11454179396472"><ele>216.83333333333334</ele><time>2026-04-11T12:39:44Z</time></trkpt><trkpt lat="44.952603215831516" lon="8.114633092229102"><ele>217.66666666666669</ele><time>2026-04-11T12:39:46Z</time></trkpt><trkpt lat="44.95264919308424" lon="8.114753554507734"><ele>218.5</ele><time>2026-04-11T12:39:48Z</time></trkpt><trkpt lat="44.95268600902421" lon="8.114840367680602"><ele>219.33333333333334</ele><time>2026-04-11T12:39:49.999Z</time></trkpt><trkpt lat="44.952733143987004" lon="8.114970767666579"><ele>220.16666666666669</ele><time>2026-04-11T12:39:51.999Z</time></trkpt><trkpt lat="44.95276729121749" lon="8.115106559433404"><ele>221.0</ele><time>2026-04-11T12:39:53.999Z</time></trkpt><trkpt lat="44.9527952020474" lon="8.115217680881448"><ele>219.16666666666669</ele><time>2026-04-11T12:39:55.999Z</time></trkpt><trkpt lat="44.95281683216454" lon="8.115345318904511"><ele>217.33333333333334</ele><time>2026-04-11T12:39:57.999Z</time></trkpt><trkpt lat="44.95282971769479" lon="8.115445967890775"><ele>215.5</ele><time>2026-04-11T12:39:59.999Z</time></trkpt><trkpt lat="44.952835475989424" lon="8.115567419770404"><ele>213.66666666666669</ele><time>2026-04-11T12:40:01.999Z</time></trkpt><trkpt lat="44.95282156270333" lon="8.11568119803795"><ele>211.83333333333334</ele><time>2026-04-11T12:40:03.999Z</time></trkpt><trkpt lat="44.95281276931279" lon="8.115773750364994"><ele>210.0</ele><time>2026-04-11T12:40:05.999Z</time></trkpt><trkpt lat="44.95278732925278" lon="8.115873615072363"><ele>209.83333333333334</ele><time>2026-04-11T12:40:08.999Z</time></trkpt><trkpt lat="44.952794785699425" lon="8.116007724547993"><ele>209.66666666666669</ele><time>2026-04-11T12:40:10.999Z</time></trkpt><trkpt lat="44.952796521547775" lon="8.116129655321615"><ele>209.5</ele><time>2026-04-11T12:40:12.999Z</time></trkpt><trkpt lat="44.952815379266006" lon="8.116244716173687"><ele>209.33333333333334</ele><time>2026-04-11T12:40:14.999Z</time></trkpt><trkpt lat="44.95287757613152" lon="8.11635735878035"><ele>209.16666666666669</ele><time>2026-04-11T12:40:16.999Z</time></trkpt><trkpt lat="44.95288988794742" lon="8.116468934546049"><ele>209.0</ele><time>2026-04-11T12:40:18.999Z</time></trkpt><trkpt lat="44.95288232409268" lon="8.116575816312606"><ele>211.50000000000003</ele><time>2026-04-11T12:40:20.999Z</time></trkpt><trkpt lat="44.95288685304401" lon="8.116696648458326"><ele>214.0</ele><time>2026-04-11T12:40:23.999Z</time></trkpt><trkpt lat="44.95287116752658" lon="8.116791785043006"><ele>216.5</ele><time>2026-04-11T12:40:25.999Z</time></trkpt><trkpt lat="44.95285288118293" lon="8.11691539447543"><ele>219.0</ele><time>2026-04-11T12:40:27.999Z</time></trkpt><trkpt lat="44.952848695018396" lon="8.117006210341135"><ele>221.50000000000003</ele><time>2026-04-11T12:40:29.999Z</time></trkpt><trkpt lat="44.9528216871099" lon="8.117125147308881"><ele>224.0</ele><time>2026-04-11T12:40:31.999Z</time></trkpt><trkpt lat="44.9528144049997" lon="8.117221648358328"><ele>224.0</ele><time>2026-04-11T12:40:33.999Z</time></trkpt><trkpt lat="44.95279238533867" lon="8.117310661886751"><ele>224.0</ele><time>2026-04-11T12:40:36.999Z</time></trkpt><trkpt lat="44.952779633631884" lon="8.117401337360672"><ele>224.0</ele><time>2026-04-11T12:40:38.999Z</time></trkpt><trkpt lat="44.95279071114871" lon="8.117506949879678"><ele>224.0</ele><time>2026-04-11T12:40:41.999Z</time></trkpt><trkpt lat="44.95277999929166" lon="8.11760774589951"><ele>224.0</ele><time>2026-04-11T12:40:44.999Z</time></trkpt><trkpt lat="44.95277373320203" lon="8.117697679538841"><ele>224.0</ele><time>2026-04-11T12:40:46.999Z</time></trkpt><trkpt lat="44.95278140278521" lon="8.11779378983182"><ele>224.0</ele><time>2026-04-11T12:40:49.999Z</time></trkpt><trkpt lat="44.95279013566287" lon="8.117907327979614"><ele>224.66666666666669</ele><time>2026-04-11T12:40:52.999Z</time></trkpt><trkpt lat="44.952805994644606" lon="8.117995193794622"><ele>225.33333333333334</ele><time>2026-04-11T12:40:55Z</time></trkpt><trkpt lat="44.95284283712146" lon="8.118106744962393"><ele>226.0</ele><time>2026-04-11T12:40:58Z</time></trkpt><trkpt lat="44.952874394637" lon="8.118218027522834"><ele>226.66666666666669</ele><time>2026-04-11T12:41:01Z</time></trkpt><trkpt lat="44.952930708675304" lon="8.118288197647187"><ele>227.33333333333334</ele><time>2026-04-11T12:41:03Z</time></trkpt><trkpt lat="44.95296723456654" lon="8.118363591135896"><ele>228.0</ele><time>2026-04-11T12:41:05Z</time></trkpt><trkpt lat="44.95302246660615" lon="8.118469672264215"><ele>228.66666666666666</ele><time>2026-04-11T12:41:08Z</time></trkpt><trkpt lat="44.95305443098319" lon="8.118581558239939"><ele>229.33333333333331</ele><time>2026-04-11T12:41:11Z</time></trkpt><trkpt lat="44.953104520120874" lon="8.118686208434683"><ele>230.0</ele><time>2026-04-11T12:41:14Z</time></trkpt><trkpt lat="44.95312823175525" lon="8.118769963390967"><ele>230.66666666666666</ele><time>2026-04-11T12:41:16Z</time></trkpt><trkpt lat="44.95316844393567" lon="8.118883465897644"><ele>231.33333333333331</ele><time>2026-04-11T12:41:19Z</time></trkpt><trkpt lat="44.95320242288316" lon="8.118964473195586"><ele>232.0</ele><time>2026-04-11T12:41:21Z</time></trkpt><trkpt lat="44.95323575755899" lon="8.119045373542363"><ele>231.42857142857144</ele><time>2026-04-11T12:41:23Z</time></trkpt><trkpt lat="44.95331155077528" lon="8.11911794319228"><ele>230.85714285714286</ele><time>2026-04-11T12:41:26Z</time></trkpt><trkpt lat="44.95334923588788" lon="8.119192181528696"><ele>230.28571428571428</ele><time>2026-04-11T12:41:28Z</time></trkpt><trkpt lat="44.953395838298114" lon="8.119258300616902"><ele>229.71428571428572</ele><time>2026-04-11T12:41:30Z</time></trkpt><trkpt lat="44.95345086014855" lon="8.11933101278163"><ele>229.1428571428571</ele><time>2026-04-11T12:41:32Z</time></trkpt><trkpt lat="44.95349877716595" lon="8.1193897784593"><ele>228.57142857142856</ele><time>2026-04-11T12:41:34Z</time></trkpt><trkpt lat="44.953568038965344" lon="8.11944437543372"><ele>228.0</ele><time>2026-04-11T12:41:37Z</time></trkpt><trkpt lat="44.95363586148861" lon="8.119466574755467"><ele>228.0</ele><time>2026-04-11T12:41:39Z</time></trkpt><trkpt lat="44.95381424053191" lon="8.119471617351355"><ele>228.0</ele><time>2026-04-11T12:41:45Z</time></trkpt><trkpt lat="44.953775027460196" lon="8.119542045726986"><ele>228.0</ele><time>2026-04-11T12:41:50Z</time></trkpt><trkpt lat="44.953691898234254" lon="8.119617102918843"><ele>228.0</ele><time>2026-04-11T12:41:53Z</time></trkpt><trkpt lat="44.9536303272503" lon="8.119686478984192"><ele>228.0</ele><time>2026-04-11T12:41:55.999Z</time></trkpt><trkpt lat="44.95355374530829" lon="8.119752356995688"><ele>228.0</ele><time>2026-04-11T12:41:58.999Z</time></trkpt><trkpt lat="44.95348347227837" lon="8.119805482788964"><ele>228.0</ele><time>2026-04-11T12:42:01.999Z</time></trkpt><trkpt lat="44.95340338541857" lon="8.1198515792708"><ele>228.0</ele><time>2026-04-11T12:42:04.999Z</time></trkpt><trkpt lat="44.953316128437336" lon="8.11986240018274"><ele>228.0</ele><time>2026-04-11T12:42:07.999Z</time></trkpt><trkpt lat="44.9532370470237" lon="8.119846481888484"><ele>228.0</ele><time>2026-04-11T12:42:10.999Z</time></trkpt><trkpt lat="44.953174012809" lon="8.119832291646945"><ele>228.0</ele><time>2026-04-11T12:42:13.999Z</time></trkpt><trkpt lat="44.95311105587278" lon="8.11982175703604"><ele>228.0</ele><time>2026-04-11T12:42:15.999Z</time></trkpt><trkpt lat="44.95303218852421" lon="8.119800356713373"><ele>228.0</ele><time>2026-04-11T12:42:18.999Z</time></trkpt><trkpt lat="44.9529781146092" lon="8.119746614712005"><ele>228.0</ele><time>2026-04-11T12:42:21.999Z</time></trkpt><trkpt lat="44.95290680514593" lon="8.119703170336976"><ele>228.0</ele><time>2026-04-11T12:42:23.999Z</time></trkpt><trkpt lat="44.95282666425302" lon="8.119674003324956"><ele>228.0</ele><time>2026-04-11T12:42:25.999Z</time></trkpt><trkpt lat="44.9527712958434" lon="8.119594337522477"><ele>228.0</ele><time>2026-04-11T12:42:28.999Z</time></trkpt><trkpt lat="44.952726320620975" lon="8.11953012298481"><ele>228.0</ele><time>2026-04-11T12:42:30.999Z</time></trkpt><trkpt lat="44.95268119772562" lon="8.119454257566229"><ele>228.0</ele><time>2026-04-11T12:42:32.999Z</time></trkpt><trkpt lat="44.95261985105643" lon="8.119406542359638"><ele>228.0</ele><time>2026-04-11T12:42:34.999Z</time></trkpt><trkpt lat="44.95252549230948" lon="8.11939822812999"><ele>228.0</ele><time>2026-04-11T12:42:37.999Z</time></trkpt><trkpt lat="44.95245714856883" lon="8.11940472426117"><ele>228.0</ele><time>2026-04-11T12:42:39.999Z</time></trkpt><trkpt lat="44.952385875693935" lon="8.11944301196942"><ele>228.0</ele><time>2026-04-11T12:42:42.999Z</time></trkpt><trkpt lat="44.95232649686307" lon="8.11952876403848"><ele>228.7142857142857</ele><time>2026-04-11T12:42:46.999Z</time></trkpt><trkpt lat="44.95229380475048" lon="8.119610319486373"><ele>229.4285714285714</ele><time>2026-04-11T12:42:50.999Z</time></trkpt><trkpt lat="44.95228356855668" lon="8.119708588329146"><ele>230.14285714285714</ele><time>2026-04-11T12:43:03Z</time></trkpt><trkpt lat="44.952261467672194" lon="8.119803707635809"><ele>230.85714285714283</ele><time>2026-04-11T12:43:09Z</time></trkpt><trkpt lat="44.952229767691186" lon="8.11988199193305"><ele>231.57142857142856</ele><time>2026-04-11T12:43:15Z</time></trkpt><trkpt lat="44.9522155128086" lon="8.119972995750523"><ele>232.28571428571428</ele><time>2026-04-11T12:43:21Z</time></trkpt><trkpt lat="44.95221243963887" lon="8.120073845381205"><ele>233.0</ele><time>2026-04-11T12:43:26Z</time></trkpt><trkpt lat="44.95220325863799" lon="8.120163174255513"><ele>233.50000000000003</ele><time>2026-04-11T12:43:32Z</time></trkpt><trkpt lat="44.95220230832539" lon="8.120279438887238"><ele>234.0</ele><time>2026-04-11T12:43:43Z</time></trkpt><trkpt lat="44.952190763944" lon="8.120370401806788"><ele>234.5</ele><time>2026-04-11T12:43:46Z</time></trkpt><trkpt lat="44.952194653508606" lon="8.12049916727581"><ele>235.0</ele><time>2026-04-11T12:43:49Z</time></trkpt><trkpt lat="44.95219161163526" lon="8.120588872677061"><ele>235.50000000000003</ele><time>2026-04-11T12:43:51Z</time></trkpt><trkpt lat="44.95217726735101" lon="8.120689846358427"><ele>236.0</ele><time>2026-04-11T12:43:53Z</time></trkpt><trkpt lat="44.95216754860578" lon="8.120808508713381"><ele>236.0</ele><time>2026-04-11T12:43:56Z</time></trkpt><trkpt lat="44.952146532656506" lon="8.120904206956938"><ele>236.0</ele><time>2026-04-11T12:43:58.999Z</time></trkpt><trkpt lat="44.95211903786582" lon="8.121016295627005"><ele>236.0</ele><time>2026-04-11T12:44:02.999Z</time></trkpt><trkpt lat="44.952087374305506" lon="8.121095853853705"><ele>236.0</ele><time>2026-04-11T12:44:06.999Z</time></trkpt><trkpt lat="44.95204204845168" lon="8.12116301134988"><ele>236.0</ele><time>2026-04-11T12:44:10.999Z</time></trkpt><trkpt lat="44.952000640557245" lon="8.121254905387692"><ele>236.0</ele><time>2026-04-11T12:44:14.999Z</time></trkpt><trkpt lat="44.951952366980265" lon="8.121342513401304"><ele>236.0</ele><time>2026-04-11T12:44:19.999Z</time></trkpt><trkpt lat="44.95191087682756" lon="8.121413274193886"><ele>236.00000000000003</ele><time>2026-04-11T12:44:22.999Z</time></trkpt><trkpt lat="44.951859740559385" lon="8.12150317657916"><ele>236.0</ele><time>2026-04-11T12:44:27.999Z</time></trkpt><trkpt lat="44.95182646390547" lon="8.12158575069205"><ele>236.0</ele><time>2026-04-11T12:44:32.999Z</time></trkpt><trkpt lat="44.9517664349163" lon="8.121662370859598"><ele>236.0</ele><time>2026-04-11T12:45:50Z</time></trkpt><trkpt lat="44.9517145835909" lon="8.12172449774378"><ele>236.00000000000003</ele><time>2026-04-11T12:45:53Z</time></trkpt><trkpt lat="44.95164248583255" lon="8.121790116362464"><ele>236.0</ele><time>2026-04-11T12:45:56Z</time></trkpt><trkpt lat="44.95158556998888" lon="8.121841370136975"><ele>237.16666666666669</ele><time>2026-04-11T12:45:58Z</time></trkpt><trkpt lat="44.951522009415456" lon="8.12186761239741"><ele>238.33333333333334</ele><time>2026-04-11T12:46:00Z</time></trkpt><trkpt lat="44.95143191339511" lon="8.121894173939095"><ele>239.5</ele><time>2026-04-11T12:46:03Z</time></trkpt><trkpt lat="44.95134641731016" lon="8.121903668197014"><ele>240.66666666666669</ele><time>2026-04-11T12:46:06Z</time></trkpt><trkpt lat="44.951280104596506" lon="8.121890844920832"><ele>241.83333333333334</ele><time>2026-04-11T12:46:07.999Z</time></trkpt><trkpt lat="44.95121116336758" lon="8.121874949282057"><ele>243.0</ele><time>2026-04-11T12:46:10.999Z</time></trkpt><trkpt lat="44.951127869224024" lon="8.121871066463617"><ele>243.0</ele><time>2026-04-11T12:46:13.999Z</time></trkpt><trkpt lat="44.9510844921429" lon="8.121796430554326"><ele>243.0</ele><time>2026-04-11T12:46:16.999Z</time></trkpt><trkpt lat="44.95105191982785" lon="8.121696264872048"><ele>243.0</ele><time>2026-04-11T12:46:19.999Z</time></trkpt><trkpt lat="44.95099793350139" lon="8.121644322390077"><ele>243.0</ele><time>2026-04-11T12:46:22.999Z</time></trkpt><trkpt lat="44.950935768676835" lon="8.121572622393439"><ele>243.0</ele><time>2026-04-11T12:46:25.999Z</time></trkpt><trkpt lat="44.95086409214944" lon="8.121524086771833"><ele>243.0</ele><time>2026-04-11T12:46:29.999Z</time></trkpt><trkpt lat="44.95082963293735" lon="8.121414129567011"><ele>244.83333333333334</ele><time>2026-04-11T12:46:32.999Z</time></trkpt><trkpt lat="44.95081529428435" lon="8.121308923627451"><ele>246.66666666666669</ele><time>2026-04-11T12:46:36.999Z</time></trkpt><trkpt lat="44.95076431977548" lon="8.121203853946636"><ele>248.5</ele><time>2026-04-11T12:46:40.999Z</time></trkpt><trkpt lat="44.95074508330476" lon="8.121098174768713"><ele>250.33333333333334</ele><time>2026-04-11T12:46:43.999Z</time></trkpt><trkpt lat="44.950725541302354" lon="8.120997780092067"><ele>252.16666666666669</ele><time>2026-04-11T12:46:47.999Z</time></trkpt><trkpt lat="44.950755542593086" lon="8.120904212997297"><ele>254.0</ele><time>2026-04-11T12:46:51.999Z</time></trkpt><trkpt lat="44.95076330664194" lon="8.120796592172663"><ele>252.16666666666669</ele><time>2026-04-11T12:46:55.999Z</time></trkpt><trkpt lat="44.95074852741333" lon="8.120694077944986"><ele>250.33333333333334</ele><time>2026-04-11T12:46:58.999Z</time></trkpt><trkpt lat="44.95071023329998" lon="8.120598415587054"><ele>248.5</ele><time>2026-04-11T12:47:01.999Z</time></trkpt><trkpt lat="44.95065997627245" lon="8.120512930294485"><ele>246.66666666666669</ele><time>2026-04-11T12:47:04.999Z</time></trkpt><trkpt lat="44.95059117129844" lon="8.120442054592523"><ele>244.83333333333334</ele><time>2026-04-11T12:47:07.999Z</time></trkpt><trkpt lat="44.95053306038829" lon="8.120381235974092"><ele>243.0</ele><time>2026-04-11T12:47:10.999Z</time></trkpt><trkpt lat="44.95046291583891" lon="8.120345415862673"><ele>243.0</ele><time>2026-04-11T12:47:14Z</time></trkpt><trkpt lat="44.950378029793974" lon="8.120340681039487"><ele>243.0</ele><time>2026-04-11T12:47:17Z</time></trkpt><trkpt lat="44.950279466218326" lon="8.120368872901391"><ele>243.0</ele><time>2026-04-11T12:47:20Z</time></trkpt><trkpt lat="44.950234743522564" lon="8.120294210063186"><ele>243.0</ele><time>2026-04-11T12:47:22Z</time></trkpt><trkpt lat="44.95019578492746" lon="8.120219083998036"><ele>243.0</ele><time>2026-04-11T12:47:24Z</time></trkpt><trkpt lat="44.950166585556154" lon="8.120139476221542"><ele>243.0</ele><time>2026-04-11T12:47:27Z</time></trkpt><trkpt lat="44.95010170788191" lon="8.120033533806124"><ele>243.0</ele><time>2026-04-11T12:47:31Z</time></trkpt><trkpt lat="44.95008143004219" lon="8.119944397952597"><ele>243.0</ele><time>2026-04-11T12:47:33Z</time></trkpt><trkpt lat="44.950021175313644" lon="8.119896665200601"><ele>243.0</ele><time>2026-04-11T12:47:37Z</time></trkpt><trkpt lat="44.94995528910437" lon="8.11995219433532"><ele>243.0</ele><time>2026-04-11T12:47:42Z</time></trkpt><trkpt lat="44.94992980527336" lon="8.12003929514807"><ele>243.0</ele><time>2026-04-11T12:47:45Z</time></trkpt><trkpt lat="44.949920194150046" lon="8.120158829068995"><ele>243.0</ele><time>2026-04-11T12:47:51Z</time></trkpt><trkpt lat="44.94991743755212" lon="8.120262795577382"><ele>243.0</ele><time>2026-04-11T12:47:55Z</time></trkpt><trkpt lat="44.94990021754262" lon="8.120372818489436"><ele>245.8</ele><time>2026-04-11T12:47:59Z</time></trkpt><trkpt lat="44.949874502419114" lon="8.120482370642922"><ele>248.60000000000002</ele><time>2026-04-11T12:48:04Z</time></trkpt><trkpt lat="44.94983945147693" lon="8.120570794746692"><ele>251.39999999999998</ele><time>2026-04-11T12:48:08Z</time></trkpt><trkpt lat="44.94980092264639" lon="8.120678787144286"><ele>254.2</ele><time>2026-04-11T12:48:11.999Z</time></trkpt><trkpt lat="44.949712631073126" lon="8.120796131466001"><ele>257.0</ele><time>2026-04-11T12:48:15.999Z</time></trkpt><trkpt lat="44.949648413506644" lon="8.120885869825841"><ele>258.5</ele><time>2026-04-11T12:48:17.999Z</time></trkpt><trkpt lat="44.949581256270406" lon="8.120950624585358"><ele>260.0</ele><time>2026-04-11T12:48:19.999Z</time></trkpt><trkpt lat="44.949520254572676" lon="8.121030729869355"><ele>261.5</ele><time>2026-04-11T12:48:21.999Z</time></trkpt><trkpt lat="44.94945811818674" lon="8.12113104972212"><ele>263.0</ele><time>2026-04-11T12:48:23.999Z</time></trkpt><trkpt lat="44.94937467459721" lon="8.12122037390216"><ele>264.5</ele><time>2026-04-11T12:48:25.999Z</time></trkpt><trkpt lat="44.949321253664216" lon="8.12130545680808"><ele>266.0</ele><time>2026-04-11T12:48:27.999Z</time></trkpt><trkpt lat="44.94928193857919" lon="8.121383416171906"><ele>266.0</ele><time>2026-04-11T12:48:29.999Z</time></trkpt><trkpt lat="44.949214553454524" lon="8.121457214591164"><ele>266.0</ele><time>2026-04-11T12:48:31.999Z</time></trkpt><trkpt lat="44.949140408226796" lon="8.121534227724311"><ele>266.0</ele><time>2026-04-11T12:48:33.999Z</time></trkpt><trkpt lat="44.94906679631975" lon="8.12160204159204"><ele>266.0</ele><time>2026-04-11T12:48:35.999Z</time></trkpt><trkpt lat="44.94897101702166" lon="8.121694198554017"><ele>266.0</ele><time>2026-04-11T12:48:37.999Z</time></trkpt><trkpt lat="44.948863747395826" lon="8.121770459363656"><ele>265.40000000000003</ele><time>2026-04-11T12:48:39.999Z</time></trkpt><trkpt lat="44.948796477830236" lon="8.121791446551073"><ele>264.8</ele><time>2026-04-11T12:48:40.999Z</time></trkpt><trkpt lat="44.94870151912525" lon="8.121866739846121"><ele>264.20000000000005</ele><time>2026-04-11T12:48:42.999Z</time></trkpt><trkpt lat="44.94861874326342" lon="8.121907754696132"><ele>263.6</ele><time>2026-04-11T12:48:44.999Z</time></trkpt><trkpt lat="44.94853306701466" lon="8.122005063273049"><ele>263.0</ele><time>2026-04-11T12:48:46.999Z</time></trkpt><trkpt lat="44.9484482460423" lon="8.122102364254856"><ele>262.4</ele><time>2026-04-11T12:48:48.999Z</time></trkpt><trkpt lat="44.9483693610059" lon="8.122178102723376"><ele>261.8</ele><time>2026-04-11T12:48:50.999Z</time></trkpt><trkpt lat="44.94828462090068" lon="8.122241051990942"><ele>261.2</ele><time>2026-04-11T12:48:52.999Z</time></trkpt><trkpt lat="44.948187887321964" lon="8.122319797126389"><ele>260.6</ele><time>2026-04-11T12:48:54.999Z</time></trkpt><trkpt lat="44.948111840457116" lon="8.122408974731673"><ele>260.0</ele><time>2026-04-11T12:48:56.999Z</time></trkpt><trkpt lat="44.94801491159089" lon="8.122470953265802"><ele>260.0</ele><time>2026-04-11T12:48:58.999Z</time></trkpt><trkpt lat="44.94791565879825" lon="8.122461925386526"><ele>260.0</ele><time>2026-04-11T12:49:00.999Z</time></trkpt><trkpt lat="44.947821729383" lon="8.122458479511701"><ele>260.0</ele><time>2026-04-11T12:49:02.999Z</time></trkpt><trkpt lat="44.94773338139185" lon="8.122434413582331"><ele>260.0</ele><time>2026-04-11T12:49:05.999Z</time></trkpt><trkpt lat="44.947662727467126" lon="8.122460823563863"><ele>260.0</ele><time>2026-04-11T12:49:07.999Z</time></trkpt><trkpt lat="44.947555379772204" lon="8.1224930508926"><ele>259.2</ele><time>2026-04-11T12:49:09.999Z</time></trkpt><trkpt lat="44.9474787128461" lon="8.12251098782146"><ele>258.4</ele><time>2026-04-11T12:49:11.999Z</time></trkpt><trkpt lat="44.94740995484435" lon="8.122529933335857"><ele>257.6</ele><time>2026-04-11T12:49:13.999Z</time></trkpt><trkpt lat="44.947349104923745" lon="8.122572047770847"><ele>256.8</ele><time>2026-04-11T12:49:15.999Z</time></trkpt><trkpt lat="44.947226822479315" lon="8.122627941340046"><ele>256.0</ele><time>2026-04-11T12:49:19Z</time></trkpt><trkpt lat="44.94710886202284" lon="8.122643075719026"><ele>256.0</ele><time>2026-04-11T12:49:21Z</time></trkpt><trkpt lat="44.94699549620437" lon="8.122637809867525"><ele>256.0</ele><time>2026-04-11T12:49:23Z</time></trkpt><trkpt lat="44.94688462820311" lon="8.122613604371603"><ele>256.0</ele><time>2026-04-11T12:49:25Z</time></trkpt><trkpt lat="44.94681932933969" lon="8.12259570110761"><ele>256.0</ele><time>2026-04-11T12:49:26Z</time></trkpt><trkpt lat="44.946692798456866" lon="8.12259082285385"><ele>256.0</ele><time>2026-04-11T12:49:28Z</time></trkpt><trkpt lat="44.94657691230384" lon="8.122597228803635"><ele>255.49999999999997</ele><time>2026-04-11T12:49:30Z</time></trkpt><trkpt lat="44.94647951249838" lon="8.12259201454524"><ele>255.0</ele><time>2026-04-11T12:49:32Z</time></trkpt><trkpt lat="44.94641353047041" lon="8.122568781256845"><ele>254.5</ele><time>2026-04-11T12:49:33Z</time></trkpt><trkpt lat="44.9463301859695" lon="8.122504631458444"><ele>254.0</ele><time>2026-04-11T12:49:35Z</time></trkpt><trkpt lat="44.946259061803445" lon="8.122559343006612"><ele>253.49999999999997</ele><time>2026-04-11T12:49:37Z</time></trkpt><trkpt lat="44.946179623600116" lon="8.122599664174263"><ele>253.0</ele><time>2026-04-11T12:49:39Z</time></trkpt><trkpt lat="44.94612252639495" lon="8.12266059312664"><ele>253.0</ele><time>2026-04-11T12:49:41Z</time></trkpt><trkpt lat="44.9460685420398" lon="8.122730412611407"><ele>253.0</ele><time>2026-04-11T12:49:43Z</time></trkpt><trkpt lat="44.9460547676653" lon="8.122875176882923"><ele>253.0</ele><time>2026-04-11T12:49:45Z</time></trkpt><trkpt lat="44.94603521464019" lon="8.123013800322449"><ele>253.0</ele><time>2026-04-11T12:49:47Z</time></trkpt><trkpt lat="44.94600644793729" lon="8.123095885358149"><ele>253.0</ele><time>2026-04-11T12:49:48Z</time></trkpt><trkpt lat="44.945943122814995" lon="8.123232010995652"><ele>253.0</ele><time>2026-04-11T12:49:50Z</time></trkpt><trkpt lat="44.945865167981914" lon="8.1233373618089"><ele>253.0</ele><time>2026-04-11T12:49:52Z</time></trkpt><trkpt lat="44.945813992544906" lon="8.123395295328798"><ele>253.0</ele><time>2026-04-11T12:49:53Z</time></trkpt><trkpt lat="44.945727834729915" lon="8.12352764721962"><ele>253.0</ele><time>2026-04-11T12:49:55Z</time></trkpt><trkpt lat="44.94565837589414" lon="8.123624830860475"><ele>253.0</ele><time>2026-04-11T12:49:57Z</time></trkpt><trkpt lat="44.945576994943" lon="8.123663930963652"><ele>252.99999999999997</ele><time>2026-04-11T12:49:59Z</time></trkpt><trkpt lat="44.945497710443526" lon="8.123696142922038"><ele>253.0</ele><time>2026-04-11T12:50:01Z</time></trkpt><trkpt lat="44.94541811919646" lon="8.12366625568451"><ele>253.0</ele><time>2026-04-11T12:50:03Z</time></trkpt><trkpt lat="44.945353738326055" lon="8.123591398009868"><ele>253.0</ele><time>2026-04-11T12:50:05Z</time></trkpt><trkpt lat="44.94528760988905" lon="8.123584410221028"><ele>252.99999999999997</ele><time>2026-04-11T12:50:06Z</time></trkpt><trkpt lat="44.9451801983458" lon="8.123570067190686"><ele>253.0</ele><time>2026-04-11T12:50:09Z</time></trkpt><trkpt lat="44.94508960100753" lon="8.123591790393988"><ele>252.2</ele><time>2026-04-11T12:50:11Z</time></trkpt><trkpt lat="44.94499237082612" lon="8.123625584581191"><ele>251.4</ele><time>2026-04-11T12:50:14Z</time></trkpt><trkpt lat="44.94491483682026" lon="8.123683539414982"><ele>250.59999999999997</ele><time>2026-04-11T12:50:15.999Z</time></trkpt><trkpt lat="44.944828548061295" lon="8.123739436995006"><ele>249.79999999999998</ele><time>2026-04-11T12:50:18.999Z</time></trkpt><trkpt lat="44.944748730746554" lon="8.123800764205008"><ele>249.0</ele><time>2026-04-11T12:50:20.999Z</time></trkpt><trkpt lat="44.944660212168536" lon="8.123833237611395"><ele>249.0</ele><time>2026-04-11T12:50:22.999Z</time></trkpt><trkpt lat="44.944585464900214" lon="8.12384770092723"><ele>249.0</ele><time>2026-04-11T12:50:24.999Z</time></trkpt><trkpt lat="44.9445053992835" lon="8.123867397226872"><ele>249.0</ele><time>2026-04-11T12:50:26.999Z</time></trkpt><trkpt lat="44.94442635529931" lon="8.123870502005724"><ele>249.0</ele><time>2026-04-11T12:50:28.999Z</time></trkpt><trkpt lat="44.94435486735408" lon="8.123875040542107"><ele>249.0</ele><time>2026-04-11T12:50:30.999Z</time></trkpt><trkpt lat="44.94428364865609" lon="8.123873580659904"><ele>249.0</ele><time>2026-04-11T12:50:32.999Z</time></trkpt><trkpt lat="44.94418460055718" lon="8.123899566142908"><ele>249.16666666666666</ele><time>2026-04-11T12:50:35.999Z</time></trkpt><trkpt lat="44.94411709696705" lon="8.123914533880873"><ele>249.33333333333331</ele><time>2026-04-11T12:50:37.999Z</time></trkpt><trkpt lat="44.94403959499127" lon="8.123940222933761"><ele>249.5</ele><time>2026-04-11T12:50:40.999Z</time></trkpt><trkpt lat="44.94395722177997" lon="8.123987650982015"><ele>249.66666666666666</ele><time>2026-04-11T12:50:43.999Z</time></trkpt><trkpt lat="44.94387217433505" lon="8.12400106121835"><ele>249.83333333333331</ele><time>2026-04-11T12:50:46.999Z</time></trkpt><trkpt lat="44.94379058290572" lon="8.12402803032284"><ele>250.0</ele><time>2026-04-11T12:50:49.999Z</time></trkpt><trkpt lat="44.943730298188896" lon="8.124055876445347"><ele>249.42857142857142</ele><time>2026-04-11T12:50:52.999Z</time></trkpt><trkpt lat="44.94365689868976" lon="8.124079582598169"><ele>248.8571428571429</ele><time>2026-04-11T12:50:55.999Z</time></trkpt><trkpt lat="44.943605052792854" lon="8.124149161806596"><ele>248.2857142857143</ele><time>2026-04-11T12:50:58.999Z</time></trkpt><trkpt lat="44.94353946452528" lon="8.12417747967975"><ele>247.71428571428572</ele><time>2026-04-11T12:51:01.999Z</time></trkpt><trkpt lat="44.94346366983066" lon="8.124199408114654"><ele>247.14285714285717</ele><time>2026-04-11T12:51:05.999Z</time></trkpt><trkpt lat="44.9433932492467" lon="8.12423925203204"><ele>246.5714285714286</ele><time>2026-04-11T12:51:09.999Z</time></trkpt><trkpt lat="44.94333468349809" lon="8.124292863732535"><ele>246.00000000000003</ele><time>2026-04-11T12:51:12.999Z</time></trkpt><trkpt lat="44.94327473585219" lon="8.124342116198683"><ele>247.28571428571433</ele><time>2026-04-11T12:51:15.999Z</time></trkpt><trkpt lat="44.94319774284246" lon="8.1243848951476"><ele>248.57142857142858</ele><time>2026-04-11T12:51:18.999Z</time></trkpt><trkpt lat="44.943144904000214" lon="8.124445517147594"><ele>249.8571428571429</ele><time>2026-04-11T12:51:20.999Z</time></trkpt><trkpt lat="44.94307052553751" lon="8.124497205370412"><ele>251.14285714285717</ele><time>2026-04-11T12:51:23.999Z</time></trkpt><trkpt lat="44.943006366896874" lon="8.124535176506809"><ele>252.42857142857144</ele><time>2026-04-11T12:51:26Z</time></trkpt><trkpt lat="44.94294458944114" lon="8.124577567325435"><ele>253.71428571428572</ele><time>2026-04-11T12:51:28Z</time></trkpt><trkpt lat="44.942873081290195" lon="8.124605135871999"><ele>255.0</ele><time>2026-04-11T12:51:31Z</time></trkpt><trkpt lat="44.942812304096414" lon="8.12464209255292"><ele>255.0</ele><time>2026-04-11T12:51:33Z</time></trkpt><trkpt lat="44.942754988535036" lon="8.124701601914792"><ele>255.0</ele><time>2026-04-11T12:51:35Z</time></trkpt><trkpt lat="44.94269473389895" lon="8.124766088873795"><ele>255.0</ele><time>2026-04-11T12:51:37Z</time></trkpt><trkpt lat="44.94264823194285" lon="8.12483632161091"><ele>255.0</ele><time>2026-04-11T12:51:39Z</time></trkpt><trkpt lat="44.94259005397788" lon="8.124917384787109"><ele>255.0</ele><time>2026-04-11T12:51:41Z</time></trkpt><trkpt lat="44.94252421245604" lon="8.12503046139942"><ele>255.0</ele><time>2026-04-11T12:51:43Z</time></trkpt><trkpt lat="44.942443951003966" lon="8.125151326585996"><ele>254.4</ele><time>2026-04-11T12:51:45Z</time></trkpt><trkpt lat="44.94235126850051" lon="8.125277673116075"><ele>253.8</ele><time>2026-04-11T12:51:47Z</time></trkpt><trkpt lat="44.94225023618755" lon="8.125392758508262"><ele>253.2</ele><time>2026-04-11T12:51:49Z</time></trkpt><trkpt lat="44.94218536684243" lon="8.125451085405304"><ele>252.6</ele><time>2026-04-11T12:51:50Z</time></trkpt><trkpt lat="44.94211856573322" lon="8.125505466556392"><ele>252.0</ele><time>2026-04-11T12:51:51Z</time></trkpt><trkpt lat="44.94200924409608" lon="8.125573020806089"><ele>252.0</ele><time>2026-04-11T12:51:53Z</time></trkpt><trkpt lat="44.94191737954122" lon="8.125647955517975"><ele>252.0</ele><time>2026-04-11T12:51:55Z</time></trkpt><trkpt lat="44.94185274571362" lon="8.125666408117908"><ele>252.0</ele><time>2026-04-11T12:51:56Z</time></trkpt><trkpt lat="44.941783218719415" lon="8.125723248683611"><ele>252.0</ele><time>2026-04-11T12:51:57Z</time></trkpt><trkpt lat="44.94169618001302" lon="8.125778985881272"><ele>252.0</ele><time>2026-04-11T12:51:58Z</time></trkpt><trkpt lat="44.94162394590645" lon="8.12581238038121"><ele>252.0</ele><time>2026-04-11T12:51:59Z</time></trkpt><trkpt lat="44.941548176912086" lon="8.125848088763773"><ele>252.2</ele><time>2026-04-11T12:52:00Z</time></trkpt><trkpt lat="44.94148058599288" lon="8.125876201351709"><ele>252.39999999999998</ele><time>2026-04-11T12:52:01Z</time></trkpt><trkpt lat="44.941359782621106" lon="8.125928197718265"><ele>252.60000000000002</ele><time>2026-04-11T12:52:03Z</time></trkpt><trkpt lat="44.94124918470291" lon="8.125985991095448"><ele>252.8</ele><time>2026-04-11T12:52:05Z</time></trkpt><trkpt lat="44.941149625703886" lon="8.126046240521877"><ele>253.0</ele><time>2026-04-11T12:52:07Z</time></trkpt><trkpt lat="44.94108568213566" lon="8.126075349600626"><ele>252.99999999999997</ele><time>2026-04-11T12:52:08Z</time></trkpt><trkpt lat="44.941019655103204" lon="8.126126913919084"><ele>253.0</ele><time>2026-04-11T12:52:10Z</time></trkpt><trkpt lat="44.94095207144418" lon="8.126129172290337"><ele>253.0</ele><time>2026-04-11T12:52:12Z</time></trkpt><trkpt lat="44.94086586345404" lon="8.126201931701486"><ele>253.0</ele><time>2026-04-11T12:52:14Z</time></trkpt><trkpt lat="44.94077543623446" lon="8.126237960071158"><ele>252.99999999999997</ele><time>2026-04-11T12:52:16Z</time></trkpt><trkpt lat="44.940716286729995" lon="8.12626966359511"><ele>253.0</ele><time>2026-04-11T12:52:18Z</time></trkpt><trkpt lat="44.94062667619959" lon="8.126332746704502"><ele>253.16666666666666</ele><time>2026-04-11T12:52:20.999Z</time></trkpt><trkpt lat="44.940558908318124" lon="8.126362775445557"><ele>253.33333333333331</ele><time>2026-04-11T12:52:22.999Z</time></trkpt><trkpt lat="44.94051262324137" lon="8.126425393677097"><ele>253.5</ele><time>2026-04-11T12:52:24.999Z</time></trkpt><trkpt lat="44.940454665369856" lon="8.126485855966356"><ele>253.66666666666669</ele><time>2026-04-11T12:52:26.999Z</time></trkpt><trkpt lat="44.940383517075404" lon="8.126571284406396"><ele>253.83333333333334</ele><time>2026-04-11T12:52:29.999Z</time></trkpt><trkpt lat="44.940337182143395" lon="8.126676377946914"><ele>254.0</ele><time>2026-04-11T12:52:32.999Z</time></trkpt><trkpt lat="44.94031752234086" lon="8.126808457433535"><ele>253.14285714285717</ele><time>2026-04-11T12:52:34.999Z</time></trkpt><trkpt lat="44.94029592825002" lon="8.126921683149403"><ele>252.28571428571428</ele><time>2026-04-11T12:52:36.999Z</time></trkpt><trkpt lat="44.94027229666204" lon="8.127013773632186"><ele>251.42857142857144</ele><time>2026-04-11T12:52:38.999Z</time></trkpt><trkpt lat="44.940232719344465" lon="8.127083202379485"><ele>250.57142857142858</ele><time>2026-04-11T12:52:40.999Z</time></trkpt><trkpt lat="44.94020749792349" lon="8.127168047033729"><ele>249.71428571428572</ele><time>2026-04-11T12:52:43.999Z</time></trkpt><trkpt lat="44.94016314417593" lon="8.127253571218136"><ele>248.85714285714286</ele><time>2026-04-11T12:52:46.999Z</time></trkpt><trkpt lat="44.940132585064156" lon="8.12735038524642"><ele>248.0</ele><time>2026-04-11T12:52:49.999Z</time></trkpt><trkpt lat="44.940099739280065" lon="8.127426723541955"><ele>248.66666666666669</ele><time>2026-04-11T12:52:54.999Z</time></trkpt><trkpt lat="44.94009091336378" lon="8.127523338593821"><ele>249.33333333333334</ele><time>2026-04-11T12:55:52Z</time></trkpt><trkpt lat="44.94014156921812" lon="8.12761269393703"><ele>250.0</ele><time>2026-04-11T12:56:10Z</time></trkpt><trkpt lat="44.94010846117832" lon="8.127532210448933"><ele>250.66666666666669</ele><time>2026-04-11T13:36:58.001Z</time></trkpt><trkpt lat="44.940103529006976" lon="8.127411153105134"><ele>251.33333333333334</ele><time>2026-04-11T13:37:06.001Z</time></trkpt><trkpt lat="44.94003957330303" lon="8.127494103730642"><ele>252.0</ele><time>2026-04-11T13:45:59Z</time></trkpt><trkpt lat="44.94004076511641" lon="8.12761074953691"><ele>252.0</ele><time>2026-04-11T13:46:04Z</time></trkpt><trkpt lat="44.93999047744204" lon="8.12766592052982"><ele>252.0</ele><time>2026-04-11T13:46:07Z</time></trkpt><trkpt lat="44.93995237436601" lon="8.12775993436091"><ele>252.0</ele><time>2026-04-11T13:46:11Z</time></trkpt><trkpt lat="44.939898915665545" lon="8.127835657221423"><ele>252.0</ele><time>2026-04-11T13:46:14Z</time></trkpt><trkpt lat="44.93985736389601" lon="8.127911499201828"><ele>252.0</ele><time>2026-04-11T13:46:17Z</time></trkpt><trkpt lat="44.9397986315349" lon="8.127944938398807"><ele>252.0</ele><time>2026-04-11T13:46:20Z</time></trkpt><trkpt lat="44.93974637875413" lon="8.128013798265671"><ele>252.0</ele><time>2026-04-11T13:46:24Z</time></trkpt><trkpt lat="44.93967659354855" lon="8.128076603476117"><ele>252.0</ele><time>2026-04-11T13:46:29Z</time></trkpt><trkpt lat="44.939639605791456" lon="8.12815521352643"><ele>252.0</ele><time>2026-04-11T13:46:32Z</time></trkpt><trkpt lat="44.9395987682006" lon="8.128226370428806"><ele>252.0</ele><time>2026-04-11T13:46:34Z</time></trkpt><trkpt lat="44.93954989759028" lon="8.128321326945901"><ele>252.0</ele><time>2026-04-11T13:46:36Z</time></trkpt><trkpt lat="44.93950966496023" lon="8.128422049518605"><ele>252.0</ele><time>2026-04-11T13:46:38Z</time></trkpt><trkpt lat="44.93947262332958" lon="8.128547777328382"><ele>252.0</ele><time>2026-04-11T13:46:40Z</time></trkpt><trkpt lat="44.939447215498525" lon="8.128644379653483"><ele>252.2</ele><time>2026-04-11T13:46:42Z</time></trkpt><trkpt lat="44.93939592374668" lon="8.128742273964406"><ele>252.39999999999998</ele><time>2026-04-11T13:46:44Z</time></trkpt><trkpt lat="44.93932292878679" lon="8.128829975530852"><ele>252.60000000000002</ele><time>2026-04-11T13:46:46Z</time></trkpt><trkpt lat="44.93923572148111" lon="8.128908144169815"><ele>252.8</ele><time>2026-04-11T13:46:48Z</time></trkpt><trkpt lat="44.93914321895569" lon="8.128967799214921"><ele>253.0</ele><time>2026-04-11T13:46:50Z</time></trkpt><trkpt lat="44.939057267257525" lon="8.129049438172087"><ele>252.60000000000002</ele><time>2026-04-11T13:46:52Z</time></trkpt><trkpt lat="44.93897178933673" lon="8.129131157125647"><ele>252.20000000000002</ele><time>2026-04-11T13:46:54Z</time></trkpt><trkpt lat="44.93888289247109" lon="8.129219194015622"><ele>251.8</ele><time>2026-04-11T13:46:56Z</time></trkpt><trkpt lat="44.938811660822815" lon="8.129315257677526"><ele>251.4</ele><time>2026-04-11T13:46:58Z</time></trkpt><trkpt lat="44.93873124498697" lon="8.129395535092332"><ele>251.0</ele><time>2026-04-11T13:47:00Z</time></trkpt><trkpt lat="44.93864822730236" lon="8.129490215054693"><ele>251.0</ele><time>2026-04-11T13:47:02Z</time></trkpt><trkpt lat="44.938570793672305" lon="8.129600944858167"><ele>251.00000000000003</ele><time>2026-04-11T13:47:04Z</time></trkpt><trkpt lat="44.93850677673333" lon="8.129718755215148"><ele>251.00000000000003</ele><time>2026-04-11T13:47:06Z</time></trkpt><trkpt lat="44.93847390142032" lon="8.129828696228339"><ele>251.0</ele><time>2026-04-11T13:47:08Z</time></trkpt><trkpt lat="44.93843053179849" lon="8.129955943478814"><ele>251.0</ele><time>2026-04-11T13:47:10Z</time></trkpt><trkpt lat="44.93839123086166" lon="8.13008879313937"><ele>251.33333333333334</ele><time>2026-04-11T13:47:12Z</time></trkpt><trkpt lat="44.938364735339924" lon="8.130208014931021"><ele>251.66666666666669</ele><time>2026-04-11T13:47:14Z</time></trkpt><trkpt lat="44.938332828681915" lon="8.130341306451225"><ele>252.0</ele><time>2026-04-11T13:47:16Z</time></trkpt><trkpt lat="44.93829855376823" lon="8.130440190715614"><ele>252.33333333333331</ele><time>2026-04-11T13:47:18Z</time></trkpt><trkpt lat="44.93826077855071" lon="8.1305332489369"><ele>252.66666666666666</ele><time>2026-04-11T13:47:20Z</time></trkpt><trkpt lat="44.93821577010849" lon="8.130606427414165"><ele>253.0</ele><time>2026-04-11T13:47:22Z</time></trkpt><trkpt lat="44.93814092440333" lon="8.130690117951904"><ele>253.2</ele><time>2026-04-11T13:47:25Z</time></trkpt><trkpt lat="44.938094596748726" lon="8.130763244081672"><ele>253.4</ele><time>2026-04-11T13:47:27Z</time></trkpt><trkpt lat="44.93805234059135" lon="8.130874575954547"><ele>253.59999999999997</ele><time>2026-04-11T13:47:29Z</time></trkpt><trkpt lat="44.93799400539019" lon="8.13097437049924"><ele>253.79999999999998</ele><time>2026-04-11T13:47:31Z</time></trkpt><trkpt lat="44.93793967414837" lon="8.131117863848822"><ele>254.0</ele><time>2026-04-11T13:47:33Z</time></trkpt><trkpt lat="44.93783941203751" lon="8.13149948584324"><ele>252.2</ele><time>2026-04-11T13:47:41Z</time></trkpt><trkpt lat="44.937794026305795" lon="8.13162370819729"><ele>250.39999999999998</ele><time>2026-04-11T13:47:42Z</time></trkpt><trkpt lat="44.9377684998893" lon="8.131717759764665"><ele>248.6</ele><time>2026-04-11T13:47:43Z</time></trkpt><trkpt lat="44.93774160687642" lon="8.131877650228857"><ele>246.8</ele><time>2026-04-11T13:47:45Z</time></trkpt><trkpt lat="44.93769658945228" lon="8.131953800502618"><ele>245.0</ele><time>2026-04-11T13:47:46Z</time></trkpt><trkpt lat="44.93764108234944" lon="8.132098037001326"><ele>245.00000000000003</ele><time>2026-04-11T13:47:48Z</time></trkpt><trkpt lat="44.937614360054965" lon="8.13218400971348"><ele>245.0</ele><time>2026-04-11T13:47:49Z</time></trkpt><trkpt lat="44.9375812569875" lon="8.132274456865598"><ele>245.0</ele><time>2026-04-11T13:47:50Z</time></trkpt><trkpt lat="44.937535998089196" lon="8.132373355471136"><ele>245.0</ele><time>2026-04-11T13:47:51Z</time></trkpt><trkpt lat="44.93748441228008" lon="8.132470959120694"><ele>245.00000000000003</ele><time>2026-04-11T13:47:52Z</time></trkpt><trkpt lat="44.93742307002338" lon="8.132561598086411"><ele>245.0</ele><time>2026-04-11T13:47:53Z</time></trkpt><trkpt lat="44.93737228767132" lon="8.13264558884718"><ele>244.8</ele><time>2026-04-11T13:47:54Z</time></trkpt><trkpt lat="44.93733811003095" lon="8.132747738910112"><ele>244.6</ele><time>2026-04-11T13:47:55Z</time></trkpt><trkpt lat="44.93731407563214" lon="8.132870186365519"><ele>244.39999999999998</ele><time>2026-04-11T13:47:56Z</time></trkpt><trkpt lat="44.937303749531495" lon="8.13300887089236"><ele>244.2</ele><time>2026-04-11T13:47:57Z</time></trkpt><trkpt lat="44.93729983258659" lon="8.133139134941493"><ele>244.0</ele><time>2026-04-11T13:47:58Z</time></trkpt><trkpt lat="44.93725849045814" lon="8.133254076691333"><ele>242.49999999999997</ele><time>2026-04-11T13:47:59Z</time></trkpt><trkpt lat="44.937217889539816" lon="8.13333234115623"><ele>241.0</ele><time>2026-04-11T13:48:00Z</time></trkpt><trkpt lat="44.93716969004647" lon="8.133410994384208"><ele>239.5</ele><time>2026-04-11T13:48:01Z</time></trkpt><trkpt lat="44.93707229445241" lon="8.133450121930148"><ele>238.0</ele><time>2026-04-11T13:48:02Z</time></trkpt><trkpt lat="44.937007229145884" lon="8.133528005252318"><ele>236.49999999999997</ele><time>2026-04-11T13:48:03Z</time></trkpt><trkpt lat="44.936931922600955" lon="8.13358950612841"><ele>235.0</ele><time>2026-04-11T13:48:04Z</time></trkpt><trkpt lat="44.936841987550615" lon="8.13365854982766"><ele>235.0</ele><time>2026-04-11T13:48:05Z</time></trkpt><trkpt lat="44.93675125320421" lon="8.133726269916021"><ele>235.0</ele><time>2026-04-11T13:48:06Z</time></trkpt><trkpt lat="44.93666324644377" lon="8.133787026560988"><ele>235.0</ele><time>2026-04-11T13:48:07Z</time></trkpt><trkpt lat="44.93657716572704" lon="8.133846177003706"><ele>235.0</ele><time>2026-04-11T13:48:08Z</time></trkpt><trkpt lat="44.93648177495561" lon="8.13389711636235"><ele>235.0</ele><time>2026-04-11T13:48:09Z</time></trkpt><trkpt lat="44.93637658285224" lon="8.133941135784426"><ele>234.0</ele><time>2026-04-11T13:48:10Z</time></trkpt><trkpt lat="44.936257872310755" lon="8.133971482034648"><ele>233.0</ele><time>2026-04-11T13:48:11Z</time></trkpt><trkpt lat="44.93614921800273" lon="8.134027106255052"><ele>232.0</ele><time>2026-04-11T13:48:12Z</time></trkpt><trkpt lat="44.936043321696054" lon="8.13410930167231"><ele>231.0</ele><time>2026-04-11T13:48:13Z</time></trkpt><trkpt lat="44.935952827145805" lon="8.134180818617828"><ele>230.8</ele><time>2026-04-11T13:48:14Z</time></trkpt><trkpt lat="44.93585317781316" lon="8.134248762132536"><ele>230.60000000000002</ele><time>2026-04-11T13:48:15Z</time></trkpt><trkpt lat="44.93575775963702" lon="8.134292503734335"><ele>230.4</ele><time>2026-04-11T13:48:16Z</time></trkpt><trkpt lat="44.93568330236633" lon="8.1343232157132"><ele>230.2</ele><time>2026-04-11T13:48:17Z</time></trkpt><trkpt lat="44.93554833873111" lon="8.134389316391136"><ele>230.0</ele><time>2026-04-11T13:48:19Z</time></trkpt><trkpt lat="44.935481081820406" lon="8.134410782646944"><ele>230.0</ele><time>2026-04-11T13:48:20Z</time></trkpt><trkpt lat="44.93536088891669" lon="8.134448346410842"><ele>230.0</ele><time>2026-04-11T13:48:22Z</time></trkpt><trkpt lat="44.93525066160099" lon="8.13449938726182"><ele>230.0</ele><time>2026-04-11T13:48:24Z</time></trkpt><trkpt lat="44.93513220290546" lon="8.13448014974776"><ele>230.0</ele><time>2026-04-11T13:48:26Z</time></trkpt><trkpt lat="44.93501982131765" lon="8.134418876724684"><ele>230.6</ele><time>2026-04-11T13:48:28Z</time></trkpt><trkpt lat="44.934955666138" lon="8.134377266224185"><ele>231.2</ele><time>2026-04-11T13:48:29Z</time></trkpt><trkpt lat="44.934843291746084" lon="8.134325678150994"><ele>231.8</ele><time>2026-04-11T13:48:31Z</time></trkpt><trkpt lat="44.93473161589626" lon="8.13430187062771"><ele>232.4</ele><time>2026-04-11T13:48:33Z</time></trkpt><trkpt lat="44.93461356738315" lon="8.134350920869753"><ele>233.0</ele><time>2026-04-11T13:48:35Z</time></trkpt><trkpt lat="44.93456140021823" lon="8.134404524954558"><ele>233.00000000000003</ele><time>2026-04-11T13:48:36Z</time></trkpt><trkpt lat="44.93447821023247" lon="8.134481999569536"><ele>233.0</ele><time>2026-04-11T13:48:38Z</time></trkpt><trkpt lat="44.93442732285703" lon="8.134541210525898"><ele>233.0</ele><time>2026-04-11T13:48:39Z</time></trkpt><trkpt lat="44.93435660746217" lon="8.134625164690288"><ele>233.0</ele><time>2026-04-11T13:48:42Z</time></trkpt><trkpt lat="44.93430227291733" lon="8.134721129145323"><ele>233.00000000000003</ele><time>2026-04-11T13:48:44Z</time></trkpt><trkpt lat="44.934239324615724" lon="8.134801410396255"><ele>233.0</ele><time>2026-04-11T13:48:46Z</time></trkpt><trkpt lat="44.93417481667636" lon="8.134878198888172"><ele>233.83333333333334</ele><time>2026-04-11T13:48:48Z</time></trkpt><trkpt lat="44.934120891263994" lon="8.134963530468069"><ele>234.66666666666669</ele><time>2026-04-11T13:48:50Z</time></trkpt><trkpt lat="44.93405676508301" lon="8.135044662569243"><ele>235.5</ele><time>2026-04-11T13:48:54Z</time></trkpt><trkpt lat="44.933989489935975" lon="8.135145118570602"><ele>236.33333333333331</ele><time>2026-04-11T13:48:56Z</time></trkpt><trkpt lat="44.933937524600836" lon="8.135235221762278"><ele>237.16666666666666</ele><time>2026-04-11T13:48:57Z</time></trkpt><trkpt lat="44.933898099623946" lon="8.135339923810006"><ele>238.0</ele><time>2026-04-11T13:48:58Z</time></trkpt><trkpt lat="44.933884917351406" lon="8.135455015582536"><ele>238.0</ele><time>2026-04-11T13:48:59Z</time></trkpt><trkpt lat="44.9338633629368" lon="8.135622324380849"><ele>238.0</ele><time>2026-04-11T13:49:01Z</time></trkpt><trkpt lat="44.93382901783109" lon="8.135761091892277"><ele>238.0</ele><time>2026-04-11T13:49:03Z</time></trkpt><trkpt lat="44.93379594747875" lon="8.135900733497333"><ele>238.0</ele><time>2026-04-11T13:49:05Z</time></trkpt><trkpt lat="44.933767530800466" lon="8.136047771288254"><ele>238.0</ele><time>2026-04-11T13:49:07Z</time></trkpt><trkpt lat="44.93375669211801" lon="8.136190668451688"><ele>236.83333333333331</ele><time>2026-04-11T13:49:09Z</time></trkpt><trkpt lat="44.93373863013471" lon="8.13634622658554"><ele>235.66666666666666</ele><time>2026-04-11T13:49:11Z</time></trkpt><trkpt lat="44.93375498075238" lon="8.136436947084466"><ele>234.5</ele><time>2026-04-11T13:49:12Z</time></trkpt><trkpt lat="44.93380659504245" lon="8.136525028042046"><ele>233.33333333333331</ele><time>2026-04-11T13:49:13Z</time></trkpt><trkpt lat="44.933831257457136" lon="8.136610355652348"><ele>232.16666666666666</ele><time>2026-04-11T13:49:14Z</time></trkpt><trkpt lat="44.93388028623922" lon="8.13668027311806"><ele>231.0</ele><time>2026-04-11T13:49:15Z</time></trkpt><trkpt lat="44.93390402856763" lon="8.136764009764931"><ele>230.85714285714286</ele><time>2026-04-11T13:49:16Z</time></trkpt><trkpt lat="44.93393312346173" lon="8.13685395751774"><ele>230.71428571428572</ele><time>2026-04-11T13:49:17Z</time></trkpt><trkpt lat="44.9339452174846" lon="8.136946030810439"><ele>230.57142857142856</ele><time>2026-04-11T13:49:18Z</time></trkpt><trkpt lat="44.933955056659926" lon="8.137041777617247"><ele>230.42857142857142</ele><time>2026-04-11T13:49:19Z</time></trkpt><trkpt lat="44.933961039941366" lon="8.137145061547928"><ele>230.28571428571428</ele><time>2026-04-11T13:49:20Z</time></trkpt><trkpt lat="44.93397960720852" lon="8.137236885138737"><ele>230.1428571428571</ele><time>2026-04-11T13:49:21Z</time></trkpt><trkpt lat="44.93401839014195" lon="8.137325580962019"><ele>229.99999999999997</ele><time>2026-04-11T13:49:22Z</time></trkpt><trkpt lat="44.93407842646678" lon="8.13739966585168"><ele>230.28571428571425</ele><time>2026-04-11T13:49:23Z</time></trkpt><trkpt lat="44.93413636846722" lon="8.13745704509911"><ele>230.57142857142856</ele><time>2026-04-11T13:49:24Z</time></trkpt><trkpt lat="44.93419922857902" lon="8.137510638565463"><ele>230.85714285714286</ele><time>2026-04-11T13:49:25Z</time></trkpt><trkpt lat="44.93425656556803" lon="8.13756957876337"><ele>231.14285714285714</ele><time>2026-04-11T13:49:26Z</time></trkpt><trkpt lat="44.93431619239265" lon="8.13762841911758"><ele>231.42857142857144</ele><time>2026-04-11T13:49:27Z</time></trkpt><trkpt lat="44.934366638418574" lon="8.137690878309368"><ele>231.71428571428575</ele><time>2026-04-11T13:49:28Z</time></trkpt><trkpt lat="44.9344083691814" lon="8.137772508266698"><ele>232.00000000000003</ele><time>2026-04-11T13:49:29Z</time></trkpt><trkpt lat="44.93443651228505" lon="8.137860689600311"><ele>229.99999999999997</ele><time>2026-04-11T13:49:30Z</time></trkpt><trkpt lat="44.934456337390635" lon="8.13795505000804"><ele>228.0</ele><time>2026-04-11T13:49:31Z</time></trkpt><trkpt lat="44.9344407146378" lon="8.138070065516303"><ele>226.0</ele><time>2026-04-11T13:49:32Z</time></trkpt><trkpt lat="44.93443492838053" lon="8.1381985585063"><ele>224.0</ele><time>2026-04-11T13:49:33Z</time></trkpt><trkpt lat="44.934442469307996" lon="8.138333173641163"><ele>221.99999999999997</ele><time>2026-04-11T13:49:34Z</time></trkpt><trkpt lat="44.934427715388125" lon="8.138467957911747"><ele>220.0</ele><time>2026-04-11T13:49:35Z</time></trkpt><trkpt lat="44.934436252496" lon="8.138599992001229"><ele>220.0</ele><time>2026-04-11T13:49:36Z</time></trkpt><trkpt lat="44.934453211674274" lon="8.138728047683063"><ele>220.0</ele><time>2026-04-11T13:49:37Z</time></trkpt><trkpt lat="44.93448001822798" lon="8.138845408075678"><ele>220.0</ele><time>2026-04-11T13:49:38Z</time></trkpt><trkpt lat="44.9345004842722" lon="8.138954181854364"><ele>220.0</ele><time>2026-04-11T13:49:39Z</time></trkpt><trkpt lat="44.9345215532452" lon="8.139065538581738"><ele>220.0</ele><time>2026-04-11T13:49:40Z</time></trkpt><trkpt lat="44.934537868630414" lon="8.139225576850054"><ele>220.8</ele><time>2026-04-11T13:49:42Z</time></trkpt><trkpt lat="44.9345603320597" lon="8.13939421986017"><ele>221.6</ele><time>2026-04-11T13:49:44Z</time></trkpt><trkpt lat="44.93459113139941" lon="8.139544274663885"><ele>222.39999999999998</ele><time>2026-04-11T13:49:46Z</time></trkpt><trkpt lat="44.9346027531125" lon="8.139664656817567"><ele>223.2</ele><time>2026-04-11T13:49:48Z</time></trkpt><trkpt lat="44.93460254050652" lon="8.139793607552543"><ele>224.0</ele><time>2026-04-11T13:49:50Z</time></trkpt><trkpt lat="44.93460365352426" lon="8.139927801216453"><ele>224.16666666666669</ele><time>2026-04-11T13:49:52Z</time></trkpt><trkpt lat="44.93460304537902" lon="8.140048387084542"><ele>224.33333333333334</ele><time>2026-04-11T13:49:54Z</time></trkpt><trkpt lat="44.93457740435742" lon="8.14013418547957"><ele>224.5</ele><time>2026-04-11T13:49:56Z</time></trkpt><trkpt lat="44.934563357714765" lon="8.140225739353005"><ele>224.66666666666669</ele><time>2026-04-11T13:49:58Z</time></trkpt><trkpt lat="44.93452718116439" lon="8.140356531702285"><ele>224.83333333333334</ele><time>2026-04-11T13:50:00Z</time></trkpt><trkpt lat="44.93445451893176" lon="8.140506425384668"><ele>225.0</ele><time>2026-04-11T13:50:02Z</time></trkpt><trkpt lat="44.93441820958416" lon="8.140579665594831"><ele>225.0</ele><time>2026-04-11T13:50:03Z</time></trkpt><trkpt lat="44.93437040272972" lon="8.140670989694044"><ele>225.0</ele><time>2026-04-11T13:50:04Z</time></trkpt><trkpt lat="44.93431866057777" lon="8.140764306787826"><ele>225.0</ele><time>2026-04-11T13:50:05Z</time></trkpt><trkpt lat="44.93426043949841" lon="8.140857921654545"><ele>225.0</ele><time>2026-04-11T13:50:06Z</time></trkpt><trkpt lat="44.934192616606204" lon="8.140952769635021"><ele>225.0</ele><time>2026-04-11T13:50:07Z</time></trkpt><trkpt lat="44.93411821459717" lon="8.141044560433185"><ele>225.0</ele><time>2026-04-11T13:50:08Z</time></trkpt><trkpt lat="44.93404467013061" lon="8.141127958154794"><ele>225.6</ele><time>2026-04-11T13:50:09Z</time></trkpt><trkpt lat="44.93396317094051" lon="8.141214588004171"><ele>226.2</ele><time>2026-04-11T13:50:10Z</time></trkpt><trkpt lat="44.93388887393903" lon="8.141294690235412"><ele>226.8</ele><time>2026-04-11T13:50:11Z</time></trkpt><trkpt lat="44.933831096092014" lon="8.14138025177436"><ele>227.4</ele><time>2026-04-11T13:50:12Z</time></trkpt><trkpt lat="44.933750631976864" lon="8.141470011622541"><ele>228.0</ele><time>2026-04-11T13:50:13Z</time></trkpt><trkpt lat="44.93367549147209" lon="8.141572839067612"><ele>226.60000000000002</ele><time>2026-04-11T13:50:14Z</time></trkpt><trkpt lat="44.93358320213686" lon="8.14167174643284"><ele>225.20000000000002</ele><time>2026-04-11T13:50:15Z</time></trkpt><trkpt lat="44.93350808730803" lon="8.141772854715002"><ele>223.8</ele><time>2026-04-11T13:50:16Z</time></trkpt><trkpt lat="44.93343293416246" lon="8.141881769252437"><ele>222.4</ele><time>2026-04-11T13:50:17Z</time></trkpt><trkpt lat="44.93336305226362" lon="8.141986196504405"><ele>221.0</ele><time>2026-04-11T13:50:18Z</time></trkpt><trkpt lat="44.933303740587434" lon="8.142096725793353"><ele>221.0</ele><time>2026-04-11T13:50:19Z</time></trkpt><trkpt lat="44.93329377997258" lon="8.142227289179052"><ele>221.00000000000003</ele><time>2026-04-11T13:50:20Z</time></trkpt><trkpt lat="44.933274098573136" lon="8.142342967213226"><ele>221.00000000000003</ele><time>2026-04-11T13:50:21Z</time></trkpt><trkpt lat="44.933226214450855" lon="8.142489977488166"><ele>221.0</ele><time>2026-04-11T13:50:22Z</time></trkpt><trkpt lat="44.93318396771267" lon="8.142632140969825"><ele>221.0</ele><time>2026-04-11T13:50:23Z</time></trkpt><trkpt lat="44.93312110585596" lon="8.142762386908304"><ele>220.33333333333334</ele><time>2026-04-11T13:50:24Z</time></trkpt><trkpt lat="44.93304617064632" lon="8.142859028187788"><ele>219.66666666666669</ele><time>2026-04-11T13:50:25Z</time></trkpt><trkpt lat="44.93298775696744" lon="8.142955727016192"><ele>219.0</ele><time>2026-04-11T13:50:26Z</time></trkpt><trkpt lat="44.93293806189149" lon="8.143037119114311"><ele>218.33333333333331</ele><time>2026-04-11T13:50:27Z</time></trkpt><trkpt lat="44.93288500164423" lon="8.143146247000486"><ele>217.66666666666666</ele><time>2026-04-11T13:50:28Z</time></trkpt><trkpt lat="44.93286293864914" lon="8.143254254666168"><ele>217.0</ele><time>2026-04-11T13:50:29Z</time></trkpt><trkpt lat="44.93282854225294" lon="8.143352125388448"><ele>216.39999999999998</ele><time>2026-04-11T13:50:30Z</time></trkpt><trkpt lat="44.932816364978876" lon="8.143467985998933"><ele>215.79999999999998</ele><time>2026-04-11T13:50:31Z</time></trkpt><trkpt lat="44.93277041854069" lon="8.143607972640531"><ele>215.2</ele><time>2026-04-11T13:50:32Z</time></trkpt><trkpt lat="44.93274810861252" lon="8.143727856388583"><ele>214.6</ele><time>2026-04-11T13:50:33Z</time></trkpt><trkpt lat="44.932698840950444" lon="8.143838657875056"><ele>214.0</ele><time>2026-04-11T13:50:34Z</time></trkpt><trkpt lat="44.93261950726146" lon="8.143930604291729"><ele>213.99999999999997</ele><time>2026-04-11T13:50:35Z</time></trkpt><trkpt lat="44.93257148112113" lon="8.144001757481458"><ele>214.0</ele><time>2026-04-11T13:50:36Z</time></trkpt><trkpt lat="44.932508428915085" lon="8.144069592163223"><ele>214.0</ele><time>2026-04-11T13:50:37Z</time></trkpt><trkpt lat="44.93245177057574" lon="8.144112277780605"><ele>214.0</ele><time>2026-04-11T13:50:38Z</time></trkpt><trkpt lat="44.93239091295558" lon="8.14419383297365"><ele>213.99999999999997</ele><time>2026-04-11T13:50:39Z</time></trkpt><trkpt lat="44.93233382230602" lon="8.144248537261973"><ele>214.0</ele><time>2026-04-11T13:50:40Z</time></trkpt><trkpt lat="44.93224053111703" lon="8.144309451348963"><ele>214.33333333333331</ele><time>2026-04-11T13:50:41Z</time></trkpt><trkpt lat="44.9321678182803" lon="8.14438536741388"><ele>214.66666666666666</ele><time>2026-04-11T13:50:42Z</time></trkpt><trkpt lat="44.93210093105125" lon="8.14446691644296"><ele>215.0</ele><time>2026-04-11T13:50:43Z</time></trkpt><trkpt lat="44.93204424013766" lon="8.144543785324283"><ele>215.33333333333331</ele><time>2026-04-11T13:50:44Z</time></trkpt><trkpt lat="44.93200230426241" lon="8.144633530594675"><ele>215.66666666666666</ele><time>2026-04-11T13:50:45Z</time></trkpt><trkpt lat="44.93196574311951" lon="8.144723837215734"><ele>216.0</ele><time>2026-04-11T13:50:46Z</time></trkpt><trkpt lat="44.93193695428298" lon="8.144819004184498"><ele>215.0</ele><time>2026-04-11T13:50:47Z</time></trkpt><trkpt lat="44.931913748616765" lon="8.144903161260018"><ele>214.0</ele><time>2026-04-11T13:50:48Z</time></trkpt><trkpt lat="44.93190112054228" lon="8.144994782396438"><ele>213.0</ele><time>2026-04-11T13:50:49Z</time></trkpt><trkpt lat="44.93188421644738" lon="8.145081285346455"><ele>212.0</ele><time>2026-04-11T13:50:50Z</time></trkpt><trkpt lat="44.931871142532614" lon="8.145173701710188"><ele>211.0</ele><time>2026-04-11T13:50:51Z</time></trkpt><trkpt lat="44.93185126553867" lon="8.145331879829357"><ele>210.0</ele><time>2026-04-11T13:50:53Z</time></trkpt><trkpt lat="44.931837391703894" lon="8.14542056958045"><ele>209.0</ele><time>2026-04-11T13:50:54Z</time></trkpt><trkpt lat="44.93181230453872" lon="8.145518438942796"><ele>209.00000000000003</ele><time>2026-04-11T13:50:55Z</time></trkpt><trkpt lat="44.93179517220665" lon="8.14562378501057"><ele>209.0</ele><time>2026-04-11T13:50:56Z</time></trkpt><trkpt lat="44.9317912346059" lon="8.145733679029512"><ele>209.0</ele><time>2026-04-11T13:50:57Z</time></trkpt><trkpt lat="44.93180156087616" lon="8.145854704138564"><ele>209.0</ele><time>2026-04-11T13:50:58Z</time></trkpt><trkpt lat="44.93181243391169" lon="8.14598501677951"><ele>209.00000000000003</ele><time>2026-04-11T13:50:59Z</time></trkpt><trkpt lat="44.93183135785691" lon="8.146119158491931"><ele>209.0</ele><time>2026-04-11T13:51:00Z</time></trkpt><trkpt lat="44.93185517982984" lon="8.146270689001707"><ele>209.25</ele><time>2026-04-11T13:51:01Z</time></trkpt><trkpt lat="44.93187617720842" lon="8.146422962386493"><ele>209.5</ele><time>2026-04-11T13:51:02Z</time></trkpt><trkpt lat="44.93190504922437" lon="8.146586161559105"><ele>209.75</ele><time>2026-04-11T13:51:03Z</time></trkpt><trkpt lat="44.931935421288024" lon="8.146756306500759"><ele>210.0</ele><time>2026-04-11T13:51:04Z</time></trkpt><trkpt lat="44.93195976551711" lon="8.14693293859908"><ele>207.75</ele><time>2026-04-11T13:51:05Z</time></trkpt><trkpt lat="44.93197022111676" lon="8.147122075849712"><ele>205.5</ele><time>2026-04-11T13:51:06Z</time></trkpt><trkpt lat="44.931949166487335" lon="8.147312118056933"><ele>203.25</ele><time>2026-04-11T13:51:07Z</time></trkpt><trkpt lat="44.931920772866036" lon="8.14746925046089"><ele>201.0</ele><time>2026-04-11T13:51:08Z</time></trkpt><trkpt lat="44.93188296834188" lon="8.14761339917552"><ele>201.66666666666666</ele><time>2026-04-11T13:51:09Z</time></trkpt><trkpt lat="44.931842657857366" lon="8.147701344474802"><ele>202.33333333333331</ele><time>2026-04-11T13:51:10Z</time></trkpt><trkpt lat="44.931793165391504" lon="8.147799189887321"><ele>203.0</ele><time>2026-04-11T13:51:11Z</time></trkpt><trkpt lat="44.931762092795886" lon="8.147892063133318"><ele>203.66666666666666</ele><time>2026-04-11T13:51:12Z</time></trkpt><trkpt lat="44.93172457207404" lon="8.147966712138416"><ele>204.33333333333331</ele><time>2026-04-11T13:51:13Z</time></trkpt><trkpt lat="44.93164511482678" lon="8.14809340102904"><ele>205.0</ele><time>2026-04-11T13:51:15Z</time></trkpt><trkpt lat="44.93156752993965" lon="8.148229684896123"><ele>205.99999999999997</ele><time>2026-04-11T13:51:17Z</time></trkpt><trkpt lat="44.93152330896136" lon="8.148342211129195"><ele>207.0</ele><time>2026-04-11T13:51:18Z</time></trkpt><trkpt lat="44.93146452313764" lon="8.148404803026343"><ele>208.0</ele><time>2026-04-11T13:51:19Z</time></trkpt><trkpt lat="44.93140937553956" lon="8.148479528549277"><ele>209.0</ele><time>2026-04-11T13:51:20Z</time></trkpt><trkpt lat="44.93135677790973" lon="8.148566720537433"><ele>209.99999999999997</ele><time>2026-04-11T13:51:21Z</time></trkpt><trkpt lat="44.931305129904466" lon="8.148652828133235"><ele>211.0</ele><time>2026-04-11T13:51:22Z</time></trkpt><trkpt lat="44.93125680653215" lon="8.148736797080462"><ele>210.99999999999997</ele><time>2026-04-11T13:51:23Z</time></trkpt><trkpt lat="44.93120561349503" lon="8.148833257657271"><ele>211.0</ele><time>2026-04-11T13:51:24Z</time></trkpt><trkpt lat="44.931169776153595" lon="8.148939472219748"><ele>211.0</ele><time>2026-04-11T13:51:25Z</time></trkpt><trkpt lat="44.93114100402312" lon="8.149063474062284"><ele>211.0</ele><time>2026-04-11T13:51:26Z</time></trkpt><trkpt lat="44.93111222433786" lon="8.149173942241045"><ele>210.99999999999997</ele><time>2026-04-11T13:51:27Z</time></trkpt><trkpt lat="44.93108358498962" lon="8.149279709753333"><ele>211.0</ele><time>2026-04-11T13:51:28Z</time></trkpt><trkpt lat="44.931067656986" lon="8.149392867107249"><ele>209.16666666666666</ele><time>2026-04-11T13:51:29Z</time></trkpt><trkpt lat="44.93106089019559" lon="8.149497485322103"><ele>207.33333333333331</ele><time>2026-04-11T13:51:30Z</time></trkpt><trkpt lat="44.93105158442326" lon="8.149609707355559"><ele>205.5</ele><time>2026-04-11T13:51:31Z</time></trkpt><trkpt lat="44.931042999899994" lon="8.149723025861347"><ele>203.66666666666669</ele><time>2026-04-11T13:51:32Z</time></trkpt><trkpt lat="44.93102882569849" lon="8.149848826705373"><ele>201.83333333333334</ele><time>2026-04-11T13:51:33Z</time></trkpt><trkpt lat="44.93100734868841" lon="8.149966672616403"><ele>200.0</ele><time>2026-04-11T13:51:34Z</time></trkpt><trkpt lat="44.93099692668318" lon="8.150076031621834"><ele>199.83333333333334</ele><time>2026-04-11T13:51:35Z</time></trkpt><trkpt lat="44.93099213162483" lon="8.150187186154374"><ele>199.66666666666669</ele><time>2026-04-11T13:51:36Z</time></trkpt><trkpt lat="44.93098918717132" lon="8.150303414853255"><ele>199.5</ele><time>2026-04-11T13:51:37Z</time></trkpt><trkpt lat="44.93098169312195" lon="8.150427435579873"><ele>199.33333333333331</ele><time>2026-04-11T13:51:38Z</time></trkpt><trkpt lat="44.93097298027342" lon="8.150552583996282"><ele>199.16666666666666</ele><time>2026-04-11T13:51:39Z</time></trkpt><trkpt lat="44.93095322834064" lon="8.150670575791587"><ele>199.0</ele><time>2026-04-11T13:51:40Z</time></trkpt><trkpt lat="44.930918315363876" lon="8.150784640406652"><ele>201.16666666666666</ele><time>2026-04-11T13:51:41Z</time></trkpt><trkpt lat="44.930889157637786" lon="8.150890562935672"><ele>203.33333333333331</ele><time>2026-04-11T13:51:42Z</time></trkpt><trkpt lat="44.9308622028635" lon="8.150973959625516"><ele>205.5</ele><time>2026-04-11T13:51:43Z</time></trkpt><trkpt lat="44.93083345794212" lon="8.151095513823709"><ele>207.66666666666669</ele><time>2026-04-11T13:51:44Z</time></trkpt><trkpt lat="44.93080925862712" lon="8.151185362321307"><ele>209.83333333333334</ele><time>2026-04-11T13:51:45Z</time></trkpt><trkpt lat="44.93078221758506" lon="8.151369689383879"><ele>212.0</ele><time>2026-04-11T13:51:47Z</time></trkpt><trkpt lat="44.9307773383623" lon="8.15146151244278"><ele>212.2857142857143</ele><time>2026-04-11T13:51:48Z</time></trkpt><trkpt lat="44.93077236621517" lon="8.151563441469209"><ele>212.57142857142856</ele><time>2026-04-11T13:51:49Z</time></trkpt><trkpt lat="44.930762408377475" lon="8.151653321416168"><ele>212.85714285714286</ele><time>2026-04-11T13:51:50Z</time></trkpt><trkpt lat="44.93075844297883" lon="8.151742728503404"><ele>213.14285714285717</ele><time>2026-04-11T13:51:51Z</time></trkpt><trkpt lat="44.930750970366816" lon="8.151833087222485"><ele>213.42857142857144</ele><time>2026-04-11T13:51:52Z</time></trkpt><trkpt lat="44.93074151163925" lon="8.151938942906785"><ele>213.71428571428572</ele><time>2026-04-11T13:51:53Z</time></trkpt><trkpt lat="44.930759006665944" lon="8.152090972125576"><ele>214.0</ele><time>2026-04-11T13:51:55Z</time></trkpt><trkpt lat="44.9307921213871" lon="8.152224584141438"><ele>213.99999999999997</ele><time>2026-04-11T13:51:57Z</time></trkpt><trkpt lat="44.930852454932534" lon="8.15233821054154"><ele>214.0</ele><time>2026-04-11T13:51:59Z</time></trkpt><trkpt lat="44.93089861779946" lon="8.152452172939714"><ele>214.0</ele><time>2026-04-11T13:52:01Z</time></trkpt><trkpt lat="44.93097292051137" lon="8.152537272728647"><ele>214.0</ele><time>2026-04-11T13:52:03Z</time></trkpt><trkpt lat="44.93100625522198" lon="8.15261536124594"><ele>213.99999999999997</ele><time>2026-04-11T13:52:05Z</time></trkpt><trkpt lat="44.93107799188985" lon="8.15268080944132"><ele>214.0</ele><time>2026-04-11T13:52:07Z</time></trkpt><trkpt lat="44.931135771833" lon="8.152816988186329"><ele>213.33333333333331</ele><time>2026-04-11T13:52:11Z</time></trkpt><trkpt lat="44.931189287826264" lon="8.152902542168002"><ele>212.66666666666666</ele><time>2026-04-11T13:52:12Z</time></trkpt><trkpt lat="44.93120559129636" lon="8.15302766564405"><ele>212.0</ele><time>2026-04-11T13:52:13Z</time></trkpt><trkpt lat="44.93116756984309" lon="8.153110445041586"><ele>211.33333333333331</ele><time>2026-04-11T13:52:15Z</time></trkpt><trkpt lat="44.931164546743204" lon="8.153280009845263"><ele>210.66666666666666</ele><time>2026-04-11T13:52:17Z</time></trkpt><trkpt lat="44.93115333280841" lon="8.153384976944666"><ele>210.0</ele><time>2026-04-11T13:52:18Z</time></trkpt><trkpt lat="44.93113002219768" lon="8.153482560756855"><ele>209.4</ele><time>2026-04-11T13:52:19Z</time></trkpt><trkpt lat="44.931090583733216" lon="8.153667076020023"><ele>208.8</ele><time>2026-04-11T13:52:20Z</time></trkpt><trkpt lat="44.931059919069156" lon="8.153757407965557"><ele>208.2</ele><time>2026-04-11T13:52:21Z</time></trkpt><trkpt lat="44.93104141392808" lon="8.153860243709623"><ele>207.6</ele><time>2026-04-11T13:52:22Z</time></trkpt><trkpt lat="44.93100944189309" lon="8.154027298488833"><ele>207.0</ele><time>2026-04-11T13:52:24Z</time></trkpt><trkpt lat="44.93097132180153" lon="8.154125807819495"><ele>207.00000000000003</ele><time>2026-04-11T13:52:25Z</time></trkpt><trkpt lat="44.93095491968239" lon="8.154226481815959"><ele>207.0</ele><time>2026-04-11T13:52:26Z</time></trkpt><trkpt lat="44.93092768644021" lon="8.154325472526105"><ele>207.0</ele><time>2026-04-11T13:52:27Z</time></trkpt><trkpt lat="44.93089990289905" lon="8.154427006174934"><ele>207.0</ele><time>2026-04-11T13:52:28Z</time></trkpt><trkpt lat="44.930875670718" lon="8.154530989406119"><ele>207.0</ele><time>2026-04-11T13:52:29Z</time></trkpt><trkpt lat="44.9308297772573" lon="8.154609456726522"><ele>207.00000000000003</ele><time>2026-04-11T13:52:30Z</time></trkpt><trkpt lat="44.93079108924101" lon="8.154695503793567"><ele>207.0</ele><time>2026-04-11T13:52:31Z</time></trkpt><trkpt lat="44.93074206664825" lon="8.154788179621962"><ele>207.8</ele><time>2026-04-11T13:52:32Z</time></trkpt><trkpt lat="44.93069148986989" lon="8.15488275909859"><ele>208.6</ele><time>2026-04-11T13:52:33Z</time></trkpt><trkpt lat="44.93066327234539" lon="8.154978358059976"><ele>209.4</ele><time>2026-04-11T13:52:34Z</time></trkpt><trkpt lat="44.93060774219065" lon="8.155097787889625"><ele>210.20000000000002</ele><time>2026-04-11T13:52:35Z</time></trkpt><trkpt lat="44.9305607470998" lon="8.155214422320615"><ele>211.0</ele><time>2026-04-11T13:52:36Z</time></trkpt><trkpt lat="44.93051088335242" lon="8.155333771756053"><ele>210.99999999999997</ele><time>2026-04-11T13:52:37Z</time></trkpt><trkpt lat="44.930467865308586" lon="8.155449784996973"><ele>211.0</ele><time>2026-04-11T13:52:38Z</time></trkpt><trkpt lat="44.93043701881888" lon="8.155571822663191"><ele>211.0</ele><time>2026-04-11T13:52:39Z</time></trkpt><trkpt lat="44.93041323751895" lon="8.155694184907542"><ele>211.0</ele><time>2026-04-11T13:52:40Z</time></trkpt><trkpt lat="44.93038285472849" lon="8.155805926450412"><ele>210.99999999999997</ele><time>2026-04-11T13:52:41Z</time></trkpt><trkpt lat="44.93036076661983" lon="8.155916395343004"><ele>211.0</ele><time>2026-04-11T13:52:42Z</time></trkpt><trkpt lat="44.93035948965242" lon="8.15602076311579"><ele>210.0</ele><time>2026-04-11T13:52:43Z</time></trkpt><trkpt lat="44.930372844748526" lon="8.156139173002513"><ele>209.0</ele><time>2026-04-11T13:52:44Z</time></trkpt><trkpt lat="44.930387870470724" lon="8.156243495682839"><ele>208.0</ele><time>2026-04-11T13:52:45Z</time></trkpt><trkpt lat="44.93040499413749" lon="8.156338619757575"><ele>207.0</ele><time>2026-04-11T13:52:46Z</time></trkpt><trkpt lat="44.93043781541402" lon="8.156500381558514"><ele>206.0</ele><time>2026-04-11T13:52:48Z</time></trkpt><trkpt lat="44.93047017260799" lon="8.15666425219729"><ele>206.0</ele><time>2026-04-11T13:52:50Z</time></trkpt><trkpt lat="44.9304910183254" lon="8.156824636222641"><ele>206.0</ele><time>2026-04-11T13:52:52Z</time></trkpt><trkpt lat="44.930482684178955" lon="8.157019359969405"><ele>206.0</ele><time>2026-04-11T13:52:54Z</time></trkpt><trkpt lat="44.930476144053664" lon="8.157121887997771"><ele>206.0</ele><time>2026-04-11T13:52:55Z</time></trkpt><trkpt lat="44.93045538477352" lon="8.157219709652006"><ele>206.0</ele><time>2026-04-11T13:52:56Z</time></trkpt><trkpt lat="44.93037215369422" lon="8.157363689497192"><ele>206.00000000000003</ele><time>2026-04-11T13:52:58Z</time></trkpt><trkpt lat="44.9303253730059" lon="8.157448883189744"><ele>206.0</ele><time>2026-04-11T13:52:59Z</time></trkpt><trkpt lat="44.93025523052042" lon="8.157509331065851"><ele>206.0</ele><time>2026-04-11T13:53:00Z</time></trkpt><trkpt lat="44.93019618326373" lon="8.157574621380878"><ele>206.0</ele><time>2026-04-11T13:53:01Z</time></trkpt><trkpt lat="44.93014962172274" lon="8.157666711680534"><ele>206.00000000000003</ele><time>2026-04-11T13:53:02Z</time></trkpt><trkpt lat="44.930099017047226" lon="8.157735459330533"><ele>206.0</ele><time>2026-04-11T13:53:03Z</time></trkpt><trkpt lat="44.93003999657411" lon="8.15780475663807"><ele>205.8</ele><time>2026-04-11T13:53:04Z</time></trkpt><trkpt lat="44.92998843962761" lon="8.157878668564392"><ele>205.60000000000002</ele><time>2026-04-11T13:53:05Z</time></trkpt><trkpt lat="44.9299121330447" lon="8.157967406317962"><ele>205.4</ele><time>2026-04-11T13:53:06Z</time></trkpt><trkpt lat="44.929834503181475" lon="8.158037535319501"><ele>205.2</ele><time>2026-04-11T13:53:07Z</time></trkpt><trkpt lat="44.929763092415214" lon="8.158149799516963"><ele>205.0</ele><time>2026-04-11T13:53:08Z</time></trkpt><trkpt lat="44.929692837354864" lon="8.15824297245844"><ele>204.83333333333331</ele><time>2026-04-11T13:53:09Z</time></trkpt><trkpt lat="44.929625318595434" lon="8.158327869947687"><ele>204.66666666666666</ele><time>2026-04-11T13:53:10Z</time></trkpt><trkpt lat="44.92955287950651" lon="8.158385151741994"><ele>204.5</ele><time>2026-04-11T13:53:11Z</time></trkpt><trkpt lat="44.92949258976888" lon="8.158448663338818"><ele>204.33333333333331</ele><time>2026-04-11T13:53:12Z</time></trkpt><trkpt lat="44.929416133042025" lon="8.158496644416092"><ele>204.16666666666666</ele><time>2026-04-11T13:53:13Z</time></trkpt><trkpt lat="44.929344882041065" lon="8.158540811365938"><ele>204.0</ele><time>2026-04-11T13:53:14Z</time></trkpt><trkpt lat="44.92927878481967" lon="8.158602245051407"><ele>204.16666666666666</ele><time>2026-04-11T13:53:15Z</time></trkpt><trkpt lat="44.9291951539039" lon="8.15865186656596"><ele>204.33333333333331</ele><time>2026-04-11T13:53:16Z</time></trkpt><trkpt lat="44.92912895934561" lon="8.158690843425845"><ele>204.5</ele><time>2026-04-11T13:53:17Z</time></trkpt><trkpt lat="44.929065054692146" lon="8.158758251683048"><ele>204.66666666666666</ele><time>2026-04-11T13:53:18Z</time></trkpt><trkpt lat="44.929001067620035" lon="8.158813727821705"><ele>204.83333333333331</ele><time>2026-04-11T13:53:19Z</time></trkpt><trkpt lat="44.92895418991634" lon="8.158906066306937"><ele>205.0</ele><time>2026-04-11T13:53:20Z</time></trkpt><trkpt lat="44.92891547166053" lon="8.158995464737005"><ele>204.57142857142858</ele><time>2026-04-11T13:53:21Z</time></trkpt><trkpt lat="44.928874477093366" lon="8.159090443173938"><ele>204.14285714285714</ele><time>2026-04-11T13:53:22Z</time></trkpt><trkpt lat="44.92883284088706" lon="8.159185285135605"><ele>203.71428571428572</ele><time>2026-04-11T13:53:23Z</time></trkpt><trkpt lat="44.92878975923302" lon="8.159272131447546"><ele>203.28571428571428</ele><time>2026-04-11T13:53:24Z</time></trkpt><trkpt lat="44.92874973547218" lon="8.159352813285427"><ele>202.85714285714283</ele><time>2026-04-11T13:53:25Z</time></trkpt><trkpt lat="44.92871262018256" lon="8.159427632360211"><ele>202.42857142857142</ele><time>2026-04-11T13:53:26Z</time></trkpt><trkpt lat="44.92867175318601" lon="8.15951001357097"><ele>202.0</ele><time>2026-04-11T13:53:27Z</time></trkpt><trkpt lat="44.92863429430207" lon="8.159585597342819"><ele>202.0</ele><time>2026-04-11T13:53:28Z</time></trkpt><trkpt lat="44.92855942044298" lon="8.159737145309702"><ele>202.0</ele><time>2026-04-11T13:53:30Z</time></trkpt><trkpt lat="44.92848599342947" lon="8.159877438571842"><ele>202.0</ele><time>2026-04-11T13:53:32Z</time></trkpt><trkpt lat="44.9284063869024" lon="8.160002458411173"><ele>202.0</ele><time>2026-04-11T13:53:34Z</time></trkpt><trkpt lat="44.92834567204999" lon="8.160094261881744"><ele>202.99999999999997</ele><time>2026-04-11T13:53:36Z</time></trkpt><trkpt lat="44.92828080447825" lon="8.160170681740036"><ele>204.0</ele><time>2026-04-11T13:53:38Z</time></trkpt><trkpt lat="44.928200947757375" lon="8.160202770981144"><ele>205.0</ele><time>2026-04-11T13:53:43Z</time></trkpt><trkpt lat="44.92814085072825" lon="8.160167112225384"><ele>206.0</ele><time>2026-04-11T13:53:45Z</time></trkpt><trkpt lat="44.92807695764311" lon="8.160147514002967"><ele>206.99999999999997</ele><time>2026-04-11T13:53:47Z</time></trkpt><trkpt lat="44.92797676352858" lon="8.16011775873244"><ele>208.0</ele><time>2026-04-11T13:53:51Z</time></trkpt><trkpt lat="44.92788478023067" lon="8.160140796637537"><ele>208.0</ele><time>2026-04-11T13:53:53Z</time></trkpt><trkpt lat="44.92779021038618" lon="8.160196988576216"><ele>208.0</ele><time>2026-04-11T13:53:55Z</time></trkpt><trkpt lat="44.92772348823968" lon="8.160306544749155"><ele>208.0</ele><time>2026-04-11T13:53:57Z</time></trkpt><trkpt lat="44.92771481039402" lon="8.160458230389146"><ele>208.0</ele><time>2026-04-11T13:53:59Z</time></trkpt><trkpt lat="44.92768284656426" lon="8.160586736506794"><ele>208.0</ele><time>2026-04-11T13:54:01Z</time></trkpt><trkpt lat="44.927623953881024" lon="8.160723549861697"><ele>207.33333333333331</ele><time>2026-04-11T13:54:03Z</time></trkpt><trkpt lat="44.92754468436407" lon="8.160853791239369"><ele>206.66666666666666</ele><time>2026-04-11T13:54:05Z</time></trkpt><trkpt lat="44.92748766575386" lon="8.160905929390449"><ele>206.0</ele><time>2026-04-11T13:54:06Z</time></trkpt><trkpt lat="44.92743156337009" lon="8.16095690105641"><ele>205.33333333333331</ele><time>2026-04-11T13:54:07Z</time></trkpt><trkpt lat="44.9273779090614" lon="8.161011873512809"><ele>204.66666666666666</ele><time>2026-04-11T13:54:08Z</time></trkpt><trkpt lat="44.92733022161934" lon="8.161083041774335"><ele>204.0</ele><time>2026-04-11T13:54:09Z</time></trkpt><trkpt lat="44.927287677051446" lon="8.161214427084168"><ele>204.0</ele><time>2026-04-11T13:54:11Z</time></trkpt><trkpt lat="44.92727044722895" lon="8.16130624364879"><ele>204.0</ele><time>2026-04-11T13:54:12Z</time></trkpt><trkpt lat="44.92727099764983" lon="8.161511085728302"><ele>204.0</ele><time>2026-04-11T13:54:14Z</time></trkpt><trkpt lat="44.92727644176657" lon="8.161617762593117"><ele>204.0</ele><time>2026-04-11T13:54:15Z</time></trkpt><trkpt lat="44.92729092708699" lon="8.161728397857981"><ele>204.0</ele><time>2026-04-11T13:54:16Z</time></trkpt><trkpt lat="44.92729139683203" lon="8.161843906282842"><ele>204.0</ele><time>2026-04-11T13:54:17Z</time></trkpt><trkpt lat="44.92730147205287" lon="8.161957728641875"><ele>204.0</ele><time>2026-04-11T13:54:18Z</time></trkpt><trkpt lat="44.9273150178919" lon="8.162071387253368"><ele>204.0</ele><time>2026-04-11T13:54:19Z</time></trkpt><trkpt lat="44.92732171194372" lon="8.162182064488361"><ele>204.0</ele><time>2026-04-11T13:54:20Z</time></trkpt><trkpt lat="44.92732880946649" lon="8.162303490333217"><ele>204.0</ele><time>2026-04-11T13:54:21Z</time></trkpt><trkpt lat="44.92733294179386" lon="8.162421038815575"><ele>204.0</ele><time>2026-04-11T13:54:22Z</time></trkpt><trkpt lat="44.92733859253828" lon="8.162536346588029"><ele>204.0</ele><time>2026-04-11T13:54:23Z</time></trkpt><trkpt lat="44.92734149271287" lon="8.162646178660504"><ele>202.0</ele><time>2026-04-11T13:54:24Z</time></trkpt><trkpt lat="44.92734417004745" lon="8.162756441908936"><ele>200.0</ele><time>2026-04-11T13:54:25Z</time></trkpt><trkpt lat="44.92735350972987" lon="8.16286152361272"><ele>198.0</ele><time>2026-04-11T13:54:26Z</time></trkpt><trkpt lat="44.927338381343894" lon="8.162960736915885"><ele>196.0</ele><time>2026-04-11T13:54:27Z</time></trkpt><trkpt lat="44.92731797202807" lon="8.163069683240137"><ele>194.0</ele><time>2026-04-11T13:54:28Z</time></trkpt><trkpt lat="44.927244410073186" lon="8.163181502019716"><ele>192.0</ele><time>2026-04-11T13:54:29Z</time></trkpt><trkpt lat="44.92714214286024" lon="8.163235207885467"><ele>189.6</ele><time>2026-04-11T13:54:30Z</time></trkpt><trkpt lat="44.92703524205221" lon="8.163228339108096"><ele>187.2</ele><time>2026-04-11T13:54:31Z</time></trkpt><trkpt lat="44.926939383108675" lon="8.163253933640366"><ele>184.8</ele><time>2026-04-11T13:54:32Z</time></trkpt><trkpt lat="44.926853384482804" lon="8.163287222675855"><ele>182.4</ele><time>2026-04-11T13:54:33Z</time></trkpt><trkpt lat="44.926764347715626" lon="8.16335222399141"><ele>180.0</ele><time>2026-04-11T13:54:34Z</time></trkpt><trkpt lat="44.926690320833394" lon="8.163447811886547"><ele>180.0</ele><time>2026-04-11T13:54:35Z</time></trkpt><trkpt lat="44.926614875720986" lon="8.163554303175992"><ele>180.0</ele><time>2026-04-11T13:54:36Z</time></trkpt><trkpt lat="44.92654009227176" lon="8.163664336758016"><ele>180.0</ele><time>2026-04-11T13:54:37Z</time></trkpt><trkpt lat="44.92644884913109" lon="8.163761049455513"><ele>180.0</ele><time>2026-04-11T13:54:38Z</time></trkpt><trkpt lat="44.92635169658979" lon="8.163841440538624"><ele>180.0</ele><time>2026-04-11T13:54:39Z</time></trkpt><trkpt lat="44.92625330510549" lon="8.16391549437108"><ele>180.0</ele><time>2026-04-11T13:54:40Z</time></trkpt><trkpt lat="44.92615490507615" lon="8.163992677910267"><ele>180.0</ele><time>2026-04-11T13:54:41Z</time></trkpt><trkpt lat="44.926060742845166" lon="8.164072381677151"><ele>180.0</ele><time>2026-04-11T13:54:42Z</time></trkpt><trkpt lat="44.925971133633475" lon="8.164158679221998"><ele>180.0</ele><time>2026-04-11T13:54:43Z</time></trkpt><trkpt lat="44.925880190654375" lon="8.164246078976687"><ele>180.0</ele><time>2026-04-11T13:54:44Z</time></trkpt><trkpt lat="44.925790768516336" lon="8.16431870148097"><ele>178.6</ele><time>2026-04-11T13:54:45Z</time></trkpt><trkpt lat="44.92570442863211" lon="8.164389614316192"><ele>177.2</ele><time>2026-04-11T13:54:46Z</time></trkpt><trkpt lat="44.92561400757396" lon="8.164454130985064"><ele>175.8</ele><time>2026-04-11T13:54:47Z</time></trkpt><trkpt lat="44.92552123330037" lon="8.16450440744887"><ele>174.4</ele><time>2026-04-11T13:54:48Z</time></trkpt><trkpt lat="44.92544683239797" lon="8.16456389232321"><ele>173.0</ele><time>2026-04-11T13:54:49Z</time></trkpt><trkpt lat="44.92537344488642" lon="8.164632518241921"><ele>173.0</ele><time>2026-04-11T13:54:50Z</time></trkpt><trkpt lat="44.925294028136285" lon="8.164689866261863"><ele>173.0</ele><time>2026-04-11T13:54:51Z</time></trkpt><trkpt lat="44.925218008795866" lon="8.164763657592909"><ele>173.0</ele><time>2026-04-11T13:54:52Z</time></trkpt><trkpt lat="44.925144838183236" lon="8.16484198810286"><ele>173.0</ele><time>2026-04-11T13:54:53Z</time></trkpt><trkpt lat="44.92507695074915" lon="8.164923468793988"><ele>173.0</ele><time>2026-04-11T13:54:54Z</time></trkpt><trkpt lat="44.9250382261003" lon="8.165019190323322"><ele>173.0</ele><time>2026-04-11T13:54:55Z</time></trkpt><trkpt lat="44.925024599040036" lon="8.165133251201116"><ele>171.83333333333331</ele><time>2026-04-11T13:54:56Z</time></trkpt><trkpt lat="44.92504863754466" lon="8.16524755163042"><ele>170.66666666666666</ele><time>2026-04-11T13:54:57Z</time></trkpt><trkpt lat="44.92511162586643" lon="8.165327386144332"><ele>169.5</ele><time>2026-04-11T13:54:58Z</time></trkpt><trkpt lat="44.925192181086125" lon="8.16536193461529"><ele>168.33333333333334</ele><time>2026-04-11T13:54:59Z</time></trkpt><trkpt lat="44.92527644835093" lon="8.165370000555969"><ele>167.16666666666669</ele><time>2026-04-11T13:55:00Z</time></trkpt><trkpt lat="44.92535369837731" lon="8.165313006968828"><ele>166.0</ele><time>2026-04-11T13:55:01Z</time></trkpt><trkpt lat="44.92541820970564" lon="8.165241843068095"><ele>165.83333333333334</ele><time>2026-04-11T13:55:02Z</time></trkpt><trkpt lat="44.9254828201422" lon="8.165162267140035"><ele>165.66666666666669</ele><time>2026-04-11T13:55:03Z</time></trkpt><trkpt lat="44.925547685914324" lon="8.165091909242888"><ele>165.5</ele><time>2026-04-11T13:55:04Z</time></trkpt><trkpt lat="44.925619323844536" lon="8.165013321692621"><ele>165.33333333333334</ele><time>2026-04-11T13:55:05Z</time></trkpt><trkpt lat="44.92570946289338" lon="8.164980634951846"><ele>165.16666666666666</ele><time>2026-04-11T13:55:06Z</time></trkpt><trkpt lat="44.925799847047614" lon="8.164968326609898"><ele>165.0</ele><time>2026-04-11T13:55:07Z</time></trkpt><trkpt lat="44.9258956844296" lon="8.164987047682168"><ele>164.8</ele><time>2026-04-11T13:55:08Z</time></trkpt><trkpt lat="44.92598236224831" lon="8.165017047303708"><ele>164.6</ele><time>2026-04-11T13:55:09Z</time></trkpt><trkpt lat="44.926074038563016" lon="8.165047454327405"><ele>164.39999999999998</ele><time>2026-04-11T13:55:10Z</time></trkpt><trkpt lat="44.9261639555336" lon="8.165082176285374"><ele>164.2</ele><time>2026-04-11T13:55:11Z</time></trkpt><trkpt lat="44.926260040869245" lon="8.165137213188677"><ele>164.0</ele><time>2026-04-11T13:55:12Z</time></trkpt><trkpt lat="44.92635232521158" lon="8.16521149187659"><ele>164.0</ele><time>2026-04-11T13:55:13Z</time></trkpt><trkpt lat="44.926434548726725" lon="8.165307208925913"><ele>164.0</ele><time>2026-04-11T13:55:14Z</time></trkpt><trkpt lat="44.926497106297546" lon="8.165436655570621"><ele>164.0</ele><time>2026-04-11T13:55:15Z</time></trkpt><trkpt lat="44.926532163832306" lon="8.165563030688004"><ele>164.0</ele><time>2026-04-11T13:55:16Z</time></trkpt><trkpt lat="44.92653306864567" lon="8.165686173459626"><ele>164.0</ele><time>2026-04-11T13:55:17Z</time></trkpt><trkpt lat="44.926543224496974" lon="8.165803891508629"><ele>161.79999999999998</ele><time>2026-04-11T13:55:18Z</time></trkpt><trkpt lat="44.926523944350556" lon="8.165933784212362"><ele>159.6</ele><time>2026-04-11T13:55:19Z</time></trkpt><trkpt lat="44.926482473544944" lon="8.166066780907594"><ele>157.4</ele><time>2026-04-11T13:55:20Z</time></trkpt><trkpt lat="44.92644218573454" lon="8.166199523962442"><ele>155.2</ele><time>2026-04-11T13:55:21Z</time></trkpt><trkpt lat="44.92641217523001" lon="8.1663209092683"><ele>153.0</ele><time>2026-04-11T13:55:22Z</time></trkpt><trkpt lat="44.926380004116226" lon="8.166455827410903"><ele>151.6</ele><time>2026-04-11T13:55:23Z</time></trkpt><trkpt lat="44.92634244542843" lon="8.166588231997025"><ele>150.20000000000002</ele><time>2026-04-11T13:55:24Z</time></trkpt><trkpt lat="44.926300363394525" lon="8.166712646524976"><ele>148.8</ele><time>2026-04-11T13:55:25Z</time></trkpt><trkpt lat="44.926252645892085" lon="8.166838988234094"><ele>147.4</ele><time>2026-04-11T13:55:26Z</time></trkpt><trkpt lat="44.92621566270357" lon="8.166970865767707"><ele>146.0</ele><time>2026-04-11T13:55:27Z</time></trkpt><trkpt lat="44.92617684394247" lon="8.16711389980874"><ele>146.0</ele><time>2026-04-11T13:55:28Z</time></trkpt><trkpt lat="44.926155412033545" lon="8.167247182763184"><ele>146.0</ele><time>2026-04-11T13:55:29Z</time></trkpt><trkpt lat="44.92615762253916" lon="8.167380059551459"><ele>146.0</ele><time>2026-04-11T13:55:30Z</time></trkpt><trkpt lat="44.92617056889177" lon="8.167506209331815"><ele>146.0</ele><time>2026-04-11T13:55:31Z</time></trkpt><trkpt lat="44.92618789878884" lon="8.167634377355641"><ele>146.0</ele><time>2026-04-11T13:55:32Z</time></trkpt><trkpt lat="44.9262159986702" lon="8.167768391511492"><ele>145.33333333333331</ele><time>2026-04-11T13:55:33Z</time></trkpt><trkpt lat="44.9262496631581" lon="8.167894244466524"><ele>144.66666666666666</ele><time>2026-04-11T13:55:34Z</time></trkpt><trkpt lat="44.926279916540885" lon="8.168005197376418"><ele>144.0</ele><time>2026-04-11T13:55:35Z</time></trkpt><trkpt lat="44.92630326960112" lon="8.168099737983834"><ele>143.33333333333334</ele><time>2026-04-11T13:55:36Z</time></trkpt><trkpt lat="44.92634153169339" lon="8.168247748249787"><ele>142.66666666666669</ele><time>2026-04-11T13:55:38Z</time></trkpt><trkpt lat="44.926363843404786" lon="8.16835845892076"><ele>142.0</ele><time>2026-04-11T13:55:40Z</time></trkpt><trkpt lat="44.9263897483418" lon="8.168475462243178"><ele>141.79999999999998</ele><time>2026-04-11T13:55:44Z</time></trkpt><trkpt lat="44.92651221619756" lon="8.168426719313853"><ele>141.6</ele><time>2026-04-11T13:55:47Z</time></trkpt><trkpt lat="44.92659466833755" lon="8.168353021757536"><ele>141.39999999999998</ele><time>2026-04-11T13:55:49Z</time></trkpt><trkpt lat="44.926678137409695" lon="8.168279495726441"><ele>141.2</ele><time>2026-04-11T13:55:51Z</time></trkpt><trkpt lat="44.926756470924445" lon="8.16819845538004"><ele>141.0</ele><time>2026-04-11T13:55:53Z</time></trkpt><trkpt lat="44.9268453548039" lon="8.168133755469436"><ele>141.0</ele><time>2026-04-11T13:55:55Z</time></trkpt><trkpt lat="44.9269392484878" lon="8.168047406953104"><ele>141.0</ele><time>2026-04-11T13:55:57Z</time></trkpt><trkpt lat="44.927023885695455" lon="8.167980994382456"><ele>141.0</ele><time>2026-04-11T13:55:59Z</time></trkpt><trkpt lat="44.927108265327746" lon="8.167907833841221"><ele>141.0</ele><time>2026-04-11T13:56:01Z</time></trkpt><trkpt lat="44.92719137355787" lon="8.167828179282779"><ele>141.0</ele><time>2026-04-11T13:56:03Z</time></trkpt><trkpt lat="44.92727681679635" lon="8.167755453771871"><ele>141.0</ele><time>2026-04-11T13:56:05Z</time></trkpt><trkpt lat="44.9273670355315" lon="8.167671448681341"><ele>141.0</ele><time>2026-04-11T13:56:07Z</time></trkpt><trkpt lat="44.92745721348076" lon="8.167602146533412"><ele>141.0</ele><time>2026-04-11T13:56:09Z</time></trkpt><trkpt lat="44.92753519536315" lon="8.167538917647951"><ele>141.0</ele><time>2026-04-11T13:56:11Z</time></trkpt><trkpt lat="44.92760282308943" lon="8.167469215122905"><ele>141.0</ele><time>2026-04-11T13:56:13Z</time></trkpt><trkpt lat="44.92766933362023" lon="8.167414594229928"><ele>140.6</ele><time>2026-04-11T13:56:15Z</time></trkpt><trkpt lat="44.92773875437094" lon="8.167464038399237"><ele>140.2</ele><time>2026-04-11T13:56:17Z</time></trkpt><trkpt lat="44.92779526434047" lon="8.16759825952626"><ele>139.8</ele><time>2026-04-11T13:56:19Z</time></trkpt><trkpt lat="44.92785124345142" lon="8.16772066380508"><ele>139.4</ele><time>2026-04-11T13:56:21Z</time></trkpt><trkpt lat="44.92790684020204" lon="8.167830361932667"><ele>139.0</ele><time>2026-04-11T13:56:23Z</time></trkpt><trkpt lat="44.92798044528131" lon="8.167938179155728"><ele>139.0</ele><time>2026-04-11T13:56:25Z</time></trkpt><trkpt lat="44.928055333657916" lon="8.16806989596483"><ele>139.0</ele><time>2026-04-11T13:56:27Z</time></trkpt><trkpt lat="44.92813180201944" lon="8.16820552869491"><ele>139.0</ele><time>2026-04-11T13:56:29Z</time></trkpt><trkpt lat="44.92820717679183" lon="8.168336444756234"><ele>139.0</ele><time>2026-04-11T13:56:31Z</time></trkpt><trkpt lat="44.928279459677924" lon="8.168466852418069"><ele>138.6</ele><time>2026-04-11T13:56:33Z</time></trkpt><trkpt lat="44.92835551349723" lon="8.16859364690126"><ele>138.2</ele><time>2026-04-11T13:56:35Z</time></trkpt><trkpt lat="44.928422463199226" lon="8.168716662678618"><ele>137.79999999999998</ele><time>2026-04-11T13:56:37Z</time></trkpt><trkpt lat="44.92849631128796" lon="8.168837944707965"><ele>137.4</ele><time>2026-04-11T13:56:39Z</time></trkpt><trkpt lat="44.92856138630998" lon="8.168942265843965"><ele>137.0</ele><time>2026-04-11T13:56:41Z</time></trkpt><trkpt lat="44.92861572123923" lon="8.169035350701773"><ele>137.0</ele><time>2026-04-11T13:56:43Z</time></trkpt><trkpt lat="44.92866537446263" lon="8.16912953126279"><ele>137.0</ele><time>2026-04-11T13:56:45Z</time></trkpt><trkpt lat="44.92871030260077" lon="8.169226837835597"><ele>137.0</ele><time>2026-04-11T13:56:47Z</time></trkpt><trkpt lat="44.92877492888079" lon="8.16933183501383"><ele>137.0</ele><time>2026-04-11T13:56:49Z</time></trkpt><trkpt lat="44.928816818365874" lon="8.169426872494798"><ele>137.0</ele><time>2026-04-11T13:56:51Z</time></trkpt><trkpt lat="44.92887559650085" lon="8.16953557967816"><ele>137.0</ele><time>2026-04-11T13:56:53Z</time></trkpt><trkpt lat="44.92893807631512" lon="8.169643633631646"><ele>137.0</ele><time>2026-04-11T13:56:55Z</time></trkpt><trkpt lat="44.92899986491983" lon="8.169755582636443"><ele>137.0</ele><time>2026-04-11T13:56:57Z</time></trkpt><trkpt lat="44.92905314849359" lon="8.169857158525442"><ele>137.0</ele><time>2026-04-11T13:56:59Z</time></trkpt><trkpt lat="44.92910339211682" lon="8.169967876457433"><ele>137.0</ele><time>2026-04-11T13:57:01Z</time></trkpt><trkpt lat="44.92911368036744" lon="8.17010601425598"><ele>137.0</ele><time>2026-04-11T13:57:03Z</time></trkpt><trkpt lat="44.92904751410899" lon="8.170245437556783"><ele>136.4</ele><time>2026-04-11T13:57:05Z</time></trkpt><trkpt lat="44.92899046980513" lon="8.170374482210704"><ele>135.79999999999998</ele><time>2026-04-11T13:57:07Z</time></trkpt><trkpt lat="44.92893801591764" lon="8.170508227245913"><ele>135.2</ele><time>2026-04-11T13:57:09Z</time></trkpt><trkpt lat="44.928887060211856" lon="8.170640390891466"><ele>134.6</ele><time>2026-04-11T13:57:11Z</time></trkpt><trkpt lat="44.92884352518846" lon="8.170776155055343"><ele>134.0</ele><time>2026-04-11T13:57:13Z</time></trkpt><trkpt lat="44.92879015654412" lon="8.17091052325852"><ele>134.0</ele><time>2026-04-11T13:57:15Z</time></trkpt><trkpt lat="44.928736561428764" lon="8.171050742135684"><ele>134.0</ele><time>2026-04-11T13:57:17Z</time></trkpt><trkpt lat="44.92868450363892" lon="8.171181042126952"><ele>134.0</ele><time>2026-04-11T13:57:19Z</time></trkpt><trkpt lat="44.928637472528926" lon="8.171312858688788"><ele>134.0</ele><time>2026-04-11T13:57:21Z</time></trkpt><trkpt lat="44.92858777150964" lon="8.171438854852337"><ele>134.0</ele><time>2026-04-11T13:57:23Z</time></trkpt><trkpt lat="44.92854357129724" lon="8.171573541768419"><ele>134.0</ele><time>2026-04-11T13:57:25Z</time></trkpt><trkpt lat="44.928490322345525" lon="8.171703912370564"><ele>134.0</ele><time>2026-04-11T13:57:27Z</time></trkpt><trkpt lat="44.928445583979524" lon="8.17182995938509"><ele>134.0</ele><time>2026-04-11T13:57:29Z</time></trkpt><trkpt lat="44.92839247479166" lon="8.171953738319868"><ele>134.0</ele><time>2026-04-11T13:57:31Z</time></trkpt><trkpt lat="44.92834409062181" lon="8.172084886067298"><ele>134.0</ele><time>2026-04-11T13:57:33Z</time></trkpt><trkpt lat="44.928291871201864" lon="8.172218112067483"><ele>134.0</ele><time>2026-04-11T13:57:35Z</time></trkpt><trkpt lat="44.92824177791783" lon="8.172350871213641"><ele>134.0</ele><time>2026-04-11T13:57:37Z</time></trkpt><trkpt lat="44.9281927075901" lon="8.17248052811458"><ele>134.0</ele><time>2026-04-11T13:57:39Z</time></trkpt><trkpt lat="44.92814448700716" lon="8.172602142095739"><ele>134.0</ele><time>2026-04-11T13:57:41Z</time></trkpt><trkpt lat="44.92808720005528" lon="8.172713717288142"><ele>134.0</ele><time>2026-04-11T13:57:43Z</time></trkpt><trkpt lat="44.928034094059946" lon="8.172832152818401"><ele>134.6</ele><time>2026-04-11T13:57:45Z</time></trkpt><trkpt lat="44.927978549638176" lon="8.172940674520307"><ele>135.2</ele><time>2026-04-11T13:57:47Z</time></trkpt><trkpt lat="44.927918447738826" lon="8.17303233032681"><ele>135.79999999999998</ele><time>2026-04-11T13:57:49Z</time></trkpt><trkpt lat="44.927849339500895" lon="8.173108679840789"><ele>136.4</ele><time>2026-04-11T13:57:51Z</time></trkpt><trkpt lat="44.927760820129464" lon="8.173141766348285"><ele>137.0</ele><time>2026-04-11T13:57:53Z</time></trkpt><trkpt lat="44.92766044093795" lon="8.17315528655095"><ele>137.0</ele><time>2026-04-11T13:57:55Z</time></trkpt><trkpt lat="44.9276004777866" lon="8.17312333851305"><ele>137.0</ele><time>2026-04-11T13:57:56Z</time></trkpt><trkpt lat="44.9274943496045" lon="8.17305106874823"><ele>137.0</ele><time>2026-04-11T13:57:58Z</time></trkpt><trkpt lat="44.92740220585422" lon="8.17295575305092"><ele>137.0</ele><time>2026-04-11T13:58:00Z</time></trkpt><trkpt lat="44.92734960049952" lon="8.172900671858839"><ele>137.0</ele><time>2026-04-11T13:58:01Z</time></trkpt><trkpt lat="44.92723114609075" lon="8.17284595774969"><ele>136.83333333333331</ele><time>2026-04-11T13:58:03Z</time></trkpt><trkpt lat="44.927165378361664" lon="8.172858518110395"><ele>136.66666666666666</ele><time>2026-04-11T13:58:04Z</time></trkpt><trkpt lat="44.927098229963946" lon="8.17288072775265"><ele>136.5</ele><time>2026-04-11T13:58:05Z</time></trkpt><trkpt lat="44.92700070629745" lon="8.172973085709152"><ele>136.33333333333334</ele><time>2026-04-11T13:58:07Z</time></trkpt><trkpt lat="44.92691886570269" lon="8.173110206742264"><ele>136.16666666666669</ele><time>2026-04-11T13:58:09Z</time></trkpt><trkpt lat="44.92688054556959" lon="8.173186155673141"><ele>136.0</ele><time>2026-04-11T13:58:10Z</time></trkpt><trkpt lat="44.92679955675867" lon="8.173314355068769"><ele>136.0</ele><time>2026-04-11T13:58:12Z</time></trkpt><trkpt lat="44.92675138123484" lon="8.173373288670271"><ele>136.0</ele><time>2026-04-11T13:58:13Z</time></trkpt><trkpt lat="44.9267053378107" lon="8.173435589315948"><ele>136.0</ele><time>2026-04-11T13:58:14Z</time></trkpt><trkpt lat="44.926624371078496" lon="8.17356987996241"><ele>136.0</ele><time>2026-04-11T13:58:16Z</time></trkpt><trkpt lat="44.926545084193776" lon="8.173700947137567"><ele>136.0</ele><time>2026-04-11T13:58:18Z</time></trkpt><trkpt lat="44.926461677670034" lon="8.173824209585902"><ele>136.0</ele><time>2026-04-11T13:58:20Z</time></trkpt><trkpt lat="44.92637212161245" lon="8.173942210502165"><ele>136.0</ele><time>2026-04-11T13:58:22Z</time></trkpt><trkpt lat="44.926278559892154" lon="8.174058787465137"><ele>136.0</ele><time>2026-04-11T13:58:24Z</time></trkpt><trkpt lat="44.926180201698244" lon="8.174157870369692"><ele>136.0</ele><time>2026-04-11T13:58:26Z</time></trkpt><trkpt lat="44.926070394582574" lon="8.174236923194607"><ele>136.0</ele><time>2026-04-11T13:58:28Z</time></trkpt><trkpt lat="44.92596122048912" lon="8.174313272586433"><ele>136.0</ele><time>2026-04-11T13:58:30Z</time></trkpt><trkpt lat="44.92585585020468" lon="8.174389820526605"><ele>136.0</ele><time>2026-04-11T13:58:32Z</time></trkpt><trkpt lat="44.92575697469658" lon="8.174477899196642"><ele>136.0</ele><time>2026-04-11T13:58:34Z</time></trkpt><trkpt lat="44.92566704839563" lon="8.174585091138896"><ele>135.5</ele><time>2026-04-11T13:58:36Z</time></trkpt><trkpt lat="44.925581657701365" lon="8.174707784114005"><ele>135.0</ele><time>2026-04-11T13:58:38Z</time></trkpt><trkpt lat="44.92551280045517" lon="8.174845309307926"><ele>134.5</ele><time>2026-04-11T13:58:40Z</time></trkpt><trkpt lat="44.925447538088086" lon="8.174985718129332"><ele>134.0</ele><time>2026-04-11T13:58:42Z</time></trkpt><trkpt lat="44.92541305486118" lon="8.175137681101575"><ele>134.0</ele><time>2026-04-11T13:58:44Z</time></trkpt><trkpt lat="44.92535868517762" lon="8.175282786080274"><ele>134.0</ele><time>2026-04-11T13:58:46Z</time></trkpt><trkpt lat="44.92533192288499" lon="8.175442920945898"><ele>134.0</ele><time>2026-04-11T13:58:48Z</time></trkpt><trkpt lat="44.92531101069074" lon="8.175602617780678"><ele>134.0</ele><time>2026-04-11T13:58:50Z</time></trkpt><trkpt lat="44.925292601780335" lon="8.175756386635541"><ele>134.2</ele><time>2026-04-11T13:58:52Z</time></trkpt><trkpt lat="44.92526535015088" lon="8.17590211778498"><ele>134.4</ele><time>2026-04-11T13:58:54Z</time></trkpt><trkpt lat="44.92523439698783" lon="8.176048007654366"><ele>134.6</ele><time>2026-04-11T13:58:56Z</time></trkpt><trkpt lat="44.925195458562655" lon="8.176191460504684"><ele>134.8</ele><time>2026-04-11T13:58:58Z</time></trkpt><trkpt lat="44.92514405370902" lon="8.17633265012515"><ele>135.0</ele><time>2026-04-11T13:59:00Z</time></trkpt><trkpt lat="44.925082954182926" lon="8.176458502625188"><ele>134.4</ele><time>2026-04-11T13:59:02Z</time></trkpt><trkpt lat="44.925016719473994" lon="8.176580289708724"><ele>133.8</ele><time>2026-04-11T13:59:04Z</time></trkpt><trkpt lat="44.92495270825416" lon="8.176696436402171"><ele>133.2</ele><time>2026-04-11T13:59:06Z</time></trkpt><trkpt lat="44.92489737134535" lon="8.176813842123385"><ele>132.6</ele><time>2026-04-11T13:59:08Z</time></trkpt><trkpt lat="44.92483517616701" lon="8.176922964872277"><ele>132.0</ele><time>2026-04-11T13:59:10Z</time></trkpt><trkpt lat="44.924765289164625" lon="8.177014185025737"><ele>132.0</ele><time>2026-04-11T13:59:12Z</time></trkpt><trkpt lat="44.924682721564515" lon="8.177113919251138"><ele>132.0</ele><time>2026-04-11T13:59:14Z</time></trkpt><trkpt lat="44.92459446576016" lon="8.177217373782904"><ele>132.0</ele><time>2026-04-11T13:59:16Z</time></trkpt><trkpt lat="44.9245000237348" lon="8.177316670383561"><ele>132.0</ele><time>2026-04-11T13:59:18Z</time></trkpt><trkpt lat="44.92441617325419" lon="8.177411371840199"><ele>132.0</ele><time>2026-04-11T13:59:20Z</time></trkpt><trkpt lat="44.92436709566814" lon="8.177470796624307"><ele>131.75</ele><time>2026-04-11T13:59:21Z</time></trkpt><trkpt lat="44.92428130602895" lon="8.177574778618839"><ele>131.5</ele><time>2026-04-11T13:59:23Z</time></trkpt><trkpt lat="44.9241933350541" lon="8.177668994486478"><ele>131.25</ele><time>2026-04-11T13:59:25Z</time></trkpt><trkpt lat="44.92410832855885" lon="8.177776662367348"><ele>131.0</ele><time>2026-04-11T13:59:27Z</time></trkpt><trkpt lat="44.92402182136607" lon="8.177880074641262"><ele>131.0</ele><time>2026-04-11T13:59:29Z</time></trkpt><trkpt lat="44.92392604784809" lon="8.17798485004548"><ele>131.0</ele><time>2026-04-11T13:59:31Z</time></trkpt><trkpt lat="44.923846358674226" lon="8.178080031974805"><ele>131.0</ele><time>2026-04-11T13:59:33Z</time></trkpt><trkpt lat="44.92379461593687" lon="8.178135315282615"><ele>131.0</ele><time>2026-04-11T13:59:34Z</time></trkpt><trkpt lat="44.92368928416793" lon="8.178235873851335"><ele>131.0</ele><time>2026-04-11T13:59:36Z</time></trkpt><trkpt lat="44.92363498816573" lon="8.178281832444753"><ele>131.5</ele><time>2026-04-11T13:59:37Z</time></trkpt><trkpt lat="44.92351596043801" lon="8.178349489157823"><ele>132.0</ele><time>2026-04-11T13:59:39Z</time></trkpt><trkpt lat="44.92345338474439" lon="8.178385660277735"><ele>132.5</ele><time>2026-04-11T13:59:40Z</time></trkpt><trkpt lat="44.923378530213" lon="8.178426726020165"><ele>133.0</ele><time>2026-04-11T13:59:41Z</time></trkpt><trkpt lat="44.923301226093365" lon="8.178466347251563"><ele>133.5</ele><time>2026-04-11T13:59:42Z</time></trkpt><trkpt lat="44.923225315261746" lon="8.17850210470238"><ele>134.0</ele><time>2026-04-11T13:59:43Z</time></trkpt><trkpt lat="44.92315723716426" lon="8.17853674843776"><ele>134.0</ele><time>2026-04-11T13:59:44Z</time></trkpt><trkpt lat="44.9230866490804" lon="8.17856812621366"><ele>134.0</ele><time>2026-04-11T13:59:45Z</time></trkpt><trkpt lat="44.922967757212525" lon="8.178632701070638"><ele>134.0</ele><time>2026-04-11T13:59:47Z</time></trkpt><trkpt lat="44.92285327051686" lon="8.178690804659906"><ele>134.0</ele><time>2026-04-11T13:59:49Z</time></trkpt><trkpt lat="44.922789883185544" lon="8.178717018147314"><ele>134.0</ele><time>2026-04-11T13:59:50Z</time></trkpt><trkpt lat="44.922727764642524" lon="8.17874055161737"><ele>134.0</ele><time>2026-04-11T13:59:51Z</time></trkpt><trkpt lat="44.92266542042533" lon="8.178762606303263"><ele>134.0</ele><time>2026-04-11T13:59:52Z</time></trkpt><trkpt lat="44.92260359604681" lon="8.17878081819554"><ele>134.0</ele><time>2026-04-11T13:59:53Z</time></trkpt><trkpt lat="44.92248001925935" lon="8.178819474081694"><ele>134.0</ele><time>2026-04-11T13:59:55Z</time></trkpt><trkpt lat="44.922417827267374" lon="8.178838499757738"><ele>134.0</ele><time>2026-04-11T13:59:56Z</time></trkpt><trkpt lat="44.92230848628273" lon="8.17887654269664"><ele>134.0</ele><time>2026-04-11T13:59:58Z</time></trkpt><trkpt lat="44.92220533999172" lon="8.178921278369323"><ele>133.33333333333331</ele><time>2026-04-11T14:00:00Z</time></trkpt><trkpt lat="44.922091324641464" lon="8.17896851923564"><ele>132.66666666666666</ele><time>2026-04-11T14:00:02Z</time></trkpt><trkpt lat="44.92198117224611" lon="8.179038379640417"><ele>132.0</ele><time>2026-04-11T14:00:04Z</time></trkpt><trkpt lat="44.92192197789648" lon="8.179072596881893"><ele>131.33333333333334</ele><time>2026-04-11T14:00:05Z</time></trkpt><trkpt lat="44.92186390178827" lon="8.179111974319381"><ele>130.66666666666669</ele><time>2026-04-11T14:00:06Z</time></trkpt><trkpt lat="44.921801355680536" lon="8.179146985440145"><ele>130.0</ele><time>2026-04-11T14:00:07Z</time></trkpt><trkpt lat="44.92173423638131" lon="8.179168952433361"><ele>130.14285714285717</ele><time>2026-04-11T14:00:08Z</time></trkpt><trkpt lat="44.921669280464805" lon="8.179188290374265"><ele>130.28571428571428</ele><time>2026-04-11T14:00:09Z</time></trkpt><trkpt lat="44.921603019108026" lon="8.179213684152337"><ele>130.42857142857144</ele><time>2026-04-11T14:00:10Z</time></trkpt><trkpt lat="44.921535033565725" lon="8.17924307551746"><ele>130.57142857142858</ele><time>2026-04-11T14:00:11Z</time></trkpt><trkpt lat="44.92146690262099" lon="8.179269931804106"><ele>130.71428571428572</ele><time>2026-04-11T14:00:12Z</time></trkpt><trkpt lat="44.921388647478246" lon="8.179310320609126"><ele>130.85714285714286</ele><time>2026-04-11T14:00:13Z</time></trkpt><trkpt lat="44.92132769203394" lon="8.17934476952016"><ele>131.0</ele><time>2026-04-11T14:00:14Z</time></trkpt><trkpt lat="44.92125991720459" lon="8.179371662398806"><ele>131.0</ele><time>2026-04-11T14:00:15Z</time></trkpt><trkpt lat="44.92119272526917" lon="8.17939635651583"><ele>131.0</ele><time>2026-04-11T14:00:16Z</time></trkpt><trkpt lat="44.92112274511205" lon="8.179421562895891"><ele>131.0</ele><time>2026-04-11T14:00:17Z</time></trkpt><trkpt lat="44.921056558970164" lon="8.179453145227964"><ele>131.0</ele><time>2026-04-11T14:00:18Z</time></trkpt><trkpt lat="44.92098329205331" lon="8.17948888250028"><ele>131.0</ele><time>2026-04-11T14:00:19Z</time></trkpt><trkpt lat="44.92091627869775" lon="8.179513589632863"><ele>131.0</ele><time>2026-04-11T14:00:20Z</time></trkpt><trkpt lat="44.92084484617261" lon="8.17954954407128"><ele>131.0</ele><time>2026-04-11T14:00:21Z</time></trkpt><trkpt lat="44.920771266696995" lon="8.179581104705193"><ele>130.66666666666666</ele><time>2026-04-11T14:00:22Z</time></trkpt><trkpt lat="44.92069830034043" lon="8.179615173851754"><ele>130.33333333333331</ele><time>2026-04-11T14:00:23Z</time></trkpt><trkpt lat="44.92062346198201" lon="8.179650724459625"><ele>130.0</ele><time>2026-04-11T14:00:24Z</time></trkpt><trkpt lat="44.920550434486394" lon="8.179685256531567"><ele>129.66666666666666</ele><time>2026-04-11T14:00:25Z</time></trkpt><trkpt lat="44.92048119163579" lon="8.179718341408297"><ele>129.33333333333334</ele><time>2026-04-11T14:00:26Z</time></trkpt><trkpt lat="44.92041023440867" lon="8.179750029857917"><ele>129.0</ele><time>2026-04-11T14:00:27Z</time></trkpt><trkpt lat="44.9203358522906" lon="8.179782353485967"><ele>129.0</ele><time>2026-04-11T14:00:28Z</time></trkpt><trkpt lat="44.92025868935995" lon="8.179813565527565"><ele>129.0</ele><time>2026-04-11T14:00:29Z</time></trkpt><trkpt lat="44.92017952772799" lon="8.17984339175071"><ele>129.0</ele><time>2026-04-11T14:00:30Z</time></trkpt><trkpt lat="44.92009995628924" lon="8.179879801800176"><ele>129.0</ele><time>2026-04-11T14:00:31Z</time></trkpt><trkpt lat="44.920022974411104" lon="8.179915399681963"><ele>129.0</ele><time>2026-04-11T14:00:32Z</time></trkpt><trkpt lat="44.9199462462307" lon="8.179949760596003"><ele>129.0</ele><time>2026-04-11T14:00:33Z</time></trkpt><trkpt lat="44.91986926567902" lon="8.17998413177646"><ele>129.5</ele><time>2026-04-11T14:00:34Z</time></trkpt><trkpt lat="44.919792615864885" lon="8.180015839414038"><ele>130.0</ele><time>2026-04-11T14:00:35Z</time></trkpt><trkpt lat="44.91971569231815" lon="8.18005185608886"><ele>130.5</ele><time>2026-04-11T14:00:36Z</time></trkpt><trkpt lat="44.91963568847007" lon="8.1800930101913"><ele>131.0</ele><time>2026-04-11T14:00:37Z</time></trkpt><trkpt lat="44.919553295839556" lon="8.180137050855034"><ele>131.5</ele><time>2026-04-11T14:00:38Z</time></trkpt><trkpt lat="44.919471984776784" lon="8.18017921047046"><ele>132.0</ele><time>2026-04-11T14:00:39Z</time></trkpt><trkpt lat="44.91938902977238" lon="8.180222702004079"><ele>132.0</ele><time>2026-04-11T14:00:40Z</time></trkpt><trkpt lat="44.91931144413919" lon="8.18026796582654"><ele>132.0</ele><time>2026-04-11T14:00:41Z</time></trkpt><trkpt lat="44.919232384435304" lon="8.180313507795857"><ele>132.0</ele><time>2026-04-11T14:00:42Z</time></trkpt><trkpt lat="44.9191524264876" lon="8.18035333079045"><ele>132.0</ele><time>2026-04-11T14:00:43Z</time></trkpt><trkpt lat="44.919072160416626" lon="8.180397845823576"><ele>132.0</ele><time>2026-04-11T14:00:44Z</time></trkpt><trkpt lat="44.91899676599196" lon="8.180443967551815"><ele>132.0</ele><time>2026-04-11T14:00:45Z</time></trkpt><trkpt lat="44.91891148354231" lon="8.180487193556901"><ele>132.0</ele><time>2026-04-11T14:00:46Z</time></trkpt><trkpt lat="44.91882718686557" lon="8.18051377452176"><ele>132.0</ele><time>2026-04-11T14:00:47Z</time></trkpt><trkpt lat="44.91873922354371" lon="8.18056000485926"><ele>132.0</ele><time>2026-04-11T14:00:48Z</time></trkpt><trkpt lat="44.91865938099926" lon="8.18061025031171"><ele>132.0</ele><time>2026-04-11T14:00:49Z</time></trkpt><trkpt lat="44.918582471099846" lon="8.180655009047754"><ele>132.0</ele><time>2026-04-11T14:00:50Z</time></trkpt><trkpt lat="44.91850197372492" lon="8.180702054140983"><ele>132.0</ele><time>2026-04-11T14:00:51Z</time></trkpt><trkpt lat="44.918423930996084" lon="8.180749970504468"><ele>131.83333333333334</ele><time>2026-04-11T14:00:52Z</time></trkpt><trkpt lat="44.91833960786406" lon="8.180794796024975"><ele>131.66666666666666</ele><time>2026-04-11T14:00:53Z</time></trkpt><trkpt lat="44.91825697326467" lon="8.180837919634218"><ele>131.5</ele><time>2026-04-11T14:00:54Z</time></trkpt><trkpt lat="44.91817862706745" lon="8.180889540645648"><ele>131.33333333333331</ele><time>2026-04-11T14:00:55Z</time></trkpt><trkpt lat="44.91809888479628" lon="8.180937791839328"><ele>131.16666666666666</ele><time>2026-04-11T14:00:56Z</time></trkpt><trkpt lat="44.918015587475175" lon="8.18098479719165"><ele>131.0</ele><time>2026-04-11T14:00:57Z</time></trkpt><trkpt lat="44.91792828077915" lon="8.181026978836401"><ele>131.0</ele><time>2026-04-11T14:00:58Z</time></trkpt><trkpt lat="44.91784168666408" lon="8.181070785924904"><ele>131.0</ele><time>2026-04-11T14:00:59Z</time></trkpt><trkpt lat="44.91776656250162" lon="8.18113932271767"><ele>131.0</ele><time>2026-04-11T14:01:00Z</time></trkpt><trkpt lat="44.91768224224643" lon="8.181171284488043"><ele>131.0</ele><time>2026-04-11T14:01:01Z</time></trkpt><trkpt lat="44.91760845477957" lon="8.181222245904145"><ele>131.0</ele><time>2026-04-11T14:01:02Z</time></trkpt><trkpt lat="44.91752909377461" lon="8.181274600004933"><ele>131.0</ele><time>2026-04-11T14:01:03Z</time></trkpt><trkpt lat="44.91744543741624" lon="8.181327154127365"><ele>131.0</ele><time>2026-04-11T14:01:04Z</time></trkpt><trkpt lat="44.91736515542794" lon="8.181377441980734"><ele>131.0</ele><time>2026-04-11T14:01:05Z</time></trkpt><trkpt lat="44.917284495056066" lon="8.181423729916835"><ele>131.0</ele><time>2026-04-11T14:01:06Z</time></trkpt><trkpt lat="44.91720424724464" lon="8.181467810925078"><ele>131.0</ele><time>2026-04-11T14:01:07Z</time></trkpt><trkpt lat="44.91712092704374" lon="8.181507881449818"><ele>131.0</ele><time>2026-04-11T14:01:08Z</time></trkpt><trkpt lat="44.91704050998373" lon="8.181553688972874"><ele>131.0</ele><time>2026-04-11T14:01:09Z</time></trkpt><trkpt lat="44.916956632314594" lon="8.181595917993175"><ele>130.83333333333331</ele><time>2026-04-11T14:01:10Z</time></trkpt><trkpt lat="44.91687267363863" lon="8.18163301434829"><ele>130.66666666666666</ele><time>2026-04-11T14:01:11Z</time></trkpt><trkpt lat="44.91678866712787" lon="8.181669265428406"><ele>130.5</ele><time>2026-04-11T14:01:12Z</time></trkpt><trkpt lat="44.91671496367722" lon="8.181707668320767"><ele>130.33333333333334</ele><time>2026-04-11T14:01:13Z</time></trkpt><trkpt lat="44.91663424032033" lon="8.1817469307592"><ele>130.16666666666669</ele><time>2026-04-11T14:01:14Z</time></trkpt><trkpt lat="44.91655224526232" lon="8.181786020106625"><ele>130.0</ele><time>2026-04-11T14:01:15Z</time></trkpt><trkpt lat="44.91647284866674" lon="8.181821359790467"><ele>130.0</ele><time>2026-04-11T14:01:16Z</time></trkpt><trkpt lat="44.91639266528599" lon="8.18185620007039"><ele>130.0</ele><time>2026-04-11T14:01:17Z</time></trkpt><trkpt lat="44.916316518985575" lon="8.181894840097197"><ele>130.0</ele><time>2026-04-11T14:01:18Z</time></trkpt><trkpt lat="44.91624387878879" lon="8.181929272867249"><ele>130.0</ele><time>2026-04-11T14:01:19Z</time></trkpt><trkpt lat="44.91616680769975" lon="8.181961682343116"><ele>130.0</ele><time>2026-04-11T14:01:20Z</time></trkpt><trkpt lat="44.916085332926" lon="8.182000846575422"><ele>130.0</ele><time>2026-04-11T14:01:21Z</time></trkpt><trkpt lat="44.91601260222104" lon="8.18203354290113"><ele>130.0</ele><time>2026-04-11T14:01:22Z</time></trkpt><trkpt lat="44.91592349994209" lon="8.182071481380058"><ele>130.0</ele><time>2026-04-11T14:01:23Z</time></trkpt><trkpt lat="44.915843868529635" lon="8.182110195978998"><ele>130.0</ele><time>2026-04-11T14:01:24Z</time></trkpt><trkpt lat="44.91576184576669" lon="8.182144232691105"><ele>130.0</ele><time>2026-04-11T14:01:25Z</time></trkpt><trkpt lat="44.91568018161257" lon="8.182178203544607"><ele>130.0</ele><time>2026-04-11T14:01:26Z</time></trkpt><trkpt lat="44.915597257808585" lon="8.182210865208035"><ele>130.0</ele><time>2026-04-11T14:01:27Z</time></trkpt><trkpt lat="44.91550998715779" lon="8.182240770985242"><ele>130.0</ele><time>2026-04-11T14:01:28Z</time></trkpt><trkpt lat="44.91541714608021" lon="8.182265069250247"><ele>130.0</ele><time>2026-04-11T14:01:29Z</time></trkpt><trkpt lat="44.91532290805269" lon="8.182287507618037"><ele>130.0</ele><time>2026-04-11T14:01:30Z</time></trkpt><trkpt lat="44.915229729622936" lon="8.182306113978566"><ele>130.0</ele><time>2026-04-11T14:01:31Z</time></trkpt><trkpt lat="44.915139494078545" lon="8.182321574711578"><ele>130.0</ele><time>2026-04-11T14:01:32Z</time></trkpt><trkpt lat="44.91504929138545" lon="8.182333278368745"><ele>130.0</ele><time>2026-04-11T14:01:33Z</time></trkpt><trkpt lat="44.91496123742881" lon="8.18234548348023"><ele>130.0</ele><time>2026-04-11T14:01:34Z</time></trkpt><trkpt lat="44.914876613571494" lon="8.182365944136361"><ele>130.0</ele><time>2026-04-11T14:01:35Z</time></trkpt><trkpt lat="44.91479115089668" lon="8.182372648278164"><ele>130.0</ele><time>2026-04-11T14:01:36Z</time></trkpt><trkpt lat="44.91470553543718" lon="8.18238140932806"><ele>130.0</ele><time>2026-04-11T14:01:37Z</time></trkpt><trkpt lat="44.91461806351344" lon="8.182388029843237"><ele>130.0</ele><time>2026-04-11T14:01:38Z</time></trkpt><trkpt lat="44.91452912840784" lon="8.18239106953349"><ele>130.2</ele><time>2026-04-11T14:01:39Z</time></trkpt><trkpt lat="44.91443419774782" lon="8.18238744035929"><ele>130.4</ele><time>2026-04-11T14:01:40Z</time></trkpt><trkpt lat="44.914340510867405" lon="8.182379877874407"><ele>130.6</ele><time>2026-04-11T14:01:41Z</time></trkpt><trkpt lat="44.914249530506716" lon="8.182365516577143"><ele>130.8</ele><time>2026-04-11T14:01:42Z</time></trkpt><trkpt lat="44.91415382647048" lon="8.18235208292855"><ele>131.0</ele><time>2026-04-11T14:01:43Z</time></trkpt><trkpt lat="44.91406213605338" lon="8.182338739815345"><ele>130.4</ele><time>2026-04-11T14:01:44Z</time></trkpt><trkpt lat="44.91396300754232" lon="8.18230876400841"><ele>129.8</ele><time>2026-04-11T14:01:45Z</time></trkpt><trkpt lat="44.913876580816" lon="8.182265011620855"><ele>129.20000000000002</ele><time>2026-04-11T14:01:46Z</time></trkpt><trkpt lat="44.913785719182926" lon="8.182236591720107"><ele>128.6</ele><time>2026-04-11T14:01:47Z</time></trkpt><trkpt lat="44.91369846249628" lon="8.182207532502566"><ele>128.0</ele><time>2026-04-11T14:01:48Z</time></trkpt><trkpt lat="44.913609500457305" lon="8.182181536339844"><ele>127.99999999999999</ele><time>2026-04-11T14:01:49Z</time></trkpt><trkpt lat="44.91352583584602" lon="8.182158137993062"><ele>128.0</ele><time>2026-04-11T14:01:50Z</time></trkpt><trkpt lat="44.913438187367824" lon="8.18212607130342"><ele>128.0</ele><time>2026-04-11T14:01:51Z</time></trkpt><trkpt lat="44.91335430331952" lon="8.182100208002298"><ele>128.0</ele><time>2026-04-11T14:01:52Z</time></trkpt><trkpt lat="44.91326914141537" lon="8.18208129818787"><ele>127.99999999999999</ele><time>2026-04-11T14:01:53Z</time></trkpt><trkpt lat="44.91317892567943" lon="8.182059099561178"><ele>128.0</ele><time>2026-04-11T14:01:54Z</time></trkpt><trkpt lat="44.91309313481811" lon="8.182035966069396"><ele>128.16666666666666</ele><time>2026-04-11T14:01:55Z</time></trkpt><trkpt lat="44.91301025553417" lon="8.18201148106479"><ele>128.33333333333331</ele><time>2026-04-11T14:01:56Z</time></trkpt><trkpt lat="44.912933678328635" lon="8.181998573138769"><ele>128.5</ele><time>2026-04-11T14:01:57Z</time></trkpt><trkpt lat="44.912839506873794" lon="8.181971209688012"><ele>128.66666666666666</ele><time>2026-04-11T14:01:58Z</time></trkpt><trkpt lat="44.912752337415675" lon="8.181945131864879"><ele>128.83333333333334</ele><time>2026-04-11T14:01:59Z</time></trkpt><trkpt lat="44.9126644220561" lon="8.181914586695699"><ele>129.0</ele><time>2026-04-11T14:02:00Z</time></trkpt><trkpt lat="44.912576673611866" lon="8.181887816116893"><ele>129.0</ele><time>2026-04-11T14:02:01Z</time></trkpt><trkpt lat="44.91249801715683" lon="8.181861915940026"><ele>129.0</ele><time>2026-04-11T14:02:02Z</time></trkpt><trkpt lat="44.91240929676915" lon="8.18184389742207"><ele>129.0</ele><time>2026-04-11T14:02:03Z</time></trkpt><trkpt lat="44.912311726287065" lon="8.181814548889648"><ele>129.0</ele><time>2026-04-11T14:02:04Z</time></trkpt><trkpt lat="44.912219431471584" lon="8.181806193647141"><ele>129.0</ele><time>2026-04-11T14:02:05Z</time></trkpt><trkpt lat="44.912130832051425" lon="8.181800589804979"><ele>129.0</ele><time>2026-04-11T14:02:06Z</time></trkpt><trkpt lat="44.91204413019494" lon="8.18180513236374"><ele>129.0</ele><time>2026-04-11T14:02:07Z</time></trkpt><trkpt lat="44.911959011894886" lon="8.18180780314051"><ele>129.0</ele><time>2026-04-11T14:02:08Z</time></trkpt><trkpt lat="44.91186541410336" lon="8.181817989702006"><ele>129.0</ele><time>2026-04-11T14:02:09Z</time></trkpt><trkpt lat="44.91177379551245" lon="8.181839831164538"><ele>129.0</ele><time>2026-04-11T14:02:10Z</time></trkpt><trkpt lat="44.911685455773764" lon="8.181865586940287"><ele>129.0</ele><time>2026-04-11T14:02:11Z</time></trkpt><trkpt lat="44.91160069795632" lon="8.181890341754432"><ele>129.5</ele><time>2026-04-11T14:02:12Z</time></trkpt><trkpt lat="44.91151638721728" lon="8.181923337940422"><ele>130.0</ele><time>2026-04-11T14:02:13Z</time></trkpt><trkpt lat="44.91144334388618" lon="8.18195813632875"><ele>130.5</ele><time>2026-04-11T14:02:14Z</time></trkpt><trkpt lat="44.91136624534887" lon="8.181998834658177"><ele>131.0</ele><time>2026-04-11T14:02:15Z</time></trkpt><trkpt lat="44.91127916864518" lon="8.182013151673361"><ele>131.5</ele><time>2026-04-11T14:02:16Z</time></trkpt><trkpt lat="44.911203581473714" lon="8.182055355429332"><ele>132.0</ele><time>2026-04-11T14:02:17Z</time></trkpt><trkpt lat="44.91113104011532" lon="8.182105779042056"><ele>132.0</ele><time>2026-04-11T14:02:18Z</time></trkpt><trkpt lat="44.91106465110458" lon="8.18216251904904"><ele>132.0</ele><time>2026-04-11T14:02:19Z</time></trkpt><trkpt lat="44.91099283064357" lon="8.182210733885114"><ele>132.0</ele><time>2026-04-11T14:02:20Z</time></trkpt><trkpt lat="44.91092137171596" lon="8.182258269805612"><ele>132.0</ele><time>2026-04-11T14:02:21Z</time></trkpt><trkpt lat="44.91084895712755" lon="8.182304683434038"><ele>132.0</ele><time>2026-04-11T14:02:22Z</time></trkpt><trkpt lat="44.9107783414673" lon="8.182353467873831"><ele>132.0</ele><time>2026-04-11T14:02:23Z</time></trkpt><trkpt lat="44.91070477751306" lon="8.182399034598548"><ele>131.83333333333334</ele><time>2026-04-11T14:02:24Z</time></trkpt><trkpt lat="44.91063135400546" lon="8.182440353245143"><ele>131.66666666666666</ele><time>2026-04-11T14:02:25Z</time></trkpt><trkpt lat="44.91055808650146" lon="8.1824823470009"><ele>131.5</ele><time>2026-04-11T14:02:26Z</time></trkpt><trkpt lat="44.91048506859085" lon="8.182526150358383"><ele>131.33333333333331</ele><time>2026-04-11T14:02:27Z</time></trkpt><trkpt lat="44.91041304573641" lon="8.18256762426077"><ele>131.16666666666666</ele><time>2026-04-11T14:02:28Z</time></trkpt><trkpt lat="44.9103373086772" lon="8.182598101385938"><ele>131.0</ele><time>2026-04-11T14:02:29Z</time></trkpt><trkpt lat="44.91026332041608" lon="8.182630575370698"><ele>131.0</ele><time>2026-04-11T14:02:30Z</time></trkpt><trkpt lat="44.910190687969525" lon="8.18266098293588"><ele>131.0</ele><time>2026-04-11T14:02:31Z</time></trkpt><trkpt lat="44.91010896362709" lon="8.182694098935777"><ele>131.0</ele><time>2026-04-11T14:02:32Z</time></trkpt><trkpt lat="44.910033486939874" lon="8.182725269209604"><ele>131.0</ele><time>2026-04-11T14:02:33Z</time></trkpt><trkpt lat="44.90995837979268" lon="8.18275176215574"><ele>131.0</ele><time>2026-04-11T14:02:34Z</time></trkpt><trkpt lat="44.90988122450337" lon="8.182780352602826"><ele>131.0</ele><time>2026-04-11T14:02:35Z</time></trkpt><trkpt lat="44.909806140812044" lon="8.182802278351028"><ele>130.83333333333331</ele><time>2026-04-11T14:02:36Z</time></trkpt><trkpt lat="44.90973157912932" lon="8.182830288595373"><ele>130.66666666666666</ele><time>2026-04-11T14:02:37Z</time></trkpt><trkpt lat="44.909652886028766" lon="8.182861318223761"><ele>130.5</ele><time>2026-04-11T14:02:38Z</time></trkpt><trkpt lat="44.90958072978902" lon="8.182896098098848"><ele>130.33333333333334</ele><time>2026-04-11T14:02:39Z</time></trkpt><trkpt lat="44.90950556091702" lon="8.182930389532784"><ele>130.16666666666669</ele><time>2026-04-11T14:02:40Z</time></trkpt><trkpt lat="44.90942621919539" lon="8.182962580953808"><ele>130.0</ele><time>2026-04-11T14:02:41Z</time></trkpt><trkpt lat="44.909354347018244" lon="8.18299676416948"><ele>130.0</ele><time>2026-04-11T14:02:42Z</time></trkpt><trkpt lat="44.90928422867357" lon="8.183030225955116"><ele>130.0</ele><time>2026-04-11T14:02:43Z</time></trkpt><trkpt lat="44.90921567412635" lon="8.183061473106616"><ele>130.0</ele><time>2026-04-11T14:02:44Z</time></trkpt><trkpt lat="44.90914855401388" lon="8.183091081881097"><ele>130.0</ele><time>2026-04-11T14:02:45Z</time></trkpt><trkpt lat="44.90903983397674" lon="8.183137698690523"><ele>130.0</ele><time>2026-04-11T14:02:47Z</time></trkpt><trkpt lat="44.90897317607516" lon="8.183152683642454"><ele>130.0</ele><time>2026-04-11T14:02:49Z</time></trkpt><trkpt lat="44.90888418538439" lon="8.183157720812757"><ele>129.83333333333334</ele><time>2026-04-11T14:02:52Z</time></trkpt><trkpt lat="44.90878481110072" lon="8.183193493587273"><ele>129.66666666666669</ele><time>2026-04-11T14:02:55Z</time></trkpt><trkpt lat="44.90878596284234" lon="8.18329605793828"><ele>129.5</ele><time>2026-04-11T14:02:57Z</time></trkpt><trkpt lat="44.90882286666033" lon="8.183392197238277"><ele>129.33333333333334</ele><time>2026-04-11T14:02:59Z</time></trkpt><trkpt lat="44.90886467954018" lon="8.183522540446836"><ele>129.16666666666666</ele><time>2026-04-11T14:03:02Z</time></trkpt><trkpt lat="44.908898108558446" lon="8.183619251085435"><ele>129.0</ele><time>2026-04-11T14:03:06Z</time></trkpt><trkpt lat="44.90894189688036" lon="8.183707121821215"><ele>129.0</ele><time>2026-04-11T14:03:10Z</time></trkpt><trkpt lat="44.909006961260594" lon="8.183804267477978"><ele>129.0</ele><time>2026-04-11T14:03:15Z</time></trkpt><trkpt lat="44.909048506356676" lon="8.183876560111853"><ele>129.0</ele><time>2026-04-11T14:03:17Z</time></trkpt><trkpt lat="44.909099483990744" lon="8.18395931537193"><ele>129.0</ele><time>2026-04-11T14:03:19Z</time></trkpt><trkpt lat="44.909155432297275" lon="8.18404671493741"><ele>129.0</ele><time>2026-04-11T14:03:21Z</time></trkpt><trkpt lat="44.90921087745901" lon="8.184133328551345"><ele>129.0</ele><time>2026-04-11T14:03:23Z</time></trkpt><trkpt lat="44.90926405413487" lon="8.184211900378477"><ele>129.33333333333334</ele><time>2026-04-11T14:03:25Z</time></trkpt><trkpt lat="44.90929899429793" lon="8.184288725654305"><ele>129.66666666666666</ele><time>2026-04-11T14:03:27Z</time></trkpt><trkpt lat="44.90933379508898" lon="8.184413865411228"><ele>130.0</ele><time>2026-04-11T14:03:29Z</time></trkpt><trkpt lat="44.90935673808961" lon="8.184513682764305"><ele>130.33333333333331</ele><time>2026-04-11T14:03:31Z</time></trkpt><trkpt lat="44.90936218629001" lon="8.18461691473975"><ele>130.66666666666666</ele><time>2026-04-11T14:03:33Z</time></trkpt><trkpt lat="44.90927501557767" lon="8.18474254731283"><ele>131.0</ele><time>2026-04-11T14:03:37Z</time></trkpt><trkpt lat="44.90923787545812" lon="8.184825711855536"><ele>131.66666666666666</ele><time>2026-04-11T14:03:39Z</time></trkpt><trkpt lat="44.909197797705865" lon="8.18491316387164"><ele>132.33333333333331</ele><time>2026-04-11T14:03:41Z</time></trkpt><trkpt lat="44.909161001458344" lon="8.184996951162525"><ele>133.0</ele><time>2026-04-11T14:03:43Z</time></trkpt><trkpt lat="44.90911448687079" lon="8.18510523176161"><ele>133.66666666666666</ele><time>2026-04-11T14:03:45Z</time></trkpt><trkpt lat="44.909076766290994" lon="8.18519856123449"><ele>134.33333333333334</ele><time>2026-04-11T14:03:47Z</time></trkpt><trkpt lat="44.90904415647465" lon="8.185279004469841"><ele>135.0</ele><time>2026-04-11T14:03:49Z</time></trkpt><trkpt lat="44.90900626509569" lon="8.185372476883064"><ele>135.0</ele><time>2026-04-11T14:03:51Z</time></trkpt><trkpt lat="44.90879305365085" lon="8.185278183069327"><ele>135.0</ele><time>2026-04-11T14:03:52Z</time></trkpt><trkpt lat="44.90872545549486" lon="8.185357189380857"><ele>135.0</ele><time>2026-04-11T14:03:54Z</time></trkpt><trkpt lat="44.90866247901785" lon="8.185432530687882"><ele>135.0</ele><time>2026-04-11T14:03:56Z</time></trkpt><trkpt lat="44.90860234792764" lon="8.18550479005154"><ele>135.0</ele><time>2026-04-11T14:03:58Z</time></trkpt><trkpt lat="44.90853781514671" lon="8.18558419438341"><ele>135.0</ele><time>2026-04-11T14:04:00Z</time></trkpt><trkpt lat="44.908470027420655" lon="8.185642383734011"><ele>135.0</ele><time>2026-04-11T14:04:02Z</time></trkpt><trkpt lat="44.90840989391096" lon="8.185721674229647"><ele>135.0</ele><time>2026-04-11T14:04:05Z</time></trkpt><trkpt lat="44.90834876218" lon="8.185770513960504"><ele>135.0</ele><time>2026-04-11T14:04:07Z</time></trkpt><trkpt lat="44.908288240196356" lon="8.185806901644781"><ele>135.0</ele><time>2026-04-11T14:04:10Z</time></trkpt><trkpt lat="44.908239467419754" lon="8.185901490549945"><ele>134.85714285714286</ele><time>2026-04-11T14:04:12Z</time></trkpt><trkpt lat="44.90823962762132" lon="8.185995703073287"><ele>134.7142857142857</ele><time>2026-04-11T14:04:14Z</time></trkpt><trkpt lat="44.9082182278334" lon="8.186091692539458"><ele>134.57142857142856</ele><time>2026-04-11T14:04:17Z</time></trkpt><trkpt lat="44.90821078073396" lon="8.186195602993473"><ele>134.42857142857142</ele><time>2026-04-11T14:04:18Z</time></trkpt><trkpt lat="44.90818496198351" lon="8.1862972091825"><ele>134.28571428571428</ele><time>2026-04-11T14:04:19Z</time></trkpt><trkpt lat="44.90818352118321" lon="8.186388723638105"><ele>134.14285714285714</ele><time>2026-04-11T14:04:20Z</time></trkpt><trkpt lat="44.908169230633426" lon="8.186477749548233"><ele>134.0</ele><time>2026-04-11T14:04:21Z</time></trkpt><trkpt lat="44.908146830601424" lon="8.186563140632003"><ele>134.4</ele><time>2026-04-11T14:04:22Z</time></trkpt><trkpt lat="44.908096183866846" lon="8.186690848578861"><ele>134.8</ele><time>2026-04-11T14:04:24Z</time></trkpt><trkpt lat="44.90811131839281" lon="8.186828345365793"><ele>135.2</ele><time>2026-04-11T14:04:26Z</time></trkpt><trkpt lat="44.90813838939267" lon="8.186957700404804"><ele>135.6</ele><time>2026-04-11T14:04:28Z</time></trkpt><trkpt lat="44.90817425513494" lon="8.187091912831331"><ele>136.0</ele><time>2026-04-11T14:04:30Z</time></trkpt><trkpt lat="44.90822559571943" lon="8.187253768572086"><ele>135.5</ele><time>2026-04-11T14:04:32Z</time></trkpt><trkpt lat="44.90825191063231" lon="8.18741618760026"><ele>135.0</ele><time>2026-04-11T14:04:34Z</time></trkpt><trkpt lat="44.908279902073375" lon="8.187575702647685"><ele>134.5</ele><time>2026-04-11T14:04:36Z</time></trkpt><trkpt lat="44.908277905532266" lon="8.187743105786726"><ele>134.0</ele><time>2026-04-11T14:04:38Z</time></trkpt><trkpt lat="44.908316272632106" lon="8.18788168368086"><ele>134.0</ele><time>2026-04-11T14:04:40Z</time></trkpt><trkpt lat="44.90829984646393" lon="8.188031060778"><ele>134.0</ele><time>2026-04-11T14:04:42Z</time></trkpt><trkpt lat="44.9082869083796" lon="8.188191100464438"><ele>134.0</ele><time>2026-04-11T14:04:44Z</time></trkpt><trkpt lat="44.90828337578794" lon="8.188336705623309"><ele>134.0</ele><time>2026-04-11T14:04:46Z</time></trkpt><trkpt lat="44.90827120635106" lon="8.188467791953375"><ele>134.0</ele><time>2026-04-11T14:04:48Z</time></trkpt><trkpt lat="44.90817881305178" lon="8.188462819881282"><ele>133.4</ele><time>2026-04-11T14:04:49Z</time></trkpt><trkpt lat="44.90808056871587" lon="8.188497538999192"><ele>132.8</ele><time>2026-04-11T14:04:51Z</time></trkpt><trkpt lat="44.90802545965843" lon="8.18854123005123"><ele>132.2</ele><time>2026-04-11T14:04:52Z</time></trkpt><trkpt lat="44.90790997578904" lon="8.188584796220109"><ele>131.6</ele><time>2026-04-11T14:04:54Z</time></trkpt><trkpt lat="44.90780732524279" lon="8.188618773999725"><ele>131.0</ele><time>2026-04-11T14:04:56Z</time></trkpt><trkpt lat="44.90773709913714" lon="8.18865046683935"><ele>131.0</ele><time>2026-04-11T14:04:58Z</time></trkpt><trkpt lat="44.907671187984405" lon="8.18876429331131"><ele>131.0</ele><time>2026-04-11T14:05:00Z</time></trkpt><trkpt lat="44.90760556339917" lon="8.18883790532767"><ele>131.0</ele><time>2026-04-11T14:05:02Z</time></trkpt><trkpt lat="44.90754668561142" lon="8.188898506590384"><ele>131.0</ele><time>2026-04-11T14:05:04Z</time></trkpt><trkpt lat="44.90748282922281" lon="8.189011885246417"><ele>131.0</ele><time>2026-04-11T14:05:07Z</time></trkpt><trkpt lat="44.90749319883805" lon="8.189151898274051"><ele>131.2</ele><time>2026-04-11T14:05:09Z</time></trkpt><trkpt lat="44.907512557360086" lon="8.189285050016169"><ele>131.39999999999998</ele><time>2026-04-11T14:05:11Z</time></trkpt><trkpt lat="44.90753736783766" lon="8.189436121602402"><ele>131.6</ele><time>2026-04-11T14:05:13Z</time></trkpt><trkpt lat="44.90755699298781" lon="8.189589276952617"><ele>131.79999999999998</ele><time>2026-04-11T14:05:15Z</time></trkpt><trkpt lat="44.9075732714926" lon="8.189760070475412"><ele>132.0</ele><time>2026-04-11T14:05:17Z</time></trkpt><trkpt lat="44.90758829121309" lon="8.18992104976553"><ele>132.0</ele><time>2026-04-11T14:05:19Z</time></trkpt><trkpt lat="44.907579612709405" lon="8.190019079244427"><ele>132.0</ele><time>2026-04-11T14:05:20Z</time></trkpt><trkpt lat="44.90757780484451" lon="8.190110600960345"><ele>132.0</ele><time>2026-04-11T14:05:21Z</time></trkpt><trkpt lat="44.90755473163608" lon="8.190200087816063"><ele>132.0</ele><time>2026-04-11T14:05:22Z</time></trkpt><trkpt lat="44.907543626971076" lon="8.19029019358615"><ele>132.0</ele><time>2026-04-11T14:05:23Z</time></trkpt><trkpt lat="44.9075318942609" lon="8.190383468090529"><ele>132.0</ele><time>2026-04-11T14:05:24Z</time></trkpt><trkpt lat="44.90750628524335" lon="8.190545716203214"><ele>132.0</ele><time>2026-04-11T14:05:26Z</time></trkpt><trkpt lat="44.907479371491405" lon="8.19063415463296"><ele>132.0</ele><time>2026-04-11T14:05:27Z</time></trkpt><trkpt lat="44.90738095519101" lon="8.190767807073367"><ele>132.0</ele><time>2026-04-11T14:05:29Z</time></trkpt><trkpt lat="44.907317256433856" lon="8.190806546971837"><ele>132.0</ele><time>2026-04-11T14:05:30Z</time></trkpt><trkpt lat="44.907268011534924" lon="8.190864244572552"><ele>132.0</ele><time>2026-04-11T14:05:31Z</time></trkpt><trkpt lat="44.907240154701746" lon="8.190946588453805"><ele>132.0</ele><time>2026-04-11T14:05:32Z</time></trkpt><trkpt lat="44.90724079489189" lon="8.191043409070268"><ele>131.83333333333334</ele><time>2026-04-11T14:05:33Z</time></trkpt><trkpt lat="44.90723583549198" lon="8.19114215352176"><ele>131.66666666666666</ele><time>2026-04-11T14:05:34Z</time></trkpt><trkpt lat="44.907193683017496" lon="8.19128433046917"><ele>131.5</ele><time>2026-04-11T14:05:36Z</time></trkpt><trkpt lat="44.90715438811406" lon="8.191411191532522"><ele>131.33333333333331</ele><time>2026-04-11T14:05:38Z</time></trkpt><trkpt lat="44.90711341561434" lon="8.191480017516055"><ele>131.16666666666666</ele><time>2026-04-11T14:05:39Z</time></trkpt><trkpt lat="44.907077702458714" lon="8.191557497330981"><ele>131.0</ele><time>2026-04-11T14:05:40Z</time></trkpt><trkpt lat="44.90702186439396" lon="8.191705768553819"><ele>130.6</ele><time>2026-04-11T14:05:42Z</time></trkpt><trkpt lat="44.90697284184416" lon="8.191845599112236"><ele>130.2</ele><time>2026-04-11T14:05:44Z</time></trkpt><trkpt lat="44.90693505576622" lon="8.191919529379213"><ele>129.8</ele><time>2026-04-11T14:05:45Z</time></trkpt><trkpt lat="44.90689111519126" lon="8.192063909516701"><ele>129.4</ele><time>2026-04-11T14:05:47Z</time></trkpt><trkpt lat="44.90685762647799" lon="8.192147249680382"><ele>129.0</ele><time>2026-04-11T14:05:48Z</time></trkpt><trkpt lat="44.90677322745943" lon="8.192302072636483"><ele>129.4</ele><time>2026-04-11T14:05:50Z</time></trkpt><trkpt lat="44.90671826195395" lon="8.192461225154153"><ele>129.8</ele><time>2026-04-11T14:05:52Z</time></trkpt><trkpt lat="44.90668325237962" lon="8.192550407715636"><ele>130.2</ele><time>2026-04-11T14:05:53Z</time></trkpt><trkpt lat="44.90663438732047" lon="8.19262951126642"><ele>130.6</ele><time>2026-04-11T14:05:54Z</time></trkpt><trkpt lat="44.90659462635404" lon="8.192704713072628"><ele>131.0</ele><time>2026-04-11T14:05:55Z</time></trkpt><trkpt lat="44.90652744224991" lon="8.192857167354493"><ele>131.0</ele><time>2026-04-11T14:05:57Z</time></trkpt><trkpt lat="44.90644343194141" lon="8.193015357151353"><ele>131.0</ele><time>2026-04-11T14:05:59Z</time></trkpt><trkpt lat="44.9064061237533" lon="8.193102856023982"><ele>131.0</ele><time>2026-04-11T14:06:00Z</time></trkpt><trkpt lat="44.906371655952725" lon="8.193186105442273"><ele>131.0</ele><time>2026-04-11T14:06:01Z</time></trkpt><trkpt lat="44.90633625541877" lon="8.193275871319543"><ele>131.0</ele><time>2026-04-11T14:06:02Z</time></trkpt><trkpt lat="44.906295152228225" lon="8.19335836624037"><ele>131.0</ele><time>2026-04-11T14:06:03Z</time></trkpt><trkpt lat="44.906257402396385" lon="8.193442733517674"><ele>131.8</ele><time>2026-04-11T14:06:04Z</time></trkpt><trkpt lat="44.90622684703232" lon="8.193522164422586"><ele>132.6</ele><time>2026-04-11T14:06:05Z</time></trkpt><trkpt lat="44.90619239742966" lon="8.193607035901946"><ele>133.4</ele><time>2026-04-11T14:06:06Z</time></trkpt><trkpt lat="44.906137819976855" lon="8.193743466963161"><ele>134.2</ele><time>2026-04-11T14:06:08Z</time></trkpt><trkpt lat="44.90608639897994" lon="8.193862617694679"><ele>135.0</ele><time>2026-04-11T14:06:10Z</time></trkpt><trkpt lat="44.90602454347768" lon="8.194004519048598"><ele>135.66666666666666</ele><time>2026-04-11T14:06:12Z</time></trkpt><trkpt lat="44.90598381225777" lon="8.19410150267315"><ele>136.33333333333334</ele><time>2026-04-11T14:06:14Z</time></trkpt><trkpt lat="44.90593099189058" lon="8.19416429658509"><ele>137.0</ele><time>2026-04-11T14:06:17Z</time></trkpt><trkpt lat="44.905918233260735" lon="8.194291119913343"><ele>137.66666666666669</ele><time>2026-04-11T14:06:20Z</time></trkpt><trkpt lat="44.90591430142333" lon="8.19443128981095"><ele>138.33333333333334</ele><time>2026-04-11T14:06:22Z</time></trkpt><trkpt lat="44.90587642999896" lon="8.194512373063512"><ele>139.0</ele><time>2026-04-11T14:06:25Z</time></trkpt><trkpt lat="44.9058142652827" lon="8.19458457377915"><ele>139.16666666666669</ele><time>2026-04-11T14:06:27Z</time></trkpt><trkpt lat="44.905773040934044" lon="8.194665405330923"><ele>139.33333333333334</ele><time>2026-04-11T14:06:28Z</time></trkpt><trkpt lat="44.90571269302192" lon="8.194756059809041"><ele>139.5</ele><time>2026-04-11T14:06:30Z</time></trkpt><trkpt lat="44.90567706016189" lon="8.19488339058199"><ele>139.66666666666666</ele><time>2026-04-11T14:06:33Z</time></trkpt><trkpt lat="44.90559836124485" lon="8.194989476210903"><ele>139.83333333333331</ele><time>2026-04-11T14:06:36Z</time></trkpt><trkpt lat="44.90561927867669" lon="8.195091926256657"><ele>140.0</ele><time>2026-04-11T14:06:39Z</time></trkpt><trkpt lat="44.905573031606" lon="8.195201492336924"><ele>140.5</ele><time>2026-04-11T14:06:41Z</time></trkpt><trkpt lat="44.90552335784974" lon="8.195265882240887"><ele>141.0</ele><time>2026-04-11T14:06:43Z</time></trkpt><trkpt lat="44.905482015059384" lon="8.195346447749783"><ele>141.5</ele><time>2026-04-11T14:06:44Z</time></trkpt><trkpt lat="44.90544250600422" lon="8.195476895978834"><ele>142.0</ele><time>2026-04-11T14:06:47Z</time></trkpt><trkpt lat="44.905438274580284" lon="8.195572834861185"><ele>142.5</ele><time>2026-04-11T14:06:49Z</time></trkpt><trkpt lat="44.90539804551514" lon="8.195711022798719"><ele>143.0</ele><time>2026-04-11T14:06:51Z</time></trkpt><trkpt lat="44.90536811042664" lon="8.19581279262134"><ele>143.5</ele><time>2026-04-11T14:06:52Z</time></trkpt><trkpt lat="44.9053406362325" lon="8.195897750998782"><ele>144.0</ele><time>2026-04-11T14:06:53Z</time></trkpt><trkpt lat="44.9052971863403" lon="8.195986298414411"><ele>144.5</ele><time>2026-04-11T14:06:54Z</time></trkpt><trkpt lat="44.9052675475722" lon="8.196074741198105"><ele>145.0</ele><time>2026-04-11T14:06:55Z</time></trkpt><trkpt lat="44.905211207090375" lon="8.196129661258649"><ele>145.5</ele><time>2026-04-11T14:06:56Z</time></trkpt><trkpt lat="44.90514189974178" lon="8.196162914574675"><ele>146.0</ele><time>2026-04-11T14:06:56.999Z</time></trkpt><trkpt lat="44.90513803142704" lon="8.196358475109365"><ele>146.0</ele><time>2026-04-11T14:06:58.999Z</time></trkpt><trkpt lat="44.905134865171256" lon="8.19646170729629"><ele>146.0</ele><time>2026-04-11T14:06:59.999Z</time></trkpt><trkpt lat="44.90509964298523" lon="8.196643471413347"><ele>146.0</ele><time>2026-04-11T14:07:02Z</time></trkpt><trkpt lat="44.90505258373508" lon="8.196744480495804"><ele>146.0</ele><time>2026-04-11T14:07:03Z</time></trkpt><trkpt lat="44.90500880953901" lon="8.196827822799348"><ele>146.0</ele><time>2026-04-11T14:07:04Z</time></trkpt><trkpt lat="44.904976580239065" lon="8.196956133525147"><ele>146.0</ele><time>2026-04-11T14:07:06Z</time></trkpt><trkpt lat="44.9049410758407" lon="8.19703930314682"><ele>146.0</ele><time>2026-04-11T14:07:07Z</time></trkpt><trkpt lat="44.90491512682796" lon="8.197123548811648"><ele>146.0</ele><time>2026-04-11T14:07:08Z</time></trkpt><trkpt lat="44.904846375807864" lon="8.197264595660169"><ele>146.0</ele><time>2026-04-11T14:07:10Z</time></trkpt><trkpt lat="44.904784941876734" lon="8.197382839929174"><ele>146.0</ele><time>2026-04-11T14:07:12Z</time></trkpt><trkpt lat="44.90474463292095" lon="8.197517053431506"><ele>146.2</ele><time>2026-04-11T14:07:14Z</time></trkpt><trkpt lat="44.90471770129311" lon="8.19764524069627"><ele>146.39999999999998</ele><time>2026-04-11T14:07:16Z</time></trkpt><trkpt lat="44.90469518180518" lon="8.197764342927222"><ele>146.6</ele><time>2026-04-11T14:07:18Z</time></trkpt><trkpt lat="44.904666019422" lon="8.197877623318831"><ele>146.79999999999998</ele><time>2026-04-11T14:07:20Z</time></trkpt><trkpt lat="44.90462122621315" lon="8.198012570921211"><ele>147.0</ele><time>2026-04-11T14:07:24Z</time></trkpt><trkpt lat="44.90457743069248" lon="8.19810739457628"><ele>147.57142857142858</ele><time>2026-04-11T14:07:26Z</time></trkpt><trkpt lat="44.904554876392766" lon="8.198205407598447"><ele>148.14285714285714</ele><time>2026-04-11T14:07:28Z</time></trkpt><trkpt lat="44.904527411716884" lon="8.198306726057858"><ele>148.71428571428572</ele><time>2026-04-11T14:07:30Z</time></trkpt><trkpt lat="44.904489900820714" lon="8.198396167776382"><ele>149.28571428571428</ele><time>2026-04-11T14:07:32Z</time></trkpt><trkpt lat="44.90444068839619" lon="8.198469395078792"><ele>149.85714285714286</ele><time>2026-04-11T14:07:34Z</time></trkpt><trkpt lat="44.90438932886451" lon="8.198538572885495"><ele>150.42857142857144</ele><time>2026-04-11T14:07:36Z</time></trkpt><trkpt lat="44.904365037548466" lon="8.198633229783946"><ele>151.0</ele><time>2026-04-11T14:07:38Z</time></trkpt><trkpt lat="44.90431671373718" lon="8.198720506966708"><ele>150.83333333333334</ele><time>2026-04-11T14:07:40Z</time></trkpt><trkpt lat="44.90424223468915" lon="8.198797079111747"><ele>150.66666666666669</ele><time>2026-04-11T14:07:41Z</time></trkpt><trkpt lat="44.90414921196269" lon="8.198874052205893"><ele>150.5</ele><time>2026-04-11T14:07:42Z</time></trkpt><trkpt lat="44.90407552733589" lon="8.19891364554643"><ele>150.33333333333334</ele><time>2026-04-11T14:07:43Z</time></trkpt><trkpt lat="44.90401147351354" lon="8.1989603228659"><ele>150.16666666666666</ele><time>2026-04-11T14:07:44Z</time></trkpt><trkpt lat="44.90398854696591" lon="8.199071308558528"><ele>150.0</ele><time>2026-04-11T14:07:45Z</time></trkpt><trkpt lat="44.903904285993036" lon="8.199056809697007"><ele>150.0</ele><time>2026-04-11T14:07:46Z</time></trkpt><trkpt lat="44.903856985818564" lon="8.199120124563496"><ele>150.0</ele><time>2026-04-11T14:07:47Z</time></trkpt><trkpt lat="44.90381129174327" lon="8.199183161829117"><ele>150.0</ele><time>2026-04-11T14:07:48Z</time></trkpt><trkpt lat="44.90376131024261" lon="8.19924640713581"><ele>150.0</ele><time>2026-04-11T14:07:49Z</time></trkpt><trkpt lat="44.903669026006426" lon="8.199321602484957"><ele>150.0</ele><time>2026-04-11T14:07:51Z</time></trkpt><trkpt lat="44.903583152269235" lon="8.19943493677269"><ele>150.0</ele><time>2026-04-11T14:07:53Z</time></trkpt><trkpt lat="44.90343218797729" lon="8.199481799350444"><ele>150.0</ele><time>2026-04-11T14:07:55Z</time></trkpt><trkpt lat="44.903362859755006" lon="8.199522827916658"><ele>150.0</ele><time>2026-04-11T14:07:56Z</time></trkpt><trkpt lat="44.90328409965611" lon="8.199559760197342"><ele>150.0</ele><time>2026-04-11T14:07:57Z</time></trkpt><trkpt lat="44.903207845570414" lon="8.199603998215839"><ele>150.0</ele><time>2026-04-11T14:07:58Z</time></trkpt><trkpt lat="44.90313037994619" lon="8.199643689648251"><ele>150.0</ele><time>2026-04-11T14:07:59Z</time></trkpt><trkpt lat="44.903050422931656" lon="8.199690111123562"><ele>150.0</ele><time>2026-04-11T14:08:00Z</time></trkpt><trkpt lat="44.90298280136629" lon="8.199720646834894"><ele>150.0</ele><time>2026-04-11T14:08:01Z</time></trkpt><trkpt lat="44.902886848988146" lon="8.19977875206865"><ele>150.0</ele><time>2026-04-11T14:08:03Z</time></trkpt><trkpt lat="44.9027824940226" lon="8.19983317144822"><ele>150.0</ele><time>2026-04-11T14:08:05Z</time></trkpt><trkpt lat="44.90264202325519" lon="8.199858181882652"><ele>150.0</ele><time>2026-04-11T14:08:07Z</time></trkpt><trkpt lat="44.902558767935346" lon="8.199878885474225"><ele>150.0</ele><time>2026-04-11T14:08:08Z</time></trkpt><trkpt lat="44.902473444776604" lon="8.199897916982822"><ele>148.5</ele><time>2026-04-11T14:08:09Z</time></trkpt><trkpt lat="44.902395234892175" lon="8.199917559568547"><ele>147.0</ele><time>2026-04-11T14:08:10Z</time></trkpt><trkpt lat="44.90231320690239" lon="8.199940410553467"><ele>145.5</ele><time>2026-04-11T14:08:11Z</time></trkpt><trkpt lat="44.9022292695661" lon="8.199963967189131"><ele>144.0</ele><time>2026-04-11T14:08:12Z</time></trkpt><trkpt lat="44.90216013720057" lon="8.199984094704858"><ele>142.5</ele><time>2026-04-11T14:08:13Z</time></trkpt><trkpt lat="44.902083532588684" lon="8.200006397726264"><ele>141.0</ele><time>2026-04-11T14:08:14Z</time></trkpt><trkpt lat="44.902018974260514" lon="8.200025193499988"><ele>141.0</ele><time>2026-04-11T14:08:15Z</time></trkpt><trkpt lat="44.90189578387333" lon="8.200049853386254"><ele>141.0</ele><time>2026-04-11T14:08:17Z</time></trkpt><trkpt lat="44.90178618517396" lon="8.20006342335808"><ele>141.0</ele><time>2026-04-11T14:08:19Z</time></trkpt><trkpt lat="44.90169996037996" lon="8.200060900380445"><ele>141.0</ele><time>2026-04-11T14:08:21Z</time></trkpt><trkpt lat="44.901627406185135" lon="8.20000820367834"><ele>141.0</ele><time>2026-04-11T14:08:24Z</time></trkpt><trkpt lat="44.90160510788493" lon="8.19986880260094"><ele>140.4</ele><time>2026-04-11T14:08:25Z</time></trkpt><trkpt lat="44.90156417520314" lon="8.199731455049552"><ele>139.8</ele><time>2026-04-11T14:08:27Z</time></trkpt><trkpt lat="44.90153684324426" lon="8.199604323396661"><ele>139.20000000000002</ele><time>2026-04-11T14:08:29Z</time></trkpt><trkpt lat="44.90151273370516" lon="8.199471282370993"><ele>138.6</ele><time>2026-04-11T14:08:31Z</time></trkpt><trkpt lat="44.90147811004642" lon="8.199345972620614"><ele>138.0</ele><time>2026-04-11T14:08:33Z</time></trkpt><trkpt lat="44.90144137713328" lon="8.199216253292002"><ele>138.0</ele><time>2026-04-11T14:08:35Z</time></trkpt><trkpt lat="44.9014106906198" lon="8.199080122583213"><ele>138.0</ele><time>2026-04-11T14:08:37Z</time></trkpt><trkpt lat="44.901389003479785" lon="8.198954281287437"><ele>138.0</ele><time>2026-04-11T14:08:39Z</time></trkpt><trkpt lat="44.90138510617309" lon="8.198796705687721"><ele>138.0</ele><time>2026-04-11T14:08:41Z</time></trkpt><trkpt lat="44.901389031267655" lon="8.198688690897265"><ele>138.0</ele><time>2026-04-11T14:08:43Z</time></trkpt><trkpt lat="44.90139860680766" lon="8.198552271781775"><ele>138.33333333333334</ele><time>2026-04-11T14:08:45Z</time></trkpt><trkpt lat="44.901385975370516" lon="8.198429203532422"><ele>138.66666666666666</ele><time>2026-04-11T14:08:46.999Z</time></trkpt><trkpt lat="44.9013480421849" lon="8.198331590901946"><ele>139.0</ele><time>2026-04-11T14:08:48.999Z</time></trkpt><trkpt lat="44.90133848900334" lon="8.198219826578471"><ele>139.33333333333331</ele><time>2026-04-11T14:08:50.999Z</time></trkpt><trkpt lat="44.901328192357056" lon="8.19812435984653"><ele>139.66666666666666</ele><time>2026-04-11T14:08:52.999Z</time></trkpt><trkpt lat="44.90127927943669" lon="8.198029425041494"><ele>140.0</ele><time>2026-04-11T14:08:54.999Z</time></trkpt><trkpt lat="44.901275619601684" lon="8.197895540837594"><ele>140.28571428571428</ele><time>2026-04-11T14:08:57.999Z</time></trkpt><trkpt lat="44.90127321055034" lon="8.19778196842817"><ele>140.57142857142856</ele><time>2026-04-11T14:08:59.999Z</time></trkpt><trkpt lat="44.90126150883346" lon="8.197670946595348"><ele>140.85714285714286</ele><time>2026-04-11T14:09:01.999Z</time></trkpt><trkpt lat="44.901257436089686" lon="8.197569592082628"><ele>141.14285714285714</ele><time>2026-04-11T14:09:03.999Z</time></trkpt><trkpt lat="44.90123892735415" lon="8.197478336538886"><ele>141.42857142857142</ele><time>2026-04-11T14:09:05.999Z</time></trkpt><trkpt lat="44.90122529300701" lon="8.197376527045833"><ele>141.71428571428572</ele><time>2026-04-11T14:09:08Z</time></trkpt><trkpt lat="44.9012039946982" lon="8.197274823002894"><ele>142.0</ele><time>2026-04-11T14:09:10Z</time></trkpt><trkpt lat="44.90117719254245" lon="8.197186686079107"><ele>142.2</ele><time>2026-04-11T14:09:12Z</time></trkpt><trkpt lat="44.90115145930438" lon="8.19706308446598"><ele>142.39999999999998</ele><time>2026-04-11T14:09:15Z</time></trkpt><trkpt lat="44.90112791144928" lon="8.196958239229721"><ele>142.60000000000002</ele><time>2026-04-11T14:09:19Z</time></trkpt><trkpt lat="44.90103327960883" lon="8.19693445685885"><ele>142.8</ele><time>2026-04-11T14:09:23Z</time></trkpt><trkpt lat="44.900946719155804" lon="8.196987929718949"><ele>143.0</ele><time>2026-04-11T14:09:25Z</time></trkpt><trkpt lat="44.90085848877733" lon="8.197042895043916"><ele>142.6</ele><time>2026-04-11T14:09:27Z</time></trkpt><trkpt lat="44.900776747656" lon="8.197087137267173"><ele>142.20000000000002</ele><time>2026-04-11T14:09:29Z</time></trkpt><trkpt lat="44.90068070869945" lon="8.197115142231253"><ele>141.8</ele><time>2026-04-11T14:09:31Z</time></trkpt><trkpt lat="44.9005966151759" lon="8.197152552045493"><ele>141.4</ele><time>2026-04-11T14:09:33Z</time></trkpt><trkpt lat="44.90050033507845" lon="8.197215240126331"><ele>141.0</ele><time>2026-04-11T14:09:35Z</time></trkpt><trkpt lat="44.900407261157646" lon="8.197275757407388"><ele>141.0</ele><time>2026-04-11T14:09:37Z</time></trkpt><trkpt lat="44.90035736090013" lon="8.197359871527906"><ele>141.0</ele><time>2026-04-11T14:09:39Z</time></trkpt><trkpt lat="44.90034872055747" lon="8.197467640026694"><ele>141.0</ele><time>2026-04-11T14:09:41Z</time></trkpt><trkpt lat="44.90035729878289" lon="8.19758866472208"><ele>141.0</ele><time>2026-04-11T14:09:43Z</time></trkpt><trkpt lat="44.900378100279816" lon="8.197702821771896"><ele>141.0</ele><time>2026-04-11T14:09:46Z</time></trkpt><trkpt lat="44.900386963534295" lon="8.197807660422491"><ele>141.0</ele><time>2026-04-11T14:09:49Z</time></trkpt><trkpt lat="44.90040478753783" lon="8.197897036554576"><ele>141.0</ele><time>2026-04-11T14:11:06Z</time></trkpt><trkpt lat="44.90042624990049" lon="8.198001993646598"><ele>141.0</ele><time>2026-04-11T14:11:09Z</time></trkpt><trkpt lat="44.90039916452809" lon="8.198102769268267"><ele>141.0</ele><time>2026-04-11T14:11:10.999Z</time></trkpt><trkpt lat="44.90042940249279" lon="8.198186013825124"><ele>141.0</ele><time>2026-04-11T14:11:14Z</time></trkpt><trkpt lat="44.90045835790809" lon="8.198270190319208"><ele>141.0</ele><time>2026-04-11T14:11:16Z</time></trkpt><trkpt lat="44.90049005252027" lon="8.19838275227905"><ele>141.0</ele><time>2026-04-11T14:11:19Z</time></trkpt><trkpt lat="44.90052291121228" lon="8.198483168174295"><ele>140.66666666666666</ele><time>2026-04-11T14:11:22Z</time></trkpt><trkpt lat="44.90059777592694" lon="8.198558517294366"><ele>140.33333333333334</ele><time>2026-04-11T14:11:25Z</time></trkpt><trkpt lat="44.900655647962935" lon="8.19862541927312"><ele>140.0</ele><time>2026-04-11T14:11:29Z</time></trkpt><trkpt lat="44.90069545735415" lon="8.198725625810123"><ele>139.66666666666669</ele><time>2026-04-11T14:11:32Z</time></trkpt><trkpt lat="44.900735858284904" lon="8.198812136079106"><ele>139.33333333333334</ele><time>2026-04-11T14:11:35Z</time></trkpt><trkpt lat="44.90075015982026" lon="8.198939257697496"><ele>139.0</ele><time>2026-04-11T14:11:38Z</time></trkpt><trkpt lat="44.900801350694344" lon="8.198998974276407"><ele>138.66666666666669</ele><time>2026-04-11T14:11:40Z</time></trkpt><trkpt lat="44.90081601158251" lon="8.199131356221963"><ele>138.33333333333334</ele><time>2026-04-11T14:11:43Z</time></trkpt><trkpt lat="44.90083702624021" lon="8.199219750111364"><ele>138.0</ele><time>2026-04-11T14:11:47Z</time></trkpt><trkpt lat="44.900521816900586" lon="8.199298623777178"><ele>138.0</ele><time>2026-04-11T14:11:57Z</time></trkpt><trkpt lat="44.90045604751771" lon="8.199328869373604"><ele>138.0</ele><time>2026-04-11T14:11:58Z</time></trkpt><trkpt lat="44.90039083516184" lon="8.199361618110641"><ele>138.0</ele><time>2026-04-11T14:12:02Z</time></trkpt><trkpt lat="44.9003328602385" lon="8.19941204656919"><ele>138.0</ele><time>2026-04-11T14:12:04Z</time></trkpt><trkpt lat="44.90024432887745" lon="8.199444136705283"><ele>138.0</ele><time>2026-04-11T14:12:06Z</time></trkpt><trkpt lat="44.900182666398265" lon="8.199485292350879"><ele>138.0</ele><time>2026-04-11T14:12:08Z</time></trkpt><trkpt lat="44.900101845333964" lon="8.199524099689587"><ele>138.0</ele><time>2026-04-11T14:12:11Z</time></trkpt><trkpt lat="44.90004874748585" lon="8.199584312442793"><ele>138.0</ele><time>2026-04-11T14:12:14Z</time></trkpt><trkpt lat="44.90005094173067" lon="8.199674224449238"><ele>138.0</ele><time>2026-04-11T14:12:16Z</time></trkpt><trkpt lat="44.90006885957289" lon="8.199794239711677"><ele>138.0</ele><time>2026-04-11T14:12:19Z</time></trkpt><trkpt lat="44.90008720718337" lon="8.199923929269959"><ele>138.0</ele><time>2026-04-11T14:12:22Z</time></trkpt><trkpt lat="44.900102806330146" lon="8.200029545759719"><ele>138.0</ele><time>2026-04-11T14:12:25Z</time></trkpt><trkpt lat="44.90011652963298" lon="8.200133948711306"><ele>138.0</ele><time>2026-04-11T14:12:28Z</time></trkpt><trkpt lat="44.90008448153788" lon="8.200027740609643"><ele>138.0</ele><time>2026-04-11T14:13:01.999Z</time></trkpt><trkpt lat="44.90006632370532" lon="8.199895254144158"><ele>138.0</ele><time>2026-04-11T14:13:02.999Z</time></trkpt><trkpt lat="44.90005250674463" lon="8.199798634993476"><ele>138.0</ele><time>2026-04-11T14:13:05.999Z</time></trkpt><trkpt lat="44.900000312981774" lon="8.199669539660292"><ele>138.0</ele><time>2026-04-11T14:13:07.999Z</time></trkpt><trkpt lat="44.90001665454063" lon="8.199575472408032"><ele>138.0</ele><time>2026-04-11T14:13:09.999Z</time></trkpt><trkpt lat="44.900000745139984" lon="8.199483869078293"><ele>137.8</ele><time>2026-04-11T14:13:11.999Z</time></trkpt><trkpt lat="44.8999124335383" lon="8.199338311264963"><ele>137.60000000000002</ele><time>2026-04-11T14:13:15.999Z</time></trkpt><trkpt lat="44.89983505380876" lon="8.199285611008698"><ele>137.39999999999998</ele><time>2026-04-11T14:13:17.999Z</time></trkpt><trkpt lat="44.89976463464945" lon="8.199284579613579"><ele>137.2</ele><time>2026-04-11T14:13:20Z</time></trkpt><trkpt lat="44.899672169393085" lon="8.199331470076471"><ele>137.0</ele><time>2026-04-11T14:13:22Z</time></trkpt><trkpt lat="44.899576094219455" lon="8.199388976718021"><ele>140.0</ele><time>2026-04-11T14:13:24Z</time></trkpt><trkpt lat="44.89909805140871" lon="8.199552555457021"><ele>140.0</ele><time>2026-04-11T14:13:25Z</time></trkpt><trkpt lat="44.89902217064016" lon="8.199586267335123"><ele>140.0</ele><time>2026-04-11T14:13:27Z</time></trkpt><trkpt lat="44.89891248997952" lon="8.199626579109244"><ele>140.0</ele><time>2026-04-11T14:13:29Z</time></trkpt><trkpt lat="44.898857880499314" lon="8.19971005701795"><ele>140.0</ele><time>2026-04-11T14:13:31Z</time></trkpt><trkpt lat="44.898790774871465" lon="8.199782090818246"><ele>140.0</ele><time>2026-04-11T14:13:33Z</time></trkpt><trkpt lat="44.89871469657401" lon="8.199846375302108"><ele>140.0</ele><time>2026-04-11T14:13:35Z</time></trkpt><trkpt lat="44.898633467312166" lon="8.199918997877463"><ele>140.0</ele><time>2026-04-11T14:13:38Z</time></trkpt><trkpt lat="44.898534225645186" lon="8.199969408688476"><ele>140.0</ele><time>2026-04-11T14:13:41Z</time></trkpt><trkpt lat="44.89846462021912" lon="8.200019323399005"><ele>140.0</ele><time>2026-04-11T14:13:43Z</time></trkpt><trkpt lat="44.8984718635417" lon="8.200108318741135"><ele>140.0</ele><time>2026-04-11T14:13:45Z</time></trkpt><trkpt lat="44.89849980505316" lon="8.200219157710759"><ele>140.0</ele><time>2026-04-11T14:13:47Z</time></trkpt><trkpt lat="44.89853383983254" lon="8.20033922304734"><ele>140.0</ele><time>2026-04-11T14:13:49Z</time></trkpt><trkpt lat="44.898551875415684" lon="8.200447029255368"><ele>140.0</ele><time>2026-04-11T14:13:51Z</time></trkpt><trkpt lat="44.898578481187684" lon="8.200570308304748"><ele>140.0</ele><time>2026-04-11T14:13:54Z</time></trkpt><trkpt lat="44.89858197996832" lon="8.200691291502277"><ele>140.0</ele><time>2026-04-11T14:13:57Z</time></trkpt><trkpt lat="44.8986020229655" lon="8.200791606069659"><ele>140.0</ele><time>2026-04-11T14:14:00Z</time></trkpt><trkpt lat="44.898636822408655" lon="8.200873057552457"><ele>140.0</ele><time>2026-04-11T14:14:03Z</time></trkpt><trkpt lat="44.898669177049875" lon="8.200951289066548"><ele>140.0</ele><time>2026-04-11T14:14:07Z</time></trkpt><trkpt lat="44.89871230813703" lon="8.201035974848764"><ele>139.66666666666666</ele><time>2026-04-11T14:14:10Z</time></trkpt><trkpt lat="44.89876185049594" lon="8.201126573985793"><ele>139.33333333333331</ele><time>2026-04-11T14:14:13Z</time></trkpt><trkpt lat="44.89872579700916" lon="8.201220978184477"><ele>139.0</ele><time>2026-04-11T14:14:15Z</time></trkpt><trkpt lat="44.89873741299962" lon="8.201322952963057"><ele>138.66666666666666</ele><time>2026-04-11T14:14:17Z</time></trkpt><trkpt lat="44.89875257744269" lon="8.201410749653292"><ele>138.33333333333334</ele><time>2026-04-11T14:14:19Z</time></trkpt><trkpt lat="44.898767523761684" lon="8.201507135454099"><ele>138.0</ele><time>2026-04-11T14:14:21Z</time></trkpt><trkpt lat="44.898790775296355" lon="8.20162788369784"><ele>137.5</ele><time>2026-04-11T14:14:24Z</time></trkpt><trkpt lat="44.898824348576724" lon="8.20176693572892"><ele>137.0</ele><time>2026-04-11T14:14:27Z</time></trkpt><trkpt lat="44.89884355334487" lon="8.201851969502192"><ele>136.5</ele><time>2026-04-11T14:14:29Z</time></trkpt><trkpt lat="44.89887329015013" lon="8.201931914724934"><ele>136.0</ele><time>2026-04-11T14:14:31Z</time></trkpt><trkpt lat="44.89885673549195" lon="8.20205322824192"><ele>135.5</ele><time>2026-04-11T14:14:35Z</time></trkpt><trkpt lat="44.898879762898446" lon="8.20215213281422"><ele>135.0</ele><time>2026-04-11T14:14:38Z</time></trkpt><trkpt lat="44.89888909424486" lon="8.202242027178235"><ele>135.0</ele><time>2026-04-11T14:14:42Z</time></trkpt><trkpt lat="44.898909907347964" lon="8.202154962107466"><ele>135.0</ele><time>2026-04-11T14:14:52Z</time></trkpt><trkpt lat="44.898898153860856" lon="8.202066416503328"><ele>135.0</ele><time>2026-04-11T14:14:55Z</time></trkpt><trkpt lat="44.89874636531277" lon="8.202088702264298"><ele>135.0</ele><time>2026-04-11T14:15:02Z</time></trkpt><trkpt lat="44.89867756261555" lon="8.202096415456754"><ele>135.0</ele><time>2026-04-11T14:15:04.999Z</time></trkpt><trkpt lat="44.89860911276302" lon="8.202162188410194"><ele>135.0</ele><time>2026-04-11T14:15:06.999Z</time></trkpt><trkpt lat="44.89854909016644" lon="8.202218682787063"><ele>135.0</ele><time>2026-04-11T14:15:07.999Z</time></trkpt><trkpt lat="44.898476630915226" lon="8.202199554604029"><ele>135.0</ele><time>2026-04-11T14:15:08.999Z</time></trkpt><trkpt lat="44.89839585657399" lon="8.202240149662506"><ele>135.0</ele><time>2026-04-11T14:15:10.999Z</time></trkpt><trkpt lat="44.89831016709472" lon="8.202269978723653"><ele>135.0</ele><time>2026-04-11T14:15:12.999Z</time></trkpt><trkpt lat="44.89824820612092" lon="8.202316983129759"><ele>135.0</ele><time>2026-04-11T14:15:14.999Z</time></trkpt><trkpt lat="44.89817331193978" lon="8.202342168549361"><ele>135.0</ele><time>2026-04-11T14:15:18.999Z</time></trkpt><trkpt lat="44.8981029617655" lon="8.202364409271198"><ele>134.2</ele><time>2026-04-11T14:15:20.999Z</time></trkpt><trkpt lat="44.89802005083548" lon="8.202401222110081"><ele>133.4</ele><time>2026-04-11T14:15:22.999Z</time></trkpt><trkpt lat="44.89792921853937" lon="8.202433710946623"><ele>132.6</ele><time>2026-04-11T14:15:26Z</time></trkpt><trkpt lat="44.89781372995852" lon="8.20249437067817"><ele>131.8</ele><time>2026-04-11T14:15:28Z</time></trkpt><trkpt lat="44.89773587370081" lon="8.202471669830636"><ele>131.0</ele><time>2026-04-11T14:15:30Z</time></trkpt><trkpt lat="44.897669910465325" lon="8.202506895942527"><ele>130.25</ele><time>2026-04-11T14:15:32Z</time></trkpt><trkpt lat="44.89755867316078" lon="8.20254073680244"><ele>129.5</ele><time>2026-04-11T14:15:35Z</time></trkpt><trkpt lat="44.89747749977239" lon="8.202592372691482"><ele>128.75</ele><time>2026-04-11T14:15:37Z</time></trkpt><trkpt lat="44.89742006422037" lon="8.20263305006166"><ele>128.0</ele><time>2026-04-11T14:15:40Z</time></trkpt><trkpt lat="44.89754491999193" lon="8.202950061100626"><ele>128.5</ele><time>2026-04-11T14:15:48Z</time></trkpt><trkpt lat="44.897600963362656" lon="8.203051056438605"><ele>129.0</ele><time>2026-04-11T14:15:50Z</time></trkpt><trkpt lat="44.8976559737143" lon="8.203150380229388"><ele>129.5</ele><time>2026-04-11T14:15:52Z</time></trkpt><trkpt lat="44.89772318790102" lon="8.203226306646474"><ele>130.0</ele><time>2026-04-11T14:15:54Z</time></trkpt><trkpt lat="44.897790664334714" lon="8.203285162367152"><ele>130.5</ele><time>2026-04-11T14:15:56Z</time></trkpt><trkpt lat="44.8978545882448" lon="8.203362211791209"><ele>131.0</ele><time>2026-04-11T14:15:58Z</time></trkpt><trkpt lat="44.89792808041797" lon="8.203412930976533"><ele>131.0</ele><time>2026-04-11T14:16:00Z</time></trkpt><trkpt lat="44.89801298199041" lon="8.203468042351734"><ele>131.0</ele><time>2026-04-11T14:16:02Z</time></trkpt><trkpt lat="44.89809436047566" lon="8.203514622080087"><ele>131.0</ele><time>2026-04-11T14:16:06Z</time></trkpt><trkpt lat="44.898160642878466" lon="8.203551802545125"><ele>131.0</ele><time>2026-04-11T14:16:09Z</time></trkpt><trkpt lat="44.898213878834845" lon="8.203648915055293"><ele>131.0</ele><time>2026-04-11T14:16:11Z</time></trkpt><trkpt lat="44.89829650849357" lon="8.203690386499076"><ele>131.0</ele><time>2026-04-11T14:16:13Z</time></trkpt><trkpt lat="44.89837326038413" lon="8.203693686776571"><ele>131.0</ele><time>2026-04-11T14:16:15Z</time></trkpt><trkpt lat="44.89830159453783" lon="8.2039747280963"><ele>131.0</ele><time>2026-04-11T14:16:22Z</time></trkpt><trkpt lat="44.89825351414567" lon="8.204071970023891"><ele>131.0</ele><time>2026-04-11T14:16:25Z</time></trkpt><trkpt lat="44.898210847189745" lon="8.204174036709732"><ele>131.0</ele><time>2026-04-11T14:16:28Z</time></trkpt><trkpt lat="44.89817371681995" lon="8.20427768528832"><ele>130.71428571428572</ele><time>2026-04-11T14:16:31Z</time></trkpt><trkpt lat="44.89810410667238" lon="8.204330816765243"><ele>130.42857142857144</ele><time>2026-04-11T14:16:34Z</time></trkpt><trkpt lat="44.89803374188823" lon="8.204334167065262"><ele>130.14285714285714</ele><time>2026-04-11T14:16:37Z</time></trkpt><trkpt lat="44.89797792715465" lon="8.204375782175244"><ele>129.85714285714286</ele><time>2026-04-11T14:16:39Z</time></trkpt><trkpt lat="44.89791774899452" lon="8.204431389562487"><ele>129.57142857142856</ele><time>2026-04-11T14:16:42Z</time></trkpt><trkpt lat="44.89783717894138" lon="8.204456595787649"><ele>129.28571428571428</ele><time>2026-04-11T14:16:44Z</time></trkpt><trkpt lat="44.89776992201264" lon="8.204518370694176"><ele>129.0</ele><time>2026-04-11T14:16:46Z</time></trkpt><trkpt lat="44.897725170477685" lon="8.204589810297241"><ele>129.0</ele><time>2026-04-11T14:16:49Z</time></trkpt><trkpt lat="44.89772997453556" lon="8.204712049103476"><ele>129.0</ele><time>2026-04-11T14:16:53Z</time></trkpt><trkpt lat="44.89781790991253" lon="8.204752822135793"><ele>129.0</ele><time>2026-04-11T14:17:02Z</time></trkpt><trkpt lat="44.89789988819897" lon="8.204719492491794"><ele>129.0</ele><time>2026-04-11T14:17:04.999Z</time></trkpt><trkpt lat="44.89797049466321" lon="8.204700748667879"><ele>129.0</ele><time>2026-04-11T14:17:06.999Z</time></trkpt><trkpt lat="44.898096610838316" lon="8.204754890623608"><ele>129.0</ele><time>2026-04-11T14:17:09.999Z</time></trkpt><trkpt lat="44.89815385495504" lon="8.204821621738825"><ele>129.0</ele><time>2026-04-11T14:17:11.999Z</time></trkpt><trkpt lat="44.89829234615142" lon="8.204774069325381"><ele>129.0</ele><time>2026-04-11T14:17:13.999Z</time></trkpt><trkpt lat="44.89832376616934" lon="8.204895696721104"><ele>129.0</ele><time>2026-04-11T14:17:26.999Z</time></trkpt><trkpt lat="44.89835439912399" lon="8.205024685124028"><ele>129.0</ele><time>2026-04-11T14:17:28.999Z</time></trkpt><trkpt lat="44.8983810739684" lon="8.20512783480695"><ele>129.0</ele><time>2026-04-11T14:17:31Z</time></trkpt><trkpt lat="44.89842924535664" lon="8.20522278823145"><ele>129.0</ele><time>2026-04-11T14:17:33Z</time></trkpt><trkpt lat="44.89844509289812" lon="8.205337401833418"><ele>129.0</ele><time>2026-04-11T14:17:35Z</time></trkpt><trkpt lat="44.89845239279736" lon="8.205450422374634"><ele>129.0</ele><time>2026-04-11T14:17:37Z</time></trkpt><trkpt lat="44.89848078440419" lon="8.20555665614095"><ele>129.0</ele><time>2026-04-11T14:17:39Z</time></trkpt><trkpt lat="44.89848577917968" lon="8.205655660323735"><ele>129.0</ele><time>2026-04-11T14:17:41Z</time></trkpt><trkpt lat="44.89852008692171" lon="8.20576019205601"><ele>128.5</ele><time>2026-04-11T14:17:44Z</time></trkpt><trkpt lat="44.89851055131164" lon="8.20586481357138"><ele>128.0</ele><time>2026-04-11T14:17:47Z</time></trkpt><trkpt lat="44.898427592186195" lon="8.205929551891572"><ele>127.5</ele><time>2026-04-11T14:17:51Z</time></trkpt><trkpt lat="44.898359703431495" lon="8.205996545744325"><ele>127.0</ele><time>2026-04-11T14:17:53Z</time></trkpt><trkpt lat="44.89833212725024" lon="8.206091363885673"><ele>126.5</ele><time>2026-04-11T14:17:55Z</time></trkpt><trkpt lat="44.89824974897631" lon="8.206139556541773"><ele>126.0</ele><time>2026-04-11T14:17:57Z</time></trkpt><trkpt lat="44.898194794590765" lon="8.206213286525575"><ele>125.66666666666667</ele><time>2026-04-11T14:18:02Z</time></trkpt><trkpt lat="44.898123821293595" lon="8.206256092958357"><ele>125.33333333333334</ele><time>2026-04-11T14:18:06Z</time></trkpt><trkpt lat="44.89807004580075" lon="8.206348407556641"><ele>125.0</ele><time>2026-04-11T14:18:09Z</time></trkpt><trkpt lat="44.89811088941147" lon="8.20652765745671"><ele>124.66666666666667</ele><time>2026-04-11T14:18:11Z</time></trkpt><trkpt lat="44.89815007584038" lon="8.206599888074408"><ele>124.33333333333334</ele><time>2026-04-11T14:18:13Z</time></trkpt><trkpt lat="44.898202970496406" lon="8.206664122018662"><ele>124.0</ele><time>2026-04-11T14:18:15Z</time></trkpt><trkpt lat="44.89825925608238" lon="8.206794601500594"><ele>124.00000000000001</ele><time>2026-04-11T14:18:17Z</time></trkpt><trkpt lat="44.89829135952654" lon="8.206888931395552"><ele>124.0</ele><time>2026-04-11T14:18:20Z</time></trkpt><trkpt lat="44.89834330569834" lon="8.206972200794906"><ele>124.0</ele><time>2026-04-11T14:18:22Z</time></trkpt><trkpt lat="44.89839088538553" lon="8.207037980980406"><ele>124.0</ele><time>2026-04-11T14:18:24Z</time></trkpt><trkpt lat="44.89844661987021" lon="8.207114766761167"><ele>124.00000000000001</ele><time>2026-04-11T14:18:26Z</time></trkpt><trkpt lat="44.898477311373675" lon="8.207213378582278"><ele>124.0</ele><time>2026-04-11T14:18:28Z</time></trkpt><trkpt lat="44.89853252372571" lon="8.207312951540898"><ele>123.83333333333334</ele><time>2026-04-11T14:18:32Z</time></trkpt><trkpt lat="44.898572110871406" lon="8.207392331250578"><ele>123.66666666666667</ele><time>2026-04-11T14:18:34Z</time></trkpt><trkpt lat="44.89861425149315" lon="8.207508273257918"><ele>123.5</ele><time>2026-04-11T14:18:37Z</time></trkpt><trkpt lat="44.89866544533052" lon="8.207586928321506"><ele>123.33333333333334</ele><time>2026-04-11T14:18:40Z</time></trkpt><trkpt lat="44.898663390694274" lon="8.207708930663877"><ele>123.16666666666667</ele><time>2026-04-11T14:18:42Z</time></trkpt><trkpt lat="44.898646657743846" lon="8.20779663632606"><ele>123.0</ele><time>2026-04-11T14:18:44Z</time></trkpt><trkpt lat="44.89855882998652" lon="8.207882220573282"><ele>123.0</ele><time>2026-04-11T14:18:47Z</time></trkpt><trkpt lat="44.89850615296116" lon="8.207952470158622"><ele>123.0</ele><time>2026-04-11T14:18:50Z</time></trkpt><trkpt lat="44.898438587164506" lon="8.207927388086137"><ele>123.0</ele><time>2026-04-11T14:18:51Z</time></trkpt><trkpt lat="44.89838552790966" lon="8.207865798188019"><ele>123.0</ele><time>2026-04-11T14:18:53Z</time></trkpt><trkpt lat="44.898332016376685" lon="8.20780368207057"><ele>123.0</ele><time>2026-04-11T14:18:55Z</time></trkpt><trkpt lat="44.89828217539243" lon="8.207699615994645"><ele>123.0</ele><time>2026-04-11T14:18:57Z</time></trkpt><trkpt lat="44.89822156914825" lon="8.207597719748623"><ele>123.0</ele><time>2026-04-11T14:18:59Z</time></trkpt><trkpt lat="44.8981631762908" lon="8.20750014282478"><ele>123.00000000000001</ele><time>2026-04-11T14:19:01Z</time></trkpt><trkpt lat="44.89810442086923" lon="8.207402347217398"><ele>123.00000000000001</ele><time>2026-04-11T14:19:03Z</time></trkpt><trkpt lat="44.898046361784964" lon="8.207307370573997"><ele>123.0</ele><time>2026-04-11T14:19:05Z</time></trkpt><trkpt lat="44.897993825046406" lon="8.20719431772705"><ele>123.0</ele><time>2026-04-11T14:19:06.999Z</time></trkpt><trkpt lat="44.8979378146734" lon="8.20707828028333"><ele>123.0</ele><time>2026-04-11T14:19:08.999Z</time></trkpt><trkpt lat="44.897855683350244" lon="8.206990562126514"><ele>123.00000000000001</ele><time>2026-04-11T14:19:10.999Z</time></trkpt><trkpt lat="44.897768175556486" lon="8.206911157884425"><ele>123.00000000000001</ele><time>2026-04-11T14:19:12.999Z</time></trkpt><trkpt lat="44.89766414693552" lon="8.20683911490559"><ele>123.0</ele><time>2026-04-11T14:19:14.999Z</time></trkpt><trkpt lat="44.897594434357885" lon="8.206832141998394"><ele>123.0</ele><time>2026-04-11T14:19:15.999Z</time></trkpt><trkpt lat="44.897507574455766" lon="8.206893541271034"><ele>122.60000000000001</ele><time>2026-04-11T14:19:17.999Z</time></trkpt><trkpt lat="44.8974318822954" lon="8.206885662284469"><ele>122.20000000000002</ele><time>2026-04-11T14:19:19.999Z</time></trkpt><trkpt lat="44.89733703608202" lon="8.206922922866115"><ele>121.8</ele><time>2026-04-11T14:19:21.999Z</time></trkpt><trkpt lat="44.89723413124527" lon="8.206980265313252"><ele>121.4</ele><time>2026-04-11T14:19:23.999Z</time></trkpt><trkpt lat="44.89717134057204" lon="8.207041180093276"><ele>121.0</ele><time>2026-04-11T14:19:25.999Z</time></trkpt><trkpt lat="44.89707620953402" lon="8.207074129215584"><ele>121.0</ele><time>2026-04-11T14:19:27.999Z</time></trkpt><trkpt lat="44.896996356202415" lon="8.207155214132921"><ele>121.0</ele><time>2026-04-11T14:19:29.999Z</time></trkpt><trkpt lat="44.89690432196213" lon="8.207231767088345"><ele>121.0</ele><time>2026-04-11T14:19:31.999Z</time></trkpt><trkpt lat="44.89683401575052" lon="8.207253756205246"><ele>121.0</ele><time>2026-04-11T14:19:33.999Z</time></trkpt><trkpt lat="44.89675018447157" lon="8.207302445707224"><ele>121.0</ele><time>2026-04-11T14:19:35.999Z</time></trkpt><trkpt lat="44.89666449485969" lon="8.207346827869866"><ele>121.00000000000001</ele><time>2026-04-11T14:19:38Z</time></trkpt><trkpt lat="44.896606079262945" lon="8.207396160831518"><ele>121.0</ele><time>2026-04-11T14:19:40Z</time></trkpt><trkpt lat="44.89653035801395" lon="8.207416150094463"><ele>121.0</ele><time>2026-04-11T14:19:42Z</time></trkpt><trkpt lat="44.89645613341564" lon="8.207463424876039"><ele>121.0</ele><time>2026-04-11T14:19:44Z</time></trkpt><trkpt lat="44.89637293707869" lon="8.207508270313893"><ele>121.00000000000001</ele><time>2026-04-11T14:19:46Z</time></trkpt><trkpt lat="44.896325501911825" lon="8.207613817866175"><ele>121.0</ele><time>2026-04-11T14:19:48Z</time></trkpt><trkpt lat="44.89625354404747" lon="8.207665559326367"><ele>121.0</ele><time>2026-04-11T14:19:50Z</time></trkpt><trkpt lat="44.89624497655462" lon="8.207759355255646"><ele>120.99999999999999</ele><time>2026-04-11T14:19:52Z</time></trkpt><trkpt lat="44.896252310767494" lon="8.207849366828249"><ele>121.0</ele><time>2026-04-11T14:19:54Z</time></trkpt><trkpt lat="44.89626339967473" lon="8.20795036470775"><ele>121.0</ele><time>2026-04-11T14:19:56Z</time></trkpt><trkpt lat="44.89628207677584" lon="8.208055583491783"><ele>120.99999999999999</ele><time>2026-04-11T14:19:58Z</time></trkpt><trkpt lat="44.89630667907021" lon="8.208160072226965"><ele>121.0</ele><time>2026-04-11T14:20:00Z</time></trkpt><trkpt lat="44.89632635615529" lon="8.208266971867504"><ele>121.0</ele><time>2026-04-11T14:20:02Z</time></trkpt><trkpt lat="44.896345310042356" lon="8.208391477353086"><ele>120.19999999999999</ele><time>2026-04-11T14:20:04Z</time></trkpt><trkpt lat="44.896364049455975" lon="8.208524486665182"><ele>119.39999999999999</ele><time>2026-04-11T14:20:06Z</time></trkpt><trkpt lat="44.896383168923556" lon="8.20865910902269"><ele>118.6</ele><time>2026-04-11T14:20:08Z</time></trkpt><trkpt lat="44.896399189699956" lon="8.208771918491582"><ele>117.8</ele><time>2026-04-11T14:20:10Z</time></trkpt><trkpt lat="44.89641640822491" lon="8.20889316212429"><ele>117.0</ele><time>2026-04-11T14:20:12Z</time></trkpt><trkpt lat="44.89643684333403" lon="8.209032081841281"><ele>117.0</ele><time>2026-04-11T14:20:14Z</time></trkpt><trkpt lat="44.89645721316443" lon="8.209168766763328"><ele>117.0</ele><time>2026-04-11T14:20:16Z</time></trkpt><trkpt lat="44.89647408889654" lon="8.20928200590712"><ele>117.0</ele><time>2026-04-11T14:20:18Z</time></trkpt><trkpt lat="44.89637223982645" lon="8.20935015214142"><ele>117.0</ele><time>2026-04-11T14:20:20Z</time></trkpt><trkpt lat="44.896315867744306" lon="8.209422668749609"><ele>117.0</ele><time>2026-04-11T14:20:22Z</time></trkpt><trkpt lat="44.89626847999054" lon="8.209481358828015"><ele>117.0</ele><time>2026-04-11T14:20:25Z</time></trkpt><trkpt lat="44.89615498704902" lon="8.209450309209709"><ele>117.0</ele><time>2026-04-11T14:20:27Z</time></trkpt><trkpt lat="44.89605192598029" lon="8.209494758989873"><ele>117.0</ele><time>2026-04-11T14:20:29Z</time></trkpt><trkpt lat="44.89598171915441" lon="8.209510452758247"><ele>117.0</ele><time>2026-04-11T14:20:30Z</time></trkpt><trkpt lat="44.895911868297254" lon="8.20953512963472"><ele>117.0</ele><time>2026-04-11T14:20:33Z</time></trkpt><trkpt lat="44.89584762345128" lon="8.209553456164196"><ele>117.0</ele><time>2026-04-11T14:20:34Z</time></trkpt><trkpt lat="44.89574836155574" lon="8.209573759333233"><ele>117.0</ele><time>2026-04-11T14:20:36Z</time></trkpt><trkpt lat="44.8955628902606" lon="8.20961993557626"><ele>117.6</ele><time>2026-04-11T14:20:37Z</time></trkpt><trkpt lat="44.895465125591066" lon="8.209649668124195"><ele>118.19999999999999</ele><time>2026-04-11T14:20:39Z</time></trkpt><trkpt lat="44.89537345488695" lon="8.209670369955594"><ele>118.8</ele><time>2026-04-11T14:20:41Z</time></trkpt><trkpt lat="44.89528156698205" lon="8.209683038996793"><ele>119.4</ele><time>2026-04-11T14:20:43Z</time></trkpt><trkpt lat="44.89519334840263" lon="8.209720265415628"><ele>120.0</ele><time>2026-04-11T14:20:45Z</time></trkpt><trkpt lat="44.89510342543466" lon="8.20973494640036"><ele>119.2</ele><time>2026-04-11T14:20:47Z</time></trkpt><trkpt lat="44.89501201220424" lon="8.20975721595006"><ele>118.4</ele><time>2026-04-11T14:20:49Z</time></trkpt><trkpt lat="44.8949129345928" lon="8.209745052441558"><ele>117.6</ele><time>2026-04-11T14:20:51Z</time></trkpt><trkpt lat="44.894801638965305" lon="8.209775323676082"><ele>116.8</ele><time>2026-04-11T14:20:53Z</time></trkpt><trkpt lat="44.89466861485086" lon="8.209773055159395"><ele>116.0</ele><time>2026-04-11T14:20:55Z</time></trkpt><trkpt lat="44.89460077117305" lon="8.209819260900208"><ele>116.2857142857143</ele><time>2026-04-11T14:20:56Z</time></trkpt><trkpt lat="44.894535268537055" lon="8.209834019365815"><ele>116.57142857142858</ele><time>2026-04-11T14:20:57Z</time></trkpt><trkpt lat="44.894466360535674" lon="8.209855239964998"><ele>116.85714285714286</ele><time>2026-04-11T14:20:58Z</time></trkpt><trkpt lat="44.894392491238875" lon="8.209873649171069"><ele>117.14285714285715</ele><time>2026-04-11T14:20:59Z</time></trkpt><trkpt lat="44.8943229362563" lon="8.209888313362022"><ele>117.42857142857144</ele><time>2026-04-11T14:21:00Z</time></trkpt><trkpt lat="44.894250777950035" lon="8.20990757852358"><ele>117.71428571428571</ele><time>2026-04-11T14:21:00.999Z</time></trkpt><trkpt lat="44.89418414644797" lon="8.209930018923288"><ele>118.0</ele><time>2026-04-11T14:21:01.999Z</time></trkpt><trkpt lat="44.894114033624945" lon="8.20994755406248"><ele>118.16666666666667</ele><time>2026-04-11T14:21:02.999Z</time></trkpt><trkpt lat="44.89404438719237" lon="8.209963943019563"><ele>118.33333333333334</ele><time>2026-04-11T14:21:03.999Z</time></trkpt><trkpt lat="44.89396659140323" lon="8.209982249646124"><ele>118.5</ele><time>2026-04-11T14:21:04.999Z</time></trkpt><trkpt lat="44.893894017642886" lon="8.209999327429385"><ele>118.66666666666666</ele><time>2026-04-11T14:21:05.999Z</time></trkpt><trkpt lat="44.89381660902118" lon="8.210017679244206"><ele>118.83333333333333</ele><time>2026-04-11T14:21:06.999Z</time></trkpt><trkpt lat="44.89374797340197" lon="8.210032705763483"><ele>119.0</ele><time>2026-04-11T14:21:07.999Z</time></trkpt><trkpt lat="44.89366701302216" lon="8.210062506678852"><ele>118.99999999999999</ele><time>2026-04-11T14:21:08.999Z</time></trkpt><trkpt lat="44.89359306119465" lon="8.2101007227714"><ele>119.0</ele><time>2026-04-11T14:21:09.999Z</time></trkpt><trkpt lat="44.89351566292671" lon="8.210127386921927"><ele>119.0</ele><time>2026-04-11T14:21:10.999Z</time></trkpt><trkpt lat="44.89342540456667" lon="8.210138549437339"><ele>119.0</ele><time>2026-04-11T14:21:11.999Z</time></trkpt><trkpt lat="44.893353154339685" lon="8.210155808601167"><ele>118.99999999999999</ele><time>2026-04-11T14:21:12.999Z</time></trkpt><trkpt lat="44.89328767767025" lon="8.210180297657214"><ele>119.0</ele><time>2026-04-11T14:21:13.999Z</time></trkpt><trkpt lat="44.89322334282881" lon="8.21019396882951"><ele>119.14285714285714</ele><time>2026-04-11T14:21:14.999Z</time></trkpt><trkpt lat="44.893154153817605" lon="8.210208486142717"><ele>119.28571428571428</ele><time>2026-04-11T14:21:15.999Z</time></trkpt><trkpt lat="44.89309005246282" lon="8.210230646254745"><ele>119.42857142857143</ele><time>2026-04-11T14:21:16.999Z</time></trkpt><trkpt lat="44.89302174703766" lon="8.210249231447602"><ele>119.57142857142857</ele><time>2026-04-11T14:21:17.999Z</time></trkpt><trkpt lat="44.892959372150145" lon="8.210262099346995"><ele>119.71428571428571</ele><time>2026-04-11T14:21:18.999Z</time></trkpt><trkpt lat="44.8928948961655" lon="8.210276650238479"><ele>119.85714285714286</ele><time>2026-04-11T14:21:19.999Z</time></trkpt><trkpt lat="44.89278324335684" lon="8.21029137732772"><ele>120.0</ele><time>2026-04-11T14:21:21.999Z</time></trkpt><trkpt lat="44.8926848906518" lon="8.210321198939603"><ele>119.8</ele><time>2026-04-11T14:21:23.999Z</time></trkpt><trkpt lat="44.89258266228323" lon="8.21035600283269"><ele>119.6</ele><time>2026-04-11T14:21:25.999Z</time></trkpt><trkpt lat="44.89249928744149" lon="8.210359878143025"><ele>119.4</ele><time>2026-04-11T14:21:27.999Z</time></trkpt><trkpt lat="44.89243598836951" lon="8.210379520142661"><ele>119.2</ele><time>2026-04-11T14:21:29.999Z</time></trkpt><trkpt lat="44.892339349088296" lon="8.210401283459092"><ele>119.0</ele><time>2026-04-11T14:21:31.999Z</time></trkpt><trkpt lat="44.89223417175389" lon="8.210350243406397"><ele>119.0</ele><time>2026-04-11T14:21:33.999Z</time></trkpt><trkpt lat="44.89213494018232" lon="8.210368791439896"><ele>119.0</ele><time>2026-04-11T14:21:35.999Z</time></trkpt><trkpt lat="44.892069917422624" lon="8.210446086416578"><ele>119.0</ele><time>2026-04-11T14:21:37.999Z</time></trkpt><trkpt lat="44.89198654163292" lon="8.210476697529831"><ele>119.0</ele><time>2026-04-11T14:21:39.999Z</time></trkpt><trkpt lat="44.891896155414635" lon="8.210499067959361"><ele>119.0</ele><time>2026-04-11T14:21:41.999Z</time></trkpt><trkpt lat="44.89180392252455" lon="8.21052120444417"><ele>118.6</ele><time>2026-04-11T14:21:44Z</time></trkpt><trkpt lat="44.89169866427283" lon="8.210553502135804"><ele>118.2</ele><time>2026-04-11T14:21:46Z</time></trkpt><trkpt lat="44.891590144802045" lon="8.210570484448336"><ele>117.79999999999998</ele><time>2026-04-11T14:21:48Z</time></trkpt><trkpt lat="44.8915222087917" lon="8.210584949600284"><ele>117.39999999999999</ele><time>2026-04-11T14:21:49Z</time></trkpt><trkpt lat="44.89140183257659" lon="8.21059937702033"><ele>117.0</ele><time>2026-04-11T14:21:51Z</time></trkpt><trkpt lat="44.891290529904666" lon="8.210638191303678"><ele>117.0</ele><time>2026-04-11T14:21:53Z</time></trkpt><trkpt lat="44.891179368906286" lon="8.210654945122883"><ele>117.0</ele><time>2026-04-11T14:21:55Z</time></trkpt><trkpt lat="44.89106538438761" lon="8.210682711297554"><ele>117.0</ele><time>2026-04-11T14:21:57Z</time></trkpt><trkpt lat="44.89094091860235" lon="8.21071303206984"><ele>117.0</ele><time>2026-04-11T14:21:59Z</time></trkpt><trkpt lat="44.89082340322778" lon="8.210741038681084"><ele>117.39999999999999</ele><time>2026-04-11T14:22:01Z</time></trkpt><trkpt lat="44.890713473638264" lon="8.210748769443061"><ele>117.79999999999998</ele><time>2026-04-11T14:22:03Z</time></trkpt><trkpt lat="44.890643392609235" lon="8.210765603318476"><ele>118.2</ele><time>2026-04-11T14:22:04Z</time></trkpt><trkpt lat="44.89055116540081" lon="8.210806652141398"><ele>118.6</ele><time>2026-04-11T14:22:06Z</time></trkpt><trkpt lat="44.890434764530035" lon="8.210840404935984"><ele>119.0</ele><time>2026-04-11T14:22:08Z</time></trkpt><trkpt lat="44.89032478530937" lon="8.21088583451422"><ele>119.0</ele><time>2026-04-11T14:22:10Z</time></trkpt><trkpt lat="44.890221983653255" lon="8.210908828237665"><ele>119.0</ele><time>2026-04-11T14:22:12Z</time></trkpt><trkpt lat="44.890106985810114" lon="8.210936197520663"><ele>119.0</ele><time>2026-04-11T14:22:14Z</time></trkpt><trkpt lat="44.890013764654846" lon="8.210958383324053"><ele>119.0</ele><time>2026-04-11T14:22:16Z</time></trkpt><trkpt lat="44.88993027879313" lon="8.211019867262424"><ele>119.0</ele><time>2026-04-11T14:22:18Z</time></trkpt><trkpt lat="44.88981467718669" lon="8.211042987964564"><ele>118.6</ele><time>2026-04-11T14:22:20Z</time></trkpt><trkpt lat="44.88970760972792" lon="8.211032447188519"><ele>118.2</ele><time>2026-04-11T14:22:22Z</time></trkpt><trkpt lat="44.8896269254911" lon="8.211043579888528"><ele>117.79999999999998</ele><time>2026-04-11T14:22:24Z</time></trkpt><trkpt lat="44.88951533166711" lon="8.211071384323645"><ele>117.39999999999999</ele><time>2026-04-11T14:22:26Z</time></trkpt><trkpt lat="44.889406096029404" lon="8.21109708285734"><ele>117.0</ele><time>2026-04-11T14:22:28Z</time></trkpt><trkpt lat="44.88934316464229" lon="8.211119445621039"><ele>117.0</ele><time>2026-04-11T14:22:29Z</time></trkpt><trkpt lat="44.88927830583381" lon="8.21112641102197"><ele>116.99999999999999</ele><time>2026-04-11T14:22:30Z</time></trkpt><trkpt lat="44.88917762218751" lon="8.211147558105269"><ele>116.99999999999999</ele><time>2026-04-11T14:22:32Z</time></trkpt><trkpt lat="44.88907227659748" lon="8.211180977449402"><ele>117.0</ele><time>2026-04-11T14:22:34Z</time></trkpt><trkpt lat="44.888957321454605" lon="8.211220146301027"><ele>117.0</ele><time>2026-04-11T14:22:36Z</time></trkpt><trkpt lat="44.88884729337607" lon="8.211217954962745"><ele>117.0</ele><time>2026-04-11T14:22:38Z</time></trkpt><trkpt lat="44.88877618299989" lon="8.21122028031983"><ele>116.99999999999999</ele><time>2026-04-11T14:22:39Z</time></trkpt><trkpt lat="44.888631079584506" lon="8.211271597496927"><ele>116.99999999999999</ele><time>2026-04-11T14:22:41Z</time></trkpt><trkpt lat="44.888508161941914" lon="8.211301518600056"><ele>117.0</ele><time>2026-04-11T14:22:43Z</time></trkpt><trkpt lat="44.88842983044958" lon="8.211320473461223"><ele>117.0</ele><time>2026-04-11T14:22:44Z</time></trkpt><trkpt lat="44.888355729503516" lon="8.211338404585641"><ele>117.39999999999999</ele><time>2026-04-11T14:22:45Z</time></trkpt><trkpt lat="44.88825374117664" lon="8.211363083994712"><ele>117.79999999999998</ele><time>2026-04-11T14:22:47Z</time></trkpt><trkpt lat="44.888130877699" lon="8.21137054392372"><ele>118.2</ele><time>2026-04-11T14:22:49Z</time></trkpt><trkpt lat="44.88806883241542" lon="8.211389160334553"><ele>118.6</ele><time>2026-04-11T14:22:50Z</time></trkpt><trkpt lat="44.88800444530466" lon="8.211416032151138"><ele>119.0</ele><time>2026-04-11T14:22:51Z</time></trkpt><trkpt lat="44.887899148333396" lon="8.211451896906414"><ele>118.99999999999999</ele><time>2026-04-11T14:22:53Z</time></trkpt><trkpt lat="44.887783600445594" lon="8.211488527849445"><ele>119.0</ele><time>2026-04-11T14:22:55Z</time></trkpt><trkpt lat="44.88771380228671" lon="8.211490299045778"><ele>119.0</ele><time>2026-04-11T14:22:56Z</time></trkpt><trkpt lat="44.88765007573747" lon="8.211512742412909"><ele>119.0</ele><time>2026-04-11T14:22:57Z</time></trkpt><trkpt lat="44.887583044692036" lon="8.211544450109692"><ele>118.99999999999999</ele><time>2026-04-11T14:22:58Z</time></trkpt><trkpt lat="44.887464139741425" lon="8.21157955389318"><ele>119.0</ele><time>2026-04-11T14:23:00Z</time></trkpt><trkpt lat="44.887310953505825" lon="8.211620266418873"><ele>118.33333333333333</ele><time>2026-04-11T14:23:01.999Z</time></trkpt><trkpt lat="44.88722384288572" lon="8.211643819744939"><ele>117.66666666666666</ele><time>2026-04-11T14:23:03.999Z</time></trkpt><trkpt lat="44.88712798323654" lon="8.211650929856928"><ele>117.0</ele><time>2026-04-11T14:23:05.999Z</time></trkpt><trkpt lat="44.88703896561633" lon="8.211651642903275"><ele>116.33333333333334</ele><time>2026-04-11T14:23:07.999Z</time></trkpt><trkpt lat="44.88697582007078" lon="8.21162567797473"><ele>115.66666666666667</ele><time>2026-04-11T14:23:10.999Z</time></trkpt><trkpt lat="44.886921533556176" lon="8.211562879008765"><ele>115.0</ele><time>2026-04-11T14:23:12.999Z</time></trkpt><trkpt lat="44.88682577662863" lon="8.211529422397625"><ele>115.0</ele><time>2026-04-11T14:23:14.999Z</time></trkpt><trkpt lat="44.88671877101228" lon="8.211581863335208"><ele>115.0</ele><time>2026-04-11T14:23:16.999Z</time></trkpt><trkpt lat="44.8866165190559" lon="8.211638259918733"><ele>115.0</ele><time>2026-04-11T14:23:18.999Z</time></trkpt><trkpt lat="44.88651931543402" lon="8.211684775889779"><ele>115.0</ele><time>2026-04-11T14:23:20.999Z</time></trkpt><trkpt lat="44.88643627237349" lon="8.211737720890495"><ele>115.0</ele><time>2026-04-11T14:23:22.999Z</time></trkpt><trkpt lat="44.88637476812605" lon="8.211807190699611"><ele>115.0</ele><time>2026-04-11T14:23:24.999Z</time></trkpt><trkpt lat="44.88628103760349" lon="8.211839828494298"><ele>115.0</ele><time>2026-04-11T14:23:26.999Z</time></trkpt><trkpt lat="44.886188835332504" lon="8.211846385730256"><ele>115.0</ele><time>2026-04-11T14:23:28.999Z</time></trkpt><trkpt lat="44.886088547709356" lon="8.211876279815165"><ele>115.0</ele><time>2026-04-11T14:23:30.999Z</time></trkpt><trkpt lat="44.885971944869006" lon="8.211925949191757"><ele>115.0</ele><time>2026-04-11T14:23:32.999Z</time></trkpt><trkpt lat="44.88587100090958" lon="8.211984584191693"><ele>114.6</ele><time>2026-04-11T14:23:34.999Z</time></trkpt><trkpt lat="44.8858076486775" lon="8.212006890621392"><ele>114.2</ele><time>2026-04-11T14:23:35.999Z</time></trkpt><trkpt lat="44.88572731991128" lon="8.212011426893687"><ele>113.80000000000001</ele><time>2026-04-11T14:23:36.999Z</time></trkpt><trkpt lat="44.88565673911832" lon="8.212018228068128"><ele>113.4</ele><time>2026-04-11T14:23:37.999Z</time></trkpt><trkpt lat="44.88552953137816" lon="8.21202291303253"><ele>113.0</ele><time>2026-04-11T14:23:39.999Z</time></trkpt><trkpt lat="44.88541317450203" lon="8.212063782879987"><ele>112.99999999999999</ele><time>2026-04-11T14:23:41.999Z</time></trkpt><trkpt lat="44.88535026320213" lon="8.212089523588984"><ele>113.0</ele><time>2026-04-11T14:23:42.999Z</time></trkpt><trkpt lat="44.88527815080303" lon="8.212098168358688"><ele>113.0</ele><time>2026-04-11T14:23:43.999Z</time></trkpt><trkpt lat="44.88519473718607" lon="8.212115450607909"><ele>113.0</ele><time>2026-04-11T14:23:44.999Z</time></trkpt><trkpt lat="44.88510389628004" lon="8.212132364235321"><ele>112.99999999999999</ele><time>2026-04-11T14:23:45.999Z</time></trkpt><trkpt lat="44.88502940892441" lon="8.212148564651333"><ele>113.0</ele><time>2026-04-11T14:23:46.999Z</time></trkpt><trkpt lat="44.884959915305316" lon="8.212160722890362"><ele>112.42857142857143</ele><time>2026-04-11T14:23:47.999Z</time></trkpt><trkpt lat="44.88488665647084" lon="8.21218422012911"><ele>111.85714285714285</ele><time>2026-04-11T14:23:49Z</time></trkpt><trkpt lat="44.88480972680669" lon="8.212200265509813"><ele>111.28571428571428</ele><time>2026-04-11T14:23:50Z</time></trkpt><trkpt lat="44.88474077008896" lon="8.212214139689262"><ele>110.71428571428572</ele><time>2026-04-11T14:23:51Z</time></trkpt><trkpt lat="44.884673254831526" lon="8.212230723498289"><ele>110.14285714285714</ele><time>2026-04-11T14:23:52Z</time></trkpt><trkpt lat="44.88460479999445" lon="8.212245992196268"><ele>109.57142857142857</ele><time>2026-04-11T14:23:53Z</time></trkpt><trkpt lat="44.884541402350834" lon="8.212255041917226"><ele>109.0</ele><time>2026-04-11T14:23:54Z</time></trkpt><trkpt lat="44.884479565896676" lon="8.212274769307921"><ele>109.0</ele><time>2026-04-11T14:23:55Z</time></trkpt><trkpt lat="44.88441508525748" lon="8.212289817608065"><ele>109.0</ele><time>2026-04-11T14:23:56Z</time></trkpt><trkpt lat="44.88429853189966" lon="8.21232396537869"><ele>109.0</ele><time>2026-04-11T14:23:58Z</time></trkpt><trkpt lat="44.88418770817979" lon="8.212349560595293"><ele>109.0</ele><time>2026-04-11T14:24:00Z</time></trkpt><trkpt lat="44.88408852271699" lon="8.212368169961472"><ele>109.0</ele><time>2026-04-11T14:24:02Z</time></trkpt><trkpt lat="44.88402628907402" lon="8.212403855694568"><ele>109.80000000000001</ele><time>2026-04-11T14:24:03Z</time></trkpt><trkpt lat="44.88392327068862" lon="8.21243285502447"><ele>110.60000000000001</ele><time>2026-04-11T14:24:05Z</time></trkpt><trkpt lat="44.883804625117946" lon="8.21246559134157"><ele>111.4</ele><time>2026-04-11T14:24:07Z</time></trkpt><trkpt lat="44.88370678078666" lon="8.212518477274422"><ele>112.2</ele><time>2026-04-11T14:24:09Z</time></trkpt><trkpt lat="44.883605400204694" lon="8.212533299137625"><ele>113.0</ele><time>2026-04-11T14:24:11Z</time></trkpt><trkpt lat="44.88351933464184" lon="8.212555138312538"><ele>113.0</ele><time>2026-04-11T14:24:13Z</time></trkpt><trkpt lat="44.883518040338245" lon="8.212787417419028"><ele>113.0</ele><time>2026-04-11T14:24:14Z</time></trkpt><trkpt lat="44.883509745262764" lon="8.2129404565817"><ele>113.0</ele><time>2026-04-11T14:24:16Z</time></trkpt><trkpt lat="44.88351214625849" lon="8.213068270502095"><ele>113.0</ele><time>2026-04-11T14:24:18Z</time></trkpt><trkpt lat="44.88352233284799" lon="8.21320430357029"><ele>113.2</ele><time>2026-04-11T14:24:20Z</time></trkpt><trkpt lat="44.88354021661559" lon="8.213322534477623"><ele>113.4</ele><time>2026-04-11T14:24:22Z</time></trkpt><trkpt lat="44.8835451708169" lon="8.213459027432684"><ele>113.60000000000001</ele><time>2026-04-11T14:24:24Z</time></trkpt><trkpt lat="44.88351503060165" lon="8.213607783053144"><ele>113.80000000000001</ele><time>2026-04-11T14:24:26Z</time></trkpt><trkpt lat="44.88349013233842" lon="8.213733450547965"><ele>114.0</ele><time>2026-04-11T14:24:28Z</time></trkpt><trkpt lat="44.883470616210744" lon="8.21388180576577"><ele>114.0</ele><time>2026-04-11T14:24:30Z</time></trkpt><trkpt lat="44.88346320012274" lon="8.214020853250409"><ele>114.0</ele><time>2026-04-11T14:24:32Z</time></trkpt><trkpt lat="44.88346729917024" lon="8.214148563708095"><ele>114.0</ele><time>2026-04-11T14:24:34Z</time></trkpt><trkpt lat="44.88347317577182" lon="8.214283025735718"><ele>114.0</ele><time>2026-04-11T14:24:36Z</time></trkpt><trkpt lat="44.88348170749456" lon="8.214406744217857"><ele>114.0</ele><time>2026-04-11T14:24:38Z</time></trkpt><trkpt lat="44.88349363411486" lon="8.214526433350754"><ele>114.0</ele><time>2026-04-11T14:24:40Z</time></trkpt><trkpt lat="44.88350811210027" lon="8.214648124953913"><ele>114.0</ele><time>2026-04-11T14:24:42Z</time></trkpt><trkpt lat="44.88352383453434" lon="8.214760437712513"><ele>114.0</ele><time>2026-04-11T14:24:44Z</time></trkpt><trkpt lat="44.88353983949494" lon="8.214882556327279"><ele>114.0</ele><time>2026-04-11T14:24:46Z</time></trkpt><trkpt lat="44.88355498636957" lon="8.215013012124727"><ele>114.0</ele><time>2026-04-11T14:24:48Z</time></trkpt><trkpt lat="44.88355719336142" lon="8.21516220062997"><ele>113.80000000000001</ele><time>2026-04-11T14:24:50Z</time></trkpt><trkpt lat="44.883529382957384" lon="8.215298317239425"><ele>113.60000000000001</ele><time>2026-04-11T14:24:52Z</time></trkpt><trkpt lat="44.88349701405523" lon="8.215450541310958"><ele>113.4</ele><time>2026-04-11T14:24:54Z</time></trkpt><trkpt lat="44.88347582928" lon="8.215591508519827"><ele>113.2</ele><time>2026-04-11T14:24:56Z</time></trkpt><trkpt lat="44.88344820995207" lon="8.21573577685829"><ele>113.0</ele><time>2026-04-11T14:24:58Z</time></trkpt><trkpt lat="44.883427364410764" lon="8.215875770386766"><ele>113.4</ele><time>2026-04-11T14:25:00Z</time></trkpt><trkpt lat="44.88342141020168" lon="8.216013275082497"><ele>113.80000000000001</ele><time>2026-04-11T14:25:02Z</time></trkpt><trkpt lat="44.8834095407708" lon="8.216147649388605"><ele>114.2</ele><time>2026-04-11T14:25:04Z</time></trkpt><trkpt lat="44.883401565130725" lon="8.216278278036105"><ele>114.6</ele><time>2026-04-11T14:25:06Z</time></trkpt><trkpt lat="44.883395872002296" lon="8.21640564650831"><ele>115.0</ele><time>2026-04-11T14:25:07.999Z</time></trkpt><trkpt lat="44.88337289258675" lon="8.216552760622148"><ele>115.0</ele><time>2026-04-11T14:25:09.999Z</time></trkpt><trkpt lat="44.883350355206126" lon="8.216690925737867"><ele>115.0</ele><time>2026-04-11T14:25:11.999Z</time></trkpt><trkpt lat="44.88332070459995" lon="8.216825286009087"><ele>115.0</ele><time>2026-04-11T14:25:13.999Z</time></trkpt><trkpt lat="44.883280580881035" lon="8.216959871552405"><ele>115.0</ele><time>2026-04-11T14:25:15.999Z</time></trkpt><trkpt lat="44.88323534662678" lon="8.21709463658136"><ele>115.0</ele><time>2026-04-11T14:25:17.999Z</time></trkpt><trkpt lat="44.88319391507438" lon="8.217224969428406"><ele>114.8</ele><time>2026-04-11T14:25:19.999Z</time></trkpt><trkpt lat="44.88315040236339" lon="8.217350974436544"><ele>114.6</ele><time>2026-04-11T14:25:21.999Z</time></trkpt><trkpt lat="44.8831092585127" lon="8.217472622841136"><ele>114.4</ele><time>2026-04-11T14:25:23.999Z</time></trkpt><trkpt lat="44.883062663767426" lon="8.217602347810576"><ele>114.2</ele><time>2026-04-11T14:25:25.999Z</time></trkpt><trkpt lat="44.88301547446327" lon="8.217726125183015"><ele>114.0</ele><time>2026-04-11T14:25:27.999Z</time></trkpt><trkpt lat="44.88297457975321" lon="8.217870733511644"><ele>114.0</ele><time>2026-04-11T14:25:29.999Z</time></trkpt><trkpt lat="44.88293653969746" lon="8.218009646642388"><ele>114.0</ele><time>2026-04-11T14:25:31.999Z</time></trkpt><trkpt lat="44.88288934797291" lon="8.218151390394446"><ele>114.0</ele><time>2026-04-11T14:25:33.999Z</time></trkpt><trkpt lat="44.882849674791245" lon="8.218295643430737"><ele>114.0</ele><time>2026-04-11T14:25:35.999Z</time></trkpt><trkpt lat="44.88281128542953" lon="8.218445305334372"><ele>114.0</ele><time>2026-04-11T14:25:37.999Z</time></trkpt><trkpt lat="44.88277057683714" lon="8.218582368025146"><ele>114.2</ele><time>2026-04-11T14:25:39.999Z</time></trkpt><trkpt lat="44.88273332220254" lon="8.218729479172518"><ele>114.4</ele><time>2026-04-11T14:25:41.999Z</time></trkpt><trkpt lat="44.882696292769" lon="8.218878448374232"><ele>114.6</ele><time>2026-04-11T14:25:43.999Z</time></trkpt><trkpt lat="44.88266005553099" lon="8.219023817277051"><ele>114.8</ele><time>2026-04-11T14:25:45.999Z</time></trkpt><trkpt lat="44.88262522363909" lon="8.219164737558243"><ele>115.0</ele><time>2026-04-11T14:25:47.999Z</time></trkpt><trkpt lat="44.88258870310167" lon="8.21930327936643"><ele>115.6</ele><time>2026-04-11T14:25:49.999Z</time></trkpt><trkpt lat="44.88254970573158" lon="8.219447310446878"><ele>116.2</ele><time>2026-04-11T14:25:51.999Z</time></trkpt><trkpt lat="44.88250741766606" lon="8.219587609254964"><ele>116.80000000000001</ele><time>2026-04-11T14:25:53.999Z</time></trkpt><trkpt lat="44.88245203415386" lon="8.21972156865976"><ele>117.4</ele><time>2026-04-11T14:25:56Z</time></trkpt><trkpt lat="44.882423708468906" lon="8.219801221664142"><ele>118.0</ele><time>2026-04-11T14:25:57Z</time></trkpt><trkpt lat="44.88237558721217" lon="8.219931561477695"><ele>118.0</ele><time>2026-04-11T14:25:59Z</time></trkpt><trkpt lat="44.882339329553425" lon="8.220066554885127"><ele>118.00000000000001</ele><time>2026-04-11T14:26:01Z</time></trkpt><trkpt lat="44.88231491385341" lon="8.22021749910822"><ele>118.00000000000001</ele><time>2026-04-11T14:26:03Z</time></trkpt><trkpt lat="44.882305915108425" lon="8.220367956900517"><ele>118.0</ele><time>2026-04-11T14:26:05Z</time></trkpt><trkpt lat="44.882304788394876" lon="8.220514602753436"><ele>118.0</ele><time>2026-04-11T14:26:07Z</time></trkpt><trkpt lat="44.882298495201375" lon="8.220667876998991"><ele>118.0</ele><time>2026-04-11T14:26:09Z</time></trkpt><trkpt lat="44.88229492934297" lon="8.220820324315206"><ele>118.00000000000001</ele><time>2026-04-11T14:26:11Z</time></trkpt><trkpt lat="44.882290717489106" lon="8.220964805804869"><ele>118.00000000000001</ele><time>2026-04-11T14:26:13Z</time></trkpt><trkpt lat="44.882287878630606" lon="8.221116702716667"><ele>118.0</ele><time>2026-04-11T14:26:15Z</time></trkpt><trkpt lat="44.88227881604265" lon="8.221257612379862"><ele>118.0</ele><time>2026-04-11T14:26:17Z</time></trkpt><trkpt lat="44.88226568225184" lon="8.221403131639969"><ele>117.80000000000001</ele><time>2026-04-11T14:26:19Z</time></trkpt><trkpt lat="44.88226731963805" lon="8.221555944863391"><ele>117.60000000000001</ele><time>2026-04-11T14:26:21Z</time></trkpt><trkpt lat="44.8822501854306" lon="8.221694532318072"><ele>117.39999999999999</ele><time>2026-04-11T14:26:23Z</time></trkpt><trkpt lat="44.88224535533212" lon="8.22184022716649"><ele>117.19999999999999</ele><time>2026-04-11T14:26:25Z</time></trkpt><trkpt lat="44.882239376177175" lon="8.2219800118227"><ele>117.0</ele><time>2026-04-11T14:26:27Z</time></trkpt><trkpt lat="44.88222551730025" lon="8.222125249155319"><ele>117.0</ele><time>2026-04-11T14:26:29Z</time></trkpt><trkpt lat="44.88221550220466" lon="8.222261935607795"><ele>116.99999999999999</ele><time>2026-04-11T14:26:31Z</time></trkpt><trkpt lat="44.88221223243117" lon="8.222397884150297"><ele>116.99999999999999</ele><time>2026-04-11T14:26:33Z</time></trkpt><trkpt lat="44.882218092024935" lon="8.222529069373664"><ele>117.0</ele><time>2026-04-11T14:26:35Z</time></trkpt><trkpt lat="44.88226928895601" lon="8.222632943142262"><ele>117.0</ele><time>2026-04-11T14:26:37Z</time></trkpt><trkpt lat="44.88236559910135" lon="8.222673369017764"><ele>116.8</ele><time>2026-04-11T14:26:39Z</time></trkpt><trkpt lat="44.88245787724647" lon="8.222650330896588"><ele>116.6</ele><time>2026-04-11T14:26:41Z</time></trkpt><trkpt lat="44.882535427202" lon="8.22269496970241"><ele>116.39999999999999</ele><time>2026-04-11T14:26:43Z</time></trkpt><trkpt lat="44.882536764889814" lon="8.222861174356176"><ele>116.19999999999999</ele><time>2026-04-11T14:26:45Z</time></trkpt><trkpt lat="44.88253077909545" lon="8.223009192661308"><ele>116.0</ele><time>2026-04-11T14:26:47Z</time></trkpt><trkpt lat="44.882523623546355" lon="8.223155275395246"><ele>116.0</ele><time>2026-04-11T14:26:49Z</time></trkpt><trkpt lat="44.882508741099294" lon="8.223300567556468"><ele>116.0</ele><time>2026-04-11T14:26:51Z</time></trkpt><trkpt lat="44.88249164804938" lon="8.223427287834232"><ele>116.0</ele><time>2026-04-11T14:26:53Z</time></trkpt><trkpt lat="44.88246994292777" lon="8.223576161876355"><ele>116.0</ele><time>2026-04-11T14:26:55Z</time></trkpt><trkpt lat="44.882455349048136" lon="8.223731295700883"><ele>116.0</ele><time>2026-04-11T14:26:57Z</time></trkpt><trkpt lat="44.882422035736425" lon="8.223853002256522"><ele>115.99999999999999</ele><time>2026-04-11T14:26:59Z</time></trkpt><trkpt lat="44.88238321381903" lon="8.223963877023493"><ele>116.0</ele><time>2026-04-11T14:27:01Z</time></trkpt><trkpt lat="44.88234439077308" lon="8.224086722234777"><ele>116.0</ele><time>2026-04-11T14:27:03Z</time></trkpt><trkpt lat="44.88232103105014" lon="8.224193119568023"><ele>116.0</ele><time>2026-04-11T14:27:05Z</time></trkpt><trkpt lat="44.882278921229826" lon="8.224281193039442"><ele>115.99999999999999</ele><time>2026-04-11T14:27:08Z</time></trkpt><trkpt lat="44.8821931024117" lon="8.224373953180427"><ele>116.0</ele><time>2026-04-11T14:27:11Z</time></trkpt><trkpt lat="44.88213846023911" lon="8.224460614851061"><ele>116.0</ele><time>2026-04-11T14:27:13Z</time></trkpt><trkpt lat="44.8820967769002" lon="8.224557686389337"><ele>116.0</ele><time>2026-04-11T14:27:15Z</time></trkpt><trkpt lat="44.88205034905318" lon="8.224672264295384"><ele>116.0</ele><time>2026-04-11T14:27:16.999Z</time></trkpt><trkpt lat="44.88200137031758" lon="8.224784843456263"><ele>116.0</ele><time>2026-04-11T14:27:18.999Z</time></trkpt><trkpt lat="44.88194312716426" lon="8.224897189100998"><ele>116.0</ele><time>2026-04-11T14:27:20.999Z</time></trkpt><trkpt lat="44.88187773469279" lon="8.224998392878128"><ele>116.19999999999999</ele><time>2026-04-11T14:27:22.999Z</time></trkpt><trkpt lat="44.88181538997708" lon="8.225104494355739"><ele>116.39999999999999</ele><time>2026-04-11T14:27:24.999Z</time></trkpt><trkpt lat="44.88174620700472" lon="8.225226456622766"><ele>116.6</ele><time>2026-04-11T14:27:26.999Z</time></trkpt><trkpt lat="44.88168012730418" lon="8.225344192947514"><ele>116.8</ele><time>2026-04-11T14:27:28.999Z</time></trkpt><trkpt lat="44.881609243640035" lon="8.225466093061078"><ele>117.0</ele><time>2026-04-11T14:27:30.999Z</time></trkpt><trkpt lat="44.88154424489165" lon="8.225584283008043"><ele>117.0</ele><time>2026-04-11T14:27:32.999Z</time></trkpt><trkpt lat="44.88148679227442" lon="8.225687432614166"><ele>116.99999999999999</ele><time>2026-04-11T14:27:34.999Z</time></trkpt><trkpt lat="44.881423827120805" lon="8.225798327584878"><ele>116.99999999999999</ele><time>2026-04-11T14:27:36.999Z</time></trkpt><trkpt lat="44.881363235805786" lon="8.225900046389793"><ele>117.0</ele><time>2026-04-11T14:27:38.999Z</time></trkpt><trkpt lat="44.881313168394904" lon="8.225998462568308"><ele>117.0</ele><time>2026-04-11T14:27:40.999Z</time></trkpt><trkpt lat="44.88126839922724" lon="8.226138917725761"><ele>117.0</ele><time>2026-04-11T14:27:42.999Z</time></trkpt><trkpt lat="44.88123198813353" lon="8.226280262710393"><ele>117.0</ele><time>2026-04-11T14:27:44.999Z</time></trkpt><trkpt lat="44.88120682821243" lon="8.22644088153825"><ele>117.0</ele><time>2026-04-11T14:27:46.999Z</time></trkpt><trkpt lat="44.88120133712998" lon="8.226535842128202"><ele>117.0</ele><time>2026-04-11T14:27:47.999Z</time></trkpt><trkpt lat="44.88119962382821" lon="8.226629461784325"><ele>117.0</ele><time>2026-04-11T14:27:48.999Z</time></trkpt><trkpt lat="44.88119622723461" lon="8.226722410108485"><ele>117.0</ele><time>2026-04-11T14:27:49.999Z</time></trkpt><trkpt lat="44.881188037166446" lon="8.226895694315703"><ele>117.0</ele><time>2026-04-11T14:27:51.999Z</time></trkpt><trkpt lat="44.881183623959735" lon="8.227065241563169"><ele>116.99999999999999</ele><time>2026-04-11T14:27:53.999Z</time></trkpt><trkpt lat="44.881173576803704" lon="8.227236640796676"><ele>116.99999999999999</ele><time>2026-04-11T14:27:55.999Z</time></trkpt><trkpt lat="44.88116991698443" lon="8.227326567124864"><ele>117.0</ele><time>2026-04-11T14:27:56.999Z</time></trkpt><trkpt lat="44.881161918862865" lon="8.227501525880623"><ele>117.0</ele><time>2026-04-11T14:27:58.999Z</time></trkpt><trkpt lat="44.881152558762395" lon="8.227675473543528"><ele>117.0</ele><time>2026-04-11T14:28:01Z</time></trkpt><trkpt lat="44.881141675905866" lon="8.227848630004399"><ele>116.99999999999999</ele><time>2026-04-11T14:28:03Z</time></trkpt><trkpt lat="44.881120362975714" lon="8.228012471614475"><ele>116.99999999999999</ele><time>2026-04-11T14:28:05Z</time></trkpt><trkpt lat="44.88112028789956" lon="8.228163636521732"><ele>117.0</ele><time>2026-04-11T14:28:07Z</time></trkpt><trkpt lat="44.88112017557852" lon="8.228293690930826"><ele>117.0</ele><time>2026-04-11T14:28:09Z</time></trkpt><trkpt lat="44.88111397051596" lon="8.228405348547502"><ele>117.0</ele><time>2026-04-11T14:28:11Z</time></trkpt><trkpt lat="44.88112174034754" lon="8.228494876896564"><ele>117.00000000000001</ele><time>2026-04-11T14:28:13Z</time></trkpt><trkpt lat="44.88113336268462" lon="8.228582305092832"><ele>117.0</ele><time>2026-04-11T14:29:16Z</time></trkpt><trkpt lat="44.881161555367086" lon="8.228685961735197"><ele>117.0</ele><time>2026-04-11T14:29:22.999Z</time></trkpt><trkpt lat="44.88118691090453" lon="8.228772481924379"><ele>117.00000000000001</ele><time>2026-04-11T14:29:26.999Z</time></trkpt><trkpt lat="44.881210920643255" lon="8.228860263766297"><ele>117.0</ele><time>2026-04-11T14:29:29.999Z</time></trkpt><trkpt lat="44.881236027385114" lon="8.228950097217703"><ele>117.0</ele><time>2026-04-11T14:29:32.999Z</time></trkpt><trkpt lat="44.88122388635413" lon="8.2290486725285"><ele>117.14285714285715</ele><time>2026-04-11T14:29:35.999Z</time></trkpt><trkpt lat="44.8811520712835" lon="8.229097882846439"><ele>117.2857142857143</ele><time>2026-04-11T14:29:38.999Z</time></trkpt><trkpt lat="44.88108041515583" lon="8.229154215305057"><ele>117.42857142857143</ele><time>2026-04-11T14:29:42.999Z</time></trkpt><trkpt lat="44.881022393895684" lon="8.229198328611478"><ele>117.57142857142858</ele><time>2026-04-11T14:29:44.999Z</time></trkpt><trkpt lat="44.88095806994472" lon="8.229230475739154"><ele>117.71428571428572</ele><time>2026-04-11T14:29:48.999Z</time></trkpt><trkpt lat="44.88088554726016" lon="8.229222779791451"><ele>117.85714285714286</ele><time>2026-04-11T14:29:50.999Z</time></trkpt><trkpt lat="44.8808246610395" lon="8.229251502524717"><ele>118.0</ele><time>2026-04-11T14:29:52.999Z</time></trkpt><trkpt lat="44.88073285674493" lon="8.229238668568907"><ele>118.16666666666667</ele><time>2026-04-11T14:29:55.999Z</time></trkpt><trkpt lat="44.88063701053253" lon="8.22924789900426"><ele>118.33333333333334</ele><time>2026-04-11T14:29:58.999Z</time></trkpt><trkpt lat="44.880559053409925" lon="8.229254825825196"><ele>118.5</ele><time>2026-04-11T14:30:00.999Z</time></trkpt><trkpt lat="44.88048782439175" lon="8.229261154808306"><ele>118.66666666666666</ele><time>2026-04-11T14:30:02.999Z</time></trkpt><trkpt lat="44.88041386768952" lon="8.229267726188207"><ele>118.83333333333333</ele><time>2026-04-11T14:30:04.999Z</time></trkpt><trkpt lat="44.88033762988073" lon="8.229274500249748"><ele>119.0</ele><time>2026-04-11T14:30:07Z</time></trkpt><trkpt lat="44.880257792326844" lon="8.229299307938467"><ele>118.99999999999999</ele><time>2026-04-11T14:30:09Z</time></trkpt><trkpt lat="44.88018273710753" lon="8.229288263129257"><ele>119.0</ele><time>2026-04-11T14:30:11Z</time></trkpt><trkpt lat="44.880112168239336" lon="8.229295393854501"><ele>119.0</ele><time>2026-04-11T14:30:13Z</time></trkpt><trkpt lat="44.88003965440287" lon="8.229326449681611"><ele>119.0</ele><time>2026-04-11T14:30:15Z</time></trkpt><trkpt lat="44.87996102514146" lon="8.229322986861881"><ele>118.99999999999999</ele><time>2026-04-11T14:30:17Z</time></trkpt><trkpt lat="44.87987722599884" lon="8.229337937574037"><ele>119.0</ele><time>2026-04-11T14:30:19Z</time></trkpt><trkpt lat="44.87979244030254" lon="8.22934823736355"><ele>118.80000000000001</ele><time>2026-04-11T14:30:21Z</time></trkpt><trkpt lat="44.879700234198516" lon="8.229360764765902"><ele>118.60000000000001</ele><time>2026-04-11T14:30:23Z</time></trkpt><trkpt lat="44.87961210379023" lon="8.229370192883893"><ele>118.4</ele><time>2026-04-11T14:30:25Z</time></trkpt><trkpt lat="44.87951514097336" lon="8.229355255852063"><ele>118.2</ele><time>2026-04-11T14:30:27Z</time></trkpt><trkpt lat="44.87942331020149" lon="8.229378518576375"><ele>118.0</ele><time>2026-04-11T14:30:29Z</time></trkpt><trkpt lat="44.879334575835244" lon="8.229388255611235"><ele>118.4</ele><time>2026-04-11T14:30:31Z</time></trkpt><trkpt lat="44.87925125678598" lon="8.229388644457241"><ele>118.80000000000001</ele><time>2026-04-11T14:30:33Z</time></trkpt><trkpt lat="44.8791570341102" lon="8.229382478024867"><ele>119.2</ele><time>2026-04-11T14:30:35Z</time></trkpt><trkpt lat="44.879063749026386" lon="8.229390799498503"><ele>119.6</ele><time>2026-04-11T14:30:37Z</time></trkpt><trkpt lat="44.87897545962221" lon="8.229414169953834"><ele>120.0</ele><time>2026-04-11T14:30:39Z</time></trkpt><trkpt lat="44.87887961093446" lon="8.22941705424241"><ele>120.0</ele><time>2026-04-11T14:30:41Z</time></trkpt><trkpt lat="44.878775112487936" lon="8.229431892967948"><ele>120.0</ele><time>2026-04-11T14:30:43Z</time></trkpt><trkpt lat="44.878680602591984" lon="8.229438924896447"><ele>120.0</ele><time>2026-04-11T14:30:45Z</time></trkpt><trkpt lat="44.8785923288795" lon="8.229452546616152"><ele>120.0</ele><time>2026-04-11T14:30:47Z</time></trkpt><trkpt lat="44.87850355399118" lon="8.229465355072692"><ele>120.0</ele><time>2026-04-11T14:30:49Z</time></trkpt><trkpt lat="44.87840994906567" lon="8.229473234104839"><ele>120.2</ele><time>2026-04-11T14:30:51Z</time></trkpt><trkpt lat="44.87831042085089" lon="8.22948514372312"><ele>120.4</ele><time>2026-04-11T14:30:53Z</time></trkpt><trkpt lat="44.87821162344336" lon="8.229497360811123"><ele>120.6</ele><time>2026-04-11T14:30:55Z</time></trkpt><trkpt lat="44.87810829564766" lon="8.229490379678941"><ele>120.8</ele><time>2026-04-11T14:30:57Z</time></trkpt><trkpt lat="44.878022592379295" lon="8.229523843056402"><ele>121.0</ele><time>2026-04-11T14:30:59Z</time></trkpt><trkpt lat="44.8779376586262" lon="8.229513029226398"><ele>121.00000000000001</ele><time>2026-04-11T14:31:01Z</time></trkpt><trkpt lat="44.8778592674918" lon="8.229523141012194"><ele>121.0</ele><time>2026-04-11T14:31:03Z</time></trkpt><trkpt lat="44.877779492746235" lon="8.22953241221569"><ele>121.0</ele><time>2026-04-11T14:31:05Z</time></trkpt><trkpt lat="44.87770674880707" lon="8.229540866316661"><ele>121.0</ele><time>2026-04-11T14:31:07Z</time></trkpt><trkpt lat="44.87761256726384" lon="8.229551811815297"><ele>121.00000000000001</ele><time>2026-04-11T14:31:10Z</time></trkpt><trkpt lat="44.87753869767935" lon="8.22956039699922"><ele>121.0</ele><time>2026-04-11T14:31:13Z</time></trkpt><trkpt lat="44.87751142654668" lon="8.229700764780137"><ele>121.50000000000001</ele><time>2026-04-11T14:31:14Z</time></trkpt><trkpt lat="44.87749302465139" lon="8.22980564801166"><ele>122.0</ele><time>2026-04-11T14:31:16Z</time></trkpt><trkpt lat="44.87743845394912" lon="8.229891469658527"><ele>122.5</ele><time>2026-04-11T14:31:18Z</time></trkpt><trkpt lat="44.87735934304936" lon="8.229949342198339"><ele>123.0</ele><time>2026-04-11T14:31:20Z</time></trkpt><trkpt lat="44.877298267025836" lon="8.230049806938805"><ele>123.50000000000001</ele><time>2026-04-11T14:31:22Z</time></trkpt><trkpt lat="44.877238755454954" lon="8.230141540476396"><ele>124.0</ele><time>2026-04-11T14:31:24Z</time></trkpt><trkpt lat="44.87719732833338" lon="8.230227703999669"><ele>124.00000000000001</ele><time>2026-04-11T14:31:26Z</time></trkpt><trkpt lat="44.87714422231772" lon="8.230309731124386"><ele>124.0</ele><time>2026-04-11T14:31:28Z</time></trkpt><trkpt lat="44.87707413533341" lon="8.230326217824949"><ele>124.0</ele><time>2026-04-11T14:31:30Z</time></trkpt><trkpt lat="44.87706142164744" lon="8.230455083946229"><ele>124.0</ele><time>2026-04-11T14:31:31.999Z</time></trkpt><trkpt lat="44.87704853707788" lon="8.230585273585215"><ele>124.00000000000001</ele><time>2026-04-11T14:31:33.999Z</time></trkpt><trkpt lat="44.87702657386769" lon="8.23073950339759"><ele>124.0</ele><time>2026-04-11T14:31:35.999Z</time></trkpt><trkpt lat="44.876994100851256" lon="8.230870345846506"><ele>124.33333333333334</ele><time>2026-04-11T14:31:37.999Z</time></trkpt><trkpt lat="44.876965113894954" lon="8.230995817360345"><ele>124.66666666666667</ele><time>2026-04-11T14:31:39.999Z</time></trkpt><trkpt lat="44.87692022553978" lon="8.231102737480958"><ele>125.0</ele><time>2026-04-11T14:31:41.999Z</time></trkpt><trkpt lat="44.87687117955949" lon="8.231205804938163"><ele>125.33333333333334</ele><time>2026-04-11T14:31:43.999Z</time></trkpt><trkpt lat="44.876819814098184" lon="8.231301401189608"><ele>125.66666666666667</ele><time>2026-04-11T14:31:45.999Z</time></trkpt><trkpt lat="44.87677621690222" lon="8.23141605303735"><ele>126.0</ele><time>2026-04-11T14:31:47.999Z</time></trkpt><trkpt lat="44.876712487983845" lon="8.231499893620978"><ele>126.0</ele><time>2026-04-11T14:31:49.999Z</time></trkpt><trkpt lat="44.87666980571545" lon="8.231610253698825"><ele>126.0</ele><time>2026-04-11T14:31:51.999Z</time></trkpt><trkpt lat="44.87663365268714" lon="8.231707483245001"><ele>126.0</ele><time>2026-04-11T14:31:53.999Z</time></trkpt><trkpt lat="44.87660792360438" lon="8.2317932138801"><ele>126.0</ele><time>2026-04-11T14:31:55.999Z</time></trkpt><trkpt lat="44.87656390315732" lon="8.231905137712003"><ele>126.0</ele><time>2026-04-11T14:31:58.999Z</time></trkpt><trkpt lat="44.87647964016762" lon="8.231965620314504"><ele>126.0</ele><time>2026-04-11T14:32:00.999Z</time></trkpt><trkpt lat="44.87638963230839" lon="8.23195012753409"><ele>126.0</ele><time>2026-04-11T14:32:02.999Z</time></trkpt><trkpt lat="44.87630030152231" lon="8.231941360107475"><ele>126.0</ele><time>2026-04-11T14:32:04.999Z</time></trkpt><trkpt lat="44.87621168097271" lon="8.231929055878782"><ele>126.0</ele><time>2026-04-11T14:32:06.999Z</time></trkpt><trkpt lat="44.876118491800995" lon="8.231928535722028"><ele>126.0</ele><time>2026-04-11T14:32:08.999Z</time></trkpt><trkpt lat="44.876024265750885" lon="8.231933462683255"><ele>126.0</ele><time>2026-04-11T14:32:10.999Z</time></trkpt><trkpt lat="44.87592775379704" lon="8.231919343752795"><ele>126.0</ele><time>2026-04-11T14:32:13Z</time></trkpt><trkpt lat="44.875830275857005" lon="8.231929225667708"><ele>126.0</ele><time>2026-04-11T14:32:15Z</time></trkpt><trkpt lat="44.875729847440375" lon="8.23192723499332"><ele>126.0</ele><time>2026-04-11T14:32:17Z</time></trkpt><trkpt lat="44.87562379604455" lon="8.231919339511663"><ele>126.0</ele><time>2026-04-11T14:32:19Z</time></trkpt><trkpt lat="44.87551957396289" lon="8.23191905686747"><ele>126.0</ele><time>2026-04-11T14:32:21Z</time></trkpt><trkpt lat="44.87541927116029" lon="8.231914175824231"><ele>126.0</ele><time>2026-04-11T14:32:23Z</time></trkpt><trkpt lat="44.87531955710385" lon="8.231912069236472"><ele>126.0</ele><time>2026-04-11T14:32:25Z</time></trkpt><trkpt lat="44.875215243648796" lon="8.231915397788885"><ele>126.0</ele><time>2026-04-11T14:32:27Z</time></trkpt><trkpt lat="44.87511274047146" lon="8.231895443815615"><ele>126.0</ele><time>2026-04-11T14:32:29Z</time></trkpt><trkpt lat="44.87500359030166" lon="8.231918311369842"><ele>126.0</ele><time>2026-04-11T14:32:31Z</time></trkpt><trkpt lat="44.87488885039598" lon="8.231917093795051"><ele>126.75</ele><time>2026-04-11T14:32:33Z</time></trkpt><trkpt lat="44.874774270575344" lon="8.231915690167222"><ele>127.5</ele><time>2026-04-11T14:32:35Z</time></trkpt><trkpt lat="44.87465568995358" lon="8.231915385031904"><ele>128.25</ele><time>2026-04-11T14:32:37Z</time></trkpt><trkpt lat="44.874544145937065" lon="8.231912161266349"><ele>129.0</ele><time>2026-04-11T14:32:39Z</time></trkpt><trkpt lat="44.87442570113983" lon="8.231910390086847"><ele>129.0</ele><time>2026-04-11T14:32:41Z</time></trkpt><trkpt lat="44.87431140917476" lon="8.231901445512678"><ele>129.0</ele><time>2026-04-11T14:32:43Z</time></trkpt><trkpt lat="44.874189952578824" lon="8.231900249599645"><ele>129.0</ele><time>2026-04-11T14:32:45Z</time></trkpt><trkpt lat="44.874070568845504" lon="8.231877736890853"><ele>129.0</ele><time>2026-04-11T14:32:47Z</time></trkpt><trkpt lat="44.8739485147092" lon="8.231855711428853"><ele>129.0</ele><time>2026-04-11T14:32:49Z</time></trkpt><trkpt lat="44.87383210449211" lon="8.231847128283146"><ele>129.0</ele><time>2026-04-11T14:32:51Z</time></trkpt><trkpt lat="44.873703977623514" lon="8.231836497602842"><ele>129.0</ele><time>2026-04-11T14:32:53Z</time></trkpt><trkpt lat="44.8736436726315" lon="8.231806228679092"><ele>129.0</ele><time>2026-04-11T14:32:54Z</time></trkpt><trkpt lat="44.87352194920459" lon="8.231807408709637"><ele>129.0</ele><time>2026-04-11T14:32:56Z</time></trkpt><trkpt lat="44.873403011936794" lon="8.23178703313613"><ele>129.0</ele><time>2026-04-11T14:32:58Z</time></trkpt><trkpt lat="44.8733400299273" lon="8.231776155551511"><ele>129.0</ele><time>2026-04-11T14:32:59Z</time></trkpt><trkpt lat="44.8732223915368" lon="8.231757609848954"><ele>129.0</ele><time>2026-04-11T14:33:01Z</time></trkpt><trkpt lat="44.87315809409043" lon="8.23174759999575"><ele>129.0</ele><time>2026-04-11T14:33:02Z</time></trkpt><trkpt lat="44.87303736860522" lon="8.231730401206088"><ele>129.0</ele><time>2026-04-11T14:33:04Z</time></trkpt><trkpt lat="44.87291507995138" lon="8.231708553115187"><ele>129.0</ele><time>2026-04-11T14:33:06Z</time></trkpt><trkpt lat="44.872801751417406" lon="8.231689314111389"><ele>129.0</ele><time>2026-04-11T14:33:08Z</time></trkpt><trkpt lat="44.87268339138803" lon="8.231668994063762"><ele>129.0</ele><time>2026-04-11T14:33:10Z</time></trkpt><trkpt lat="44.872566225772346" lon="8.231632510748135"><ele>129.0</ele><time>2026-04-11T14:33:12Z</time></trkpt><trkpt lat="44.872446169270944" lon="8.23161339524698"><ele>128.75</ele><time>2026-04-11T14:33:14Z</time></trkpt><trkpt lat="44.87232648102735" lon="8.231594338363376"><ele>128.5</ele><time>2026-04-11T14:33:16Z</time></trkpt><trkpt lat="44.87221546607401" lon="8.231596062602414"><ele>128.25</ele><time>2026-04-11T14:33:18Z</time></trkpt><trkpt lat="44.872094183945116" lon="8.231578516080784"><ele>128.0</ele><time>2026-04-11T14:33:20Z</time></trkpt><trkpt lat="44.87197884865601" lon="8.231556845992975"><ele>128.0</ele><time>2026-04-11T14:33:22Z</time></trkpt><trkpt lat="44.871858491009135" lon="8.231536447662165"><ele>128.0</ele><time>2026-04-11T14:33:24Z</time></trkpt><trkpt lat="44.87174605519932" lon="8.231516495415736"><ele>128.0</ele><time>2026-04-11T14:33:26Z</time></trkpt><trkpt lat="44.871632730533314" lon="8.231483880679978"><ele>128.0</ele><time>2026-04-11T14:33:28Z</time></trkpt><trkpt lat="44.87152469854424" lon="8.231466679727392"><ele>130.0</ele><time>2026-04-11T14:33:30Z</time></trkpt><trkpt lat="44.87142253508886" lon="8.231450718217369"><ele>132.0</ele><time>2026-04-11T14:33:31.999Z</time></trkpt><trkpt lat="44.87132346900002" lon="8.231434878938794"><ele>134.0</ele><time>2026-04-11T14:33:33.999Z</time></trkpt><trkpt lat="44.871231870601285" lon="8.231420233640524"><ele>136.0</ele><time>2026-04-11T14:33:35.999Z</time></trkpt><trkpt lat="44.87113233055552" lon="8.23140873382208"><ele>138.0</ele><time>2026-04-11T14:33:37.999Z</time></trkpt><trkpt lat="44.871036114109614" lon="8.23138929746667"><ele>138.20000000000002</ele><time>2026-04-11T14:33:39.999Z</time></trkpt><trkpt lat="44.870929306642694" lon="8.231374414621266"><ele>138.4</ele><time>2026-04-11T14:33:41.999Z</time></trkpt><trkpt lat="44.870826424685454" lon="8.231360243583428"><ele>138.60000000000002</ele><time>2026-04-11T14:33:43.999Z</time></trkpt><trkpt lat="44.87072992963758" lon="8.231348237485895"><ele>138.8</ele><time>2026-04-11T14:33:45.999Z</time></trkpt><trkpt lat="44.87062996462372" lon="8.23133446759603"><ele>139.0</ele><time>2026-04-11T14:33:47.999Z</time></trkpt><trkpt lat="44.870532554378116" lon="8.231317245725041"><ele>139.0</ele><time>2026-04-11T14:33:49.999Z</time></trkpt><trkpt lat="44.87044596960141" lon="8.23128926948746"><ele>139.0</ele><time>2026-04-11T14:33:51.999Z</time></trkpt><trkpt lat="44.870340469739375" lon="8.231275147518634"><ele>139.0</ele><time>2026-04-11T14:33:53.999Z</time></trkpt><trkpt lat="44.870241565186895" lon="8.231263529195354"><ele>139.0</ele><time>2026-04-11T14:33:55.999Z</time></trkpt><trkpt lat="44.870143305714464" lon="8.231246151073888"><ele>139.0</ele><time>2026-04-11T14:33:57.999Z</time></trkpt><trkpt lat="44.870043554799466" lon="8.231226123064229"><ele>138.0</ele><time>2026-04-11T14:33:59.999Z</time></trkpt><trkpt lat="44.86994556066448" lon="8.231212366407517"><ele>137.0</ele><time>2026-04-11T14:34:01.999Z</time></trkpt><trkpt lat="44.86983926331176" lon="8.231192170231804"><ele>136.0</ele><time>2026-04-11T14:34:03.999Z</time></trkpt><trkpt lat="44.86972666674327" lon="8.231182294900263"><ele>135.0</ele><time>2026-04-11T14:34:05.999Z</time></trkpt><trkpt lat="44.86962913822836" lon="8.231165825114582"><ele>134.0</ele><time>2026-04-11T14:34:07.999Z</time></trkpt><trkpt lat="44.869524518944125" lon="8.231142817576826"><ele>134.0</ele><time>2026-04-11T14:34:09.999Z</time></trkpt><trkpt lat="44.869426350314036" lon="8.231109618449253"><ele>134.0</ele><time>2026-04-11T14:34:11.999Z</time></trkpt><trkpt lat="44.86932466629045" lon="8.231115295786793"><ele>134.0</ele><time>2026-04-11T14:34:13.999Z</time></trkpt><trkpt lat="44.869220662237105" lon="8.231104478474686"><ele>134.0</ele><time>2026-04-11T14:34:15.999Z</time></trkpt><trkpt lat="44.869121589077494" lon="8.231098087392652"><ele>134.0</ele><time>2026-04-11T14:34:17.999Z</time></trkpt><trkpt lat="44.869020204758385" lon="8.231101355577271"><ele>134.0</ele><time>2026-04-11T14:34:20Z</time></trkpt><trkpt lat="44.86891733606214" lon="8.231108698884691"><ele>134.0</ele><time>2026-04-11T14:34:22Z</time></trkpt><trkpt lat="44.868815754499686" lon="8.231131941084424"><ele>134.0</ele><time>2026-04-11T14:34:24Z</time></trkpt><trkpt lat="44.868712032615484" lon="8.231152128221392"><ele>134.0</ele><time>2026-04-11T14:34:26Z</time></trkpt><trkpt lat="44.86860796185765" lon="8.231186160603583"><ele>134.0</ele><time>2026-04-11T14:34:28Z</time></trkpt><trkpt lat="44.86851034593076" lon="8.23121278474238"><ele>134.0</ele><time>2026-04-11T14:34:30Z</time></trkpt><trkpt lat="44.86840949416371" lon="8.231236442167335"><ele>134.0</ele><time>2026-04-11T14:34:32Z</time></trkpt><trkpt lat="44.86830209254642" lon="8.231252335869833"><ele>134.0</ele><time>2026-04-11T14:34:34Z</time></trkpt><trkpt lat="44.86820102332544" lon="8.2312502277636"><ele>134.0</ele><time>2026-04-11T14:34:36Z</time></trkpt><trkpt lat="44.86810099913411" lon="8.231224832314728"><ele>134.0</ele><time>2026-04-11T14:34:38Z</time></trkpt><trkpt lat="44.86800104099027" lon="8.231187648350279"><ele>134.0</ele><time>2026-04-11T14:34:40Z</time></trkpt><trkpt lat="44.86790480132237" lon="8.231128134215801"><ele>134.0</ele><time>2026-04-11T14:34:42Z</time></trkpt><trkpt lat="44.86781213291836" lon="8.231058516802817"><ele>134.0</ele><time>2026-04-11T14:34:44Z</time></trkpt><trkpt lat="44.867722875530575" lon="8.230980156949963"><ele>134.0</ele><time>2026-04-11T14:34:46Z</time></trkpt><trkpt lat="44.86764116091911" lon="8.230898480373108"><ele>134.0</ele><time>2026-04-11T14:34:48Z</time></trkpt><trkpt lat="44.86755774862903" lon="8.230822298049446"><ele>133.6</ele><time>2026-04-11T14:34:50Z</time></trkpt><trkpt lat="44.867479546449076" lon="8.230732360690766"><ele>133.2</ele><time>2026-04-11T14:34:52Z</time></trkpt><trkpt lat="44.86740108813259" lon="8.230654272506003"><ele>132.79999999999998</ele><time>2026-04-11T14:34:54Z</time></trkpt><trkpt lat="44.86732103200469" lon="8.23057864759018"><ele>132.4</ele><time>2026-04-11T14:34:56Z</time></trkpt><trkpt lat="44.86723960674526" lon="8.230511049201041"><ele>132.0</ele><time>2026-04-11T14:34:58Z</time></trkpt><trkpt lat="44.86715562024083" lon="8.23044958195206"><ele>132.4</ele><time>2026-04-11T14:35:00Z</time></trkpt><trkpt lat="44.867069489002674" lon="8.230411135112771"><ele>132.79999999999998</ele><time>2026-04-11T14:35:02Z</time></trkpt><trkpt lat="44.86698115870981" lon="8.230378551647616"><ele>133.2</ele><time>2026-04-11T14:35:04Z</time></trkpt><trkpt lat="44.866888814963005" lon="8.23036049944089"><ele>133.6</ele><time>2026-04-11T14:35:06Z</time></trkpt><trkpt lat="44.86679788562393" lon="8.23034943021117"><ele>134.0</ele><time>2026-04-11T14:35:08Z</time></trkpt><trkpt lat="44.86672127644076" lon="8.23026756321492"><ele>134.0</ele><time>2026-04-11T14:35:10Z</time></trkpt><trkpt lat="44.866666172166056" lon="8.230139454472143"><ele>134.0</ele><time>2026-04-11T14:35:12Z</time></trkpt><trkpt lat="44.86663311718463" lon="8.23000443445072"><ele>134.0</ele><time>2026-04-11T14:35:14Z</time></trkpt><trkpt lat="44.86657324740469" lon="8.229868293505922"><ele>134.0</ele><time>2026-04-11T14:35:16Z</time></trkpt><trkpt lat="44.866521577597375" lon="8.229750798880405"><ele>134.0</ele><time>2026-04-11T14:35:18Z</time></trkpt><trkpt lat="44.86646703921621" lon="8.229626781268903"><ele>135.0</ele><time>2026-04-11T14:35:20Z</time></trkpt><trkpt lat="44.866411663360935" lon="8.229500859286512"><ele>136.0</ele><time>2026-04-11T14:35:22Z</time></trkpt><trkpt lat="44.86636154105584" lon="8.229386883611442"><ele>137.0</ele><time>2026-04-11T14:35:24Z</time></trkpt><trkpt lat="44.86631049053831" lon="8.229270797230015"><ele>138.0</ele><time>2026-04-11T14:35:26Z</time></trkpt><trkpt lat="44.866264406433395" lon="8.229166004231319"><ele>139.0</ele><time>2026-04-11T14:35:28Z</time></trkpt><trkpt lat="44.86622016244651" lon="8.229065395574775"><ele>141.2</ele><time>2026-04-11T14:35:30Z</time></trkpt><trkpt lat="44.86617584256463" lon="8.228964614328033"><ele>143.4</ele><time>2026-04-11T14:35:32Z</time></trkpt><trkpt lat="44.86612974176969" lon="8.228859783374872"><ele>145.6</ele><time>2026-04-11T14:35:34Z</time></trkpt><trkpt lat="44.866084829664125" lon="8.228757655438352"><ele>147.8</ele><time>2026-04-11T14:35:35.999Z</time></trkpt><trkpt lat="44.86603151196458" lon="8.228637691739257"><ele>150.0</ele><time>2026-04-11T14:35:37.999Z</time></trkpt><trkpt lat="44.86597636203928" lon="8.22851372725212"><ele>148.4</ele><time>2026-04-11T14:35:39.999Z</time></trkpt><trkpt lat="44.86592192062902" lon="8.22839135535929"><ele>146.8</ele><time>2026-04-11T14:35:41.999Z</time></trkpt><trkpt lat="44.86586494384586" lon="8.228263284516945"><ele>145.2</ele><time>2026-04-11T14:35:43.999Z</time></trkpt><trkpt lat="44.865808122840974" lon="8.228135563824502"><ele>143.6</ele><time>2026-04-11T14:35:45.999Z</time></trkpt><trkpt lat="44.865753010953505" lon="8.228010253536766"><ele>142.0</ele><time>2026-04-11T14:35:47.999Z</time></trkpt><trkpt lat="44.865696684631615" lon="8.227881376144088"><ele>142.0</ele><time>2026-04-11T14:35:49.999Z</time></trkpt><trkpt lat="44.86563971456455" lon="8.227751242063688"><ele>142.0</ele><time>2026-04-11T14:35:51.999Z</time></trkpt><trkpt lat="44.865584090483345" lon="8.227619250759032"><ele>142.0</ele><time>2026-04-11T14:35:53.999Z</time></trkpt><trkpt lat="44.8655309677989" lon="8.227488422951893"><ele>142.0</ele><time>2026-04-11T14:35:55.999Z</time></trkpt><trkpt lat="44.86548216465324" lon="8.22736580215221"><ele>142.0</ele><time>2026-04-11T14:35:57.999Z</time></trkpt><trkpt lat="44.8654293243386" lon="8.227233037724933"><ele>144.4</ele><time>2026-04-11T14:35:59.999Z</time></trkpt><trkpt lat="44.8653728663435" lon="8.227101027835168"><ele>146.79999999999998</ele><time>2026-04-11T14:36:01.999Z</time></trkpt><trkpt lat="44.86531562800782" lon="8.226972775980133"><ele>149.2</ele><time>2026-04-11T14:36:03.999Z</time></trkpt><trkpt lat="44.86525348062967" lon="8.22684481056971"><ele>151.6</ele><time>2026-04-11T14:36:05.999Z</time></trkpt><trkpt lat="44.86518818684885" lon="8.226717852380277"><ele>154.0</ele><time>2026-04-11T14:36:07.999Z</time></trkpt><trkpt lat="44.86511638431358" lon="8.22658285953348"><ele>152.0</ele><time>2026-04-11T14:36:09.999Z</time></trkpt><trkpt lat="44.86504272644525" lon="8.226447063745258"><ele>150.0</ele><time>2026-04-11T14:36:11.999Z</time></trkpt><trkpt lat="44.86497341705534" lon="8.226322725141978"><ele>148.0</ele><time>2026-04-11T14:36:13.999Z</time></trkpt><trkpt lat="44.86490713074958" lon="8.226205970016565"><ele>146.0</ele><time>2026-04-11T14:36:15.999Z</time></trkpt><trkpt lat="44.86483860756456" lon="8.226088463187518"><ele>144.0</ele><time>2026-04-11T14:36:17.999Z</time></trkpt><trkpt lat="44.864758231309104" lon="8.225990288106045"><ele>144.0</ele><time>2026-04-11T14:36:19.999Z</time></trkpt><trkpt lat="44.864699445953356" lon="8.225858105284109"><ele>144.0</ele><time>2026-04-11T14:36:21.999Z</time></trkpt><trkpt lat="44.864625667786946" lon="8.22573617380825"><ele>144.0</ele><time>2026-04-11T14:36:23.999Z</time></trkpt><trkpt lat="44.864557865293875" lon="8.225624118205433"><ele>144.0</ele><time>2026-04-11T14:36:26Z</time></trkpt><trkpt lat="44.86447595973283" lon="8.225488754749385"><ele>143.0</ele><time>2026-04-11T14:36:28Z</time></trkpt><trkpt lat="44.86442370704996" lon="8.225431543996"><ele>142.0</ele><time>2026-04-11T14:36:29Z</time></trkpt><trkpt lat="44.86438575363236" lon="8.225359486612726"><ele>141.0</ele><time>2026-04-11T14:36:30Z</time></trkpt><trkpt lat="44.864308985694805" lon="8.225233416034834"><ele>140.0</ele><time>2026-04-11T14:36:32Z</time></trkpt><trkpt lat="44.8642389038052" lon="8.225111753141157"><ele>139.0</ele><time>2026-04-11T14:36:34Z</time></trkpt><trkpt lat="44.86414843493376" lon="8.224981308589483"><ele>139.0</ele><time>2026-04-11T14:36:36Z</time></trkpt><trkpt lat="44.864075518961364" lon="8.224839370398922"><ele>139.0</ele><time>2026-04-11T14:36:38Z</time></trkpt><trkpt lat="44.863995887481316" lon="8.224711341080042"><ele>139.0</ele><time>2026-04-11T14:36:40Z</time></trkpt><trkpt lat="44.86391713919193" lon="8.22458532368057"><ele>139.0</ele><time>2026-04-11T14:36:42Z</time></trkpt><trkpt lat="44.86383853244788" lon="8.224461706491754"><ele>140.0</ele><time>2026-04-11T14:36:44Z</time></trkpt><trkpt lat="44.86376157765502" lon="8.224340687170598"><ele>141.0</ele><time>2026-04-11T14:36:46Z</time></trkpt><trkpt lat="44.86368634558726" lon="8.224215951960096"><ele>142.0</ele><time>2026-04-11T14:36:48Z</time></trkpt><trkpt lat="44.86360838092676" lon="8.224078747117746"><ele>143.0</ele><time>2026-04-11T14:36:50Z</time></trkpt><trkpt lat="44.86356820386909" lon="8.224007984535616"><ele>144.0</ele><time>2026-04-11T14:36:51Z</time></trkpt><trkpt lat="44.863525483858595" lon="8.223932843461627"><ele>143.0</ele><time>2026-04-11T14:36:52Z</time></trkpt><trkpt lat="44.86348152845218" lon="8.223856996598386"><ele>142.0</ele><time>2026-04-11T14:36:53Z</time></trkpt><trkpt lat="44.86344013637415" lon="8.223787327806432"><ele>141.0</ele><time>2026-04-11T14:36:54Z</time></trkpt><trkpt lat="44.86335689279232" lon="8.223654600104165"><ele>140.0</ele><time>2026-04-11T14:36:56Z</time></trkpt><trkpt lat="44.86327502060875" lon="8.223527002478459"><ele>139.0</ele><time>2026-04-11T14:36:58Z</time></trkpt><trkpt lat="44.86319904345506" lon="8.2234092976538"><ele>139.0</ele><time>2026-04-11T14:37:00Z</time></trkpt><trkpt lat="44.86315327834416" lon="8.223338397724323"><ele>139.0</ele><time>2026-04-11T14:37:01Z</time></trkpt><trkpt lat="44.863110312720146" lon="8.223271834803064"><ele>139.0</ele><time>2026-04-11T14:37:02Z</time></trkpt><trkpt lat="44.863067391854244" lon="8.223204476614695"><ele>139.0</ele><time>2026-04-11T14:37:03Z</time></trkpt><trkpt lat="44.86302229872417" lon="8.223133272750013"><ele>139.0</ele><time>2026-04-11T14:37:04Z</time></trkpt><trkpt lat="44.862975095883286" lon="8.223058737573764"><ele>139.0</ele><time>2026-04-11T14:37:05Z</time></trkpt><trkpt lat="44.86293259834504" lon="8.222991632257461"><ele>139.0</ele><time>2026-04-11T14:37:06Z</time></trkpt><trkpt lat="44.86285283875724" lon="8.22286568866003"><ele>139.0</ele><time>2026-04-11T14:37:08Z</time></trkpt><trkpt lat="44.86281022884941" lon="8.222798405904344"><ele>139.0</ele><time>2026-04-11T14:37:09Z</time></trkpt><trkpt lat="44.86276442070736" lon="8.222726074259405"><ele>139.0</ele><time>2026-04-11T14:37:10Z</time></trkpt><trkpt lat="44.862680138150935" lon="8.222592988737716"><ele>139.0</ele><time>2026-04-11T14:37:12Z</time></trkpt><trkpt lat="44.86263554968625" lon="8.22252258189913"><ele>139.0</ele><time>2026-04-11T14:37:13Z</time></trkpt><trkpt lat="44.86259258202583" lon="8.222454734084714"><ele>139.0</ele><time>2026-04-11T14:37:14Z</time></trkpt><trkpt lat="44.862512299602685" lon="8.222328465274048"><ele>140.0</ele><time>2026-04-11T14:37:16Z</time></trkpt><trkpt lat="44.86242882657424" lon="8.222197208869485"><ele>141.0</ele><time>2026-04-11T14:37:18Z</time></trkpt><trkpt lat="44.86235613555822" lon="8.222084513365607"><ele>142.0</ele><time>2026-04-11T14:37:20Z</time></trkpt><trkpt lat="44.86227016545963" lon="8.221981965239774"><ele>143.0</ele><time>2026-04-11T14:37:22Z</time></trkpt><trkpt lat="44.862196469908184" lon="8.221845194743183"><ele>143.0</ele><time>2026-04-11T14:37:24Z</time></trkpt><trkpt lat="44.862096483310616" lon="8.221743875436886"><ele>143.0</ele><time>2026-04-11T14:37:26Z</time></trkpt><trkpt lat="44.86201672995301" lon="8.22163141748483"><ele>143.0</ele><time>2026-04-11T14:37:28Z</time></trkpt><trkpt lat="44.861963786047525" lon="8.221497713922812"><ele>143.0</ele><time>2026-04-11T14:37:30Z</time></trkpt><trkpt lat="44.86192612692979" lon="8.221359390699924"><ele>143.0</ele><time>2026-04-11T14:37:32Z</time></trkpt><trkpt lat="44.86186517247767" lon="8.22131920804367"><ele>142.66666666666666</ele><time>2026-04-11T14:37:34Z</time></trkpt><trkpt lat="44.861796371397446" lon="8.221238570461548"><ele>142.33333333333331</ele><time>2026-04-11T14:37:37Z</time></trkpt><trkpt lat="44.86173281122763" lon="8.221186486012686"><ele>142.0</ele><time>2026-04-11T14:37:39Z</time></trkpt><trkpt lat="44.86167677316075" lon="8.221133347882988"><ele>141.66666666666666</ele><time>2026-04-11T14:37:42Z</time></trkpt><trkpt lat="44.8617429276809" lon="8.221187449539148"><ele>141.33333333333334</ele><time>2026-04-11T14:37:53.999Z</time></trkpt><trkpt lat="44.86179886376167" lon="8.221244545491894"><ele>141.0</ele><time>2026-04-11T14:37:55.999Z</time></trkpt><trkpt lat="44.86186612915997" lon="8.221312111433107"><ele>143.0</ele><time>2026-04-11T14:37:58.999Z</time></trkpt><trkpt lat="44.861921735244536" lon="8.221402636970625"><ele>145.0</ele><time>2026-04-11T14:38:01.999Z</time></trkpt><trkpt lat="44.86199863943786" lon="8.221453395299715"><ele>147.0</ele><time>2026-04-11T14:38:04.999Z</time></trkpt><trkpt lat="44.86204944219786" lon="8.221395806398188"><ele>149.0</ele><time>2026-04-11T14:38:06.999Z</time></trkpt><trkpt lat="44.862110134114324" lon="8.221308929212418"><ele>151.0</ele><time>2026-04-11T14:38:09.999Z</time></trkpt><trkpt lat="44.86206699629025" lon="8.22123038183601"><ele>153.0</ele><time>2026-04-11T14:38:12.999Z</time></trkpt><trkpt lat="44.86201939069477" lon="8.221158422521125"><ele>153.0</ele><time>2026-04-11T14:38:18.999Z</time></trkpt><trkpt lat="44.861979845012364" lon="8.22108056013265"><ele>153.0</ele><time>2026-04-11T14:38:23.999Z</time></trkpt><trkpt lat="44.86193972700699" lon="8.221011015537849"><ele>153.0</ele><time>2026-04-11T14:38:27.999Z</time></trkpt><trkpt lat="44.861879656234024" lon="8.220958299041412"><ele>153.0</ele><time>2026-04-11T14:38:31Z</time></trkpt><trkpt lat="44.86182830459313" lon="8.220881424460181"><ele>153.0</ele><time>2026-04-11T14:38:34Z</time></trkpt><trkpt lat="44.86178107133443" lon="8.220783033847372"><ele>153.0</ele><time>2026-04-11T14:38:37Z</time></trkpt><trkpt lat="44.861721464772195" lon="8.220673507828817"><ele>151.71428571428572</ele><time>2026-04-11T14:38:40Z</time></trkpt><trkpt lat="44.861673778734435" lon="8.22060668218388"><ele>150.42857142857144</ele><time>2026-04-11T14:38:42Z</time></trkpt><trkpt lat="44.861629914779506" lon="8.220540309482166"><ele>149.14285714285717</ele><time>2026-04-11T14:38:44Z</time></trkpt><trkpt lat="44.861577629190094" lon="8.220467936353803"><ele>147.85714285714286</ele><time>2026-04-11T14:38:46Z</time></trkpt><trkpt lat="44.86153530562506" lon="8.2203898494558"><ele>146.57142857142858</ele><time>2026-04-11T14:38:48Z</time></trkpt><trkpt lat="44.8614867220253" lon="8.220305619937976"><ele>145.2857142857143</ele><time>2026-04-11T14:38:50Z</time></trkpt><trkpt lat="44.86143252805366" lon="8.220224700672198"><ele>144.0</ele><time>2026-04-11T14:38:52Z</time></trkpt><trkpt lat="44.86138319491904" lon="8.220142783254362"><ele>144.00000000000003</ele><time>2026-04-11T14:38:54Z</time></trkpt><trkpt lat="44.86134270342192" lon="8.220066638428625"><ele>144.0</ele><time>2026-04-11T14:38:56Z</time></trkpt><trkpt lat="44.861301073625704" lon="8.219997308253856"><ele>144.0</ele><time>2026-04-11T14:38:58Z</time></trkpt><trkpt lat="44.86125680492763" lon="8.219918742647652"><ele>144.0</ele><time>2026-04-11T14:39:00Z</time></trkpt><trkpt lat="44.86120070356424" lon="8.21983942231116"><ele>144.0</ele><time>2026-04-11T14:39:02Z</time></trkpt><trkpt lat="44.86114880920895" lon="8.219744645609197"><ele>144.00000000000003</ele><time>2026-04-11T14:39:04Z</time></trkpt><trkpt lat="44.861097406833736" lon="8.219659584190094"><ele>144.0</ele><time>2026-04-11T14:39:06Z</time></trkpt><trkpt lat="44.86104420157951" lon="8.219564367264498"><ele>144.33333333333334</ele><time>2026-04-11T14:39:08Z</time></trkpt><trkpt lat="44.860993981317534" lon="8.219470774531743"><ele>144.66666666666666</ele><time>2026-04-11T14:39:10Z</time></trkpt><trkpt lat="44.860942740123235" lon="8.219375227963061"><ele>145.0</ele><time>2026-04-11T14:39:12Z</time></trkpt><trkpt lat="44.860888712210354" lon="8.21927130832687"><ele>145.33333333333331</ele><time>2026-04-11T14:39:14Z</time></trkpt><trkpt lat="44.86084279627375" lon="8.219163328551797"><ele>145.66666666666666</ele><time>2026-04-11T14:39:16Z</time></trkpt><trkpt lat="44.86079172958711" lon="8.219046214670573"><ele>146.0</ele><time>2026-04-11T14:39:18Z</time></trkpt><trkpt lat="44.86075678588264" lon="8.218929829973234"><ele>146.0</ele><time>2026-04-11T14:39:20Z</time></trkpt><trkpt lat="44.860708208961405" lon="8.218822369987626"><ele>146.0</ele><time>2026-04-11T14:39:22Z</time></trkpt><trkpt lat="44.86065935170072" lon="8.218712356921749"><ele>146.0</ele><time>2026-04-11T14:39:24Z</time></trkpt><trkpt lat="44.8606213457549" lon="8.218611926183641"><ele>146.0</ele><time>2026-04-11T14:39:26Z</time></trkpt><trkpt lat="44.86058273293104" lon="8.218499917251266"><ele>146.0</ele><time>2026-04-11T14:39:28Z</time></trkpt><trkpt lat="44.86054024661901" lon="8.218386949264401"><ele>146.0</ele><time>2026-04-11T14:39:30Z</time></trkpt><trkpt lat="44.86050436432177" lon="8.218268092984209"><ele>147.6</ele><time>2026-04-11T14:39:32Z</time></trkpt><trkpt lat="44.86046824389953" lon="8.218148611077233"><ele>149.2</ele><time>2026-04-11T14:39:34Z</time></trkpt><trkpt lat="44.86043398133636" lon="8.218029757378064"><ele>150.8</ele><time>2026-04-11T14:39:36Z</time></trkpt><trkpt lat="44.86040094926434" lon="8.217907234507805"><ele>152.4</ele><time>2026-04-11T14:39:38Z</time></trkpt><trkpt lat="44.86036426006726" lon="8.217783312631903"><ele>154.0</ele><time>2026-04-11T14:39:40Z</time></trkpt><trkpt lat="44.860327983313944" lon="8.217654434230033"><ele>154.0</ele><time>2026-04-11T14:39:42Z</time></trkpt><trkpt lat="44.86029468160549" lon="8.217524553610774"><ele>154.0</ele><time>2026-04-11T14:39:44Z</time></trkpt><trkpt lat="44.86025637598628" lon="8.217391915594584"><ele>154.0</ele><time>2026-04-11T14:39:46Z</time></trkpt><trkpt lat="44.86022155841956" lon="8.217255756870923"><ele>154.0</ele><time>2026-04-11T14:39:48Z</time></trkpt><trkpt lat="44.86018549417284" lon="8.217126081657057"><ele>154.0</ele><time>2026-04-11T14:39:50Z</time></trkpt><trkpt lat="44.86014660653929" lon="8.216997191431613"><ele>153.2</ele><time>2026-04-11T14:39:52Z</time></trkpt><trkpt lat="44.86011126782455" lon="8.216857963831812"><ele>152.4</ele><time>2026-04-11T14:39:53.999Z</time></trkpt><trkpt lat="44.860072992734956" lon="8.216726097864491"><ele>151.6</ele><time>2026-04-11T14:39:55.999Z</time></trkpt><trkpt lat="44.86004630756578" lon="8.216577774064318"><ele>150.8</ele><time>2026-04-11T14:39:57.999Z</time></trkpt><trkpt lat="44.86000210158323" lon="8.216437003986279"><ele>150.0</ele><time>2026-04-11T14:39:59.999Z</time></trkpt><trkpt lat="44.85996602443373" lon="8.216299145655212"><ele>150.0</ele><time>2026-04-11T14:40:01.999Z</time></trkpt><trkpt lat="44.8599253926393" lon="8.216165051858635"><ele>150.0</ele><time>2026-04-11T14:40:03.999Z</time></trkpt><trkpt lat="44.85989327829819" lon="8.216028805684571"><ele>150.0</ele><time>2026-04-11T14:40:05.999Z</time></trkpt><trkpt lat="44.85985509734273" lon="8.215893688624664"><ele>150.0</ele><time>2026-04-11T14:40:07.999Z</time></trkpt><trkpt lat="44.85982039269821" lon="8.21575714287689"><ele>150.0</ele><time>2026-04-11T14:40:09.999Z</time></trkpt><trkpt lat="44.85979176663086" lon="8.215597877203106"><ele>150.4</ele><time>2026-04-11T14:40:11.999Z</time></trkpt><trkpt lat="44.859760519655794" lon="8.215430721636993"><ele>150.8</ele><time>2026-04-11T14:40:13.999Z</time></trkpt><trkpt lat="44.8597398864516" lon="8.215341586555532"><ele>151.2</ele><time>2026-04-11T14:40:14.999Z</time></trkpt><trkpt lat="44.859721599419494" lon="8.215252784234355"><ele>151.6</ele><time>2026-04-11T14:40:15.999Z</time></trkpt><trkpt lat="44.85967292087873" lon="8.215099613438245"><ele>152.0</ele><time>2026-04-11T14:40:17.999Z</time></trkpt><trkpt lat="44.85962579855159" lon="8.21496697766845"><ele>152.0</ele><time>2026-04-11T14:40:19.999Z</time></trkpt><trkpt lat="44.85957303627322" lon="8.214852993074867"><ele>152.0</ele><time>2026-04-11T14:40:21.999Z</time></trkpt><trkpt lat="44.85953244186729" lon="8.214741289592938"><ele>152.0</ele><time>2026-04-11T14:40:23.999Z</time></trkpt><trkpt lat="44.85948892315973" lon="8.214640538093056"><ele>152.0</ele><time>2026-04-11T14:40:25.999Z</time></trkpt><trkpt lat="44.85944891490829" lon="8.2145401944532"><ele>152.0</ele><time>2026-04-11T14:40:27.999Z</time></trkpt><trkpt lat="44.859414748563424" lon="8.214447289469994"><ele>152.0</ele><time>2026-04-11T14:40:29.999Z</time></trkpt><trkpt lat="44.859375131696254" lon="8.214359475306445"><ele>151.66666666666666</ele><time>2026-04-11T14:40:31.999Z</time></trkpt><trkpt lat="44.85933545080335" lon="8.21426650643699"><ele>151.33333333333331</ele><time>2026-04-11T14:40:33.999Z</time></trkpt><trkpt lat="44.85930113257454" lon="8.214174309256913"><ele>151.0</ele><time>2026-04-11T14:40:35.999Z</time></trkpt><trkpt lat="44.85926206424289" lon="8.214069809871244"><ele>150.66666666666666</ele><time>2026-04-11T14:40:38Z</time></trkpt><trkpt lat="44.8592143241932" lon="8.213965495979132"><ele>150.33333333333334</ele><time>2026-04-11T14:40:40Z</time></trkpt><trkpt lat="44.85915347066853" lon="8.213860767819808"><ele>150.0</ele><time>2026-04-11T14:40:42Z</time></trkpt><trkpt lat="44.859104348977226" lon="8.213746449843757"><ele>150.0</ele><time>2026-04-11T14:40:44Z</time></trkpt><trkpt lat="44.859054565847735" lon="8.213642270458664"><ele>150.0</ele><time>2026-04-11T14:40:46Z</time></trkpt><trkpt lat="44.859002198990886" lon="8.213538730098128"><ele>150.0</ele><time>2026-04-11T14:40:48Z</time></trkpt><trkpt lat="44.8589498264437" lon="8.213435080583185"><ele>150.0</ele><time>2026-04-11T14:40:50Z</time></trkpt><trkpt lat="44.858894737250594" lon="8.213329071973412"><ele>150.0</ele><time>2026-04-11T14:40:52Z</time></trkpt><trkpt lat="44.85886405813321" lon="8.213225828266525"><ele>150.0</ele><time>2026-04-11T14:40:54Z</time></trkpt><trkpt lat="44.85884725095902" lon="8.213106733233442"><ele>150.0</ele><time>2026-04-11T14:40:56Z</time></trkpt><trkpt lat="44.858835346938584" lon="8.212985226411016"><ele>150.0</ele><time>2026-04-11T14:40:58Z</time></trkpt><trkpt lat="44.858826752177386" lon="8.212857853064614"><ele>150.0</ele><time>2026-04-11T14:41:00Z</time></trkpt><trkpt lat="44.85881824404353" lon="8.212728574004647"><ele>150.0</ele><time>2026-04-11T14:41:02Z</time></trkpt><trkpt lat="44.858809987238025" lon="8.212595473504447"><ele>150.0</ele><time>2026-04-11T14:41:04Z</time></trkpt><trkpt lat="44.858806721162814" lon="8.212457720715905"><ele>149.8</ele><time>2026-04-11T14:41:06Z</time></trkpt><trkpt lat="44.85879355210098" lon="8.212320816983372"><ele>149.6</ele><time>2026-04-11T14:41:08Z</time></trkpt><trkpt lat="44.85877383692454" lon="8.212187489753013"><ele>149.4</ele><time>2026-04-11T14:41:10Z</time></trkpt><trkpt lat="44.85875012813815" lon="8.212056501292993"><ele>149.2</ele><time>2026-04-11T14:41:12Z</time></trkpt><trkpt lat="44.85873017962821" lon="8.211931644479565"><ele>149.0</ele><time>2026-04-11T14:41:14Z</time></trkpt><trkpt lat="44.85872022294795" lon="8.211802997854608"><ele>149.0</ele><time>2026-04-11T14:41:16Z</time></trkpt><trkpt lat="44.858725212618474" lon="8.211676243089972"><ele>149.0</ele><time>2026-04-11T14:41:18Z</time></trkpt><trkpt lat="44.858755706379426" lon="8.211569176174176"><ele>149.0</ele><time>2026-04-11T14:41:20Z</time></trkpt><trkpt lat="44.858782799252424" lon="8.211482406232"><ele>149.0</ele><time>2026-04-11T14:41:22Z</time></trkpt><trkpt lat="44.85875147851947" lon="8.211384681366587"><ele>149.0</ele><time>2026-04-11T14:41:25Z</time></trkpt><trkpt lat="44.858681624270204" lon="8.21137427904387"><ele>149.0</ele><time>2026-04-11T14:41:27Z</time></trkpt><trkpt lat="44.85860091617912" lon="8.211390980076093"><ele>149.83333333333331</ele><time>2026-04-11T14:41:30Z</time></trkpt><trkpt lat="44.8585320948299" lon="8.211392066561702"><ele>150.66666666666666</ele><time>2026-04-11T14:41:33Z</time></trkpt><trkpt lat="44.858452248190645" lon="8.211388756187548"><ele>151.5</ele><time>2026-04-11T14:41:36Z</time></trkpt><trkpt lat="44.858369935769694" lon="8.21138600832353"><ele>152.33333333333334</ele><time>2026-04-11T14:41:39Z</time></trkpt><trkpt lat="44.858306504425094" lon="8.2113788489274"><ele>153.16666666666669</ele><time>2026-04-11T14:41:41Z</time></trkpt><trkpt lat="44.858230571716696" lon="8.211374322780415"><ele>154.0</ele><time>2026-04-11T14:41:43Z</time></trkpt><trkpt lat="44.858141400738496" lon="8.211349587362687"><ele>155.2</ele><time>2026-04-11T14:41:45Z</time></trkpt><trkpt lat="44.85804102039038" lon="8.211320903827287"><ele>156.4</ele><time>2026-04-11T14:41:47Z</time></trkpt><trkpt lat="44.85793436540189" lon="8.21129486884893"><ele>157.6</ele><time>2026-04-11T14:41:49Z</time></trkpt><trkpt lat="44.85783046157821" lon="8.211272413047357"><ele>158.8</ele><time>2026-04-11T14:41:51Z</time></trkpt><trkpt lat="44.85773102881699" lon="8.211219204388778"><ele>160.0</ele><time>2026-04-11T14:41:53Z</time></trkpt><trkpt lat="44.85763275894993" lon="8.211161172732368"><ele>158.8</ele><time>2026-04-11T14:41:55Z</time></trkpt><trkpt lat="44.85754130678768" lon="8.21113252349046"><ele>157.6</ele><time>2026-04-11T14:41:56.999Z</time></trkpt><trkpt lat="44.85746479779548" lon="8.211064337552514"><ele>156.4</ele><time>2026-04-11T14:41:58.999Z</time></trkpt><trkpt lat="44.85737352430622" lon="8.211013970681504"><ele>155.2</ele><time>2026-04-11T14:42:00.999Z</time></trkpt><trkpt lat="44.85728700860518" lon="8.210963909788283"><ele>154.0</ele><time>2026-04-11T14:42:02.999Z</time></trkpt><trkpt lat="44.85720021573942" lon="8.210912157768332"><ele>154.0</ele><time>2026-04-11T14:42:04.999Z</time></trkpt><trkpt lat="44.85711296563745" lon="8.210867500042566"><ele>154.0</ele><time>2026-04-11T14:42:06.999Z</time></trkpt><trkpt lat="44.857019054190715" lon="8.210819105745466"><ele>154.0</ele><time>2026-04-11T14:42:08.999Z</time></trkpt><trkpt lat="44.85693766184286" lon="8.210775330709463"><ele>154.0</ele><time>2026-04-11T14:42:10.999Z</time></trkpt><trkpt lat="44.856847189837445" lon="8.210736550973948"><ele>154.0</ele><time>2026-04-11T14:42:12.999Z</time></trkpt><trkpt lat="44.85676527426712" lon="8.210687558923127"><ele>153.6</ele><time>2026-04-11T14:42:14.999Z</time></trkpt><trkpt lat="44.85668772371932" lon="8.210638940919079"><ele>153.2</ele><time>2026-04-11T14:42:16.999Z</time></trkpt><trkpt lat="44.856608460535284" lon="8.210564393763494"><ele>152.79999999999998</ele><time>2026-04-11T14:42:18.999Z</time></trkpt><trkpt lat="44.85654377041878" lon="8.210467760968914"><ele>152.4</ele><time>2026-04-11T14:42:20.999Z</time></trkpt><trkpt lat="44.85649391139824" lon="8.21037516048939"><ele>152.0</ele><time>2026-04-11T14:42:22.999Z</time></trkpt><trkpt lat="44.856442758408804" lon="8.210265924086032"><ele>152.0</ele><time>2026-04-11T14:42:24.999Z</time></trkpt><trkpt lat="44.8563788713864" lon="8.21016642898928"><ele>152.0</ele><time>2026-04-11T14:42:26.999Z</time></trkpt><trkpt lat="44.85630875430415" lon="8.21007406218644"><ele>152.0</ele><time>2026-04-11T14:42:28.999Z</time></trkpt><trkpt lat="44.856238408901746" lon="8.20998699954444"><ele>152.0</ele><time>2026-04-11T14:42:30.999Z</time></trkpt><trkpt lat="44.85616220408533" lon="8.209907446410675"><ele>152.0</ele><time>2026-04-11T14:42:32.999Z</time></trkpt><trkpt lat="44.85608821595392" lon="8.209825111152186"><ele>152.0</ele><time>2026-04-11T14:42:34.999Z</time></trkpt><trkpt lat="44.856001400443795" lon="8.209742104111674"><ele>152.0</ele><time>2026-04-11T14:42:36.999Z</time></trkpt><trkpt lat="44.85591580793052" lon="8.209655369655176"><ele>152.0</ele><time>2026-04-11T14:42:38.999Z</time></trkpt><trkpt lat="44.855840492163495" lon="8.209571322683372"><ele>152.0</ele><time>2026-04-11T14:42:40.999Z</time></trkpt><trkpt lat="44.85577430728798" lon="8.209489483581201"><ele>152.0</ele><time>2026-04-11T14:42:43Z</time></trkpt><trkpt lat="44.855705192498995" lon="8.209401730748379"><ele>152.0</ele><time>2026-04-11T14:42:45Z</time></trkpt><trkpt lat="44.855629000683265" lon="8.209321697796383"><ele>152.0</ele><time>2026-04-11T14:42:47Z</time></trkpt><trkpt lat="44.855542416189294" lon="8.209257589566011"><ele>152.0</ele><time>2026-04-11T14:42:49Z</time></trkpt><trkpt lat="44.855449196080585" lon="8.20922114906782"><ele>152.0</ele><time>2026-04-11T14:42:51Z</time></trkpt><trkpt lat="44.8553589666535" lon="8.209180510587158"><ele>152.0</ele><time>2026-04-11T14:42:53Z</time></trkpt><trkpt lat="44.855276176405916" lon="8.209133333439267"><ele>152.0</ele><time>2026-04-11T14:42:55Z</time></trkpt><trkpt lat="44.85519940244982" lon="8.209092450489056"><ele>152.0</ele><time>2026-04-11T14:42:57Z</time></trkpt><trkpt lat="44.855111490090614" lon="8.20903898681093"><ele>152.0</ele><time>2026-04-11T14:42:59Z</time></trkpt><trkpt lat="44.855023669449125" lon="8.208994291731809"><ele>152.0</ele><time>2026-04-11T14:43:01Z</time></trkpt><trkpt lat="44.85493698198892" lon="8.208950561995406"><ele>152.0</ele><time>2026-04-11T14:43:03Z</time></trkpt><trkpt lat="44.854857755078335" lon="8.208893596459026"><ele>154.39999999999998</ele><time>2026-04-11T14:43:05Z</time></trkpt><trkpt lat="44.85478280887402" lon="8.20881217408135"><ele>156.79999999999998</ele><time>2026-04-11T14:43:07Z</time></trkpt><trkpt lat="44.8547058968353" lon="8.2087431236833"><ele>159.2</ele><time>2026-04-11T14:43:09Z</time></trkpt><trkpt lat="44.85462618083389" lon="8.208670478916282"><ele>161.6</ele><time>2026-04-11T14:43:11Z</time></trkpt><trkpt lat="44.85454597080617" lon="8.208599403785948"><ele>164.0</ele><time>2026-04-11T14:43:13Z</time></trkpt><trkpt lat="44.85447225216725" lon="8.20852834101554"><ele>164.0</ele><time>2026-04-11T14:43:15Z</time></trkpt><trkpt lat="44.85439555815665" lon="8.208459812105556"><ele>164.0</ele><time>2026-04-11T14:43:17Z</time></trkpt><trkpt lat="44.854322530763696" lon="8.20839774628285"><ele>164.0</ele><time>2026-04-11T14:43:19Z</time></trkpt><trkpt lat="44.85425931490459" lon="8.208321035838312"><ele>164.0</ele><time>2026-04-11T14:43:21Z</time></trkpt><trkpt lat="44.854190037022875" lon="8.208235997528085"><ele>164.0</ele><time>2026-04-11T14:43:23Z</time></trkpt><trkpt lat="44.85412228813916" lon="8.208161297112639"><ele>164.0</ele><time>2026-04-11T14:43:25Z</time></trkpt><trkpt lat="44.854050735611345" lon="8.208087198208393"><ele>164.2</ele><time>2026-04-11T14:43:27Z</time></trkpt><trkpt lat="44.85397655516341" lon="8.208007668959755"><ele>164.39999999999998</ele><time>2026-04-11T14:43:29Z</time></trkpt><trkpt lat="44.853895428455225" lon="8.207929165077656"><ele>164.6</ele><time>2026-04-11T14:43:31Z</time></trkpt><trkpt lat="44.85381010659754" lon="8.207853694063488"><ele>164.8</ele><time>2026-04-11T14:43:33Z</time></trkpt><trkpt lat="44.853720499527036" lon="8.207789738192979"><ele>165.0</ele><time>2026-04-11T14:43:35Z</time></trkpt><trkpt lat="44.85363912320421" lon="8.207716112384853"><ele>165.0</ele><time>2026-04-11T14:43:37Z</time></trkpt><trkpt lat="44.853547460915436" lon="8.20765064047787"><ele>165.0</ele><time>2026-04-11T14:43:39Z</time></trkpt><trkpt lat="44.853475520997094" lon="8.207574530354368"><ele>165.0</ele><time>2026-04-11T14:43:41Z</time></trkpt><trkpt lat="44.853400410364564" lon="8.20750330602578"><ele>165.0</ele><time>2026-04-11T14:43:43Z</time></trkpt><trkpt lat="44.853328553152465" lon="8.207411584305474"><ele>165.0</ele><time>2026-04-11T14:43:45Z</time></trkpt><trkpt lat="44.853261426975706" lon="8.207308897782017"><ele>164.0</ele><time>2026-04-11T14:43:47Z</time></trkpt><trkpt lat="44.8531880170052" lon="8.207170121047525"><ele>163.0</ele><time>2026-04-11T14:43:49Z</time></trkpt><trkpt lat="44.85312316225642" lon="8.207038475126605"><ele>162.0</ele><time>2026-04-11T14:43:51Z</time></trkpt><trkpt lat="44.85305463872804" lon="8.20691419134185"><ele>161.0</ele><time>2026-04-11T14:43:53Z</time></trkpt><trkpt lat="44.852987340260576" lon="8.206803189797647"><ele>161.0</ele><time>2026-04-11T14:43:55Z</time></trkpt><trkpt lat="44.8529181574397" lon="8.206703129874903"><ele>161.0</ele><time>2026-04-11T14:43:57Z</time></trkpt><trkpt lat="44.8528416344899" lon="8.206612482498096"><ele>161.0</ele><time>2026-04-11T14:43:59Z</time></trkpt><trkpt lat="44.852751946484894" lon="8.206530042996137"><ele>161.0</ele><time>2026-04-11T14:44:01Z</time></trkpt><trkpt lat="44.85265628551411" lon="8.206463348148043"><ele>161.0</ele><time>2026-04-11T14:44:03Z</time></trkpt><trkpt lat="44.85256118624286" lon="8.20640674145172"><ele>161.0</ele><time>2026-04-11T14:44:05Z</time></trkpt><trkpt lat="44.85245912591971" lon="8.206363038874843"><ele>161.0</ele><time>2026-04-11T14:44:06.999Z</time></trkpt><trkpt lat="44.852377618002485" lon="8.20628047741913"><ele>161.0</ele><time>2026-04-11T14:44:08.999Z</time></trkpt><trkpt lat="44.85229442671288" lon="8.206198476284541"><ele>161.0</ele><time>2026-04-11T14:44:10.999Z</time></trkpt><trkpt lat="44.85220825713468" lon="8.20612016151605"><ele>161.0</ele><time>2026-04-11T14:44:12.999Z</time></trkpt><trkpt lat="44.85212344657093" lon="8.206030390095727"><ele>161.0</ele><time>2026-04-11T14:44:14.999Z</time></trkpt><trkpt lat="44.85203265026698" lon="8.205934507390934"><ele>161.0</ele><time>2026-04-11T14:44:16.999Z</time></trkpt><trkpt lat="44.851955893817234" lon="8.205847411627659"><ele>161.0</ele><time>2026-04-11T14:44:18.999Z</time></trkpt><trkpt lat="44.85186955775568" lon="8.205733087549122"><ele>161.0</ele><time>2026-04-11T14:44:20.999Z</time></trkpt><trkpt lat="44.85180347568233" lon="8.205621717049745"><ele>161.0</ele><time>2026-04-11T14:44:22.999Z</time></trkpt><trkpt lat="44.851734007565206" lon="8.205507675001009"><ele>161.4</ele><time>2026-04-11T14:44:24.999Z</time></trkpt><trkpt lat="44.851674463236705" lon="8.205394426058293"><ele>161.8</ele><time>2026-04-11T14:44:26.999Z</time></trkpt><trkpt lat="44.85161800023074" lon="8.205273573512578"><ele>162.20000000000002</ele><time>2026-04-11T14:44:28.999Z</time></trkpt><trkpt lat="44.85155928693848" lon="8.205157330883528"><ele>162.60000000000002</ele><time>2026-04-11T14:44:30.999Z</time></trkpt><trkpt lat="44.851505922228284" lon="8.20503448433379"><ele>163.0</ele><time>2026-04-11T14:44:32.999Z</time></trkpt><trkpt lat="44.85146588332384" lon="8.204928447860642"><ele>164.4</ele><time>2026-04-11T14:44:34.999Z</time></trkpt><trkpt lat="44.85142983486113" lon="8.204824938170498"><ele>165.8</ele><time>2026-04-11T14:44:36.999Z</time></trkpt><trkpt lat="44.851384113106484" lon="8.20470323161633"><ele>167.2</ele><time>2026-04-11T14:44:38.999Z</time></trkpt><trkpt lat="44.85133645303893" lon="8.204580781538912"><ele>168.6</ele><time>2026-04-11T14:44:40.999Z</time></trkpt><trkpt lat="44.85128570077426" lon="8.204460727799509"><ele>170.0</ele><time>2026-04-11T14:44:42.999Z</time></trkpt><trkpt lat="44.85124112833917" lon="8.204336264554465"><ele>170.0</ele><time>2026-04-11T14:44:44.999Z</time></trkpt><trkpt lat="44.851192844328786" lon="8.204219172470346"><ele>170.0</ele><time>2026-04-11T14:44:46.999Z</time></trkpt><trkpt lat="44.85113751560805" lon="8.204107649831792"><ele>170.0</ele><time>2026-04-11T14:44:49Z</time></trkpt><trkpt lat="44.85107042364194" lon="8.204007284744351"><ele>170.0</ele><time>2026-04-11T14:44:51Z</time></trkpt><trkpt lat="44.85098559216218" lon="8.203946512617213"><ele>170.0</ele><time>2026-04-11T14:44:53Z</time></trkpt><trkpt lat="44.850885839624056" lon="8.20392860650412"><ele>170.33333333333331</ele><time>2026-04-11T14:44:55Z</time></trkpt><trkpt lat="44.85079345800232" lon="8.203948606607407"><ele>170.66666666666666</ele><time>2026-04-11T14:44:57Z</time></trkpt><trkpt lat="44.85070845904141" lon="8.203985655752554"><ele>171.0</ele><time>2026-04-11T14:44:59Z</time></trkpt><trkpt lat="44.850625782572486" lon="8.204017759927503"><ele>171.33333333333334</ele><time>2026-04-11T14:45:01Z</time></trkpt><trkpt lat="44.85055075658403" lon="8.204050431364548"><ele>171.66666666666669</ele><time>2026-04-11T14:45:03Z</time></trkpt><trkpt lat="44.85046781914149" lon="8.204109342007804"><ele>172.0</ele><time>2026-04-11T14:45:05Z</time></trkpt><trkpt lat="44.85037706359249" lon="8.204176315420353"><ele>169.5</ele><time>2026-04-11T14:45:07Z</time></trkpt><trkpt lat="44.85028219321745" lon="8.204246493404012"><ele>167.0</ele><time>2026-04-11T14:45:09Z</time></trkpt><trkpt lat="44.85017024564836" lon="8.204303891722036"><ele>164.5</ele><time>2026-04-11T14:45:11Z</time></trkpt><trkpt lat="44.85005808805575" lon="8.204312834406197"><ele>162.0</ele><time>2026-04-11T14:45:13Z</time></trkpt><trkpt lat="44.84994390078855" lon="8.20431548815825"><ele>162.0</ele><time>2026-04-11T14:45:15Z</time></trkpt><trkpt lat="44.84983095642852" lon="8.204311028083495"><ele>162.0</ele><time>2026-04-11T14:45:17Z</time></trkpt><trkpt lat="44.84973060440316" lon="8.204278766524135"><ele>162.0</ele><time>2026-04-11T14:45:19Z</time></trkpt><trkpt lat="44.84964373851959" lon="8.204235718216928"><ele>162.0</ele><time>2026-04-11T14:45:21Z</time></trkpt><trkpt lat="44.849548581111236" lon="8.204182108212263"><ele>162.0</ele><time>2026-04-11T14:45:23Z</time></trkpt><trkpt lat="44.84945893593882" lon="8.204103101638136"><ele>162.0</ele><time>2026-04-11T14:45:25Z</time></trkpt><trkpt lat="44.84937607612681" lon="8.204028228229356"><ele>162.0</ele><time>2026-04-11T14:45:27Z</time></trkpt><trkpt lat="44.849289344255816" lon="8.203935062212125"><ele>162.0</ele><time>2026-04-11T14:45:29Z</time></trkpt><trkpt lat="44.84919621389847" lon="8.203846620722452"><ele>162.0</ele><time>2026-04-11T14:45:31Z</time></trkpt><trkpt lat="44.849119943263936" lon="8.203741718234957"><ele>162.0</ele><time>2026-04-11T14:45:33Z</time></trkpt><trkpt lat="44.84904203604284" lon="8.203636255603396"><ele>162.6</ele><time>2026-04-11T14:45:35Z</time></trkpt><trkpt lat="44.84898186138953" lon="8.203538566319454"><ele>163.2</ele><time>2026-04-11T14:45:37Z</time></trkpt><trkpt lat="44.84891758991857" lon="8.203430316294664"><ele>163.8</ele><time>2026-04-11T14:45:39Z</time></trkpt><trkpt lat="44.848850414373835" lon="8.203340594972222"><ele>164.4</ele><time>2026-04-11T14:45:41Z</time></trkpt><trkpt lat="44.84878664198478" lon="8.203248301733506"><ele>165.0</ele><time>2026-04-11T14:45:43Z</time></trkpt><trkpt lat="44.84872323190823" lon="8.20315860066899"><ele>163.8</ele><time>2026-04-11T14:45:45Z</time></trkpt><trkpt lat="44.84865735825172" lon="8.203059754043952"><ele>162.6</ele><time>2026-04-11T14:45:47Z</time></trkpt><trkpt lat="44.848597866961065" lon="8.202961592098925"><ele>161.4</ele><time>2026-04-11T14:45:49Z</time></trkpt><trkpt lat="44.84853860126441" lon="8.20286960611292"><ele>160.2</ele><time>2026-04-11T14:45:51Z</time></trkpt><trkpt lat="44.848489931314916" lon="8.202759628403996"><ele>159.0</ele><time>2026-04-11T14:45:53Z</time></trkpt><trkpt lat="44.84844772088241" lon="8.20265899064207"><ele>159.0</ele><time>2026-04-11T14:45:55Z</time></trkpt><trkpt lat="44.84839780707498" lon="8.202547798622948"><ele>159.0</ele><time>2026-04-11T14:45:57Z</time></trkpt><trkpt lat="44.848353334230985" lon="8.20242635227151"><ele>159.0</ele><time>2026-04-11T14:45:59Z</time></trkpt><trkpt lat="44.84830118472892" lon="8.202297220961455"><ele>159.0</ele><time>2026-04-11T14:46:01Z</time></trkpt><trkpt lat="44.84824452632534" lon="8.20216718314154"><ele>159.0</ele><time>2026-04-11T14:46:03Z</time></trkpt><trkpt lat="44.848190841954136" lon="8.202019626407704"><ele>160.4</ele><time>2026-04-11T14:46:05Z</time></trkpt><trkpt lat="44.84813427125319" lon="8.201881678976116"><ele>161.8</ele><time>2026-04-11T14:46:07Z</time></trkpt><trkpt lat="44.84807318741478" lon="8.201760384000055"><ele>163.20000000000002</ele><time>2026-04-11T14:46:09Z</time></trkpt><trkpt lat="44.84800217874301" lon="8.201653547008194"><ele>164.60000000000002</ele><time>2026-04-11T14:46:10.999Z</time></trkpt><trkpt lat="44.84793235883911" lon="8.201557873529799"><ele>166.0</ele><time>2026-04-11T14:46:12.999Z</time></trkpt><trkpt lat="44.847864456587196" lon="8.201457704846135"><ele>165.60000000000002</ele><time>2026-04-11T14:46:14.999Z</time></trkpt><trkpt lat="44.847784718597474" lon="8.20137385979814"><ele>165.2</ele><time>2026-04-11T14:46:16.999Z</time></trkpt><trkpt lat="44.84770964539399" lon="8.2012773634783"><ele>164.8</ele><time>2026-04-11T14:46:18.999Z</time></trkpt><trkpt lat="44.84764129231622" lon="8.201189342314999"><ele>164.39999999999998</ele><time>2026-04-11T14:46:20.999Z</time></trkpt><trkpt lat="44.8475629166436" lon="8.20108054105923"><ele>164.0</ele><time>2026-04-11T14:46:22.999Z</time></trkpt><trkpt lat="44.84749414286413" lon="8.200956108397156"><ele>164.0</ele><time>2026-04-11T14:46:24.999Z</time></trkpt><trkpt lat="44.84744118401594" lon="8.200828141934716"><ele>164.0</ele><time>2026-04-11T14:46:26.999Z</time></trkpt><trkpt lat="44.84739069966527" lon="8.20069460042481"><ele>164.0</ele><time>2026-04-11T14:46:28.999Z</time></trkpt><trkpt lat="44.84735442551426" lon="8.200561754967476"><ele>164.0</ele><time>2026-04-11T14:46:30.999Z</time></trkpt><trkpt lat="44.84731959318364" lon="8.200437082864887"><ele>164.0</ele><time>2026-04-11T14:46:32.999Z</time></trkpt><trkpt lat="44.84728522311622" lon="8.20031353762995"><ele>163.79999999999998</ele><time>2026-04-11T14:46:34.999Z</time></trkpt><trkpt lat="44.84726185261645" lon="8.200201642692624"><ele>163.6</ele><time>2026-04-11T14:46:36.999Z</time></trkpt><trkpt lat="44.84723617610699" lon="8.20009088158993"><ele>163.4</ele><time>2026-04-11T14:46:38.999Z</time></trkpt><trkpt lat="44.84720003956433" lon="8.199976754778463"><ele>163.2</ele><time>2026-04-11T14:46:40.999Z</time></trkpt><trkpt lat="44.84715991766062" lon="8.19984553252921"><ele>163.0</ele><time>2026-04-11T14:46:42.999Z</time></trkpt><trkpt lat="44.84712486452904" lon="8.19970392550537"><ele>161.20000000000002</ele><time>2026-04-11T14:46:44.999Z</time></trkpt><trkpt lat="44.84708063084675" lon="8.199565722185834"><ele>159.4</ele><time>2026-04-11T14:46:46.999Z</time></trkpt><trkpt lat="44.847041701733716" lon="8.199436918643944"><ele>157.60000000000002</ele><time>2026-04-11T14:46:48.999Z</time></trkpt><trkpt lat="44.84699416360485" lon="8.199308658550324"><ele>155.8</ele><time>2026-04-11T14:46:50.999Z</time></trkpt><trkpt lat="44.84692269077192" lon="8.199203062905337"><ele>154.0</ele><time>2026-04-11T14:46:52.999Z</time></trkpt><trkpt lat="44.84684466770682" lon="8.199107960657003"><ele>154.5</ele><time>2026-04-11T14:46:55Z</time></trkpt><trkpt lat="44.846779111872706" lon="8.199028121048189"><ele>155.0</ele><time>2026-04-11T14:46:57Z</time></trkpt><trkpt lat="44.846714826499955" lon="8.198959455741997"><ele>155.5</ele><time>2026-04-11T14:46:59Z</time></trkpt><trkpt lat="44.84665345086961" lon="8.198897571003704"><ele>156.0</ele><time>2026-04-11T14:47:01Z</time></trkpt><trkpt lat="44.84657737162738" lon="8.198840323206548"><ele>156.5</ele><time>2026-04-11T14:47:03Z</time></trkpt><trkpt lat="44.84649208075606" lon="8.198782855339106"><ele>157.0</ele><time>2026-04-11T14:47:05Z</time></trkpt><trkpt lat="44.846416406474454" lon="8.198724396218113"><ele>155.83333333333334</ele><time>2026-04-11T14:47:07Z</time></trkpt><trkpt lat="44.84634829686011" lon="8.19868033720395"><ele>154.66666666666669</ele><time>2026-04-11T14:47:09Z</time></trkpt><trkpt lat="44.846280543922305" lon="8.198611705517179"><ele>153.5</ele><time>2026-04-11T14:47:12Z</time></trkpt><trkpt lat="44.846219313957334" lon="8.198719330057013"><ele>152.33333333333334</ele><time>2026-04-11T14:47:13Z</time></trkpt><trkpt lat="44.84615147953916" lon="8.198790523808608"><ele>151.16666666666666</ele><time>2026-04-11T14:47:15Z</time></trkpt><trkpt lat="44.846091266115224" lon="8.198858477527898"><ele>150.0</ele><time>2026-04-11T14:47:17Z</time></trkpt><trkpt lat="44.846037811252174" lon="8.198918676830642"><ele>152.0</ele><time>2026-04-11T14:47:19Z</time></trkpt><trkpt lat="44.84595772767212" lon="8.198983653919836"><ele>154.0</ele><time>2026-04-11T14:47:21Z</time></trkpt><trkpt lat="44.84589884192486" lon="8.199055004150335"><ele>156.0</ele><time>2026-04-11T14:47:23Z</time></trkpt><trkpt lat="44.84583850144898" lon="8.199118380490477"><ele>158.0</ele><time>2026-04-11T14:47:25Z</time></trkpt><trkpt lat="44.8457790718393" lon="8.199170984640487"><ele>160.0</ele><time>2026-04-11T14:47:27Z</time></trkpt><trkpt lat="44.84570502187554" lon="8.199224734630741"><ele>162.0</ele><time>2026-04-11T14:47:29Z</time></trkpt><trkpt lat="44.84562363291672" lon="8.19926575709759"><ele>162.0</ele><time>2026-04-11T14:47:31Z</time></trkpt><trkpt lat="44.84554844264915" lon="8.199312705603628"><ele>162.0</ele><time>2026-04-11T14:47:33Z</time></trkpt><trkpt lat="44.84546752980284" lon="8.199357251835266"><ele>162.0</ele><time>2026-04-11T14:47:35Z</time></trkpt><trkpt lat="44.84538976105733" lon="8.199400258251993"><ele>162.0</ele><time>2026-04-11T14:47:37Z</time></trkpt><trkpt lat="44.845314820242116" lon="8.199445242732246"><ele>162.0</ele><time>2026-04-11T14:47:39Z</time></trkpt><trkpt lat="44.84523938925716" lon="8.199487237708894"><ele>162.0</ele><time>2026-04-11T14:47:41Z</time></trkpt><trkpt lat="44.845167050835215" lon="8.199537489336581"><ele>161.66666666666666</ele><time>2026-04-11T14:47:43Z</time></trkpt><trkpt lat="44.845096112173856" lon="8.19959242037604"><ele>161.33333333333334</ele><time>2026-04-11T14:47:45Z</time></trkpt><trkpt lat="44.845027443870485" lon="8.199643533908171"><ele>161.0</ele><time>2026-04-11T14:47:47Z</time></trkpt><trkpt lat="44.84496308440779" lon="8.199706118854921"><ele>160.66666666666669</ele><time>2026-04-11T14:47:49Z</time></trkpt><trkpt lat="44.84489999799259" lon="8.199773306770139"><ele>160.33333333333334</ele><time>2026-04-11T14:47:51Z</time></trkpt><trkpt lat="44.84483422297934" lon="8.199827006641515"><ele>160.0</ele><time>2026-04-11T14:47:53Z</time></trkpt><trkpt lat="44.84478174742868" lon="8.199899033888478"><ele>160.57142857142856</ele><time>2026-04-11T14:47:55Z</time></trkpt><trkpt lat="44.844726677997954" lon="8.199960796559811"><ele>161.14285714285714</ele><time>2026-04-11T14:47:57Z</time></trkpt><trkpt lat="44.844674619519104" lon="8.200025735293627"><ele>161.71428571428572</ele><time>2026-04-11T14:47:59Z</time></trkpt><trkpt lat="44.84462232817979" lon="8.200090493882678"><ele>162.28571428571428</ele><time>2026-04-11T14:48:01Z</time></trkpt><trkpt lat="44.84457078511107" lon="8.200146465780426"><ele>162.85714285714286</ele><time>2026-04-11T14:48:03Z</time></trkpt><trkpt lat="44.844519808001905" lon="8.200209714088679"><ele>163.42857142857142</ele><time>2026-04-11T14:48:05Z</time></trkpt><trkpt lat="44.84447101547513" lon="8.200274516223725"><ele>164.0</ele><time>2026-04-11T14:48:07Z</time></trkpt><trkpt lat="44.84442323628696" lon="8.200336579579377"><ele>163.99999999999997</ele><time>2026-04-11T14:48:09Z</time></trkpt><trkpt lat="44.844374240403106" lon="8.200407382321321"><ele>164.0</ele><time>2026-04-11T14:48:11Z</time></trkpt><trkpt lat="44.844330836809775" lon="8.200487235710247"><ele>164.0</ele><time>2026-04-11T14:48:13Z</time></trkpt><trkpt lat="44.844287900702824" lon="8.200557512607952"><ele>164.0</ele><time>2026-04-11T14:48:14.999Z</time></trkpt><trkpt lat="44.84424544322443" lon="8.200625151205408"><ele>164.0</ele><time>2026-04-11T14:48:16.999Z</time></trkpt><trkpt lat="44.844200020431416" lon="8.20070345485811"><ele>163.99999999999997</ele><time>2026-04-11T14:48:18.999Z</time></trkpt><trkpt lat="44.84412771446035" lon="8.200797214794738"><ele>164.0</ele><time>2026-04-11T14:48:22.999Z</time></trkpt><trkpt lat="44.84408418020964" lon="8.20088255831942"><ele>165.0</ele><time>2026-04-11T14:48:25.999Z</time></trkpt><trkpt lat="44.844056727703546" lon="8.20098807585289"><ele>166.0</ele><time>2026-04-11T14:48:28.999Z</time></trkpt><trkpt lat="44.84401171963041" lon="8.20105313858884"><ele>167.0</ele><time>2026-04-11T14:48:30.999Z</time></trkpt><trkpt lat="44.84397088771943" lon="8.201162978137143"><ele>168.0</ele><time>2026-04-11T14:48:33.999Z</time></trkpt><trkpt lat="44.84393116285383" lon="8.201272365403014"><ele>169.0</ele><time>2026-04-11T14:48:36.999Z</time></trkpt><trkpt lat="44.84390535707639" lon="8.201401468163988"><ele>170.0</ele><time>2026-04-11T14:48:39.999Z</time></trkpt><trkpt lat="44.843886767759" lon="8.201486804538115"><ele>172.0</ele><time>2026-04-11T14:48:41.999Z</time></trkpt><trkpt lat="44.84383312919638" lon="8.201591371121074"><ele>174.0</ele><time>2026-04-11T14:48:44.999Z</time></trkpt><trkpt lat="44.843788972774426" lon="8.201672872141632"><ele>176.0</ele><time>2026-04-11T14:48:47.999Z</time></trkpt><trkpt lat="44.843739516603435" lon="8.201737209931014"><ele>178.0</ele><time>2026-04-11T14:48:49.999Z</time></trkpt><trkpt lat="44.84368235572251" lon="8.201801237547615"><ele>180.0</ele><time>2026-04-11T14:48:51.999Z</time></trkpt><trkpt lat="44.843603680490034" lon="8.201872663761591"><ele>182.0</ele><time>2026-04-11T14:48:54.999Z</time></trkpt><trkpt lat="44.84354763176002" lon="8.201926405336646"><ele>182.0</ele><time>2026-04-11T14:48:56.999Z</time></trkpt><trkpt lat="44.84348223486598" lon="8.201975407536958"><ele>182.0</ele><time>2026-04-11T14:48:59.999Z</time></trkpt><trkpt lat="44.84342351661407" lon="8.202013509688744"><ele>182.0</ele><time>2026-04-11T14:49:02Z</time></trkpt><trkpt lat="44.84335227609192" lon="8.202062425942087"><ele>182.0</ele><time>2026-04-11T14:49:05Z</time></trkpt><trkpt lat="44.84327869532707" lon="8.202117973149258"><ele>182.0</ele><time>2026-04-11T14:49:07Z</time></trkpt><trkpt lat="44.8431962231366" lon="8.202180294250894"><ele>182.0</ele><time>2026-04-11T14:49:10Z</time></trkpt><trkpt lat="44.843128616767245" lon="8.202215928834336"><ele>182.42857142857142</ele><time>2026-04-11T14:49:12Z</time></trkpt><trkpt lat="44.843035620960585" lon="8.202252361364824"><ele>182.85714285714286</ele><time>2026-04-11T14:49:15Z</time></trkpt><trkpt lat="44.84295413001491" lon="8.20227214540111"><ele>183.28571428571428</ele><time>2026-04-11T14:49:17Z</time></trkpt><trkpt lat="44.84289118878482" lon="8.20228564905641"><ele>183.71428571428572</ele><time>2026-04-11T14:49:20Z</time></trkpt><trkpt lat="44.84284334002074" lon="8.202345925204085"><ele>184.14285714285714</ele><time>2026-04-11T14:49:23Z</time></trkpt><trkpt lat="44.84280206014384" lon="8.20242636672892"><ele>184.57142857142856</ele><time>2026-04-11T14:49:25Z</time></trkpt><trkpt lat="44.84276824605655" lon="8.202510015974573"><ele>185.0</ele><time>2026-04-11T14:49:27Z</time></trkpt><trkpt lat="44.84278480112239" lon="8.202618163927937"><ele>185.0</ele><time>2026-04-11T14:49:30Z</time></trkpt><trkpt lat="44.84285114296938" lon="8.202634200915261"><ele>185.0</ele><time>2026-04-11T14:49:33Z</time></trkpt><trkpt lat="44.842922274049805" lon="8.202635127101912"><ele>185.0</ele><time>2026-04-11T14:49:36Z</time></trkpt><trkpt lat="44.8430237369488" lon="8.202654924331613"><ele>185.0</ele><time>2026-04-11T14:49:38Z</time></trkpt><trkpt lat="44.843086011571565" lon="8.202710121978027"><ele>185.0</ele><time>2026-04-11T14:49:40Z</time></trkpt><trkpt lat="44.84314767279628" lon="8.202766249020353"><ele>185.0</ele><time>2026-04-11T14:49:42Z</time></trkpt><trkpt lat="44.84321068160903" lon="8.202824515087363"><ele>184.99999999999997</ele><time>2026-04-11T14:49:44Z</time></trkpt><trkpt lat="44.84326651373246" lon="8.202894400718796"><ele>185.0</ele><time>2026-04-11T14:49:46Z</time></trkpt><trkpt lat="44.84331409151046" lon="8.2029598756818"><ele>185.0</ele><time>2026-04-11T14:49:48Z</time></trkpt><trkpt lat="44.84335031683797" lon="8.203033097457492"><ele>185.0</ele><time>2026-04-11T14:49:50Z</time></trkpt><trkpt lat="44.84338015873702" lon="8.203112673835424"><ele>185.0</ele><time>2026-04-11T14:49:53Z</time></trkpt><trkpt lat="44.84339465866874" lon="8.203215191984022"><ele>184.99999999999997</ele><time>2026-04-11T14:49:56Z</time></trkpt><trkpt lat="44.843385818291765" lon="8.203319329865185"><ele>185.0</ele><time>2026-04-11T14:49:59Z</time></trkpt><trkpt lat="44.843334660633644" lon="8.203404213185582"><ele>187.2</ele><time>2026-04-11T14:50:02Z</time></trkpt><trkpt lat="44.843276387745114" lon="8.20351430509204"><ele>189.4</ele><time>2026-04-11T14:50:05Z</time></trkpt><trkpt lat="44.843226283968" lon="8.203622033350657"><ele>191.60000000000002</ele><time>2026-04-11T14:50:08Z</time></trkpt><trkpt lat="44.8431573685155" lon="8.203748890419147"><ele>193.8</ele><time>2026-04-11T14:50:10Z</time></trkpt><trkpt lat="44.8431083670149" lon="8.203832070801582"><ele>196.0</ele><time>2026-04-11T14:50:11Z</time></trkpt><trkpt lat="44.84304345420973" lon="8.20396246192598"><ele>195.20000000000002</ele><time>2026-04-11T14:50:13Z</time></trkpt><trkpt lat="44.84296975597344" lon="8.204095245160284"><ele>194.4</ele><time>2026-04-11T14:50:15Z</time></trkpt><trkpt lat="44.842891950647044" lon="8.20420807934656"><ele>193.6</ele><time>2026-04-11T14:50:16.999Z</time></trkpt><trkpt lat="44.842821529820945" lon="8.204301733663264"><ele>192.8</ele><time>2026-04-11T14:50:18.999Z</time></trkpt><trkpt lat="44.84274145973313" lon="8.204399354986414"><ele>192.0</ele><time>2026-04-11T14:50:20.999Z</time></trkpt><trkpt lat="44.8426687921618" lon="8.204513681246853"><ele>192.8</ele><time>2026-04-11T14:50:22.999Z</time></trkpt><trkpt lat="44.84257530053943" lon="8.204600885798937"><ele>193.6</ele><time>2026-04-11T14:50:24.999Z</time></trkpt><trkpt lat="44.84253043273418" lon="8.204684603354085"><ele>194.4</ele><time>2026-04-11T14:50:26.999Z</time></trkpt><trkpt lat="44.84245173314106" lon="8.204779888326158"><ele>195.20000000000002</ele><time>2026-04-11T14:50:28.999Z</time></trkpt><trkpt lat="44.842373877304055" lon="8.204846900516303"><ele>196.0</ele><time>2026-04-11T14:50:30.999Z</time></trkpt><trkpt lat="44.84230291998894" lon="8.204922175489171"><ele>196.0</ele><time>2026-04-11T14:50:32.999Z</time></trkpt><trkpt lat="44.842232575817775" lon="8.2050004663358"><ele>196.0</ele><time>2026-04-11T14:50:34.999Z</time></trkpt><trkpt lat="44.842159558136395" lon="8.205075955486704"><ele>196.0</ele><time>2026-04-11T14:50:36.999Z</time></trkpt><trkpt lat="44.84208451173563" lon="8.205159417436688"><ele>196.0</ele><time>2026-04-11T14:50:38.999Z</time></trkpt><trkpt lat="44.84198142396386" lon="8.20524891064727"><ele>196.0</ele><time>2026-04-11T14:50:41.999Z</time></trkpt><trkpt lat="44.84192064486589" lon="8.205305993356951"><ele>196.0</ele><time>2026-04-11T14:50:42.999Z</time></trkpt><trkpt lat="44.841853409148115" lon="8.20535373688712"><ele>196.0</ele><time>2026-04-11T14:50:43.999Z</time></trkpt><trkpt lat="44.84178793353024" lon="8.205402897438475"><ele>196.0</ele><time>2026-04-11T14:50:44.999Z</time></trkpt><trkpt lat="44.84172785044884" lon="8.205435065769205"><ele>196.0</ele><time>2026-04-11T14:50:45.999Z</time></trkpt><trkpt lat="44.84166082956867" lon="8.20547217911376"><ele>196.0</ele><time>2026-04-11T14:50:46.999Z</time></trkpt><trkpt lat="44.84160183681301" lon="8.205509670648736"><ele>196.0</ele><time>2026-04-11T14:50:47.999Z</time></trkpt><trkpt lat="44.84153990777146" lon="8.205545209739244"><ele>196.0</ele><time>2026-04-11T14:50:48.999Z</time></trkpt><trkpt lat="44.841440424301965" lon="8.205629084731287"><ele>195.60000000000002</ele><time>2026-04-11T14:50:50.999Z</time></trkpt><trkpt lat="44.84134233363323" lon="8.205730818629931"><ele>195.2</ele><time>2026-04-11T14:50:52.999Z</time></trkpt><trkpt lat="44.84129575510105" lon="8.205795569309775"><ele>194.8</ele><time>2026-04-11T14:50:53.999Z</time></trkpt><trkpt lat="44.84121578482232" lon="8.205913819845085"><ele>194.39999999999998</ele><time>2026-04-11T14:50:55.999Z</time></trkpt><trkpt lat="44.84113526027006" lon="8.2060330815727"><ele>194.0</ele><time>2026-04-11T14:50:57.999Z</time></trkpt><trkpt lat="44.84105829991747" lon="8.20614027257914"><ele>194.0</ele><time>2026-04-11T14:50:59.999Z</time></trkpt><trkpt lat="44.840977238386834" lon="8.206243893746862"><ele>194.0</ele><time>2026-04-11T14:51:01.999Z</time></trkpt><trkpt lat="44.84089211291242" lon="8.20633783357781"><ele>194.0</ele><time>2026-04-11T14:51:03.999Z</time></trkpt><trkpt lat="44.8407920250664" lon="8.206411647893502"><ele>194.0</ele><time>2026-04-11T14:51:05.999Z</time></trkpt><trkpt lat="44.84070073417834" lon="8.206443833573456"><ele>194.0</ele><time>2026-04-11T14:51:08Z</time></trkpt><trkpt lat="44.8406211416529" lon="8.206481209078847"><ele>194.33333333333334</ele><time>2026-04-11T14:51:10Z</time></trkpt><trkpt lat="44.84054250871402" lon="8.20650416786078"><ele>194.66666666666669</ele><time>2026-04-11T14:51:12Z</time></trkpt><trkpt lat="44.840463885861965" lon="8.206524025883411"><ele>195.0</ele><time>2026-04-11T14:51:14Z</time></trkpt><trkpt lat="44.840388927719125" lon="8.206541850702932"><ele>195.33333333333331</ele><time>2026-04-11T14:51:16Z</time></trkpt><trkpt lat="44.840290745279226" lon="8.20653793040754"><ele>195.66666666666666</ele><time>2026-04-11T14:51:19Z</time></trkpt><trkpt lat="44.84020906160274" lon="8.206530198051428"><ele>196.0</ele><time>2026-04-11T14:51:22Z</time></trkpt><trkpt lat="44.84012430124573" lon="8.206511467641857"><ele>197.99999999999997</ele><time>2026-04-11T14:51:25Z</time></trkpt><trkpt lat="44.84005289976994" lon="8.206499166910554"><ele>200.0</ele><time>2026-04-11T14:51:29Z</time></trkpt><trkpt lat="44.83996902433685" lon="8.206486112161537"><ele>202.0</ele><time>2026-04-11T14:51:32Z</time></trkpt><trkpt lat="44.83990282319745" lon="8.206469364042112"><ele>204.0</ele><time>2026-04-11T14:51:35Z</time></trkpt><trkpt lat="44.839840851767605" lon="8.206439191121943"><ele>205.99999999999997</ele><time>2026-04-11T14:51:38Z</time></trkpt><trkpt lat="44.83973369697762" lon="8.206399866807313"><ele>208.0</ele><time>2026-04-11T14:51:41Z</time></trkpt><trkpt lat="44.839667801182216" lon="8.206375672991667"><ele>210.0</ele><time>2026-04-11T14:51:44Z</time></trkpt><trkpt lat="44.839597903790086" lon="8.206362248881138"><ele>212.0</ele><time>2026-04-11T14:51:46Z</time></trkpt><trkpt lat="44.839535441452355" lon="8.206337541201409"><ele>214.0</ele><time>2026-04-11T14:51:48Z</time></trkpt><trkpt lat="44.8394683971675" lon="8.206319524857767"><ele>216.0</ele><time>2026-04-11T14:51:51Z</time></trkpt><trkpt lat="44.83940225415666" lon="8.206320414447342"><ele>218.0</ele><time>2026-04-11T14:51:53Z</time></trkpt><trkpt lat="44.83931569750242" lon="8.206301267356231"><ele>220.0</ele><time>2026-04-11T14:51:57Z</time></trkpt><trkpt lat="44.83924575607854" lon="8.206282306709385"><ele>222.0</ele><time>2026-04-11T14:51:59Z</time></trkpt><trkpt lat="44.83916612802232" lon="8.206265314311965"><ele>222.71428571428572</ele><time>2026-04-11T14:52:02Z</time></trkpt><trkpt lat="44.839089863439455" lon="8.206238443590161"><ele>223.42857142857144</ele><time>2026-04-11T14:52:05Z</time></trkpt><trkpt lat="44.83901441122068" lon="8.206221205421073"><ele>224.14285714285717</ele><time>2026-04-11T14:52:08Z</time></trkpt><trkpt lat="44.8389365934229" lon="8.206222717041932"><ele>224.85714285714286</ele><time>2026-04-11T14:52:11Z</time></trkpt><trkpt lat="44.838871438887566" lon="8.206231244824764"><ele>225.5714285714286</ele><time>2026-04-11T14:52:14Z</time></trkpt><trkpt lat="44.83879434254118" lon="8.20623041868953"><ele>226.2857142857143</ele><time>2026-04-11T14:52:16.999Z</time></trkpt><trkpt lat="44.83873099022523" lon="8.206243892538229"><ele>227.0</ele><time>2026-04-11T14:52:19.999Z</time></trkpt><trkpt lat="44.838665078460046" lon="8.206240255815457"><ele>227.00000000000003</ele><time>2026-04-11T14:52:22.999Z</time></trkpt><trkpt lat="44.838597746751255" lon="8.20624055518522"><ele>227.0</ele><time>2026-04-11T14:52:25.999Z</time></trkpt><trkpt lat="44.83852144683421" lon="8.206232987860052"><ele>227.0</ele><time>2026-04-11T14:52:28.999Z</time></trkpt><trkpt lat="44.838438989739394" lon="8.206233023815434"><ele>227.0</ele><time>2026-04-11T14:52:32.999Z</time></trkpt><trkpt lat="44.838344337190065" lon="8.206240560188041"><ele>227.00000000000003</ele><time>2026-04-11T14:52:35.999Z</time></trkpt><trkpt lat="44.83827064605585" lon="8.206243820276724"><ele>227.0</ele><time>2026-04-11T14:52:38.999Z</time></trkpt><trkpt lat="44.83818636164456" lon="8.206255613533788"><ele>228.00000000000003</ele><time>2026-04-11T14:52:41.999Z</time></trkpt><trkpt lat="44.83808932732423" lon="8.206263532208332"><ele>229.0</ele><time>2026-04-11T14:52:44.999Z</time></trkpt><trkpt lat="44.83801494123678" lon="8.20626878932245"><ele>230.0</ele><time>2026-04-11T14:52:46.999Z</time></trkpt><trkpt lat="44.83793559861644" lon="8.206271399551792"><ele>231.0</ele><time>2026-04-11T14:52:48.999Z</time></trkpt><trkpt lat="44.83785157864047" lon="8.206264241565577"><ele>232.00000000000003</ele><time>2026-04-11T14:52:50.999Z</time></trkpt><trkpt lat="44.83777150236852" lon="8.206255190620253"><ele>233.0</ele><time>2026-04-11T14:52:52.999Z</time></trkpt><trkpt lat="44.83769384472176" lon="8.206250909953932"><ele>233.14285714285717</ele><time>2026-04-11T14:52:54.999Z</time></trkpt><trkpt lat="44.83761522785695" lon="8.206246087580912"><ele>233.28571428571428</ele><time>2026-04-11T14:52:57.999Z</time></trkpt><trkpt lat="44.837534705794525" lon="8.206236386597851"><ele>233.42857142857144</ele><time>2026-04-11T14:53:02.999Z</time></trkpt><trkpt lat="44.837472689470964" lon="8.206258814215747"><ele>233.57142857142858</ele><time>2026-04-11T14:53:05.999Z</time></trkpt><trkpt lat="44.83740971063167" lon="8.206243739600982"><ele>233.71428571428572</ele><time>2026-04-11T14:53:08.999Z</time></trkpt><trkpt lat="44.83735673067291" lon="8.206293964734323"><ele>233.85714285714286</ele><time>2026-04-11T14:53:11.999Z</time></trkpt><trkpt lat="44.8373287792742" lon="8.20637663920571"><ele>234.0</ele><time>2026-04-11T14:53:15Z</time></trkpt><trkpt lat="44.837319218622305" lon="8.206466321852918"><ele>232.42857142857144</ele><time>2026-04-11T14:53:18Z</time></trkpt><trkpt lat="44.83732518752975" lon="8.206582345435764"><ele>230.8571428571429</ele><time>2026-04-11T14:53:22Z</time></trkpt><trkpt lat="44.837328209497535" lon="8.206686363639902"><ele>229.28571428571428</ele><time>2026-04-11T14:53:26Z</time></trkpt><trkpt lat="44.837332948253085" lon="8.206779927383684"><ele>227.71428571428572</ele><time>2026-04-11T14:53:29Z</time></trkpt><trkpt lat="44.83734793027042" lon="8.20689262888284"><ele>226.14285714285714</ele><time>2026-04-11T14:53:32Z</time></trkpt><trkpt lat="44.837356894661085" lon="8.206987004205399"><ele>224.57142857142856</ele><time>2026-04-11T14:53:34Z</time></trkpt><trkpt lat="44.837371066865714" lon="8.20707764200334"><ele>223.0</ele><time>2026-04-11T14:53:36Z</time></trkpt><trkpt lat="44.83739339243548" lon="8.207194084960884"><ele>223.0</ele><time>2026-04-11T14:53:39Z</time></trkpt><trkpt lat="44.83739884215215" lon="8.207282613222795"><ele>223.0</ele><time>2026-04-11T14:53:41Z</time></trkpt><trkpt lat="44.83738502250167" lon="8.207375974311436"><ele>223.0</ele><time>2026-04-11T14:53:43Z</time></trkpt><trkpt lat="44.83736143313634" lon="8.207489175483195"><ele>223.0</ele><time>2026-04-11T14:53:46Z</time></trkpt><trkpt lat="44.83731331627168" lon="8.207566133051683"><ele>223.0</ele><time>2026-04-11T14:54:39.999Z</time></trkpt><trkpt lat="44.83724160348269" lon="8.207556343114234"><ele>223.0</ele><time>2026-04-11T14:54:42.999Z</time></trkpt><trkpt lat="44.83716856434386" lon="8.20752788185043"><ele>223.0</ele><time>2026-04-11T14:54:45.999Z</time></trkpt><trkpt lat="44.83709909099488" lon="8.207505396314222"><ele>223.16666666666666</ele><time>2026-04-11T14:54:47.999Z</time></trkpt><trkpt lat="44.83703925240261" lon="8.207460958709461"><ele>223.33333333333331</ele><time>2026-04-11T14:54:49.999Z</time></trkpt><trkpt lat="44.83695752502398" lon="8.207431870318544"><ele>223.5</ele><time>2026-04-11T14:54:52.999Z</time></trkpt><trkpt lat="44.83689407780682" lon="8.207399938338781"><ele>223.66666666666669</ele><time>2026-04-11T14:54:54.999Z</time></trkpt><trkpt lat="44.83681945185472" lon="8.207361266987668"><ele>223.83333333333334</ele><time>2026-04-11T14:54:56.999Z</time></trkpt><trkpt lat="44.836727189813544" lon="8.207325047069753"><ele>224.0</ele><time>2026-04-11T14:54:59.999Z</time></trkpt><trkpt lat="44.836658061188984" lon="8.207306954392145"><ele>225.66666666666669</ele><time>2026-04-11T14:55:01.999Z</time></trkpt><trkpt lat="44.83658305536573" lon="8.207274131207145"><ele>227.33333333333334</ele><time>2026-04-11T14:55:03.999Z</time></trkpt><trkpt lat="44.8365056600843" lon="8.207241921286965"><ele>229.0</ele><time>2026-04-11T14:55:05.999Z</time></trkpt><trkpt lat="44.83644273169988" lon="8.207202686008864"><ele>230.66666666666669</ele><time>2026-04-11T14:55:07.999Z</time></trkpt><trkpt lat="44.836369091785045" lon="8.207173484681253"><ele>232.33333333333334</ele><time>2026-04-11T14:55:09.999Z</time></trkpt><trkpt lat="44.83630267552735" lon="8.20715171834846"><ele>234.0</ele><time>2026-04-11T14:55:11.999Z</time></trkpt><trkpt lat="44.83623187263966" lon="8.207105595617422"><ele>234.0</ele><time>2026-04-11T14:55:13.999Z</time></trkpt><trkpt lat="44.83615706462609" lon="8.207066757517326"><ele>234.0</ele><time>2026-04-11T14:55:15.999Z</time></trkpt><trkpt lat="44.83608197319425" lon="8.207031107501935"><ele>234.0</ele><time>2026-04-11T14:55:17.999Z</time></trkpt><trkpt lat="44.83601021072716" lon="8.20698935369052"><ele>234.0</ele><time>2026-04-11T14:55:20Z</time></trkpt><trkpt lat="44.8359470771105" lon="8.20694737068825"><ele>234.0</ele><time>2026-04-11T14:55:22Z</time></trkpt><trkpt lat="44.83587314970949" lon="8.206900446988074"><ele>234.0</ele><time>2026-04-11T14:55:24Z</time></trkpt><trkpt lat="44.83580399709174" lon="8.206856127348233"><ele>233.33333333333334</ele><time>2026-04-11T14:55:26Z</time></trkpt><trkpt lat="44.835734435894985" lon="8.206803618582681"><ele>232.66666666666669</ele><time>2026-04-11T14:55:28Z</time></trkpt><trkpt lat="44.83565706248047" lon="8.20674971026837"><ele>232.0</ele><time>2026-04-11T14:55:30Z</time></trkpt><trkpt lat="44.83558404895204" lon="8.206694597605905"><ele>231.33333333333334</ele><time>2026-04-11T14:55:32Z</time></trkpt><trkpt lat="44.835516589797486" lon="8.206634328826125"><ele>230.66666666666669</ele><time>2026-04-11T14:55:34Z</time></trkpt><trkpt lat="44.83544137316806" lon="8.206570936660155"><ele>230.0</ele><time>2026-04-11T14:55:36Z</time></trkpt><trkpt lat="44.83535315492118" lon="8.206494190173908"><ele>230.8</ele><time>2026-04-11T14:55:38Z</time></trkpt><trkpt lat="44.83527552561611" lon="8.206413228706591"><ele>231.6</ele><time>2026-04-11T14:55:40Z</time></trkpt><trkpt lat="44.83519733692308" lon="8.206341346297107"><ele>232.39999999999998</ele><time>2026-04-11T14:55:42Z</time></trkpt><trkpt lat="44.835127243358244" lon="8.206258743237594"><ele>233.2</ele><time>2026-04-11T14:55:44Z</time></trkpt><trkpt lat="44.83505286240767" lon="8.206194042470976"><ele>234.0</ele><time>2026-04-11T14:55:46Z</time></trkpt><trkpt lat="44.83497639536102" lon="8.206144327482724"><ele>234.0</ele><time>2026-04-11T14:55:48Z</time></trkpt><trkpt lat="44.83489697634118" lon="8.206091073545677"><ele>234.0</ele><time>2026-04-11T14:55:50Z</time></trkpt><trkpt lat="44.834808408915215" lon="8.206044461624812"><ele>234.0</ele><time>2026-04-11T14:55:52Z</time></trkpt><trkpt lat="44.83472117067685" lon="8.205989874273067"><ele>234.0</ele><time>2026-04-11T14:55:54Z</time></trkpt><trkpt lat="44.8346376094887" lon="8.205948096824953"><ele>234.0</ele><time>2026-04-11T14:55:56Z</time></trkpt><trkpt lat="44.83456016521294" lon="8.205906722601634"><ele>234.0</ele><time>2026-04-11T14:55:58Z</time></trkpt><trkpt lat="44.834459201736685" lon="8.205863206835046"><ele>234.0</ele><time>2026-04-11T14:56:00Z</time></trkpt><trkpt lat="44.83437616387404" lon="8.205826904967934"><ele>234.0</ele><time>2026-04-11T14:56:02Z</time></trkpt><trkpt lat="44.834293187564874" lon="8.205783315124295"><ele>234.0</ele><time>2026-04-11T14:56:04Z</time></trkpt><trkpt lat="44.83419691264492" lon="8.205739680073645"><ele>234.0</ele><time>2026-04-11T14:56:06Z</time></trkpt><trkpt lat="44.83411516262543" lon="8.205689364331523"><ele>234.0</ele><time>2026-04-11T14:56:08Z</time></trkpt><trkpt lat="44.83404015023652" lon="8.205649270616918"><ele>234.0</ele><time>2026-04-11T14:56:10Z</time></trkpt><trkpt lat="44.83396629418281" lon="8.205615037777422"><ele>232.66666666666666</ele><time>2026-04-11T14:56:12Z</time></trkpt><trkpt lat="44.833890569727096" lon="8.205575018204371"><ele>231.33333333333331</ele><time>2026-04-11T14:56:15Z</time></trkpt><trkpt lat="44.833833661811" lon="8.205523823929951"><ele>230.0</ele><time>2026-04-11T14:56:18Z</time></trkpt><trkpt lat="44.83378487683779" lon="8.205431311815182"><ele>228.66666666666666</ele><time>2026-04-11T14:56:21Z</time></trkpt><trkpt lat="44.83379752875031" lon="8.20530357959416"><ele>227.33333333333331</ele><time>2026-04-11T14:56:24Z</time></trkpt><trkpt lat="44.83383867660557" lon="8.205212559395658"><ele>226.0</ele><time>2026-04-11T14:56:26Z</time></trkpt><trkpt lat="44.83390316722416" lon="8.205121775898121"><ele>226.0</ele><time>2026-04-11T14:56:28Z</time></trkpt><trkpt lat="44.83398683151789" lon="8.205039142532076"><ele>226.00000000000003</ele><time>2026-04-11T14:56:30Z</time></trkpt><trkpt lat="44.8340803680691" lon="8.20496287691303"><ele>226.00000000000003</ele><time>2026-04-11T14:56:32Z</time></trkpt><trkpt lat="44.834172105127756" lon="8.204878497676544"><ele>226.0</ele><time>2026-04-11T14:56:34Z</time></trkpt><trkpt lat="44.83427257392032" lon="8.204781721443364"><ele>226.0</ele><time>2026-04-11T14:56:35.999Z</time></trkpt><trkpt lat="44.83436811032074" lon="8.204687352422404"><ele>225.99999999999997</ele><time>2026-04-11T14:56:37.999Z</time></trkpt><trkpt lat="44.83447406915939" lon="8.204583105354128"><ele>226.0</ele><time>2026-04-11T14:56:39.999Z</time></trkpt><trkpt lat="44.834530518996466" lon="8.20452646611561"><ele>226.0</ele><time>2026-04-11T14:56:40.999Z</time></trkpt><trkpt lat="44.83458333758039" lon="8.204474350685935"><ele>226.0</ele><time>2026-04-11T14:56:41.999Z</time></trkpt><trkpt lat="44.83463629235392" lon="8.204420797241823"><ele>225.99999999999997</ele><time>2026-04-11T14:56:42.999Z</time></trkpt><trkpt lat="44.83469169527355" lon="8.20436885373288"><ele>226.0</ele><time>2026-04-11T14:56:43.999Z</time></trkpt><trkpt lat="44.83474828093915" lon="8.204316755343651"><ele>226.0</ele><time>2026-04-11T14:56:44.999Z</time></trkpt><trkpt lat="44.83480635618645" lon="8.204254720067206"><ele>226.0</ele><time>2026-04-11T14:56:45.999Z</time></trkpt><trkpt lat="44.834863274485876" lon="8.204193357515928"><ele>226.0</ele><time>2026-04-11T14:56:46.999Z</time></trkpt><trkpt lat="44.83492154726677" lon="8.204130741944589"><ele>226.0</ele><time>2026-04-11T14:56:47.999Z</time></trkpt><trkpt lat="44.83497610845658" lon="8.204059481907588"><ele>226.0</ele><time>2026-04-11T14:56:48.999Z</time></trkpt><trkpt lat="44.83503081945866" lon="8.203993821261056"><ele>226.0</ele><time>2026-04-11T14:56:49.999Z</time></trkpt><trkpt lat="44.835092816460914" lon="8.203924688251146"><ele>226.0</ele><time>2026-04-11T14:56:50.999Z</time></trkpt><trkpt lat="44.83516192978011" lon="8.203841971178335"><ele>226.33333333333331</ele><time>2026-04-11T14:56:51.999Z</time></trkpt><trkpt lat="44.83522563459412" lon="8.203774761727358"><ele>226.66666666666666</ele><time>2026-04-11T14:56:52.999Z</time></trkpt><trkpt lat="44.835287229049904" lon="8.20370500488741"><ele>227.0</ele><time>2026-04-11T14:56:53.999Z</time></trkpt><trkpt lat="44.83535259983241" lon="8.203639004352821"><ele>227.33333333333331</ele><time>2026-04-11T14:56:54.999Z</time></trkpt><trkpt lat="44.835410876844264" lon="8.203558496413075"><ele>227.66666666666666</ele><time>2026-04-11T14:56:55.999Z</time></trkpt><trkpt lat="44.835461669790305" lon="8.203483436658225"><ele>228.0</ele><time>2026-04-11T14:56:56.999Z</time></trkpt><trkpt lat="44.835512619924444" lon="8.203391774440773"><ele>228.0</ele><time>2026-04-11T14:56:57.999Z</time></trkpt><trkpt lat="44.835543064072176" lon="8.203292360270533"><ele>227.99999999999997</ele><time>2026-04-11T14:56:58.999Z</time></trkpt><trkpt lat="44.8355672354446" lon="8.203193590486235"><ele>228.0</ele><time>2026-04-11T14:56:59.999Z</time></trkpt><trkpt lat="44.835585448926416" lon="8.203101140732693"><ele>228.0</ele><time>2026-04-11T14:57:00.999Z</time></trkpt><trkpt lat="44.835601451649815" lon="8.202997291601468"><ele>227.99999999999997</ele><time>2026-04-11T14:57:01.999Z</time></trkpt><trkpt lat="44.83561605032332" lon="8.20290031678339"><ele>228.0</ele><time>2026-04-11T14:57:02.999Z</time></trkpt><trkpt lat="44.83563313996376" lon="8.202809955197216"><ele>228.0</ele><time>2026-04-11T14:57:03.999Z</time></trkpt><trkpt lat="44.8356432979092" lon="8.202719436950703"><ele>227.83333333333334</ele><time>2026-04-11T14:57:04.999Z</time></trkpt><trkpt lat="44.83565414325559" lon="8.202618150587714"><ele>227.66666666666669</ele><time>2026-04-11T14:57:05.999Z</time></trkpt><trkpt lat="44.83565310948024" lon="8.202519728794938"><ele>227.5</ele><time>2026-04-11T14:57:06.999Z</time></trkpt><trkpt lat="44.83565293006349" lon="8.202422176414567"><ele>227.33333333333334</ele><time>2026-04-11T14:57:07.999Z</time></trkpt><trkpt lat="44.835649747532564" lon="8.20233139678218"><ele>227.16666666666669</ele><time>2026-04-11T14:57:08.999Z</time></trkpt><trkpt lat="44.83565328237488" lon="8.202236486928006"><ele>227.0</ele><time>2026-04-11T14:57:09.999Z</time></trkpt><trkpt lat="44.835652064435536" lon="8.202054769359455"><ele>227.00000000000003</ele><time>2026-04-11T14:57:11.999Z</time></trkpt><trkpt lat="44.835637977656546" lon="8.201949440722608"><ele>227.0</ele><time>2026-04-11T14:57:12.999Z</time></trkpt><trkpt lat="44.83562612987425" lon="8.201858689555745"><ele>227.0</ele><time>2026-04-11T14:57:13.999Z</time></trkpt><trkpt lat="44.83559565654485" lon="8.20169019013503"><ele>227.0</ele><time>2026-04-11T14:57:15.999Z</time></trkpt><trkpt lat="44.83559418134617" lon="8.201600601058095"><ele>227.00000000000003</ele><time>2026-04-11T14:57:16.999Z</time></trkpt><trkpt lat="44.835579583638534" lon="8.201512179939922"><ele>227.0</ele><time>2026-04-11T14:57:17.999Z</time></trkpt><trkpt lat="44.83556079576256" lon="8.201352065256689"><ele>227.0</ele><time>2026-04-11T14:57:19.999Z</time></trkpt><trkpt lat="44.835554030623484" lon="8.201259721560081"><ele>227.0</ele><time>2026-04-11T14:57:20.999Z</time></trkpt><trkpt lat="44.835535605550774" lon="8.201097442105517"><ele>227.0</ele><time>2026-04-11T14:57:22.999Z</time></trkpt><trkpt lat="44.835519333867644" lon="8.200944189798708"><ele>227.0</ele><time>2026-04-11T14:57:25Z</time></trkpt><trkpt lat="44.835514832214464" lon="8.200784944850382"><ele>227.0</ele><time>2026-04-11T14:57:27Z</time></trkpt><trkpt lat="44.83552650183587" lon="8.200636171395372"><ele>226.16666666666669</ele><time>2026-04-11T14:57:29Z</time></trkpt><trkpt lat="44.835528901286004" lon="8.20049920021497"><ele>225.33333333333334</ele><time>2026-04-11T14:57:31Z</time></trkpt><trkpt lat="44.83553794433942" lon="8.200365812903518"><ele>224.5</ele><time>2026-04-11T14:57:33Z</time></trkpt><trkpt lat="44.83555460998967" lon="8.200254529575473"><ele>223.66666666666669</ele><time>2026-04-11T14:57:35Z</time></trkpt><trkpt lat="44.83557027336607" lon="8.200162629512858"><ele>222.83333333333334</ele><time>2026-04-11T14:57:37Z</time></trkpt><trkpt lat="44.8355817101001" lon="8.20005576930936"><ele>222.0</ele><time>2026-04-11T14:57:39Z</time></trkpt><trkpt lat="44.83555573827632" lon="8.1999447295873"><ele>221.0</ele><time>2026-04-11T14:57:41Z</time></trkpt><trkpt lat="44.83550993652443" lon="8.199832215862449"><ele>220.0</ele><time>2026-04-11T14:57:43Z</time></trkpt><trkpt lat="44.83546928541855" lon="8.199709640608953"><ele>219.0</ele><time>2026-04-11T14:57:45Z</time></trkpt><trkpt lat="44.83543542005531" lon="8.199572894004204"><ele>218.0</ele><time>2026-04-11T14:57:47Z</time></trkpt><trkpt lat="44.83541136364337" lon="8.199421020212256"><ele>217.0</ele><time>2026-04-11T14:57:49Z</time></trkpt><trkpt lat="44.8354011799688" lon="8.199264544226619"><ele>217.0</ele><time>2026-04-11T14:57:51Z</time></trkpt><trkpt lat="44.835384889165155" lon="8.199099489742737"><ele>217.0</ele><time>2026-04-11T14:57:53Z</time></trkpt><trkpt lat="44.83535247802879" lon="8.198937824981192"><ele>217.0</ele><time>2026-04-11T14:57:55Z</time></trkpt><trkpt lat="44.83531823129493" lon="8.198778890811267"><ele>217.0</ele><time>2026-04-11T14:57:57Z</time></trkpt><trkpt lat="44.835281901450294" lon="8.19861720389986"><ele>215.83333333333331</ele><time>2026-04-11T14:57:59Z</time></trkpt><trkpt lat="44.83524825263696" lon="8.198452852831197"><ele>214.66666666666666</ele><time>2026-04-11T14:58:01Z</time></trkpt><trkpt lat="44.83521885399458" lon="8.19828279387729"><ele>213.5</ele><time>2026-04-11T14:58:03Z</time></trkpt><trkpt lat="44.835203164366405" lon="8.198193761166475"><ele>212.33333333333331</ele><time>2026-04-11T14:58:04Z</time></trkpt><trkpt lat="44.83518818223692" lon="8.198106642715038"><ele>211.16666666666666</ele><time>2026-04-11T14:58:05Z</time></trkpt><trkpt lat="44.83517403869729" lon="8.198015492068933"><ele>210.0</ele><time>2026-04-11T14:58:06Z</time></trkpt><trkpt lat="44.83514660031949" lon="8.197847405432993"><ele>212.4</ele><time>2026-04-11T14:58:08Z</time></trkpt><trkpt lat="44.835108401971155" lon="8.197685150013813"><ele>214.8</ele><time>2026-04-11T14:58:10Z</time></trkpt><trkpt lat="44.83506834090371" lon="8.197532787284985"><ele>217.2</ele><time>2026-04-11T14:58:12Z</time></trkpt><trkpt lat="44.835034564576624" lon="8.19739440872209"><ele>219.6</ele><time>2026-04-11T14:58:14Z</time></trkpt><trkpt lat="44.834995338675476" lon="8.197268935502654"><ele>222.0</ele><time>2026-04-11T14:58:16Z</time></trkpt><trkpt lat="44.8349558915182" lon="8.197143809161705"><ele>222.0</ele><time>2026-04-11T14:58:18Z</time></trkpt><trkpt lat="44.834920820366776" lon="8.197022944048136"><ele>222.0</ele><time>2026-04-11T14:58:20Z</time></trkpt><trkpt lat="44.83488888155187" lon="8.19690000562452"><ele>222.0</ele><time>2026-04-11T14:58:22Z</time></trkpt><trkpt lat="44.834846949846636" lon="8.196804111456316"><ele>222.0</ele><time>2026-04-11T14:58:24Z</time></trkpt><trkpt lat="44.83480257445122" lon="8.196692666427358"><ele>222.0</ele><time>2026-04-11T14:58:26Z</time></trkpt><trkpt lat="44.834763747999624" lon="8.196585044995906"><ele>222.0</ele><time>2026-04-11T14:58:28Z</time></trkpt><trkpt lat="44.834722737642075" lon="8.196470355678528"><ele>221.16666666666666</ele><time>2026-04-11T14:58:30Z</time></trkpt><trkpt lat="44.83467735394295" lon="8.196363818108996"><ele>220.33333333333331</ele><time>2026-04-11T14:58:32Z</time></trkpt><trkpt lat="44.83463610263319" lon="8.196252731670311"><ele>219.5</ele><time>2026-04-11T14:58:34Z</time></trkpt><trkpt lat="44.83458914434122" lon="8.196153689304447"><ele>218.66666666666666</ele><time>2026-04-11T14:58:36Z</time></trkpt><trkpt lat="44.83453016183375" lon="8.196061935676893"><ele>217.83333333333331</ele><time>2026-04-11T14:58:38.999Z</time></trkpt><trkpt lat="44.834491557225505" lon="8.195987700862775"><ele>217.0</ele><time>2026-04-11T14:58:40.999Z</time></trkpt><trkpt lat="44.83446778772361" lon="8.195902378923375"><ele>216.99999999999997</ele><time>2026-04-11T14:58:42.999Z</time></trkpt><trkpt lat="44.83441172153706" lon="8.195855620652031"><ele>217.0</ele><time>2026-04-11T14:58:44.999Z</time></trkpt><trkpt lat="44.83434563867633" lon="8.195778717917099"><ele>217.0</ele><time>2026-04-11T14:58:47.999Z</time></trkpt><trkpt lat="44.83427909898093" lon="8.195729681535417"><ele>217.0</ele><time>2026-04-11T14:58:49.999Z</time></trkpt><trkpt lat="44.83419254714099" lon="8.19566006456832"><ele>216.99999999999997</ele><time>2026-04-11T14:58:52.999Z</time></trkpt><trkpt lat="44.83415343341552" lon="8.195588800711848"><ele>217.0</ele><time>2026-04-11T14:58:54.999Z</time></trkpt><trkpt lat="44.83409761459253" lon="8.195546952968037"><ele>218.66666666666666</ele><time>2026-04-11T14:58:56.999Z</time></trkpt><trkpt lat="44.83406757573576" lon="8.195466265019316"><ele>220.33333333333331</ele><time>2026-04-11T14:58:58.999Z</time></trkpt><trkpt lat="44.83401210829374" lon="8.195293402711771"><ele>222.0</ele><time>2026-04-11T14:59:01.999Z</time></trkpt><trkpt lat="44.83397327088555" lon="8.195218664174503"><ele>223.66666666666669</ele><time>2026-04-11T14:59:02.999Z</time></trkpt><trkpt lat="44.83391170392154" lon="8.195099580608213"><ele>225.33333333333334</ele><time>2026-04-11T14:59:04.999Z</time></trkpt><trkpt lat="44.83386838070457" lon="8.195029647234502"><ele>227.0</ele><time>2026-04-11T14:59:05.999Z</time></trkpt><trkpt lat="44.83379854939486" lon="8.19488903228983"><ele>226.16666666666669</ele><time>2026-04-11T14:59:07.999Z</time></trkpt><trkpt lat="44.8337580514739" lon="8.194819502137"><ele>225.33333333333334</ele><time>2026-04-11T14:59:08.999Z</time></trkpt><trkpt lat="44.83371643263844" lon="8.194745116553293"><ele>224.5</ele><time>2026-04-11T14:59:09.999Z</time></trkpt><trkpt lat="44.833685193464326" lon="8.19465676688293"><ele>223.66666666666669</ele><time>2026-04-11T14:59:10.999Z</time></trkpt><trkpt lat="44.833623493741015" lon="8.194538847295844"><ele>222.83333333333334</ele><time>2026-04-11T14:59:12.999Z</time></trkpt><trkpt lat="44.833577779462" lon="8.194439247043851"><ele>222.0</ele><time>2026-04-11T14:59:14.999Z</time></trkpt><trkpt lat="44.83354404463896" lon="8.1943543627923"><ele>222.0</ele><time>2026-04-11T14:59:16.999Z</time></trkpt><trkpt lat="44.83350115309377" lon="8.19426488917561"><ele>222.0</ele><time>2026-04-11T14:59:18.999Z</time></trkpt><trkpt lat="44.83348492227242" lon="8.194178858315446"><ele>222.0</ele><time>2026-04-11T14:59:20.999Z</time></trkpt><trkpt lat="44.833452809091895" lon="8.194076836559642"><ele>222.0</ele><time>2026-04-11T14:59:23.999Z</time></trkpt><trkpt lat="44.83342185689466" lon="8.193963561920167"><ele>222.0</ele><time>2026-04-11T14:59:26.999Z</time></trkpt><trkpt lat="44.833395327248176" lon="8.193873787391825"><ele>222.0</ele><time>2026-04-11T14:59:28.999Z</time></trkpt><trkpt lat="44.833382248737145" lon="8.193769525571636"><ele>222.0</ele><time>2026-04-11T14:59:31Z</time></trkpt><trkpt lat="44.83335458799602" lon="8.19365127203694"><ele>222.6</ele><time>2026-04-11T14:59:33Z</time></trkpt><trkpt lat="44.83334037064504" lon="8.193530031350086"><ele>223.2</ele><time>2026-04-11T14:59:35Z</time></trkpt><trkpt lat="44.833312501687985" lon="8.193413511608693"><ele>223.8</ele><time>2026-04-11T14:59:37Z</time></trkpt><trkpt lat="44.83328870517347" lon="8.193281583804819"><ele>224.4</ele><time>2026-04-11T14:59:39Z</time></trkpt><trkpt lat="44.83326481560509" lon="8.193143269027983"><ele>225.0</ele><time>2026-04-11T14:59:41Z</time></trkpt><trkpt lat="44.83325954056996" lon="8.193005685407336"><ele>225.66666666666666</ele><time>2026-04-11T14:59:43Z</time></trkpt><trkpt lat="44.833276957630176" lon="8.1928709286432"><ele>226.33333333333331</ele><time>2026-04-11T14:59:45Z</time></trkpt><trkpt lat="44.833277465840034" lon="8.192737873593543"><ele>227.0</ele><time>2026-04-11T14:59:47Z</time></trkpt><trkpt lat="44.8332795263203" lon="8.192614965443886"><ele>227.66666666666666</ele><time>2026-04-11T14:59:49Z</time></trkpt><trkpt lat="44.83327027145947" lon="8.192495733902453"><ele>228.33333333333331</ele><time>2026-04-11T14:59:51Z</time></trkpt><trkpt lat="44.83327134712545" lon="8.19238298879344"><ele>229.0</ele><time>2026-04-11T14:59:53Z</time></trkpt><trkpt lat="44.833280503077184" lon="8.192274261998541"><ele>230.2</ele><time>2026-04-11T14:59:55Z</time></trkpt><trkpt lat="44.83329172161532" lon="8.192139937930023"><ele>231.39999999999998</ele><time>2026-04-11T14:59:57Z</time></trkpt><trkpt lat="44.8333302630139" lon="8.192012466718806"><ele>232.6</ele><time>2026-04-11T14:59:59Z</time></trkpt><trkpt lat="44.833377344633234" lon="8.191876632358067"><ele>233.8</ele><time>2026-04-11T15:00:01Z</time></trkpt><trkpt lat="44.83343219498277" lon="8.191741737447735"><ele>235.0</ele><time>2026-04-11T15:00:03Z</time></trkpt><trkpt lat="44.83348071062581" lon="8.191633961068618"><ele>233.6</ele><time>2026-04-11T15:00:05Z</time></trkpt><trkpt lat="44.833523031598595" lon="8.19150833571984"><ele>232.2</ele><time>2026-04-11T15:00:07Z</time></trkpt><trkpt lat="44.8335648639753" lon="8.191386822518206"><ele>230.8</ele><time>2026-04-11T15:00:09Z</time></trkpt><trkpt lat="44.83360080133365" lon="8.191252107069422"><ele>229.4</ele><time>2026-04-11T15:00:11Z</time></trkpt><trkpt lat="44.833638142872275" lon="8.191107294228468"><ele>228.0</ele><time>2026-04-11T15:00:13Z</time></trkpt><trkpt lat="44.83367414547136" lon="8.190966265751738"><ele>228.0</ele><time>2026-04-11T15:00:15Z</time></trkpt><trkpt lat="44.83370522352348" lon="8.190823290670698"><ele>228.0</ele><time>2026-04-11T15:00:17Z</time></trkpt><trkpt lat="44.83373886641392" lon="8.190681823851772"><ele>228.0</ele><time>2026-04-11T15:00:19Z</time></trkpt><trkpt lat="44.83377114615808" lon="8.190551443185136"><ele>228.0</ele><time>2026-04-11T15:00:21Z</time></trkpt><trkpt lat="44.83378476294851" lon="8.190406960302132"><ele>228.0</ele><time>2026-04-11T15:00:23Z</time></trkpt><trkpt lat="44.8338108802697" lon="8.190248082285928"><ele>228.5</ele><time>2026-04-11T15:00:25Z</time></trkpt><trkpt lat="44.83384385539603" lon="8.190125130847619"><ele>229.0</ele><time>2026-04-11T15:00:27Z</time></trkpt><trkpt lat="44.83385490167845" lon="8.190036066116111"><ele>229.5</ele><time>2026-04-11T15:00:28Z</time></trkpt><trkpt lat="44.83386477977475" lon="8.189888650454344"><ele>230.0</ele><time>2026-04-11T15:00:30Z</time></trkpt><trkpt lat="44.83387330800298" lon="8.189772080913585"><ele>230.5</ele><time>2026-04-11T15:00:32Z</time></trkpt><trkpt lat="44.833901033937316" lon="8.18966515988546"><ele>231.0</ele><time>2026-04-11T15:00:34Z</time></trkpt><trkpt lat="44.83391633356348" lon="8.189549048042416"><ele>231.16666666666666</ele><time>2026-04-11T15:00:36Z</time></trkpt><trkpt lat="44.83394340223263" lon="8.189438305347666"><ele>231.33333333333331</ele><time>2026-04-11T15:00:38Z</time></trkpt><trkpt lat="44.833948466140676" lon="8.189321078101264"><ele>231.5</ele><time>2026-04-11T15:00:40Z</time></trkpt><trkpt lat="44.83396898535509" lon="8.189213318740295"><ele>231.66666666666666</ele><time>2026-04-11T15:00:42.999Z</time></trkpt><trkpt lat="44.83396420581948" lon="8.189120827367397"><ele>231.83333333333331</ele><time>2026-04-11T15:00:44.999Z</time></trkpt><trkpt lat="44.83394210598652" lon="8.189020813755816"><ele>232.0</ele><time>2026-04-11T15:00:46.999Z</time></trkpt><trkpt lat="44.8339326848149" lon="8.18890990445399"><ele>232.49999999999997</ele><time>2026-04-11T15:00:48.999Z</time></trkpt><trkpt lat="44.83392756953599" lon="8.188791013378685"><ele>233.0</ele><time>2026-04-11T15:00:50.999Z</time></trkpt><trkpt lat="44.83391876345618" lon="8.188683230240613"><ele>233.5</ele><time>2026-04-11T15:00:52.999Z</time></trkpt><trkpt lat="44.83387324425378" lon="8.188562654503555"><ele>234.0</ele><time>2026-04-11T15:00:54.999Z</time></trkpt><trkpt lat="44.83383268879564" lon="8.188469606506155"><ele>234.49999999999997</ele><time>2026-04-11T15:00:56.999Z</time></trkpt><trkpt lat="44.83379454433991" lon="8.188391997516801"><ele>235.0</ele><time>2026-04-11T15:00:58.999Z</time></trkpt><trkpt lat="44.83373800916509" lon="8.188292800185302"><ele>235.0</ele><time>2026-04-11T15:01:01.999Z</time></trkpt><trkpt lat="44.833689529339296" lon="8.188230945492197"><ele>234.99999999999997</ele><time>2026-04-11T15:01:04.999Z</time></trkpt><trkpt lat="44.8336159854817" lon="8.188178845960191"><ele>235.0</ele><time>2026-04-11T15:01:09.999Z</time></trkpt><trkpt lat="44.83355932220654" lon="8.188138919276057"><ele>235.0</ele><time>2026-04-11T15:01:13.999Z</time></trkpt><trkpt lat="44.83349108987613" lon="8.188057478488759"><ele>234.99999999999997</ele><time>2026-04-11T15:01:17.999Z</time></trkpt><trkpt lat="44.83342842780973" lon="8.188000081986905"><ele>235.0</ele><time>2026-04-11T15:01:19.999Z</time></trkpt><trkpt lat="44.83337922082617" lon="8.187924335718764"><ele>235.0</ele><time>2026-04-11T15:01:21.999Z</time></trkpt><trkpt lat="44.833344670780164" lon="8.18784930564521"><ele>235.57142857142856</ele><time>2026-04-11T15:01:23.999Z</time></trkpt><trkpt lat="44.83332669076944" lon="8.187755213597159"><ele>236.1428571428571</ele><time>2026-04-11T15:01:28.999Z</time></trkpt><trkpt lat="44.83337653754467" lon="8.187697340675356"><ele>236.71428571428572</ele><time>2026-04-11T15:01:31.999Z</time></trkpt><trkpt lat="44.83342654056368" lon="8.187619649879261"><ele>237.28571428571428</ele><time>2026-04-11T15:01:34.999Z</time></trkpt><trkpt lat="44.83347053226903" lon="8.187545508805323"><ele>237.85714285714286</ele><time>2026-04-11T15:01:39Z</time></trkpt><trkpt lat="44.833520706135886" lon="8.187445145825876"><ele>238.42857142857144</ele><time>2026-04-11T15:01:42Z</time></trkpt><trkpt lat="44.83355581646047" lon="8.18733892475698"><ele>239.00000000000003</ele><time>2026-04-11T15:01:46Z</time></trkpt><trkpt lat="44.83356978467808" lon="8.18725174213469"><ele>239.00000000000003</ele><time>2026-04-11T15:01:49Z</time></trkpt><trkpt lat="44.833566269289065" lon="8.187163010162841"><ele>239.0</ele><time>2026-04-11T15:01:52Z</time></trkpt><trkpt lat="44.83352066743155" lon="8.187051188968573"><ele>239.0</ele><time>2026-04-11T15:01:55Z</time></trkpt><trkpt lat="44.83349307518591" lon="8.18694830137094"><ele>239.0</ele><time>2026-04-11T15:01:59Z</time></trkpt><trkpt lat="44.83344667968209" lon="8.186845458142859"><ele>239.00000000000003</ele><time>2026-04-11T15:02:02Z</time></trkpt><trkpt lat="44.83339835659745" lon="8.18669095892107"><ele>239.0</ele><time>2026-04-11T15:02:04Z</time></trkpt><trkpt lat="44.833345568136174" lon="8.186574547525371"><ele>238.5714285714286</ele><time>2026-04-11T15:02:06Z</time></trkpt><trkpt lat="44.833285686708265" lon="8.186436355452052"><ele>238.14285714285717</ele><time>2026-04-11T15:02:08Z</time></trkpt><trkpt lat="44.83326094683112" lon="8.18635351615174"><ele>237.71428571428572</ele><time>2026-04-11T15:02:09Z</time></trkpt><trkpt lat="44.83323771520281" lon="8.186267529977984"><ele>237.2857142857143</ele><time>2026-04-11T15:02:10Z</time></trkpt><trkpt lat="44.8332219728054" lon="8.18617304135703"><ele>236.8571428571429</ele><time>2026-04-11T15:02:11Z</time></trkpt><trkpt lat="44.833203913410884" lon="8.186078399861104"><ele>236.42857142857142</ele><time>2026-04-11T15:02:12Z</time></trkpt><trkpt lat="44.83318573907422" lon="8.185992052474587"><ele>236.0</ele><time>2026-04-11T15:02:13Z</time></trkpt><trkpt lat="44.833146742472955" lon="8.185831388451208"><ele>236.0</ele><time>2026-04-11T15:02:15Z</time></trkpt><trkpt lat="44.833079785332295" lon="8.185698016928916"><ele>236.00000000000003</ele><time>2026-04-11T15:02:17Z</time></trkpt><trkpt lat="44.8329853053569" lon="8.185658236408768"><ele>236.00000000000003</ele><time>2026-04-11T15:02:19Z</time></trkpt><trkpt lat="44.83289675834503" lon="8.185784520883562"><ele>236.0</ele><time>2026-04-11T15:02:21Z</time></trkpt><trkpt lat="44.83287128086943" lon="8.185876406949731"><ele>236.0</ele><time>2026-04-11T15:02:22Z</time></trkpt><trkpt lat="44.83285198522398" lon="8.185979439261411"><ele>236.00000000000003</ele><time>2026-04-11T15:02:23Z</time></trkpt><trkpt lat="44.83283277770527" lon="8.186082278380555"><ele>236.0</ele><time>2026-04-11T15:02:24Z</time></trkpt><trkpt lat="44.83280556966298" lon="8.186181345670095"><ele>236.0</ele><time>2026-04-11T15:02:25Z</time></trkpt><trkpt lat="44.832763255790006" lon="8.186278965934521"><ele>236.0</ele><time>2026-04-11T15:02:26Z</time></trkpt><trkpt lat="44.832724349524824" lon="8.18637859351094"><ele>236.00000000000003</ele><time>2026-04-11T15:02:27Z</time></trkpt><trkpt lat="44.832698565769384" lon="8.186476075383991"><ele>236.0</ele><time>2026-04-11T15:02:28Z</time></trkpt><trkpt lat="44.83269085090003" lon="8.18658407872343"><ele>237.20000000000002</ele><time>2026-04-11T15:02:29Z</time></trkpt><trkpt lat="44.83272105746656" lon="8.186667968597009"><ele>238.40000000000003</ele><time>2026-04-11T15:02:30Z</time></trkpt><trkpt lat="44.8327617004529" lon="8.186806391901397"><ele>239.6</ele><time>2026-04-11T15:02:32Z</time></trkpt><trkpt lat="44.8326741026575" lon="8.186877323930828"><ele>240.8</ele><time>2026-04-11T15:02:34Z</time></trkpt><trkpt lat="44.83260029064264" lon="8.186744924274954"><ele>242.0</ele><time>2026-04-11T15:02:36Z</time></trkpt><trkpt lat="44.832586962579576" lon="8.186655136367957"><ele>238.66666666666669</ele><time>2026-04-11T15:02:37Z</time></trkpt><trkpt lat="44.83256320917706" lon="8.18656299489157"><ele>235.33333333333334</ele><time>2026-04-11T15:02:38Z</time></trkpt><trkpt lat="44.83253363786569" lon="8.186465717073979"><ele>232.0</ele><time>2026-04-11T15:02:39Z</time></trkpt><trkpt lat="44.83251285612863" lon="8.186353504693079"><ele>228.66666666666669</ele><time>2026-04-11T15:02:40Z</time></trkpt><trkpt lat="44.83249310193735" lon="8.186240640468801"><ele>225.33333333333334</ele><time>2026-04-11T15:02:41Z</time></trkpt><trkpt lat="44.83247840133239" lon="8.186120666270469"><ele>222.0</ele><time>2026-04-11T15:02:42Z</time></trkpt><trkpt lat="44.832467306399884" lon="8.185992345864008"><ele>221.6</ele><time>2026-04-11T15:02:43Z</time></trkpt><trkpt lat="44.832462841035685" lon="8.185857803249291"><ele>221.2</ele><time>2026-04-11T15:02:44Z</time></trkpt><trkpt lat="44.83246535125393" lon="8.185718110309697"><ele>220.8</ele><time>2026-04-11T15:02:45Z</time></trkpt><trkpt lat="44.83247191408402" lon="8.18557280117965"><ele>220.4</ele><time>2026-04-11T15:02:46Z</time></trkpt><trkpt lat="44.83248515950929" lon="8.185427120866507"><ele>220.0</ele><time>2026-04-11T15:02:47Z</time></trkpt><trkpt lat="44.832507196585865" lon="8.185281515473747"><ele>218.66666666666666</ele><time>2026-04-11T15:02:48Z</time></trkpt><trkpt lat="44.832527116049086" lon="8.185136698907073"><ele>217.33333333333331</ele><time>2026-04-11T15:02:49Z</time></trkpt><trkpt lat="44.832549375939074" lon="8.184998611467629"><ele>216.0</ele><time>2026-04-11T15:02:50Z</time></trkpt><trkpt lat="44.83256662397451" lon="8.184873142916041"><ele>214.66666666666669</ele><time>2026-04-11T15:02:50.999Z</time></trkpt><trkpt lat="44.83258036064565" lon="8.184764039270405"><ele>213.33333333333334</ele><time>2026-04-11T15:02:51.999Z</time></trkpt><trkpt lat="44.83258266793181" lon="8.18467434282179"><ele>212.0</ele><time>2026-04-11T15:02:52.999Z</time></trkpt><trkpt lat="44.832528734257465" lon="8.184567652692602"><ele>212.0</ele><time>2026-04-11T15:02:54.999Z</time></trkpt><trkpt lat="44.832433495229246" lon="8.184617528471472"><ele>212.0</ele><time>2026-04-11T15:02:56.999Z</time></trkpt><trkpt lat="44.832410830383445" lon="8.184704556809928"><ele>212.0</ele><time>2026-04-11T15:02:57.999Z</time></trkpt><trkpt lat="44.83240406081536" lon="8.18479731713018"><ele>212.0</ele><time>2026-04-11T15:02:58.999Z</time></trkpt><trkpt lat="44.832354552092184" lon="8.184925908030397"><ele>212.0</ele><time>2026-04-11T15:03:00.999Z</time></trkpt><trkpt lat="44.83225093042556" lon="8.184849425734727"><ele>209.85714285714286</ele><time>2026-04-11T15:03:02.999Z</time></trkpt><trkpt lat="44.83224335932838" lon="8.184752887221453"><ele>207.7142857142857</ele><time>2026-04-11T15:03:03.999Z</time></trkpt><trkpt lat="44.832266799508744" lon="8.184652538207377"><ele>205.57142857142856</ele><time>2026-04-11T15:03:04.999Z</time></trkpt><trkpt lat="44.83229939016996" lon="8.184562460550142"><ele>203.42857142857144</ele><time>2026-04-11T15:03:05.999Z</time></trkpt><trkpt lat="44.83232947487661" lon="8.18447772825136"><ele>201.28571428571428</ele><time>2026-04-11T15:03:06.999Z</time></trkpt><trkpt lat="44.83234996662107" lon="8.18437692410523"><ele>199.14285714285714</ele><time>2026-04-11T15:03:07.999Z</time></trkpt><trkpt lat="44.832368584462145" lon="8.18426923563402"><ele>197.0</ele><time>2026-04-11T15:03:08.999Z</time></trkpt><trkpt lat="44.8323699503693" lon="8.184163341787256"><ele>197.0</ele><time>2026-04-11T15:03:09.999Z</time></trkpt><trkpt lat="44.832337763505365" lon="8.18407578575672"><ele>197.0</ele><time>2026-04-11T15:03:10.999Z</time></trkpt><trkpt lat="44.832270856885984" lon="8.184033983928169"><ele>197.0</ele><time>2026-04-11T15:03:11.999Z</time></trkpt><trkpt lat="44.83219945187329" lon="8.184041714790697"><ele>197.0</ele><time>2026-04-11T15:03:12.999Z</time></trkpt><trkpt lat="44.83213578662472" lon="8.184082379798369"><ele>197.0</ele><time>2026-04-11T15:03:13.999Z</time></trkpt><trkpt lat="44.83208346601899" lon="8.184142656239825"><ele>197.0</ele><time>2026-04-11T15:03:14.999Z</time></trkpt><trkpt lat="44.83202255395533" lon="8.18418224994105"><ele>197.0</ele><time>2026-04-11T15:03:15.999Z</time></trkpt><trkpt lat="44.831951032641555" lon="8.184173105230421"><ele>197.0</ele><time>2026-04-11T15:03:16.999Z</time></trkpt><trkpt lat="44.83187871904684" lon="8.18413787973427"><ele>197.0</ele><time>2026-04-11T15:03:17.999Z</time></trkpt><trkpt lat="44.83181303766907" lon="8.184078195136888"><ele>197.0</ele><time>2026-04-11T15:03:18.999Z</time></trkpt><trkpt lat="44.8317529650596" lon="8.184016441399152"><ele>197.0</ele><time>2026-04-11T15:03:19.999Z</time></trkpt><trkpt lat="44.8317005324854" lon="8.183954785826087"><ele>197.0</ele><time>2026-04-11T15:03:20.999Z</time></trkpt><trkpt lat="44.8316566253533" lon="8.183887081684748"><ele>197.0</ele><time>2026-04-11T15:03:21.999Z</time></trkpt><trkpt lat="44.8316137171755" lon="8.183817721181779"><ele>197.0</ele><time>2026-04-11T15:03:22.999Z</time></trkpt><trkpt lat="44.83155552262354" lon="8.183763251243287"><ele>197.33333333333334</ele><time>2026-04-11T15:03:23.999Z</time></trkpt><trkpt lat="44.83148200991226" lon="8.18375508996862"><ele>197.66666666666669</ele><time>2026-04-11T15:03:24.999Z</time></trkpt><trkpt lat="44.83140502946859" lon="8.183781603727477"><ele>198.0</ele><time>2026-04-11T15:03:25.999Z</time></trkpt><trkpt lat="44.83133586327469" lon="8.183846501549949"><ele>198.33333333333331</ele><time>2026-04-11T15:03:26.999Z</time></trkpt><trkpt lat="44.83127964372567" lon="8.18392673675091"><ele>198.66666666666666</ele><time>2026-04-11T15:03:27.999Z</time></trkpt><trkpt lat="44.83121484148648" lon="8.18399946193424"><ele>199.0</ele><time>2026-04-11T15:03:28.999Z</time></trkpt><trkpt lat="44.831147371709136" lon="8.184073905955952"><ele>199.0</ele><time>2026-04-11T15:03:29.999Z</time></trkpt><trkpt lat="44.83107744544339" lon="8.184144899233088"><ele>199.0</ele><time>2026-04-11T15:03:30.999Z</time></trkpt><trkpt lat="44.8309990089225" lon="8.184216140233037"><ele>199.0</ele><time>2026-04-11T15:03:31.999Z</time></trkpt><trkpt lat="44.83092229537659" lon="8.184294215632475"><ele>199.0</ele><time>2026-04-11T15:03:32.999Z</time></trkpt><trkpt lat="44.830842798069924" lon="8.18438012670826"><ele>199.0</ele><time>2026-04-11T15:03:33.999Z</time></trkpt><trkpt lat="44.83075181516451" lon="8.184462393987499"><ele>198.25</ele><time>2026-04-11T15:03:34.999Z</time></trkpt><trkpt lat="44.830658646610985" lon="8.18455002656132"><ele>197.5</ele><time>2026-04-11T15:03:35.999Z</time></trkpt><trkpt lat="44.830574866980804" lon="8.184645826705259"><ele>196.75</ele><time>2026-04-11T15:03:36.999Z</time></trkpt><trkpt lat="44.83047834393386" lon="8.184748231654636"><ele>196.0</ele><time>2026-04-11T15:03:37.999Z</time></trkpt><trkpt lat="44.830381825231186" lon="8.184836772930339"><ele>193.5</ele><time>2026-04-11T15:03:38.999Z</time></trkpt><trkpt lat="44.83027078632313" lon="8.184901781560338"><ele>191.0</ele><time>2026-04-11T15:03:39.999Z</time></trkpt><trkpt lat="44.830149911363236" lon="8.184950150240306"><ele>188.5</ele><time>2026-04-11T15:03:40.999Z</time></trkpt><trkpt lat="44.830026868967" lon="8.184979216082494"><ele>186.0</ele><time>2026-04-11T15:03:41.999Z</time></trkpt><trkpt lat="44.82990247510493" lon="8.184994309553822"><ele>185.25</ele><time>2026-04-11T15:03:43Z</time></trkpt><trkpt lat="44.8297856046625" lon="8.184994780054476"><ele>184.5</ele><time>2026-04-11T15:03:44Z</time></trkpt><trkpt lat="44.829670493217414" lon="8.185003919712853"><ele>183.75</ele><time>2026-04-11T15:03:45Z</time></trkpt><trkpt lat="44.82955268772275" lon="8.185013187598454"><ele>183.0</ele><time>2026-04-11T15:03:46Z</time></trkpt><trkpt lat="44.82943853964944" lon="8.185019590783202"><ele>183.0</ele><time>2026-04-11T15:03:47Z</time></trkpt><trkpt lat="44.829332023571546" lon="8.185032748618228"><ele>183.0</ele><time>2026-04-11T15:03:48Z</time></trkpt><trkpt lat="44.829229350321945" lon="8.185056244386834"><ele>183.0</ele><time>2026-04-11T15:03:49Z</time></trkpt><trkpt lat="44.82912417167589" lon="8.185118081230977"><ele>183.0</ele><time>2026-04-11T15:03:50Z</time></trkpt><trkpt lat="44.82902423831636" lon="8.185190804159744"><ele>183.0</ele><time>2026-04-11T15:03:51Z</time></trkpt><trkpt lat="44.82892880669783" lon="8.185262025650182"><ele>181.8</ele><time>2026-04-11T15:03:52Z</time></trkpt><trkpt lat="44.828839391617095" lon="8.185329526214478"><ele>180.60000000000002</ele><time>2026-04-11T15:03:53Z</time></trkpt><trkpt lat="44.828754548816626" lon="8.185398629647931"><ele>179.39999999999998</ele><time>2026-04-11T15:03:54Z</time></trkpt><trkpt lat="44.828667796542874" lon="8.185446483932886"><ele>178.2</ele><time>2026-04-11T15:03:55Z</time></trkpt><trkpt lat="44.828578192233905" lon="8.185455824798586"><ele>177.0</ele><time>2026-04-11T15:03:56Z</time></trkpt><trkpt lat="44.82850284775508" lon="8.185439405089845"><ele>176.0</ele><time>2026-04-11T15:03:57Z</time></trkpt><trkpt lat="44.82843320804663" lon="8.185427770937485"><ele>175.0</ele><time>2026-04-11T15:03:58Z</time></trkpt><trkpt lat="44.82836786507931" lon="8.185412335706047"><ele>174.0</ele><time>2026-04-11T15:03:59Z</time></trkpt><trkpt lat="44.82827777698607" lon="8.185383132669667"><ele>173.0</ele><time>2026-04-11T15:04:01Z</time></trkpt><trkpt lat="44.8282156071413" lon="8.185364736673279"><ele>172.0</ele><time>2026-04-11T15:04:03Z</time></trkpt><trkpt lat="44.82815510692447" lon="8.185337918008647"><ele>171.0</ele><time>2026-04-11T15:04:06Z</time></trkpt><trkpt lat="44.8281475655911" lon="8.185244438630074"><ele>170.0</ele><time>2026-04-11T15:04:13Z</time></trkpt><trkpt lat="44.82817277723074" lon="8.185140119124691"><ele>170.0</ele><time>2026-04-11T15:04:16Z</time></trkpt><trkpt lat="44.82820956674271" lon="8.185002190093126"><ele>170.0</ele><time>2026-04-11T15:04:18Z</time></trkpt><trkpt lat="44.82823616663257" lon="8.184855885703513"><ele>170.0</ele><time>2026-04-11T15:04:20Z</time></trkpt><trkpt lat="44.82826429813648" lon="8.184702074611234"><ele>170.0</ele><time>2026-04-11T15:04:22Z</time></trkpt><trkpt lat="44.82828000550576" lon="8.184556948833784"><ele>170.0</ele><time>2026-04-11T15:04:24Z</time></trkpt><trkpt lat="44.82827827553041" lon="8.184422317155125"><ele>170.6</ele><time>2026-04-11T15:04:26Z</time></trkpt><trkpt lat="44.82828353375522" lon="8.184284868516443"><ele>171.2</ele><time>2026-04-11T15:04:28Z</time></trkpt><trkpt lat="44.828293330219104" lon="8.184150288170173"><ele>171.8</ele><time>2026-04-11T15:04:30Z</time></trkpt><trkpt lat="44.82829600182415" lon="8.183996147355733"><ele>172.4</ele><time>2026-04-11T15:04:32Z</time></trkpt><trkpt lat="44.828294695826855" lon="8.18385419961212"><ele>173.0</ele><time>2026-04-11T15:04:34Z</time></trkpt><trkpt lat="44.8283047937453" lon="8.183710804211731"><ele>173.0</ele><time>2026-04-11T15:04:36Z</time></trkpt><trkpt lat="44.828310471600325" lon="8.183536079648068"><ele>173.0</ele><time>2026-04-11T15:04:38Z</time></trkpt><trkpt lat="44.82830863235018" lon="8.183433303555608"><ele>173.0</ele><time>2026-04-11T15:04:39Z</time></trkpt><trkpt lat="44.828314355984745" lon="8.183324473360818"><ele>173.0</ele><time>2026-04-11T15:04:40Z</time></trkpt><trkpt lat="44.82831396235768" lon="8.183229008574846"><ele>173.0</ele><time>2026-04-11T15:04:41Z</time></trkpt><trkpt lat="44.82831210619827" lon="8.183138129749661"><ele>173.0</ele><time>2026-04-11T15:04:42Z</time></trkpt><trkpt lat="44.82831267234619" lon="8.18304851128018"><ele>172.5</ele><time>2026-04-11T15:04:43Z</time></trkpt><trkpt lat="44.82831578670293" lon="8.182864195675036"><ele>172.0</ele><time>2026-04-11T15:04:45Z</time></trkpt><trkpt lat="44.82832174870729" lon="8.182773285603613"><ele>171.5</ele><time>2026-04-11T15:04:46Z</time></trkpt><trkpt lat="44.82832261310528" lon="8.182680005179643"><ele>171.0</ele><time>2026-04-11T15:04:47Z</time></trkpt><trkpt lat="44.82832805325726" lon="8.182590839325844"><ele>170.5</ele><time>2026-04-11T15:04:48Z</time></trkpt><trkpt lat="44.828337107342286" lon="8.182498293430857"><ele>170.0</ele><time>2026-04-11T15:04:49Z</time></trkpt><trkpt lat="44.82834476887593" lon="8.18240639777723"><ele>170.0</ele><time>2026-04-11T15:04:50Z</time></trkpt><trkpt lat="44.828351755386585" lon="8.18231600790666"><ele>170.0</ele><time>2026-04-11T15:04:51Z</time></trkpt><trkpt lat="44.828362657585224" lon="8.182221578820515"><ele>170.0</ele><time>2026-04-11T15:04:52Z</time></trkpt><trkpt lat="44.82837410598719" lon="8.18212358822691"><ele>170.0</ele><time>2026-04-11T15:04:53Z</time></trkpt><trkpt lat="44.82838719751715" lon="8.1820303049822"><ele>170.0</ele><time>2026-04-11T15:04:53.999Z</time></trkpt><trkpt lat="44.828400001409086" lon="8.181936082930207"><ele>170.0</ele><time>2026-04-11T15:04:54.999Z</time></trkpt><trkpt lat="44.828415999382" lon="8.181840717053113"><ele>170.0</ele><time>2026-04-11T15:04:55.999Z</time></trkpt><trkpt lat="44.828430676209024" lon="8.18175125197698"><ele>170.0</ele><time>2026-04-11T15:04:56.999Z</time></trkpt><trkpt lat="44.828445756494844" lon="8.181660992092805"><ele>170.0</ele><time>2026-04-11T15:04:57.999Z</time></trkpt><trkpt lat="44.828462268511366" lon="8.181566699794685"><ele>170.0</ele><time>2026-04-11T15:04:58.999Z</time></trkpt><trkpt lat="44.828478367205655" lon="8.18146774684621"><ele>170.0</ele><time>2026-04-11T15:04:59.999Z</time></trkpt><trkpt lat="44.8284939940622" lon="8.181372131207503"><ele>170.0</ele><time>2026-04-11T15:05:00.999Z</time></trkpt><trkpt lat="44.8285132405439" lon="8.181277128744687"><ele>170.0</ele><time>2026-04-11T15:05:01.999Z</time></trkpt><trkpt lat="44.828528608725534" lon="8.181178104608083"><ele>170.0</ele><time>2026-04-11T15:05:02.999Z</time></trkpt><trkpt lat="44.8285484479527" lon="8.181075204577153"><ele>169.83333333333331</ele><time>2026-04-11T15:05:03.999Z</time></trkpt><trkpt lat="44.82856805985167" lon="8.180971496389743"><ele>169.66666666666666</ele><time>2026-04-11T15:05:04.999Z</time></trkpt><trkpt lat="44.82859001983398" lon="8.180866581897314"><ele>169.5</ele><time>2026-04-11T15:05:05.999Z</time></trkpt><trkpt lat="44.828607267639946" lon="8.180758006272534"><ele>169.33333333333334</ele><time>2026-04-11T15:05:06.999Z</time></trkpt><trkpt lat="44.82862465228713" lon="8.180648550453473"><ele>169.16666666666669</ele><time>2026-04-11T15:05:07.999Z</time></trkpt><trkpt lat="44.82864767569712" lon="8.180541451400194"><ele>169.0</ele><time>2026-04-11T15:05:08.999Z</time></trkpt><trkpt lat="44.82867118997972" lon="8.180432724014143"><ele>169.0</ele><time>2026-04-11T15:05:09.999Z</time></trkpt><trkpt lat="44.828688367304586" lon="8.18032536805515"><ele>169.0</ele><time>2026-04-11T15:05:10.999Z</time></trkpt><trkpt lat="44.828707689303094" lon="8.180216062351713"><ele>169.0</ele><time>2026-04-11T15:05:11.999Z</time></trkpt><trkpt lat="44.82872906078578" lon="8.18010876997533"><ele>169.0</ele><time>2026-04-11T15:05:12.999Z</time></trkpt><trkpt lat="44.828748541735926" lon="8.179994266615237"><ele>169.0</ele><time>2026-04-11T15:05:13.999Z</time></trkpt><trkpt lat="44.8287658082363" lon="8.179877244588331"><ele>169.0</ele><time>2026-04-11T15:05:14.999Z</time></trkpt><trkpt lat="44.82878281158476" lon="8.179760231373436"><ele>166.79999999999998</ele><time>2026-04-11T15:05:15.999Z</time></trkpt><trkpt lat="44.82879297245816" lon="8.179635355050303"><ele>164.6</ele><time>2026-04-11T15:05:16.999Z</time></trkpt><trkpt lat="44.82880647601717" lon="8.179510297151689"><ele>162.4</ele><time>2026-04-11T15:05:17.999Z</time></trkpt><trkpt lat="44.8288142771132" lon="8.179380040941"><ele>160.2</ele><time>2026-04-11T15:05:18.999Z</time></trkpt><trkpt lat="44.82880145774334" lon="8.179252715923196"><ele>158.0</ele><time>2026-04-11T15:05:19.999Z</time></trkpt><trkpt lat="44.828782310589276" lon="8.179119141779479"><ele>156.0</ele><time>2026-04-11T15:05:20.999Z</time></trkpt><trkpt lat="44.828753045060935" lon="8.178993193805251"><ele>154.0</ele><time>2026-04-11T15:05:21.999Z</time></trkpt><trkpt lat="44.82870538328098" lon="8.178886943909792"><ele>152.0</ele><time>2026-04-11T15:05:22.999Z</time></trkpt><trkpt lat="44.8286573934244" lon="8.178768519960542"><ele>150.0</ele><time>2026-04-11T15:05:23.999Z</time></trkpt><trkpt lat="44.82859328654504" lon="8.1786578012757"><ele>148.0</ele><time>2026-04-11T15:05:24.999Z</time></trkpt><trkpt lat="44.82852075674479" lon="8.178561085008408"><ele>149.6</ele><time>2026-04-11T15:05:25.999Z</time></trkpt><trkpt lat="44.82843659679632" lon="8.1784722340417"><ele>151.20000000000002</ele><time>2026-04-11T15:05:26.999Z</time></trkpt><trkpt lat="44.82835147994694" lon="8.178394063846921"><ele>152.8</ele><time>2026-04-11T15:05:27.999Z</time></trkpt><trkpt lat="44.8282662481142" lon="8.17832090154683"><ele>154.4</ele><time>2026-04-11T15:05:28.999Z</time></trkpt><trkpt lat="44.82817878056542" lon="8.178252422816923"><ele>156.0</ele><time>2026-04-11T15:05:29.999Z</time></trkpt><trkpt lat="44.82809385069098" lon="8.178186923128308"><ele>154.5</ele><time>2026-04-11T15:05:30.999Z</time></trkpt><trkpt lat="44.828011976706165" lon="8.17812243420338"><ele>153.0</ele><time>2026-04-11T15:05:31.999Z</time></trkpt><trkpt lat="44.827933920637335" lon="8.17806338110737"><ele>151.5</ele><time>2026-04-11T15:05:32.999Z</time></trkpt><trkpt lat="44.82786007612058" lon="8.178005873193731"><ele>150.0</ele><time>2026-04-11T15:05:33.999Z</time></trkpt><trkpt lat="44.82779307683773" lon="8.177933324895443"><ele>148.5</ele><time>2026-04-11T15:05:34.999Z</time></trkpt><trkpt lat="44.82773147202202" lon="8.177847479938364"><ele>147.0</ele><time>2026-04-11T15:05:35.999Z</time></trkpt><trkpt lat="44.827683461554344" lon="8.177766044468257"><ele>148.2</ele><time>2026-04-11T15:05:36.999Z</time></trkpt><trkpt lat="44.82764196918998" lon="8.177691262661616"><ele>149.39999999999998</ele><time>2026-04-11T15:05:37.999Z</time></trkpt><trkpt lat="44.82758475019887" lon="8.177538455910526"><ele>150.60000000000002</ele><time>2026-04-11T15:05:39.999Z</time></trkpt><trkpt lat="44.8276046588634" lon="8.177387599531466"><ele>151.8</ele><time>2026-04-11T15:05:41.999Z</time></trkpt><trkpt lat="44.82768068132294" lon="8.177335388733713"><ele>153.0</ele><time>2026-04-11T15:05:42.999Z</time></trkpt><trkpt lat="44.82775144731261" lon="8.17733309793673"><ele>150.66666666666666</ele><time>2026-04-11T15:05:43.999Z</time></trkpt><trkpt lat="44.82781593989077" lon="8.17733502137858"><ele>148.33333333333334</ele><time>2026-04-11T15:05:44.999Z</time></trkpt><trkpt lat="44.827880914021904" lon="8.177319814279295"><ele>146.0</ele><time>2026-04-11T15:05:45.999Z</time></trkpt><trkpt lat="44.82800993382595" lon="8.177306970175401"><ele>143.66666666666669</ele><time>2026-04-11T15:05:47.999Z</time></trkpt><trkpt lat="44.82808220174114" lon="8.177308326363582"><ele>141.33333333333334</ele><time>2026-04-11T15:05:49Z</time></trkpt><trkpt lat="44.828157328136214" lon="8.177314086457145"><ele>139.0</ele><time>2026-04-11T15:05:50Z</time></trkpt><trkpt lat="44.82823773641557" lon="8.17732130706447"><ele>139.0</ele><time>2026-04-11T15:05:51Z</time></trkpt><trkpt lat="44.828318595251694" lon="8.177346131353596"><ele>139.0</ele><time>2026-04-11T15:05:52Z</time></trkpt><trkpt lat="44.828395200280816" lon="8.177370552346689"><ele>139.0</ele><time>2026-04-11T15:05:53Z</time></trkpt><trkpt lat="44.82847139120348" lon="8.17740675040583"><ele>139.0</ele><time>2026-04-11T15:05:54Z</time></trkpt><trkpt lat="44.828556079953685" lon="8.177465803167815"><ele>139.0</ele><time>2026-04-11T15:05:56Z</time></trkpt><trkpt lat="44.8285333615929" lon="8.177368180406308"><ele>139.0</ele><time>2026-04-11T15:06:27Z</time></trkpt><trkpt lat="44.8284540960397" lon="8.177377854537484"><ele>139.0</ele><time>2026-04-11T15:06:29Z</time></trkpt><trkpt lat="44.82838438533709" lon="8.177339463361307"><ele>139.0</ele><time>2026-04-11T15:06:31Z</time></trkpt><trkpt lat="44.828360476644455" lon="8.177196104290223"><ele>139.0</ele><time>2026-04-11T15:06:33Z</time></trkpt><trkpt lat="44.828325985236255" lon="8.177069612598455"><ele>139.0</ele><time>2026-04-11T15:06:35Z</time></trkpt><trkpt lat="44.82828591791587" lon="8.176909528001309"><ele>139.0</ele><time>2026-04-11T15:06:37Z</time></trkpt><trkpt lat="44.82825555054758" lon="8.176823111320433"><ele>139.0</ele><time>2026-04-11T15:06:38Z</time></trkpt><trkpt lat="44.82821690623631" lon="8.176731785666249"><ele>139.0</ele><time>2026-04-11T15:06:39Z</time></trkpt><trkpt lat="44.8281868592049" lon="8.176634019418554"><ele>139.0</ele><time>2026-04-11T15:06:40Z</time></trkpt><trkpt lat="44.82816096430658" lon="8.176528175128766"><ele>139.0</ele><time>2026-04-11T15:06:41Z</time></trkpt><trkpt lat="44.82813036386062" lon="8.176420941918764"><ele>139.0</ele><time>2026-04-11T15:06:42Z</time></trkpt><trkpt lat="44.82809999291595" lon="8.176322485411879"><ele>139.0</ele><time>2026-04-11T15:06:43Z</time></trkpt><trkpt lat="44.82807289660093" lon="8.176225342418702"><ele>138.16666666666669</ele><time>2026-04-11T15:06:44Z</time></trkpt><trkpt lat="44.828020872094974" lon="8.17607274342311"><ele>137.33333333333334</ele><time>2026-04-11T15:06:46Z</time></trkpt><trkpt lat="44.82800127079961" lon="8.175940550123327"><ele>136.5</ele><time>2026-04-11T15:06:48Z</time></trkpt><trkpt lat="44.82799144258273" lon="8.17585086273534"><ele>135.66666666666666</ele><time>2026-04-11T15:06:50Z</time></trkpt><trkpt lat="44.82796306979239" lon="8.175769220504021"><ele>134.83333333333331</ele><time>2026-04-11T15:06:52Z</time></trkpt><trkpt lat="44.82788945642923" lon="8.175689788214765"><ele>134.0</ele><time>2026-04-11T15:06:53.999Z</time></trkpt><trkpt lat="44.82780122700498" lon="8.17562414781219"><ele>133.8</ele><time>2026-04-11T15:06:55.999Z</time></trkpt><trkpt lat="44.82771071912373" lon="8.175551927267259"><ele>133.60000000000002</ele><time>2026-04-11T15:06:57.999Z</time></trkpt><trkpt lat="44.82762063998765" lon="8.175493596848844"><ele>133.4</ele><time>2026-04-11T15:06:59.999Z</time></trkpt><trkpt lat="44.82753827500675" lon="8.175402190943409"><ele>133.20000000000002</ele><time>2026-04-11T15:07:01.999Z</time></trkpt><trkpt lat="44.827495552811385" lon="8.17526132694701"><ele>133.0</ele><time>2026-04-11T15:07:03.999Z</time></trkpt><trkpt lat="44.82749044575123" lon="8.175092197969882"><ele>133.0</ele><time>2026-04-11T15:07:05.999Z</time></trkpt><trkpt lat="44.82749814725434" lon="8.175000564860495"><ele>133.0</ele><time>2026-04-11T15:07:06.999Z</time></trkpt><trkpt lat="44.82751204947449" lon="8.17490956009856"><ele>133.0</ele><time>2026-04-11T15:07:07.999Z</time></trkpt><trkpt lat="44.82753846286561" lon="8.174733212177733"><ele>133.0</ele><time>2026-04-11T15:07:09.999Z</time></trkpt><trkpt lat="44.8275424292437" lon="8.174640599058383"><ele>133.0</ele><time>2026-04-11T15:07:10.999Z</time></trkpt><trkpt lat="44.82754717569437" lon="8.174547449130916"><ele>133.0</ele><time>2026-04-11T15:07:11.999Z</time></trkpt><trkpt lat="44.82754833112453" lon="8.174455507035834"><ele>132.0</ele><time>2026-04-11T15:07:12.999Z</time></trkpt><trkpt lat="44.82755449666862" lon="8.17436610920622"><ele>131.0</ele><time>2026-04-11T15:07:13.999Z</time></trkpt><trkpt lat="44.82756722886353" lon="8.174277372382207"><ele>130.0</ele><time>2026-04-11T15:07:14.999Z</time></trkpt><trkpt lat="44.82760564974712" lon="8.17411283616678"><ele>129.0</ele><time>2026-04-11T15:07:16.999Z</time></trkpt><trkpt lat="44.82763766446534" lon="8.17396210877851"><ele>128.0</ele><time>2026-04-11T15:07:18.999Z</time></trkpt><trkpt lat="44.82766876903531" lon="8.173839131032485"><ele>127.80000000000001</ele><time>2026-04-11T15:07:20.999Z</time></trkpt><trkpt lat="44.8276989658248" lon="8.173742479598292"><ele>127.60000000000001</ele><time>2026-04-11T15:07:22.999Z</time></trkpt><trkpt lat="44.82772983290628" lon="8.173619515709404"><ele>127.39999999999999</ele><time>2026-04-11T15:07:24.999Z</time></trkpt><trkpt lat="44.82776265108162" lon="8.17348082839411"><ele>127.19999999999999</ele><time>2026-04-11T15:07:26.999Z</time></trkpt><trkpt lat="44.827799911943515" lon="8.173334785828024"><ele>127.0</ele><time>2026-04-11T15:07:28.999Z</time></trkpt><trkpt lat="44.82784905910745" lon="8.173184704582676"><ele>127.0</ele><time>2026-04-11T15:07:30.999Z</time></trkpt><trkpt lat="44.82790008029465" lon="8.173035975572706"><ele>127.0</ele><time>2026-04-11T15:07:32.999Z</time></trkpt><trkpt lat="44.827959500901386" lon="8.17289239091918"><ele>127.0</ele><time>2026-04-11T15:07:34.999Z</time></trkpt><trkpt lat="44.82800871612683" lon="8.172751232777125"><ele>127.0</ele><time>2026-04-11T15:07:36.999Z</time></trkpt><trkpt lat="44.82805381263004" lon="8.172613378192294"><ele>127.0</ele><time>2026-04-11T15:07:38.999Z</time></trkpt><trkpt lat="44.82809452915192" lon="8.172478079901294"><ele>126.99999999999999</ele><time>2026-04-11T15:07:40.999Z</time></trkpt><trkpt lat="44.828141642807005" lon="8.172348597892631"><ele>126.99999999999999</ele><time>2026-04-11T15:07:42.999Z</time></trkpt><trkpt lat="44.82818231097681" lon="8.172229761976274"><ele>127.0</ele><time>2026-04-11T15:07:44.999Z</time></trkpt><trkpt lat="44.828216564434335" lon="8.172129962104377"><ele>127.0</ele><time>2026-04-11T15:07:46.999Z</time></trkpt><trkpt lat="44.82825387834391" lon="8.172020415061969"><ele>127.00000000000001</ele><time>2026-04-11T15:07:49.999Z</time></trkpt><trkpt lat="44.828301197106015" lon="8.171946517738434"><ele>127.0</ele><time>2026-04-11T15:08:02Z</time></trkpt><trkpt lat="44.82833957185437" lon="8.171861431910905"><ele>127.0</ele><time>2026-04-11T15:08:05Z</time></trkpt><trkpt lat="44.82836701656568" lon="8.171757477488466"><ele>127.0</ele><time>2026-04-11T15:08:07Z</time></trkpt><trkpt lat="44.82840729246751" lon="8.171658014587704"><ele>127.00000000000001</ele><time>2026-04-11T15:08:09Z</time></trkpt><trkpt lat="44.8284451157888" lon="8.171549189947651"><ele>127.0</ele><time>2026-04-11T15:08:11Z</time></trkpt><trkpt lat="44.82849222139987" lon="8.171421616426013"><ele>127.39999999999999</ele><time>2026-04-11T15:08:13Z</time></trkpt><trkpt lat="44.828528035166954" lon="8.171275827414261"><ele>127.79999999999998</ele><time>2026-04-11T15:08:15Z</time></trkpt><trkpt lat="44.82856547751003" lon="8.171137610141749"><ele>128.2</ele><time>2026-04-11T15:08:17Z</time></trkpt><trkpt lat="44.82859249678028" lon="8.1710002202595"><ele>128.6</ele><time>2026-04-11T15:08:19Z</time></trkpt><trkpt lat="44.82862072423279" lon="8.170855441048069"><ele>129.0</ele><time>2026-04-11T15:08:21Z</time></trkpt><trkpt lat="44.82862874797781" lon="8.170701553168442"><ele>128.5</ele><time>2026-04-11T15:08:23Z</time></trkpt><trkpt lat="44.828643297251965" lon="8.17054498765373"><ele>128.0</ele><time>2026-04-11T15:08:25Z</time></trkpt><trkpt lat="44.82865013159706" lon="8.170382886142344"><ele>127.5</ele><time>2026-04-11T15:08:27Z</time></trkpt><trkpt lat="44.828662735151966" lon="8.170219326110132"><ele>127.0</ele><time>2026-04-11T15:08:29Z</time></trkpt><trkpt lat="44.82868033647662" lon="8.170066808462018"><ele>127.0</ele><time>2026-04-11T15:08:31Z</time></trkpt><trkpt lat="44.82868870140607" lon="8.169909558605166"><ele>126.99999999999999</ele><time>2026-04-11T15:08:33Z</time></trkpt><trkpt lat="44.82870091291329" lon="8.169755362445851"><ele>126.99999999999999</ele><time>2026-04-11T15:08:35Z</time></trkpt><trkpt lat="44.828713541997764" lon="8.169611722822449"><ele>127.0</ele><time>2026-04-11T15:08:37Z</time></trkpt><trkpt lat="44.828703701004066" lon="8.169442483580058"><ele>127.0</ele><time>2026-04-11T15:08:39Z</time></trkpt><trkpt lat="44.828651411189426" lon="8.169293041155864"><ele>127.0</ele><time>2026-04-11T15:08:41Z</time></trkpt><trkpt lat="44.828621415853576" lon="8.169212466439385"><ele>127.0</ele><time>2026-04-11T15:08:42Z</time></trkpt><trkpt lat="44.82859046192225" lon="8.16913410328972"><ele>127.0</ele><time>2026-04-11T15:08:43Z</time></trkpt><trkpt lat="44.82856004760611" lon="8.169050652890283"><ele>127.0</ele><time>2026-04-11T15:08:44Z</time></trkpt><trkpt lat="44.82852921092019" lon="8.168965034708933"><ele>127.0</ele><time>2026-04-11T15:08:45Z</time></trkpt><trkpt lat="44.82849232772213" lon="8.168876812173114"><ele>127.0</ele><time>2026-04-11T15:08:46Z</time></trkpt><trkpt lat="44.828458761401144" lon="8.168786587281714"><ele>127.0</ele><time>2026-04-11T15:08:47Z</time></trkpt><trkpt lat="44.828423026070766" lon="8.1686914904581"><ele>126.85714285714286</ele><time>2026-04-11T15:08:48Z</time></trkpt><trkpt lat="44.82838289577588" lon="8.168594990161084"><ele>126.71428571428571</ele><time>2026-04-11T15:08:49Z</time></trkpt><trkpt lat="44.828341701659475" lon="8.168503452219648"><ele>126.57142857142857</ele><time>2026-04-11T15:08:50Z</time></trkpt><trkpt lat="44.82831215964295" lon="8.168415252714015"><ele>126.42857142857143</ele><time>2026-04-11T15:08:51Z</time></trkpt><trkpt lat="44.828283868076745" lon="8.16832795649737"><ele>126.28571428571428</ele><time>2026-04-11T15:08:52Z</time></trkpt><trkpt lat="44.82825387325953" lon="8.168245379169344"><ele>126.14285714285714</ele><time>2026-04-11T15:08:53Z</time></trkpt><trkpt lat="44.82822539561092" lon="8.168162648698386"><ele>126.0</ele><time>2026-04-11T15:08:54Z</time></trkpt><trkpt lat="44.82819926847608" lon="8.168081467142642"><ele>126.0</ele><time>2026-04-11T15:08:55Z</time></trkpt><trkpt lat="44.82815284497888" lon="8.167920088508405"><ele>126.0</ele><time>2026-04-11T15:08:57Z</time></trkpt><trkpt lat="44.82813393370606" lon="8.167758267146162"><ele>126.0</ele><time>2026-04-11T15:08:59Z</time></trkpt><trkpt lat="44.82814558243026" lon="8.167637309105727"><ele>126.0</ele><time>2026-04-11T15:09:01Z</time></trkpt><trkpt lat="44.828089813376224" lon="8.16753415994564"><ele>126.0</ele><time>2026-04-11T15:09:05Z</time></trkpt><trkpt lat="44.82804491623554" lon="8.167456063213745"><ele>126.0</ele><time>2026-04-11T15:09:06.999Z</time></trkpt><trkpt lat="44.82800441488862" lon="8.167342063535521"><ele>126.0</ele><time>2026-04-11T15:09:08.999Z</time></trkpt><trkpt lat="44.82796571302484" lon="8.167237566100521"><ele>126.0</ele><time>2026-04-11T15:09:10.999Z</time></trkpt><trkpt lat="44.827924749205536" lon="8.167132441268206"><ele>126.0</ele><time>2026-04-11T15:09:12.999Z</time></trkpt><trkpt lat="44.82787711921278" lon="8.16702760516487"><ele>126.0</ele><time>2026-04-11T15:09:14.999Z</time></trkpt><trkpt lat="44.827820802465844" lon="8.166926318191853"><ele>126.0</ele><time>2026-04-11T15:09:16.999Z</time></trkpt><trkpt lat="44.82775559408416" lon="8.166842414375548"><ele>126.0</ele><time>2026-04-11T15:09:18.999Z</time></trkpt><trkpt lat="44.8276817943086" lon="8.166778129123012"><ele>126.0</ele><time>2026-04-11T15:09:20.999Z</time></trkpt><trkpt lat="44.82759971037026" lon="8.16670467238945"><ele>126.0</ele><time>2026-04-11T15:09:22.999Z</time></trkpt><trkpt lat="44.82751064258385" lon="8.166632099510096"><ele>126.0</ele><time>2026-04-11T15:09:24.999Z</time></trkpt><trkpt lat="44.82742464169997" lon="8.166557451300346"><ele>126.0</ele><time>2026-04-11T15:09:26.999Z</time></trkpt><trkpt lat="44.82734493358322" lon="8.166480755852513"><ele>126.16666666666667</ele><time>2026-04-11T15:09:28.999Z</time></trkpt><trkpt lat="44.82726231135411" lon="8.166399516852078"><ele>126.33333333333334</ele><time>2026-04-11T15:09:30.999Z</time></trkpt><trkpt lat="44.827190602811534" lon="8.166324494269011"><ele>126.5</ele><time>2026-04-11T15:09:32.999Z</time></trkpt><trkpt lat="44.82712224354887" lon="8.166246453293304"><ele>126.66666666666667</ele><time>2026-04-11T15:09:34.999Z</time></trkpt><trkpt lat="44.82705895470682" lon="8.166169341207725"><ele>126.83333333333334</ele><time>2026-04-11T15:09:36.999Z</time></trkpt><trkpt lat="44.82699750726534" lon="8.166088226022493"><ele>127.0</ele><time>2026-04-11T15:09:38.999Z</time></trkpt><trkpt lat="44.82694517975047" lon="8.166000847319259"><ele>127.0</ele><time>2026-04-11T15:09:40.999Z</time></trkpt><trkpt lat="44.82688461981097" lon="8.165894678427714"><ele>126.99999999999999</ele><time>2026-04-11T15:09:42.999Z</time></trkpt><trkpt lat="44.82682335006409" lon="8.16579657994144"><ele>126.99999999999999</ele><time>2026-04-11T15:09:44.999Z</time></trkpt><trkpt lat="44.82676821839443" lon="8.165698763371287"><ele>127.0</ele><time>2026-04-11T15:09:46.999Z</time></trkpt><trkpt lat="44.82671993177484" lon="8.165594236027982"><ele>127.0</ele><time>2026-04-11T15:09:48.999Z</time></trkpt><trkpt lat="44.82667926915224" lon="8.165491264548553"><ele>127.00000000000001</ele><time>2026-04-11T15:09:50.999Z</time></trkpt><trkpt lat="44.826648293490216" lon="8.165397539663099"><ele>127.0</ele><time>2026-04-11T15:09:52.999Z</time></trkpt><trkpt lat="44.82662192242001" lon="8.165313070928331"><ele>127.0</ele><time>2026-04-11T15:09:54.999Z</time></trkpt><trkpt lat="44.82658192091127" lon="8.165230431986949"><ele>127.0</ele><time>2026-04-11T15:09:56.999Z</time></trkpt><trkpt lat="44.826543028949914" lon="8.16512200755755"><ele>127.00000000000001</ele><time>2026-04-11T15:09:58.999Z</time></trkpt><trkpt lat="44.826509295337665" lon="8.165019474330196"><ele>127.0</ele><time>2026-04-11T15:10:01Z</time></trkpt><trkpt lat="44.82647981263299" lon="8.164922558941418"><ele>127.00000000000001</ele><time>2026-04-11T15:10:03Z</time></trkpt><trkpt lat="44.82645022564754" lon="8.164815888651214"><ele>127.0</ele><time>2026-04-11T15:10:05Z</time></trkpt><trkpt lat="44.826430586507975" lon="8.164703051465924"><ele>127.0</ele><time>2026-04-11T15:10:07Z</time></trkpt><trkpt lat="44.82641981634516" lon="8.16459220740495"><ele>127.0</ele><time>2026-04-11T15:10:09Z</time></trkpt><trkpt lat="44.82640789719775" lon="8.164475232742701"><ele>127.00000000000001</ele><time>2026-04-11T15:10:11Z</time></trkpt><trkpt lat="44.826392446221284" lon="8.164359620238333"><ele>127.0</ele><time>2026-04-11T15:10:14Z</time></trkpt><trkpt lat="44.82637438877398" lon="8.164249176454492"><ele>127.00000000000001</ele><time>2026-04-11T15:10:18Z</time></trkpt><trkpt lat="44.82636405530513" lon="8.164148112889084"><ele>127.0</ele><time>2026-04-11T15:10:22Z</time></trkpt><trkpt lat="44.82635710591534" lon="8.164058224183119"><ele>127.0</ele><time>2026-04-11T15:10:25Z</time></trkpt><trkpt lat="44.82634270477584" lon="8.16394173256352"><ele>127.0</ele><time>2026-04-11T15:10:28Z</time></trkpt><trkpt lat="44.826330959704386" lon="8.163823613960574"><ele>127.00000000000001</ele><time>2026-04-11T15:10:31Z</time></trkpt><trkpt lat="44.82632370788818" lon="8.163709963707996"><ele>127.0</ele><time>2026-04-11T15:10:34Z</time></trkpt><trkpt lat="44.8263093355075" lon="8.163597726489764"><ele>126.66666666666667</ele><time>2026-04-11T15:10:37Z</time></trkpt><trkpt lat="44.82629961467681" lon="8.16348814487118"><ele>126.33333333333334</ele><time>2026-04-11T15:10:40Z</time></trkpt><trkpt lat="44.82629340914863" lon="8.163392760015565"><ele>126.0</ele><time>2026-04-11T15:10:43Z</time></trkpt><trkpt lat="44.82627404506404" lon="8.163285726138309"><ele>125.66666666666666</ele><time>2026-04-11T15:10:46Z</time></trkpt><trkpt lat="44.82626317894656" lon="8.163169524708577"><ele>125.33333333333333</ele><time>2026-04-11T15:10:49Z</time></trkpt><trkpt lat="44.82624878621998" lon="8.163051287763523"><ele>125.0</ele><time>2026-04-11T15:10:52Z</time></trkpt><trkpt lat="44.826230995208306" lon="8.162934479215101"><ele>125.0</ele><time>2026-04-11T15:10:55Z</time></trkpt><trkpt lat="44.82622318046081" lon="8.162811527541985"><ele>125.0</ele><time>2026-04-11T15:10:58Z</time></trkpt><trkpt lat="44.82626737120931" lon="8.16274484337868"><ele>125.0</ele><time>2026-04-11T15:11:00Z</time></trkpt><trkpt lat="44.82633878213342" lon="8.162659323809915"><ele>125.0</ele><time>2026-04-11T15:11:03Z</time></trkpt><trkpt lat="44.82638849342439" lon="8.162604170513527"><ele>125.0</ele><time>2026-04-11T15:11:05Z</time></trkpt><trkpt lat="44.82643838459814" lon="8.162543190340477"><ele>125.0</ele><time>2026-04-11T15:11:07Z</time></trkpt><trkpt lat="44.82649191753601" lon="8.162481849219493"><ele>125.0</ele><time>2026-04-11T15:11:08.999Z</time></trkpt><trkpt lat="44.82654315265137" lon="8.162414007282573"><ele>124.99999999999999</ele><time>2026-04-11T15:11:10.999Z</time></trkpt><trkpt lat="44.82659931681454" lon="8.162342494402965"><ele>125.0</ele><time>2026-04-11T15:11:12.999Z</time></trkpt><trkpt lat="44.82665800881047" lon="8.162276115357981"><ele>125.0</ele><time>2026-04-11T15:11:14.999Z</time></trkpt><trkpt lat="44.82671631508593" lon="8.16220494727188"><ele>125.0</ele><time>2026-04-11T15:11:16.999Z</time></trkpt><trkpt lat="44.82677538941982" lon="8.162134606665548"><ele>124.99999999999999</ele><time>2026-04-11T15:11:18.999Z</time></trkpt><trkpt lat="44.826833735125845" lon="8.162063778023368"><ele>125.0</ele><time>2026-04-11T15:11:20.999Z</time></trkpt><trkpt lat="44.82688914153484" lon="8.161998210044286"><ele>124.83333333333333</ele><time>2026-04-11T15:11:22.999Z</time></trkpt><trkpt lat="44.826946749060866" lon="8.161929979616428"><ele>124.66666666666666</ele><time>2026-04-11T15:11:24.999Z</time></trkpt><trkpt lat="44.827003066849166" lon="8.161862473795427"><ele>124.5</ele><time>2026-04-11T15:11:26.999Z</time></trkpt><trkpt lat="44.827062088596264" lon="8.161795822858956"><ele>124.33333333333334</ele><time>2026-04-11T15:11:28.999Z</time></trkpt><trkpt lat="44.82712537541916" lon="8.161722474991642"><ele>124.16666666666667</ele><time>2026-04-11T15:11:30.999Z</time></trkpt><trkpt lat="44.82718289683238" lon="8.161648589464892"><ele>124.0</ele><time>2026-04-11T15:11:32.999Z</time></trkpt><trkpt lat="44.82723301241637" lon="8.16156988739219"><ele>124.16666666666667</ele><time>2026-04-11T15:11:34.999Z</time></trkpt><trkpt lat="44.82726273555215" lon="8.161461589799174"><ele>124.33333333333334</ele><time>2026-04-11T15:11:36.999Z</time></trkpt><trkpt lat="44.82726426837414" lon="8.16133994776814"><ele>124.5</ele><time>2026-04-11T15:11:38.999Z</time></trkpt><trkpt lat="44.82728767565343" lon="8.161231575908316"><ele>124.66666666666666</ele><time>2026-04-11T15:11:40.999Z</time></trkpt><trkpt lat="44.827341161606604" lon="8.161152280728068"><ele>124.83333333333333</ele><time>2026-04-11T15:11:42.999Z</time></trkpt><trkpt lat="44.82740637185799" lon="8.161072818331153"><ele>125.0</ele><time>2026-04-11T15:11:44.999Z</time></trkpt><trkpt lat="44.827473851310266" lon="8.160992089254005"><ele>124.99999999999999</ele><time>2026-04-11T15:11:46.999Z</time></trkpt><trkpt lat="44.827534833592665" lon="8.16091112982026"><ele>125.0</ele><time>2026-04-11T15:11:48.999Z</time></trkpt><trkpt lat="44.827586698970784" lon="8.160829693925386"><ele>125.0</ele><time>2026-04-11T15:11:50.999Z</time></trkpt><trkpt lat="44.82764005955381" lon="8.160708798212015"><ele>125.0</ele><time>2026-04-11T15:11:53.999Z</time></trkpt><trkpt lat="44.82768435025455" lon="8.160607802941547"><ele>124.99999999999999</ele><time>2026-04-11T15:11:55.999Z</time></trkpt><trkpt lat="44.82777281108556" lon="8.160567152918123"><ele>125.0</ele><time>2026-04-11T15:11:57.999Z</time></trkpt><trkpt lat="44.82783606565101" lon="8.160499035413638"><ele>124.85714285714286</ele><time>2026-04-11T15:11:59.999Z</time></trkpt><trkpt lat="44.827899497086804" lon="8.16042601855148"><ele>124.71428571428572</ele><time>2026-04-11T15:12:01.999Z</time></trkpt><trkpt lat="44.8279581153076" lon="8.160358807670086"><ele>124.57142857142858</ele><time>2026-04-11T15:12:03.999Z</time></trkpt><trkpt lat="44.82801212348079" lon="8.160291284674118"><ele>124.42857142857143</ele><time>2026-04-11T15:12:05.999Z</time></trkpt><trkpt lat="44.82806037319244" lon="8.160229960812227"><ele>124.2857142857143</ele><time>2026-04-11T15:12:08Z</time></trkpt><trkpt lat="44.82811939079849" lon="8.16016150660643"><ele>124.14285714285715</ele><time>2026-04-11T15:12:10Z</time></trkpt><trkpt lat="44.82817494317078" lon="8.160093843178483"><ele>124.0</ele><time>2026-04-11T15:12:12Z</time></trkpt><trkpt lat="44.82823436687564" lon="8.16000730079774"><ele>124.00000000000001</ele><time>2026-04-11T15:12:14Z</time></trkpt><trkpt lat="44.8282945495528" lon="8.15991755766349"><ele>124.0</ele><time>2026-04-11T15:12:16Z</time></trkpt><trkpt lat="44.828344937507985" lon="8.159833336432602"><ele>124.0</ele><time>2026-04-11T15:12:18Z</time></trkpt><trkpt lat="44.828403543462365" lon="8.159785165474666"><ele>124.0</ele><time>2026-04-11T15:12:20Z</time></trkpt><trkpt lat="44.82846921409835" lon="8.15981658374482"><ele>124.00000000000001</ele><time>2026-04-11T15:12:22Z</time></trkpt><trkpt lat="44.828516453045616" lon="8.159891132156496"><ele>124.0</ele><time>2026-04-11T15:12:24Z</time></trkpt><trkpt lat="44.828565484247974" lon="8.15998338224489"><ele>124.00000000000001</ele><time>2026-04-11T15:12:26Z</time></trkpt><trkpt lat="44.82862882747512" lon="8.160086929865997"><ele>124.0</ele><time>2026-04-11T15:12:28Z</time></trkpt><trkpt lat="44.82869175617486" lon="8.160174077185298"><ele>124.0</ele><time>2026-04-11T15:12:30Z</time></trkpt><trkpt lat="44.82874802622642" lon="8.160265728174723"><ele>124.0</ele><time>2026-04-11T15:12:32Z</time></trkpt><trkpt lat="44.82880745159887" lon="8.160359166345161"><ele>124.00000000000001</ele><time>2026-04-11T15:12:34Z</time></trkpt><trkpt lat="44.82886806381194" lon="8.160446643792096"><ele>124.0</ele><time>2026-04-11T15:12:36Z</time></trkpt><trkpt lat="44.82893496140427" lon="8.160519505239424"><ele>124.0</ele><time>2026-04-11T15:12:38Z</time></trkpt><trkpt lat="44.829007441585915" lon="8.160515717020319"><ele>124.00000000000001</ele><time>2026-04-11T15:12:40Z</time></trkpt><trkpt lat="44.82906024824145" lon="8.160463683951146"><ele>124.0</ele><time>2026-04-11T15:12:44Z</time></trkpt><trkpt lat="44.82912829472389" lon="8.16041595678948"><ele>124.0</ele><time>2026-04-11T15:13:23.999Z</time></trkpt><trkpt lat="44.829199828908074" lon="8.160363654908831"><ele>124.00000000000001</ele><time>2026-04-11T15:13:27.999Z</time></trkpt><trkpt lat="44.829262398974116" lon="8.160328887545585"><ele>124.0</ele><time>2026-04-11T15:13:30.999Z</time></trkpt><trkpt lat="44.829324032677384" lon="8.160296868329919"><ele>124.0</ele><time>2026-04-11T15:13:33.999Z</time></trkpt><trkpt lat="44.82924741988186" lon="8.16021432229891"><ele>124.00000000000001</ele><time>2026-04-11T15:13:35.999Z</time></trkpt><trkpt lat="44.829281842666745" lon="8.160106584744067"><ele>124.0</ele><time>2026-04-11T15:13:37.999Z</time></trkpt><trkpt lat="44.829249229129125" lon="8.160005895352413"><ele>124.0</ele><time>2026-04-11T15:13:40.999Z</time></trkpt><trkpt lat="44.82921861847405" lon="8.159902968936935"><ele>124.0</ele><time>2026-04-11T15:13:43.999Z</time></trkpt><trkpt lat="44.8291997034892" lon="8.15980918787664"><ele>124.00000000000001</ele><time>2026-04-11T15:13:46.999Z</time></trkpt><trkpt lat="44.82916486936966" lon="8.159716010888005"><ele>124.0</ele><time>2026-04-11T15:13:49.999Z</time></trkpt><trkpt lat="44.829118827672296" lon="8.15962798637173"><ele>124.16666666666667</ele><time>2026-04-11T15:13:51.999Z</time></trkpt><trkpt lat="44.8290581591048" lon="8.159541247271378"><ele>124.33333333333334</ele><time>2026-04-11T15:13:54.999Z</time></trkpt><trkpt lat="44.8290037886406" lon="8.15945100376431"><ele>124.5</ele><time>2026-04-11T15:13:57.999Z</time></trkpt><trkpt lat="44.82894189471942" lon="8.159347135800102"><ele>124.66666666666666</ele><time>2026-04-11T15:14:00.999Z</time></trkpt><trkpt lat="44.82890003840249" lon="8.15927535086625"><ele>124.83333333333333</ele><time>2026-04-11T15:14:02.999Z</time></trkpt><trkpt lat="44.82885871948517" lon="8.1592018457043"><ele>125.0</ele><time>2026-04-11T15:14:04.999Z</time></trkpt><trkpt lat="44.828814819258" lon="8.159127740410568"><ele>124.99999999999999</ele><time>2026-04-11T15:14:06.999Z</time></trkpt><trkpt lat="44.82876967455376" lon="8.159052012939245"><ele>125.0</ele><time>2026-04-11T15:14:08.999Z</time></trkpt><trkpt lat="44.82872155919356" lon="8.158972858429655"><ele>125.0</ele><time>2026-04-11T15:14:10.999Z</time></trkpt><trkpt lat="44.828671172017536" lon="8.158891185063037"><ele>125.0</ele><time>2026-04-11T15:14:13Z</time></trkpt><trkpt lat="44.82861919177941" lon="8.158814660519427"><ele>124.99999999999999</ele><time>2026-04-11T15:14:15Z</time></trkpt><trkpt lat="44.828563169645854" lon="8.158728619517007"><ele>125.0</ele><time>2026-04-11T15:14:17Z</time></trkpt><trkpt lat="44.828510802866575" lon="8.158641980416967"><ele>125.16666666666666</ele><time>2026-04-11T15:14:19Z</time></trkpt><trkpt lat="44.82845478798663" lon="8.158561371027783"><ele>125.33333333333333</ele><time>2026-04-11T15:14:21Z</time></trkpt><trkpt lat="44.82840372272828" lon="8.158474624885582"><ele>125.5</ele><time>2026-04-11T15:14:23Z</time></trkpt><trkpt lat="44.82834418188988" lon="8.158381774531234"><ele>125.66666666666666</ele><time>2026-04-11T15:14:25Z</time></trkpt><trkpt lat="44.828286097185305" lon="8.15827631859535"><ele>125.83333333333333</ele><time>2026-04-11T15:14:27Z</time></trkpt><trkpt lat="44.828217005363165" lon="8.15816912987454"><ele>126.0</ele><time>2026-04-11T15:14:29Z</time></trkpt><trkpt lat="44.828151880529425" lon="8.158061244628149"><ele>125.6</ele><time>2026-04-11T15:14:31Z</time></trkpt><trkpt lat="44.82808536847012" lon="8.157957229164598"><ele>125.19999999999999</ele><time>2026-04-11T15:14:33Z</time></trkpt><trkpt lat="44.828020592330866" lon="8.15785046457678"><ele>124.80000000000001</ele><time>2026-04-11T15:14:35Z</time></trkpt><trkpt lat="44.827957795283915" lon="8.1577445743398"><ele>124.4</ele><time>2026-04-11T15:14:37Z</time></trkpt><trkpt lat="44.827892088578565" lon="8.157640482809697"><ele>124.0</ele><time>2026-04-11T15:14:39Z</time></trkpt><trkpt lat="44.82782275878408" lon="8.157524310088547"><ele>124.0</ele><time>2026-04-11T15:14:41Z</time></trkpt><trkpt lat="44.827753689918296" lon="8.157413293567728"><ele>124.0</ele><time>2026-04-11T15:14:43Z</time></trkpt><trkpt lat="44.82768326762757" lon="8.157299672799892"><ele>124.0</ele><time>2026-04-11T15:14:45Z</time></trkpt><trkpt lat="44.82761655138805" lon="8.157191666131059"><ele>124.0</ele><time>2026-04-11T15:14:47Z</time></trkpt><trkpt lat="44.82754845106628" lon="8.157079837560754"><ele>124.0</ele><time>2026-04-11T15:14:49Z</time></trkpt><trkpt lat="44.82748469663223" lon="8.15696582941762"><ele>124.2</ele><time>2026-04-11T15:14:51Z</time></trkpt><trkpt lat="44.82741890979997" lon="8.156857190921421"><ele>124.4</ele><time>2026-04-11T15:14:53Z</time></trkpt><trkpt lat="44.827353899122315" lon="8.156747782264679"><ele>124.6</ele><time>2026-04-11T15:14:55Z</time></trkpt><trkpt lat="44.827287121013754" lon="8.156637218046942"><ele>124.8</ele><time>2026-04-11T15:14:57Z</time></trkpt><trkpt lat="44.82722062780286" lon="8.156523098524168"><ele>125.0</ele><time>2026-04-11T15:14:59Z</time></trkpt><trkpt lat="44.82714894506578" lon="8.15640254061771"><ele>125.2</ele><time>2026-04-11T15:15:01Z</time></trkpt><trkpt lat="44.82707470849606" lon="8.156291783470559"><ele>125.4</ele><time>2026-04-11T15:15:03Z</time></trkpt><trkpt lat="44.82700310088041" lon="8.156174956643408"><ele>125.6</ele><time>2026-04-11T15:15:05Z</time></trkpt><trkpt lat="44.826934380296834" lon="8.156052880277846"><ele>125.8</ele><time>2026-04-11T15:15:07Z</time></trkpt><trkpt lat="44.82686138689153" lon="8.15593338529446"><ele>126.0</ele><time>2026-04-11T15:15:09Z</time></trkpt><trkpt lat="44.82678921123434" lon="8.155817380632044"><ele>126.19999999999999</ele><time>2026-04-11T15:15:11Z</time></trkpt><trkpt lat="44.82672251161569" lon="8.155704016367206"><ele>126.39999999999999</ele><time>2026-04-11T15:15:13Z</time></trkpt><trkpt lat="44.826653685288996" lon="8.155586779475755"><ele>126.6</ele><time>2026-04-11T15:15:15Z</time></trkpt><trkpt lat="44.82658133297057" lon="8.155473816214585"><ele>126.8</ele><time>2026-04-11T15:15:17Z</time></trkpt><trkpt lat="44.8265114446512" lon="8.15536068794614"><ele>127.0</ele><time>2026-04-11T15:15:19Z</time></trkpt><trkpt lat="44.82644046380841" lon="8.155244684391914"><ele>127.0</ele><time>2026-04-11T15:15:21Z</time></trkpt><trkpt lat="44.82637173749919" lon="8.155134325491032"><ele>126.99999999999999</ele><time>2026-04-11T15:15:23Z</time></trkpt><trkpt lat="44.82629714388891" lon="8.155015584673516"><ele>126.99999999999999</ele><time>2026-04-11T15:15:24.999Z</time></trkpt><trkpt lat="44.826224309212364" lon="8.154896592167738"><ele>127.0</ele><time>2026-04-11T15:15:26.999Z</time></trkpt><trkpt lat="44.826152176498915" lon="8.154774210275066"><ele>127.0</ele><time>2026-04-11T15:15:28.999Z</time></trkpt><trkpt lat="44.826076421276795" lon="8.154653614667103"><ele>126.75</ele><time>2026-04-11T15:15:30.999Z</time></trkpt><trkpt lat="44.825998206696966" lon="8.154537541063506"><ele>126.5</ele><time>2026-04-11T15:15:32.999Z</time></trkpt><trkpt lat="44.825921658699414" lon="8.154413508114324"><ele>126.25</ele><time>2026-04-11T15:15:34.999Z</time></trkpt><trkpt lat="44.82583841314691" lon="8.154289961736753"><ele>126.0</ele><time>2026-04-11T15:15:36.999Z</time></trkpt><trkpt lat="44.82575788009003" lon="8.154152909242073"><ele>126.0</ele><time>2026-04-11T15:15:38.999Z</time></trkpt><trkpt lat="44.825715833561404" lon="8.154083805791666"><ele>126.0</ele><time>2026-04-11T15:15:39.999Z</time></trkpt><trkpt lat="44.82567640790004" lon="8.154012688492237"><ele>126.0</ele><time>2026-04-11T15:15:40.999Z</time></trkpt><trkpt lat="44.82563615454924" lon="8.153940434773341"><ele>126.0</ele><time>2026-04-11T15:15:41.999Z</time></trkpt><trkpt lat="44.82555537166202" lon="8.153809105599223"><ele>126.0</ele><time>2026-04-11T15:15:43.999Z</time></trkpt><trkpt lat="44.825475732922094" lon="8.153679143235161"><ele>126.0</ele><time>2026-04-11T15:15:45.999Z</time></trkpt><trkpt lat="44.825401911039314" lon="8.153553211067226"><ele>126.0</ele><time>2026-04-11T15:15:47.999Z</time></trkpt><trkpt lat="44.825330745922145" lon="8.153429402309897"><ele>126.0</ele><time>2026-04-11T15:15:49.999Z</time></trkpt><trkpt lat="44.82525719818144" lon="8.153312184604056"><ele>126.0</ele><time>2026-04-11T15:15:51.999Z</time></trkpt><trkpt lat="44.82518163419355" lon="8.153197243230084"><ele>126.0</ele><time>2026-04-11T15:15:53.999Z</time></trkpt><trkpt lat="44.8251140765662" lon="8.153082152046998"><ele>126.0</ele><time>2026-04-11T15:15:55.999Z</time></trkpt><trkpt lat="44.82504266907256" lon="8.152974391759319"><ele>126.19999999999999</ele><time>2026-04-11T15:15:57.999Z</time></trkpt><trkpt lat="44.824974658721175" lon="8.15285692439428"><ele>126.39999999999999</ele><time>2026-04-11T15:15:59.999Z</time></trkpt><trkpt lat="44.824902511946334" lon="8.152740736193948"><ele>126.6</ele><time>2026-04-11T15:16:01.999Z</time></trkpt><trkpt lat="44.82482941636811" lon="8.152617641820616"><ele>126.8</ele><time>2026-04-11T15:16:03.999Z</time></trkpt><trkpt lat="44.82475260302638" lon="8.15249749721605"><ele>127.0</ele><time>2026-04-11T15:16:05.999Z</time></trkpt><trkpt lat="44.8246750528994" lon="8.152377089670884"><ele>127.0</ele><time>2026-04-11T15:16:07.999Z</time></trkpt><trkpt lat="44.8246034946729" lon="8.152262065123741"><ele>126.99999999999999</ele><time>2026-04-11T15:16:09.999Z</time></trkpt><trkpt lat="44.82453118493249" lon="8.15214675995503"><ele>126.99999999999999</ele><time>2026-04-11T15:16:11.999Z</time></trkpt><trkpt lat="44.82446070931471" lon="8.15202479497143"><ele>127.0</ele><time>2026-04-11T15:16:13.999Z</time></trkpt><trkpt lat="44.82438684202761" lon="8.151901482297369"><ele>127.0</ele><time>2026-04-11T15:16:15.999Z</time></trkpt><trkpt lat="44.8243104849633" lon="8.151777639951648"><ele>127.0</ele><time>2026-04-11T15:16:17.999Z</time></trkpt><trkpt lat="44.824233224576304" lon="8.151663829692387"><ele>126.99999999999999</ele><time>2026-04-11T15:16:20Z</time></trkpt><trkpt lat="44.82415852498879" lon="8.151543305172137"><ele>126.99999999999999</ele><time>2026-04-11T15:16:22Z</time></trkpt><trkpt lat="44.82409076074576" lon="8.151431241712569"><ele>127.0</ele><time>2026-04-11T15:16:24Z</time></trkpt><trkpt lat="44.82402108333868" lon="8.151317525150043"><ele>127.0</ele><time>2026-04-11T15:16:26Z</time></trkpt><trkpt lat="44.82395719547914" lon="8.151201918077218"><ele>127.0</ele><time>2026-04-11T15:16:28Z</time></trkpt><trkpt lat="44.8238902034054" lon="8.151088848892952"><ele>126.99999999999999</ele><time>2026-04-11T15:16:30Z</time></trkpt><trkpt lat="44.82382028543293" lon="8.15098094857233"><ele>126.99999999999999</ele><time>2026-04-11T15:16:32Z</time></trkpt><trkpt lat="44.823754797120564" lon="8.150873671243712"><ele>127.0</ele><time>2026-04-11T15:16:34Z</time></trkpt><trkpt lat="44.82368406547045" lon="8.150762097031725"><ele>127.0</ele><time>2026-04-11T15:16:36Z</time></trkpt><trkpt lat="44.82361965608545" lon="8.15065273085323"><ele>127.0</ele><time>2026-04-11T15:16:38Z</time></trkpt><trkpt lat="44.82355075803337" lon="8.150542061701836"><ele>126.99999999999999</ele><time>2026-04-11T15:16:40Z</time></trkpt><trkpt lat="44.82348806649649" lon="8.150434872274575"><ele>126.99999999999999</ele><time>2026-04-11T15:16:42Z</time></trkpt><trkpt lat="44.823425863681955" lon="8.15032352411541"><ele>127.0</ele><time>2026-04-11T15:16:44Z</time></trkpt><trkpt lat="44.8233609588573" lon="8.150210683524891"><ele>127.0</ele><time>2026-04-11T15:16:46Z</time></trkpt><trkpt lat="44.823300690734165" lon="8.15010914105275"><ele>127.00000000000001</ele><time>2026-04-11T15:16:48Z</time></trkpt><trkpt lat="44.8232434104404" lon="8.150021821661339"><ele>127.0</ele><time>2026-04-11T15:16:50Z</time></trkpt><trkpt lat="44.823191908774575" lon="8.149933720563963"><ele>127.0</ele><time>2026-04-11T15:16:52Z</time></trkpt><trkpt lat="44.82314375878502" lon="8.149859506323804"><ele>127.0</ele><time>2026-04-11T15:16:54Z</time></trkpt><trkpt lat="44.82308411287849" lon="8.14975449651549"><ele>127.00000000000001</ele><time>2026-04-11T15:16:57Z</time></trkpt><trkpt lat="44.823040737926725" lon="8.149668845441969"><ele>127.0</ele><time>2026-04-11T15:16:59Z</time></trkpt><trkpt lat="44.822990477358715" lon="8.149581402020978"><ele>127.00000000000001</ele><time>2026-04-11T15:17:01Z</time></trkpt><trkpt lat="44.82293176685885" lon="8.149493964649249"><ele>127.0</ele><time>2026-04-11T15:17:03Z</time></trkpt><trkpt lat="44.82287251492719" lon="8.149401636145663"><ele>127.0</ele><time>2026-04-11T15:17:05Z</time></trkpt><trkpt lat="44.8228217530596" lon="8.149303275309023"><ele>127.0</ele><time>2026-04-11T15:17:07Z</time></trkpt><trkpt lat="44.82276479184434" lon="8.1492054897712"><ele>127.00000000000001</ele><time>2026-04-11T15:17:09Z</time></trkpt><trkpt lat="44.82270705639782" lon="8.149106667845638"><ele>127.0</ele><time>2026-04-11T15:17:11Z</time></trkpt><trkpt lat="44.822661552932544" lon="8.148998632967698"><ele>127.0</ele><time>2026-04-11T15:17:13Z</time></trkpt><trkpt lat="44.82261696138564" lon="8.148898389338163"><ele>126.99999999999999</ele><time>2026-04-11T15:17:15Z</time></trkpt><trkpt lat="44.82256281136423" lon="8.148787425206203"><ele>126.99999999999999</ele><time>2026-04-11T15:17:17Z</time></trkpt><trkpt lat="44.822508386587224" lon="8.148682094490447"><ele>127.0</ele><time>2026-04-11T15:17:19Z</time></trkpt><trkpt lat="44.822452362234465" lon="8.148575004524824"><ele>127.0</ele><time>2026-04-11T15:17:21Z</time></trkpt><trkpt lat="44.82239377268698" lon="8.148467628516116"><ele>127.0</ele><time>2026-04-11T15:17:22.999Z</time></trkpt><trkpt lat="44.82232849069182" lon="8.148361442397238"><ele>126.99999999999999</ele><time>2026-04-11T15:17:24.999Z</time></trkpt><trkpt lat="44.822261220478026" lon="8.14825591764305"><ele>126.99999999999999</ele><time>2026-04-11T15:17:26.999Z</time></trkpt><trkpt lat="44.822198800728486" lon="8.148147847439214"><ele>127.0</ele><time>2026-04-11T15:17:28.999Z</time></trkpt><trkpt lat="44.82213498670446" lon="8.148044633801206"><ele>127.0</ele><time>2026-04-11T15:17:30.999Z</time></trkpt><trkpt lat="44.82207372354875" lon="8.14794771509882"><ele>127.0</ele><time>2026-04-11T15:17:32.999Z</time></trkpt><trkpt lat="44.822014171348755" lon="8.147854352729938"><ele>126.99999999999999</ele><time>2026-04-11T15:17:34.999Z</time></trkpt><trkpt lat="44.82194881264542" lon="8.147772247904465"><ele>126.99999999999999</ele><time>2026-04-11T15:17:36.999Z</time></trkpt><trkpt lat="44.8218598411131" lon="8.14774380460736"><ele>127.0</ele><time>2026-04-11T15:17:38.999Z</time></trkpt><trkpt lat="44.82176390915062" lon="8.147757955138918"><ele>127.0</ele><time>2026-04-11T15:17:40.999Z</time></trkpt><trkpt lat="44.821674537560504" lon="8.147794137365388"><ele>127.00000000000001</ele><time>2026-04-11T15:17:42.999Z</time></trkpt><trkpt lat="44.82158500702718" lon="8.147860483507381"><ele>127.0</ele><time>2026-04-11T15:17:44.999Z</time></trkpt><trkpt lat="44.82151461414554" lon="8.14791603054165"><ele>127.0</ele><time>2026-04-11T15:17:46.999Z</time></trkpt><trkpt lat="44.82144264036071" lon="8.147971959405114"><ele>127.0</ele><time>2026-04-11T15:17:48.999Z</time></trkpt><trkpt lat="44.82136037831153" lon="8.147980775831993"><ele>127.00000000000001</ele><time>2026-04-11T15:17:50.999Z</time></trkpt><trkpt lat="44.82129409335492" lon="8.147980833806061"><ele>127.0</ele><time>2026-04-11T15:17:52.999Z</time></trkpt><trkpt lat="44.821207647521895" lon="8.147974884543794"><ele>127.00000000000001</ele><time>2026-04-11T15:17:55.999Z</time></trkpt><trkpt lat="44.82113569387849" lon="8.147969526620102"><ele>127.0</ele><time>2026-04-11T15:17:58.999Z</time></trkpt><trkpt lat="44.82106144116034" lon="8.147994883567241"><ele>127.0</ele><time>2026-04-11T15:18:01.999Z</time></trkpt><trkpt lat="44.82097272333095" lon="8.148008451624708"><ele>127.0</ele><time>2026-04-11T15:18:04.999Z</time></trkpt><trkpt lat="44.820886636947634" lon="8.148032040122526"><ele>127.00000000000001</ele><time>2026-04-11T15:18:07.999Z</time></trkpt><trkpt lat="44.8208048235662" lon="8.148049085814444"><ele>127.0</ele><time>2026-04-11T15:18:10.999Z</time></trkpt><trkpt lat="44.82073342876507" lon="8.148066413787673"><ele>127.00000000000001</ele><time>2026-04-11T15:18:44Z</time></trkpt><trkpt lat="44.82065209291083" lon="8.148072297068316"><ele>127.0</ele><time>2026-04-11T15:18:47Z</time></trkpt><trkpt lat="44.82055410174743" lon="8.148088048584722"><ele>127.0</ele><time>2026-04-11T15:18:50Z</time></trkpt><trkpt lat="44.82047499332433" lon="8.148096268345007"><ele>127.0</ele><time>2026-04-11T15:18:52Z</time></trkpt><trkpt lat="44.820405793397164" lon="8.148112888024448"><ele>127.00000000000001</ele><time>2026-04-11T15:18:54Z</time></trkpt><trkpt lat="44.82032808214245" lon="8.14812259002132"><ele>127.0</ele><time>2026-04-11T15:18:56Z</time></trkpt><trkpt lat="44.8202582581972" lon="8.1481402198722"><ele>127.00000000000001</ele><time>2026-04-11T15:18:58Z</time></trkpt><trkpt lat="44.820188111639865" lon="8.148151249854772"><ele>127.0</ele><time>2026-04-11T15:19:00Z</time></trkpt><trkpt lat="44.820092509386974" lon="8.148157246334188"><ele>127.0</ele><time>2026-04-11T15:19:02Z</time></trkpt><trkpt lat="44.819998146294424" lon="8.148170860889643"><ele>127.0</ele><time>2026-04-11T15:19:04Z</time></trkpt><trkpt lat="44.819913941088295" lon="8.148183779146779"><ele>127.00000000000001</ele><time>2026-04-11T15:19:06Z</time></trkpt><trkpt lat="44.81983502177682" lon="8.148199830172034"><ele>127.0</ele><time>2026-04-11T15:19:08Z</time></trkpt><trkpt lat="44.819751881948875" lon="8.148214232269362"><ele>127.16666666666667</ele><time>2026-04-11T15:19:10Z</time></trkpt><trkpt lat="44.81966921964063" lon="8.148226608100332"><ele>127.33333333333334</ele><time>2026-04-11T15:19:12Z</time></trkpt><trkpt lat="44.81958702065087" lon="8.14823788918074"><ele>127.5</ele><time>2026-04-11T15:19:14Z</time></trkpt><trkpt lat="44.8194981294865" lon="8.148249403952383"><ele>127.66666666666666</ele><time>2026-04-11T15:19:16Z</time></trkpt><trkpt lat="44.81940673356444" lon="8.1482675737275"><ele>127.83333333333333</ele><time>2026-04-11T15:19:18Z</time></trkpt><trkpt lat="44.81931186523597" lon="8.148281944874137"><ele>128.0</ele><time>2026-04-11T15:19:20Z</time></trkpt><trkpt lat="44.81922954826667" lon="8.148292143231508"><ele>128.33333333333331</ele><time>2026-04-11T15:19:22Z</time></trkpt><trkpt lat="44.81914520324803" lon="8.148303584260546"><ele>128.66666666666666</ele><time>2026-04-11T15:19:24Z</time></trkpt><trkpt lat="44.81907038809316" lon="8.14831452764403"><ele>129.0</ele><time>2026-04-11T15:19:25.999Z</time></trkpt><trkpt lat="44.81897831845593" lon="8.148327626754481"><ele>129.33333333333334</ele><time>2026-04-11T15:19:27.999Z</time></trkpt><trkpt lat="44.81889279528193" lon="8.148340140348061"><ele>129.66666666666669</ele><time>2026-04-11T15:19:29.999Z</time></trkpt><trkpt lat="44.81879987647096" lon="8.14834619757427"><ele>130.0</ele><time>2026-04-11T15:19:31.999Z</time></trkpt><trkpt lat="44.81870773928331" lon="8.148359736642458"><ele>130.0</ele><time>2026-04-11T15:19:33.999Z</time></trkpt><trkpt lat="44.81861133717834" lon="8.148342837637516"><ele>130.0</ele><time>2026-04-11T15:19:35.999Z</time></trkpt><trkpt lat="44.8185225188338" lon="8.148286482574083"><ele>130.0</ele><time>2026-04-11T15:19:37.999Z</time></trkpt><trkpt lat="44.818440655103664" lon="8.148213652027252"><ele>130.0</ele><time>2026-04-11T15:19:39.999Z</time></trkpt><trkpt lat="44.81837648826656" lon="8.148120936630901"><ele>130.0</ele><time>2026-04-11T15:19:41.999Z</time></trkpt><trkpt lat="44.81832677573833" lon="8.148014370868745"><ele>129.4</ele><time>2026-04-11T15:19:43.999Z</time></trkpt><trkpt lat="44.81827058524864" lon="8.14789988456359"><ele>128.8</ele><time>2026-04-11T15:19:45.999Z</time></trkpt><trkpt lat="44.818213458981795" lon="8.147788773826903"><ele>128.2</ele><time>2026-04-11T15:19:47.999Z</time></trkpt><trkpt lat="44.818159932988564" lon="8.147680645145225"><ele>127.6</ele><time>2026-04-11T15:19:49.999Z</time></trkpt><trkpt lat="44.81810042328681" lon="8.147570270219232"><ele>127.0</ele><time>2026-04-11T15:19:51.999Z</time></trkpt><trkpt lat="44.81804195427836" lon="8.147454084700136"><ele>127.33333333333334</ele><time>2026-04-11T15:19:53.999Z</time></trkpt><trkpt lat="44.81799146557069" lon="8.147348894422418"><ele>127.66666666666667</ele><time>2026-04-11T15:19:55.999Z</time></trkpt><trkpt lat="44.81794268441493" lon="8.147239912895923"><ele>128.0</ele><time>2026-04-11T15:19:57.999Z</time></trkpt><trkpt lat="44.817884717829614" lon="8.147140731404171"><ele>128.33333333333334</ele><time>2026-04-11T15:19:59.999Z</time></trkpt><trkpt lat="44.81783651213262" lon="8.147046653710316"><ele>128.66666666666666</ele><time>2026-04-11T15:20:01.999Z</time></trkpt><trkpt lat="44.817786377986636" lon="8.146944456705372"><ele>129.0</ele><time>2026-04-11T15:20:03.999Z</time></trkpt><trkpt lat="44.81773266909626" lon="8.146845982348195"><ele>129.0</ele><time>2026-04-11T15:20:05.999Z</time></trkpt><trkpt lat="44.81768363779973" lon="8.146740418936565"><ele>129.0</ele><time>2026-04-11T15:20:07.999Z</time></trkpt><trkpt lat="44.81762690484137" lon="8.146638562022305"><ele>129.0</ele><time>2026-04-11T15:20:09.999Z</time></trkpt><trkpt lat="44.817570634168945" lon="8.146525076188869"><ele>129.0</ele><time>2026-04-11T15:20:11.999Z</time></trkpt><trkpt lat="44.81751331085859" lon="8.146413327317115"><ele>129.0</ele><time>2026-04-11T15:20:13.999Z</time></trkpt><trkpt lat="44.817455141676405" lon="8.146313550159794"><ele>129.0</ele><time>2026-04-11T15:20:15.999Z</time></trkpt><trkpt lat="44.81740009658799" lon="8.146199632295271"><ele>129.0</ele><time>2026-04-11T15:20:17.999Z</time></trkpt><trkpt lat="44.81734145508438" lon="8.146087979593768"><ele>129.0</ele><time>2026-04-11T15:20:19.999Z</time></trkpt><trkpt lat="44.81728597672271" lon="8.145975352910478"><ele>129.0</ele><time>2026-04-11T15:20:21.999Z</time></trkpt><trkpt lat="44.81723117971254" lon="8.145864759607097"><ele>129.0</ele><time>2026-04-11T15:20:23.999Z</time></trkpt><trkpt lat="44.817174669619696" lon="8.145756709475956"><ele>128.6</ele><time>2026-04-11T15:20:25.999Z</time></trkpt><trkpt lat="44.81711750033093" lon="8.145646249400336"><ele>128.2</ele><time>2026-04-11T15:20:27.999Z</time></trkpt><trkpt lat="44.81705980142959" lon="8.145535810116272"><ele>127.79999999999998</ele><time>2026-04-11T15:20:29.999Z</time></trkpt><trkpt lat="44.81700447294391" lon="8.145429588014256"><ele>127.39999999999999</ele><time>2026-04-11T15:20:32Z</time></trkpt><trkpt lat="44.8169526677266" lon="8.145331679828805"><ele>127.0</ele><time>2026-04-11T15:20:34Z</time></trkpt><trkpt lat="44.81689491262836" lon="8.145232241486122"><ele>127.0</ele><time>2026-04-11T15:20:36Z</time></trkpt><trkpt lat="44.81683880539064" lon="8.14512049262831"><ele>126.99999999999999</ele><time>2026-04-11T15:20:38Z</time></trkpt><trkpt lat="44.816779326760305" lon="8.145009411044317"><ele>126.99999999999999</ele><time>2026-04-11T15:20:40Z</time></trkpt><trkpt lat="44.8167235041484" lon="8.144896447218"><ele>127.0</ele><time>2026-04-11T15:20:42Z</time></trkpt><trkpt lat="44.81666368937803" lon="8.144786362280483"><ele>127.0</ele><time>2026-04-11T15:20:44Z</time></trkpt><trkpt lat="44.81660978186938" lon="8.144673222739401"><ele>127.39999999999999</ele><time>2026-04-11T15:20:46Z</time></trkpt><trkpt lat="44.81655555935894" lon="8.144562885436244"><ele>127.79999999999998</ele><time>2026-04-11T15:20:48Z</time></trkpt><trkpt lat="44.816506836872655" lon="8.144445219912866"><ele>128.2</ele><time>2026-04-11T15:20:50Z</time></trkpt><trkpt lat="44.816471160774014" lon="8.14432189726932"><ele>128.6</ele><time>2026-04-11T15:20:52Z</time></trkpt><trkpt lat="44.81644151313876" lon="8.144193257598756"><ele>129.0</ele><time>2026-04-11T15:20:54Z</time></trkpt><trkpt lat="44.81641262458479" lon="8.144066028276194"><ele>129.0</ele><time>2026-04-11T15:20:56Z</time></trkpt><trkpt lat="44.816381695470255" lon="8.14393108330171"><ele>129.0</ele><time>2026-04-11T15:20:58Z</time></trkpt><trkpt lat="44.81635428620083" lon="8.143805183124146"><ele>129.0</ele><time>2026-04-11T15:21:00Z</time></trkpt><trkpt lat="44.81633514730983" lon="8.14368210033622"><ele>129.0</ele><time>2026-04-11T15:21:02Z</time></trkpt><trkpt lat="44.81632115002474" lon="8.143554166900943"><ele>129.0</ele><time>2026-04-11T15:21:04Z</time></trkpt><trkpt lat="44.81632383959617" lon="8.143419736067292"><ele>129.0</ele><time>2026-04-11T15:21:06Z</time></trkpt><trkpt lat="44.81635301065117" lon="8.143279791511837"><ele>129.0</ele><time>2026-04-11T15:21:08Z</time></trkpt><trkpt lat="44.81639272396529" lon="8.143155499369334"><ele>129.0</ele><time>2026-04-11T15:21:10Z</time></trkpt><trkpt lat="44.816444947074615" lon="8.143029747347914"><ele>129.0</ele><time>2026-04-11T15:21:12Z</time></trkpt><trkpt lat="44.81650433481497" lon="8.142905976159563"><ele>129.0</ele><time>2026-04-11T15:21:14Z</time></trkpt><trkpt lat="44.816553450660805" lon="8.14279303756533"><ele>128.8</ele><time>2026-04-11T15:21:16Z</time></trkpt><trkpt lat="44.81660155895824" lon="8.142684552676322"><ele>128.60000000000002</ele><time>2026-04-11T15:21:18Z</time></trkpt><trkpt lat="44.81665445359162" lon="8.142567521511035"><ele>128.4</ele><time>2026-04-11T15:21:20Z</time></trkpt><trkpt lat="44.816705837814375" lon="8.142449653120053"><ele>128.20000000000002</ele><time>2026-04-11T15:21:22Z</time></trkpt><trkpt lat="44.816756300263805" lon="8.142330000397134"><ele>128.0</ele><time>2026-04-11T15:21:24Z</time></trkpt><trkpt lat="44.81680627347108" lon="8.142209954525587"><ele>127.99999999999999</ele><time>2026-04-11T15:21:26Z</time></trkpt><trkpt lat="44.81685470169047" lon="8.142102367452512"><ele>128.0</ele><time>2026-04-11T15:21:28Z</time></trkpt><trkpt lat="44.816891632030355" lon="8.142000884913593"><ele>128.0</ele><time>2026-04-11T15:21:30Z</time></trkpt><trkpt lat="44.816936631997216" lon="8.141895650450614"><ele>128.0</ele><time>2026-04-11T15:21:32Z</time></trkpt><trkpt lat="44.8169839532753" lon="8.141785563586327"><ele>127.99999999999999</ele><time>2026-04-11T15:21:34Z</time></trkpt><trkpt lat="44.8170440535605" lon="8.141689220164901"><ele>128.0</ele><time>2026-04-11T15:21:36Z</time></trkpt><trkpt lat="44.817085600458114" lon="8.141602559413172"><ele>127.99999999999999</ele><time>2026-04-11T15:21:38Z</time></trkpt><trkpt lat="44.81710756797656" lon="8.14149528117366"><ele>128.0</ele><time>2026-04-11T15:21:39.999Z</time></trkpt><trkpt lat="44.817092845645206" lon="8.1413883639496"><ele>128.0</ele><time>2026-04-11T15:21:41.999Z</time></trkpt><trkpt lat="44.81705477614876" lon="8.141273282756412"><ele>128.0</ele><time>2026-04-11T15:21:43.999Z</time></trkpt><trkpt lat="44.817012603086354" lon="8.141155446877157"><ele>127.99999999999999</ele><time>2026-04-11T15:21:45.999Z</time></trkpt><trkpt lat="44.816960098715896" lon="8.14103311561475"><ele>128.0</ele><time>2026-04-11T15:21:47.999Z</time></trkpt><trkpt lat="44.81691828336361" lon="8.14091278892939"><ele>128.0</ele><time>2026-04-11T15:21:49.999Z</time></trkpt><trkpt lat="44.816887709884405" lon="8.140782528584674"><ele>128.0</ele><time>2026-04-11T15:21:51.999Z</time></trkpt><trkpt lat="44.81684549576406" lon="8.1406533647031"><ele>128.0</ele><time>2026-04-11T15:21:53.999Z</time></trkpt><trkpt lat="44.816809861472514" lon="8.140526180211106"><ele>128.0</ele><time>2026-04-11T15:21:55.999Z</time></trkpt><trkpt lat="44.81676906221272" lon="8.140397927906378"><ele>128.0</ele><time>2026-04-11T15:21:57.999Z</time></trkpt><trkpt lat="44.816724774310394" lon="8.140266719004854"><ele>128.20000000000002</ele><time>2026-04-11T15:21:59.999Z</time></trkpt><trkpt lat="44.816684749863015" lon="8.140136324292001"><ele>128.4</ele><time>2026-04-11T15:22:01.999Z</time></trkpt><trkpt lat="44.81664057615089" lon="8.139996373990753"><ele>128.60000000000002</ele><time>2026-04-11T15:22:03.999Z</time></trkpt><trkpt lat="44.81659759435686" lon="8.139860632831825"><ele>128.8</ele><time>2026-04-11T15:22:05.999Z</time></trkpt><trkpt lat="44.81655321376609" lon="8.139724223964384"><ele>129.0</ele><time>2026-04-11T15:22:07.999Z</time></trkpt><trkpt lat="44.81651585030036" lon="8.139592577649859"><ele>129.0</ele><time>2026-04-11T15:22:09.999Z</time></trkpt><trkpt lat="44.81647111385357" lon="8.13945334171181"><ele>129.0</ele><time>2026-04-11T15:22:11.999Z</time></trkpt><trkpt lat="44.8164306329565" lon="8.13932210359608"><ele>129.0</ele><time>2026-04-11T15:22:13.999Z</time></trkpt><trkpt lat="44.816389826649136" lon="8.13918874305755"><ele>129.0</ele><time>2026-04-11T15:22:15.999Z</time></trkpt><trkpt lat="44.81635225917316" lon="8.13906725829699"><ele>129.0</ele><time>2026-04-11T15:22:17.999Z</time></trkpt><trkpt lat="44.816320006368464" lon="8.13895465964431"><ele>128.99999999999997</ele><time>2026-04-11T15:22:19.999Z</time></trkpt><trkpt lat="44.81629159966409" lon="8.13884913853812"><ele>129.0</ele><time>2026-04-11T15:22:21.999Z</time></trkpt><trkpt lat="44.816260369874335" lon="8.138766957852798"><ele>129.0</ele><time>2026-04-11T15:22:23.999Z</time></trkpt><trkpt lat="44.816234166152505" lon="8.138680833375805"><ele>129.0</ele><time>2026-04-11T15:22:48Z</time></trkpt><trkpt lat="44.816190405149406" lon="8.138614178709021"><ele>129.0</ele><time>2026-04-11T15:22:51Z</time></trkpt><trkpt lat="44.816118761104576" lon="8.1385505858064"><ele>128.99999999999997</ele><time>2026-04-11T15:22:54Z</time></trkpt><trkpt lat="44.81605090853795" lon="8.138523186504406"><ele>129.0</ele><time>2026-04-11T15:22:56Z</time></trkpt><trkpt lat="44.81598523587701" lon="8.138515191776168"><ele>129.0</ele><time>2026-04-11T15:22:58Z</time></trkpt><trkpt lat="44.81592200488356" lon="8.138509885666517"><ele>129.0</ele><time>2026-04-11T15:23:00Z</time></trkpt><trkpt lat="44.81584222122505" lon="8.138521255619574"><ele>129.0</ele><time>2026-04-11T15:23:02Z</time></trkpt><trkpt lat="44.815762417160755" lon="8.13853506471217"><ele>129.0</ele><time>2026-04-11T15:23:04Z</time></trkpt><trkpt lat="44.815680359165086" lon="8.138530303766707"><ele>129.0</ele><time>2026-04-11T15:23:06Z</time></trkpt><trkpt lat="44.815598567365754" lon="8.13853689729549"><ele>129.0</ele><time>2026-04-11T15:23:08Z</time></trkpt><trkpt lat="44.815503017035425" lon="8.138536771125107"><ele>129.0</ele><time>2026-04-11T15:23:10Z</time></trkpt><trkpt lat="44.81541575786378" lon="8.138541677513519"><ele>129.0</ele><time>2026-04-11T15:23:12Z</time></trkpt><trkpt lat="44.815318435418696" lon="8.138558623926441"><ele>129.0</ele><time>2026-04-11T15:23:14Z</time></trkpt><trkpt lat="44.815228661591114" lon="8.13855755895181"><ele>129.0</ele><time>2026-04-11T15:23:16Z</time></trkpt><trkpt lat="44.81513930505631" lon="8.13855906352918"><ele>129.0</ele><time>2026-04-11T15:23:18Z</time></trkpt><trkpt lat="44.815051439745595" lon="8.13856140300528"><ele>129.0</ele><time>2026-04-11T15:23:20Z</time></trkpt><trkpt lat="44.81496055552245" lon="8.13855426147497"><ele>129.0</ele><time>2026-04-11T15:23:22Z</time></trkpt><trkpt lat="44.81487454163674" lon="8.138520714530626"><ele>129.0</ele><time>2026-04-11T15:23:24Z</time></trkpt><trkpt lat="44.8147841050943" lon="8.13847280472506"><ele>129.0</ele><time>2026-04-11T15:23:26Z</time></trkpt><trkpt lat="44.814702846166604" lon="8.138413655545039"><ele>129.0</ele><time>2026-04-11T15:23:28Z</time></trkpt><trkpt lat="44.81461383536862" lon="8.13834599526093"><ele>129.0</ele><time>2026-04-11T15:23:30Z</time></trkpt><trkpt lat="44.814534570748116" lon="8.138273399617047"><ele>129.0</ele><time>2026-04-11T15:23:32Z</time></trkpt><trkpt lat="44.81445079415948" lon="8.138193779409436"><ele>129.0</ele><time>2026-04-11T15:23:34Z</time></trkpt><trkpt lat="44.8143630102559" lon="8.138119842258078"><ele>129.0</ele><time>2026-04-11T15:23:36Z</time></trkpt><trkpt lat="44.81428181319581" lon="8.138040237575224"><ele>129.0</ele><time>2026-04-11T15:23:38Z</time></trkpt><trkpt lat="44.81419489386105" lon="8.13796510377055"><ele>129.2</ele><time>2026-04-11T15:23:40Z</time></trkpt><trkpt lat="44.81410311462483" lon="8.137881816882365"><ele>129.4</ele><time>2026-04-11T15:23:41.999Z</time></trkpt><trkpt lat="44.81400957957654" lon="8.137801148414296"><ele>129.6</ele><time>2026-04-11T15:23:43.999Z</time></trkpt><trkpt lat="44.81391913770183" lon="8.13771658827069"><ele>129.8</ele><time>2026-04-11T15:23:45.999Z</time></trkpt><trkpt lat="44.81382673935838" lon="8.137632819951547"><ele>130.0</ele><time>2026-04-11T15:23:47.999Z</time></trkpt><trkpt lat="44.8137404333579" lon="8.13755416740105"><ele>130.0</ele><time>2026-04-11T15:23:49.999Z</time></trkpt><trkpt lat="44.81365891024455" lon="8.1374731788504"><ele>130.0</ele><time>2026-04-11T15:23:51.999Z</time></trkpt><trkpt lat="44.813568685667285" lon="8.13739495076264"><ele>130.0</ele><time>2026-04-11T15:23:53.999Z</time></trkpt><trkpt lat="44.81347926434754" lon="8.137313685475862"><ele>130.0</ele><time>2026-04-11T15:23:55.999Z</time></trkpt><trkpt lat="44.81339780704038" lon="8.13723559761163"><ele>130.0</ele><time>2026-04-11T15:23:57.999Z</time></trkpt><trkpt lat="44.81331609834043" lon="8.137159421375888"><ele>130.2</ele><time>2026-04-11T15:23:59.999Z</time></trkpt><trkpt lat="44.81323399650342" lon="8.137088841936501"><ele>130.4</ele><time>2026-04-11T15:24:01.999Z</time></trkpt><trkpt lat="44.813144392557746" lon="8.137013376183576"><ele>130.6</ele><time>2026-04-11T15:24:03.999Z</time></trkpt><trkpt lat="44.81306245069082" lon="8.13694435680772"><ele>130.8</ele><time>2026-04-11T15:24:05.999Z</time></trkpt><trkpt lat="44.81297919019106" lon="8.136869403662596"><ele>131.0</ele><time>2026-04-11T15:24:07.999Z</time></trkpt><trkpt lat="44.81289744653851" lon="8.136803814784185"><ele>131.0</ele><time>2026-04-11T15:24:09.999Z</time></trkpt><trkpt lat="44.812810099490015" lon="8.136731432572446"><ele>131.0</ele><time>2026-04-11T15:24:11.999Z</time></trkpt><trkpt lat="44.812730550747446" lon="8.136658079111978"><ele>131.0</ele><time>2026-04-11T15:24:13.999Z</time></trkpt><trkpt lat="44.81264413149138" lon="8.136590072732341"><ele>131.0</ele><time>2026-04-11T15:24:15.999Z</time></trkpt><trkpt lat="44.81255206605226" lon="8.13652119639686"><ele>131.0</ele><time>2026-04-11T15:24:17.999Z</time></trkpt><trkpt lat="44.81246476306379" lon="8.136453224667104"><ele>130.8</ele><time>2026-04-11T15:24:19.999Z</time></trkpt><trkpt lat="44.812372409387585" lon="8.136378170915906"><ele>130.6</ele><time>2026-04-11T15:24:21.999Z</time></trkpt><trkpt lat="44.81228093371641" lon="8.13630314626795"><ele>130.4</ele><time>2026-04-11T15:24:23.999Z</time></trkpt><trkpt lat="44.81218808356309" lon="8.136229899197088"><ele>130.2</ele><time>2026-04-11T15:24:25.999Z</time></trkpt><trkpt lat="44.812101526165975" lon="8.136160606640747"><ele>130.0</ele><time>2026-04-11T15:24:27.999Z</time></trkpt><trkpt lat="44.812012767827355" lon="8.136087985650969"><ele>130.0</ele><time>2026-04-11T15:24:29.999Z</time></trkpt><trkpt lat="44.81192462445855" lon="8.136023267591217"><ele>130.0</ele><time>2026-04-11T15:24:31.999Z</time></trkpt><trkpt lat="44.81183679520525" lon="8.135954632575015"><ele>130.0</ele><time>2026-04-11T15:24:33.999Z</time></trkpt><trkpt lat="44.811750646229825" lon="8.135887403290884"><ele>130.0</ele><time>2026-04-11T15:24:35.999Z</time></trkpt><trkpt lat="44.811662729027574" lon="8.13582427890711"><ele>130.0</ele><time>2026-04-11T15:24:37.999Z</time></trkpt><trkpt lat="44.81156779007202" lon="8.135760982873874"><ele>130.0</ele><time>2026-04-11T15:24:39.999Z</time></trkpt><trkpt lat="44.81147532281444" lon="8.135698646211944"><ele>130.0</ele><time>2026-04-11T15:24:41.999Z</time></trkpt><trkpt lat="44.81138099472719" lon="8.13563344010891"><ele>130.0</ele><time>2026-04-11T15:24:44Z</time></trkpt><trkpt lat="44.81128136088733" lon="8.135560000250107"><ele>130.0</ele><time>2026-04-11T15:24:46Z</time></trkpt><trkpt lat="44.811182058564626" lon="8.135488932257433"><ele>130.0</ele><time>2026-04-11T15:24:48Z</time></trkpt><trkpt lat="44.81108687109039" lon="8.135424474441603"><ele>130.0</ele><time>2026-04-11T15:24:50Z</time></trkpt><trkpt lat="44.81099520531292" lon="8.135364351835937"><ele>130.0</ele><time>2026-04-11T15:24:52Z</time></trkpt><trkpt lat="44.81090045613363" lon="8.135302765684425"><ele>130.0</ele><time>2026-04-11T15:24:54Z</time></trkpt><trkpt lat="44.81079823356582" lon="8.135231806792184"><ele>130.0</ele><time>2026-04-11T15:24:56Z</time></trkpt><trkpt lat="44.810696703950306" lon="8.135172257224058"><ele>130.0</ele><time>2026-04-11T15:24:58Z</time></trkpt><trkpt lat="44.8105944961662" lon="8.135108665055391"><ele>130.0</ele><time>2026-04-11T15:25:00Z</time></trkpt><trkpt lat="44.810493096177495" lon="8.135048430940131"><ele>130.0</ele><time>2026-04-11T15:25:02Z</time></trkpt><trkpt lat="44.8103938461015" lon="8.134989935968845"><ele>130.0</ele><time>2026-04-11T15:25:04Z</time></trkpt><trkpt lat="44.81030159699152" lon="8.134931546525761"><ele>130.0</ele><time>2026-04-11T15:25:06Z</time></trkpt><trkpt lat="44.81020747833458" lon="8.134872825393805"><ele>130.0</ele><time>2026-04-11T15:25:08Z</time></trkpt><trkpt lat="44.810111489489366" lon="8.134811367195454"><ele>130.0</ele><time>2026-04-11T15:25:10Z</time></trkpt><trkpt lat="44.81001029706503" lon="8.134743581112563"><ele>130.0</ele><time>2026-04-11T15:25:12Z</time></trkpt><trkpt lat="44.80992200474078" lon="8.134694454994374"><ele>130.0</ele><time>2026-04-11T15:25:14Z</time></trkpt><trkpt lat="44.80982699996654" lon="8.134639751912623"><ele>130.0</ele><time>2026-04-11T15:25:16Z</time></trkpt><trkpt lat="44.809734645386236" lon="8.134585699462233"><ele>130.0</ele><time>2026-04-11T15:25:18Z</time></trkpt><trkpt lat="44.80963399754554" lon="8.134535599003852"><ele>130.0</ele><time>2026-04-11T15:25:20Z</time></trkpt><trkpt lat="44.80953920829732" lon="8.13448444400215"><ele>130.0</ele><time>2026-04-11T15:25:22Z</time></trkpt><trkpt lat="44.80943995645926" lon="8.134425407738677"><ele>130.0</ele><time>2026-04-11T15:25:24Z</time></trkpt><trkpt lat="44.80933910937814" lon="8.134369428467355"><ele>130.0</ele><time>2026-04-11T15:25:26Z</time></trkpt><trkpt lat="44.809244284402524" lon="8.134324171106966"><ele>130.0</ele><time>2026-04-11T15:25:28Z</time></trkpt><trkpt lat="44.80914639699281" lon="8.134276770663146"><ele>129.6</ele><time>2026-04-11T15:25:30Z</time></trkpt><trkpt lat="44.8090520502529" lon="8.13423658412096"><ele>129.2</ele><time>2026-04-11T15:25:32Z</time></trkpt><trkpt lat="44.80895521585236" lon="8.134196827701553"><ele>128.8</ele><time>2026-04-11T15:25:34Z</time></trkpt><trkpt lat="44.808858360900636" lon="8.134146914442203"><ele>128.4</ele><time>2026-04-11T15:25:36Z</time></trkpt><trkpt lat="44.808759515490955" lon="8.134093620507716"><ele>128.0</ele><time>2026-04-11T15:25:38Z</time></trkpt><trkpt lat="44.80866076917389" lon="8.134052600780674"><ele>128.0</ele><time>2026-04-11T15:25:40Z</time></trkpt><trkpt lat="44.80855489263106" lon="8.13400695003159"><ele>128.0</ele><time>2026-04-11T15:25:42Z</time></trkpt><trkpt lat="44.808458058865426" lon="8.133965780563388"><ele>128.0</ele><time>2026-04-11T15:25:44Z</time></trkpt><trkpt lat="44.80836335340581" lon="8.133932672279311"><ele>128.0</ele><time>2026-04-11T15:25:46Z</time></trkpt><trkpt lat="44.808272379314566" lon="8.133898748571392"><ele>128.0</ele><time>2026-04-11T15:25:48Z</time></trkpt><trkpt lat="44.80819829919638" lon="8.133865168158115"><ele>127.99999999999999</ele><time>2026-04-11T15:25:49.999Z</time></trkpt><trkpt lat="44.808118907945676" lon="8.133820755273673"><ele>128.0</ele><time>2026-04-11T15:25:51.999Z</time></trkpt><trkpt lat="44.808035459429775" lon="8.1337826008613"><ele>128.0</ele><time>2026-04-11T15:25:53.999Z</time></trkpt><trkpt lat="44.80796129833677" lon="8.133748749792169"><ele>128.0</ele><time>2026-04-11T15:25:55.999Z</time></trkpt><trkpt lat="44.807915715807326" lon="8.133648364848865"><ele>127.99999999999999</ele><time>2026-04-11T15:25:58.999Z</time></trkpt><trkpt lat="44.80793253400417" lon="8.133542936418596"><ele>128.0</ele><time>2026-04-11T15:26:00.999Z</time></trkpt><trkpt lat="44.80795301700139" lon="8.133426426966501"><ele>127.99999999999999</ele><time>2026-04-11T15:26:02.999Z</time></trkpt><trkpt lat="44.80796818145131" lon="8.133307485744318"><ele>128.0</ele><time>2026-04-11T15:26:04.999Z</time></trkpt><trkpt lat="44.80797430866624" lon="8.133152989506627"><ele>128.0</ele><time>2026-04-11T15:26:06.999Z</time></trkpt><trkpt lat="44.807989685635285" lon="8.133023761966838"><ele>128.0</ele><time>2026-04-11T15:26:08.999Z</time></trkpt><trkpt lat="44.807956214694315" lon="8.13292960906548"><ele>127.99999999999999</ele><time>2026-04-11T15:26:10.999Z</time></trkpt><trkpt lat="44.80787526732096" lon="8.132927927497493"><ele>128.0</ele><time>2026-04-11T15:26:12.999Z</time></trkpt><trkpt lat="44.80780434975679" lon="8.132955539314601"><ele>128.0</ele><time>2026-04-11T15:26:14.999Z</time></trkpt><trkpt lat="44.807711495231246" lon="8.132996833492832"><ele>128.0</ele><time>2026-04-11T15:26:16.999Z</time></trkpt><trkpt lat="44.8076343909709" lon="8.13303597604634"><ele>128.0</ele><time>2026-04-11T15:26:18.999Z</time></trkpt><trkpt lat="44.807556860125565" lon="8.133070067249125"><ele>128.0</ele><time>2026-04-11T15:26:20.999Z</time></trkpt><trkpt lat="44.80745294196302" lon="8.133074901313272"><ele>128.0</ele><time>2026-04-11T15:26:22.999Z</time></trkpt><trkpt lat="44.8073579418498" lon="8.133058262114863"><ele>128.20000000000002</ele><time>2026-04-11T15:26:24.999Z</time></trkpt><trkpt lat="44.80726977971464" lon="8.133034742796532"><ele>128.4</ele><time>2026-04-11T15:26:26.999Z</time></trkpt><trkpt lat="44.80717472922436" lon="8.133038503703892"><ele>128.60000000000002</ele><time>2026-04-11T15:26:28.999Z</time></trkpt><trkpt lat="44.80707800269925" lon="8.133032285270616"><ele>128.8</ele><time>2026-04-11T15:26:30.999Z</time></trkpt><trkpt lat="44.80697554664645" lon="8.133015714580484"><ele>129.0</ele><time>2026-04-11T15:26:32.999Z</time></trkpt><trkpt lat="44.80687208762308" lon="8.132979080715353"><ele>129.0</ele><time>2026-04-11T15:26:34.999Z</time></trkpt><trkpt lat="44.80676704987378" lon="8.132931523947592"><ele>129.0</ele><time>2026-04-11T15:26:36.999Z</time></trkpt><trkpt lat="44.80665412060232" lon="8.132868371171899"><ele>129.0</ele><time>2026-04-11T15:26:38.999Z</time></trkpt><trkpt lat="44.806552044639645" lon="8.132816612253675"><ele>129.0</ele><time>2026-04-11T15:26:40.999Z</time></trkpt><trkpt lat="44.80645537848109" lon="8.132761361518709"><ele>129.0</ele><time>2026-04-11T15:26:42.999Z</time></trkpt><trkpt lat="44.80635176132736" lon="8.132709223426506"><ele>129.0</ele><time>2026-04-11T15:26:44.999Z</time></trkpt><trkpt lat="44.80625635404628" lon="8.132653645491043"><ele>129.0</ele><time>2026-04-11T15:26:46.999Z</time></trkpt><trkpt lat="44.80615887071003" lon="8.132618182987434"><ele>129.0</ele><time>2026-04-11T15:26:49Z</time></trkpt><trkpt lat="44.80605353347776" lon="8.132574052629836"><ele>129.0</ele><time>2026-04-11T15:26:51Z</time></trkpt><trkpt lat="44.80595931123804" lon="8.132515748179582"><ele>129.0</ele><time>2026-04-11T15:26:53Z</time></trkpt><trkpt lat="44.80586197936754" lon="8.132444750423078"><ele>128.6</ele><time>2026-04-11T15:26:55Z</time></trkpt><trkpt lat="44.80577172698949" lon="8.132371807468177"><ele>128.2</ele><time>2026-04-11T15:26:57Z</time></trkpt><trkpt lat="44.80568895289797" lon="8.132301202210757"><ele>127.79999999999998</ele><time>2026-04-11T15:26:59Z</time></trkpt><trkpt lat="44.805595530074676" lon="8.132252093407764"><ele>127.39999999999999</ele><time>2026-04-11T15:27:01Z</time></trkpt><trkpt lat="44.80550355538731" lon="8.132218964967073"><ele>127.0</ele><time>2026-04-11T15:27:03Z</time></trkpt><trkpt lat="44.80539987654807" lon="8.132183685539866"><ele>127.0</ele><time>2026-04-11T15:27:05Z</time></trkpt><trkpt lat="44.805293036111856" lon="8.132164646978033"><ele>126.99999999999999</ele><time>2026-04-11T15:27:07Z</time></trkpt><trkpt lat="44.80520043007835" lon="8.132132908456772"><ele>126.99999999999999</ele><time>2026-04-11T15:27:09Z</time></trkpt><trkpt lat="44.80510246314418" lon="8.13210354386736"><ele>127.0</ele><time>2026-04-11T15:27:11Z</time></trkpt><trkpt lat="44.805010722984996" lon="8.132065374207412"><ele>127.0</ele><time>2026-04-11T15:27:13Z</time></trkpt><trkpt lat="44.80490588297731" lon="8.132026767876374"><ele>127.39999999999999</ele><time>2026-04-11T15:27:15Z</time></trkpt><trkpt lat="44.80481272555977" lon="8.13198596039269"><ele>127.79999999999998</ele><time>2026-04-11T15:27:17Z</time></trkpt><trkpt lat="44.804718731464106" lon="8.13194932269122"><ele>128.2</ele><time>2026-04-11T15:27:19Z</time></trkpt><trkpt lat="44.80462634846786" lon="8.131906862465225"><ele>128.6</ele><time>2026-04-11T15:27:21Z</time></trkpt><trkpt lat="44.804524665585014" lon="8.131866962881471"><ele>129.0</ele><time>2026-04-11T15:27:23Z</time></trkpt><trkpt lat="44.80443109349093" lon="8.13181658085877"><ele>129.0</ele><time>2026-04-11T15:27:25Z</time></trkpt><trkpt lat="44.80433048438266" lon="8.131764517248632"><ele>129.0</ele><time>2026-04-11T15:27:27Z</time></trkpt><trkpt lat="44.80423250789268" lon="8.13171625258331"><ele>129.0</ele><time>2026-04-11T15:27:29Z</time></trkpt><trkpt lat="44.804133528269254" lon="8.131675697588033"><ele>129.0</ele><time>2026-04-11T15:27:31Z</time></trkpt><trkpt lat="44.80402979585396" lon="8.131622447528656"><ele>129.0</ele><time>2026-04-11T15:27:33Z</time></trkpt><trkpt lat="44.803916877809655" lon="8.131567153434224"><ele>129.0</ele><time>2026-04-11T15:27:35Z</time></trkpt><trkpt lat="44.80381545558503" lon="8.131511757376535"><ele>129.0</ele><time>2026-04-11T15:27:37Z</time></trkpt><trkpt lat="44.80372233659314" lon="8.131452692439675"><ele>129.0</ele><time>2026-04-11T15:27:39Z</time></trkpt><trkpt lat="44.80363327876458" lon="8.13140373657836"><ele>129.0</ele><time>2026-04-11T15:27:41Z</time></trkpt><trkpt lat="44.803544196462525" lon="8.131364700569994"><ele>129.0</ele><time>2026-04-11T15:27:43Z</time></trkpt><trkpt lat="44.803443845593314" lon="8.131332536903383"><ele>129.0</ele><time>2026-04-11T15:27:45Z</time></trkpt><trkpt lat="44.803345602222635" lon="8.131315170228824"><ele>129.0</ele><time>2026-04-11T15:27:47Z</time></trkpt><trkpt lat="44.80324969425003" lon="8.131268504230121"><ele>129.0</ele><time>2026-04-11T15:27:49Z</time></trkpt><trkpt lat="44.8031504317944" lon="8.131221277708478"><ele>129.0</ele><time>2026-04-11T15:27:51Z</time></trkpt><trkpt lat="44.80305150734214" lon="8.131179407053038"><ele>129.0</ele><time>2026-04-11T15:27:52.999Z</time></trkpt><trkpt lat="44.802955087167014" lon="8.131119049329538"><ele>129.0</ele><time>2026-04-11T15:27:54.999Z</time></trkpt><trkpt lat="44.802853880654105" lon="8.13106671625856"><ele>129.0</ele><time>2026-04-11T15:27:56.999Z</time></trkpt><trkpt lat="44.802757616248286" lon="8.131014711979004"><ele>129.0</ele><time>2026-04-11T15:27:58.999Z</time></trkpt><trkpt lat="44.80264969416603" lon="8.130974383759833"><ele>129.0</ele><time>2026-04-11T15:28:00.999Z</time></trkpt><trkpt lat="44.80254216894711" lon="8.130957095149604"><ele>129.0</ele><time>2026-04-11T15:28:02.999Z</time></trkpt><trkpt lat="44.80243792965024" lon="8.130953330046028"><ele>129.2</ele><time>2026-04-11T15:28:04.999Z</time></trkpt><trkpt lat="44.802330875157615" lon="8.130953254858936"><ele>129.4</ele><time>2026-04-11T15:28:06.999Z</time></trkpt><trkpt lat="44.80222523037614" lon="8.130945525121867"><ele>129.6</ele><time>2026-04-11T15:28:08.999Z</time></trkpt><trkpt lat="44.8021325183322" lon="8.130934748186352"><ele>129.8</ele><time>2026-04-11T15:28:10.999Z</time></trkpt><trkpt lat="44.802041592385" lon="8.130915005515233"><ele>130.0</ele><time>2026-04-11T15:28:12.999Z</time></trkpt><trkpt lat="44.80195492974552" lon="8.130884001882887"><ele>130.00000000000003</ele><time>2026-04-11T15:28:14.999Z</time></trkpt><trkpt lat="44.80187955996022" lon="8.13086617772071"><ele>130.0</ele><time>2026-04-11T15:28:16.999Z</time></trkpt><trkpt lat="44.80181683507015" lon="8.130877154115442"><ele>130.0</ele><time>2026-04-11T15:28:18.999Z</time></trkpt><trkpt lat="44.801752741047835" lon="8.130904759658232"><ele>130.0</ele><time>2026-04-11T15:31:40Z</time></trkpt><trkpt lat="44.801699752169974" lon="8.13096216882945"><ele>130.0</ele><time>2026-04-11T15:31:43Z</time></trkpt><trkpt lat="44.8016352364954" lon="8.131031276660513"><ele>130.00000000000003</ele><time>2026-04-11T15:31:46Z</time></trkpt><trkpt lat="44.80156295587959" lon="8.131095988185686"><ele>130.0</ele><time>2026-04-11T15:31:49Z</time></trkpt><trkpt lat="44.80148321346029" lon="8.131158460162581"><ele>130.16666666666669</ele><time>2026-04-11T15:31:52Z</time></trkpt><trkpt lat="44.80142451310257" lon="8.131194581624413"><ele>130.33333333333334</ele><time>2026-04-11T15:31:54Z</time></trkpt><trkpt lat="44.80134003864956" lon="8.131218551037808"><ele>130.5</ele><time>2026-04-11T15:31:57Z</time></trkpt><trkpt lat="44.801258063317334" lon="8.131236666672732"><ele>130.66666666666666</ele><time>2026-04-11T15:32:00Z</time></trkpt><trkpt lat="44.80117440742387" lon="8.131239145778911"><ele>130.83333333333331</ele><time>2026-04-11T15:32:03Z</time></trkpt><trkpt lat="44.80108438861925" lon="8.131230807901025"><ele>131.0</ele><time>2026-04-11T15:32:06Z</time></trkpt><trkpt lat="44.80101925921532" lon="8.13120613107339"><ele>130.85714285714286</ele><time>2026-04-11T15:32:08Z</time></trkpt><trkpt lat="44.80094946845542" lon="8.131188992582674"><ele>130.71428571428572</ele><time>2026-04-11T15:32:09.999Z</time></trkpt><trkpt lat="44.80087702059408" lon="8.131179280152569"><ele>130.57142857142858</ele><time>2026-04-11T15:32:11.999Z</time></trkpt><trkpt lat="44.80080510672107" lon="8.131164088514224"><ele>130.42857142857144</ele><time>2026-04-11T15:32:13.999Z</time></trkpt><trkpt lat="44.80073276676219" lon="8.131138617530128"><ele>130.28571428571428</ele><time>2026-04-11T15:32:15.999Z</time></trkpt><trkpt lat="44.800665733349426" lon="8.131123588652175"><ele>130.14285714285717</ele><time>2026-04-11T15:32:17.999Z</time></trkpt><trkpt lat="44.80059728147828" lon="8.131109006906673"><ele>130.0</ele><time>2026-04-11T15:32:19.999Z</time></trkpt><trkpt lat="44.80052721000776" lon="8.131083897614305"><ele>130.0</ele><time>2026-04-11T15:32:21.999Z</time></trkpt><trkpt lat="44.800444963877844" lon="8.13106392542229"><ele>130.0</ele><time>2026-04-11T15:32:23.999Z</time></trkpt><trkpt lat="44.80035845759873" lon="8.13103367042689"><ele>130.0</ele><time>2026-04-11T15:32:25.999Z</time></trkpt><trkpt lat="44.800271770892316" lon="8.131015678995366"><ele>130.0</ele><time>2026-04-11T15:32:27.999Z</time></trkpt><trkpt lat="44.80018416943016" lon="8.130960752761556"><ele>130.0</ele><time>2026-04-11T15:32:29.999Z</time></trkpt><trkpt lat="44.800116091443535" lon="8.1309230917874"><ele>130.0</ele><time>2026-04-11T15:32:31.999Z</time></trkpt><trkpt lat="44.80005723503674" lon="8.13087453563591"><ele>129.85714285714286</ele><time>2026-04-11T15:32:33.999Z</time></trkpt><trkpt lat="44.799999882699886" lon="8.130821032237652"><ele>129.71428571428572</ele><time>2026-04-11T15:32:35.999Z</time></trkpt><trkpt lat="44.799946200077244" lon="8.130763804593155"><ele>129.57142857142856</ele><time>2026-04-11T15:32:37.999Z</time></trkpt><trkpt lat="44.79987047264939" lon="8.13068273520728"><ele>129.42857142857144</ele><time>2026-04-11T15:32:40.999Z</time></trkpt><trkpt lat="44.79980643918332" lon="8.130634051036973"><ele>129.28571428571428</ele><time>2026-04-11T15:32:42.999Z</time></trkpt><trkpt lat="44.799741583016036" lon="8.130597004414414"><ele>129.14285714285714</ele><time>2026-04-11T15:32:44.999Z</time></trkpt><trkpt lat="44.79967492271855" lon="8.130574249886848"><ele>129.0</ele><time>2026-04-11T15:32:46.999Z</time></trkpt><trkpt lat="44.79960492309766" lon="8.130558563993066"><ele>128.99999999999997</ele><time>2026-04-11T15:32:48.999Z</time></trkpt><trkpt lat="44.79953056046064" lon="8.13055157514003"><ele>129.0</ele><time>2026-04-11T15:32:50.999Z</time></trkpt><trkpt lat="44.79945818936029" lon="8.13053613070232"><ele>129.0</ele><time>2026-04-11T15:32:52.999Z</time></trkpt><trkpt lat="44.79938751754688" lon="8.130519050085217"><ele>129.0</ele><time>2026-04-11T15:32:54.999Z</time></trkpt><trkpt lat="44.799318314102905" lon="8.130510793993082"><ele>129.0</ele><time>2026-04-11T15:32:56.999Z</time></trkpt><trkpt lat="44.7992434376056" lon="8.130497008788558"><ele>128.99999999999997</ele><time>2026-04-11T15:32:58.999Z</time></trkpt><trkpt lat="44.799167275178796" lon="8.130477391078413"><ele>129.0</ele><time>2026-04-11T15:33:00.999Z</time></trkpt><trkpt lat="44.79909009012869" lon="8.130463547452429"><ele>129.33333333333334</ele><time>2026-04-11T15:33:02.999Z</time></trkpt><trkpt lat="44.799015942503445" lon="8.130444770475023"><ele>129.66666666666666</ele><time>2026-04-11T15:33:04.999Z</time></trkpt><trkpt lat="44.79894123526286" lon="8.130430433398141"><ele>130.0</ele><time>2026-04-11T15:33:07Z</time></trkpt><trkpt lat="44.79885722787928" lon="8.13041603084834"><ele>130.33333333333331</ele><time>2026-04-11T15:33:10Z</time></trkpt><trkpt lat="44.79877418949995" lon="8.130414601501977"><ele>130.66666666666666</ele><time>2026-04-11T15:33:13Z</time></trkpt><trkpt lat="44.79869503028866" lon="8.130432801072523"><ele>131.0</ele><time>2026-04-11T15:33:16Z</time></trkpt><trkpt lat="44.79863027888138" lon="8.130474515658292"><ele>131.0</ele><time>2026-04-11T15:33:19Z</time></trkpt><trkpt lat="44.7985706604043" lon="8.13050751887292"><ele>131.0</ele><time>2026-04-11T15:33:22Z</time></trkpt><trkpt lat="44.79850158413754" lon="8.13051367715082"><ele>131.0</ele><time>2026-04-11T15:33:33Z</time></trkpt><trkpt lat="44.798432386994136" lon="8.130482332929382"><ele>131.0</ele><time>2026-04-11T15:33:37Z</time></trkpt><trkpt lat="44.798356514352875" lon="8.130446024245607"><ele>131.0</ele><time>2026-04-11T15:33:41Z</time></trkpt><trkpt lat="44.79828590742364" lon="8.130412741300171"><ele>131.0</ele><time>2026-04-11T15:33:44Z</time></trkpt><trkpt lat="44.79820686455407" lon="8.130368959355032"><ele>131.0</ele><time>2026-04-11T15:33:47Z</time></trkpt><trkpt lat="44.79812854497799" lon="8.130320281851912"><ele>131.0</ele><time>2026-04-11T15:33:50Z</time></trkpt><trkpt lat="44.798070831703065" lon="8.130283074092786"><ele>131.0</ele><time>2026-04-11T15:33:52Z</time></trkpt><trkpt lat="44.79798548752595" lon="8.130224404937842"><ele>131.0</ele><time>2026-04-11T15:33:55Z</time></trkpt><trkpt lat="44.79790236065207" lon="8.130168008119577"><ele>131.0</ele><time>2026-04-11T15:33:58Z</time></trkpt><trkpt lat="44.797820114116405" lon="8.130119404865342"><ele>131.0</ele><time>2026-04-11T15:34:01Z</time></trkpt><trkpt lat="44.79775558856872" lon="8.130105235205242"><ele>131.0</ele><time>2026-04-11T15:34:03Z</time></trkpt><trkpt lat="44.79767110411373" lon="8.13010666672641"><ele>131.14285714285714</ele><time>2026-04-11T15:34:06Z</time></trkpt><trkpt lat="44.797596364147324" lon="8.13011345678006"><ele>131.2857142857143</ele><time>2026-04-11T15:34:09Z</time></trkpt><trkpt lat="44.797527836495135" lon="8.13009842794653"><ele>131.42857142857144</ele><time>2026-04-11T15:34:11Z</time></trkpt><trkpt lat="44.79743964431115" lon="8.130037015669624"><ele>131.57142857142858</ele><time>2026-04-11T15:34:12.999Z</time></trkpt><trkpt lat="44.79742472868623" lon="8.130123885682641"><ele>131.71428571428572</ele><time>2026-04-11T15:34:21.999Z</time></trkpt><trkpt lat="44.79747081033193" lon="8.130187794431722"><ele>131.85714285714286</ele><time>2026-04-11T15:34:23.999Z</time></trkpt><trkpt lat="44.7975177524059" lon="8.13024938540435"><ele>132.0</ele><time>2026-04-11T15:34:25.999Z</time></trkpt><trkpt lat="44.79757197942638" lon="8.130297354649944"><ele>132.0</ele><time>2026-04-11T15:34:27.999Z</time></trkpt><trkpt lat="44.797623505187225" lon="8.130350550453874"><ele>132.0</ele><time>2026-04-11T15:34:29.999Z</time></trkpt><trkpt lat="44.79770259363328" lon="8.130428967455092"><ele>132.0</ele><time>2026-04-11T15:34:31.999Z</time></trkpt><trkpt lat="44.79775692881743" lon="8.13049186506537"><ele>132.0</ele><time>2026-04-11T15:34:33.999Z</time></trkpt><trkpt lat="44.797801031237476" lon="8.13056063196828"><ele>132.0</ele><time>2026-04-11T15:34:35.999Z</time></trkpt><trkpt lat="44.79783545475025" lon="8.130691591864784"><ele>132.0</ele><time>2026-04-11T15:34:38.999Z</time></trkpt><trkpt lat="44.79783290477576" lon="8.130795923219086"><ele>132.0</ele><time>2026-04-11T15:34:40.999Z</time></trkpt><trkpt lat="44.7978259542251" lon="8.130896981120245"><ele>132.0</ele><time>2026-04-11T15:34:42.999Z</time></trkpt><trkpt lat="44.79779549202997" lon="8.130975919702307"><ele>132.0</ele><time>2026-04-11T15:34:44.999Z</time></trkpt><trkpt lat="44.79778837724463" lon="8.131074852691414"><ele>132.0</ele><time>2026-04-11T15:34:46.999Z</time></trkpt><trkpt lat="44.79776425185099" lon="8.13116319480138"><ele>132.0</ele><time>2026-04-11T15:34:48.999Z</time></trkpt><trkpt lat="44.797735105961195" lon="8.131267556591544"><ele>132.0</ele><time>2026-04-11T15:34:50.999Z</time></trkpt><trkpt lat="44.79770938671256" lon="8.13134934211576"><ele>132.0</ele><time>2026-04-11T15:34:52.999Z</time></trkpt><trkpt lat="44.79766821288329" lon="8.131442812245673"><ele>132.16666666666666</ele><time>2026-04-11T15:34:55.999Z</time></trkpt><trkpt lat="44.797636052932816" lon="8.131533187892163"><ele>132.33333333333334</ele><time>2026-04-11T15:35:28Z</time></trkpt><trkpt lat="44.7975766677387" lon="8.131626621037029"><ele>132.5</ele><time>2026-04-11T15:35:32Z</time></trkpt><trkpt lat="44.797502170737395" lon="8.131688121149999"><ele>132.66666666666669</ele><time>2026-04-11T15:35:35Z</time></trkpt><trkpt lat="44.797441312191744" lon="8.131724698933994"><ele>132.83333333333334</ele><time>2026-04-11T15:35:37Z</time></trkpt><trkpt lat="44.7973815543511" lon="8.131758904442636"><ele>133.0</ele><time>2026-04-11T15:35:39Z</time></trkpt><trkpt lat="44.79729204410212" lon="8.131803850773291"><ele>133.0</ele><time>2026-04-11T15:35:42Z</time></trkpt><trkpt lat="44.797226441846135" lon="8.131843837295296"><ele>133.0</ele><time>2026-04-11T15:35:44Z</time></trkpt><trkpt lat="44.79715671746865" lon="8.131879726191176"><ele>133.0</ele><time>2026-04-11T15:35:46Z</time></trkpt><trkpt lat="44.79708894764035" lon="8.131916873086837"><ele>133.0</ele><time>2026-04-11T15:35:48Z</time></trkpt><trkpt lat="44.79701973100349" lon="8.13195716780022"><ele>133.0</ele><time>2026-04-11T15:35:50Z</time></trkpt><trkpt lat="44.79694651058201" lon="8.132000717527859"><ele>133.0</ele><time>2026-04-11T15:35:52Z</time></trkpt><trkpt lat="44.796869345198154" lon="8.132046531745418"><ele>132.83333333333334</ele><time>2026-04-11T15:35:54Z</time></trkpt><trkpt lat="44.79679174242838" lon="8.132090467308279"><ele>132.66666666666669</ele><time>2026-04-11T15:35:56Z</time></trkpt><trkpt lat="44.79671161044369" lon="8.132132853580838"><ele>132.5</ele><time>2026-04-11T15:35:58Z</time></trkpt><trkpt lat="44.79663088352122" lon="8.13218051072046"><ele>132.33333333333334</ele><time>2026-04-11T15:36:00Z</time></trkpt><trkpt lat="44.79655161441309" lon="8.132225125507066"><ele>132.16666666666666</ele><time>2026-04-11T15:36:02Z</time></trkpt><trkpt lat="44.796470582099296" lon="8.132271230418807"><ele>132.0</ele><time>2026-04-11T15:36:04Z</time></trkpt><trkpt lat="44.79639278002786" lon="8.132316719403876"><ele>132.0</ele><time>2026-04-11T15:36:06Z</time></trkpt><trkpt lat="44.79630839908231" lon="8.132365646935545"><ele>132.0</ele><time>2026-04-11T15:36:08Z</time></trkpt><trkpt lat="44.79622295558355" lon="8.132404011371591"><ele>132.0</ele><time>2026-04-11T15:36:10Z</time></trkpt><trkpt lat="44.796135369587596" lon="8.132453163554876"><ele>132.0</ele><time>2026-04-11T15:36:12Z</time></trkpt><trkpt lat="44.796052759861446" lon="8.132499176007718"><ele>132.0</ele><time>2026-04-11T15:36:14Z</time></trkpt><trkpt lat="44.79596616861704" lon="8.132548993085157"><ele>131.79999999999998</ele><time>2026-04-11T15:36:16Z</time></trkpt><trkpt lat="44.7958877515828" lon="8.13259041718359"><ele>131.6</ele><time>2026-04-11T15:36:17.999Z</time></trkpt><trkpt lat="44.79580697868383" lon="8.132631893466172"><ele>131.39999999999998</ele><time>2026-04-11T15:36:19.999Z</time></trkpt><trkpt lat="44.795720053185185" lon="8.132680314806853"><ele>131.2</ele><time>2026-04-11T15:36:21.999Z</time></trkpt><trkpt lat="44.79562794226767" lon="8.132738651655254"><ele>131.0</ele><time>2026-04-11T15:36:23.999Z</time></trkpt><trkpt lat="44.79553591829262" lon="8.132791783657895"><ele>131.0</ele><time>2026-04-11T15:36:25.999Z</time></trkpt><trkpt lat="44.79544666648755" lon="8.132837373781816"><ele>131.0</ele><time>2026-04-11T15:36:27.999Z</time></trkpt><trkpt lat="44.7953583301988" lon="8.132889765807137"><ele>131.0</ele><time>2026-04-11T15:36:29.999Z</time></trkpt><trkpt lat="44.79526936454125" lon="8.132942751315381"><ele>131.0</ele><time>2026-04-11T15:36:31.999Z</time></trkpt><trkpt lat="44.795179481996385" lon="8.132990937039649"><ele>131.0</ele><time>2026-04-11T15:36:33.999Z</time></trkpt><trkpt lat="44.7950893959341" lon="8.133040759937279"><ele>131.4</ele><time>2026-04-11T15:36:35.999Z</time></trkpt><trkpt lat="44.79499761845562" lon="8.13308901177988"><ele>131.8</ele><time>2026-04-11T15:36:37.999Z</time></trkpt><trkpt lat="44.79490667882162" lon="8.133139220089857"><ele>132.20000000000002</ele><time>2026-04-11T15:36:39.999Z</time></trkpt><trkpt lat="44.794815382490604" lon="8.1331954978633"><ele>132.6</ele><time>2026-04-11T15:36:41.999Z</time></trkpt><trkpt lat="44.794720352275036" lon="8.133247762280984"><ele>133.0</ele><time>2026-04-11T15:36:43.999Z</time></trkpt><trkpt lat="44.7946179645209" lon="8.13330354856228"><ele>133.0</ele><time>2026-04-11T15:36:45.999Z</time></trkpt><trkpt lat="44.79452323085218" lon="8.133354529211143"><ele>133.0</ele><time>2026-04-11T15:36:47.999Z</time></trkpt><trkpt lat="44.79442860237257" lon="8.133409669727834"><ele>133.0</ele><time>2026-04-11T15:36:49.999Z</time></trkpt><trkpt lat="44.79432884483411" lon="8.13346617614918"><ele>133.0</ele><time>2026-04-11T15:36:51.999Z</time></trkpt><trkpt lat="44.79422702188775" lon="8.133530747473829"><ele>133.0</ele><time>2026-04-11T15:36:53.999Z</time></trkpt><trkpt lat="44.79412940105786" lon="8.133603925818294"><ele>132.8</ele><time>2026-04-11T15:36:55.999Z</time></trkpt><trkpt lat="44.79404062356586" lon="8.133677531441846"><ele>132.60000000000002</ele><time>2026-04-11T15:36:57.999Z</time></trkpt><trkpt lat="44.79395180961242" lon="8.13375081718642"><ele>132.39999999999998</ele><time>2026-04-11T15:36:59.999Z</time></trkpt><trkpt lat="44.79386406105819" lon="8.133824853259815"><ele>132.2</ele><time>2026-04-11T15:37:01.999Z</time></trkpt><trkpt lat="44.79376995398107" lon="8.133900878776684"><ele>132.0</ele><time>2026-04-11T15:37:03.999Z</time></trkpt><trkpt lat="44.79368117438083" lon="8.133975489555313"><ele>132.0</ele><time>2026-04-11T15:37:05.999Z</time></trkpt><trkpt lat="44.7935962443282" lon="8.134047638464471"><ele>132.0</ele><time>2026-04-11T15:37:07.999Z</time></trkpt><trkpt lat="44.79350988227116" lon="8.13411968775593"><ele>132.0</ele><time>2026-04-11T15:37:09.999Z</time></trkpt><trkpt lat="44.79342447615942" lon="8.13419525297081"><ele>132.0</ele><time>2026-04-11T15:37:11.999Z</time></trkpt><trkpt lat="44.793335327518705" lon="8.134269939634871"><ele>132.0</ele><time>2026-04-11T15:37:13.999Z</time></trkpt><trkpt lat="44.793240169566026" lon="8.134348379440567"><ele>132.4</ele><time>2026-04-11T15:37:15.999Z</time></trkpt><trkpt lat="44.793150741639955" lon="8.134421827331128"><ele>132.79999999999998</ele><time>2026-04-11T15:37:17.999Z</time></trkpt><trkpt lat="44.79305752231967" lon="8.134497615700429"><ele>133.2</ele><time>2026-04-11T15:37:20Z</time></trkpt><trkpt lat="44.79296494368937" lon="8.134572503590757"><ele>133.6</ele><time>2026-04-11T15:37:22Z</time></trkpt><trkpt lat="44.79288016356524" lon="8.134646402019126"><ele>134.0</ele><time>2026-04-11T15:37:24Z</time></trkpt><trkpt lat="44.79279375858523" lon="8.13471586214414"><ele>134.0</ele><time>2026-04-11T15:37:26Z</time></trkpt><trkpt lat="44.792709662984336" lon="8.134784490545199"><ele>134.0</ele><time>2026-04-11T15:37:28Z</time></trkpt><trkpt lat="44.792622772957216" lon="8.134859836896256"><ele>134.0</ele><time>2026-04-11T15:37:30Z</time></trkpt><trkpt lat="44.792537313012524" lon="8.134924647934158"><ele>134.0</ele><time>2026-04-11T15:37:32Z</time></trkpt><trkpt lat="44.79245682157879" lon="8.134995725858746"><ele>134.0</ele><time>2026-04-11T15:37:34Z</time></trkpt><trkpt lat="44.7923724246096" lon="8.135067382615818"><ele>133.6</ele><time>2026-04-11T15:37:36Z</time></trkpt><trkpt lat="44.79228684631718" lon="8.135139110533322"><ele>133.2</ele><time>2026-04-11T15:37:38Z</time></trkpt><trkpt lat="44.79219880823655" lon="8.13521143041962"><ele>132.79999999999998</ele><time>2026-04-11T15:37:40Z</time></trkpt><trkpt lat="44.792108292880705" lon="8.135286458073015"><ele>132.4</ele><time>2026-04-11T15:37:42Z</time></trkpt><trkpt lat="44.79202879949052" lon="8.135353324318213"><ele>132.0</ele><time>2026-04-11T15:37:44Z</time></trkpt><trkpt lat="44.791949702090974" lon="8.135420298549269"><ele>132.0</ele><time>2026-04-11T15:37:46Z</time></trkpt><trkpt lat="44.79186108728516" lon="8.135496334138969"><ele>132.0</ele><time>2026-04-11T15:37:48Z</time></trkpt><trkpt lat="44.79176993868" lon="8.135569286308336"><ele>132.0</ele><time>2026-04-11T15:37:50Z</time></trkpt><trkpt lat="44.7916760461455" lon="8.13564478078844"><ele>132.0</ele><time>2026-04-11T15:37:52Z</time></trkpt><trkpt lat="44.791587818321254" lon="8.13571310398946"><ele>132.0</ele><time>2026-04-11T15:37:54Z</time></trkpt><trkpt lat="44.791500501631674" lon="8.135793853333974"><ele>132.2</ele><time>2026-04-11T15:37:56Z</time></trkpt><trkpt lat="44.791418600825196" lon="8.135859208417973"><ele>132.39999999999998</ele><time>2026-04-11T15:37:58Z</time></trkpt><trkpt lat="44.79133814209879" lon="8.135927221009142"><ele>132.60000000000002</ele><time>2026-04-11T15:38:00Z</time></trkpt><trkpt lat="44.791260366544215" lon="8.135992306877963"><ele>132.8</ele><time>2026-04-11T15:38:02Z</time></trkpt><trkpt lat="44.79117355440494" lon="8.136065123756506"><ele>133.0</ele><time>2026-04-11T15:38:04Z</time></trkpt><trkpt lat="44.791080430240214" lon="8.136143058192028"><ele>133.4</ele><time>2026-04-11T15:38:06Z</time></trkpt><trkpt lat="44.79098928553236" lon="8.13621997313374"><ele>133.8</ele><time>2026-04-11T15:38:08Z</time></trkpt><trkpt lat="44.790896352019196" lon="8.136292193801584"><ele>134.2</ele><time>2026-04-11T15:38:10Z</time></trkpt><trkpt lat="44.79080618897594" lon="8.13636345371684"><ele>134.6</ele><time>2026-04-11T15:38:12Z</time></trkpt><trkpt lat="44.79070993481377" lon="8.136443385404402"><ele>135.0</ele><time>2026-04-11T15:38:14Z</time></trkpt><trkpt lat="44.790619636155846" lon="8.136515816788975"><ele>135.2</ele><time>2026-04-11T15:38:16Z</time></trkpt><trkpt lat="44.79052701163845" lon="8.13659369932689"><ele>135.4</ele><time>2026-04-11T15:38:18Z</time></trkpt><trkpt lat="44.79043480218624" lon="8.13666609986407"><ele>135.6</ele><time>2026-04-11T15:38:20Z</time></trkpt><trkpt lat="44.79034835481026" lon="8.136740248342186"><ele>135.8</ele><time>2026-04-11T15:38:22Z</time></trkpt><trkpt lat="44.790266152079376" lon="8.136810670421767"><ele>136.0</ele><time>2026-04-11T15:38:23.999Z</time></trkpt><trkpt lat="44.79018085584405" lon="8.136884403596572"><ele>136.0</ele><time>2026-04-11T15:38:25.999Z</time></trkpt><trkpt lat="44.79009395184584" lon="8.136955202728142"><ele>136.0</ele><time>2026-04-11T15:38:27.999Z</time></trkpt><trkpt lat="44.79000541876301" lon="8.137021908926243"><ele>136.0</ele><time>2026-04-11T15:38:29.999Z</time></trkpt><trkpt lat="44.78992193656258" lon="8.13709036686331"><ele>136.0</ele><time>2026-04-11T15:38:31.999Z</time></trkpt><trkpt lat="44.78984573368834" lon="8.137158792686492"><ele>136.0</ele><time>2026-04-11T15:38:33.999Z</time></trkpt><trkpt lat="44.789774642992946" lon="8.137227195448121"><ele>136.0</ele><time>2026-04-11T15:38:35.999Z</time></trkpt><trkpt lat="44.78968161265409" lon="8.137304806325051"><ele>136.0</ele><time>2026-04-11T15:38:37.999Z</time></trkpt><trkpt lat="44.78962400663276" lon="8.13734930998564"><ele>136.0</ele><time>2026-04-11T15:38:38.999Z</time></trkpt><trkpt lat="44.789535306917" lon="8.137427338871456"><ele>136.0</ele><time>2026-04-11T15:38:40.999Z</time></trkpt><trkpt lat="44.78944275264495" lon="8.137505238913727"><ele>136.0</ele><time>2026-04-11T15:38:42.999Z</time></trkpt><trkpt lat="44.78934972713143" lon="8.13758129073358"><ele>136.0</ele><time>2026-04-11T15:38:44.999Z</time></trkpt><trkpt lat="44.78925220796074" lon="8.137661095002054"><ele>136.0</ele><time>2026-04-11T15:38:46.999Z</time></trkpt><trkpt lat="44.789155752753146" lon="8.137737294562987"><ele>136.0</ele><time>2026-04-11T15:38:48.999Z</time></trkpt><trkpt lat="44.789056804985314" lon="8.13781566029422"><ele>136.0</ele><time>2026-04-11T15:38:50.999Z</time></trkpt><trkpt lat="44.78896729128428" lon="8.137887890873198"><ele>136.0</ele><time>2026-04-11T15:38:52.999Z</time></trkpt><trkpt lat="44.78887943010466" lon="8.137971254893115"><ele>136.0</ele><time>2026-04-11T15:38:54.999Z</time></trkpt><trkpt lat="44.788785497151665" lon="8.138039103333503"><ele>136.0</ele><time>2026-04-11T15:38:56.999Z</time></trkpt><trkpt lat="44.78869439181135" lon="8.13811319966154"><ele>136.0</ele><time>2026-04-11T15:38:58.999Z</time></trkpt><trkpt lat="44.788597844185674" lon="8.138192531088213"><ele>136.0</ele><time>2026-04-11T15:39:00.999Z</time></trkpt><trkpt lat="44.78851014464122" lon="8.138264578615955"><ele>136.0</ele><time>2026-04-11T15:39:02.999Z</time></trkpt><trkpt lat="44.78841752102733" lon="8.13833709850255"><ele>136.2</ele><time>2026-04-11T15:39:04.999Z</time></trkpt><trkpt lat="44.788324195759145" lon="8.138408386365091"><ele>136.39999999999998</ele><time>2026-04-11T15:39:06.999Z</time></trkpt><trkpt lat="44.788233213591646" lon="8.138472982363643"><ele>136.6</ele><time>2026-04-11T15:39:08.999Z</time></trkpt><trkpt lat="44.788132749975034" lon="8.138543734004358"><ele>136.79999999999998</ele><time>2026-04-11T15:39:10.999Z</time></trkpt><trkpt lat="44.78804001553565" lon="8.138611218840673"><ele>137.0</ele><time>2026-04-11T15:39:12.999Z</time></trkpt><trkpt lat="44.78794390699133" lon="8.138672418593124"><ele>137.0</ele><time>2026-04-11T15:39:14.999Z</time></trkpt><trkpt lat="44.78784728793202" lon="8.138740214509761"><ele>137.0</ele><time>2026-04-11T15:39:16.999Z</time></trkpt><trkpt lat="44.78774889909939" lon="8.13881827868845"><ele>137.0</ele><time>2026-04-11T15:39:18.999Z</time></trkpt><trkpt lat="44.78764936405022" lon="8.138882937261855"><ele>137.0</ele><time>2026-04-11T15:39:20.999Z</time></trkpt><trkpt lat="44.787553600015265" lon="8.138956388479349"><ele>137.0</ele><time>2026-04-11T15:39:22.999Z</time></trkpt><trkpt lat="44.78745525484884" lon="8.139024182749965"><ele>137.0</ele><time>2026-04-11T15:39:25Z</time></trkpt><trkpt lat="44.787356890475664" lon="8.139092391524214"><ele>137.0</ele><time>2026-04-11T15:39:27Z</time></trkpt><trkpt lat="44.78725802646344" lon="8.13916479443026"><ele>137.0</ele><time>2026-04-11T15:39:29Z</time></trkpt><trkpt lat="44.78715695861491" lon="8.139233184718512"><ele>137.0</ele><time>2026-04-11T15:39:31Z</time></trkpt><trkpt lat="44.787062243434804" lon="8.139295211795243"><ele>137.0</ele><time>2026-04-11T15:39:33Z</time></trkpt><trkpt lat="44.7869648657064" lon="8.13935205068398"><ele>137.0</ele><time>2026-04-11T15:39:35Z</time></trkpt><trkpt lat="44.786867748826296" lon="8.139407755370842"><ele>137.0</ele><time>2026-04-11T15:39:37Z</time></trkpt><trkpt lat="44.786765080672986" lon="8.139456462654822"><ele>137.0</ele><time>2026-04-11T15:39:39Z</time></trkpt><trkpt lat="44.786665178392" lon="8.139499421342414"><ele>137.0</ele><time>2026-04-11T15:39:41Z</time></trkpt><trkpt lat="44.786564857597874" lon="8.13954489116856"><ele>137.0</ele><time>2026-04-11T15:39:43Z</time></trkpt><trkpt lat="44.78646187471016" lon="8.139580783818515"><ele>136.79999999999998</ele><time>2026-04-11T15:39:45Z</time></trkpt><trkpt lat="44.78636149644582" lon="8.13961275597425"><ele>136.6</ele><time>2026-04-11T15:39:47Z</time></trkpt><trkpt lat="44.78626714225124" lon="8.13963755484775"><ele>136.39999999999998</ele><time>2026-04-11T15:39:49Z</time></trkpt><trkpt lat="44.78616515634622" lon="8.139666086652577"><ele>136.2</ele><time>2026-04-11T15:39:51Z</time></trkpt><trkpt lat="44.78606381084734" lon="8.139688245307857"><ele>136.0</ele><time>2026-04-11T15:39:53Z</time></trkpt><trkpt lat="44.78595741117184" lon="8.139702863044874"><ele>136.0</ele><time>2026-04-11T15:39:55Z</time></trkpt><trkpt lat="44.785860418509195" lon="8.139716232774692"><ele>136.0</ele><time>2026-04-11T15:39:57Z</time></trkpt><trkpt lat="44.785768825064075" lon="8.139721988491992"><ele>136.0</ele><time>2026-04-11T15:39:59Z</time></trkpt><trkpt lat="44.78568635133162" lon="8.139730896897904"><ele>136.0</ele><time>2026-04-11T15:40:01Z</time></trkpt><trkpt lat="44.78561349548663" lon="8.139727981286125"><ele>136.0</ele><time>2026-04-11T15:40:03Z</time></trkpt><trkpt lat="44.78554812879892" lon="8.13970789977568"><ele>136.0</ele><time>2026-04-11T15:40:06Z</time></trkpt><trkpt lat="44.785470870346515" lon="8.139718285118253"><ele>135.99999999999997</ele><time>2026-04-11T15:40:10Z</time></trkpt><trkpt lat="44.785400339623244" lon="8.139719857895098"><ele>136.0</ele><time>2026-04-11T15:40:14Z</time></trkpt><trkpt lat="44.785332143651814" lon="8.139716374548795"><ele>136.0</ele><time>2026-04-11T15:40:17Z</time></trkpt><trkpt lat="44.78525463719022" lon="8.139707164508204"><ele>136.0</ele><time>2026-04-11T15:40:20Z</time></trkpt><trkpt lat="44.78516516658717" lon="8.139693060597242"><ele>136.0</ele><time>2026-04-11T15:40:23Z</time></trkpt><trkpt lat="44.785101911340455" lon="8.139674440879013"><ele>135.99999999999997</ele><time>2026-04-11T15:40:25Z</time></trkpt><trkpt lat="44.78503073700827" lon="8.139662933358867"><ele>136.0</ele><time>2026-04-11T15:40:26.999Z</time></trkpt><trkpt lat="44.784957005444305" lon="8.139642140716635"><ele>136.0</ele><time>2026-04-11T15:40:28.999Z</time></trkpt><trkpt lat="44.78488275958149" lon="8.139621663557017"><ele>136.0</ele><time>2026-04-11T15:40:30.999Z</time></trkpt><trkpt lat="44.78480697489851" lon="8.139604316752168"><ele>136.0</ele><time>2026-04-11T15:40:32.999Z</time></trkpt><trkpt lat="44.78472980483258" lon="8.139583625970547"><ele>136.0</ele><time>2026-04-11T15:40:34.999Z</time></trkpt><trkpt lat="44.78465066033147" lon="8.139553250513696"><ele>136.0</ele><time>2026-04-11T15:40:36.999Z</time></trkpt><trkpt lat="44.784561648620134" lon="8.13952387513206"><ele>136.0</ele><time>2026-04-11T15:40:38.999Z</time></trkpt><trkpt lat="44.78448721967716" lon="8.13949443683155"><ele>136.0</ele><time>2026-04-11T15:40:40.999Z</time></trkpt><trkpt lat="44.784409559849884" lon="8.139456920851977"><ele>136.0</ele><time>2026-04-11T15:40:42.999Z</time></trkpt><trkpt lat="44.78434781014225" lon="8.139413062792899"><ele>136.0</ele><time>2026-04-11T15:40:44.999Z</time></trkpt><trkpt lat="44.78428291553535" lon="8.139366075225544"><ele>136.0</ele><time>2026-04-11T15:40:46.999Z</time></trkpt><trkpt lat="44.78419990095152" lon="8.139319712300502"><ele>136.0</ele><time>2026-04-11T15:40:48.999Z</time></trkpt><trkpt lat="44.784109816271496" lon="8.139275215793798"><ele>136.0</ele><time>2026-04-11T15:40:50.999Z</time></trkpt><trkpt lat="44.78401867336896" lon="8.139215142623431"><ele>136.0</ele><time>2026-04-11T15:40:52.999Z</time></trkpt><trkpt lat="44.78391727608937" lon="8.13915985467469"><ele>136.0</ele><time>2026-04-11T15:40:54.999Z</time></trkpt><trkpt lat="44.78382151462494" lon="8.139105673532635"><ele>136.0</ele><time>2026-04-11T15:40:56.999Z</time></trkpt><trkpt lat="44.783738323642915" lon="8.139052475070358"><ele>136.0</ele><time>2026-04-11T15:40:58.999Z</time></trkpt><trkpt lat="44.783652429419426" lon="8.138996682704597"><ele>136.0</ele><time>2026-04-11T15:41:00.999Z</time></trkpt><trkpt lat="44.78357470596394" lon="8.138941303010785"><ele>136.4</ele><time>2026-04-11T15:41:02.999Z</time></trkpt><trkpt lat="44.7834900635799" lon="8.13888655087862"><ele>136.8</ele><time>2026-04-11T15:41:04.999Z</time></trkpt><trkpt lat="44.78340383548985" lon="8.13881951635082"><ele>137.20000000000002</ele><time>2026-04-11T15:41:06.999Z</time></trkpt><trkpt lat="44.78331798856431" lon="8.138766736847444"><ele>137.6</ele><time>2026-04-11T15:41:08.999Z</time></trkpt><trkpt lat="44.78324484465707" lon="8.138708226273062"><ele>138.0</ele><time>2026-04-11T15:41:10.999Z</time></trkpt><trkpt lat="44.7831638704975" lon="8.138653312090005"><ele>138.0</ele><time>2026-04-11T15:41:12.999Z</time></trkpt><trkpt lat="44.783088057038704" lon="8.138601342161936"><ele>138.0</ele><time>2026-04-11T15:41:14.999Z</time></trkpt><trkpt lat="44.78300306215763" lon="8.138550240388733"><ele>138.0</ele><time>2026-04-11T15:41:16.999Z</time></trkpt><trkpt lat="44.78293145390462" lon="8.138514617391772"><ele>138.0</ele><time>2026-04-11T15:41:18.999Z</time></trkpt><trkpt lat="44.78284947786209" lon="8.138456859305135"><ele>138.0</ele><time>2026-04-11T15:41:20.999Z</time></trkpt><trkpt lat="44.782775312329576" lon="8.13840841268366"><ele>138.0</ele><time>2026-04-11T15:41:22.999Z</time></trkpt><trkpt lat="44.78270528087136" lon="8.13835841680583"><ele>138.0</ele><time>2026-04-11T15:41:24.999Z</time></trkpt><trkpt lat="44.782632846694426" lon="8.138308743212955"><ele>138.0</ele><time>2026-04-11T15:41:26.999Z</time></trkpt><trkpt lat="44.7825521919658" lon="8.138256977417626"><ele>138.0</ele><time>2026-04-11T15:41:28.999Z</time></trkpt><trkpt lat="44.78248071067846" lon="8.13820511136941"><ele>138.0</ele><time>2026-04-11T15:41:31Z</time></trkpt><trkpt lat="44.78240411708717" lon="8.138157507451224"><ele>138.0</ele><time>2026-04-11T15:41:33Z</time></trkpt><trkpt lat="44.78233276387434" lon="8.138108952320263"><ele>138.0</ele><time>2026-04-11T15:41:35Z</time></trkpt><trkpt lat="44.782254516188246" lon="8.138051542788839"><ele>137.8</ele><time>2026-04-11T15:41:37Z</time></trkpt><trkpt lat="44.78216986004696" lon="8.137998280725844"><ele>137.60000000000002</ele><time>2026-04-11T15:41:39Z</time></trkpt><trkpt lat="44.782087234778714" lon="8.137942095095651"><ele>137.39999999999998</ele><time>2026-04-11T15:41:41Z</time></trkpt><trkpt lat="44.78199254944553" lon="8.13788213821543"><ele>137.2</ele><time>2026-04-11T15:41:43Z</time></trkpt><trkpt lat="44.781903096952476" lon="8.13781866014779"><ele>137.0</ele><time>2026-04-11T15:41:45Z</time></trkpt><trkpt lat="44.781808729017584" lon="8.137754027378273"><ele>137.0</ele><time>2026-04-11T15:41:47Z</time></trkpt><trkpt lat="44.78172065640875" lon="8.137696504971087"><ele>137.0</ele><time>2026-04-11T15:41:49Z</time></trkpt><trkpt lat="44.78163575259463" lon="8.137633111204682"><ele>137.0</ele><time>2026-04-11T15:41:51Z</time></trkpt><trkpt lat="44.78154931072254" lon="8.137566453571843"><ele>137.0</ele><time>2026-04-11T15:41:53Z</time></trkpt><trkpt lat="44.78147440426955" lon="8.137507029545581"><ele>137.0</ele><time>2026-04-11T15:41:55Z</time></trkpt><trkpt lat="44.781394707162235" lon="8.137471949799234"><ele>137.0</ele><time>2026-04-11T15:41:57Z</time></trkpt><trkpt lat="44.78132230245931" lon="8.137415820358548"><ele>137.0</ele><time>2026-04-11T15:41:59Z</time></trkpt><trkpt lat="44.78124354658093" lon="8.137342054378147"><ele>137.0</ele><time>2026-04-11T15:42:01Z</time></trkpt><trkpt lat="44.78116542901731" lon="8.137261297647788"><ele>137.0</ele><time>2026-04-11T15:42:03Z</time></trkpt><trkpt lat="44.78110179776858" lon="8.137156477635468"><ele>137.0</ele><time>2026-04-11T15:42:05Z</time></trkpt><trkpt lat="44.78105432901556" lon="8.137036698047892"><ele>136.6</ele><time>2026-04-11T15:42:07Z</time></trkpt><trkpt lat="44.78102989094412" lon="8.136903674889417"><ele>136.2</ele><time>2026-04-11T15:42:09Z</time></trkpt><trkpt lat="44.781009343371345" lon="8.136774260775846"><ele>135.8</ele><time>2026-04-11T15:42:11Z</time></trkpt><trkpt lat="44.78099443189015" lon="8.136632556668633"><ele>135.4</ele><time>2026-04-11T15:42:13Z</time></trkpt><trkpt lat="44.78097702651317" lon="8.136484071401686"><ele>135.0</ele><time>2026-04-11T15:42:15Z</time></trkpt><trkpt lat="44.78095734878326" lon="8.13634341741959"><ele>136.0</ele><time>2026-04-11T15:42:17Z</time></trkpt><trkpt lat="44.78094260302552" lon="8.136201036881555"><ele>137.0</ele><time>2026-04-11T15:42:19Z</time></trkpt><trkpt lat="44.78092458816643" lon="8.136059301775306"><ele>138.0</ele><time>2026-04-11T15:42:21Z</time></trkpt><trkpt lat="44.78090855502504" lon="8.135917445449216"><ele>139.0</ele><time>2026-04-11T15:42:23Z</time></trkpt><trkpt lat="44.78089163764782" lon="8.135767945091917"><ele>140.0</ele><time>2026-04-11T15:42:25Z</time></trkpt><trkpt lat="44.78087752309106" lon="8.135625837026353"><ele>140.0</ele><time>2026-04-11T15:42:27Z</time></trkpt><trkpt lat="44.78085851285759" lon="8.135481315749018"><ele>140.0</ele><time>2026-04-11T15:42:29Z</time></trkpt><trkpt lat="44.78084035265675" lon="8.13533090248414"><ele>140.0</ele><time>2026-04-11T15:42:31Z</time></trkpt><trkpt lat="44.78082971268973" lon="8.135191334415078"><ele>140.0</ele><time>2026-04-11T15:42:32.999Z</time></trkpt><trkpt lat="44.78081206383683" lon="8.135060645887586"><ele>140.0</ele><time>2026-04-11T15:42:34.999Z</time></trkpt><trkpt lat="44.78079285057047" lon="8.13491888415103"><ele>139.8</ele><time>2026-04-11T15:42:36.999Z</time></trkpt><trkpt lat="44.780772798521106" lon="8.13478058089721"><ele>139.6</ele><time>2026-04-11T15:42:38.999Z</time></trkpt><trkpt lat="44.780752952637016" lon="8.134630755979822"><ele>139.4</ele><time>2026-04-11T15:42:40.999Z</time></trkpt><trkpt lat="44.78073819793248" lon="8.134493179252575"><ele>139.2</ele><time>2026-04-11T15:42:42.999Z</time></trkpt><trkpt lat="44.78071640426624" lon="8.134348999005631"><ele>139.0</ele><time>2026-04-11T15:42:44.999Z</time></trkpt><trkpt lat="44.780697404588075" lon="8.13420630015002"><ele>139.0</ele><time>2026-04-11T15:42:46.999Z</time></trkpt><trkpt lat="44.7806773820613" lon="8.13407031377219"><ele>139.0</ele><time>2026-04-11T15:42:48.999Z</time></trkpt><trkpt lat="44.78065622540306" lon="8.13393467215166"><ele>139.0</ele><time>2026-04-11T15:42:50.999Z</time></trkpt><trkpt lat="44.78064015980726" lon="8.133791379083265"><ele>139.0</ele><time>2026-04-11T15:42:52.999Z</time></trkpt><trkpt lat="44.78062012083374" lon="8.133649621796403"><ele>139.0</ele><time>2026-04-11T15:42:54.999Z</time></trkpt><trkpt lat="44.780602522379155" lon="8.133504431413824"><ele>138.6</ele><time>2026-04-11T15:42:56.999Z</time></trkpt><trkpt lat="44.78058555243601" lon="8.133368202274342"><ele>138.2</ele><time>2026-04-11T15:42:58.999Z</time></trkpt><trkpt lat="44.78056729337979" lon="8.133224321155701"><ele>137.79999999999998</ele><time>2026-04-11T15:43:00.999Z</time></trkpt><trkpt lat="44.780551039921974" lon="8.133087933148706"><ele>137.4</ele><time>2026-04-11T15:43:02.999Z</time></trkpt><trkpt lat="44.78053010441888" lon="8.132949111866902"><ele>137.0</ele><time>2026-04-11T15:43:04.999Z</time></trkpt><trkpt lat="44.78051643749066" lon="8.132810797694288"><ele>136.79999999999998</ele><time>2026-04-11T15:43:06.999Z</time></trkpt><trkpt lat="44.78049923033102" lon="8.132673618399261"><ele>136.6</ele><time>2026-04-11T15:43:08.999Z</time></trkpt><trkpt lat="44.78048011507426" lon="8.132531615303586"><ele>136.39999999999998</ele><time>2026-04-11T15:43:10.999Z</time></trkpt><trkpt lat="44.7804631372756" lon="8.13239011767594"><ele>136.2</ele><time>2026-04-11T15:43:12.999Z</time></trkpt><trkpt lat="44.78043915306113" lon="8.132231779525885"><ele>136.0</ele><time>2026-04-11T15:43:14.999Z</time></trkpt><trkpt lat="44.780423342163274" lon="8.132081432461225"><ele>136.0</ele><time>2026-04-11T15:43:16.999Z</time></trkpt><trkpt lat="44.78040465095823" lon="8.131934896468893"><ele>136.0</ele><time>2026-04-11T15:43:18.999Z</time></trkpt><trkpt lat="44.78038230958226" lon="8.131793998484994"><ele>136.0</ele><time>2026-04-11T15:43:20.999Z</time></trkpt><trkpt lat="44.78036726674001" lon="8.131657968062461"><ele>136.0</ele><time>2026-04-11T15:43:22.999Z</time></trkpt><trkpt lat="44.78035215904034" lon="8.131528185942818"><ele>136.0</ele><time>2026-04-11T15:43:24.999Z</time></trkpt><trkpt lat="44.78034341537969" lon="8.131398802612827"><ele>136.0</ele><time>2026-04-11T15:43:26.999Z</time></trkpt><trkpt lat="44.78034154968492" lon="8.131264172209745"><ele>136.0</ele><time>2026-04-11T15:43:28.999Z</time></trkpt><trkpt lat="44.78034530363326" lon="8.131110212219413"><ele>136.0</ele><time>2026-04-11T15:43:30.999Z</time></trkpt><trkpt lat="44.780355242112755" lon="8.130976172610733"><ele>136.0</ele><time>2026-04-11T15:43:32.999Z</time></trkpt><trkpt lat="44.78036155604859" lon="8.130846320025253"><ele>136.0</ele><time>2026-04-11T15:43:34.999Z</time></trkpt><trkpt lat="44.78037245506571" lon="8.130719747088923"><ele>135.99999999999997</ele><time>2026-04-11T15:43:37Z</time></trkpt><trkpt lat="44.78038526038614" lon="8.13060594657126"><ele>136.0</ele><time>2026-04-11T15:43:39Z</time></trkpt><trkpt lat="44.7803968530877" lon="8.130501399073205"><ele>136.0</ele><time>2026-04-11T15:43:41Z</time></trkpt><trkpt lat="44.78041016760916" lon="8.130405468786686"><ele>136.0</ele><time>2026-04-11T15:43:45Z</time></trkpt><trkpt lat="44.780444939162656" lon="8.13032910433944"><ele>136.0</ele><time>2026-04-11T15:43:48Z</time></trkpt><trkpt lat="44.78051024463735" lon="8.130263104174352"><ele>135.99999999999997</ele><time>2026-04-11T15:43:51Z</time></trkpt><trkpt lat="44.780559984589104" lon="8.130187036773634"><ele>136.0</ele><time>2026-04-11T15:43:53Z</time></trkpt><trkpt lat="44.780620923629115" lon="8.130086067771805"><ele>136.0</ele><time>2026-04-11T15:43:55Z</time></trkpt><trkpt lat="44.78067626559098" lon="8.129983699406525"><ele>136.0</ele><time>2026-04-11T15:43:57Z</time></trkpt><trkpt lat="44.7807002181244" lon="8.129874526403508"><ele>136.0</ele><time>2026-04-11T15:43:59Z</time></trkpt><trkpt lat="44.7806791414159" lon="8.129755577892414"><ele>136.0</ele><time>2026-04-11T15:44:01Z</time></trkpt><trkpt lat="44.780630047841676" lon="8.129644684467777"><ele>136.0</ele><time>2026-04-11T15:44:03Z</time></trkpt><trkpt lat="44.780577593977135" lon="8.129551343747885"><ele>136.0</ele><time>2026-04-11T15:44:05Z</time></trkpt><trkpt lat="44.78052098532821" lon="8.129470406533223"><ele>136.5</ele><time>2026-04-11T15:44:07Z</time></trkpt><trkpt lat="44.78045751808312" lon="8.129405875128358"><ele>137.0</ele><time>2026-04-11T15:44:09Z</time></trkpt><trkpt lat="44.78039735702173" lon="8.12932058699275"><ele>137.5</ele><time>2026-04-11T15:44:11Z</time></trkpt><trkpt lat="44.780338867918324" lon="8.129247809714604"><ele>138.0</ele><time>2026-04-11T15:44:13Z</time></trkpt><trkpt lat="44.78026353689331" lon="8.129183114989434"><ele>138.5</ele><time>2026-04-11T15:44:15Z</time></trkpt><trkpt lat="44.78019210399416" lon="8.129133919816116"><ele>139.0</ele><time>2026-04-11T15:44:17Z</time></trkpt><trkpt lat="44.78012022441834" lon="8.129082056220597"><ele>139.16666666666669</ele><time>2026-04-11T15:44:19Z</time></trkpt><trkpt lat="44.78003446358799" lon="8.129049869121303"><ele>139.33333333333334</ele><time>2026-04-11T15:44:21Z</time></trkpt><trkpt lat="44.77995685971275" lon="8.1290204596631"><ele>139.5</ele><time>2026-04-11T15:44:23Z</time></trkpt><trkpt lat="44.77987858176564" lon="8.128997412070614"><ele>139.66666666666666</ele><time>2026-04-11T15:44:25Z</time></trkpt><trkpt lat="44.77979485115144" lon="8.128965235814224"><ele>139.83333333333331</ele><time>2026-04-11T15:44:27Z</time></trkpt><trkpt lat="44.77971001070816" lon="8.128915813487575"><ele>140.0</ele><time>2026-04-11T15:44:29Z</time></trkpt><trkpt lat="44.77962637924285" lon="8.128872194425256"><ele>140.0</ele><time>2026-04-11T15:44:31Z</time></trkpt><trkpt lat="44.77954406156706" lon="8.128817570284314"><ele>140.0</ele><time>2026-04-11T15:44:33Z</time></trkpt><trkpt lat="44.7794622416283" lon="8.128772403993676"><ele>140.0</ele><time>2026-04-11T15:44:35Z</time></trkpt><trkpt lat="44.77937091355323" lon="8.128723108104793"><ele>140.0</ele><time>2026-04-11T15:44:37Z</time></trkpt><trkpt lat="44.779283571220795" lon="8.128683258429389"><ele>140.0</ele><time>2026-04-11T15:44:39Z</time></trkpt><trkpt lat="44.779201092885835" lon="8.128632324401966"><ele>139.6</ele><time>2026-04-11T15:44:40.999Z</time></trkpt><trkpt lat="44.77911377768919" lon="8.128583892048148"><ele>139.2</ele><time>2026-04-11T15:44:42.999Z</time></trkpt><trkpt lat="44.77901471511907" lon="8.128518536546679"><ele>138.8</ele><time>2026-04-11T15:44:44.999Z</time></trkpt><trkpt lat="44.7789277551761" lon="8.128451628986364"><ele>138.4</ele><time>2026-04-11T15:44:46.999Z</time></trkpt><trkpt lat="44.7788334391429" lon="8.128395357991883"><ele>138.0</ele><time>2026-04-11T15:44:48.999Z</time></trkpt><trkpt lat="44.77873343884159" lon="8.128341737283302"><ele>138.0</ele><time>2026-04-11T15:44:50.999Z</time></trkpt><trkpt lat="44.77863355541103" lon="8.128291047396205"><ele>138.0</ele><time>2026-04-11T15:44:52.999Z</time></trkpt><trkpt lat="44.77853526253817" lon="8.128259164628151"><ele>138.0</ele><time>2026-04-11T15:44:54.999Z</time></trkpt><trkpt lat="44.778429280404936" lon="8.128236077041684"><ele>138.0</ele><time>2026-04-11T15:44:56.999Z</time></trkpt><trkpt lat="44.77832868878505" lon="8.128216605779883"><ele>138.0</ele><time>2026-04-11T15:44:58.999Z</time></trkpt><trkpt lat="44.778220923671164" lon="8.128197643687631"><ele>138.20000000000002</ele><time>2026-04-11T15:45:00.999Z</time></trkpt><trkpt lat="44.778123043818965" lon="8.12816335986383"><ele>138.4</ele><time>2026-04-11T15:45:02.999Z</time></trkpt><trkpt lat="44.77801885383301" lon="8.12812912367156"><ele>138.60000000000002</ele><time>2026-04-11T15:45:04.999Z</time></trkpt><trkpt lat="44.777916832252515" lon="8.128103739382414"><ele>138.8</ele><time>2026-04-11T15:45:06.999Z</time></trkpt><trkpt lat="44.77781143042057" lon="8.128076759106424"><ele>139.0</ele><time>2026-04-11T15:45:08.999Z</time></trkpt><trkpt lat="44.777701282958795" lon="8.128052976976239"><ele>138.8</ele><time>2026-04-11T15:45:10.999Z</time></trkpt><trkpt lat="44.777594560038104" lon="8.128058684012371"><ele>138.60000000000002</ele><time>2026-04-11T15:45:12.999Z</time></trkpt><trkpt lat="44.777488155758476" lon="8.128064833591129"><ele>138.4</ele><time>2026-04-11T15:45:14.999Z</time></trkpt><trkpt lat="44.77737705874359" lon="8.128084490612366"><ele>138.20000000000002</ele><time>2026-04-11T15:45:16.999Z</time></trkpt><trkpt lat="44.77726629971417" lon="8.128107528221843"><ele>138.0</ele><time>2026-04-11T15:45:18.999Z</time></trkpt><trkpt lat="44.777152673323954" lon="8.128129469917068"><ele>138.0</ele><time>2026-04-11T15:45:20.999Z</time></trkpt><trkpt lat="44.777042869090934" lon="8.128148749948378"><ele>138.0</ele><time>2026-04-11T15:45:22.999Z</time></trkpt><trkpt lat="44.77694635689996" lon="8.12817338355346"><ele>138.0</ele><time>2026-04-11T15:45:24.999Z</time></trkpt><trkpt lat="44.77685871179234" lon="8.128193439972636"><ele>138.0</ele><time>2026-04-11T15:45:26.999Z</time></trkpt><trkpt lat="44.776772765513385" lon="8.128222489059015"><ele>138.0</ele><time>2026-04-11T15:45:28.999Z</time></trkpt><trkpt lat="44.77669404706087" lon="8.128249291183549"><ele>138.16666666666666</ele><time>2026-04-11T15:45:30.999Z</time></trkpt><trkpt lat="44.77661615472527" lon="8.128279891628774"><ele>138.33333333333334</ele><time>2026-04-11T15:45:32.999Z</time></trkpt><trkpt lat="44.77653154266025" lon="8.128295044923311"><ele>138.5</ele><time>2026-04-11T15:45:34.999Z</time></trkpt><trkpt lat="44.776444411504265" lon="8.128277712083205"><ele>138.66666666666669</ele><time>2026-04-11T15:45:36.999Z</time></trkpt><trkpt lat="44.776359043819255" lon="8.128245414264205"><ele>138.83333333333334</ele><time>2026-04-11T15:45:38.999Z</time></trkpt><trkpt lat="44.77628396279021" lon="8.128212382639731"><ele>139.0</ele><time>2026-04-11T15:45:40.999Z</time></trkpt><trkpt lat="44.77619894617864" lon="8.12817048264025"><ele>139.0</ele><time>2026-04-11T15:45:43Z</time></trkpt><trkpt lat="44.776116974750806" lon="8.128116674064058"><ele>139.0</ele><time>2026-04-11T15:45:45Z</time></trkpt><trkpt lat="44.77603862401903" lon="8.128047748369331"><ele>139.0</ele><time>2026-04-11T15:45:47Z</time></trkpt><trkpt lat="44.775959554152045" lon="8.127977520531678"><ele>139.0</ele><time>2026-04-11T15:45:49Z</time></trkpt><trkpt lat="44.77587752445177" lon="8.127901325699424"><ele>139.0</ele><time>2026-04-11T15:45:51Z</time></trkpt><trkpt lat="44.77579657701742" lon="8.127828201381371"><ele>138.8</ele><time>2026-04-11T15:45:53Z</time></trkpt><trkpt lat="44.77571716400736" lon="8.127751056641104"><ele>138.60000000000002</ele><time>2026-04-11T15:45:55Z</time></trkpt><trkpt lat="44.77563553092478" lon="8.12767842336572"><ele>138.4</ele><time>2026-04-11T15:45:57Z</time></trkpt><trkpt lat="44.77555657682034" lon="8.127603261612064"><ele>138.20000000000002</ele><time>2026-04-11T15:45:59Z</time></trkpt><trkpt lat="44.77547539237369" lon="8.127534859523777"><ele>138.0</ele><time>2026-04-11T15:46:01Z</time></trkpt><trkpt lat="44.77539202395515" lon="8.127448893987317"><ele>138.0</ele><time>2026-04-11T15:46:03Z</time></trkpt><trkpt lat="44.77531437003014" lon="8.127377172941422"><ele>138.0</ele><time>2026-04-11T15:46:05Z</time></trkpt><trkpt lat="44.77522892042727" lon="8.127300925572765"><ele>138.0</ele><time>2026-04-11T15:46:07Z</time></trkpt><trkpt lat="44.77514900768491" lon="8.127226261887207"><ele>138.0</ele><time>2026-04-11T15:46:09Z</time></trkpt><trkpt lat="44.77507622476874" lon="8.127154435670803"><ele>138.0</ele><time>2026-04-11T15:46:11Z</time></trkpt><trkpt lat="44.77499442047127" lon="8.127087920616487"><ele>138.0</ele><time>2026-04-11T15:46:13Z</time></trkpt><trkpt lat="44.77491533940252" lon="8.127009428955095"><ele>138.0</ele><time>2026-04-11T15:46:15Z</time></trkpt><trkpt lat="44.7748455027348" lon="8.126942455414493"><ele>138.0</ele><time>2026-04-11T15:46:17Z</time></trkpt><trkpt lat="44.774760565321216" lon="8.126873398884555"><ele>138.0</ele><time>2026-04-11T15:46:19Z</time></trkpt><trkpt lat="44.77468069539552" lon="8.126793965555184"><ele>138.0</ele><time>2026-04-11T15:46:21Z</time></trkpt><trkpt lat="44.774605494319516" lon="8.126719245513046"><ele>138.0</ele><time>2026-04-11T15:46:23Z</time></trkpt><trkpt lat="44.774523577138886" lon="8.126641788667472"><ele>138.0</ele><time>2026-04-11T15:46:25Z</time></trkpt><trkpt lat="44.77444936213196" lon="8.126576385485496"><ele>138.0</ele><time>2026-04-11T15:46:27Z</time></trkpt><trkpt lat="44.77437505970663" lon="8.126502563797844"><ele>138.0</ele><time>2026-04-11T15:46:29Z</time></trkpt><trkpt lat="44.7742922575569" lon="8.12642805582857"><ele>138.0</ele><time>2026-04-11T15:46:31Z</time></trkpt><trkpt lat="44.7742159121982" lon="8.126349918146445"><ele>137.6</ele><time>2026-04-11T15:46:33Z</time></trkpt><trkpt lat="44.77413801761575" lon="8.126276316564846"><ele>137.20000000000002</ele><time>2026-04-11T15:46:35Z</time></trkpt><trkpt lat="44.77405726748334" lon="8.126201690510955"><ele>136.8</ele><time>2026-04-11T15:46:37Z</time></trkpt><trkpt lat="44.77397906964896" lon="8.126130692825155"><ele>136.4</ele><time>2026-04-11T15:46:39Z</time></trkpt><trkpt lat="44.77390416986431" lon="8.12606094731788"><ele>136.0</ele><time>2026-04-11T15:46:41Z</time></trkpt><trkpt lat="44.773835913447435" lon="8.125990018486974"><ele>136.0</ele><time>2026-04-11T15:46:43Z</time></trkpt><trkpt lat="44.77378308376927" lon="8.125931792220323"><ele>136.0</ele><time>2026-04-11T15:46:45Z</time></trkpt><trkpt lat="44.77373012724305" lon="8.125836757649704"><ele>136.0</ele><time>2026-04-11T15:46:47.999Z</time></trkpt><trkpt lat="44.77372532063298" lon="8.125739518807995"><ele>136.0</ele><time>2026-04-11T15:46:49.999Z</time></trkpt><trkpt lat="44.77369343935551" lon="8.125646875243053"><ele>136.0</ele><time>2026-04-11T15:46:51.999Z</time></trkpt><trkpt lat="44.77362785149894" lon="8.125542144892044"><ele>136.0</ele><time>2026-04-11T15:46:53.999Z</time></trkpt><trkpt lat="44.773547261473645" lon="8.125434590104549"><ele>136.2</ele><time>2026-04-11T15:46:55.999Z</time></trkpt><trkpt lat="44.77347478156278" lon="8.125330981535924"><ele>136.39999999999998</ele><time>2026-04-11T15:46:57.999Z</time></trkpt><trkpt lat="44.77341955919577" lon="8.125228698179448"><ele>136.6</ele><time>2026-04-11T15:46:59.999Z</time></trkpt><trkpt lat="44.773352174810505" lon="8.12513794714552"><ele>136.79999999999998</ele><time>2026-04-11T15:47:01.999Z</time></trkpt><trkpt lat="44.77328238029717" lon="8.125041623449459"><ele>137.0</ele><time>2026-04-11T15:47:03.999Z</time></trkpt><trkpt lat="44.77321666184323" lon="8.1249488561735"><ele>137.0</ele><time>2026-04-11T15:47:05.999Z</time></trkpt><trkpt lat="44.77315303292397" lon="8.124839729587585"><ele>137.0</ele><time>2026-04-11T15:47:07.999Z</time></trkpt><trkpt lat="44.773081141375464" lon="8.124747602215368"><ele>137.0</ele><time>2026-04-11T15:47:09.999Z</time></trkpt><trkpt lat="44.77301260951415" lon="8.12464893741282"><ele>137.0</ele><time>2026-04-11T15:47:11.999Z</time></trkpt><trkpt lat="44.77294789163235" lon="8.124555539410752"><ele>137.0</ele><time>2026-04-11T15:47:13.999Z</time></trkpt><trkpt lat="44.77287713789925" lon="8.124455384324657"><ele>137.0</ele><time>2026-04-11T15:47:15.999Z</time></trkpt><trkpt lat="44.77280511764399" lon="8.124369309931229"><ele>137.0</ele><time>2026-04-11T15:47:17.999Z</time></trkpt><trkpt lat="44.772728742530916" lon="8.124287464216026"><ele>137.0</ele><time>2026-04-11T15:47:19.999Z</time></trkpt><trkpt lat="44.772653666841414" lon="8.124213944839692"><ele>137.0</ele><time>2026-04-11T15:47:21.999Z</time></trkpt><trkpt lat="44.77258384049762" lon="8.124140779842005"><ele>137.0</ele><time>2026-04-11T15:47:23.999Z</time></trkpt><trkpt lat="44.7725132717813" lon="8.124075698859249"><ele>137.4</ele><time>2026-04-11T15:47:25.999Z</time></trkpt><trkpt lat="44.772433061890254" lon="8.124010658889915"><ele>137.79999999999998</ele><time>2026-04-11T15:47:27.999Z</time></trkpt><trkpt lat="44.77234667200717" lon="8.12395979507832"><ele>138.2</ele><time>2026-04-11T15:47:29.999Z</time></trkpt><trkpt lat="44.77227287725322" lon="8.123895087778749"><ele>138.6</ele><time>2026-04-11T15:47:31.999Z</time></trkpt><trkpt lat="44.77219748623651" lon="8.123811504043005"><ele>139.0</ele><time>2026-04-11T15:47:33.999Z</time></trkpt><trkpt lat="44.772134400354666" lon="8.123719560372395"><ele>139.0</ele><time>2026-04-11T15:47:35.999Z</time></trkpt><trkpt lat="44.77205355672699" lon="8.123637495501631"><ele>139.0</ele><time>2026-04-11T15:47:37.999Z</time></trkpt><trkpt lat="44.771975240974115" lon="8.123557820431202"><ele>139.0</ele><time>2026-04-11T15:47:39.999Z</time></trkpt><trkpt lat="44.771905310113645" lon="8.123482263148563"><ele>139.0</ele><time>2026-04-11T15:47:41.999Z</time></trkpt><trkpt lat="44.771823150101646" lon="8.123405504243784"><ele>139.0</ele><time>2026-04-11T15:47:43.999Z</time></trkpt><trkpt lat="44.77174737256748" lon="8.123324632684188"><ele>139.4</ele><time>2026-04-11T15:47:45.999Z</time></trkpt><trkpt lat="44.771673784129696" lon="8.123235973713495"><ele>139.8</ele><time>2026-04-11T15:47:47.999Z</time></trkpt><trkpt lat="44.77159802053346" lon="8.123149527562806"><ele>140.2</ele><time>2026-04-11T15:47:50Z</time></trkpt><trkpt lat="44.77152826178965" lon="8.123054681930919"><ele>140.6</ele><time>2026-04-11T15:47:52Z</time></trkpt><trkpt lat="44.77145480063097" lon="8.122968527956534"><ele>141.0</ele><time>2026-04-11T15:47:54Z</time></trkpt><trkpt lat="44.77138022169302" lon="8.122893033962336"><ele>141.0</ele><time>2026-04-11T15:47:56Z</time></trkpt><trkpt lat="44.771323169023866" lon="8.12281484042306"><ele>141.0</ele><time>2026-04-11T15:47:58Z</time></trkpt><trkpt lat="44.77125491128219" lon="8.122732021953109"><ele>141.0</ele><time>2026-04-11T15:48:00Z</time></trkpt><trkpt lat="44.77117051585718" lon="8.122652161070503"><ele>141.0</ele><time>2026-04-11T15:48:02Z</time></trkpt><trkpt lat="44.77108962371976" lon="8.122570702015858"><ele>141.0</ele><time>2026-04-11T15:48:04Z</time></trkpt><trkpt lat="44.77101832615733" lon="8.122488973755306"><ele>140.8</ele><time>2026-04-11T15:48:06Z</time></trkpt><trkpt lat="44.77093836972931" lon="8.122403856410665"><ele>140.6</ele><time>2026-04-11T15:48:08Z</time></trkpt><trkpt lat="44.77086670228795" lon="8.12231874687429"><ele>140.4</ele><time>2026-04-11T15:48:10Z</time></trkpt><trkpt lat="44.77078807124792" lon="8.122224317381379"><ele>140.2</ele><time>2026-04-11T15:48:12Z</time></trkpt><trkpt lat="44.77071205517191" lon="8.12213753405725"><ele>140.0</ele><time>2026-04-11T15:48:14Z</time></trkpt><trkpt lat="44.77063212307275" lon="8.122040838279165"><ele>139.8</ele><time>2026-04-11T15:48:16Z</time></trkpt><trkpt lat="44.77054846502872" lon="8.121951751155036"><ele>139.6</ele><time>2026-04-11T15:48:18Z</time></trkpt><trkpt lat="44.77046848713247" lon="8.121867986012312"><ele>139.4</ele><time>2026-04-11T15:48:20Z</time></trkpt><trkpt lat="44.770390038674215" lon="8.121777544160707"><ele>139.2</ele><time>2026-04-11T15:48:22Z</time></trkpt><trkpt lat="44.77031780256246" lon="8.121690487588918"><ele>139.0</ele><time>2026-04-11T15:48:24Z</time></trkpt><trkpt lat="44.77023034564268" lon="8.121611316941847"><ele>139.2</ele><time>2026-04-11T15:48:26Z</time></trkpt><trkpt lat="44.77015491558165" lon="8.12153334791311"><ele>139.4</ele><time>2026-04-11T15:48:28Z</time></trkpt><trkpt lat="44.77007582321469" lon="8.121449063316177"><ele>139.6</ele><time>2026-04-11T15:48:30Z</time></trkpt><trkpt lat="44.77000408570009" lon="8.121362946161877"><ele>139.8</ele><time>2026-04-11T15:48:32Z</time></trkpt><trkpt lat="44.76992696905931" lon="8.121273166524963"><ele>140.0</ele><time>2026-04-11T15:48:34Z</time></trkpt><trkpt lat="44.769844411134635" lon="8.121179750361366"><ele>140.0</ele><time>2026-04-11T15:48:36Z</time></trkpt><trkpt lat="44.7697677170965" lon="8.1210999602279"><ele>140.0</ele><time>2026-04-11T15:48:38Z</time></trkpt><trkpt lat="44.769693425362675" lon="8.121006997263601"><ele>140.0</ele><time>2026-04-11T15:48:40Z</time></trkpt><trkpt lat="44.76961307558493" lon="8.12092140228368"><ele>140.0</ele><time>2026-04-11T15:48:42Z</time></trkpt><trkpt lat="44.76953002360344" lon="8.120835409466048"><ele>140.0</ele><time>2026-04-11T15:48:44Z</time></trkpt><trkpt lat="44.76944914909142" lon="8.120746097068631"><ele>140.0</ele><time>2026-04-11T15:48:46Z</time></trkpt><trkpt lat="44.76936842079336" lon="8.120663828673678"><ele>140.0</ele><time>2026-04-11T15:48:48Z</time></trkpt><trkpt lat="44.769288502526976" lon="8.12057864809905"><ele>140.0</ele><time>2026-04-11T15:48:50Z</time></trkpt><trkpt lat="44.76921050398145" lon="8.120486236114052"><ele>140.0</ele><time>2026-04-11T15:48:52Z</time></trkpt><trkpt lat="44.76913553199738" lon="8.120392719029567"><ele>140.0</ele><time>2026-04-11T15:48:54Z</time></trkpt><trkpt lat="44.769062583152284" lon="8.120311650612406"><ele>140.0</ele><time>2026-04-11T15:48:55.999Z</time></trkpt><trkpt lat="44.76899182325255" lon="8.120232568608198"><ele>140.0</ele><time>2026-04-11T15:48:57.999Z</time></trkpt><trkpt lat="44.76891317491153" lon="8.120137594362976"><ele>140.0</ele><time>2026-04-11T15:48:59.999Z</time></trkpt><trkpt lat="44.76883643249306" lon="8.120056956588092"><ele>140.0</ele><time>2026-04-11T15:49:01.999Z</time></trkpt><trkpt lat="44.76875688722919" lon="8.119961587197158"><ele>140.0</ele><time>2026-04-11T15:49:03.999Z</time></trkpt><trkpt lat="44.768681700330895" lon="8.119877418610427"><ele>140.0</ele><time>2026-04-11T15:49:05.999Z</time></trkpt><trkpt lat="44.768610069279426" lon="8.119799460046705"><ele>140.0</ele><time>2026-04-11T15:49:07.999Z</time></trkpt><trkpt lat="44.768537077564005" lon="8.119703853568108"><ele>140.0</ele><time>2026-04-11T15:49:09.999Z</time></trkpt><trkpt lat="44.76845475092173" lon="8.119620008076973"><ele>140.0</ele><time>2026-04-11T15:49:11.999Z</time></trkpt><trkpt lat="44.7683819067149" lon="8.119534736343198"><ele>140.0</ele><time>2026-04-11T15:49:13.999Z</time></trkpt><trkpt lat="44.768307175148365" lon="8.119443394916589"><ele>140.0</ele><time>2026-04-11T15:49:15.999Z</time></trkpt><trkpt lat="44.76822875422469" lon="8.119363134307934"><ele>140.0</ele><time>2026-04-11T15:49:17.999Z</time></trkpt><trkpt lat="44.76815401268292" lon="8.119282773336016"><ele>140.0</ele><time>2026-04-11T15:49:19.999Z</time></trkpt><trkpt lat="44.76808278229285" lon="8.119196707436718"><ele>140.0</ele><time>2026-04-11T15:49:21.999Z</time></trkpt><trkpt lat="44.76801071511017" lon="8.119122712324513"><ele>140.0</ele><time>2026-04-11T15:49:23.999Z</time></trkpt><trkpt lat="44.767935550711684" lon="8.119053801406325"><ele>140.0</ele><time>2026-04-11T15:49:25.999Z</time></trkpt><trkpt lat="44.76787882795025" lon="8.118966902608848"><ele>140.0</ele><time>2026-04-11T15:49:27.999Z</time></trkpt><trkpt lat="44.76782721896279" lon="8.118894361370343"><ele>140.0</ele><time>2026-04-11T15:49:29.999Z</time></trkpt><trkpt lat="44.76775056482842" lon="8.118864630375548"><ele>140.0</ele><time>2026-04-11T15:49:31.999Z</time></trkpt><trkpt lat="44.76766571648749" lon="8.118844074733085"><ele>140.0</ele><time>2026-04-11T15:49:33.999Z</time></trkpt><trkpt lat="44.76757968739542" lon="8.118829726190953"><ele>140.0</ele><time>2026-04-11T15:49:35.999Z</time></trkpt><trkpt lat="44.76748820343639" lon="8.11880592577879"><ele>140.0</ele><time>2026-04-11T15:49:37.999Z</time></trkpt><trkpt lat="44.76739557240451" lon="8.118787666679653"><ele>140.0</ele><time>2026-04-11T15:49:39.999Z</time></trkpt><trkpt lat="44.767301299157864" lon="8.118755898346356"><ele>140.0</ele><time>2026-04-11T15:49:41.999Z</time></trkpt><trkpt lat="44.76720427173405" lon="8.118732264955952"><ele>140.0</ele><time>2026-04-11T15:49:43.999Z</time></trkpt><trkpt lat="44.76710177327282" lon="8.118702900906984"><ele>140.0</ele><time>2026-04-11T15:49:45.999Z</time></trkpt><trkpt lat="44.76699917455261" lon="8.118668807202168"><ele>140.0</ele><time>2026-04-11T15:49:47.999Z</time></trkpt><trkpt lat="44.76690014858501" lon="8.118648605178404"><ele>140.0</ele><time>2026-04-11T15:49:49.999Z</time></trkpt><trkpt lat="44.76679234344023" lon="8.118626625737022"><ele>140.0</ele><time>2026-04-11T15:49:51.999Z</time></trkpt><trkpt lat="44.76668781301269" lon="8.118584042244319"><ele>140.0</ele><time>2026-04-11T15:49:53.999Z</time></trkpt><trkpt lat="44.76659129573722" lon="8.118559133938742"><ele>140.0</ele><time>2026-04-11T15:49:56Z</time></trkpt><trkpt lat="44.76649405171092" lon="8.118528451632551"><ele>140.2</ele><time>2026-04-11T15:49:58Z</time></trkpt><trkpt lat="44.76639467830932" lon="8.118500531400894"><ele>140.4</ele><time>2026-04-11T15:50:00Z</time></trkpt><trkpt lat="44.76629177553816" lon="8.118477301406683"><ele>140.6</ele><time>2026-04-11T15:50:02Z</time></trkpt><trkpt lat="44.76619266380207" lon="8.118453730054732"><ele>140.8</ele><time>2026-04-11T15:50:04Z</time></trkpt><trkpt lat="44.766090323726864" lon="8.118430582264029"><ele>141.0</ele><time>2026-04-11T15:50:06Z</time></trkpt><trkpt lat="44.76598432817467" lon="8.118422497328984"><ele>141.0</ele><time>2026-04-11T15:50:08Z</time></trkpt><trkpt lat="44.76587399702246" lon="8.118423240014852"><ele>141.0</ele><time>2026-04-11T15:50:10Z</time></trkpt><trkpt lat="44.76577015350314" lon="8.118416805061887"><ele>141.0</ele><time>2026-04-11T15:50:12Z</time></trkpt><trkpt lat="44.76566799860508" lon="8.118377266968698"><ele>141.0</ele><time>2026-04-11T15:50:14Z</time></trkpt><trkpt lat="44.76557075813752" lon="8.118319116039535"><ele>141.0</ele><time>2026-04-11T15:50:16Z</time></trkpt><trkpt lat="44.76547865725079" lon="8.118247123158"><ele>140.8</ele><time>2026-04-11T15:50:18Z</time></trkpt><trkpt lat="44.765390170721695" lon="8.118168082115863"><ele>140.6</ele><time>2026-04-11T15:50:20Z</time></trkpt><trkpt lat="44.76530911125079" lon="8.118077825537744"><ele>140.4</ele><time>2026-04-11T15:50:22Z</time></trkpt><trkpt lat="44.76522735599568" lon="8.117993903761995"><ele>140.2</ele><time>2026-04-11T15:50:24Z</time></trkpt><trkpt lat="44.76514051221907" lon="8.117906923898223"><ele>140.0</ele><time>2026-04-11T15:50:26Z</time></trkpt><trkpt lat="44.76504656341805" lon="8.117827230735516"><ele>140.0</ele><time>2026-04-11T15:50:28Z</time></trkpt><trkpt lat="44.76496093589528" lon="8.117759315238668"><ele>140.0</ele><time>2026-04-11T15:50:30Z</time></trkpt><trkpt lat="44.76487696658141" lon="8.117689886561905"><ele>140.0</ele><time>2026-04-11T15:50:32Z</time></trkpt><trkpt lat="44.76478259830332" lon="8.11763631194562"><ele>140.0</ele><time>2026-04-11T15:50:34Z</time></trkpt><trkpt lat="44.76468601548173" lon="8.11758262706355"><ele>140.0</ele><time>2026-04-11T15:50:36Z</time></trkpt><trkpt lat="44.7645974509311" lon="8.117519775189217"><ele>140.0</ele><time>2026-04-11T15:50:38Z</time></trkpt><trkpt lat="44.76450593426675" lon="8.117473163342085"><ele>140.0</ele><time>2026-04-11T15:50:40Z</time></trkpt><trkpt lat="44.764410825509906" lon="8.117419870613789"><ele>140.0</ele><time>2026-04-11T15:50:42Z</time></trkpt><trkpt lat="44.764320121205564" lon="8.117365901788638"><ele>140.0</ele><time>2026-04-11T15:50:44Z</time></trkpt><trkpt lat="44.764238289161526" lon="8.117306785912074"><ele>140.0</ele><time>2026-04-11T15:50:46Z</time></trkpt><trkpt lat="44.764149221457075" lon="8.11726475261289"><ele>140.2</ele><time>2026-04-11T15:50:48Z</time></trkpt><trkpt lat="44.76406732888536" lon="8.117205185970612"><ele>140.4</ele><time>2026-04-11T15:50:50Z</time></trkpt><trkpt lat="44.76401361821776" lon="8.117088084035467"><ele>140.6</ele><time>2026-04-11T15:50:52Z</time></trkpt><trkpt lat="44.76399563953622" lon="8.11693990092818"><ele>140.8</ele><time>2026-04-11T15:50:53.999Z</time></trkpt><trkpt lat="44.76399087736095" lon="8.116800737665065"><ele>141.0</ele><time>2026-04-11T15:50:55.999Z</time></trkpt><trkpt lat="44.76398067710356" lon="8.116672352727393"><ele>141.0</ele><time>2026-04-11T15:50:57.999Z</time></trkpt><trkpt lat="44.76398074839423" lon="8.116528479246263"><ele>141.0</ele><time>2026-04-11T15:50:59.999Z</time></trkpt><trkpt lat="44.76397479702516" lon="8.116393453275958"><ele>141.0</ele><time>2026-04-11T15:51:01.999Z</time></trkpt><trkpt lat="44.76397155178568" lon="8.116248352311594"><ele>141.0</ele><time>2026-04-11T15:51:03.999Z</time></trkpt><trkpt lat="44.763960704247886" lon="8.116111229992567"><ele>141.0</ele><time>2026-04-11T15:51:05.999Z</time></trkpt><trkpt lat="44.76395554015292" lon="8.115969532427155"><ele>141.0</ele><time>2026-04-11T15:51:07.999Z</time></trkpt><trkpt lat="44.76395132957166" lon="8.115820283342295"><ele>141.0</ele><time>2026-04-11T15:51:09.999Z</time></trkpt><trkpt lat="44.76394979074528" lon="8.115673172729284"><ele>141.0</ele><time>2026-04-11T15:51:11.999Z</time></trkpt><trkpt lat="44.76394459344357" lon="8.115524352944645"><ele>141.0</ele><time>2026-04-11T15:51:13.999Z</time></trkpt><trkpt lat="44.76394152565808" lon="8.115371700974375"><ele>141.0</ele><time>2026-04-11T15:51:15.999Z</time></trkpt><trkpt lat="44.76394323133667" lon="8.115225340016305"><ele>140.8</ele><time>2026-04-11T15:51:17.999Z</time></trkpt><trkpt lat="44.763933586370136" lon="8.115088404429294"><ele>140.6</ele><time>2026-04-11T15:51:19.999Z</time></trkpt><trkpt lat="44.76391081387763" lon="8.114955548186943"><ele>140.4</ele><time>2026-04-11T15:51:21.999Z</time></trkpt><trkpt lat="44.763851894795536" lon="8.114844304780997"><ele>140.2</ele><time>2026-04-11T15:51:23.999Z</time></trkpt><trkpt lat="44.763768967835475" lon="8.11477282359367"><ele>140.0</ele><time>2026-04-11T15:51:25.999Z</time></trkpt><trkpt lat="44.763683267480715" lon="8.114725752152108"><ele>140.2</ele><time>2026-04-11T15:51:27.999Z</time></trkpt><trkpt lat="44.76359797198307" lon="8.114666801412755"><ele>140.4</ele><time>2026-04-11T15:51:29.999Z</time></trkpt><trkpt lat="44.76350053557002" lon="8.114604216727038"><ele>140.6</ele><time>2026-04-11T15:51:31.999Z</time></trkpt><trkpt lat="44.763412577490314" lon="8.114542352997718"><ele>140.8</ele><time>2026-04-11T15:51:33.999Z</time></trkpt><trkpt lat="44.76333391217056" lon="8.114483091356263"><ele>141.0</ele><time>2026-04-11T15:51:35.999Z</time></trkpt><trkpt lat="44.76324247595603" lon="8.11440789430157"><ele>141.0</ele><time>2026-04-11T15:51:37.999Z</time></trkpt><trkpt lat="44.76315255500818" lon="8.1143477627001"><ele>141.0</ele><time>2026-04-11T15:51:39.999Z</time></trkpt><trkpt lat="44.763064839664295" lon="8.114292339249563"><ele>141.0</ele><time>2026-04-11T15:51:41.999Z</time></trkpt><trkpt lat="44.762966528100975" lon="8.114236586017643"><ele>141.0</ele><time>2026-04-11T15:51:43.999Z</time></trkpt><trkpt lat="44.76286998265515" lon="8.11418166713839"><ele>141.0</ele><time>2026-04-11T15:51:45.999Z</time></trkpt><trkpt lat="44.76276945995767" lon="8.114104600290652"><ele>141.4</ele><time>2026-04-11T15:51:47.999Z</time></trkpt><trkpt lat="44.76267327606107" lon="8.114037148142605"><ele>141.8</ele><time>2026-04-11T15:51:49.999Z</time></trkpt><trkpt lat="44.762580912212385" lon="8.11396818060725"><ele>142.20000000000002</ele><time>2026-04-11T15:51:51.999Z</time></trkpt><trkpt lat="44.7624815017888" lon="8.113905396159655"><ele>142.6</ele><time>2026-04-11T15:51:53.999Z</time></trkpt><trkpt lat="44.76239876486561" lon="8.113831422901558"><ele>143.0</ele><time>2026-04-11T15:51:55.999Z</time></trkpt><trkpt lat="44.762314133984695" lon="8.113773970483615"><ele>143.0</ele><time>2026-04-11T15:51:57.999Z</time></trkpt><trkpt lat="44.76223786485558" lon="8.113699015632523"><ele>143.0</ele><time>2026-04-11T15:51:59.999Z</time></trkpt><trkpt lat="44.76213340689474" lon="8.11364017393046"><ele>143.0</ele><time>2026-04-11T15:52:02Z</time></trkpt><trkpt lat="44.76205860649169" lon="8.113582476964776"><ele>143.0</ele><time>2026-04-11T15:52:04Z</time></trkpt><trkpt lat="44.76198467193567" lon="8.113513026434156"><ele>143.0</ele><time>2026-04-11T15:52:06Z</time></trkpt><trkpt lat="44.76190845586138" lon="8.113467017224641"><ele>142.8</ele><time>2026-04-11T15:52:08Z</time></trkpt><trkpt lat="44.76182449821983" lon="8.113414456312965"><ele>142.60000000000002</ele><time>2026-04-11T15:52:10Z</time></trkpt><trkpt lat="44.761733499440204" lon="8.113357731456272"><ele>142.39999999999998</ele><time>2026-04-11T15:52:12Z</time></trkpt><trkpt lat="44.76164439964167" lon="8.113286940040059"><ele>142.2</ele><time>2026-04-11T15:52:14Z</time></trkpt><trkpt lat="44.761565388605874" lon="8.113228950268805"><ele>142.0</ele><time>2026-04-11T15:52:16Z</time></trkpt><trkpt lat="44.761488599056264" lon="8.11317321818882"><ele>142.0</ele><time>2026-04-11T15:52:18Z</time></trkpt><trkpt lat="44.76140503409199" lon="8.11311089454138"><ele>142.0</ele><time>2026-04-11T15:52:20Z</time></trkpt><trkpt lat="44.761329939909956" lon="8.113051513938139"><ele>142.0</ele><time>2026-04-11T15:52:22Z</time></trkpt><trkpt lat="44.76124456943473" lon="8.112986823435254"><ele>142.0</ele><time>2026-04-11T15:52:24Z</time></trkpt><trkpt lat="44.761158838788106" lon="8.112926022523117"><ele>142.0</ele><time>2026-04-11T15:52:26Z</time></trkpt><trkpt lat="44.761079070620696" lon="8.11285726308493"><ele>141.79999999999998</ele><time>2026-04-11T15:52:28Z</time></trkpt><trkpt lat="44.76099260572851" lon="8.112792725879787"><ele>141.6</ele><time>2026-04-11T15:52:30Z</time></trkpt><trkpt lat="44.76090463180936" lon="8.112730075899078"><ele>141.39999999999998</ele><time>2026-04-11T15:52:32Z</time></trkpt><trkpt lat="44.7608187376374" lon="8.11265736013519"><ele>141.2</ele><time>2026-04-11T15:52:34Z</time></trkpt><trkpt lat="44.76072803106576" lon="8.11261341067638"><ele>141.0</ele><time>2026-04-11T15:52:36Z</time></trkpt><trkpt lat="44.76065150545822" lon="8.112566284252871"><ele>141.0</ele><time>2026-04-11T15:52:38Z</time></trkpt><trkpt lat="44.76057284754802" lon="8.112505021234057"><ele>141.0</ele><time>2026-04-11T15:52:40Z</time></trkpt><trkpt lat="44.76048492547433" lon="8.112443283353782"><ele>141.0</ele><time>2026-04-11T15:52:42Z</time></trkpt><trkpt lat="44.76040081602397" lon="8.112374035865686"><ele>141.0</ele><time>2026-04-11T15:52:44Z</time></trkpt><trkpt lat="44.760322122844045" lon="8.112292516950111"><ele>141.0</ele><time>2026-04-11T15:52:46Z</time></trkpt><trkpt lat="44.76025155462551" lon="8.112196279669275"><ele>141.0</ele><time>2026-04-11T15:52:48Z</time></trkpt><trkpt lat="44.76018198389958" lon="8.112100855031645"><ele>141.0</ele><time>2026-04-11T15:52:50Z</time></trkpt><trkpt lat="44.760116011255676" lon="8.112000677940358"><ele>141.0</ele><time>2026-04-11T15:52:52Z</time></trkpt><trkpt lat="44.760052516680034" lon="8.111927801512211"><ele>141.0</ele><time>2026-04-11T15:52:54Z</time></trkpt><trkpt lat="44.7599742972948" lon="8.111835452593295"><ele>141.0</ele><time>2026-04-11T15:52:56Z</time></trkpt><trkpt lat="44.75990121265284" lon="8.111741983286821"><ele>141.0</ele><time>2026-04-11T15:52:58Z</time></trkpt><trkpt lat="44.75982719686913" lon="8.111642396364788"><ele>141.0</ele><time>2026-04-11T15:53:00Z</time></trkpt><trkpt lat="44.75975461647514" lon="8.111533545600622"><ele>141.0</ele><time>2026-04-11T15:53:02Z</time></trkpt><trkpt lat="44.75966707166126" lon="8.11144108413103"><ele>141.0</ele><time>2026-04-11T15:53:04Z</time></trkpt><trkpt lat="44.75959362448776" lon="8.11133880140614"><ele>141.0</ele><time>2026-04-11T15:53:05.999Z</time></trkpt><trkpt lat="44.759519196284785" lon="8.1112328063263"><ele>141.0</ele><time>2026-04-11T15:53:07.999Z</time></trkpt><trkpt lat="44.75943963521394" lon="8.111124930187458"><ele>141.0</ele><time>2026-04-11T15:53:09.999Z</time></trkpt><trkpt lat="44.759361825309355" lon="8.111016957018998"><ele>141.0</ele><time>2026-04-11T15:53:11.999Z</time></trkpt><trkpt lat="44.75928160529221" lon="8.1109126489655"><ele>141.0</ele><time>2026-04-11T15:53:13.999Z</time></trkpt><trkpt lat="44.759201704529055" lon="8.110804534582543"><ele>141.0</ele><time>2026-04-11T15:53:15.999Z</time></trkpt><trkpt lat="44.7591232802587" lon="8.11070233932641"><ele>141.2</ele><time>2026-04-11T15:53:17.999Z</time></trkpt><trkpt lat="44.7590448272804" lon="8.110594518140825"><ele>141.39999999999998</ele><time>2026-04-11T15:53:19.999Z</time></trkpt><trkpt lat="44.75896487957777" lon="8.110502561764223"><ele>141.6</ele><time>2026-04-11T15:53:21.999Z</time></trkpt><trkpt lat="44.758889906887035" lon="8.110414914280023"><ele>141.79999999999998</ele><time>2026-04-11T15:53:23.999Z</time></trkpt><trkpt lat="44.75881129188887" lon="8.110326653244858"><ele>142.0</ele><time>2026-04-11T15:53:25.999Z</time></trkpt><trkpt lat="44.75872193626256" lon="8.11025283398779"><ele>142.0</ele><time>2026-04-11T15:53:27.999Z</time></trkpt><trkpt lat="44.758627740321685" lon="8.110180276501174"><ele>142.0</ele><time>2026-04-11T15:53:29.999Z</time></trkpt><trkpt lat="44.75854524961205" lon="8.110112828057765"><ele>142.0</ele><time>2026-04-11T15:53:31.999Z</time></trkpt><trkpt lat="44.758468806917485" lon="8.110055093749429"><ele>142.0</ele><time>2026-04-11T15:53:33.999Z</time></trkpt><trkpt lat="44.75839067265126" lon="8.1100090048425"><ele>142.0</ele><time>2026-04-11T15:53:35.999Z</time></trkpt><trkpt lat="44.758302374781465" lon="8.10996663768191"><ele>142.2</ele><time>2026-04-11T15:53:37.999Z</time></trkpt><trkpt lat="44.75821318428086" lon="8.109925703527196"><ele>142.39999999999998</ele><time>2026-04-11T15:53:39.999Z</time></trkpt><trkpt lat="44.758119362166596" lon="8.109895816921577"><ele>142.60000000000002</ele><time>2026-04-11T15:53:41.999Z</time></trkpt><trkpt lat="44.75801345186224" lon="8.109859157209891"><ele>142.8</ele><time>2026-04-11T15:53:43.999Z</time></trkpt><trkpt lat="44.75792156297512" lon="8.109812808046817"><ele>143.0</ele><time>2026-04-11T15:53:45.999Z</time></trkpt><trkpt lat="44.75782662158881" lon="8.10979246573704"><ele>143.16666666666666</ele><time>2026-04-11T15:53:47.999Z</time></trkpt><trkpt lat="44.75773598000203" lon="8.109776635557814"><ele>143.33333333333331</ele><time>2026-04-11T15:53:49.999Z</time></trkpt><trkpt lat="44.75765220976831" lon="8.10976739234623"><ele>143.5</ele><time>2026-04-11T15:53:51.999Z</time></trkpt><trkpt lat="44.75757509841483" lon="8.109756347043662"><ele>143.66666666666666</ele><time>2026-04-11T15:53:53.999Z</time></trkpt><trkpt lat="44.7575005449039" lon="8.109749810691667"><ele>143.83333333333334</ele><time>2026-04-11T15:53:55.999Z</time></trkpt><trkpt lat="44.75743433360378" lon="8.109687045707979"><ele>144.0</ele><time>2026-04-11T15:53:57.999Z</time></trkpt><trkpt lat="44.75741544163995" lon="8.109568543254673"><ele>143.66666666666666</ele><time>2026-04-11T15:53:59.999Z</time></trkpt><trkpt lat="44.75744820467172" lon="8.109444608048186"><ele>143.33333333333334</ele><time>2026-04-11T15:54:01.999Z</time></trkpt><trkpt lat="44.75749229831648" lon="8.109342788623541"><ele>143.0</ele><time>2026-04-11T15:54:03.999Z</time></trkpt><trkpt lat="44.75752965054858" lon="8.109232501669709"><ele>142.66666666666669</ele><time>2026-04-11T15:54:05.999Z</time></trkpt><trkpt lat="44.7575703479589" lon="8.109125931169881"><ele>142.33333333333334</ele><time>2026-04-11T15:54:08Z</time></trkpt><trkpt lat="44.75761357192625" lon="8.109017826603727"><ele>142.0</ele><time>2026-04-11T15:54:10Z</time></trkpt><trkpt lat="44.75765687251431" lon="8.108903324797595"><ele>141.79999999999998</ele><time>2026-04-11T15:54:12Z</time></trkpt><trkpt lat="44.75770156685135" lon="8.108787872952115"><ele>141.6</ele><time>2026-04-11T15:54:14Z</time></trkpt><trkpt lat="44.7577502375222" lon="8.108666800311164"><ele>141.39999999999998</ele><time>2026-04-11T15:54:16Z</time></trkpt><trkpt lat="44.75779227604251" lon="8.108542848849773"><ele>141.2</ele><time>2026-04-11T15:54:18Z</time></trkpt><trkpt lat="44.757836274683974" lon="8.108418287386558"><ele>141.0</ele><time>2026-04-11T15:54:20Z</time></trkpt><trkpt lat="44.75787565056543" lon="8.108302930717315"><ele>141.16666666666666</ele><time>2026-04-11T15:54:22Z</time></trkpt><trkpt lat="44.75787204987291" lon="8.108174993102452"><ele>141.33333333333334</ele><time>2026-04-11T15:54:24Z</time></trkpt><trkpt lat="44.75782659333669" lon="8.108065154745583"><ele>141.5</ele><time>2026-04-11T15:54:26Z</time></trkpt><trkpt lat="44.75775805275009" lon="8.108011024126062"><ele>141.66666666666669</ele><time>2026-04-11T15:54:28Z</time></trkpt><trkpt lat="44.75768205783247" lon="8.10795554107586"><ele>141.83333333333334</ele><time>2026-04-11T15:54:30Z</time></trkpt><trkpt lat="44.75761281166955" lon="8.107873139422404"><ele>142.0</ele><time>2026-04-11T15:54:32Z</time></trkpt><trkpt lat="44.75753559920943" lon="8.107741923982529"><ele>142.0</ele><time>2026-04-11T15:54:34Z</time></trkpt><trkpt lat="44.757498967203944" lon="8.107662015351199"><ele>142.0</ele><time>2026-04-11T15:54:35Z</time></trkpt><trkpt lat="44.75746308787135" lon="8.107586321986672"><ele>142.0</ele><time>2026-04-11T15:54:36Z</time></trkpt><trkpt lat="44.757430041406536" lon="8.107510561928434"><ele>142.0</ele><time>2026-04-11T15:54:37Z</time></trkpt><trkpt lat="44.75736911394493" lon="8.107366948632599"><ele>142.0</ele><time>2026-04-11T15:54:39Z</time></trkpt><trkpt lat="44.75732073834109" lon="8.107226261119449"><ele>142.0</ele><time>2026-04-11T15:54:41Z</time></trkpt><trkpt lat="44.75730094410426" lon="8.107066093197563"><ele>142.0</ele><time>2026-04-11T15:54:43Z</time></trkpt><trkpt lat="44.7572883963826" lon="8.106926735461041"><ele>142.0</ele><time>2026-04-11T15:54:45Z</time></trkpt><trkpt lat="44.75727435221262" lon="8.10679266608989"><ele>142.0</ele><time>2026-04-11T15:54:47Z</time></trkpt><trkpt lat="44.757230097931206" lon="8.10668632529444"><ele>142.0</ele><time>2026-04-11T15:54:49Z</time></trkpt><trkpt lat="44.75717359407587" lon="8.106604091577625"><ele>142.0</ele><time>2026-04-11T15:54:51Z</time></trkpt><trkpt lat="44.75711971671063" lon="8.106535203331108"><ele>142.0</ele><time>2026-04-11T15:54:53Z</time></trkpt><trkpt lat="44.75705022664361" lon="8.106440055731444"><ele>142.0</ele><time>2026-04-11T15:54:55Z</time></trkpt><trkpt lat="44.75699965204736" lon="8.106319434000964"><ele>142.0</ele><time>2026-04-11T15:54:57Z</time></trkpt><trkpt lat="44.756944365383795" lon="8.106188685907803"><ele>142.0</ele><time>2026-04-11T15:54:59Z</time></trkpt><trkpt lat="44.75689168684086" lon="8.106072233225374"><ele>142.0</ele><time>2026-04-11T15:55:01Z</time></trkpt><trkpt lat="44.75683427912672" lon="8.10595886057097"><ele>142.0</ele><time>2026-04-11T15:55:02.999Z</time></trkpt><trkpt lat="44.75678274155856" lon="8.105835546194612"><ele>141.4</ele><time>2026-04-11T15:55:04.999Z</time></trkpt><trkpt lat="44.75673317494223" lon="8.105720426021794"><ele>140.79999999999998</ele><time>2026-04-11T15:55:06.999Z</time></trkpt><trkpt lat="44.75667656708245" lon="8.105597550409865"><ele>140.2</ele><time>2026-04-11T15:55:08.999Z</time></trkpt><trkpt lat="44.75663008176799" lon="8.10547011796735"><ele>139.6</ele><time>2026-04-11T15:55:10.999Z</time></trkpt><trkpt lat="44.75657661144555" lon="8.105352196318053"><ele>139.0</ele><time>2026-04-11T15:55:12.999Z</time></trkpt><trkpt lat="44.75652198112559" lon="8.105233372682529"><ele>139.0</ele><time>2026-04-11T15:55:14.999Z</time></trkpt><trkpt lat="44.75646277954226" lon="8.105120632986061"><ele>139.0</ele><time>2026-04-11T15:55:16.999Z</time></trkpt><trkpt lat="44.75640365355554" lon="8.10501029273537"><ele>139.0</ele><time>2026-04-11T15:55:18.999Z</time></trkpt><trkpt lat="44.756347377168424" lon="8.104903159032562"><ele>139.0</ele><time>2026-04-11T15:55:20.999Z</time></trkpt><trkpt lat="44.75628858216687" lon="8.104806526766305"><ele>139.0</ele><time>2026-04-11T15:55:22.999Z</time></trkpt><trkpt lat="44.75622985229154" lon="8.104721681615837"><ele>139.16666666666669</ele><time>2026-04-11T15:55:24.999Z</time></trkpt><trkpt lat="44.75618464142239" lon="8.104654688574668"><ele>139.33333333333334</ele><time>2026-04-11T15:55:26.999Z</time></trkpt><trkpt lat="44.756121339704336" lon="8.104583183471064"><ele>139.5</ele><time>2026-04-11T15:55:29.999Z</time></trkpt><trkpt lat="44.75606809353984" lon="8.10452377792042"><ele>139.66666666666666</ele><time>2026-04-11T15:55:31.999Z</time></trkpt><trkpt lat="44.756017675588566" lon="8.104463102164898"><ele>139.83333333333331</ele><time>2026-04-11T15:55:33.999Z</time></trkpt><trkpt lat="44.75593595987816" lon="8.104401347506302"><ele>140.0</ele><time>2026-04-11T15:55:35.999Z</time></trkpt><trkpt lat="44.7558397273449" lon="8.104395715637288"><ele>140.2</ele><time>2026-04-11T15:55:37.999Z</time></trkpt><trkpt lat="44.75575510123799" lon="8.104426253607656"><ele>140.4</ele><time>2026-04-11T15:55:39.999Z</time></trkpt><trkpt lat="44.75566120157858" lon="8.104456591412044"><ele>140.6</ele><time>2026-04-11T15:55:41.999Z</time></trkpt><trkpt lat="44.7555660933543" lon="8.104481344819774"><ele>140.8</ele><time>2026-04-11T15:55:43.999Z</time></trkpt><trkpt lat="44.75547734409566" lon="8.104475013384375"><ele>141.0</ele><time>2026-04-11T15:55:45.999Z</time></trkpt><trkpt lat="44.755393176974806" lon="8.104462672416933"><ele>141.0</ele><time>2026-04-11T15:55:47.999Z</time></trkpt><trkpt lat="44.75529118463138" lon="8.104449068515091"><ele>141.0</ele><time>2026-04-11T15:55:49.999Z</time></trkpt><trkpt lat="44.755193697916454" lon="8.104440945787982"><ele>141.0</ele><time>2026-04-11T15:55:51.999Z</time></trkpt><trkpt lat="44.75510723584252" lon="8.104430522603426"><ele>141.0</ele><time>2026-04-11T15:55:53.999Z</time></trkpt><trkpt lat="44.755022774097384" lon="8.104419457910655"><ele>141.0</ele><time>2026-04-11T15:55:55.999Z</time></trkpt><trkpt lat="44.75493901240016" lon="8.104404987584179"><ele>140.85714285714286</ele><time>2026-04-11T15:55:57.999Z</time></trkpt><trkpt lat="44.75486026663858" lon="8.10439515017742"><ele>140.71428571428572</ele><time>2026-04-11T15:55:59.999Z</time></trkpt><trkpt lat="44.75478270615526" lon="8.104398791651626"><ele>140.57142857142856</ele><time>2026-04-11T15:56:01.999Z</time></trkpt><trkpt lat="44.75470892440462" lon="8.104397544127247"><ele>140.42857142857144</ele><time>2026-04-11T15:56:03.999Z</time></trkpt><trkpt lat="44.75464476323179" lon="8.104397236439612"><ele>140.28571428571428</ele><time>2026-04-11T15:56:05.999Z</time></trkpt><trkpt lat="44.75458063456975" lon="8.104395298028216"><ele>140.14285714285714</ele><time>2026-04-11T15:56:07.999Z</time></trkpt><trkpt lat="44.75450180636264" lon="8.104410973869332"><ele>140.0</ele><time>2026-04-11T15:56:09.999Z</time></trkpt><trkpt lat="44.75442092491969" lon="8.10442843831572"><ele>140.6</ele><time>2026-04-11T15:56:11.999Z</time></trkpt><trkpt lat="44.75432186000836" lon="8.104449954033019"><ele>141.2</ele><time>2026-04-11T15:56:14Z</time></trkpt><trkpt lat="44.75423011258334" lon="8.104463987441347"><ele>141.8</ele><time>2026-04-11T15:56:16Z</time></trkpt><trkpt lat="44.75413672175602" lon="8.104470236361903"><ele>142.4</ele><time>2026-04-11T15:56:19Z</time></trkpt><trkpt lat="44.75402269718109" lon="8.104492980283684"><ele>143.0</ele><time>2026-04-11T15:56:21Z</time></trkpt><trkpt lat="44.753959465613974" lon="8.104498807227854"><ele>143.0</ele><time>2026-04-11T15:56:22Z</time></trkpt><trkpt lat="44.75385255226924" lon="8.104508959005855"><ele>143.0</ele><time>2026-04-11T15:56:24Z</time></trkpt><trkpt lat="44.75374372118566" lon="8.104532315352818"><ele>143.0</ele><time>2026-04-11T15:56:26Z</time></trkpt><trkpt lat="44.753639248599626" lon="8.10455698865022"><ele>143.0</ele><time>2026-04-11T15:56:28Z</time></trkpt><trkpt lat="44.75353860051606" lon="8.10457273639721"><ele>143.0</ele><time>2026-04-11T15:56:30Z</time></trkpt><trkpt lat="44.75343891302413" lon="8.104592745954465"><ele>143.8</ele><time>2026-04-11T15:56:32Z</time></trkpt><trkpt lat="44.75334139354027" lon="8.104617992488826"><ele>144.60000000000002</ele><time>2026-04-11T15:56:34Z</time></trkpt><trkpt lat="44.75323754989391" lon="8.10461559109868"><ele>145.39999999999998</ele><time>2026-04-11T15:56:36Z</time></trkpt><trkpt lat="44.75313418185284" lon="8.104603213993217"><ele>146.2</ele><time>2026-04-11T15:56:38Z</time></trkpt><trkpt lat="44.75303762288355" lon="8.104564620996118"><ele>147.0</ele><time>2026-04-11T15:56:40Z</time></trkpt><trkpt lat="44.75296196264442" lon="8.104449818050414"><ele>147.0</ele><time>2026-04-11T15:56:42Z</time></trkpt><trkpt lat="44.752915196428226" lon="8.1043148531536"><ele>147.0</ele><time>2026-04-11T15:56:44Z</time></trkpt><trkpt lat="44.75285549103346" lon="8.104186607046492"><ele>147.0</ele><time>2026-04-11T15:56:46Z</time></trkpt><trkpt lat="44.752782719695304" lon="8.104063911777178"><ele>147.0</ele><time>2026-04-11T15:56:48Z</time></trkpt><trkpt lat="44.75270993066928" lon="8.103935980718829"><ele>147.0</ele><time>2026-04-11T15:56:50Z</time></trkpt><trkpt lat="44.752645709241854" lon="8.103815466751959"><ele>147.0</ele><time>2026-04-11T15:56:52Z</time></trkpt><trkpt lat="44.75258518876962" lon="8.103688824417757"><ele>147.0</ele><time>2026-04-11T15:56:54Z</time></trkpt><trkpt lat="44.7525254474106" lon="8.103570816304828"><ele>147.0</ele><time>2026-04-11T15:56:56Z</time></trkpt><trkpt lat="44.752462713825565" lon="8.103452634662492"><ele>147.0</ele><time>2026-04-11T15:56:58Z</time></trkpt><trkpt lat="44.75238976907409" lon="8.103352073620607"><ele>147.0</ele><time>2026-04-11T15:57:00Z</time></trkpt><trkpt lat="44.75229811978789" lon="8.103275312639253"><ele>146.4</ele><time>2026-04-11T15:57:02Z</time></trkpt><trkpt lat="44.752197704312216" lon="8.103217444273081"><ele>145.79999999999998</ele><time>2026-04-11T15:57:04Z</time></trkpt><trkpt lat="44.75210059676928" lon="8.103188626493225"><ele>145.2</ele><time>2026-04-11T15:57:06Z</time></trkpt><trkpt lat="44.75200592076006" lon="8.103184245080268"><ele>144.6</ele><time>2026-04-11T15:57:08Z</time></trkpt><trkpt lat="44.7519061835008" lon="8.103164382620106"><ele>144.0</ele><time>2026-04-11T15:57:10Z</time></trkpt><trkpt lat="44.75179795818469" lon="8.103132919807795"><ele>144.0</ele><time>2026-04-11T15:57:12Z</time></trkpt><trkpt lat="44.75169999101328" lon="8.103114941510588"><ele>144.0</ele><time>2026-04-11T15:57:14Z</time></trkpt><trkpt lat="44.75159982223279" lon="8.103104407180608"><ele>144.0</ele><time>2026-04-11T15:57:15.999Z</time></trkpt><trkpt lat="44.75149898629557" lon="8.103076600515035"><ele>144.0</ele><time>2026-04-11T15:57:17.999Z</time></trkpt><trkpt lat="44.75140959193213" lon="8.1030475751228"><ele>144.0</ele><time>2026-04-11T15:57:19.999Z</time></trkpt><trkpt lat="44.75131581876727" lon="8.103013070394331"><ele>144.0</ele><time>2026-04-11T15:57:21.999Z</time></trkpt><trkpt lat="44.75122258650569" lon="8.102969289896473"><ele>144.0</ele><time>2026-04-11T15:57:23.999Z</time></trkpt><trkpt lat="44.7511380659105" lon="8.10290442098453"><ele>144.0</ele><time>2026-04-11T15:57:25.999Z</time></trkpt><trkpt lat="44.751051993723465" lon="8.10282773720007"><ele>144.0</ele><time>2026-04-11T15:57:27.999Z</time></trkpt><trkpt lat="44.75096560568159" lon="8.10272087165877"><ele>144.0</ele><time>2026-04-11T15:57:29.999Z</time></trkpt><trkpt lat="44.75090044396308" lon="8.102592069417422"><ele>145.0</ele><time>2026-04-11T15:57:31.999Z</time></trkpt><trkpt lat="44.75085482584406" lon="8.102445931924589"><ele>146.0</ele><time>2026-04-11T15:57:33.999Z</time></trkpt><trkpt lat="44.75082249998593" lon="8.102295341351631"><ele>147.0</ele><time>2026-04-11T15:57:35.999Z</time></trkpt><trkpt lat="44.75077782356522" lon="8.102153113313836"><ele>148.0</ele><time>2026-04-11T15:57:37.999Z</time></trkpt><trkpt lat="44.75072524766713" lon="8.102008900336967"><ele>148.0</ele><time>2026-04-11T15:57:39.999Z</time></trkpt><trkpt lat="44.750673803965725" lon="8.101862686094751"><ele>148.0</ele><time>2026-04-11T15:57:41.999Z</time></trkpt><trkpt lat="44.75062763738668" lon="8.101718806421621"><ele>148.0</ele><time>2026-04-11T15:57:43.999Z</time></trkpt><trkpt lat="44.75058288101831" lon="8.101590423883001"><ele>148.0</ele><time>2026-04-11T15:57:45.999Z</time></trkpt><trkpt lat="44.75053803200122" lon="8.101468202772379"><ele>148.0</ele><time>2026-04-11T15:57:47.999Z</time></trkpt><trkpt lat="44.75049274579869" lon="8.101349895408019"><ele>148.6</ele><time>2026-04-11T15:57:49.999Z</time></trkpt><trkpt lat="44.75040682129289" lon="8.101257500052139"><ele>149.20000000000002</ele><time>2026-04-11T15:57:51.999Z</time></trkpt><trkpt lat="44.75030135922682" lon="8.101184731903675"><ele>149.8</ele><time>2026-04-11T15:57:53.999Z</time></trkpt><trkpt lat="44.750200880320705" lon="8.10111535371815"><ele>150.4</ele><time>2026-04-11T15:57:55.999Z</time></trkpt><trkpt lat="44.75010806616589" lon="8.101030233039877"><ele>151.0</ele><time>2026-04-11T15:57:57.999Z</time></trkpt><trkpt lat="44.7500323547048" lon="8.100908784056685"><ele>151.0</ele><time>2026-04-11T15:57:59.999Z</time></trkpt><trkpt lat="44.749984722944234" lon="8.100787358629558"><ele>151.0</ele><time>2026-04-11T15:58:01.999Z</time></trkpt><trkpt lat="44.7499206317858" lon="8.100673938101545"><ele>151.0</ele><time>2026-04-11T15:58:03.999Z</time></trkpt><trkpt lat="44.74987781908018" lon="8.100556525895211"><ele>151.0</ele><time>2026-04-11T15:58:05.999Z</time></trkpt><trkpt lat="44.74985912196106" lon="8.100425048122101"><ele>151.0</ele><time>2026-04-11T15:58:07.999Z</time></trkpt><trkpt lat="44.74984933574744" lon="8.100296801330945"><ele>150.5</ele><time>2026-04-11T15:58:09.999Z</time></trkpt><trkpt lat="44.74979829023818" lon="8.100148739806498"><ele>150.0</ele><time>2026-04-11T15:58:11.999Z</time></trkpt><trkpt lat="44.749734192723004" lon="8.100018895503823"><ele>149.5</ele><time>2026-04-11T15:58:13.999Z</time></trkpt><trkpt lat="44.749663711343175" lon="8.099894680741802"><ele>149.0</ele><time>2026-04-11T15:58:15.999Z</time></trkpt><trkpt lat="44.749589611661364" lon="8.099778141335191"><ele>149.2</ele><time>2026-04-11T15:58:17.999Z</time></trkpt><trkpt lat="44.74950389871674" lon="8.099719617946782"><ele>149.4</ele><time>2026-04-11T15:58:20Z</time></trkpt><trkpt lat="44.74940216720778" lon="8.099705727402608"><ele>149.6</ele><time>2026-04-11T15:58:22Z</time></trkpt><trkpt lat="44.74930814869094" lon="8.099663719119263"><ele>149.8</ele><time>2026-04-11T15:58:24Z</time></trkpt><trkpt lat="44.749230548291855" lon="8.099552595626209"><ele>150.0</ele><time>2026-04-11T15:58:26Z</time></trkpt><trkpt lat="44.74916227230632" lon="8.09943546314119"><ele>150.0</ele><time>2026-04-11T15:58:28Z</time></trkpt><trkpt lat="44.74909362546484" lon="8.099336792365825"><ele>150.0</ele><time>2026-04-11T15:58:30Z</time></trkpt><trkpt lat="44.74902122876915" lon="8.09924554998077"><ele>150.0</ele><time>2026-04-11T15:58:32Z</time></trkpt><trkpt lat="44.74896579380504" lon="8.09919574863947"><ele>150.0</ele><time>2026-04-11T15:58:33Z</time></trkpt><trkpt lat="44.74889755683259" lon="8.099114013240309"><ele>150.0</ele><time>2026-04-11T15:58:35Z</time></trkpt><trkpt lat="44.74883469377813" lon="8.099030632724526"><ele>150.0</ele><time>2026-04-11T15:58:37Z</time></trkpt><trkpt lat="44.74877874383112" lon="8.098971562786005"><ele>150.0</ele><time>2026-04-11T15:58:39Z</time></trkpt><trkpt lat="44.74872070653177" lon="8.098897483815273"><ele>150.0</ele><time>2026-04-11T15:58:41Z</time></trkpt><trkpt lat="44.74866500962489" lon="8.09883517968272"><ele>150.0</ele><time>2026-04-11T15:58:43Z</time></trkpt><trkpt lat="44.748605517027386" lon="8.098776762742277"><ele>150.0</ele><time>2026-04-11T15:58:45Z</time></trkpt><trkpt lat="44.74854455840587" lon="8.098716464895999"><ele>150.0</ele><time>2026-04-11T15:58:47Z</time></trkpt><trkpt lat="44.7484795005306" lon="8.098639124945123"><ele>150.0</ele><time>2026-04-11T15:58:49Z</time></trkpt><trkpt lat="44.74841513938005" lon="8.098557492869007"><ele>150.0</ele><time>2026-04-11T15:58:51Z</time></trkpt><trkpt lat="44.74834073950859" lon="8.098472507919377"><ele>150.0</ele><time>2026-04-11T15:58:53Z</time></trkpt><trkpt lat="44.74826900674706" lon="8.098392808000773"><ele>150.0</ele><time>2026-04-11T15:58:55Z</time></trkpt><trkpt lat="44.748206016598594" lon="8.0982974238568"><ele>150.0</ele><time>2026-04-11T15:58:57Z</time></trkpt><trkpt lat="44.748127195104175" lon="8.098203027645212"><ele>150.0</ele><time>2026-04-11T15:58:59Z</time></trkpt><trkpt lat="44.7480395024815" lon="8.098127096146653"><ele>150.0</ele><time>2026-04-11T15:59:01Z</time></trkpt><trkpt lat="44.7479519076015" lon="8.098031811230646"><ele>150.0</ele><time>2026-04-11T15:59:03Z</time></trkpt><trkpt lat="44.74787604754598" lon="8.09791447318325"><ele>150.0</ele><time>2026-04-11T15:59:05Z</time></trkpt><trkpt lat="44.74778330580031" lon="8.097820214065333"><ele>150.0</ele><time>2026-04-11T15:59:07Z</time></trkpt><trkpt lat="44.747695196469465" lon="8.097725105463812"><ele>150.0</ele><time>2026-04-11T15:59:09Z</time></trkpt><trkpt lat="44.74760879330241" lon="8.097611697202607"><ele>150.0</ele><time>2026-04-11T15:59:11Z</time></trkpt><trkpt lat="44.747526640032746" lon="8.097530421583652"><ele>150.0</ele><time>2026-04-11T15:59:13Z</time></trkpt><trkpt lat="44.74744025659567" lon="8.097435387347254"><ele>150.0</ele><time>2026-04-11T15:59:14.999Z</time></trkpt><trkpt lat="44.7473589224187" lon="8.097328848185354"><ele>150.0</ele><time>2026-04-11T15:59:16.999Z</time></trkpt><trkpt lat="44.74726176033749" lon="8.097246490581785"><ele>150.0</ele><time>2026-04-11T15:59:18.999Z</time></trkpt><trkpt lat="44.74717835145886" lon="8.09713359991314"><ele>149.8</ele><time>2026-04-11T15:59:20.999Z</time></trkpt><trkpt lat="44.747086352866" lon="8.097032309477147"><ele>149.6</ele><time>2026-04-11T15:59:22.999Z</time></trkpt><trkpt lat="44.74700082721432" lon="8.09692446369885"><ele>149.4</ele><time>2026-04-11T15:59:24.999Z</time></trkpt><trkpt lat="44.74691129320551" lon="8.096827643997237"><ele>149.2</ele><time>2026-04-11T15:59:26.999Z</time></trkpt><trkpt lat="44.74683326809311" lon="8.096745374458067"><ele>149.0</ele><time>2026-04-11T15:59:28.999Z</time></trkpt><trkpt lat="44.74674425808788" lon="8.096646882824917"><ele>149.0</ele><time>2026-04-11T15:59:30.999Z</time></trkpt><trkpt lat="44.74665751849018" lon="8.096539829928979"><ele>149.0</ele><time>2026-04-11T15:59:32.999Z</time></trkpt><trkpt lat="44.74659531514802" lon="8.096423558332315"><ele>149.0</ele><time>2026-04-11T15:59:34.999Z</time></trkpt><trkpt lat="44.74654213010904" lon="8.096304326619913"><ele>149.0</ele><time>2026-04-11T15:59:36.999Z</time></trkpt><trkpt lat="44.74648502929725" lon="8.096192228482758"><ele>149.0</ele><time>2026-04-11T15:59:38.999Z</time></trkpt><trkpt lat="44.746411795628426" lon="8.096105557567565"><ele>149.0</ele><time>2026-04-11T15:59:40.999Z</time></trkpt><trkpt lat="44.746304948077665" lon="8.096086837576308"><ele>149.0</ele><time>2026-04-11T15:59:42.999Z</time></trkpt><trkpt lat="44.74620172001265" lon="8.096091170712043"><ele>149.0</ele><time>2026-04-11T15:59:44.999Z</time></trkpt><trkpt lat="44.74609968143136" lon="8.096102943166999"><ele>149.0</ele><time>2026-04-11T15:59:46.999Z</time></trkpt><trkpt lat="44.74599648675471" lon="8.09612267448022"><ele>149.0</ele><time>2026-04-11T15:59:48.999Z</time></trkpt><trkpt lat="44.745888578298505" lon="8.096144184292056"><ele>149.0</ele><time>2026-04-11T15:59:50.999Z</time></trkpt><trkpt lat="44.745779584047504" lon="8.096157975163457"><ele>149.0</ele><time>2026-04-11T15:59:52.999Z</time></trkpt><trkpt lat="44.74567618987341" lon="8.096181338015878"><ele>149.0</ele><time>2026-04-11T15:59:54.999Z</time></trkpt><trkpt lat="44.74558006949505" lon="8.096179059026559"><ele>149.0</ele><time>2026-04-11T15:59:56.999Z</time></trkpt><trkpt lat="44.74549152237914" lon="8.096119496176291"><ele>149.0</ele><time>2026-04-11T15:59:58.999Z</time></trkpt><trkpt lat="44.74540955894423" lon="8.096035089961775"><ele>149.0</ele><time>2026-04-11T16:00:00.999Z</time></trkpt><trkpt lat="44.74532197832098" lon="8.095956861427734"><ele>149.0</ele><time>2026-04-11T16:00:02.999Z</time></trkpt><trkpt lat="44.745229672250325" lon="8.095873480338785"><ele>149.0</ele><time>2026-04-11T16:00:04.999Z</time></trkpt><trkpt lat="44.74514425219907" lon="8.09578674641117"><ele>149.0</ele><time>2026-04-11T16:00:06.999Z</time></trkpt><trkpt lat="44.745056773196595" lon="8.095698042443882"><ele>149.0</ele><time>2026-04-11T16:00:08.999Z</time></trkpt><trkpt lat="44.74496464525446" lon="8.095611361129041"><ele>149.6</ele><time>2026-04-11T16:00:10.999Z</time></trkpt><trkpt lat="44.74487492365573" lon="8.095520847408114"><ele>150.2</ele><time>2026-04-11T16:00:12.999Z</time></trkpt><trkpt lat="44.74478220381583" lon="8.095434916693057"><ele>150.79999999999998</ele><time>2026-04-11T16:00:14.999Z</time></trkpt><trkpt lat="44.74468535047404" lon="8.09534529078785"><ele>151.4</ele><time>2026-04-11T16:00:16.999Z</time></trkpt><trkpt lat="44.744595738209135" lon="8.095253202860597"><ele>152.0</ele><time>2026-04-11T16:00:18.999Z</time></trkpt><trkpt lat="44.744504714082595" lon="8.095163911310188"><ele>152.0</ele><time>2026-04-11T16:00:20.999Z</time></trkpt><trkpt lat="44.744413684711056" lon="8.095077310656638"><ele>152.0</ele><time>2026-04-11T16:00:22.999Z</time></trkpt><trkpt lat="44.74431866620898" lon="8.094989064064604"><ele>152.0</ele><time>2026-04-11T16:00:25Z</time></trkpt><trkpt lat="44.74423337420282" lon="8.094903114893231"><ele>152.0</ele><time>2026-04-11T16:00:27Z</time></trkpt><trkpt lat="44.7441477275416" lon="8.094824059417958"><ele>152.0</ele><time>2026-04-11T16:00:29Z</time></trkpt><trkpt lat="44.74405959929103" lon="8.094732166680561"><ele>151.25</ele><time>2026-04-11T16:00:31Z</time></trkpt><trkpt lat="44.7439692966721" lon="8.094645267747305"><ele>150.5</ele><time>2026-04-11T16:00:33Z</time></trkpt><trkpt lat="44.743878027443266" lon="8.094551289477621"><ele>149.75</ele><time>2026-04-11T16:00:35Z</time></trkpt><trkpt lat="44.74378622218843" lon="8.094460906730603"><ele>149.0</ele><time>2026-04-11T16:00:37Z</time></trkpt><trkpt lat="44.74369514933227" lon="8.09436154525836"><ele>149.0</ele><time>2026-04-11T16:00:39Z</time></trkpt><trkpt lat="44.743604026276195" lon="8.094274970760859"><ele>149.0</ele><time>2026-04-11T16:00:41Z</time></trkpt><trkpt lat="44.743510579407" lon="8.094183881349867"><ele>149.0</ele><time>2026-04-11T16:00:43Z</time></trkpt><trkpt lat="44.74342356060605" lon="8.09408403417777"><ele>149.0</ele><time>2026-04-11T16:00:45Z</time></trkpt><trkpt lat="44.743326319037365" lon="8.094002405789679"><ele>149.0</ele><time>2026-04-11T16:00:47Z</time></trkpt><trkpt lat="44.74323864453808" lon="8.093919102818992"><ele>148.75</ele><time>2026-04-11T16:00:49Z</time></trkpt><trkpt lat="44.7431472192804" lon="8.093835732500823"><ele>148.5</ele><time>2026-04-11T16:00:51Z</time></trkpt><trkpt lat="44.74305340303418" lon="8.093753190975193"><ele>148.25</ele><time>2026-04-11T16:00:53Z</time></trkpt><trkpt lat="44.74296343217555" lon="8.093667007869842"><ele>148.0</ele><time>2026-04-11T16:00:55Z</time></trkpt><trkpt lat="44.742862675562435" lon="8.093571540420552"><ele>148.0</ele><time>2026-04-11T16:00:57Z</time></trkpt><trkpt lat="44.74277182057997" lon="8.093488984680251"><ele>148.0</ele><time>2026-04-11T16:00:59Z</time></trkpt><trkpt lat="44.74268328113495" lon="8.093403920158988"><ele>148.0</ele><time>2026-04-11T16:01:01Z</time></trkpt><trkpt lat="44.742595797858456" lon="8.093312807862707"><ele>148.0</ele><time>2026-04-11T16:01:03Z</time></trkpt><trkpt lat="44.74249773614288" lon="8.093227788532339"><ele>148.0</ele><time>2026-04-11T16:01:05Z</time></trkpt><trkpt lat="44.74240487750437" lon="8.09314029523176"><ele>149.4</ele><time>2026-04-11T16:01:07Z</time></trkpt><trkpt lat="44.74231502547181" lon="8.093055221225399"><ele>150.8</ele><time>2026-04-11T16:01:09Z</time></trkpt><trkpt lat="44.74222443446894" lon="8.092972105776163"><ele>152.2</ele><time>2026-04-11T16:01:11Z</time></trkpt><trkpt lat="44.74214604666738" lon="8.092887694054403"><ele>153.6</ele><time>2026-04-11T16:01:13Z</time></trkpt><trkpt lat="44.742054465126415" lon="8.092803270485561"><ele>155.0</ele><time>2026-04-11T16:01:15Z</time></trkpt><trkpt lat="44.74196835647179" lon="8.092718790598859"><ele>154.8</ele><time>2026-04-11T16:01:17Z</time></trkpt><trkpt lat="44.741868076155356" lon="8.092634907070206"><ele>154.6</ele><time>2026-04-11T16:01:19Z</time></trkpt><trkpt lat="44.741783875500715" lon="8.092551160496269"><ele>154.4</ele><time>2026-04-11T16:01:21Z</time></trkpt><trkpt lat="44.74169796124363" lon="8.092451955753383"><ele>154.2</ele><time>2026-04-11T16:01:23Z</time></trkpt><trkpt lat="44.74161026417235" lon="8.092380697074395"><ele>154.0</ele><time>2026-04-11T16:01:24.999Z</time></trkpt><trkpt lat="44.74152074678922" lon="8.092299365119818"><ele>154.0</ele><time>2026-04-11T16:01:26.999Z</time></trkpt><trkpt lat="44.74142958781009" lon="8.092221013886565"><ele>154.0</ele><time>2026-04-11T16:01:28.999Z</time></trkpt><trkpt lat="44.741340924248945" lon="8.092141924004462"><ele>154.0</ele><time>2026-04-11T16:01:30.999Z</time></trkpt><trkpt lat="44.741254230666" lon="8.092069372558129"><ele>154.0</ele><time>2026-04-11T16:01:32.999Z</time></trkpt><trkpt lat="44.74116377470558" lon="8.092006796633216"><ele>154.0</ele><time>2026-04-11T16:01:34.999Z</time></trkpt><trkpt lat="44.74108360623079" lon="8.091948572825396"><ele>154.0</ele><time>2026-04-11T16:01:36.999Z</time></trkpt><trkpt lat="44.741012261292845" lon="8.091937124850274"><ele>154.0</ele><time>2026-04-11T16:01:38.999Z</time></trkpt><trkpt lat="44.74093259657543" lon="8.091978264986677"><ele>154.0</ele><time>2026-04-11T16:01:40.999Z</time></trkpt><trkpt lat="44.74086697733442" lon="8.092016702658334"><ele>154.0</ele><time>2026-04-11T16:01:42.999Z</time></trkpt><trkpt lat="44.74080296001494" lon="8.092051167316775"><ele>154.0</ele><time>2026-04-11T16:01:44.999Z</time></trkpt><trkpt lat="44.74074553165771" lon="8.092096256041353"><ele>154.0</ele><time>2026-04-11T16:01:46.999Z</time></trkpt><trkpt lat="44.74066223748393" lon="8.092122846549131"><ele>154.0</ele><time>2026-04-11T16:01:49.999Z</time></trkpt><trkpt lat="44.74057878392304" lon="8.092142844873184"><ele>154.0</ele><time>2026-04-11T16:01:53.999Z</time></trkpt><trkpt lat="44.74049475355289" lon="8.092174906462182"><ele>154.0</ele><time>2026-04-11T16:01:56.999Z</time></trkpt><trkpt lat="44.74042794801893" lon="8.092188298824485"><ele>154.0</ele><time>2026-04-11T16:01:58.999Z</time></trkpt><trkpt lat="44.740347029818416" lon="8.092230808323203"><ele>154.0</ele><time>2026-04-11T16:02:00.999Z</time></trkpt><trkpt lat="44.74027823791687" lon="8.092289130182623"><ele>154.0</ele><time>2026-04-11T16:02:02.999Z</time></trkpt><trkpt lat="44.740193298507364" lon="8.09236763142246"><ele>154.0</ele><time>2026-04-11T16:02:04.999Z</time></trkpt><trkpt lat="44.740102457944786" lon="8.092433142987105"><ele>154.25</ele><time>2026-04-11T16:02:06.999Z</time></trkpt><trkpt lat="44.74000502488121" lon="8.092503041006603"><ele>154.5</ele><time>2026-04-11T16:02:08.999Z</time></trkpt><trkpt lat="44.73990060672603" lon="8.092573129368455"><ele>154.75</ele><time>2026-04-11T16:02:10.999Z</time></trkpt><trkpt lat="44.73979928872008" lon="8.092643851064157"><ele>155.0</ele><time>2026-04-11T16:02:12.999Z</time></trkpt><trkpt lat="44.739693448646406" lon="8.092718412405702"><ele>155.0</ele><time>2026-04-11T16:02:14.999Z</time></trkpt><trkpt lat="44.73959129057287" lon="8.092775286716451"><ele>155.0</ele><time>2026-04-11T16:02:16.999Z</time></trkpt><trkpt lat="44.73949240130595" lon="8.092843131966962"><ele>155.0</ele><time>2026-04-11T16:02:18.999Z</time></trkpt><trkpt lat="44.739382228700954" lon="8.092908590373275"><ele>155.0</ele><time>2026-04-11T16:02:20.999Z</time></trkpt><trkpt lat="44.73927736281752" lon="8.092975584779113"><ele>155.75</ele><time>2026-04-11T16:02:22.999Z</time></trkpt><trkpt lat="44.73916723198725" lon="8.093043938210592"><ele>156.5</ele><time>2026-04-11T16:02:24.999Z</time></trkpt><trkpt lat="44.73906266957254" lon="8.093116864121685"><ele>157.25</ele><time>2026-04-11T16:02:26.999Z</time></trkpt><trkpt lat="44.7389501696789" lon="8.0931931379357"><ele>158.0</ele><time>2026-04-11T16:02:28.999Z</time></trkpt><trkpt lat="44.73884059012858" lon="8.093255236396585"><ele>158.20000000000002</ele><time>2026-04-11T16:02:31Z</time></trkpt><trkpt lat="44.738737810446565" lon="8.093327068727827"><ele>158.4</ele><time>2026-04-11T16:02:33Z</time></trkpt><trkpt lat="44.73867860804334" lon="8.09335889977436"><ele>158.60000000000002</ele><time>2026-04-11T16:02:34Z</time></trkpt><trkpt lat="44.73856665095564" lon="8.093432421439525"><ele>158.8</ele><time>2026-04-11T16:02:36Z</time></trkpt><trkpt lat="44.73845232510624" lon="8.093500757520138"><ele>159.0</ele><time>2026-04-11T16:02:38Z</time></trkpt><trkpt lat="44.73833123926191" lon="8.093558505234812"><ele>159.28571428571428</ele><time>2026-04-11T16:02:40Z</time></trkpt><trkpt lat="44.7382701131315" lon="8.093586647540352"><ele>159.57142857142858</ele><time>2026-04-11T16:02:41Z</time></trkpt><trkpt lat="44.7382072803227" lon="8.093616910030939"><ele>159.85714285714286</ele><time>2026-04-11T16:02:42Z</time></trkpt><trkpt lat="44.73814590106098" lon="8.093637991491114"><ele>160.14285714285714</ele><time>2026-04-11T16:02:43Z</time></trkpt><trkpt lat="44.73808426983708" lon="8.093659743548463"><ele>160.42857142857144</ele><time>2026-04-11T16:02:44Z</time></trkpt><trkpt lat="44.73802089710403" lon="8.093683743993301"><ele>160.71428571428572</ele><time>2026-04-11T16:02:45Z</time></trkpt><trkpt lat="44.73795891415296" lon="8.09370381883877"><ele>161.0</ele><time>2026-04-11T16:02:46Z</time></trkpt><trkpt lat="44.737893078241285" lon="8.09372727513783"><ele>161.0</ele><time>2026-04-11T16:02:47Z</time></trkpt><trkpt lat="44.737765989748176" lon="8.093773801656"><ele>161.0</ele><time>2026-04-11T16:02:49Z</time></trkpt><trkpt lat="44.73769583217527" lon="8.093793953801683"><ele>161.0</ele><time>2026-04-11T16:02:50Z</time></trkpt><trkpt lat="44.73763237167473" lon="8.093826270624673"><ele>161.0</ele><time>2026-04-11T16:02:51Z</time></trkpt><trkpt lat="44.73755843332678" lon="8.093851443427816"><ele>161.0</ele><time>2026-04-11T16:02:52Z</time></trkpt><trkpt lat="44.737484043740494" lon="8.09387129153549"><ele>161.0</ele><time>2026-04-11T16:02:53Z</time></trkpt><trkpt lat="44.73742111162549" lon="8.09389237041629"><ele>161.20000000000002</ele><time>2026-04-11T16:02:54Z</time></trkpt><trkpt lat="44.737305176619344" lon="8.09393373691151"><ele>161.4</ele><time>2026-04-11T16:02:56Z</time></trkpt><trkpt lat="44.737181107040634" lon="8.09396763382888"><ele>161.6</ele><time>2026-04-11T16:02:58Z</time></trkpt><trkpt lat="44.737114801290325" lon="8.093984077563151"><ele>161.8</ele><time>2026-04-11T16:02:59Z</time></trkpt><trkpt lat="44.73705095955905" lon="8.093991682228895"><ele>162.0</ele><time>2026-04-11T16:03:00Z</time></trkpt><trkpt lat="44.73692965867144" lon="8.09400353128731"><ele>162.66666666666666</ele><time>2026-04-11T16:03:02Z</time></trkpt><trkpt lat="44.73686628164768" lon="8.094009954096672"><ele>163.33333333333334</ele><time>2026-04-11T16:03:03Z</time></trkpt><trkpt lat="44.73674232063864" lon="8.094027846565353"><ele>164.0</ele><time>2026-04-11T16:03:05Z</time></trkpt><trkpt lat="44.73661681259194" lon="8.094041949936269"><ele>164.66666666666669</ele><time>2026-04-11T16:03:07Z</time></trkpt><trkpt lat="44.736552571534126" lon="8.0940518740955"><ele>165.33333333333334</ele><time>2026-04-11T16:03:08Z</time></trkpt><trkpt lat="44.73648673702145" lon="8.09405925261103"><ele>166.0</ele><time>2026-04-11T16:03:09Z</time></trkpt><trkpt lat="44.736363160485695" lon="8.094077483972391"><ele>165.83333333333334</ele><time>2026-04-11T16:03:11Z</time></trkpt><trkpt lat="44.736296685772245" lon="8.0940883079893"><ele>165.66666666666669</ele><time>2026-04-11T16:03:12Z</time></trkpt><trkpt lat="44.736177929789285" lon="8.09412059894525"><ele>165.5</ele><time>2026-04-11T16:03:14Z</time></trkpt><trkpt lat="44.736115007761015" lon="8.094136995854386"><ele>165.33333333333334</ele><time>2026-04-11T16:03:15Z</time></trkpt><trkpt lat="44.7360489992533" lon="8.09415227088687"><ele>165.16666666666666</ele><time>2026-04-11T16:03:16Z</time></trkpt><trkpt lat="44.73598107113291" lon="8.094166184519656"><ele>165.0</ele><time>2026-04-11T16:03:17Z</time></trkpt><trkpt lat="44.73585456400584" lon="8.094206445417644"><ele>164.83333333333334</ele><time>2026-04-11T16:03:19Z</time></trkpt><trkpt lat="44.735786534615734" lon="8.094230031380848"><ele>164.66666666666666</ele><time>2026-04-11T16:03:20Z</time></trkpt><trkpt lat="44.73565786700032" lon="8.094263164615464"><ele>164.5</ele><time>2026-04-11T16:03:22Z</time></trkpt><trkpt lat="44.73558940829544" lon="8.094283770560157"><ele>164.33333333333331</ele><time>2026-04-11T16:03:23Z</time></trkpt><trkpt lat="44.73552230910453" lon="8.094302926421598"><ele>164.16666666666666</ele><time>2026-04-11T16:03:24Z</time></trkpt><trkpt lat="44.73545615177493" lon="8.094325656131893"><ele>164.0</ele><time>2026-04-11T16:03:25Z</time></trkpt><trkpt lat="44.73538534317356" lon="8.09434121640574"><ele>164.0</ele><time>2026-04-11T16:03:26Z</time></trkpt><trkpt lat="44.735259289761096" lon="8.09436679141505"><ele>164.0</ele><time>2026-04-11T16:03:28Z</time></trkpt><trkpt lat="44.73518311952654" lon="8.09439320719174"><ele>164.0</ele><time>2026-04-11T16:03:29Z</time></trkpt><trkpt lat="44.735109657514265" lon="8.09442294850227"><ele>164.0</ele><time>2026-04-11T16:03:30Z</time></trkpt><trkpt lat="44.73503953354846" lon="8.094446076910085"><ele>164.0</ele><time>2026-04-11T16:03:31Z</time></trkpt><trkpt lat="44.73496197265098" lon="8.094461552665729"><ele>164.0</ele><time>2026-04-11T16:03:32Z</time></trkpt><trkpt lat="44.73489032286497" lon="8.094487513497123"><ele>163.7142857142857</ele><time>2026-04-11T16:03:33Z</time></trkpt><trkpt lat="44.73481847329727" lon="8.094502661951028"><ele>163.42857142857142</ele><time>2026-04-11T16:03:34Z</time></trkpt><trkpt lat="44.73474721654878" lon="8.094512551595562"><ele>163.14285714285714</ele><time>2026-04-11T16:03:34.999Z</time></trkpt><trkpt lat="44.73467446627351" lon="8.09451414374869"><ele>162.85714285714283</ele><time>2026-04-11T16:03:35.999Z</time></trkpt><trkpt lat="44.734600291042774" lon="8.09450113481048"><ele>162.57142857142856</ele><time>2026-04-11T16:03:36.999Z</time></trkpt><trkpt lat="44.73452655062717" lon="8.094490739072828"><ele>162.28571428571428</ele><time>2026-04-11T16:03:37.999Z</time></trkpt><trkpt lat="44.73444603436762" lon="8.094478755311497"><ele>162.0</ele><time>2026-04-11T16:03:38.999Z</time></trkpt><trkpt lat="44.73437382082161" lon="8.094447274013007"><ele>162.0</ele><time>2026-04-11T16:03:39.999Z</time></trkpt><trkpt lat="44.73430021222813" lon="8.094417232220044"><ele>162.0</ele><time>2026-04-11T16:03:40.999Z</time></trkpt><trkpt lat="44.734227821850595" lon="8.094387458920043"><ele>162.0</ele><time>2026-04-11T16:03:41.999Z</time></trkpt><trkpt lat="44.734159212696504" lon="8.094363272690412"><ele>162.0</ele><time>2026-04-11T16:03:42.999Z</time></trkpt><trkpt lat="44.734074059490894" lon="8.094333444869655"><ele>162.0</ele><time>2026-04-11T16:03:43.999Z</time></trkpt><trkpt lat="44.73399966899969" lon="8.094307110676695"><ele>162.0</ele><time>2026-04-11T16:03:44.999Z</time></trkpt><trkpt lat="44.73392501754687" lon="8.094282483738002"><ele>162.0</ele><time>2026-04-11T16:03:45.999Z</time></trkpt><trkpt lat="44.73385023021513" lon="8.094258315780554"><ele>162.0</ele><time>2026-04-11T16:03:46.999Z</time></trkpt><trkpt lat="44.7337764450545" lon="8.094235149916189"><ele>162.0</ele><time>2026-04-11T16:03:47.999Z</time></trkpt><trkpt lat="44.733705672108336" lon="8.094211565942615"><ele>162.0</ele><time>2026-04-11T16:03:48.999Z</time></trkpt><trkpt lat="44.73363630002823" lon="8.09418751217291"><ele>162.0</ele><time>2026-04-11T16:03:49.999Z</time></trkpt><trkpt lat="44.73356724557636" lon="8.094157879644298"><ele>162.0</ele><time>2026-04-11T16:03:50.999Z</time></trkpt><trkpt lat="44.73349992420757" lon="8.094131918520253"><ele>162.0</ele><time>2026-04-11T16:03:51.999Z</time></trkpt><trkpt lat="44.73342752439075" lon="8.094111079805957"><ele>162.28571428571428</ele><time>2026-04-11T16:03:52.999Z</time></trkpt><trkpt lat="44.73335800430028" lon="8.094103069626291"><ele>162.57142857142856</ele><time>2026-04-11T16:03:53.999Z</time></trkpt><trkpt lat="44.733287526459485" lon="8.09409101860351"><ele>162.85714285714283</ele><time>2026-04-11T16:03:54.999Z</time></trkpt><trkpt lat="44.73321997383907" lon="8.094084187555424"><ele>163.14285714285714</ele><time>2026-04-11T16:03:55.999Z</time></trkpt><trkpt lat="44.73314999922545" lon="8.094089733139231"><ele>163.42857142857142</ele><time>2026-04-11T16:03:56.999Z</time></trkpt><trkpt lat="44.733085990758596" lon="8.09409743413147"><ele>163.7142857142857</ele><time>2026-04-11T16:03:57.999Z</time></trkpt><trkpt lat="44.733019666047305" lon="8.094099843123088"><ele>164.0</ele><time>2026-04-11T16:03:58.999Z</time></trkpt><trkpt lat="44.73294857844924" lon="8.094103988154785"><ele>163.99999999999997</ele><time>2026-04-11T16:03:59.999Z</time></trkpt><trkpt lat="44.732885610486264" lon="8.094110699570482"><ele>164.0</ele><time>2026-04-11T16:04:00.999Z</time></trkpt><trkpt lat="44.73281801447153" lon="8.09411867195275"><ele>164.0</ele><time>2026-04-11T16:04:01.999Z</time></trkpt><trkpt lat="44.73275024219899" lon="8.094129343376462"><ele>164.0</ele><time>2026-04-11T16:04:02.999Z</time></trkpt><trkpt lat="44.73268328410412" lon="8.094134713248705"><ele>164.0</ele><time>2026-04-11T16:04:03.999Z</time></trkpt><trkpt lat="44.732612152798545" lon="8.094139824615384"><ele>163.99999999999997</ele><time>2026-04-11T16:04:04.999Z</time></trkpt><trkpt lat="44.73254129662866" lon="8.09414622766374"><ele>164.0</ele><time>2026-04-11T16:04:05.999Z</time></trkpt><trkpt lat="44.73246986235487" lon="8.094154168366462"><ele>164.28571428571428</ele><time>2026-04-11T16:04:06.999Z</time></trkpt><trkpt lat="44.73239977409339" lon="8.094165686022356"><ele>164.57142857142856</ele><time>2026-04-11T16:04:07.999Z</time></trkpt><trkpt lat="44.73233021379673" lon="8.094168451404041"><ele>164.85714285714283</ele><time>2026-04-11T16:04:08.999Z</time></trkpt><trkpt lat="44.73225773300685" lon="8.09417106895563"><ele>165.14285714285714</ele><time>2026-04-11T16:04:09.999Z</time></trkpt><trkpt lat="44.73218784080316" lon="8.094178876907813"><ele>165.42857142857144</ele><time>2026-04-11T16:04:10.999Z</time></trkpt><trkpt lat="44.73211494219273" lon="8.09418543769973"><ele>165.7142857142857</ele><time>2026-04-11T16:04:11.999Z</time></trkpt><trkpt lat="44.73203900642754" lon="8.094192702547266"><ele>166.0</ele><time>2026-04-11T16:04:12.999Z</time></trkpt><trkpt lat="44.73196169309074" lon="8.094196929567143"><ele>166.57142857142856</ele><time>2026-04-11T16:04:13.999Z</time></trkpt><trkpt lat="44.7318882720102" lon="8.094203623744434"><ele>167.14285714285717</ele><time>2026-04-11T16:04:14.999Z</time></trkpt><trkpt lat="44.731814749211274" lon="8.094213589808827"><ele>167.71428571428572</ele><time>2026-04-11T16:04:15.999Z</time></trkpt><trkpt lat="44.73174320159602" lon="8.094219465406773"><ele>168.28571428571428</ele><time>2026-04-11T16:04:16.999Z</time></trkpt><trkpt lat="44.73166822944561" lon="8.094223374468642"><ele>168.85714285714283</ele><time>2026-04-11T16:04:17.999Z</time></trkpt><trkpt lat="44.73159701994848" lon="8.09422840605779"><ele>169.42857142857144</ele><time>2026-04-11T16:04:18.999Z</time></trkpt><trkpt lat="44.731527597969496" lon="8.094234667082903"><ele>170.0</ele><time>2026-04-11T16:04:19.999Z</time></trkpt><trkpt lat="44.73146004390118" lon="8.094240728087657"><ele>170.0</ele><time>2026-04-11T16:04:20.999Z</time></trkpt><trkpt lat="44.73139077652951" lon="8.094244878363451"><ele>170.0</ele><time>2026-04-11T16:04:21.999Z</time></trkpt><trkpt lat="44.73132478496192" lon="8.094249941755944"><ele>170.0</ele><time>2026-04-11T16:04:22.999Z</time></trkpt><trkpt lat="44.73126028388699" lon="8.094254170584007"><ele>170.0</ele><time>2026-04-11T16:04:23.999Z</time></trkpt><trkpt lat="44.731140328143645" lon="8.094267652588035"><ele>170.0</ele><time>2026-04-11T16:04:25.999Z</time></trkpt><trkpt lat="44.731026561115875" lon="8.094275114593772"><ele>170.0</ele><time>2026-04-11T16:04:27.999Z</time></trkpt><trkpt lat="44.73092045089199" lon="8.094277979385346"><ele>169.8</ele><time>2026-04-11T16:04:29.999Z</time></trkpt><trkpt lat="44.730818799815474" lon="8.094288887943497"><ele>169.6</ele><time>2026-04-11T16:04:31.999Z</time></trkpt><trkpt lat="44.73072184788222" lon="8.094299540126169"><ele>169.39999999999998</ele><time>2026-04-11T16:04:33.999Z</time></trkpt><trkpt lat="44.7306291384107" lon="8.094307089207758"><ele>169.2</ele><time>2026-04-11T16:04:35.999Z</time></trkpt><trkpt lat="44.73053991066468" lon="8.09431205496782"><ele>169.0</ele><time>2026-04-11T16:04:39Z</time></trkpt><trkpt lat="44.73047367595294" lon="8.094250948132096"><ele>169.0</ele><time>2026-04-11T16:04:42Z</time></trkpt><trkpt lat="44.73046486874766" lon="8.094146363170308"><ele>169.0</ele><time>2026-04-11T16:04:46Z</time></trkpt><trkpt lat="44.73041128884256" lon="8.094083980234549"><ele>169.0</ele><time>2026-04-11T16:10:09.999Z</time></trkpt><trkpt lat="44.73034480176609" lon="8.09406870239545"><ele>169.0</ele><time>2026-04-11T16:10:15.999Z</time></trkpt><trkpt lat="44.73030482733038" lon="8.094158424705057"><ele>169.0</ele><time>2026-04-11T16:10:20.999Z</time></trkpt><trkpt lat="44.730312683481" lon="8.094253341740538"><ele>169.0</ele><time>2026-04-11T16:10:23.999Z</time></trkpt><trkpt lat="44.730337707630696" lon="8.094338078800646"><ele>169.0</ele><time>2026-04-11T16:10:27.999Z</time></trkpt><trkpt lat="44.73039317052433" lon="8.094397921271542"><ele>169.0</ele><time>2026-04-11T16:10:30.999Z</time></trkpt><trkpt lat="44.730459248662136" lon="8.094399752563051"><ele>169.0</ele><time>2026-04-11T16:10:32.999Z</time></trkpt><trkpt lat="44.73052496608441" lon="8.09439194672328"><ele>169.0</ele><time>2026-04-11T16:10:34.999Z</time></trkpt><trkpt lat="44.730596181916034" lon="8.094403311725744"><ele>169.0</ele><time>2026-04-11T16:10:36.999Z</time></trkpt><trkpt lat="44.73068484229252" lon="8.094396259898554"><ele>169.0</ele><time>2026-04-11T16:10:38.999Z</time></trkpt><trkpt lat="44.730785214313904" lon="8.094392421702853"><ele>169.0</ele><time>2026-04-11T16:10:40.999Z</time></trkpt><trkpt lat="44.73089874331556" lon="8.094381589547131"><ele>169.0</ele><time>2026-04-11T16:10:42.999Z</time></trkpt><trkpt lat="44.73101028393426" lon="8.094363586487782"><ele>169.0</ele><time>2026-04-11T16:10:44.999Z</time></trkpt><trkpt lat="44.73112561510359" lon="8.0943521350958"><ele>169.0</ele><time>2026-04-11T16:10:46.999Z</time></trkpt><trkpt lat="44.73124959617071" lon="8.09434522381484"><ele>169.0</ele><time>2026-04-11T16:10:48.999Z</time></trkpt><trkpt lat="44.731315724053374" lon="8.094338019507525"><ele>169.0</ele><time>2026-04-11T16:10:49.999Z</time></trkpt><trkpt lat="44.73138027800241" lon="8.094333219008949"><ele>169.14285714285714</ele><time>2026-04-11T16:10:50.999Z</time></trkpt><trkpt lat="44.73144613828571" lon="8.094328649095074"><ele>169.28571428571428</ele><time>2026-04-11T16:10:51.999Z</time></trkpt><trkpt lat="44.73151734054773" lon="8.094323304804986"><ele>169.42857142857144</ele><time>2026-04-11T16:10:52.999Z</time></trkpt><trkpt lat="44.73158487942889" lon="8.094315327445313"><ele>169.57142857142856</ele><time>2026-04-11T16:10:54Z</time></trkpt><trkpt lat="44.73165307218941" lon="8.094308920542298"><ele>169.7142857142857</ele><time>2026-04-11T16:10:55Z</time></trkpt><trkpt lat="44.731719558481785" lon="8.094305142143208"><ele>169.85714285714286</ele><time>2026-04-11T16:10:56Z</time></trkpt><trkpt lat="44.73178993667019" lon="8.09429575131705"><ele>170.0</ele><time>2026-04-11T16:10:57Z</time></trkpt><trkpt lat="44.73186111088022" lon="8.094288096058529"><ele>169.42857142857144</ele><time>2026-04-11T16:10:58Z</time></trkpt><trkpt lat="44.731935359000445" lon="8.094282113412032"><ele>168.85714285714283</ele><time>2026-04-11T16:10:59Z</time></trkpt><trkpt lat="44.73200597155571" lon="8.094279614678179"><ele>168.28571428571428</ele><time>2026-04-11T16:11:00Z</time></trkpt><trkpt lat="44.73207846948806" lon="8.09427503111093"><ele>167.71428571428572</ele><time>2026-04-11T16:11:01Z</time></trkpt><trkpt lat="44.73215063509343" lon="8.094268112791486"><ele>167.14285714285717</ele><time>2026-04-11T16:11:02Z</time></trkpt><trkpt lat="44.73222142798513" lon="8.09426298757488"><ele>166.57142857142856</ele><time>2026-04-11T16:11:03Z</time></trkpt><trkpt lat="44.732296166277266" lon="8.094254342053093"><ele>166.0</ele><time>2026-04-11T16:11:04Z</time></trkpt><trkpt lat="44.732370101856205" lon="8.094250192059143"><ele>166.0</ele><time>2026-04-11T16:11:05Z</time></trkpt><trkpt lat="44.73244643233822" lon="8.094241003438446"><ele>166.0</ele><time>2026-04-11T16:11:06Z</time></trkpt><trkpt lat="44.73252111755781" lon="8.094236283313567"><ele>166.0</ele><time>2026-04-11T16:11:07Z</time></trkpt><trkpt lat="44.732597372264166" lon="8.094227635806952"><ele>166.0</ele><time>2026-04-11T16:11:08Z</time></trkpt><trkpt lat="44.732673795238" lon="8.094221610988624"><ele>166.0</ele><time>2026-04-11T16:11:09Z</time></trkpt><trkpt lat="44.732747791176045" lon="8.094213874407762"><ele>166.0</ele><time>2026-04-11T16:11:10Z</time></trkpt><trkpt lat="44.73282567090336" lon="8.094208942213061"><ele>165.66666666666669</ele><time>2026-04-11T16:11:11Z</time></trkpt><trkpt lat="44.732905944629415" lon="8.094206036143722"><ele>165.33333333333334</ele><time>2026-04-11T16:11:12Z</time></trkpt><trkpt lat="44.73298920691101" lon="8.09420169134649"><ele>165.0</ele><time>2026-04-11T16:11:13Z</time></trkpt><trkpt lat="44.73307364968296" lon="8.094190615265335"><ele>164.66666666666666</ele><time>2026-04-11T16:11:14Z</time></trkpt><trkpt lat="44.733157194454186" lon="8.094185244074545"><ele>164.33333333333331</ele><time>2026-04-11T16:11:15Z</time></trkpt><trkpt lat="44.733245346239286" lon="8.09418223432433"><ele>164.0</ele><time>2026-04-11T16:11:16Z</time></trkpt><trkpt lat="44.7333319761659" lon="8.094184831336479"><ele>164.0</ele><time>2026-04-11T16:11:17Z</time></trkpt><trkpt lat="44.73342220567444" lon="8.094211640517166"><ele>164.0</ele><time>2026-04-11T16:11:18Z</time></trkpt><trkpt lat="44.73351171475115" lon="8.09423394855208"><ele>164.0</ele><time>2026-04-11T16:11:19Z</time></trkpt><trkpt lat="44.73359939979019" lon="8.094261884033331"><ele>164.0</ele><time>2026-04-11T16:11:20Z</time></trkpt><trkpt lat="44.733687037681754" lon="8.09429273418496"><ele>164.0</ele><time>2026-04-11T16:11:21Z</time></trkpt><trkpt lat="44.73377492328471" lon="8.094323272528792"><ele>163.66666666666666</ele><time>2026-04-11T16:11:22Z</time></trkpt><trkpt lat="44.733859743444995" lon="8.094350566691512"><ele>163.33333333333331</ele><time>2026-04-11T16:11:23Z</time></trkpt><trkpt lat="44.73394354384242" lon="8.094378072897593"><ele>163.0</ele><time>2026-04-11T16:11:24Z</time></trkpt><trkpt lat="44.7340241589928" lon="8.094406219316118"><ele>162.66666666666666</ele><time>2026-04-11T16:11:25Z</time></trkpt><trkpt lat="44.73410489411213" lon="8.094433476845088"><ele>162.33333333333334</ele><time>2026-04-11T16:11:26Z</time></trkpt><trkpt lat="44.73418404985978" lon="8.094464473043184"><ele>162.0</ele><time>2026-04-11T16:11:27Z</time></trkpt><trkpt lat="44.734265738663005" lon="8.094492428780697"><ele>162.0</ele><time>2026-04-11T16:11:28Z</time></trkpt><trkpt lat="44.734346043886866" lon="8.094519375459813"><ele>162.0</ele><time>2026-04-11T16:11:29Z</time></trkpt><trkpt lat="44.73442808632615" lon="8.094548837990583"><ele>162.0</ele><time>2026-04-11T16:11:30Z</time></trkpt><trkpt lat="44.73451252714399" lon="8.0945695603636"><ele>162.0</ele><time>2026-04-11T16:11:31Z</time></trkpt><trkpt lat="44.73459463402277" lon="8.09458996925792"><ele>162.0</ele><time>2026-04-11T16:11:32Z</time></trkpt><trkpt lat="44.73467780510583" lon="8.094599238669286"><ele>162.0</ele><time>2026-04-11T16:11:33Z</time></trkpt><trkpt lat="44.73476285073991" lon="8.094590989312568"><ele>162.0</ele><time>2026-04-11T16:11:34Z</time></trkpt><trkpt lat="44.73484689604193" lon="8.094581294084637"><ele>162.0</ele><time>2026-04-11T16:11:35Z</time></trkpt><trkpt lat="44.73493169456406" lon="8.094561131572036"><ele>162.0</ele><time>2026-04-11T16:11:36Z</time></trkpt><trkpt lat="44.735014582466675" lon="8.094539830072815"><ele>162.0</ele><time>2026-04-11T16:11:37Z</time></trkpt><trkpt lat="44.73509878602823" lon="8.094510201014364"><ele>162.0</ele><time>2026-04-11T16:11:38Z</time></trkpt><trkpt lat="44.73518468639501" lon="8.094484453534218"><ele>162.0</ele><time>2026-04-11T16:11:39Z</time></trkpt><trkpt lat="44.73526793258161" lon="8.094464917826842"><ele>162.33333333333334</ele><time>2026-04-11T16:11:40Z</time></trkpt><trkpt lat="44.735353805377606" lon="8.094440034762695"><ele>162.66666666666666</ele><time>2026-04-11T16:11:41Z</time></trkpt><trkpt lat="44.735438999130764" lon="8.094416788197256"><ele>163.0</ele><time>2026-04-11T16:11:42Z</time></trkpt><trkpt lat="44.73552726857779" lon="8.094393419831079"><ele>163.33333333333331</ele><time>2026-04-11T16:11:43Z</time></trkpt><trkpt lat="44.73561048354297" lon="8.09436049374303"><ele>163.66666666666666</ele><time>2026-04-11T16:11:44Z</time></trkpt><trkpt lat="44.73569453301734" lon="8.094335602279326"><ele>164.0</ele><time>2026-04-11T16:11:45Z</time></trkpt><trkpt lat="44.73577925796359" lon="8.094311317516185"><ele>164.0</ele><time>2026-04-11T16:11:46Z</time></trkpt><trkpt lat="44.735860262594834" lon="8.094289981202202"><ele>164.0</ele><time>2026-04-11T16:11:47Z</time></trkpt><trkpt lat="44.73594565620923" lon="8.094264134982692"><ele>164.0</ele><time>2026-04-11T16:11:48Z</time></trkpt><trkpt lat="44.73602969634486" lon="8.094240586433893"><ele>164.0</ele><time>2026-04-11T16:11:49Z</time></trkpt><trkpt lat="44.73611452539419" lon="8.094217578160578"><ele>164.0</ele><time>2026-04-11T16:11:50Z</time></trkpt><trkpt lat="44.736197170837784" lon="8.094198968445179"><ele>164.0</ele><time>2026-04-11T16:11:51Z</time></trkpt><trkpt lat="44.736283000922946" lon="8.094185205025806"><ele>164.16666666666666</ele><time>2026-04-11T16:11:52Z</time></trkpt><trkpt lat="44.73637124087434" lon="8.09416250545635"><ele>164.33333333333331</ele><time>2026-04-11T16:11:53Z</time></trkpt><trkpt lat="44.73645987411037" lon="8.094152909103881"><ele>164.5</ele><time>2026-04-11T16:11:54Z</time></trkpt><trkpt lat="44.736545461424946" lon="8.094139533098414"><ele>164.66666666666666</ele><time>2026-04-11T16:11:54.999Z</time></trkpt><trkpt lat="44.73663198020247" lon="8.094131946532771"><ele>164.83333333333334</ele><time>2026-04-11T16:11:55.999Z</time></trkpt><trkpt lat="44.736718761770284" lon="8.094120537865834"><ele>165.0</ele><time>2026-04-11T16:11:56.999Z</time></trkpt><trkpt lat="44.73680563032526" lon="8.094109471739003"><ele>164.6</ele><time>2026-04-11T16:11:57.999Z</time></trkpt><trkpt lat="44.73689380954038" lon="8.094095714568486"><ele>164.2</ele><time>2026-04-11T16:11:58.999Z</time></trkpt><trkpt lat="44.736982883108276" lon="8.094082758972338"><ele>163.8</ele><time>2026-04-11T16:11:59.999Z</time></trkpt><trkpt lat="44.73707298470501" lon="8.094067094180138"><ele>163.4</ele><time>2026-04-11T16:12:00.999Z</time></trkpt><trkpt lat="44.737164503925726" lon="8.09404874986333"><ele>163.0</ele><time>2026-04-11T16:12:01.999Z</time></trkpt><trkpt lat="44.73725422116681" lon="8.094031247579922"><ele>162.8</ele><time>2026-04-11T16:12:02.999Z</time></trkpt><trkpt lat="44.73734366366767" lon="8.094003217141859"><ele>162.60000000000002</ele><time>2026-04-11T16:12:03.999Z</time></trkpt><trkpt lat="44.737431079630404" lon="8.09397069751208"><ele>162.39999999999998</ele><time>2026-04-11T16:12:04.999Z</time></trkpt><trkpt lat="44.7375199662512" lon="8.093942331463847"><ele>162.2</ele><time>2026-04-11T16:12:05.999Z</time></trkpt><trkpt lat="44.737609613607745" lon="8.093914833299038"><ele>162.0</ele><time>2026-04-11T16:12:06.999Z</time></trkpt><trkpt lat="44.73769821242939" lon="8.093880782317203"><ele>161.8</ele><time>2026-04-11T16:12:07.999Z</time></trkpt><trkpt lat="44.73778652125309" lon="8.093850612078482"><ele>161.6</ele><time>2026-04-11T16:12:08.999Z</time></trkpt><trkpt lat="44.737876760278006" lon="8.093820689366249"><ele>161.4</ele><time>2026-04-11T16:12:09.999Z</time></trkpt><trkpt lat="44.73796771183277" lon="8.093787876578658"><ele>161.20000000000002</ele><time>2026-04-11T16:12:10.999Z</time></trkpt><trkpt lat="44.738059714981" lon="8.093753535054597"><ele>161.0</ele><time>2026-04-11T16:12:11.999Z</time></trkpt><trkpt lat="44.738150815573285" lon="8.093722450057303"><ele>161.0</ele><time>2026-04-11T16:12:12.999Z</time></trkpt><trkpt lat="44.7382402238336" lon="8.093686364405002"><ele>161.0</ele><time>2026-04-11T16:12:13.999Z</time></trkpt><trkpt lat="44.73832642130237" lon="8.093646060382198"><ele>161.0</ele><time>2026-04-11T16:12:14.999Z</time></trkpt><trkpt lat="44.73841515536856" lon="8.09359852873315"><ele>161.0</ele><time>2026-04-11T16:12:15.999Z</time></trkpt><trkpt lat="44.73850220837722" lon="8.093555031236564"><ele>161.0</ele><time>2026-04-11T16:12:16.999Z</time></trkpt><trkpt lat="44.73858768914496" lon="8.093507285240982"><ele>160.60000000000002</ele><time>2026-04-11T16:12:17.999Z</time></trkpt><trkpt lat="44.73867660595872" lon="8.093449486121152"><ele>160.20000000000002</ele><time>2026-04-11T16:12:18.999Z</time></trkpt><trkpt lat="44.73876300928847" lon="8.09339751623826"><ele>159.8</ele><time>2026-04-11T16:12:19.999Z</time></trkpt><trkpt lat="44.738847037661756" lon="8.093344331449206"><ele>159.4</ele><time>2026-04-11T16:12:20.999Z</time></trkpt><trkpt lat="44.73893091196177" lon="8.093294013833736"><ele>159.0</ele><time>2026-04-11T16:12:21.999Z</time></trkpt><trkpt lat="44.739015736328156" lon="8.093238870776904"><ele>158.8</ele><time>2026-04-11T16:12:22.999Z</time></trkpt><trkpt lat="44.73909788074187" lon="8.093180947470213"><ele>158.60000000000002</ele><time>2026-04-11T16:12:23.999Z</time></trkpt><trkpt lat="44.739181322909495" lon="8.093123327206218"><ele>158.4</ele><time>2026-04-11T16:12:24.999Z</time></trkpt><trkpt lat="44.73927104931295" lon="8.093072237716669"><ele>158.20000000000002</ele><time>2026-04-11T16:12:25.999Z</time></trkpt><trkpt lat="44.73936033441652" lon="8.093015649768667"><ele>158.0</ele><time>2026-04-11T16:12:26.999Z</time></trkpt><trkpt lat="44.73944915496685" lon="8.092955678170007"><ele>157.4</ele><time>2026-04-11T16:12:27.999Z</time></trkpt><trkpt lat="44.73953485505576" lon="8.092897298137846"><ele>156.8</ele><time>2026-04-11T16:12:28.999Z</time></trkpt><trkpt lat="44.73962268675601" lon="8.092842385181482"><ele>156.2</ele><time>2026-04-11T16:12:29.999Z</time></trkpt><trkpt lat="44.73970967710843" lon="8.092788413910412"><ele>155.6</ele><time>2026-04-11T16:12:30.999Z</time></trkpt><trkpt lat="44.739794295856306" lon="8.092734406227141"><ele>155.0</ele><time>2026-04-11T16:12:31.999Z</time></trkpt><trkpt lat="44.73988404480534" lon="8.092674334868422"><ele>155.0</ele><time>2026-04-11T16:12:32.999Z</time></trkpt><trkpt lat="44.739971734723724" lon="8.092612691843174"><ele>155.0</ele><time>2026-04-11T16:12:33.999Z</time></trkpt><trkpt lat="44.74005708216403" lon="8.092555111101786"><ele>155.0</ele><time>2026-04-11T16:12:34.999Z</time></trkpt><trkpt lat="44.74013689128016" lon="8.09249288582896"><ele>155.0</ele><time>2026-04-11T16:12:35.999Z</time></trkpt><trkpt lat="44.74021479523342" lon="8.092426743851107"><ele>155.0</ele><time>2026-04-11T16:12:36.999Z</time></trkpt><trkpt lat="44.740293500573394" lon="8.092355812066954"><ele>154.8</ele><time>2026-04-11T16:12:37.999Z</time></trkpt><trkpt lat="44.740367752710156" lon="8.092277507292522"><ele>154.6</ele><time>2026-04-11T16:12:38.999Z</time></trkpt><trkpt lat="44.74043842831835" lon="8.092197797106902"><ele>154.4</ele><time>2026-04-11T16:12:39.999Z</time></trkpt><trkpt lat="44.740508314445194" lon="8.092113825181286"><ele>154.2</ele><time>2026-04-11T16:12:40.999Z</time></trkpt><trkpt lat="44.7405739999489" lon="8.092025839718822"><ele>154.0</ele><time>2026-04-11T16:12:41.999Z</time></trkpt><trkpt lat="44.74063925863191" lon="8.091939046490454"><ele>154.0</ele><time>2026-04-11T16:12:42.999Z</time></trkpt><trkpt lat="44.740697398777165" lon="8.091843153186453"><ele>154.0</ele><time>2026-04-11T16:12:43.999Z</time></trkpt><trkpt lat="44.74075524050053" lon="8.091742141869847"><ele>154.0</ele><time>2026-04-11T16:12:44.999Z</time></trkpt><trkpt lat="44.74081182983287" lon="8.09163865139809"><ele>154.0</ele><time>2026-04-11T16:12:45.999Z</time></trkpt><trkpt lat="44.74086585573083" lon="8.091531151326095"><ele>154.0</ele><time>2026-04-11T16:12:46.999Z</time></trkpt><trkpt lat="44.74091986602177" lon="8.091420787408357"><ele>154.0</ele><time>2026-04-11T16:12:47.999Z</time></trkpt><trkpt lat="44.74096931516701" lon="8.091309259926792"><ele>154.0</ele><time>2026-04-11T16:12:48.999Z</time></trkpt><trkpt lat="44.74101564116321" lon="8.091196870035587"><ele>154.0</ele><time>2026-04-11T16:12:49.999Z</time></trkpt><trkpt lat="44.741054761216326" lon="8.091078691273578"><ele>154.0</ele><time>2026-04-11T16:12:50.999Z</time></trkpt><trkpt lat="44.74109108949042" lon="8.090957631319853"><ele>154.0</ele><time>2026-04-11T16:12:51.999Z</time></trkpt><trkpt lat="44.74112558931363" lon="8.090837564449222"><ele>153.8</ele><time>2026-04-11T16:12:52.999Z</time></trkpt><trkpt lat="44.74115477209229" lon="8.090715720676897"><ele>153.60000000000002</ele><time>2026-04-11T16:12:53.999Z</time></trkpt><trkpt lat="44.741179835788955" lon="8.090590921186255"><ele>153.4</ele><time>2026-04-11T16:12:54.999Z</time></trkpt><trkpt lat="44.74120287394944" lon="8.090465776333021"><ele>153.20000000000002</ele><time>2026-04-11T16:12:55.999Z</time></trkpt><trkpt lat="44.74122340582608" lon="8.090344723130446"><ele>153.0</ele><time>2026-04-11T16:12:56.999Z</time></trkpt><trkpt lat="44.74124287109669" lon="8.090215692180987"><ele>153.0</ele><time>2026-04-11T16:12:57.999Z</time></trkpt><trkpt lat="44.74125923088406" lon="8.090084786015469"><ele>153.0</ele><time>2026-04-11T16:12:58.999Z</time></trkpt><trkpt lat="44.74127772820339" lon="8.089959492561254"><ele>153.0</ele><time>2026-04-11T16:13:00Z</time></trkpt><trkpt lat="44.741296584636665" lon="8.089831059477252"><ele>153.0</ele><time>2026-04-11T16:13:01Z</time></trkpt><trkpt lat="44.74131905949545" lon="8.089708031711655"><ele>153.0</ele><time>2026-04-11T16:13:02Z</time></trkpt><trkpt lat="44.74133871977731" lon="8.089580434963837"><ele>152.20000000000002</ele><time>2026-04-11T16:13:03Z</time></trkpt><trkpt lat="44.7413543319543" lon="8.08945047556384"><ele>151.4</ele><time>2026-04-11T16:13:04Z</time></trkpt><trkpt lat="44.74137419435637" lon="8.089317072432397"><ele>150.60000000000002</ele><time>2026-04-11T16:13:05Z</time></trkpt><trkpt lat="44.741393167593834" lon="8.089191290909922"><ele>149.8</ele><time>2026-04-11T16:13:06Z</time></trkpt><trkpt lat="44.741410005000695" lon="8.08906249410248"><ele>149.0</ele><time>2026-04-11T16:13:07Z</time></trkpt><trkpt lat="44.74142912962968" lon="8.088934623607292"><ele>147.6</ele><time>2026-04-11T16:13:08Z</time></trkpt><trkpt lat="44.74144671813456" lon="8.088804322957069"><ele>146.2</ele><time>2026-04-11T16:13:09Z</time></trkpt><trkpt lat="44.74146644633344" lon="8.088675674164538"><ele>144.79999999999998</ele><time>2026-04-11T16:13:10Z</time></trkpt><trkpt lat="44.74148459666766" lon="8.088544784286118"><ele>143.4</ele><time>2026-04-11T16:13:11Z</time></trkpt><trkpt lat="44.74150290518277" lon="8.088415556110597"><ele>142.0</ele><time>2026-04-11T16:13:12Z</time></trkpt><trkpt lat="44.74151984217033" lon="8.088285094153598"><ele>142.4</ele><time>2026-04-11T16:13:13Z</time></trkpt><trkpt lat="44.741539038437594" lon="8.088156078800827"><ele>142.79999999999998</ele><time>2026-04-11T16:13:14Z</time></trkpt><trkpt lat="44.741556997610985" lon="8.088025558712607"><ele>143.2</ele><time>2026-04-11T16:13:15Z</time></trkpt><trkpt lat="44.741573657954824" lon="8.087896309751292"><ele>143.6</ele><time>2026-04-11T16:13:16Z</time></trkpt><trkpt lat="44.74159014185599" lon="8.087767407730528"><ele>144.0</ele><time>2026-04-11T16:13:17Z</time></trkpt><trkpt lat="44.74160900678" lon="8.087640324631968"><ele>144.0</ele><time>2026-04-11T16:13:18Z</time></trkpt><trkpt lat="44.74162809354945" lon="8.087514450932495"><ele>144.0</ele><time>2026-04-11T16:13:19Z</time></trkpt><trkpt lat="44.741646097484576" lon="8.087386600659643"><ele>144.0</ele><time>2026-04-11T16:13:20Z</time></trkpt><trkpt lat="44.74166477919502" lon="8.087256682784211"><ele>144.0</ele><time>2026-04-11T16:13:21Z</time></trkpt><trkpt lat="44.74168291445882" lon="8.087129046869345"><ele>144.0</ele><time>2026-04-11T16:13:22Z</time></trkpt><trkpt lat="44.74170254480144" lon="8.08700135044669"><ele>145.0</ele><time>2026-04-11T16:13:23Z</time></trkpt><trkpt lat="44.741720607217665" lon="8.086872192298463"><ele>146.0</ele><time>2026-04-11T16:13:24Z</time></trkpt><trkpt lat="44.74174032672865" lon="8.086737785931842"><ele>147.0</ele><time>2026-04-11T16:13:25Z</time></trkpt><trkpt lat="44.74175803030966" lon="8.086607125160924"><ele>148.0</ele><time>2026-04-11T16:13:26Z</time></trkpt><trkpt lat="44.74177395916419" lon="8.086476101473027"><ele>149.0</ele><time>2026-04-11T16:13:27Z</time></trkpt><trkpt lat="44.74179158932919" lon="8.08634352374898"><ele>149.0</ele><time>2026-04-11T16:13:28Z</time></trkpt><trkpt lat="44.7418117310876" lon="8.086209340880535"><ele>149.0</ele><time>2026-04-11T16:13:29Z</time></trkpt><trkpt lat="44.74183013121844" lon="8.086070230140706"><ele>149.0</ele><time>2026-04-11T16:13:30Z</time></trkpt><trkpt lat="44.74185448543329" lon="8.08593570964567"><ele>149.0</ele><time>2026-04-11T16:13:31Z</time></trkpt><trkpt lat="44.74187126582702" lon="8.085795661501399"><ele>149.0</ele><time>2026-04-11T16:13:32Z</time></trkpt><trkpt lat="44.741890175995" lon="8.085660585240099"><ele>149.0</ele><time>2026-04-11T16:13:33Z</time></trkpt><trkpt lat="44.741908678328834" lon="8.085530481162035"><ele>149.0</ele><time>2026-04-11T16:13:34Z</time></trkpt><trkpt lat="44.74192692736197" lon="8.08539794305837"><ele>149.0</ele><time>2026-04-11T16:13:35Z</time></trkpt><trkpt lat="44.741945372775284" lon="8.085270457422501"><ele>149.0</ele><time>2026-04-11T16:13:36Z</time></trkpt><trkpt lat="44.74196307105186" lon="8.085137942997596"><ele>149.0</ele><time>2026-04-11T16:13:37Z</time></trkpt><trkpt lat="44.74198201409592" lon="8.085006041392338"><ele>149.2</ele><time>2026-04-11T16:13:38Z</time></trkpt><trkpt lat="44.74200634014168" lon="8.084868695593599"><ele>149.4</ele><time>2026-04-11T16:13:39Z</time></trkpt><trkpt lat="44.74202154097014" lon="8.084725283894421"><ele>149.6</ele><time>2026-04-11T16:13:40Z</time></trkpt><trkpt lat="44.742039554537" lon="8.084589129551253"><ele>149.8</ele><time>2026-04-11T16:13:41Z</time></trkpt><trkpt lat="44.7420606035488" lon="8.084451367348368"><ele>150.0</ele><time>2026-04-11T16:13:42Z</time></trkpt><trkpt lat="44.74207966387753" lon="8.08432050094062"><ele>150.0</ele><time>2026-04-11T16:13:43Z</time></trkpt><trkpt lat="44.742100169934005" lon="8.08419043913648"><ele>150.0</ele><time>2026-04-11T16:13:44Z</time></trkpt><trkpt lat="44.742120395921944" lon="8.08405957779291"><ele>150.0</ele><time>2026-04-11T16:13:45Z</time></trkpt><trkpt lat="44.74214029836373" lon="8.083925398594346"><ele>150.0</ele><time>2026-04-11T16:13:46Z</time></trkpt><trkpt lat="44.74215817260223" lon="8.083788170230944"><ele>150.0</ele><time>2026-04-11T16:13:47Z</time></trkpt><trkpt lat="44.74217760785918" lon="8.08365442479481"><ele>150.2</ele><time>2026-04-11T16:13:48Z</time></trkpt><trkpt lat="44.742197827947095" lon="8.083515887694812"><ele>150.4</ele><time>2026-04-11T16:13:49Z</time></trkpt><trkpt lat="44.742219448789136" lon="8.083378485210622"><ele>150.6</ele><time>2026-04-11T16:13:50Z</time></trkpt><trkpt lat="44.74223693968394" lon="8.083239504074783"><ele>150.8</ele><time>2026-04-11T16:13:51Z</time></trkpt><trkpt lat="44.74225754305438" lon="8.083102432705997"><ele>151.0</ele><time>2026-04-11T16:13:52Z</time></trkpt><trkpt lat="44.74227894744526" lon="8.082969764189471"><ele>150.6</ele><time>2026-04-11T16:13:53Z</time></trkpt><trkpt lat="44.74229886313004" lon="8.082839770448683"><ele>150.2</ele><time>2026-04-11T16:13:54Z</time></trkpt><trkpt lat="44.74231602344546" lon="8.082709715742897"><ele>149.8</ele><time>2026-04-11T16:13:55Z</time></trkpt><trkpt lat="44.74233639946664" lon="8.082580052367835"><ele>149.4</ele><time>2026-04-11T16:13:56Z</time></trkpt><trkpt lat="44.742356050513216" lon="8.082456058667663"><ele>149.0</ele><time>2026-04-11T16:13:57Z</time></trkpt><trkpt lat="44.74237160469679" lon="8.082329003292429"><ele>148.6</ele><time>2026-04-11T16:13:58Z</time></trkpt><trkpt lat="44.74238858714363" lon="8.082201133947647"><ele>148.2</ele><time>2026-04-11T16:13:59Z</time></trkpt><trkpt lat="44.74240948497928" lon="8.082077609952433"><ele>147.79999999999998</ele><time>2026-04-11T16:14:00Z</time></trkpt><trkpt lat="44.74242699966459" lon="8.081950281993695"><ele>147.4</ele><time>2026-04-11T16:14:01Z</time></trkpt><trkpt lat="44.742444442201645" lon="8.081822690247867"><ele>147.0</ele><time>2026-04-11T16:14:01.999Z</time></trkpt><trkpt lat="44.742462203966156" lon="8.081696058441315"><ele>147.4</ele><time>2026-04-11T16:14:02.999Z</time></trkpt><trkpt lat="44.74248049595023" lon="8.081570328890454"><ele>147.79999999999998</ele><time>2026-04-11T16:14:03.999Z</time></trkpt><trkpt lat="44.742501770622674" lon="8.081444594336821"><ele>148.2</ele><time>2026-04-11T16:14:04.999Z</time></trkpt><trkpt lat="44.74251956119323" lon="8.081316934972191"><ele>148.6</ele><time>2026-04-11T16:14:05.999Z</time></trkpt><trkpt lat="44.74253728419629" lon="8.081190995503372"><ele>149.0</ele><time>2026-04-11T16:14:06.999Z</time></trkpt><trkpt lat="44.74255582483988" lon="8.081064689261275"><ele>149.0</ele><time>2026-04-11T16:14:07.999Z</time></trkpt><trkpt lat="44.74257478949677" lon="8.080935048030232"><ele>149.0</ele><time>2026-04-11T16:14:08.999Z</time></trkpt><trkpt lat="44.74259291518827" lon="8.080807181362314"><ele>149.0</ele><time>2026-04-11T16:14:09.999Z</time></trkpt><trkpt lat="44.74261087146239" lon="8.080679136323647"><ele>149.0</ele><time>2026-04-11T16:14:10.999Z</time></trkpt><trkpt lat="44.74262866364721" lon="8.080551197455208"><ele>149.0</ele><time>2026-04-11T16:14:11.999Z</time></trkpt><trkpt lat="44.742647116624354" lon="8.080421314899308"><ele>149.4</ele><time>2026-04-11T16:14:12.999Z</time></trkpt><trkpt lat="44.74266529325288" lon="8.080294915083304"><ele>149.8</ele><time>2026-04-11T16:14:13.999Z</time></trkpt><trkpt lat="44.74268161178477" lon="8.080168833202467"><ele>150.2</ele><time>2026-04-11T16:14:14.999Z</time></trkpt><trkpt lat="44.74270058283413" lon="8.080041912663571"><ele>150.6</ele><time>2026-04-11T16:14:15.999Z</time></trkpt><trkpt lat="44.74271899959756" lon="8.07991345817627"><ele>151.0</ele><time>2026-04-11T16:14:16.999Z</time></trkpt><trkpt lat="44.742738590953174" lon="8.079788743930056"><ele>151.0</ele><time>2026-04-11T16:14:17.999Z</time></trkpt><trkpt lat="44.74275590473523" lon="8.079663085569939"><ele>151.0</ele><time>2026-04-11T16:14:18.999Z</time></trkpt><trkpt lat="44.74277265977165" lon="8.079538659130328"><ele>151.0</ele><time>2026-04-11T16:14:19.999Z</time></trkpt><trkpt lat="44.742792266817624" lon="8.079413897967545"><ele>151.0</ele><time>2026-04-11T16:14:20.999Z</time></trkpt><trkpt lat="44.74280869751435" lon="8.079284002423313"><ele>151.0</ele><time>2026-04-11T16:14:21.999Z</time></trkpt><trkpt lat="44.742825823144756" lon="8.079156598350158"><ele>151.0</ele><time>2026-04-11T16:14:22.999Z</time></trkpt><trkpt lat="44.7428461724119" lon="8.079029446763153"><ele>151.0</ele><time>2026-04-11T16:14:23.999Z</time></trkpt><trkpt lat="44.7428671367245" lon="8.078894538861354"><ele>151.0</ele><time>2026-04-11T16:14:24.999Z</time></trkpt><trkpt lat="44.74288758444173" lon="8.078770978637008"><ele>151.0</ele><time>2026-04-11T16:14:25.999Z</time></trkpt><trkpt lat="44.742905806892665" lon="8.07864340671726"><ele>151.0</ele><time>2026-04-11T16:14:26.999Z</time></trkpt><trkpt lat="44.742924880855156" lon="8.078520498811985"><ele>151.0</ele><time>2026-04-11T16:14:27.999Z</time></trkpt><trkpt lat="44.742942726165644" lon="8.078398694948651"><ele>151.0</ele><time>2026-04-11T16:14:28.999Z</time></trkpt><trkpt lat="44.74296175402944" lon="8.078276049985716"><ele>151.0</ele><time>2026-04-11T16:14:29.999Z</time></trkpt><trkpt lat="44.74297879987278" lon="8.078152834851752"><ele>151.0</ele><time>2026-04-11T16:14:30.999Z</time></trkpt><trkpt lat="44.74299705720011" lon="8.078027335395362"><ele>151.0</ele><time>2026-04-11T16:14:31.999Z</time></trkpt><trkpt lat="44.743012327101866" lon="8.077903752252006"><ele>151.0</ele><time>2026-04-11T16:14:32.999Z</time></trkpt><trkpt lat="44.74303107359523" lon="8.07778182820197"><ele>150.8</ele><time>2026-04-11T16:14:33.999Z</time></trkpt><trkpt lat="44.74305122741122" lon="8.077652472697674"><ele>150.6</ele><time>2026-04-11T16:14:34.999Z</time></trkpt><trkpt lat="44.74306895149878" lon="8.077523513702742"><ele>150.4</ele><time>2026-04-11T16:14:35.999Z</time></trkpt><trkpt lat="44.7430893840161" lon="8.077393400212143"><ele>150.2</ele><time>2026-04-11T16:14:36.999Z</time></trkpt><trkpt lat="44.74310754129994" lon="8.077266663758992"><ele>150.0</ele><time>2026-04-11T16:14:37.999Z</time></trkpt><trkpt lat="44.74312469462651" lon="8.077136191840157"><ele>150.0</ele><time>2026-04-11T16:14:38.999Z</time></trkpt><trkpt lat="44.74314035101314" lon="8.077010012465736"><ele>150.0</ele><time>2026-04-11T16:14:39.999Z</time></trkpt><trkpt lat="44.74315481018503" lon="8.076881757471543"><ele>150.0</ele><time>2026-04-11T16:14:40.999Z</time></trkpt><trkpt lat="44.74317281310776" lon="8.076748952187032"><ele>150.0</ele><time>2026-04-11T16:14:41.999Z</time></trkpt><trkpt lat="44.74319180110603" lon="8.07662052687241"><ele>150.0</ele><time>2026-04-11T16:14:42.999Z</time></trkpt><trkpt lat="44.74321246346325" lon="8.076491243749556"><ele>150.2</ele><time>2026-04-11T16:14:43.999Z</time></trkpt><trkpt lat="44.74322942445794" lon="8.076365850797396"><ele>150.4</ele><time>2026-04-11T16:14:44.999Z</time></trkpt><trkpt lat="44.74324609817592" lon="8.076238208228187"><ele>150.6</ele><time>2026-04-11T16:14:45.999Z</time></trkpt><trkpt lat="44.74326422532502" lon="8.076109980942649"><ele>150.8</ele><time>2026-04-11T16:14:46.999Z</time></trkpt><trkpt lat="44.743282667186314" lon="8.0759812568021"><ele>151.0</ele><time>2026-04-11T16:14:47.999Z</time></trkpt><trkpt lat="44.74330012536444" lon="8.07585463671588"><ele>151.0</ele><time>2026-04-11T16:14:48.999Z</time></trkpt><trkpt lat="44.7433189706468" lon="8.075723954318985"><ele>151.0</ele><time>2026-04-11T16:14:49.999Z</time></trkpt><trkpt lat="44.74333612283342" lon="8.075598421420164"><ele>151.0</ele><time>2026-04-11T16:14:50.999Z</time></trkpt><trkpt lat="44.74335528433593" lon="8.075472348342771"><ele>151.0</ele><time>2026-04-11T16:14:51.999Z</time></trkpt><trkpt lat="44.74337626240584" lon="8.075345466252468"><ele>151.0</ele><time>2026-04-11T16:14:52.999Z</time></trkpt><trkpt lat="44.74339504420836" lon="8.07521827747893"><ele>151.0</ele><time>2026-04-11T16:14:53.999Z</time></trkpt><trkpt lat="44.74341338846415" lon="8.075090765043408"><ele>151.0</ele><time>2026-04-11T16:14:54.999Z</time></trkpt><trkpt lat="44.74343137365803" lon="8.074959772914315"><ele>151.0</ele><time>2026-04-11T16:14:55.999Z</time></trkpt><trkpt lat="44.74344780667773" lon="8.074830647902594"><ele>151.0</ele><time>2026-04-11T16:14:56.999Z</time></trkpt><trkpt lat="44.7434647478528" lon="8.074711975520328"><ele>151.0</ele><time>2026-04-11T16:14:57.999Z</time></trkpt><trkpt lat="44.74348348768212" lon="8.074590052143845"><ele>150.66666666666669</ele><time>2026-04-11T16:14:58.999Z</time></trkpt><trkpt lat="44.743498063310184" lon="8.074485596992686"><ele>150.33333333333334</ele><time>2026-04-11T16:14:59.999Z</time></trkpt><trkpt lat="44.74351703706632" lon="8.07438382178274"><ele>150.0</ele><time>2026-04-11T16:15:00.999Z</time></trkpt><trkpt lat="44.74353286998512" lon="8.074280940038381"><ele>149.66666666666666</ele><time>2026-04-11T16:15:01.999Z</time></trkpt><trkpt lat="44.74354045601226" lon="8.07417723341345"><ele>149.33333333333331</ele><time>2026-04-11T16:15:02.999Z</time></trkpt><trkpt lat="44.7435517030574" lon="8.074083416770431"><ele>149.0</ele><time>2026-04-11T16:15:03.999Z</time></trkpt><trkpt lat="44.74357587059416" lon="8.073907345095849"><ele>148.8</ele><time>2026-04-11T16:15:06Z</time></trkpt><trkpt lat="44.74359655782308" lon="8.073820789925378"><ele>148.60000000000002</ele><time>2026-04-11T16:15:07Z</time></trkpt><trkpt lat="44.74365270036826" lon="8.073756130692416"><ele>148.4</ele><time>2026-04-11T16:15:08Z</time></trkpt><trkpt lat="44.74372204386947" lon="8.07372569591283"><ele>148.20000000000002</ele><time>2026-04-11T16:15:09Z</time></trkpt><trkpt lat="44.74383813866265" lon="8.073676801031684"><ele>148.0</ele><time>2026-04-11T16:15:11Z</time></trkpt><trkpt lat="44.74394808496277" lon="8.07359762534127"><ele>148.0</ele><time>2026-04-11T16:15:13Z</time></trkpt><trkpt lat="44.744036254857335" lon="8.073484731072007"><ele>148.0</ele><time>2026-04-11T16:15:15Z</time></trkpt><trkpt lat="44.74410137463077" lon="8.07333274931677"><ele>148.0</ele><time>2026-04-11T16:15:17Z</time></trkpt><trkpt lat="44.7441502718051" lon="8.073170671234994"><ele>148.0</ele><time>2026-04-11T16:15:19Z</time></trkpt><trkpt lat="44.74416138579529" lon="8.073081685989283"><ele>148.0</ele><time>2026-04-11T16:15:20Z</time></trkpt><trkpt lat="44.744172455157454" lon="8.072982731713111"><ele>148.14285714285714</ele><time>2026-04-11T16:15:21Z</time></trkpt><trkpt lat="44.74417446697958" lon="8.072890116250285"><ele>148.28571428571428</ele><time>2026-04-11T16:15:22Z</time></trkpt><trkpt lat="44.74417262071308" lon="8.072795046896388"><ele>148.42857142857142</ele><time>2026-04-11T16:15:23Z</time></trkpt><trkpt lat="44.74416310691018" lon="8.072697645455017"><ele>148.57142857142856</ele><time>2026-04-11T16:15:24Z</time></trkpt><trkpt lat="44.744142037125044" lon="8.072603507989507"><ele>148.7142857142857</ele><time>2026-04-11T16:15:25Z</time></trkpt><trkpt lat="44.744113130154645" lon="8.072509333197958"><ele>148.85714285714286</ele><time>2026-04-11T16:15:26Z</time></trkpt><trkpt lat="44.74407180431399" lon="8.072421393285321"><ele>149.0</ele><time>2026-04-11T16:15:27Z</time></trkpt><trkpt lat="44.74402093594287" lon="8.072341027231998"><ele>149.28571428571428</ele><time>2026-04-11T16:15:28Z</time></trkpt><trkpt lat="44.743964482712876" lon="8.072263823139478"><ele>149.57142857142856</ele><time>2026-04-11T16:15:29Z</time></trkpt><trkpt lat="44.74391309121563" lon="8.072193392596883"><ele>149.85714285714286</ele><time>2026-04-11T16:15:30Z</time></trkpt><trkpt lat="44.743871377079124" lon="8.072110412441354"><ele>150.14285714285714</ele><time>2026-04-11T16:15:31Z</time></trkpt><trkpt lat="44.74384549708125" lon="8.072016576860225"><ele>150.42857142857144</ele><time>2026-04-11T16:15:32Z</time></trkpt><trkpt lat="44.743842325607545" lon="8.07191232993263"><ele>150.71428571428572</ele><time>2026-04-11T16:15:33Z</time></trkpt><trkpt lat="44.743859897894154" lon="8.071813045693478"><ele>151.0</ele><time>2026-04-11T16:15:34Z</time></trkpt><trkpt lat="44.743882193011764" lon="8.071706885923263"><ele>151.16666666666669</ele><time>2026-04-11T16:15:35Z</time></trkpt><trkpt lat="44.743903016723934" lon="8.071603485670222"><ele>151.33333333333334</ele><time>2026-04-11T16:15:36Z</time></trkpt><trkpt lat="44.74392273696466" lon="8.07149734415061"><ele>151.5</ele><time>2026-04-11T16:15:37Z</time></trkpt><trkpt lat="44.74393568853264" lon="8.071387917955594"><ele>151.66666666666666</ele><time>2026-04-11T16:15:38Z</time></trkpt><trkpt lat="44.74395036470264" lon="8.071274898253906"><ele>151.83333333333331</ele><time>2026-04-11T16:15:39Z</time></trkpt><trkpt lat="44.74396717902926" lon="8.071161527313091"><ele>152.0</ele><time>2026-04-11T16:15:40Z</time></trkpt><trkpt lat="44.743983589195196" lon="8.071051596784214"><ele>152.0</ele><time>2026-04-11T16:15:41Z</time></trkpt><trkpt lat="44.7440015160983" lon="8.070942132724372"><ele>152.0</ele><time>2026-04-11T16:15:42Z</time></trkpt><trkpt lat="44.74402019141823" lon="8.070831020462817"><ele>152.0</ele><time>2026-04-11T16:15:43Z</time></trkpt><trkpt lat="44.74403529304025" lon="8.070715806496613"><ele>152.0</ele><time>2026-04-11T16:15:44Z</time></trkpt><trkpt lat="44.74405296094729" lon="8.070601486287483"><ele>152.0</ele><time>2026-04-11T16:15:45Z</time></trkpt><trkpt lat="44.74406983865806" lon="8.070484063923388"><ele>152.0</ele><time>2026-04-11T16:15:46Z</time></trkpt><trkpt lat="44.74408682054246" lon="8.070366678895068"><ele>152.0</ele><time>2026-04-11T16:15:47Z</time></trkpt><trkpt lat="44.7441023427647" lon="8.070249227658921"><ele>152.0</ele><time>2026-04-11T16:15:48Z</time></trkpt><trkpt lat="44.74412106225862" lon="8.070131821464123"><ele>152.0</ele><time>2026-04-11T16:15:49Z</time></trkpt><trkpt lat="44.74413991253764" lon="8.070017309113064"><ele>152.0</ele><time>2026-04-11T16:15:50Z</time></trkpt><trkpt lat="44.744152497101865" lon="8.06990319183819"><ele>152.0</ele><time>2026-04-11T16:15:51Z</time></trkpt><trkpt lat="44.74416931428212" lon="8.069792094588623"><ele>152.0</ele><time>2026-04-11T16:15:52Z</time></trkpt><trkpt lat="44.744186936705525" lon="8.069676960793753"><ele>152.0</ele><time>2026-04-11T16:15:53Z</time></trkpt><trkpt lat="44.74420406068386" lon="8.06956179541557"><ele>152.0</ele><time>2026-04-11T16:15:54Z</time></trkpt><trkpt lat="44.7442232679507" lon="8.069444192140542"><ele>152.0</ele><time>2026-04-11T16:15:55Z</time></trkpt><trkpt lat="44.74423907146448" lon="8.069326201758374"><ele>152.0</ele><time>2026-04-11T16:15:56Z</time></trkpt><trkpt lat="44.74425302620911" lon="8.069207155862465"><ele>152.0</ele><time>2026-04-11T16:15:57Z</time></trkpt><trkpt lat="44.744267896671964" lon="8.069089399469723"><ele>152.0</ele><time>2026-04-11T16:15:58Z</time></trkpt><trkpt lat="44.744282526296864" lon="8.068967586600351"><ele>151.83333333333331</ele><time>2026-04-11T16:15:59Z</time></trkpt><trkpt lat="44.744299297123014" lon="8.068848461196923"><ele>151.66666666666666</ele><time>2026-04-11T16:16:00Z</time></trkpt><trkpt lat="44.74432105327792" lon="8.068730957140351"><ele>151.5</ele><time>2026-04-11T16:16:01Z</time></trkpt><trkpt lat="44.74433757014564" lon="8.068614927606973"><ele>151.33333333333334</ele><time>2026-04-11T16:16:02Z</time></trkpt><trkpt lat="44.74435188999161" lon="8.068502549813939"><ele>151.16666666666669</ele><time>2026-04-11T16:16:03Z</time></trkpt><trkpt lat="44.74436786824317" lon="8.06838734755911"><ele>151.0</ele><time>2026-04-11T16:16:04Z</time></trkpt><trkpt lat="44.74438502572817" lon="8.06827203356608"><ele>151.0</ele><time>2026-04-11T16:16:05Z</time></trkpt><trkpt lat="44.74440378179933" lon="8.068159410801226"><ele>151.0</ele><time>2026-04-11T16:16:05.999Z</time></trkpt><trkpt lat="44.74441838224178" lon="8.068046468546784"><ele>151.0</ele><time>2026-04-11T16:16:06.999Z</time></trkpt><trkpt lat="44.74443400468429" lon="8.06793382467036"><ele>151.0</ele><time>2026-04-11T16:16:07.999Z</time></trkpt><trkpt lat="44.74445088735343" lon="8.067825489519032"><ele>151.0</ele><time>2026-04-11T16:16:08.999Z</time></trkpt><trkpt lat="44.74446824068005" lon="8.067720093301858"><ele>151.0</ele><time>2026-04-11T16:16:09.999Z</time></trkpt><trkpt lat="44.74448578515851" lon="8.067622840929934"><ele>151.0</ele><time>2026-04-11T16:16:10.999Z</time></trkpt><trkpt lat="44.74450951550672" lon="8.067525903638217"><ele>151.0</ele><time>2026-04-11T16:16:11.999Z</time></trkpt><trkpt lat="44.74454329207503" lon="8.067437298035966"><ele>151.0</ele><time>2026-04-11T16:16:12.999Z</time></trkpt><trkpt lat="44.74458850644958" lon="8.067356968945992"><ele>151.0</ele><time>2026-04-11T16:16:13.999Z</time></trkpt><trkpt lat="44.74462075904698" lon="8.067270024512728"><ele>151.0</ele><time>2026-04-11T16:16:14.999Z</time></trkpt><trkpt lat="44.744631807660994" lon="8.067158452982856"><ele>151.0</ele><time>2026-04-11T16:16:15.999Z</time></trkpt><trkpt lat="44.74462480204946" lon="8.067040958514875"><ele>151.16666666666669</ele><time>2026-04-11T16:16:16.999Z</time></trkpt><trkpt lat="44.74461072038541" lon="8.066922436130515"><ele>151.33333333333334</ele><time>2026-04-11T16:16:17.999Z</time></trkpt><trkpt lat="44.74460144624171" lon="8.06680293875448"><ele>151.5</ele><time>2026-04-11T16:16:18.999Z</time></trkpt><trkpt lat="44.744606407376715" lon="8.066681181867057"><ele>151.66666666666666</ele><time>2026-04-11T16:16:19.999Z</time></trkpt><trkpt lat="44.74462179778744" lon="8.066561400436097"><ele>151.83333333333331</ele><time>2026-04-11T16:16:20.999Z</time></trkpt><trkpt lat="44.74464055106817" lon="8.066443891153225"><ele>152.0</ele><time>2026-04-11T16:16:21.999Z</time></trkpt><trkpt lat="44.744655148340925" lon="8.066328433267305"><ele>152.0</ele><time>2026-04-11T16:16:22.999Z</time></trkpt><trkpt lat="44.74467075143821" lon="8.066213859895868"><ele>152.0</ele><time>2026-04-11T16:16:23.999Z</time></trkpt><trkpt lat="44.744684309559354" lon="8.066096934407089"><ele>152.0</ele><time>2026-04-11T16:16:24.999Z</time></trkpt><trkpt lat="44.74470243942013" lon="8.065982475231468"><ele>152.0</ele><time>2026-04-11T16:16:25.999Z</time></trkpt><trkpt lat="44.7447212166654" lon="8.065865854656822"><ele>152.0</ele><time>2026-04-11T16:16:26.999Z</time></trkpt><trkpt lat="44.74474127104082" lon="8.065748304137143"><ele>152.0</ele><time>2026-04-11T16:16:27.999Z</time></trkpt><trkpt lat="44.74475914587413" lon="8.065623747099785"><ele>152.2</ele><time>2026-04-11T16:16:28.999Z</time></trkpt><trkpt lat="44.74477394186035" lon="8.065498894004216"><ele>152.39999999999998</ele><time>2026-04-11T16:16:29.999Z</time></trkpt><trkpt lat="44.74479247105111" lon="8.065375129085757"><ele>152.60000000000002</ele><time>2026-04-11T16:16:30.999Z</time></trkpt><trkpt lat="44.74481214508172" lon="8.065252316073984"><ele>152.8</ele><time>2026-04-11T16:16:31.999Z</time></trkpt><trkpt lat="44.744829317532414" lon="8.065125295320781"><ele>153.0</ele><time>2026-04-11T16:16:32.999Z</time></trkpt><trkpt lat="44.74484656989222" lon="8.064998566715179"><ele>153.0</ele><time>2026-04-11T16:16:33.999Z</time></trkpt><trkpt lat="44.74486355027193" lon="8.064884522270138"><ele>153.0</ele><time>2026-04-11T16:16:34.999Z</time></trkpt><trkpt lat="44.74488414285973" lon="8.064757074002994"><ele>153.0</ele><time>2026-04-11T16:16:35.999Z</time></trkpt><trkpt lat="44.74490274440395" lon="8.064635346985591"><ele>153.0</ele><time>2026-04-11T16:16:36.999Z</time></trkpt><trkpt lat="44.74491833116306" lon="8.06450551265291"><ele>153.0</ele><time>2026-04-11T16:16:37.999Z</time></trkpt><trkpt lat="44.74493544608979" lon="8.06437976802915"><ele>153.0</ele><time>2026-04-11T16:16:38.999Z</time></trkpt><trkpt lat="44.74495354411252" lon="8.064250459461134"><ele>153.0</ele><time>2026-04-11T16:16:39.999Z</time></trkpt><trkpt lat="44.74497260324228" lon="8.064124111664428"><ele>153.0</ele><time>2026-04-11T16:16:40.999Z</time></trkpt><trkpt lat="44.74499287958181" lon="8.063999586300367"><ele>153.0</ele><time>2026-04-11T16:16:41.999Z</time></trkpt><trkpt lat="44.74501334759072" lon="8.063874254242826"><ele>153.0</ele><time>2026-04-11T16:16:42.999Z</time></trkpt><trkpt lat="44.74502883264584" lon="8.06374853441659"><ele>153.0</ele><time>2026-04-11T16:16:43.999Z</time></trkpt><trkpt lat="44.74505067737457" lon="8.063623241644116"><ele>153.16666666666666</ele><time>2026-04-11T16:16:44.999Z</time></trkpt><trkpt lat="44.7450661892707" lon="8.063504375664118"><ele>153.33333333333334</ele><time>2026-04-11T16:16:45.999Z</time></trkpt><trkpt lat="44.74508221830486" lon="8.06337479226975"><ele>153.5</ele><time>2026-04-11T16:16:46.999Z</time></trkpt><trkpt lat="44.745101793663146" lon="8.063256642601477"><ele>153.66666666666669</ele><time>2026-04-11T16:16:47.999Z</time></trkpt><trkpt lat="44.74512046349723" lon="8.063134705827151"><ele>153.83333333333334</ele><time>2026-04-11T16:16:48.999Z</time></trkpt><trkpt lat="44.74514053363479" lon="8.063010318882446"><ele>154.0</ele><time>2026-04-11T16:16:49.999Z</time></trkpt><trkpt lat="44.74515856663849" lon="8.062886385193826"><ele>154.0</ele><time>2026-04-11T16:16:50.999Z</time></trkpt><trkpt lat="44.74517948338755" lon="8.062763168235945"><ele>154.0</ele><time>2026-04-11T16:16:51.999Z</time></trkpt><trkpt lat="44.74519392522136" lon="8.062638487529417"><ele>154.0</ele><time>2026-04-11T16:16:52.999Z</time></trkpt><trkpt lat="44.74521814360747" lon="8.062515550543926"><ele>154.0</ele><time>2026-04-11T16:16:53.999Z</time></trkpt><trkpt lat="44.74523531650344" lon="8.062394414060442"><ele>154.0</ele><time>2026-04-11T16:16:54.999Z</time></trkpt><trkpt lat="44.745251233947144" lon="8.062270443351148"><ele>154.0</ele><time>2026-04-11T16:16:55.999Z</time></trkpt><trkpt lat="44.7452676744526" lon="8.062148848620192"><ele>154.16666666666669</ele><time>2026-04-11T16:16:56.999Z</time></trkpt><trkpt lat="44.7452876058789" lon="8.062029563755742"><ele>154.33333333333334</ele><time>2026-04-11T16:16:57.999Z</time></trkpt><trkpt lat="44.745303260661736" lon="8.061905470411286"><ele>154.5</ele><time>2026-04-11T16:16:58.999Z</time></trkpt><trkpt lat="44.74531678221657" lon="8.061789493940255"><ele>154.66666666666666</ele><time>2026-04-11T16:16:59.999Z</time></trkpt><trkpt lat="44.7453363855182" lon="8.061673118070715"><ele>154.83333333333331</ele><time>2026-04-11T16:17:00.999Z</time></trkpt><trkpt lat="44.74535821241776" lon="8.061560697659145"><ele>155.0</ele><time>2026-04-11T16:17:01.999Z</time></trkpt><trkpt lat="44.745373636068315" lon="8.061447535480463"><ele>155.0</ele><time>2026-04-11T16:17:02.999Z</time></trkpt><trkpt lat="44.74538950397669" lon="8.061338101389932"><ele>155.0</ele><time>2026-04-11T16:17:03.999Z</time></trkpt><trkpt lat="44.74540160239595" lon="8.061226468077463"><ele>155.0</ele><time>2026-04-11T16:17:04.999Z</time></trkpt><trkpt lat="44.74541282488057" lon="8.061119257160955"><ele>155.0</ele><time>2026-04-11T16:17:05.999Z</time></trkpt><trkpt lat="44.74542450654326" lon="8.061012341133056"><ele>155.0</ele><time>2026-04-11T16:17:06.999Z</time></trkpt><trkpt lat="44.74542837211878" lon="8.060906954131129"><ele>155.0</ele><time>2026-04-11T16:17:07.999Z</time></trkpt><trkpt lat="44.74543981932224" lon="8.060802385021779"><ele>154.83333333333331</ele><time>2026-04-11T16:17:08.999Z</time></trkpt><trkpt lat="44.74546165835302" lon="8.060704594291172"><ele>154.66666666666666</ele><time>2026-04-11T16:17:09.999Z</time></trkpt><trkpt lat="44.74550617420994" lon="8.060620828431002"><ele>154.5</ele><time>2026-04-11T16:17:10.999Z</time></trkpt><trkpt lat="44.74556409748648" lon="8.060554614449076"><ele>154.33333333333334</ele><time>2026-04-11T16:17:12Z</time></trkpt><trkpt lat="44.74561418728899" lon="8.060487013745606"><ele>154.16666666666669</ele><time>2026-04-11T16:17:13Z</time></trkpt><trkpt lat="44.74565309976875" lon="8.060327199457133"><ele>154.0</ele><time>2026-04-11T16:17:15Z</time></trkpt><trkpt lat="44.7456309612049" lon="8.060242138362176"><ele>154.0</ele><time>2026-04-11T16:17:16Z</time></trkpt><trkpt lat="44.74558979021435" lon="8.060175009847415"><ele>154.0</ele><time>2026-04-11T16:17:17Z</time></trkpt><trkpt lat="44.745475749370655" lon="8.060113233139424"><ele>154.0</ele><time>2026-04-11T16:17:19Z</time></trkpt><trkpt lat="44.745355111386615" lon="8.060098779138997"><ele>154.0</ele><time>2026-04-11T16:17:21Z</time></trkpt><trkpt lat="44.74523737770723" lon="8.060047650464396"><ele>154.0</ele><time>2026-04-11T16:17:23Z</time></trkpt><trkpt lat="44.74518638713227" lon="8.059995105272396"><ele>154.14285714285714</ele><time>2026-04-11T16:17:24Z</time></trkpt><trkpt lat="44.74513431765416" lon="8.059942896412881"><ele>154.28571428571428</ele><time>2026-04-11T16:17:25Z</time></trkpt><trkpt lat="44.74508116580214" lon="8.059891373784538"><ele>154.42857142857144</ele><time>2026-04-11T16:17:26Z</time></trkpt><trkpt lat="44.74502979828372" lon="8.05983336935335"><ele>154.57142857142856</ele><time>2026-04-11T16:17:27Z</time></trkpt><trkpt lat="44.744976651014056" lon="8.059771919493718"><ele>154.71428571428572</ele><time>2026-04-11T16:17:28Z</time></trkpt><trkpt lat="44.7449157459775" lon="8.059712522506858"><ele>154.85714285714286</ele><time>2026-04-11T16:17:29Z</time></trkpt><trkpt lat="44.74485398986436" lon="8.059655992847652"><ele>155.0</ele><time>2026-04-11T16:17:30Z</time></trkpt><trkpt lat="44.74478957747709" lon="8.059603762735158"><ele>155.0</ele><time>2026-04-11T16:17:31Z</time></trkpt><trkpt lat="44.74473088460119" lon="8.059544233839048"><ele>155.0</ele><time>2026-04-11T16:17:32Z</time></trkpt><trkpt lat="44.74466860023772" lon="8.059487262151357"><ele>155.0</ele><time>2026-04-11T16:17:33Z</time></trkpt><trkpt lat="44.74460278163094" lon="8.059428282512972"><ele>155.0</ele><time>2026-04-11T16:17:34Z</time></trkpt><trkpt lat="44.744535461432605" lon="8.059367063141424"><ele>155.0</ele><time>2026-04-11T16:17:35Z</time></trkpt><trkpt lat="44.74447455662651" lon="8.059302417307983"><ele>155.0</ele><time>2026-04-11T16:17:36Z</time></trkpt><trkpt lat="44.74441107341652" lon="8.059244503519784"><ele>154.83333333333331</ele><time>2026-04-11T16:17:37Z</time></trkpt><trkpt lat="44.74434578860251" lon="8.059189921758005"><ele>154.66666666666666</ele><time>2026-04-11T16:17:38Z</time></trkpt><trkpt lat="44.74428429865263" lon="8.059126644167357"><ele>154.5</ele><time>2026-04-11T16:17:39Z</time></trkpt><trkpt lat="44.744216585470355" lon="8.05906396554687"><ele>154.33333333333334</ele><time>2026-04-11T16:17:40Z</time></trkpt><trkpt lat="44.74414787136183" lon="8.059001176754837"><ele>154.16666666666669</ele><time>2026-04-11T16:17:41Z</time></trkpt><trkpt lat="44.74408011668991" lon="8.058941007027386"><ele>154.0</ele><time>2026-04-11T16:17:42Z</time></trkpt><trkpt lat="44.7440114539323" lon="8.058877914394971"><ele>154.0</ele><time>2026-04-11T16:17:43Z</time></trkpt><trkpt lat="44.743943189078315" lon="8.058810674402013"><ele>154.0</ele><time>2026-04-11T16:17:44Z</time></trkpt><trkpt lat="44.7438741034411" lon="8.05874625762005"><ele>154.0</ele><time>2026-04-11T16:17:45Z</time></trkpt><trkpt lat="44.743806027466654" lon="8.058681843399564"><ele>154.0</ele><time>2026-04-11T16:17:46Z</time></trkpt><trkpt lat="44.74373641493312" lon="8.05862087896152"><ele>154.0</ele><time>2026-04-11T16:17:47Z</time></trkpt><trkpt lat="44.743668375314826" lon="8.05855501518758"><ele>154.0</ele><time>2026-04-11T16:17:48Z</time></trkpt><trkpt lat="44.743599134660286" lon="8.058488815707891"><ele>153.66666666666669</ele><time>2026-04-11T16:17:49Z</time></trkpt><trkpt lat="44.74352961601851" lon="8.058423245907338"><ele>153.33333333333334</ele><time>2026-04-11T16:17:50Z</time></trkpt><trkpt lat="44.743457767625834" lon="8.058361772965709"><ele>153.0</ele><time>2026-04-11T16:17:51Z</time></trkpt><trkpt lat="44.74338808807876" lon="8.058296753547578"><ele>152.66666666666666</ele><time>2026-04-11T16:17:52Z</time></trkpt><trkpt lat="44.74331765317021" lon="8.058230982161763"><ele>152.33333333333331</ele><time>2026-04-11T16:17:53Z</time></trkpt><trkpt lat="44.7432465186295" lon="8.058165489146495"><ele>152.0</ele><time>2026-04-11T16:17:54Z</time></trkpt><trkpt lat="44.74317395461439" lon="8.058095866102672"><ele>151.83333333333331</ele><time>2026-04-11T16:17:55Z</time></trkpt><trkpt lat="44.743101678495144" lon="8.058029329776229"><ele>151.66666666666666</ele><time>2026-04-11T16:17:56Z</time></trkpt><trkpt lat="44.743030202071544" lon="8.05796681648344"><ele>151.5</ele><time>2026-04-11T16:17:57Z</time></trkpt><trkpt lat="44.74296226278102" lon="8.057904290780588"><ele>151.33333333333334</ele><time>2026-04-11T16:17:58Z</time></trkpt><trkpt lat="44.74289412783581" lon="8.057839014344697"><ele>151.16666666666669</ele><time>2026-04-11T16:17:59Z</time></trkpt><trkpt lat="44.74282421197812" lon="8.057776307075077"><ele>151.0</ele><time>2026-04-11T16:18:00Z</time></trkpt><trkpt lat="44.74275430114315" lon="8.0577117043369"><ele>151.16666666666669</ele><time>2026-04-11T16:18:01Z</time></trkpt><trkpt lat="44.74268349601406" lon="8.05764731535022"><ele>151.33333333333334</ele><time>2026-04-11T16:18:02Z</time></trkpt><trkpt lat="44.74261454765072" lon="8.057581897789598"><ele>151.5</ele><time>2026-04-11T16:18:03Z</time></trkpt><trkpt lat="44.74254318849239" lon="8.05751655443841"><ele>151.66666666666666</ele><time>2026-04-11T16:18:04Z</time></trkpt><trkpt lat="44.74247297090424" lon="8.057449811128931"><ele>151.83333333333331</ele><time>2026-04-11T16:18:05Z</time></trkpt><trkpt lat="44.742400716898686" lon="8.05738140218311"><ele>152.0</ele><time>2026-04-11T16:18:06Z</time></trkpt><trkpt lat="44.742329195225764" lon="8.057313292749157"><ele>152.0</ele><time>2026-04-11T16:18:07Z</time></trkpt><trkpt lat="44.74225650973562" lon="8.057245351627808"><ele>152.0</ele><time>2026-04-11T16:18:08Z</time></trkpt><trkpt lat="44.742184139191274" lon="8.057179585340284"><ele>152.0</ele><time>2026-04-11T16:18:09Z</time></trkpt><trkpt lat="44.742111694840894" lon="8.057109118397634"><ele>152.0</ele><time>2026-04-11T16:18:10Z</time></trkpt><trkpt lat="44.74203795547105" lon="8.057042083263871"><ele>152.0</ele><time>2026-04-11T16:18:10.999Z</time></trkpt><trkpt lat="44.74196426643221" lon="8.056976726611452"><ele>152.0</ele><time>2026-04-11T16:18:11.999Z</time></trkpt><trkpt lat="44.74188916569703" lon="8.05690798667108"><ele>152.16666666666666</ele><time>2026-04-11T16:18:12.999Z</time></trkpt><trkpt lat="44.74181695714067" lon="8.056842166890116"><ele>152.33333333333331</ele><time>2026-04-11T16:18:13.999Z</time></trkpt><trkpt lat="44.74174130632102" lon="8.056771754513065"><ele>152.5</ele><time>2026-04-11T16:18:14.999Z</time></trkpt><trkpt lat="44.74166917112214" lon="8.056702203515556"><ele>152.66666666666666</ele><time>2026-04-11T16:18:15.999Z</time></trkpt><trkpt lat="44.74159451118779" lon="8.056633307556838"><ele>152.83333333333334</ele><time>2026-04-11T16:18:16.999Z</time></trkpt><trkpt lat="44.74152032440208" lon="8.056563929352626"><ele>153.0</ele><time>2026-04-11T16:18:17.999Z</time></trkpt><trkpt lat="44.74144515519863" lon="8.056496112024325"><ele>153.20000000000002</ele><time>2026-04-11T16:18:18.999Z</time></trkpt><trkpt lat="44.74136847107469" lon="8.05642804438367"><ele>153.4</ele><time>2026-04-11T16:18:19.999Z</time></trkpt><trkpt lat="44.74129377397465" lon="8.056356131893834"><ele>153.60000000000002</ele><time>2026-04-11T16:18:20.999Z</time></trkpt><trkpt lat="44.741218364257364" lon="8.056283518531334"><ele>153.8</ele><time>2026-04-11T16:18:21.999Z</time></trkpt><trkpt lat="44.741140976913165" lon="8.056213729398214"><ele>154.0</ele><time>2026-04-11T16:18:22.999Z</time></trkpt><trkpt lat="44.741062982243406" lon="8.056141588970457"><ele>154.2</ele><time>2026-04-11T16:18:23.999Z</time></trkpt><trkpt lat="44.740987503229135" lon="8.056069549073111"><ele>154.4</ele><time>2026-04-11T16:18:24.999Z</time></trkpt><trkpt lat="44.7409105837158" lon="8.056001296989614"><ele>154.6</ele><time>2026-04-11T16:18:25.999Z</time></trkpt><trkpt lat="44.74083446102829" lon="8.0559291498101"><ele>154.8</ele><time>2026-04-11T16:18:26.999Z</time></trkpt><trkpt lat="44.74075945365249" lon="8.055858229848912"><ele>155.0</ele><time>2026-04-11T16:18:27.999Z</time></trkpt><trkpt lat="44.74068283510123" lon="8.055787458482163"><ele>155.0</ele><time>2026-04-11T16:18:28.999Z</time></trkpt><trkpt lat="44.740607852724764" lon="8.055715238336541"><ele>155.0</ele><time>2026-04-11T16:18:29.999Z</time></trkpt><trkpt lat="44.74053018016789" lon="8.055640161811622"><ele>155.0</ele><time>2026-04-11T16:18:30.999Z</time></trkpt><trkpt lat="44.74044970276219" lon="8.055565159227713"><ele>155.0</ele><time>2026-04-11T16:18:31.999Z</time></trkpt><trkpt lat="44.740371102137935" lon="8.055490796469083"><ele>155.0</ele><time>2026-04-11T16:18:32.999Z</time></trkpt><trkpt lat="44.740291692553065" lon="8.055417015570253"><ele>155.0</ele><time>2026-04-11T16:18:33.999Z</time></trkpt><trkpt lat="44.740211415902365" lon="8.055342294334205"><ele>155.0</ele><time>2026-04-11T16:18:34.999Z</time></trkpt><trkpt lat="44.74013167249111" lon="8.055269061011609"><ele>155.0</ele><time>2026-04-11T16:18:35.999Z</time></trkpt><trkpt lat="44.74005325189194" lon="8.055195965111912"><ele>155.0</ele><time>2026-04-11T16:18:36.999Z</time></trkpt><trkpt lat="44.739976413575356" lon="8.055124769481713"><ele>155.0</ele><time>2026-04-11T16:18:37.999Z</time></trkpt><trkpt lat="44.73989865467952" lon="8.055054432797744"><ele>155.0</ele><time>2026-04-11T16:18:38.999Z</time></trkpt><trkpt lat="44.73982223654297" lon="8.054984130352594"><ele>155.0</ele><time>2026-04-11T16:18:39.999Z</time></trkpt><trkpt lat="44.73974675364385" lon="8.054912608409705"><ele>155.0</ele><time>2026-04-11T16:18:40.999Z</time></trkpt><trkpt lat="44.73967183455566" lon="8.054844785532383"><ele>155.0</ele><time>2026-04-11T16:18:41.999Z</time></trkpt><trkpt lat="44.739594786941225" lon="8.0547755002929"><ele>155.0</ele><time>2026-04-11T16:18:42.999Z</time></trkpt><trkpt lat="44.73951634701842" lon="8.054703636625879"><ele>154.66666666666666</ele><time>2026-04-11T16:18:43.999Z</time></trkpt><trkpt lat="44.739439782314676" lon="8.054631436826915"><ele>154.33333333333331</ele><time>2026-04-11T16:18:44.999Z</time></trkpt><trkpt lat="44.739363206255696" lon="8.054561803322297"><ele>154.0</ele><time>2026-04-11T16:18:45.999Z</time></trkpt><trkpt lat="44.73928862613652" lon="8.054492490316774"><ele>153.66666666666666</ele><time>2026-04-11T16:18:46.999Z</time></trkpt><trkpt lat="44.73921538638825" lon="8.054425634238996"><ele>153.33333333333334</ele><time>2026-04-11T16:18:47.999Z</time></trkpt><trkpt lat="44.739142919777635" lon="8.054359745066671"><ele>153.0</ele><time>2026-04-11T16:18:48.999Z</time></trkpt><trkpt lat="44.739069486445956" lon="8.054289635673523"><ele>152.83333333333334</ele><time>2026-04-11T16:18:49.999Z</time></trkpt><trkpt lat="44.73899710412928" lon="8.05422452040689"><ele>152.66666666666666</ele><time>2026-04-11T16:18:50.999Z</time></trkpt><trkpt lat="44.73892441037039" lon="8.05415744863024"><ele>152.5</ele><time>2026-04-11T16:18:51.999Z</time></trkpt><trkpt lat="44.73885297648768" lon="8.054092072286801"><ele>152.33333333333331</ele><time>2026-04-11T16:18:52.999Z</time></trkpt><trkpt lat="44.73877935667744" lon="8.054025110344973"><ele>152.16666666666666</ele><time>2026-04-11T16:18:53.999Z</time></trkpt><trkpt lat="44.738705804665265" lon="8.053956477146633"><ele>152.0</ele><time>2026-04-11T16:18:54.999Z</time></trkpt><trkpt lat="44.738631842386894" lon="8.053887314424315"><ele>152.33333333333331</ele><time>2026-04-11T16:18:55.999Z</time></trkpt><trkpt lat="44.738556756843906" lon="8.053815456396817"><ele>152.66666666666666</ele><time>2026-04-11T16:18:56.999Z</time></trkpt><trkpt lat="44.73847768770026" lon="8.053749853325627"><ele>153.0</ele><time>2026-04-11T16:18:57.999Z</time></trkpt><trkpt lat="44.73840472336749" lon="8.05367895864394"><ele>153.33333333333334</ele><time>2026-04-11T16:18:58.999Z</time></trkpt><trkpt lat="44.7383296382022" lon="8.053608726984878"><ele>153.66666666666669</ele><time>2026-04-11T16:18:59.999Z</time></trkpt><trkpt lat="44.73825766218778" lon="8.053537546690167"><ele>154.0</ele><time>2026-04-11T16:19:00.999Z</time></trkpt><trkpt lat="44.7381841806175" lon="8.053469235889457"><ele>154.0</ele><time>2026-04-11T16:19:01.999Z</time></trkpt><trkpt lat="44.73811012667906" lon="8.053402909948684"><ele>154.0</ele><time>2026-04-11T16:19:02.999Z</time></trkpt><trkpt lat="44.738033339750295" lon="8.053333455304182"><ele>154.0</ele><time>2026-04-11T16:19:03.999Z</time></trkpt><trkpt lat="44.73795851597155" lon="8.053265784034851"><ele>154.0</ele><time>2026-04-11T16:19:04.999Z</time></trkpt><trkpt lat="44.737884059463084" lon="8.053196318169705"><ele>154.0</ele><time>2026-04-11T16:19:05.999Z</time></trkpt><trkpt lat="44.73780937277331" lon="8.053126870651365"><ele>154.0</ele><time>2026-04-11T16:19:06.999Z</time></trkpt><trkpt lat="44.737733068395364" lon="8.053057027332006"><ele>153.6</ele><time>2026-04-11T16:19:07.999Z</time></trkpt><trkpt lat="44.737658757394975" lon="8.052985596404564"><ele>153.2</ele><time>2026-04-11T16:19:08.999Z</time></trkpt><trkpt lat="44.73758217480217" lon="8.052914231466593"><ele>152.79999999999998</ele><time>2026-04-11T16:19:09.999Z</time></trkpt><trkpt lat="44.737505800011874" lon="8.052841946320179"><ele>152.4</ele><time>2026-04-11T16:19:10.999Z</time></trkpt><trkpt lat="44.73742813173363" lon="8.052769626309628"><ele>152.0</ele><time>2026-04-11T16:19:11.999Z</time></trkpt><trkpt lat="44.737351071124145" lon="8.05269744266989"><ele>152.0</ele><time>2026-04-11T16:19:12.999Z</time></trkpt><trkpt lat="44.73727480169781" lon="8.052624622863913"><ele>152.0</ele><time>2026-04-11T16:19:13.999Z</time></trkpt><trkpt lat="44.737196886924266" lon="8.052550683632381"><ele>152.0</ele><time>2026-04-11T16:19:14.999Z</time></trkpt><trkpt lat="44.73711961680381" lon="8.05247863327273"><ele>152.0</ele><time>2026-04-11T16:19:15.999Z</time></trkpt><trkpt lat="44.737043982554106" lon="8.052406740387719"><ele>152.0</ele><time>2026-04-11T16:19:16.999Z</time></trkpt><trkpt lat="44.736967774649514" lon="8.052335912875595"><ele>152.0</ele><time>2026-04-11T16:19:18Z</time></trkpt><trkpt lat="44.736890409448996" lon="8.052265406500467"><ele>152.0</ele><time>2026-04-11T16:19:19Z</time></trkpt><trkpt lat="44.736813778315245" lon="8.05219486972658"><ele>152.0</ele><time>2026-04-11T16:19:20Z</time></trkpt><trkpt lat="44.73673736460546" lon="8.052125627514503"><ele>152.0</ele><time>2026-04-11T16:19:21Z</time></trkpt><trkpt lat="44.73666172222837" lon="8.052054448782645"><ele>152.0</ele><time>2026-04-11T16:19:22Z</time></trkpt><trkpt lat="44.736584915203665" lon="8.051984121355197"><ele>152.0</ele><time>2026-04-11T16:19:23Z</time></trkpt><trkpt lat="44.73650910286613" lon="8.051911635549112"><ele>152.0</ele><time>2026-04-11T16:19:24Z</time></trkpt><trkpt lat="44.73643324822343" lon="8.051841972112822"><ele>152.0</ele><time>2026-04-11T16:19:25Z</time></trkpt><trkpt lat="44.73635899033258" lon="8.051770734704126"><ele>152.0</ele><time>2026-04-11T16:19:26Z</time></trkpt><trkpt lat="44.736281934784046" lon="8.051698706336413"><ele>152.0</ele><time>2026-04-11T16:19:27Z</time></trkpt><trkpt lat="44.736206791027904" lon="8.051624004526948"><ele>152.2</ele><time>2026-04-11T16:19:28Z</time></trkpt><trkpt lat="44.73612749441296" lon="8.051555639036069"><ele>152.39999999999998</ele><time>2026-04-11T16:19:29Z</time></trkpt><trkpt lat="44.73605052694716" lon="8.0514894389002"><ele>152.60000000000002</ele><time>2026-04-11T16:19:30Z</time></trkpt><trkpt lat="44.735974577934925" lon="8.051414321458049"><ele>152.8</ele><time>2026-04-11T16:19:31Z</time></trkpt><trkpt lat="44.73589984211943" lon="8.051343403038713"><ele>153.0</ele><time>2026-04-11T16:19:32Z</time></trkpt><trkpt lat="44.73582131311566" lon="8.051274392698337"><ele>153.33333333333334</ele><time>2026-04-11T16:19:33Z</time></trkpt><trkpt lat="44.735748346021985" lon="8.051202965692651"><ele>153.66666666666666</ele><time>2026-04-11T16:19:34Z</time></trkpt><trkpt lat="44.735673643887175" lon="8.051132428769245"><ele>154.0</ele><time>2026-04-11T16:19:35Z</time></trkpt><trkpt lat="44.73559785769807" lon="8.051062701526542"><ele>154.33333333333331</ele><time>2026-04-11T16:19:36Z</time></trkpt><trkpt lat="44.73552184457174" lon="8.05099554159346"><ele>154.66666666666666</ele><time>2026-04-11T16:19:37Z</time></trkpt><trkpt lat="44.73544940218239" lon="8.050920451088194"><ele>155.0</ele><time>2026-04-11T16:19:38Z</time></trkpt><trkpt lat="44.7353684001787" lon="8.050848466934134"><ele>154.8</ele><time>2026-04-11T16:19:39Z</time></trkpt><trkpt lat="44.735292903464575" lon="8.050776089268412"><ele>154.6</ele><time>2026-04-11T16:19:40Z</time></trkpt><trkpt lat="44.73521789892423" lon="8.050706097116388"><ele>154.4</ele><time>2026-04-11T16:19:41Z</time></trkpt><trkpt lat="44.73514218189378" lon="8.050638689396283"><ele>154.2</ele><time>2026-04-11T16:19:42Z</time></trkpt><trkpt lat="44.73506695828452" lon="8.050566735362517"><ele>154.0</ele><time>2026-04-11T16:19:43Z</time></trkpt><trkpt lat="44.73499407586634" lon="8.050495463138576"><ele>154.33333333333334</ele><time>2026-04-11T16:19:44Z</time></trkpt><trkpt lat="44.7349198230623" lon="8.050429752428485"><ele>154.66666666666669</ele><time>2026-04-11T16:19:45Z</time></trkpt><trkpt lat="44.73484336198364" lon="8.050357873801657"><ele>155.0</ele><time>2026-04-11T16:19:46Z</time></trkpt><trkpt lat="44.73476898037523" lon="8.050288783448762"><ele>155.33333333333334</ele><time>2026-04-11T16:19:47Z</time></trkpt><trkpt lat="44.734698166479184" lon="8.05021432179423"><ele>155.66666666666666</ele><time>2026-04-11T16:19:48Z</time></trkpt><trkpt lat="44.73462203634786" lon="8.050149522112166"><ele>156.0</ele><time>2026-04-11T16:19:49Z</time></trkpt><trkpt lat="44.734549196641964" lon="8.050080424389943"><ele>156.0</ele><time>2026-04-11T16:19:50Z</time></trkpt><trkpt lat="44.73447852497018" lon="8.050012675879902"><ele>156.0</ele><time>2026-04-11T16:19:51Z</time></trkpt><trkpt lat="44.73440583603092" lon="8.049949089983906"><ele>156.0</ele><time>2026-04-11T16:19:52Z</time></trkpt><trkpt lat="44.73433351945015" lon="8.049884176752121"><ele>156.0</ele><time>2026-04-11T16:19:53Z</time></trkpt><trkpt lat="44.73426212443029" lon="8.049816211032379"><ele>156.0</ele><time>2026-04-11T16:19:54Z</time></trkpt><trkpt lat="44.73419490145171" lon="8.049751085052053"><ele>156.0</ele><time>2026-04-11T16:19:55Z</time></trkpt><trkpt lat="44.73412596380172" lon="8.04968927038651"><ele>156.33333333333334</ele><time>2026-04-11T16:19:56Z</time></trkpt><trkpt lat="44.734055161587165" lon="8.049631945188247"><ele>156.66666666666666</ele><time>2026-04-11T16:19:57Z</time></trkpt><trkpt lat="44.73398741990397" lon="8.04957900713028"><ele>157.0</ele><time>2026-04-11T16:19:58Z</time></trkpt><trkpt lat="44.733917161570815" lon="8.049531317509805"><ele>157.33333333333331</ele><time>2026-04-11T16:19:59Z</time></trkpt><trkpt lat="44.73385095696621" lon="8.049489547075588"><ele>157.66666666666666</ele><time>2026-04-11T16:20:00Z</time></trkpt><trkpt lat="44.733781684609326" lon="8.049445978633697"><ele>158.0</ele><time>2026-04-11T16:20:01Z</time></trkpt><trkpt lat="44.733718927183794" lon="8.049399627082098"><ele>158.0</ele><time>2026-04-11T16:20:02Z</time></trkpt><trkpt lat="44.733662594706125" lon="8.049334224293377"><ele>158.0</ele><time>2026-04-11T16:20:03Z</time></trkpt><trkpt lat="44.73361869495237" lon="8.04925408806781"><ele>158.0</ele><time>2026-04-11T16:20:04Z</time></trkpt><trkpt lat="44.7335668401553" lon="8.049176959612979"><ele>158.0</ele><time>2026-04-11T16:20:05Z</time></trkpt><trkpt lat="44.733502003694184" lon="8.049115724244146"><ele>158.0</ele><time>2026-04-11T16:20:06Z</time></trkpt><trkpt lat="44.733424432258495" lon="8.049066575587846"><ele>158.0</ele><time>2026-04-11T16:20:07Z</time></trkpt><trkpt lat="44.73334696138076" lon="8.04901593184384"><ele>158.0</ele><time>2026-04-11T16:20:08Z</time></trkpt><trkpt lat="44.73328223523016" lon="8.04894471286857"><ele>158.0</ele><time>2026-04-11T16:20:09Z</time></trkpt><trkpt lat="44.733222673194604" lon="8.048861732409646"><ele>158.0</ele><time>2026-04-11T16:20:10Z</time></trkpt><trkpt lat="44.73315956638472" lon="8.048786612963312"><ele>158.0</ele><time>2026-04-11T16:20:11Z</time></trkpt><trkpt lat="44.73309316890751" lon="8.048714434167046"><ele>158.0</ele><time>2026-04-11T16:20:12Z</time></trkpt><trkpt lat="44.73302620327969" lon="8.048638835615458"><ele>158.0</ele><time>2026-04-11T16:20:13Z</time></trkpt><trkpt lat="44.73295375283236" lon="8.048577224453679"><ele>158.0</ele><time>2026-04-11T16:20:13.999Z</time></trkpt><trkpt lat="44.732882968095154" lon="8.048520824490936"><ele>158.0</ele><time>2026-04-11T16:20:14.999Z</time></trkpt><trkpt lat="44.732812584839415" lon="8.048456811851183"><ele>158.0</ele><time>2026-04-11T16:20:15.999Z</time></trkpt><trkpt lat="44.73274310057984" lon="8.048382873829745"><ele>158.0</ele><time>2026-04-11T16:20:16.999Z</time></trkpt><trkpt lat="44.73267241487946" lon="8.048317295762075"><ele>158.0</ele><time>2026-04-11T16:20:17.999Z</time></trkpt><trkpt lat="44.73259658149347" lon="8.048253204193276"><ele>158.0</ele><time>2026-04-11T16:20:18.999Z</time></trkpt><trkpt lat="44.73252534401782" lon="8.048183554317529"><ele>157.83333333333331</ele><time>2026-04-11T16:20:19.999Z</time></trkpt><trkpt lat="44.732448316769236" lon="8.048119449315918"><ele>157.66666666666666</ele><time>2026-04-11T16:20:20.999Z</time></trkpt><trkpt lat="44.73237328486956" lon="8.048051482267011"><ele>157.5</ele><time>2026-04-11T16:20:21.999Z</time></trkpt><trkpt lat="44.73229650797233" lon="8.047975437083839"><ele>157.33333333333334</ele><time>2026-04-11T16:20:22.999Z</time></trkpt><trkpt lat="44.73222300746948" lon="8.047906876288991"><ele>157.16666666666669</ele><time>2026-04-11T16:20:23.999Z</time></trkpt><trkpt lat="44.7321494810964" lon="8.047841511027267"><ele>157.0</ele><time>2026-04-11T16:20:24.999Z</time></trkpt><trkpt lat="44.73207529074886" lon="8.047771619799942"><ele>157.0</ele><time>2026-04-11T16:20:25.999Z</time></trkpt><trkpt lat="44.732000554719164" lon="8.047700466211232"><ele>157.0</ele><time>2026-04-11T16:20:26.999Z</time></trkpt><trkpt lat="44.73192284487986" lon="8.047630352998375"><ele>157.0</ele><time>2026-04-11T16:20:27.999Z</time></trkpt><trkpt lat="44.73184880495349" lon="8.04756068748022"><ele>157.0</ele><time>2026-04-11T16:20:28.999Z</time></trkpt><trkpt lat="44.73177371497736" lon="8.04749105057996"><ele>157.0</ele><time>2026-04-11T16:20:29.999Z</time></trkpt><trkpt lat="44.731699380011094" lon="8.047419080109979"><ele>156.79999999999998</ele><time>2026-04-11T16:20:30.999Z</time></trkpt><trkpt lat="44.7316241106623" lon="8.047350688670765"><ele>156.6</ele><time>2026-04-11T16:20:31.999Z</time></trkpt><trkpt lat="44.731547441386994" lon="8.047277721812815"><ele>156.39999999999998</ele><time>2026-04-11T16:20:32.999Z</time></trkpt><trkpt lat="44.73147132665678" lon="8.047202540340823"><ele>156.2</ele><time>2026-04-11T16:20:33.999Z</time></trkpt><trkpt lat="44.73139342723946" lon="8.047137460055547"><ele>156.0</ele><time>2026-04-11T16:20:34.999Z</time></trkpt><trkpt lat="44.731317837828655" lon="8.047066814159866"><ele>156.0</ele><time>2026-04-11T16:20:35.999Z</time></trkpt><trkpt lat="44.73124319560951" lon="8.046998020459363"><ele>156.0</ele><time>2026-04-11T16:20:36.999Z</time></trkpt><trkpt lat="44.73116858386119" lon="8.046926989106424"><ele>156.0</ele><time>2026-04-11T16:20:37.999Z</time></trkpt><trkpt lat="44.731096920939294" lon="8.046863018188574"><ele>156.0</ele><time>2026-04-11T16:20:38.999Z</time></trkpt><trkpt lat="44.731026618034406" lon="8.046793062424907"><ele>156.0</ele><time>2026-04-11T16:20:39.999Z</time></trkpt><trkpt lat="44.730954638943196" lon="8.046730317769306"><ele>156.0</ele><time>2026-04-11T16:20:40.999Z</time></trkpt><trkpt lat="44.730885077619995" lon="8.046666925205757"><ele>156.16666666666666</ele><time>2026-04-11T16:20:41.999Z</time></trkpt><trkpt lat="44.730816108826026" lon="8.046605708366725"><ele>156.33333333333334</ele><time>2026-04-11T16:20:42.999Z</time></trkpt><trkpt lat="44.7307459362417" lon="8.04654002619431"><ele>156.5</ele><time>2026-04-11T16:20:43.999Z</time></trkpt><trkpt lat="44.73067994261236" lon="8.046467848880823"><ele>156.66666666666669</ele><time>2026-04-11T16:20:44.999Z</time></trkpt><trkpt lat="44.73061204783437" lon="8.046404076763467"><ele>156.83333333333334</ele><time>2026-04-11T16:20:45.999Z</time></trkpt><trkpt lat="44.730543809211646" lon="8.046340495490137"><ele>157.0</ele><time>2026-04-11T16:20:46.999Z</time></trkpt><trkpt lat="44.73047206814557" lon="8.046281086380674"><ele>157.0</ele><time>2026-04-11T16:20:47.999Z</time></trkpt><trkpt lat="44.73040265797276" lon="8.046212533289125"><ele>157.0</ele><time>2026-04-11T16:20:48.999Z</time></trkpt><trkpt lat="44.73033257970079" lon="8.046147617684758"><ele>157.0</ele><time>2026-04-11T16:20:49.999Z</time></trkpt><trkpt lat="44.73026111365569" lon="8.046080305228799"><ele>157.0</ele><time>2026-04-11T16:20:50.999Z</time></trkpt><trkpt lat="44.73019178647336" lon="8.046010733274322"><ele>157.0</ele><time>2026-04-11T16:20:51.999Z</time></trkpt><trkpt lat="44.73012094559914" lon="8.045946075906253"><ele>157.0</ele><time>2026-04-11T16:20:52.999Z</time></trkpt><trkpt lat="44.73005071928483" lon="8.045885923842908"><ele>157.33333333333334</ele><time>2026-04-11T16:20:53.999Z</time></trkpt><trkpt lat="44.72998275800432" lon="8.045813300381642"><ele>157.66666666666669</ele><time>2026-04-11T16:20:54.999Z</time></trkpt><trkpt lat="44.72991289410735" lon="8.04574709278319"><ele>158.0</ele><time>2026-04-11T16:20:55.999Z</time></trkpt><trkpt lat="44.72984177197948" lon="8.045680894634433"><ele>158.33333333333334</ele><time>2026-04-11T16:20:56.999Z</time></trkpt><trkpt lat="44.729769460648136" lon="8.045614438293212"><ele>158.66666666666666</ele><time>2026-04-11T16:20:57.999Z</time></trkpt><trkpt lat="44.72969767763613" lon="8.045547638558205"><ele>159.0</ele><time>2026-04-11T16:20:58.999Z</time></trkpt><trkpt lat="44.72962557196349" lon="8.04548279175262"><ele>159.0</ele><time>2026-04-11T16:20:59.999Z</time></trkpt><trkpt lat="44.729555366903455" lon="8.045419106484418"><ele>159.0</ele><time>2026-04-11T16:21:00.999Z</time></trkpt><trkpt lat="44.729483044535314" lon="8.045352864255822"><ele>159.0</ele><time>2026-04-11T16:21:01.999Z</time></trkpt><trkpt lat="44.72941409373016" lon="8.045288465214123"><ele>159.0</ele><time>2026-04-11T16:21:02.999Z</time></trkpt><trkpt lat="44.7293492774799" lon="8.045224538122708"><ele>159.0</ele><time>2026-04-11T16:21:03.999Z</time></trkpt><trkpt lat="44.729282236566256" lon="8.045164286606337"><ele>159.0</ele><time>2026-04-11T16:21:04.999Z</time></trkpt><trkpt lat="44.72921776866888" lon="8.045103311165416"><ele>159.16666666666666</ele><time>2026-04-11T16:21:05.999Z</time></trkpt><trkpt lat="44.72915623058339" lon="8.045036834724115"><ele>159.33333333333334</ele><time>2026-04-11T16:21:06.999Z</time></trkpt><trkpt lat="44.72909581956058" lon="8.04498604110883"><ele>159.5</ele><time>2026-04-11T16:21:07.999Z</time></trkpt><trkpt lat="44.72903682490844" lon="8.044926616652331"><ele>159.66666666666669</ele><time>2026-04-11T16:21:08.999Z</time></trkpt><trkpt lat="44.72897606397031" lon="8.04486873636853"><ele>159.83333333333334</ele><time>2026-04-11T16:21:09.999Z</time></trkpt><trkpt lat="44.7289166140601" lon="8.044793654636338"><ele>160.0</ele><time>2026-04-11T16:21:10.999Z</time></trkpt><trkpt lat="44.72885029393959" lon="8.044720172168455"><ele>160.0</ele><time>2026-04-11T16:21:11.999Z</time></trkpt><trkpt lat="44.72877927193563" lon="8.044657184244528"><ele>160.0</ele><time>2026-04-11T16:21:12.999Z</time></trkpt><trkpt lat="44.728703079426204" lon="8.044605102518716"><ele>160.0</ele><time>2026-04-11T16:21:13.999Z</time></trkpt><trkpt lat="44.72862743184417" lon="8.044543485979172"><ele>160.0</ele><time>2026-04-11T16:21:14.999Z</time></trkpt><trkpt lat="44.728551228093266" lon="8.044477211467582"><ele>160.0</ele><time>2026-04-11T16:21:15.999Z</time></trkpt><trkpt lat="44.728480385776834" lon="8.04441113088656"><ele>160.0</ele><time>2026-04-11T16:21:16.999Z</time></trkpt><trkpt lat="44.72840751060847" lon="8.044345739208044"><ele>160.0</ele><time>2026-04-11T16:21:17.999Z</time></trkpt><trkpt lat="44.72833290441835" lon="8.044285962993802"><ele>160.0</ele><time>2026-04-11T16:21:18.999Z</time></trkpt><trkpt lat="44.72826205459437" lon="8.044221906601313"><ele>160.0</ele><time>2026-04-11T16:21:19.999Z</time></trkpt><trkpt lat="44.72819127328173" lon="8.044158329102592"><ele>160.0</ele><time>2026-04-11T16:21:20.999Z</time></trkpt><trkpt lat="44.72812365482488" lon="8.044086518059874"><ele>160.0</ele><time>2026-04-11T16:21:21.999Z</time></trkpt><trkpt lat="44.72805472385389" lon="8.044022525689856"><ele>160.0</ele><time>2026-04-11T16:21:22.999Z</time></trkpt><trkpt lat="44.72798619835224" lon="8.043957944553602"><ele>159.83333333333334</ele><time>2026-04-11T16:21:24Z</time></trkpt><trkpt lat="44.727924077806634" lon="8.043895759877124"><ele>159.66666666666669</ele><time>2026-04-11T16:21:25Z</time></trkpt><trkpt lat="44.72785204454799" lon="8.04382967770036"><ele>159.5</ele><time>2026-04-11T16:21:26Z</time></trkpt><trkpt lat="44.727782482310865" lon="8.04376561060286"><ele>159.33333333333334</ele><time>2026-04-11T16:21:27Z</time></trkpt><trkpt lat="44.72771544781017" lon="8.043702842284187"><ele>159.16666666666666</ele><time>2026-04-11T16:21:28Z</time></trkpt><trkpt lat="44.72765027455554" lon="8.043639226855543"><ele>159.0</ele><time>2026-04-11T16:21:29Z</time></trkpt><trkpt lat="44.72758336956927" lon="8.043580314785787"><ele>159.16666666666666</ele><time>2026-04-11T16:21:30Z</time></trkpt><trkpt lat="44.72751269789337" lon="8.043518953276523"><ele>159.33333333333334</ele><time>2026-04-11T16:21:31Z</time></trkpt><trkpt lat="44.72744151613898" lon="8.043452662296737"><ele>159.5</ele><time>2026-04-11T16:21:32Z</time></trkpt><trkpt lat="44.72737239129032" lon="8.043382149000317"><ele>159.66666666666669</ele><time>2026-04-11T16:21:33Z</time></trkpt><trkpt lat="44.72729772999768" lon="8.04331338741449"><ele>159.83333333333334</ele><time>2026-04-11T16:21:34Z</time></trkpt><trkpt lat="44.72722744191556" lon="8.043249733736124"><ele>160.0</ele><time>2026-04-11T16:21:35Z</time></trkpt><trkpt lat="44.72715543208438" lon="8.043182506012524"><ele>160.0</ele><time>2026-04-11T16:21:36Z</time></trkpt><trkpt lat="44.72708249286447" lon="8.04311310508849"><ele>160.0</ele><time>2026-04-11T16:21:37Z</time></trkpt><trkpt lat="44.727012204610645" lon="8.04303923591931"><ele>160.0</ele><time>2026-04-11T16:21:38Z</time></trkpt><trkpt lat="44.72693512098312" lon="8.042975529612496"><ele>160.0</ele><time>2026-04-11T16:21:39Z</time></trkpt><trkpt lat="44.72686241847515" lon="8.042903301608959"><ele>160.0</ele><time>2026-04-11T16:21:40Z</time></trkpt><trkpt lat="44.72678965415744" lon="8.042830762969022"><ele>160.0</ele><time>2026-04-11T16:21:41Z</time></trkpt><trkpt lat="44.72671073526001" lon="8.042762317476342"><ele>160.0</ele><time>2026-04-11T16:21:42Z</time></trkpt><trkpt lat="44.72663989155666" lon="8.042691615676794"><ele>160.0</ele><time>2026-04-11T16:21:43Z</time></trkpt><trkpt lat="44.72657097286229" lon="8.042620663993791"><ele>160.0</ele><time>2026-04-11T16:21:44Z</time></trkpt><trkpt lat="44.726497423356115" lon="8.042552943002766"><ele>160.0</ele><time>2026-04-11T16:21:45Z</time></trkpt><trkpt lat="44.726421929508994" lon="8.042483958395774"><ele>160.0</ele><time>2026-04-11T16:21:46Z</time></trkpt><trkpt lat="44.7263485057085" lon="8.042415123132876"><ele>160.0</ele><time>2026-04-11T16:21:47Z</time></trkpt><trkpt lat="44.726274864774396" lon="8.042348750099002"><ele>159.66666666666669</ele><time>2026-04-11T16:21:48Z</time></trkpt><trkpt lat="44.72620019839003" lon="8.042282789873388"><ele>159.33333333333334</ele><time>2026-04-11T16:21:49Z</time></trkpt><trkpt lat="44.72612544709523" lon="8.04221557033536"><ele>159.0</ele><time>2026-04-11T16:21:50Z</time></trkpt><trkpt lat="44.72605359767808" lon="8.0421485135294"><ele>158.66666666666666</ele><time>2026-04-11T16:21:51Z</time></trkpt><trkpt lat="44.725980488520406" lon="8.04208023973976"><ele>158.33333333333331</ele><time>2026-04-11T16:21:52Z</time></trkpt><trkpt lat="44.72590959806158" lon="8.042010589914382"><ele>158.0</ele><time>2026-04-11T16:21:53Z</time></trkpt><trkpt lat="44.72583716651056" lon="8.04194588204564"><ele>158.0</ele><time>2026-04-11T16:21:54Z</time></trkpt><trkpt lat="44.725762512361385" lon="8.041879610589511"><ele>158.0</ele><time>2026-04-11T16:21:55Z</time></trkpt><trkpt lat="44.72568893433744" lon="8.041811405002418"><ele>158.0</ele><time>2026-04-11T16:21:56Z</time></trkpt><trkpt lat="44.72561825356852" lon="8.041744840108555"><ele>158.0</ele><time>2026-04-11T16:21:57Z</time></trkpt><trkpt lat="44.72554556337352" lon="8.041677023518272"><ele>158.0</ele><time>2026-04-11T16:21:58Z</time></trkpt><trkpt lat="44.725474209078754" lon="8.041611772582586"><ele>158.0</ele><time>2026-04-11T16:21:59Z</time></trkpt><trkpt lat="44.725402714542945" lon="8.041544569353004"><ele>158.0</ele><time>2026-04-11T16:22:00Z</time></trkpt><trkpt lat="44.72533210646777" lon="8.041481099117835"><ele>158.0</ele><time>2026-04-11T16:22:01Z</time></trkpt><trkpt lat="44.72525758182373" lon="8.041416856823952"><ele>158.0</ele><time>2026-04-11T16:22:02Z</time></trkpt><trkpt lat="44.725186305393706" lon="8.041348002897925"><ele>158.0</ele><time>2026-04-11T16:22:03Z</time></trkpt><trkpt lat="44.725111683505055" lon="8.04128235820145"><ele>158.0</ele><time>2026-04-11T16:22:04Z</time></trkpt><trkpt lat="44.72503887142472" lon="8.041214051854364"><ele>158.0</ele><time>2026-04-11T16:22:05Z</time></trkpt><trkpt lat="44.72496535355375" lon="8.041147410294236"><ele>158.16666666666666</ele><time>2026-04-11T16:22:06Z</time></trkpt><trkpt lat="44.72489152089185" lon="8.0410868793793"><ele>158.33333333333331</ele><time>2026-04-11T16:22:07Z</time></trkpt><trkpt lat="44.724818072336184" lon="8.041013599616559"><ele>158.5</ele><time>2026-04-11T16:22:08Z</time></trkpt><trkpt lat="44.7247447807882" lon="8.04094736293224"><ele>158.66666666666666</ele><time>2026-04-11T16:22:09Z</time></trkpt><trkpt lat="44.72467353921662" lon="8.040873372259387"><ele>158.83333333333334</ele><time>2026-04-11T16:22:10Z</time></trkpt><trkpt lat="44.72460030006067" lon="8.040804357728407"><ele>159.0</ele><time>2026-04-11T16:22:11Z</time></trkpt><trkpt lat="44.724524756350206" lon="8.040736099188333"><ele>159.0</ele><time>2026-04-11T16:22:12Z</time></trkpt><trkpt lat="44.724449381318074" lon="8.040663529569732"><ele>159.0</ele><time>2026-04-11T16:22:13Z</time></trkpt><trkpt lat="44.724374647133494" lon="8.040596147712872"><ele>159.0</ele><time>2026-04-11T16:22:14Z</time></trkpt><trkpt lat="44.72429964111638" lon="8.04052594435209"><ele>159.0</ele><time>2026-04-11T16:22:15Z</time></trkpt><trkpt lat="44.72422926431172" lon="8.040440603469342"><ele>159.0</ele><time>2026-04-11T16:22:16Z</time></trkpt><trkpt lat="44.72415443915551" lon="8.040377986677077"><ele>159.16666666666666</ele><time>2026-04-11T16:22:17Z</time></trkpt><trkpt lat="44.724082594657716" lon="8.040313721795075"><ele>159.33333333333334</ele><time>2026-04-11T16:22:18Z</time></trkpt><trkpt lat="44.72401249062086" lon="8.040247884060413"><ele>159.5</ele><time>2026-04-11T16:22:19Z</time></trkpt><trkpt lat="44.72394411757195" lon="8.040190228725605"><ele>159.66666666666669</ele><time>2026-04-11T16:22:20Z</time></trkpt><trkpt lat="44.7238722834061" lon="8.040128813422356"><ele>159.83333333333334</ele><time>2026-04-11T16:22:21Z</time></trkpt><trkpt lat="44.723802278680076" lon="8.040067949572412"><ele>160.0</ele><time>2026-04-11T16:22:22Z</time></trkpt><trkpt lat="44.72373665010709" lon="8.03999823006893"><ele>160.0</ele><time>2026-04-11T16:22:23Z</time></trkpt><trkpt lat="44.72367379318468" lon="8.039930358490972"><ele>160.0</ele><time>2026-04-11T16:22:24Z</time></trkpt><trkpt lat="44.72361070687363" lon="8.03986521551088"><ele>160.0</ele><time>2026-04-11T16:22:25Z</time></trkpt><trkpt lat="44.72354628884714" lon="8.039809941017937"><ele>160.0</ele><time>2026-04-11T16:22:26Z</time></trkpt><trkpt lat="44.72348008125873" lon="8.039745521763297"><ele>160.0</ele><time>2026-04-11T16:22:26.999Z</time></trkpt><trkpt lat="44.72341680239078" lon="8.039688641752058"><ele>160.0</ele><time>2026-04-11T16:22:27.999Z</time></trkpt><trkpt lat="44.723359065795755" lon="8.039622724698793"><ele>160.0</ele><time>2026-04-11T16:22:28.999Z</time></trkpt><trkpt lat="44.723293473543364" lon="8.039561673418165"><ele>160.0</ele><time>2026-04-11T16:22:29.999Z</time></trkpt><trkpt lat="44.72322231636625" lon="8.039507670403244"><ele>160.0</ele><time>2026-04-11T16:22:30.999Z</time></trkpt><trkpt lat="44.72315230575596" lon="8.03944327514618"><ele>160.0</ele><time>2026-04-11T16:22:31.999Z</time></trkpt><trkpt lat="44.72308496025628" lon="8.039390353257824"><ele>160.0</ele><time>2026-04-11T16:22:32.999Z</time></trkpt><trkpt lat="44.72301935911755" lon="8.039325276790272"><ele>160.0</ele><time>2026-04-11T16:22:33.999Z</time></trkpt><trkpt lat="44.722954516465414" lon="8.039261609781638"><ele>160.0</ele><time>2026-04-11T16:22:34.999Z</time></trkpt><trkpt lat="44.72288757189955" lon="8.039198419531008"><ele>160.0</ele><time>2026-04-11T16:22:35.999Z</time></trkpt><trkpt lat="44.72282326899686" lon="8.0391389973384"><ele>160.0</ele><time>2026-04-11T16:22:36.999Z</time></trkpt><trkpt lat="44.722756069755626" lon="8.039077272404889"><ele>160.0</ele><time>2026-04-11T16:22:37.999Z</time></trkpt><trkpt lat="44.722685647031625" lon="8.039013288430352"><ele>160.0</ele><time>2026-04-11T16:22:38.999Z</time></trkpt><trkpt lat="44.72262184728827" lon="8.038946483982215"><ele>160.0</ele><time>2026-04-11T16:22:39.999Z</time></trkpt><trkpt lat="44.7225529035485" lon="8.038881354921568"><ele>160.0</ele><time>2026-04-11T16:22:40.999Z</time></trkpt><trkpt lat="44.722483057736696" lon="8.038817385131223"><ele>160.0</ele><time>2026-04-11T16:22:41.999Z</time></trkpt><trkpt lat="44.72241892079969" lon="8.03876329243443"><ele>160.0</ele><time>2026-04-11T16:22:42.999Z</time></trkpt><trkpt lat="44.722353595672715" lon="8.038705290013556"><ele>160.0</ele><time>2026-04-11T16:22:43.999Z</time></trkpt><trkpt lat="44.722290094072406" lon="8.038649685535566"><ele>160.0</ele><time>2026-04-11T16:22:44.999Z</time></trkpt><trkpt lat="44.72222736141972" lon="8.038590455877582"><ele>160.0</ele><time>2026-04-11T16:22:45.999Z</time></trkpt><trkpt lat="44.72216205400709" lon="8.0385349557708"><ele>160.0</ele><time>2026-04-11T16:22:46.999Z</time></trkpt><trkpt lat="44.72209911687516" lon="8.038475523138892"><ele>160.0</ele><time>2026-04-11T16:22:47.999Z</time></trkpt><trkpt lat="44.72203634606695" lon="8.03841318934027"><ele>160.0</ele><time>2026-04-11T16:22:48.999Z</time></trkpt><trkpt lat="44.721970628248634" lon="8.038354728381947"><ele>160.0</ele><time>2026-04-11T16:22:49.999Z</time></trkpt><trkpt lat="44.72190888178066" lon="8.038293766831702"><ele>160.0</ele><time>2026-04-11T16:22:50.999Z</time></trkpt><trkpt lat="44.721844993626476" lon="8.03823791267121"><ele>160.0</ele><time>2026-04-11T16:22:51.999Z</time></trkpt><trkpt lat="44.72178523528385" lon="8.038183135034053"><ele>159.83333333333334</ele><time>2026-04-11T16:22:52.999Z</time></trkpt><trkpt lat="44.721728310736935" lon="8.038131152070656"><ele>159.66666666666669</ele><time>2026-04-11T16:22:53.999Z</time></trkpt><trkpt lat="44.72167475064441" lon="8.038067674738269"><ele>159.5</ele><time>2026-04-11T16:22:54.999Z</time></trkpt><trkpt lat="44.72163735357643" lon="8.037993199084871"><ele>159.33333333333334</ele><time>2026-04-11T16:22:55.999Z</time></trkpt><trkpt lat="44.72161388299496" lon="8.03790695730388"><ele>159.16666666666666</ele><time>2026-04-11T16:22:56.999Z</time></trkpt><trkpt lat="44.72159808413882" lon="8.037816287302412"><ele>159.0</ele><time>2026-04-11T16:22:57.999Z</time></trkpt><trkpt lat="44.721588760994194" lon="8.037650667567613"><ele>159.0</ele><time>2026-04-11T16:22:59.999Z</time></trkpt><trkpt lat="44.72152516777372" lon="8.037517909595193"><ele>159.0</ele><time>2026-04-11T16:23:01.999Z</time></trkpt><trkpt lat="44.72139814745173" lon="8.03747784070674"><ele>159.0</ele><time>2026-04-11T16:23:03.999Z</time></trkpt><trkpt lat="44.72132962091736" lon="8.03748159243163"><ele>159.0</ele><time>2026-04-11T16:23:04.999Z</time></trkpt><trkpt lat="44.72126310297422" lon="8.037478905405022"><ele>159.0</ele><time>2026-04-11T16:23:05.999Z</time></trkpt><trkpt lat="44.721199585012336" lon="8.037456323445962"><ele>159.0</ele><time>2026-04-11T16:23:06.999Z</time></trkpt><trkpt lat="44.72113593187928" lon="8.037424590335291"><ele>159.33333333333334</ele><time>2026-04-11T16:23:07.999Z</time></trkpt><trkpt lat="44.7210714193655" lon="8.037394115894955"><ele>159.66666666666666</ele><time>2026-04-11T16:23:08.999Z</time></trkpt><trkpt lat="44.72100968599811" lon="8.037358201930912"><ele>160.0</ele><time>2026-04-11T16:23:09.999Z</time></trkpt><trkpt lat="44.720908683354295" lon="8.037259595142762"><ele>160.33333333333331</ele><time>2026-04-11T16:23:11.999Z</time></trkpt><trkpt lat="44.720799890614856" lon="8.037174609795933"><ele>160.66666666666666</ele><time>2026-04-11T16:23:13.999Z</time></trkpt><trkpt lat="44.72073932246231" lon="8.037143159536516"><ele>161.0</ele><time>2026-04-11T16:23:14.999Z</time></trkpt><trkpt lat="44.72067611270379" lon="8.037117801448012"><ele>161.42857142857142</ele><time>2026-04-11T16:23:15.999Z</time></trkpt><trkpt lat="44.72061682119068" lon="8.03708236425615"><ele>161.85714285714286</ele><time>2026-04-11T16:23:16.999Z</time></trkpt><trkpt lat="44.72055865068789" lon="8.03704093705642"><ele>162.28571428571428</ele><time>2026-04-11T16:23:17.999Z</time></trkpt><trkpt lat="44.72050349132097" lon="8.036983452023641"><ele>162.71428571428572</ele><time>2026-04-11T16:23:18.999Z</time></trkpt><trkpt lat="44.720442355758195" lon="8.036927798600475"><ele>163.14285714285714</ele><time>2026-04-11T16:23:19.999Z</time></trkpt><trkpt lat="44.72038152659983" lon="8.036867931845944"><ele>163.57142857142856</ele><time>2026-04-11T16:23:20.999Z</time></trkpt><trkpt lat="44.72031085994313" lon="8.03680926734114"><ele>164.0</ele><time>2026-04-11T16:23:21.999Z</time></trkpt><trkpt lat="44.720246209426115" lon="8.03674750963898"><ele>163.33333333333331</ele><time>2026-04-11T16:23:22.999Z</time></trkpt><trkpt lat="44.72017390216495" lon="8.036693810143088"><ele>162.66666666666666</ele><time>2026-04-11T16:23:23.999Z</time></trkpt><trkpt lat="44.720107188069605" lon="8.03663362405854"><ele>162.0</ele><time>2026-04-11T16:23:24.999Z</time></trkpt><trkpt lat="44.7200448507347" lon="8.036574018240493"><ele>161.33333333333334</ele><time>2026-04-11T16:23:25.999Z</time></trkpt><trkpt lat="44.71998135830408" lon="8.03651759720035"><ele>160.66666666666669</ele><time>2026-04-11T16:23:26.999Z</time></trkpt><trkpt lat="44.71991684616461" lon="8.036458488421163"><ele>160.0</ele><time>2026-04-11T16:23:27.999Z</time></trkpt><trkpt lat="44.71985158243111" lon="8.036404261514365"><ele>159.83333333333334</ele><time>2026-04-11T16:23:28.999Z</time></trkpt><trkpt lat="44.719785703091645" lon="8.036347099568882"><ele>159.66666666666669</ele><time>2026-04-11T16:23:30Z</time></trkpt><trkpt lat="44.719718903893316" lon="8.03628767544935"><ele>159.5</ele><time>2026-04-11T16:23:31Z</time></trkpt><trkpt lat="44.71965176881984" lon="8.036224498528671"><ele>159.33333333333334</ele><time>2026-04-11T16:23:32Z</time></trkpt><trkpt lat="44.71958590373814" lon="8.03616550543351"><ele>159.16666666666666</ele><time>2026-04-11T16:23:33Z</time></trkpt><trkpt lat="44.71951763439635" lon="8.03610784711534"><ele>159.0</ele><time>2026-04-11T16:23:34Z</time></trkpt><trkpt lat="44.719453074304205" lon="8.036043134636193"><ele>159.0</ele><time>2026-04-11T16:23:35Z</time></trkpt><trkpt lat="44.71938416469404" lon="8.035978468893465"><ele>159.0</ele><time>2026-04-11T16:23:36Z</time></trkpt><trkpt lat="44.71931464606192" lon="8.035913839866108"><ele>159.0</ele><time>2026-04-11T16:23:37Z</time></trkpt><trkpt lat="44.71924718625825" lon="8.035851273332021"><ele>159.0</ele><time>2026-04-11T16:23:38Z</time></trkpt><trkpt lat="44.7191794406316" lon="8.035787238715393"><ele>159.0</ele><time>2026-04-11T16:23:39Z</time></trkpt><trkpt lat="44.71910998422976" lon="8.035724068928904"><ele>159.0</ele><time>2026-04-11T16:23:40Z</time></trkpt><trkpt lat="44.71904031562454" lon="8.03565499836114"><ele>159.16666666666666</ele><time>2026-04-11T16:23:41Z</time></trkpt><trkpt lat="44.718971096834025" lon="8.035588772261017"><ele>159.33333333333334</ele><time>2026-04-11T16:23:42Z</time></trkpt><trkpt lat="44.71890444720393" lon="8.035523332156828"><ele>159.5</ele><time>2026-04-11T16:23:43Z</time></trkpt><trkpt lat="44.718841100265514" lon="8.035462768606955"><ele>159.66666666666669</ele><time>2026-04-11T16:23:44Z</time></trkpt><trkpt lat="44.718778481360644" lon="8.035400803929456"><ele>159.83333333333334</ele><time>2026-04-11T16:23:45Z</time></trkpt><trkpt lat="44.7187162950155" lon="8.035340033931796"><ele>160.0</ele><time>2026-04-11T16:23:46Z</time></trkpt><trkpt lat="44.718657479377605" lon="8.035284020508369"><ele>160.0</ele><time>2026-04-11T16:23:47Z</time></trkpt><trkpt lat="44.71860058862408" lon="8.035236737570118"><ele>160.0</ele><time>2026-04-11T16:23:48Z</time></trkpt><trkpt lat="44.718523307763434" lon="8.035154331991288"><ele>160.0</ele><time>2026-04-11T16:23:50Z</time></trkpt><trkpt lat="44.71846982015708" lon="8.035024560480016"><ele>160.0</ele><time>2026-04-11T16:23:52Z</time></trkpt><trkpt lat="44.71842199394112" lon="8.034892157424833"><ele>160.0</ele><time>2026-04-11T16:23:54Z</time></trkpt><trkpt lat="44.7183195998595" lon="8.034804854262493"><ele>160.71428571428572</ele><time>2026-04-11T16:23:56Z</time></trkpt><trkpt lat="44.718200535880385" lon="8.034800576631286"><ele>161.42857142857144</ele><time>2026-04-11T16:23:58Z</time></trkpt><trkpt lat="44.71813577969577" lon="8.034797922541435"><ele>162.14285714285717</ele><time>2026-04-11T16:23:59Z</time></trkpt><trkpt lat="44.71807492333893" lon="8.034769054715992"><ele>162.85714285714286</ele><time>2026-04-11T16:24:00Z</time></trkpt><trkpt lat="44.71802151929393" lon="8.03471841025906"><ele>163.57142857142858</ele><time>2026-04-11T16:24:01Z</time></trkpt><trkpt lat="44.717975035901276" lon="8.034658428729314"><ele>164.2857142857143</ele><time>2026-04-11T16:24:02Z</time></trkpt><trkpt lat="44.71791882107564" lon="8.034599109428317"><ele>165.0</ele><time>2026-04-11T16:24:03Z</time></trkpt><trkpt lat="44.717861546301734" lon="8.034545325244467"><ele>165.0</ele><time>2026-04-11T16:24:04Z</time></trkpt><trkpt lat="44.71780178051979" lon="8.034488795759732"><ele>165.0</ele><time>2026-04-11T16:24:05Z</time></trkpt><trkpt lat="44.71774087423312" lon="8.034434407593423"><ele>165.0</ele><time>2026-04-11T16:24:06Z</time></trkpt><trkpt lat="44.717678730875775" lon="8.034373881685292"><ele>165.0</ele><time>2026-04-11T16:24:07Z</time></trkpt><trkpt lat="44.71761192132943" lon="8.034315733365032"><ele>165.0</ele><time>2026-04-11T16:24:08Z</time></trkpt><trkpt lat="44.71754677406796" lon="8.034252952746213"><ele>165.0</ele><time>2026-04-11T16:24:09Z</time></trkpt><trkpt lat="44.71748117958143" lon="8.034191038723467"><ele>165.5</ele><time>2026-04-11T16:24:10Z</time></trkpt><trkpt lat="44.71741191356439" lon="8.034127948299412"><ele>166.0</ele><time>2026-04-11T16:24:11Z</time></trkpt><trkpt lat="44.71734618282037" lon="8.034064135533828"><ele>166.5</ele><time>2026-04-11T16:24:12Z</time></trkpt><trkpt lat="44.717276791962625" lon="8.033998630139255"><ele>167.0</ele><time>2026-04-11T16:24:13Z</time></trkpt><trkpt lat="44.717207464036484" lon="8.033930772726894"><ele>167.5</ele><time>2026-04-11T16:24:14Z</time></trkpt><trkpt lat="44.717135352262154" lon="8.033864727839429"><ele>168.0</ele><time>2026-04-11T16:24:15Z</time></trkpt><trkpt lat="44.717066429616985" lon="8.033799656890114"><ele>168.0</ele><time>2026-04-11T16:24:16Z</time></trkpt><trkpt lat="44.71699915973154" lon="8.033732517467918"><ele>168.0</ele><time>2026-04-11T16:24:17Z</time></trkpt><trkpt lat="44.71692709241729" lon="8.033661859026402"><ele>168.0</ele><time>2026-04-11T16:24:18Z</time></trkpt><trkpt lat="44.71685454161867" lon="8.033595428354916"><ele>168.0</ele><time>2026-04-11T16:24:19Z</time></trkpt><trkpt lat="44.71678239619978" lon="8.033527354571415"><ele>168.0</ele><time>2026-04-11T16:24:20Z</time></trkpt><trkpt lat="44.71671174804042" lon="8.033460851804826"><ele>168.0</ele><time>2026-04-11T16:24:21Z</time></trkpt><trkpt lat="44.71664160996479" lon="8.033393558115774"><ele>167.66666666666666</ele><time>2026-04-11T16:24:22Z</time></trkpt><trkpt lat="44.71657132060136" lon="8.033325606927248"><ele>167.33333333333334</ele><time>2026-04-11T16:24:23Z</time></trkpt><trkpt lat="44.71650269439607" lon="8.03325690934021"><ele>167.0</ele><time>2026-04-11T16:24:24Z</time></trkpt><trkpt lat="44.7164334097382" lon="8.033193150541903"><ele>166.66666666666669</ele><time>2026-04-11T16:24:25Z</time></trkpt><trkpt lat="44.716365779255206" lon="8.033132370005983"><ele>166.33333333333334</ele><time>2026-04-11T16:24:26Z</time></trkpt><trkpt lat="44.716299429542055" lon="8.03306590389466"><ele>166.0</ele><time>2026-04-11T16:24:27Z</time></trkpt><trkpt lat="44.7162326040524" lon="8.033004097896203"><ele>166.0</ele><time>2026-04-11T16:24:28Z</time></trkpt><trkpt lat="44.71616474586897" lon="8.03294042096638"><ele>166.0</ele><time>2026-04-11T16:24:29Z</time></trkpt><trkpt lat="44.71609396415765" lon="8.032877006860378"><ele>166.0</ele><time>2026-04-11T16:24:30Z</time></trkpt><trkpt lat="44.716023810047986" lon="8.03280887927403"><ele>166.0</ele><time>2026-04-11T16:24:31Z</time></trkpt><trkpt lat="44.71595063006677" lon="8.032742601436277"><ele>166.0</ele><time>2026-04-11T16:24:31.999Z</time></trkpt><trkpt lat="44.715876591115396" lon="8.032676231619112"><ele>166.0</ele><time>2026-04-11T16:24:32.999Z</time></trkpt><trkpt lat="44.715804945519274" lon="8.032606199300297"><ele>165.83333333333334</ele><time>2026-04-11T16:24:33.999Z</time></trkpt><trkpt lat="44.71573248042575" lon="8.032540596471556"><ele>165.66666666666669</ele><time>2026-04-11T16:24:34.999Z</time></trkpt><trkpt lat="44.71565888065874" lon="8.032477491567004"><ele>165.5</ele><time>2026-04-11T16:24:35.999Z</time></trkpt><trkpt lat="44.715584960377385" lon="8.032408199609543"><ele>165.33333333333334</ele><time>2026-04-11T16:24:36.999Z</time></trkpt><trkpt lat="44.715510258915415" lon="8.032339280563553"><ele>165.16666666666666</ele><time>2026-04-11T16:24:37.999Z</time></trkpt><trkpt lat="44.715435640561296" lon="8.032270774114265"><ele>165.0</ele><time>2026-04-11T16:24:38.999Z</time></trkpt><trkpt lat="44.71536274523665" lon="8.032198526341881"><ele>165.0</ele><time>2026-04-11T16:24:39.999Z</time></trkpt><trkpt lat="44.71528845099293" lon="8.03213164162129"><ele>165.0</ele><time>2026-04-11T16:24:40.999Z</time></trkpt><trkpt lat="44.71521442896658" lon="8.032062766362001"><ele>165.0</ele><time>2026-04-11T16:24:41.999Z</time></trkpt><trkpt lat="44.715139986845905" lon="8.031994642195468"><ele>165.0</ele><time>2026-04-11T16:24:42.999Z</time></trkpt><trkpt lat="44.715068195780134" lon="8.031919752870824"><ele>165.0</ele><time>2026-04-11T16:24:43.999Z</time></trkpt><trkpt lat="44.7149962633063" lon="8.031855621777643"><ele>165.0</ele><time>2026-04-11T16:24:44.999Z</time></trkpt><trkpt lat="44.71492228047037" lon="8.031788479057754"><ele>165.33333333333334</ele><time>2026-04-11T16:24:45.999Z</time></trkpt><trkpt lat="44.71484943658489" lon="8.03171639953815"><ele>165.66666666666666</ele><time>2026-04-11T16:24:46.999Z</time></trkpt><trkpt lat="44.714776285039136" lon="8.031645068670455"><ele>166.0</ele><time>2026-04-11T16:24:47.999Z</time></trkpt><trkpt lat="44.714701944415424" lon="8.031583036870916"><ele>166.33333333333331</ele><time>2026-04-11T16:24:48.999Z</time></trkpt><trkpt lat="44.71463015683922" lon="8.031514718563454"><ele>166.66666666666666</ele><time>2026-04-11T16:24:49.999Z</time></trkpt><trkpt lat="44.71455978906356" lon="8.03144485213989"><ele>167.0</ele><time>2026-04-11T16:24:50.999Z</time></trkpt><trkpt lat="44.71448874683484" lon="8.031375990527183"><ele>167.16666666666666</ele><time>2026-04-11T16:24:51.999Z</time></trkpt><trkpt lat="44.714416133262276" lon="8.031305880312225"><ele>167.33333333333331</ele><time>2026-04-11T16:24:52.999Z</time></trkpt><trkpt lat="44.71434227134212" lon="8.031242253783807"><ele>167.5</ele><time>2026-04-11T16:24:53.999Z</time></trkpt><trkpt lat="44.714271389430586" lon="8.031168347196868"><ele>167.66666666666666</ele><time>2026-04-11T16:24:54.999Z</time></trkpt><trkpt lat="44.714200313684046" lon="8.031101785842495"><ele>167.83333333333334</ele><time>2026-04-11T16:24:55.999Z</time></trkpt><trkpt lat="44.714125453224916" lon="8.031044338224357"><ele>168.0</ele><time>2026-04-11T16:24:56.999Z</time></trkpt><trkpt lat="44.71405320278546" lon="8.030971029097188"><ele>167.83333333333334</ele><time>2026-04-11T16:24:57.999Z</time></trkpt><trkpt lat="44.713981587583184" lon="8.030904846842995"><ele>167.66666666666666</ele><time>2026-04-11T16:24:58.999Z</time></trkpt><trkpt lat="44.71390609694445" lon="8.030840297972684"><ele>167.5</ele><time>2026-04-11T16:24:59.999Z</time></trkpt><trkpt lat="44.71383498487265" lon="8.030768301492325"><ele>167.33333333333331</ele><time>2026-04-11T16:25:00.999Z</time></trkpt><trkpt lat="44.71375999713767" lon="8.030713305686096"><ele>167.16666666666666</ele><time>2026-04-11T16:25:01.999Z</time></trkpt><trkpt lat="44.71368703675787" lon="8.030649540354775"><ele>167.0</ele><time>2026-04-11T16:25:02.999Z</time></trkpt><trkpt lat="44.71361304546643" lon="8.030600210923001"><ele>166.33333333333331</ele><time>2026-04-11T16:25:03.999Z</time></trkpt><trkpt lat="44.71354837323528" lon="8.03052355577158"><ele>165.66666666666666</ele><time>2026-04-11T16:25:04.999Z</time></trkpt><trkpt lat="44.713474247458926" lon="8.030468359556037"><ele>165.0</ele><time>2026-04-11T16:25:05.999Z</time></trkpt><trkpt lat="44.71340410192182" lon="8.03040569521215"><ele>164.33333333333334</ele><time>2026-04-11T16:25:06.999Z</time></trkpt><trkpt lat="44.71333455482724" lon="8.030339167607892"><ele>163.66666666666669</ele><time>2026-04-11T16:25:07.999Z</time></trkpt><trkpt lat="44.71326339268472" lon="8.03027595529408"><ele>163.0</ele><time>2026-04-11T16:25:08.999Z</time></trkpt><trkpt lat="44.71318953181153" lon="8.030214373315138"><ele>163.0</ele><time>2026-04-11T16:25:09.999Z</time></trkpt><trkpt lat="44.7131194663953" lon="8.030140456395229"><ele>163.0</ele><time>2026-04-11T16:25:10.999Z</time></trkpt><trkpt lat="44.71305033083125" lon="8.03007971193555"><ele>163.0</ele><time>2026-04-11T16:25:11.999Z</time></trkpt><trkpt lat="44.71298662602483" lon="8.030001808601105"><ele>163.0</ele><time>2026-04-11T16:25:12.999Z</time></trkpt><trkpt lat="44.71291123041513" lon="8.02993780066553"><ele>163.0</ele><time>2026-04-11T16:25:13.999Z</time></trkpt><trkpt lat="44.71283892312097" lon="8.029874569037403"><ele>163.0</ele><time>2026-04-11T16:25:14.999Z</time></trkpt><trkpt lat="44.71276988000134" lon="8.029804726128367"><ele>163.0</ele><time>2026-04-11T16:25:15.999Z</time></trkpt><trkpt lat="44.712704185337415" lon="8.029736588990536"><ele>163.0</ele><time>2026-04-11T16:25:16.999Z</time></trkpt><trkpt lat="44.71263553226298" lon="8.029670551246957"><ele>163.0</ele><time>2026-04-11T16:25:17.999Z</time></trkpt><trkpt lat="44.712565948248006" lon="8.029608406624952"><ele>163.0</ele><time>2026-04-11T16:25:18.999Z</time></trkpt><trkpt lat="44.71249919415755" lon="8.029546839913777"><ele>163.0</ele><time>2026-04-11T16:25:19.999Z</time></trkpt><trkpt lat="44.712432879308494" lon="8.029481238062877"><ele>163.0</ele><time>2026-04-11T16:25:20.999Z</time></trkpt><trkpt lat="44.71236705330195" lon="8.029418770739143"><ele>163.0</ele><time>2026-04-11T16:25:21.999Z</time></trkpt><trkpt lat="44.71230144948031" lon="8.02935933668707"><ele>163.0</ele><time>2026-04-11T16:25:22.999Z</time></trkpt><trkpt lat="44.71224136935268" lon="8.029296924104443"><ele>163.0</ele><time>2026-04-11T16:25:23.999Z</time></trkpt><trkpt lat="44.712178702821895" lon="8.029239352024554"><ele>163.0</ele><time>2026-04-11T16:25:24.999Z</time></trkpt><trkpt lat="44.71211621856722" lon="8.029185268267792"><ele>163.0</ele><time>2026-04-11T16:25:25.999Z</time></trkpt><trkpt lat="44.7120565996893" lon="8.02913306197717"><ele>163.0</ele><time>2026-04-11T16:25:26.999Z</time></trkpt><trkpt lat="44.71200028242019" lon="8.029079746436805"><ele>163.0</ele><time>2026-04-11T16:25:27.999Z</time></trkpt><trkpt lat="44.71194258349134" lon="8.029023255296531"><ele>163.14285714285714</ele><time>2026-04-11T16:25:28.999Z</time></trkpt><trkpt lat="44.71188402371242" lon="8.02897166875076"><ele>163.28571428571428</ele><time>2026-04-11T16:25:29.999Z</time></trkpt><trkpt lat="44.71182595628151" lon="8.028923967573657"><ele>163.42857142857142</ele><time>2026-04-11T16:25:30.999Z</time></trkpt><trkpt lat="44.71176829820938" lon="8.028865962471546"><ele>163.57142857142856</ele><time>2026-04-11T16:25:31.999Z</time></trkpt><trkpt lat="44.711710557796465" lon="8.028805717312391"><ele>163.71428571428572</ele><time>2026-04-11T16:25:32.999Z</time></trkpt><trkpt lat="44.711674800618766" lon="8.028713071483104"><ele>163.85714285714283</ele><time>2026-04-11T16:25:33.999Z</time></trkpt><trkpt lat="44.71164628044764" lon="8.02861607325047"><ele>164.0</ele><time>2026-04-11T16:25:34.999Z</time></trkpt><trkpt lat="44.711603927857865" lon="8.028532480703017"><ele>163.99999999999997</ele><time>2026-04-11T16:25:36Z</time></trkpt><trkpt lat="44.71153958981547" lon="8.028482460157658"><ele>164.0</ele><time>2026-04-11T16:25:37Z</time></trkpt><trkpt lat="44.71146950000975" lon="8.028464018726549"><ele>164.0</ele><time>2026-04-11T16:25:38Z</time></trkpt><trkpt lat="44.711401285751045" lon="8.028464622663531"><ele>164.0</ele><time>2026-04-11T16:25:39Z</time></trkpt><trkpt lat="44.71132813726015" lon="8.028452514397237"><ele>164.0</ele><time>2026-04-11T16:25:40Z</time></trkpt><trkpt lat="44.7112609314054" lon="8.028416047783287"><ele>163.99999999999997</ele><time>2026-04-11T16:25:41Z</time></trkpt><trkpt lat="44.7112032367166" lon="8.028359592112588"><ele>164.0</ele><time>2026-04-11T16:25:42Z</time></trkpt><trkpt lat="44.71114925942572" lon="8.028294433229316"><ele>163.85714285714283</ele><time>2026-04-11T16:25:43Z</time></trkpt><trkpt lat="44.71108741054049" lon="8.028240833369576"><ele>163.71428571428572</ele><time>2026-04-11T16:25:44Z</time></trkpt><trkpt lat="44.71103070843527" lon="8.028189540053958"><ele>163.57142857142856</ele><time>2026-04-11T16:25:45Z</time></trkpt><trkpt lat="44.71097370583637" lon="8.028133017633818"><ele>163.42857142857142</ele><time>2026-04-11T16:25:46Z</time></trkpt><trkpt lat="44.710918176153456" lon="8.028073285047656"><ele>163.28571428571428</ele><time>2026-04-11T16:25:47Z</time></trkpt><trkpt lat="44.71086285199601" lon="8.028023509715851"><ele>163.14285714285714</ele><time>2026-04-11T16:25:48Z</time></trkpt><trkpt lat="44.710803624540965" lon="8.027965469074443"><ele>163.0</ele><time>2026-04-11T16:25:49Z</time></trkpt><trkpt lat="44.710741833555176" lon="8.027917690493082"><ele>163.0</ele><time>2026-04-11T16:25:50Z</time></trkpt><trkpt lat="44.71068643551959" lon="8.027863213872152"><ele>163.0</ele><time>2026-04-11T16:25:51Z</time></trkpt><trkpt lat="44.710633142881335" lon="8.02780988499174"><ele>163.0</ele><time>2026-04-11T16:25:52Z</time></trkpt><trkpt lat="44.71057956207786" lon="8.02776098832989"><ele>163.0</ele><time>2026-04-11T16:25:53Z</time></trkpt><trkpt lat="44.71052385446893" lon="8.02771217395157"><ele>163.0</ele><time>2026-04-11T16:25:54Z</time></trkpt><trkpt lat="44.71047032667873" lon="8.027661813079817"><ele>163.0</ele><time>2026-04-11T16:25:55Z</time></trkpt><trkpt lat="44.71041269632422" lon="8.027611043854531"><ele>163.0</ele><time>2026-04-11T16:25:56Z</time></trkpt><trkpt lat="44.71035517528701" lon="8.027552862967338"><ele>163.0</ele><time>2026-04-11T16:25:57Z</time></trkpt><trkpt lat="44.71029961880858" lon="8.027499642174769"><ele>163.0</ele><time>2026-04-11T16:25:58Z</time></trkpt><trkpt lat="44.71023901807149" lon="8.027445376196267"><ele>163.0</ele><time>2026-04-11T16:25:59Z</time></trkpt><trkpt lat="44.71018299984581" lon="8.027397003301916"><ele>163.0</ele><time>2026-04-11T16:26:00Z</time></trkpt><trkpt lat="44.71012887922176" lon="8.027347945143214"><ele>163.0</ele><time>2026-04-11T16:26:01Z</time></trkpt><trkpt lat="44.71007635765741" lon="8.027298696784394"><ele>163.0</ele><time>2026-04-11T16:26:02Z</time></trkpt><trkpt lat="44.709974624654656" lon="8.027207303466914"><ele>164.2</ele><time>2026-04-11T16:26:04Z</time></trkpt><trkpt lat="44.7098744017088" lon="8.027118837744537"><ele>165.4</ele><time>2026-04-11T16:26:06Z</time></trkpt><trkpt lat="44.7097773121165" lon="8.02702844178783"><ele>166.6</ele><time>2026-04-11T16:26:08Z</time></trkpt><trkpt lat="44.70970335193577" lon="8.026945807836722"><ele>167.79999999999998</ele><time>2026-04-11T16:26:10Z</time></trkpt><trkpt lat="44.709654330993025" lon="8.026866135618697"><ele>169.0</ele><time>2026-04-11T16:26:12Z</time></trkpt><trkpt lat="44.709619880770646" lon="8.026750724925403"><ele>169.0</ele><time>2026-04-11T16:26:15Z</time></trkpt><trkpt lat="44.70965214156193" lon="8.026657128898975"><ele>169.0</ele><time>2026-04-11T16:26:17Z</time></trkpt><trkpt lat="44.70968642554939" lon="8.026548850635415"><ele>169.0</ele><time>2026-04-11T16:26:19Z</time></trkpt><trkpt lat="44.709695732539785" lon="8.026441404289487"><ele>169.0</ele><time>2026-04-11T16:26:21Z</time></trkpt><trkpt lat="44.7096694113473" lon="8.026315860719393"><ele>169.0</ele><time>2026-04-11T16:26:23Z</time></trkpt><trkpt lat="44.70960185494545" lon="8.026205899780457"><ele>169.0</ele><time>2026-04-11T16:26:25Z</time></trkpt><trkpt lat="44.70949351595205" lon="8.026151849420566"><ele>168.6</ele><time>2026-04-11T16:26:27Z</time></trkpt><trkpt lat="44.70938165092798" lon="8.026181905517069"><ele>168.2</ele><time>2026-04-11T16:26:29Z</time></trkpt><trkpt lat="44.709280545619905" lon="8.026270835531077"><ele>167.79999999999998</ele><time>2026-04-11T16:26:31Z</time></trkpt><trkpt lat="44.70917466597706" lon="8.02634156195511"><ele>167.39999999999998</ele><time>2026-04-11T16:26:33Z</time></trkpt><trkpt lat="44.70911072296655" lon="8.02633691156137"><ele>167.0</ele><time>2026-04-11T16:26:34Z</time></trkpt><trkpt lat="44.709042906568236" lon="8.026333566251239"><ele>167.0</ele><time>2026-04-11T16:26:35Z</time></trkpt><trkpt lat="44.70897856430038" lon="8.026335539252734"><ele>167.0</ele><time>2026-04-11T16:26:35.999Z</time></trkpt><trkpt lat="44.708855235109354" lon="8.026367592615179"><ele>167.0</ele><time>2026-04-11T16:26:37.999Z</time></trkpt><trkpt lat="44.70873971430822" lon="8.026405891154834"><ele>167.0</ele><time>2026-04-11T16:26:39.999Z</time></trkpt><trkpt lat="44.708622956105685" lon="8.026438726855588"><ele>167.0</ele><time>2026-04-11T16:26:41.999Z</time></trkpt><trkpt lat="44.70850318080637" lon="8.026472310187982"><ele>166.6</ele><time>2026-04-11T16:26:43.999Z</time></trkpt><trkpt lat="44.70838648198844" lon="8.026517264640098"><ele>166.2</ele><time>2026-04-11T16:26:45.999Z</time></trkpt><trkpt lat="44.70827148607042" lon="8.026565602313767"><ele>165.8</ele><time>2026-04-11T16:26:47.999Z</time></trkpt><trkpt lat="44.7081500538269" lon="8.026613702063557"><ele>165.4</ele><time>2026-04-11T16:26:49.999Z</time></trkpt><trkpt lat="44.708088750301215" lon="8.026638937183089"><ele>165.0</ele><time>2026-04-11T16:26:50.999Z</time></trkpt><trkpt lat="44.708026697104366" lon="8.026654678065533"><ele>165.00000000000003</ele><time>2026-04-11T16:26:51.999Z</time></trkpt><trkpt lat="44.70796217728859" lon="8.026672921557678"><ele>165.0</ele><time>2026-04-11T16:26:52.999Z</time></trkpt><trkpt lat="44.70789710670789" lon="8.026693490470066"><ele>165.0</ele><time>2026-04-11T16:26:53.999Z</time></trkpt><trkpt lat="44.707826242946574" lon="8.026712554015244"><ele>165.0</ele><time>2026-04-11T16:26:54.999Z</time></trkpt><trkpt lat="44.70776100388466" lon="8.026729776077637"><ele>165.0</ele><time>2026-04-11T16:26:55.999Z</time></trkpt><trkpt lat="44.707699604898885" lon="8.026752473972508"><ele>165.00000000000003</ele><time>2026-04-11T16:26:56.999Z</time></trkpt><trkpt lat="44.70763054163505" lon="8.026769569459129"><ele>165.0</ele><time>2026-04-11T16:26:57.999Z</time></trkpt><trkpt lat="44.707564273060015" lon="8.026779287023615"><ele>165.00000000000003</ele><time>2026-04-11T16:26:58.999Z</time></trkpt><trkpt lat="44.70749524439776" lon="8.02679524083312"><ele>165.0</ele><time>2026-04-11T16:26:59.999Z</time></trkpt><trkpt lat="44.7074260070106" lon="8.026813099838723"><ele>165.0</ele><time>2026-04-11T16:27:00.999Z</time></trkpt><trkpt lat="44.707359173775586" lon="8.026826214534736"><ele>165.0</ele><time>2026-04-11T16:27:01.999Z</time></trkpt><trkpt lat="44.7072895330899" lon="8.02685007068561"><ele>165.0</ele><time>2026-04-11T16:27:02.999Z</time></trkpt><trkpt lat="44.70721962658883" lon="8.02687063763304"><ele>165.00000000000003</ele><time>2026-04-11T16:27:03.999Z</time></trkpt><trkpt lat="44.70715139866458" lon="8.02689005887684"><ele>165.0</ele><time>2026-04-11T16:27:04.999Z</time></trkpt><trkpt lat="44.707081606173766" lon="8.026904847104953"><ele>165.00000000000003</ele><time>2026-04-11T16:27:05.999Z</time></trkpt><trkpt lat="44.70701485993575" lon="8.026927102061173"><ele>165.0</ele><time>2026-04-11T16:27:06.999Z</time></trkpt><trkpt lat="44.70694495199866" lon="8.02694662560123"><ele>165.0</ele><time>2026-04-11T16:27:07.999Z</time></trkpt><trkpt lat="44.7068739973486" lon="8.026968702375083"><ele>165.0</ele><time>2026-04-11T16:27:08.999Z</time></trkpt><trkpt lat="44.706803101316524" lon="8.02698673542739"><ele>165.0</ele><time>2026-04-11T16:27:09.999Z</time></trkpt><trkpt lat="44.70673292754653" lon="8.02700843112421"><ele>165.00000000000003</ele><time>2026-04-11T16:27:10.999Z</time></trkpt><trkpt lat="44.70665863619259" lon="8.027025307067696"><ele>165.0</ele><time>2026-04-11T16:27:11.999Z</time></trkpt><trkpt lat="44.70658205777075" lon="8.027042532897514"><ele>165.0</ele><time>2026-04-11T16:27:12.999Z</time></trkpt><trkpt lat="44.7065027803346" lon="8.027071340978361"><ele>165.0</ele><time>2026-04-11T16:27:13.999Z</time></trkpt><trkpt lat="44.70642611805877" lon="8.027091367903292"><ele>165.0</ele><time>2026-04-11T16:27:14.999Z</time></trkpt><trkpt lat="44.70634603851149" lon="8.027110041928502"><ele>165.0</ele><time>2026-04-11T16:27:15.999Z</time></trkpt><trkpt lat="44.70626711165408" lon="8.02712620959324"><ele>165.0</ele><time>2026-04-11T16:27:16.999Z</time></trkpt><trkpt lat="44.70618976557994" lon="8.027146406163398"><ele>165.0</ele><time>2026-04-11T16:27:17.999Z</time></trkpt><trkpt lat="44.7061142484733" lon="8.027166595947401"><ele>164.16666666666666</ele><time>2026-04-11T16:27:18.999Z</time></trkpt><trkpt lat="44.70604085413649" lon="8.027194799089537"><ele>163.33333333333334</ele><time>2026-04-11T16:27:19.999Z</time></trkpt><trkpt lat="44.705963827438815" lon="8.02721374978099"><ele>162.5</ele><time>2026-04-11T16:27:20.999Z</time></trkpt><trkpt lat="44.705888593223236" lon="8.027226417543922"><ele>161.66666666666669</ele><time>2026-04-11T16:27:21.999Z</time></trkpt><trkpt lat="44.7058098403942" lon="8.027246598662476"><ele>160.83333333333334</ele><time>2026-04-11T16:27:22.999Z</time></trkpt><trkpt lat="44.70573987956898" lon="8.02726704397837"><ele>160.0</ele><time>2026-04-11T16:27:23.999Z</time></trkpt><trkpt lat="44.70566298859072" lon="8.027284137935625"><ele>160.0</ele><time>2026-04-11T16:27:24.999Z</time></trkpt><trkpt lat="44.70559024279187" lon="8.027302562494105"><ele>160.0</ele><time>2026-04-11T16:27:25.999Z</time></trkpt><trkpt lat="44.7055215030838" lon="8.027320972088571"><ele>160.0</ele><time>2026-04-11T16:27:26.999Z</time></trkpt><trkpt lat="44.705454974452685" lon="8.027339493671567"><ele>160.0</ele><time>2026-04-11T16:27:27.999Z</time></trkpt><trkpt lat="44.70538739519883" lon="8.027361760205304"><ele>160.0</ele><time>2026-04-11T16:27:28.999Z</time></trkpt><trkpt lat="44.70532331020914" lon="8.02738004863287"><ele>160.0</ele><time>2026-04-11T16:27:29.999Z</time></trkpt><trkpt lat="44.70525703192527" lon="8.027396388021234"><ele>160.0</ele><time>2026-04-11T16:27:30.999Z</time></trkpt><trkpt lat="44.70518947151294" lon="8.02741952565741"><ele>159.6</ele><time>2026-04-11T16:27:31.999Z</time></trkpt><trkpt lat="44.70506885911131" lon="8.027450909977658"><ele>159.2</ele><time>2026-04-11T16:27:33.999Z</time></trkpt><trkpt lat="44.7050064082319" lon="8.027463361859125"><ele>158.8</ele><time>2026-04-11T16:27:34.999Z</time></trkpt><trkpt lat="44.70494274148962" lon="8.027479945732754"><ele>158.4</ele><time>2026-04-11T16:27:35.999Z</time></trkpt><trkpt lat="44.704827134738714" lon="8.027513767004208"><ele>158.0</ele><time>2026-04-11T16:27:37.999Z</time></trkpt><trkpt lat="44.70471018608541" lon="8.02755010355301"><ele>159.0</ele><time>2026-04-11T16:27:39.999Z</time></trkpt><trkpt lat="44.704603477011325" lon="8.027590214719519"><ele>160.0</ele><time>2026-04-11T16:27:42Z</time></trkpt><trkpt lat="44.70450445302745" lon="8.02762631809957"><ele>161.0</ele><time>2026-04-11T16:27:44Z</time></trkpt><trkpt lat="44.70440817337756" lon="8.027667905021213"><ele>162.0</ele><time>2026-04-11T16:27:46Z</time></trkpt><trkpt lat="44.70433322320003" lon="8.027693208611547"><ele>163.0</ele><time>2026-04-11T16:27:48Z</time></trkpt><trkpt lat="44.70426060263314" lon="8.027728865236709"><ele>163.33333333333334</ele><time>2026-04-11T16:27:52Z</time></trkpt><trkpt lat="44.70417331310347" lon="8.027768826582548"><ele>163.66666666666669</ele><time>2026-04-11T16:28:57.999Z</time></trkpt><trkpt lat="44.70408346417731" lon="8.02779640295173"><ele>164.0</ele><time>2026-04-11T16:29:02.999Z</time></trkpt><trkpt lat="44.704023513882206" lon="8.027826002855365"><ele>164.33333333333334</ele><time>2026-04-11T16:29:04.999Z</time></trkpt><trkpt lat="44.703949172144924" lon="8.027840960754096"><ele>164.66666666666666</ele><time>2026-04-11T16:29:06.999Z</time></trkpt><trkpt lat="44.703864036613375" lon="8.027871356705054"><ele>165.0</ele><time>2026-04-11T16:29:08.999Z</time></trkpt><trkpt lat="44.703776720693924" lon="8.027902796413745"><ele>165.0</ele><time>2026-04-11T16:29:10.999Z</time></trkpt><trkpt lat="44.70368073426813" lon="8.027929821606303"><ele>165.0</ele><time>2026-04-11T16:29:12.999Z</time></trkpt><trkpt lat="44.703580764184245" lon="8.02796667458892"><ele>165.0</ele><time>2026-04-11T16:29:14.999Z</time></trkpt><trkpt lat="44.703460752018024" lon="8.028004930386405"><ele>165.0</ele><time>2026-04-11T16:29:16.999Z</time></trkpt><trkpt lat="44.703347727755194" lon="8.028044810557919"><ele>165.0</ele><time>2026-04-11T16:29:18.999Z</time></trkpt><trkpt lat="44.70328544667315" lon="8.02806920713805"><ele>165.16666666666666</ele><time>2026-04-11T16:29:19.999Z</time></trkpt><trkpt lat="44.703168627738776" lon="8.02810490868304"><ele>165.33333333333334</ele><time>2026-04-11T16:29:21.999Z</time></trkpt><trkpt lat="44.703103768645036" lon="8.02812996101774"><ele>165.5</ele><time>2026-04-11T16:29:22.999Z</time></trkpt><trkpt lat="44.70298760855052" lon="8.028179565004981"><ele>165.66666666666669</ele><time>2026-04-11T16:29:24.999Z</time></trkpt><trkpt lat="44.70292023418245" lon="8.028200313717969"><ele>165.83333333333334</ele><time>2026-04-11T16:29:25.999Z</time></trkpt><trkpt lat="44.70285780093758" lon="8.0282285535369"><ele>166.0</ele><time>2026-04-11T16:29:26.999Z</time></trkpt><trkpt lat="44.70279189613992" lon="8.028254579478135"><ele>166.16666666666669</ele><time>2026-04-11T16:29:27.999Z</time></trkpt><trkpt lat="44.70272687337309" lon="8.028279295967266"><ele>166.33333333333334</ele><time>2026-04-11T16:29:28.999Z</time></trkpt><trkpt lat="44.7026618985793" lon="8.028304884105962"><ele>166.5</ele><time>2026-04-11T16:29:29.999Z</time></trkpt><trkpt lat="44.70259848522907" lon="8.028328354355605"><ele>166.66666666666666</ele><time>2026-04-11T16:29:30.999Z</time></trkpt><trkpt lat="44.70253322717664" lon="8.02835331370802"><ele>166.83333333333331</ele><time>2026-04-11T16:29:31.999Z</time></trkpt><trkpt lat="44.70246947361125" lon="8.028377371833338"><ele>167.0</ele><time>2026-04-11T16:29:32.999Z</time></trkpt><trkpt lat="44.70234511956601" lon="8.028423161115406"><ele>166.71428571428572</ele><time>2026-04-11T16:29:34.999Z</time></trkpt><trkpt lat="44.70228184451609" lon="8.028454638570103"><ele>166.42857142857144</ele><time>2026-04-11T16:29:35.999Z</time></trkpt><trkpt lat="44.702216877428874" lon="8.028483493997433"><ele>166.14285714285717</ele><time>2026-04-11T16:29:36.999Z</time></trkpt><trkpt lat="44.7021516755242" lon="8.02850626269815"><ele>165.85714285714286</ele><time>2026-04-11T16:29:37.999Z</time></trkpt><trkpt lat="44.7020877663761" lon="8.028529068753127"><ele>165.57142857142858</ele><time>2026-04-11T16:29:38.999Z</time></trkpt><trkpt lat="44.70202085412136" lon="8.028549435466957"><ele>165.2857142857143</ele><time>2026-04-11T16:29:39.999Z</time></trkpt><trkpt lat="44.70195123621603" lon="8.028565365380127"><ele>165.0</ele><time>2026-04-11T16:29:40.999Z</time></trkpt><trkpt lat="44.70188302699502" lon="8.028591283292473"><ele>164.83333333333334</ele><time>2026-04-11T16:29:41.999Z</time></trkpt><trkpt lat="44.701811106646595" lon="8.02861929867525"><ele>164.66666666666666</ele><time>2026-04-11T16:29:42.999Z</time></trkpt><trkpt lat="44.70173925954512" lon="8.028647725603241"><ele>164.5</ele><time>2026-04-11T16:29:43.999Z</time></trkpt><trkpt lat="44.70166706896257" lon="8.028674989219097"><ele>164.33333333333331</ele><time>2026-04-11T16:29:44.999Z</time></trkpt><trkpt lat="44.70159301138232" lon="8.028703620156957"><ele>164.16666666666666</ele><time>2026-04-11T16:29:45.999Z</time></trkpt><trkpt lat="44.701515663425596" lon="8.028733623815413"><ele>164.0</ele><time>2026-04-11T16:29:46.999Z</time></trkpt><trkpt lat="44.70144038116904" lon="8.028766063053466"><ele>164.0</ele><time>2026-04-11T16:29:48Z</time></trkpt><trkpt lat="44.701363589925734" lon="8.028793625554052"><ele>164.0</ele><time>2026-04-11T16:29:49Z</time></trkpt><trkpt lat="44.701284993644734" lon="8.02882253369585"><ele>164.0</ele><time>2026-04-11T16:29:50Z</time></trkpt><trkpt lat="44.7012053106929" lon="8.028851928996062"><ele>164.0</ele><time>2026-04-11T16:29:51Z</time></trkpt><trkpt lat="44.701121294638824" lon="8.028865205757599"><ele>164.0</ele><time>2026-04-11T16:29:52Z</time></trkpt><trkpt lat="44.70103716906587" lon="8.028851990448143"><ele>164.0</ele><time>2026-04-11T16:29:53Z</time></trkpt><trkpt lat="44.70096406817662" lon="8.028799501495724"><ele>164.16666666666666</ele><time>2026-04-11T16:29:54Z</time></trkpt><trkpt lat="44.70090345401729" lon="8.028723964578102"><ele>164.33333333333331</ele><time>2026-04-11T16:29:55Z</time></trkpt><trkpt lat="44.70085386113341" lon="8.028629296301908"><ele>164.5</ele><time>2026-04-11T16:29:56Z</time></trkpt><trkpt lat="44.700807719601784" lon="8.028539448436954"><ele>164.66666666666666</ele><time>2026-04-11T16:29:57Z</time></trkpt><trkpt lat="44.70075824521979" lon="8.028456860782812"><ele>164.83333333333334</ele><time>2026-04-11T16:29:58Z</time></trkpt><trkpt lat="44.700704908806614" lon="8.028380103806834"><ele>165.0</ele><time>2026-04-11T16:29:59Z</time></trkpt><trkpt lat="44.70065110813366" lon="8.028305332725962"><ele>165.16666666666666</ele><time>2026-04-11T16:30:00Z</time></trkpt><trkpt lat="44.700592918733975" lon="8.028234554199148"><ele>165.33333333333334</ele><time>2026-04-11T16:30:01Z</time></trkpt><trkpt lat="44.70053100574989" lon="8.028182780389235"><ele>165.5</ele><time>2026-04-11T16:30:02Z</time></trkpt><trkpt lat="44.70046007884085" lon="8.028157331591988"><ele>165.66666666666669</ele><time>2026-04-11T16:30:03Z</time></trkpt><trkpt lat="44.70038418585895" lon="8.028146777145007"><ele>165.83333333333334</ele><time>2026-04-11T16:30:04Z</time></trkpt><trkpt lat="44.70030446048694" lon="8.02813328378518"><ele>166.0</ele><time>2026-04-11T16:30:05Z</time></trkpt><trkpt lat="44.700230839052594" lon="8.028143970086253"><ele>166.0</ele><time>2026-04-11T16:30:06Z</time></trkpt><trkpt lat="44.7001533899574" lon="8.028169324821555"><ele>166.0</ele><time>2026-04-11T16:30:07Z</time></trkpt><trkpt lat="44.70002901583897" lon="8.028200602469527"><ele>166.0</ele><time>2026-04-11T16:30:09Z</time></trkpt><trkpt lat="44.69995901470033" lon="8.028213676771895"><ele>166.0</ele><time>2026-04-11T16:30:10Z</time></trkpt><trkpt lat="44.699893399821875" lon="8.028222807877752"><ele>166.0</ele><time>2026-04-11T16:30:11Z</time></trkpt><trkpt lat="44.699826200258144" lon="8.028240288017454"><ele>166.0</ele><time>2026-04-11T16:30:12Z</time></trkpt><trkpt lat="44.699761413438615" lon="8.028252562002361"><ele>166.0</ele><time>2026-04-11T16:30:13Z</time></trkpt><trkpt lat="44.699694292546425" lon="8.02826242509187"><ele>166.0</ele><time>2026-04-11T16:30:14Z</time></trkpt><trkpt lat="44.69963096844367" lon="8.028275303724692"><ele>166.0</ele><time>2026-04-11T16:30:15Z</time></trkpt><trkpt lat="44.699563125840925" lon="8.028283546146316"><ele>166.0</ele><time>2026-04-11T16:30:16Z</time></trkpt><trkpt lat="44.699496416968536" lon="8.028287110215961"><ele>166.0</ele><time>2026-04-11T16:30:17Z</time></trkpt><trkpt lat="44.699428603388895" lon="8.028295657687723"><ele>166.0</ele><time>2026-04-11T16:30:18Z</time></trkpt><trkpt lat="44.69929984354046" lon="8.028301601717251"><ele>166.0</ele><time>2026-04-11T16:30:20Z</time></trkpt><trkpt lat="44.69916854811256" lon="8.028297772516316"><ele>166.0</ele><time>2026-04-11T16:30:22Z</time></trkpt><trkpt lat="44.699105283059176" lon="8.028297011987268"><ele>166.0</ele><time>2026-04-11T16:30:23Z</time></trkpt><trkpt lat="44.69903757363736" lon="8.028300351816648"><ele>166.0</ele><time>2026-04-11T16:30:24Z</time></trkpt><trkpt lat="44.69897408489422" lon="8.028302380189071"><ele>166.0</ele><time>2026-04-11T16:30:25Z</time></trkpt><trkpt lat="44.69884626566802" lon="8.028306168133929"><ele>166.0</ele><time>2026-04-11T16:30:27Z</time></trkpt><trkpt lat="44.698781017433866" lon="8.02830777182753"><ele>166.0</ele><time>2026-04-11T16:30:28Z</time></trkpt><trkpt lat="44.698663326688376" lon="8.028296568690273"><ele>166.0</ele><time>2026-04-11T16:30:30Z</time></trkpt><trkpt lat="44.69854121339567" lon="8.028286753635836"><ele>166.0</ele><time>2026-04-11T16:30:32Z</time></trkpt><trkpt lat="44.69844656761375" lon="8.028233002655377"><ele>166.0</ele><time>2026-04-11T16:30:34Z</time></trkpt><trkpt lat="44.69832994416062" lon="8.028158526406438"><ele>166.20000000000002</ele><time>2026-04-11T16:30:36Z</time></trkpt><trkpt lat="44.69827105247968" lon="8.0281165321413"><ele>166.4</ele><time>2026-04-11T16:30:37Z</time></trkpt><trkpt lat="44.69816484639852" lon="8.028047739890608"><ele>166.6</ele><time>2026-04-11T16:30:39Z</time></trkpt><trkpt lat="44.69806143882991" lon="8.0279992825657"><ele>166.8</ele><time>2026-04-11T16:30:41Z</time></trkpt><trkpt lat="44.69795245627574" lon="8.027931057564807"><ele>167.0</ele><time>2026-04-11T16:30:43Z</time></trkpt><trkpt lat="44.69785511857349" lon="8.027854381434803"><ele>167.0</ele><time>2026-04-11T16:30:45Z</time></trkpt><trkpt lat="44.69774387101455" lon="8.027896591864927"><ele>167.0</ele><time>2026-04-11T16:30:46.999Z</time></trkpt><trkpt lat="44.6977126751698" lon="8.028059917117307"><ele>167.0</ele><time>2026-04-11T16:30:48.999Z</time></trkpt><trkpt lat="44.69776868797624" lon="8.028190061548463"><ele>167.0</ele><time>2026-04-11T16:30:50.999Z</time></trkpt><trkpt lat="44.69781157431219" lon="8.028317943221744"><ele>167.0</ele><time>2026-04-11T16:30:52.999Z</time></trkpt><trkpt lat="44.697861696658414" lon="8.028465509033168"><ele>167.25</ele><time>2026-04-11T16:30:54.999Z</time></trkpt><trkpt lat="44.69791008087455" lon="8.028620064481803"><ele>167.5</ele><time>2026-04-11T16:30:56.999Z</time></trkpt><trkpt lat="44.69795935536962" lon="8.028780334547402"><ele>167.75</ele><time>2026-04-11T16:30:58.999Z</time></trkpt><trkpt lat="44.69800895742267" lon="8.028938789212472"><ele>168.0</ele><time>2026-04-11T16:31:00.999Z</time></trkpt><trkpt lat="44.698058926728315" lon="8.029103222270011"><ele>168.2</ele><time>2026-04-11T16:31:02.999Z</time></trkpt><trkpt lat="44.698085441966406" lon="8.029188878621405"><ele>168.4</ele><time>2026-04-11T16:31:03.999Z</time></trkpt><trkpt lat="44.69813591849291" lon="8.029350842167329"><ele>168.6</ele><time>2026-04-11T16:31:05.999Z</time></trkpt><trkpt lat="44.698181546471105" lon="8.029514544354011"><ele>168.79999999999998</ele><time>2026-04-11T16:31:07.999Z</time></trkpt><trkpt lat="44.698199445083304" lon="8.029605914465193"><ele>169.0</ele><time>2026-04-11T16:31:08.999Z</time></trkpt><trkpt lat="44.698165275600935" lon="8.029687711045774"><ele>169.0</ele><time>2026-04-11T16:31:09.999Z</time></trkpt><trkpt lat="44.69810802518129" lon="8.029742766122215"><ele>169.0</ele><time>2026-04-11T16:31:10.999Z</time></trkpt><trkpt lat="44.697990700136664" lon="8.029801354353955"><ele>169.0</ele><time>2026-04-11T16:31:12.999Z</time></trkpt><trkpt lat="44.697884228834255" lon="8.029876313106145"><ele>169.0</ele><time>2026-04-11T16:31:14.999Z</time></trkpt><trkpt lat="44.697793818737" lon="8.029982459428545"><ele>169.0</ele><time>2026-04-11T16:31:16.999Z</time></trkpt><trkpt lat="44.697700475186636" lon="8.030091522766133"><ele>169.0</ele><time>2026-04-11T16:31:18.999Z</time></trkpt><trkpt lat="44.697606301451906" lon="8.030204765001601"><ele>169.0</ele><time>2026-04-11T16:31:20.999Z</time></trkpt><trkpt lat="44.69751475393015" lon="8.03031201337486"><ele>169.0</ele><time>2026-04-11T16:31:22.999Z</time></trkpt><trkpt lat="44.697465665668126" lon="8.03037197339462"><ele>169.0</ele><time>2026-04-11T16:31:23.999Z</time></trkpt><trkpt lat="44.69741661658105" lon="8.030428066162179"><ele>169.0</ele><time>2026-04-11T16:31:24.999Z</time></trkpt><trkpt lat="44.6973664450587" lon="8.030487131850222"><ele>169.0</ele><time>2026-04-11T16:31:25.999Z</time></trkpt><trkpt lat="44.69727164933423" lon="8.030597763532912"><ele>169.0</ele><time>2026-04-11T16:31:27.999Z</time></trkpt><trkpt lat="44.69721750565756" lon="8.030647708395868"><ele>169.0</ele><time>2026-04-11T16:31:28.999Z</time></trkpt><trkpt lat="44.69716091229633" lon="8.030697718873741"><ele>169.0</ele><time>2026-04-11T16:31:29.999Z</time></trkpt><trkpt lat="44.697065763695925" lon="8.030812694992752"><ele>169.0</ele><time>2026-04-11T16:31:31.999Z</time></trkpt><trkpt lat="44.69701484385724" lon="8.030865808948153"><ele>169.0</ele><time>2026-04-11T16:31:32.999Z</time></trkpt><trkpt lat="44.696917915581885" lon="8.030975767559246"><ele>169.0</ele><time>2026-04-11T16:31:34.999Z</time></trkpt><trkpt lat="44.696820105346596" lon="8.031082162270753"><ele>169.39999999999998</ele><time>2026-04-11T16:31:36.999Z</time></trkpt><trkpt lat="44.696769671152076" lon="8.031139483103019"><ele>169.8</ele><time>2026-04-11T16:31:37.999Z</time></trkpt><trkpt lat="44.696679430015536" lon="8.031247107510548"><ele>170.2</ele><time>2026-04-11T16:31:39.999Z</time></trkpt><trkpt lat="44.69658671143201" lon="8.031348700763026"><ele>170.60000000000002</ele><time>2026-04-11T16:31:41.999Z</time></trkpt><trkpt lat="44.69648027641406" lon="8.031414771009816"><ele>171.0</ele><time>2026-04-11T16:31:43.999Z</time></trkpt><trkpt lat="44.69637379964796" lon="8.031418575148313"><ele>171.0</ele><time>2026-04-11T16:31:45.999Z</time></trkpt><trkpt lat="44.69626421334989" lon="8.031397671613128"><ele>171.0</ele><time>2026-04-11T16:31:47.999Z</time></trkpt><trkpt lat="44.69614844925546" lon="8.031366833816795"><ele>171.0</ele><time>2026-04-11T16:31:49.999Z</time></trkpt><trkpt lat="44.69602589624243" lon="8.031419289525052"><ele>171.0</ele><time>2026-04-11T16:31:51.999Z</time></trkpt><trkpt lat="44.69597193448618" lon="8.031468474193128"><ele>171.0</ele><time>2026-04-11T16:31:52.999Z</time></trkpt><trkpt lat="44.69587252586004" lon="8.031563682294694"><ele>171.0</ele><time>2026-04-11T16:31:55Z</time></trkpt><trkpt lat="44.69577577501159" lon="8.031652318176087"><ele>171.0</ele><time>2026-04-11T16:31:57Z</time></trkpt><trkpt lat="44.69566904289859" lon="8.031643238229025"><ele>171.0</ele><time>2026-04-11T16:31:59Z</time></trkpt><trkpt lat="44.6956195980924" lon="8.031586973773846"><ele>171.0</ele><time>2026-04-11T16:32:00Z</time></trkpt><trkpt lat="44.695579351882984" lon="8.031512079443583"><ele>171.0</ele><time>2026-04-11T16:32:01Z</time></trkpt><trkpt lat="44.6955239888213" lon="8.031367873705973"><ele>171.0</ele><time>2026-04-11T16:32:03Z</time></trkpt><trkpt lat="44.69545975814777" lon="8.031257090171684"><ele>171.0</ele><time>2026-04-11T16:32:05Z</time></trkpt><trkpt lat="44.69539308315503" lon="8.031166131548728"><ele>171.0</ele><time>2026-04-11T16:32:07Z</time></trkpt><trkpt lat="44.695342746228086" lon="8.031092670359458"><ele>171.0</ele><time>2026-04-11T16:32:10Z</time></trkpt><trkpt lat="44.6952660079126" lon="8.031081193892838"><ele>171.0</ele><time>2026-04-11T16:32:12Z</time></trkpt><trkpt lat="44.695225144656284" lon="8.031186600965773"><ele>171.0</ele><time>2026-04-11T16:32:16Z</time></trkpt><trkpt lat="44.69516687033805" lon="8.031273600491087"><ele>171.20000000000002</ele><time>2026-04-11T16:32:18Z</time></trkpt><trkpt lat="44.69514165552196" lon="8.031415281781356"><ele>171.4</ele><time>2026-04-11T16:32:20Z</time></trkpt><trkpt lat="44.6950867889775" lon="8.031525887153135"><ele>171.6</ele><time>2026-04-11T16:32:22Z</time></trkpt><trkpt lat="44.69503950484579" lon="8.031666015518443"><ele>171.8</ele><time>2026-04-11T16:32:24Z</time></trkpt><trkpt lat="44.694976695104216" lon="8.031817367935245"><ele>172.0</ele><time>2026-04-11T16:32:26Z</time></trkpt><trkpt lat="44.69490456287949" lon="8.031955415756691"><ele>172.2</ele><time>2026-04-11T16:32:28Z</time></trkpt><trkpt lat="44.694863266141745" lon="8.032092232262878"><ele>172.39999999999998</ele><time>2026-04-11T16:32:30Z</time></trkpt><trkpt lat="44.69481291231321" lon="8.032235099539545"><ele>172.60000000000002</ele><time>2026-04-11T16:32:32Z</time></trkpt><trkpt lat="44.69476638608592" lon="8.032340033690902"><ele>172.8</ele><time>2026-04-11T16:32:34Z</time></trkpt><trkpt lat="44.69469470292595" lon="8.03238659973271"><ele>173.0</ele><time>2026-04-11T16:32:36Z</time></trkpt><trkpt lat="44.694622844497395" lon="8.032312061089103"><ele>173.0</ele><time>2026-04-11T16:32:38Z</time></trkpt><trkpt lat="44.69456217910373" lon="8.032251381428638"><ele>173.0</ele><time>2026-04-11T16:32:40Z</time></trkpt><trkpt lat="44.69449706333405" lon="8.032220472918352"><ele>173.0</ele><time>2026-04-11T16:32:41Z</time></trkpt><trkpt lat="44.69440295722484" lon="8.032138506148295"><ele>173.0</ele><time>2026-04-11T16:32:43Z</time></trkpt><trkpt lat="44.694294030563746" lon="8.032054770567598"><ele>173.0</ele><time>2026-04-11T16:32:44.999Z</time></trkpt><trkpt lat="44.69419288285167" lon="8.031971505173281"><ele>172.8</ele><time>2026-04-11T16:32:46.999Z</time></trkpt><trkpt lat="44.69413802312294" lon="8.031923712371244"><ele>172.60000000000002</ele><time>2026-04-11T16:32:47.999Z</time></trkpt><trkpt lat="44.69402866697839" lon="8.031862532185945"><ele>172.39999999999998</ele><time>2026-04-11T16:32:49.999Z</time></trkpt><trkpt lat="44.693920501906256" lon="8.031906985377239"><ele>172.2</ele><time>2026-04-11T16:32:51.999Z</time></trkpt><trkpt lat="44.69387957875235" lon="8.031974823055053"><ele>172.0</ele><time>2026-04-11T16:32:52.999Z</time></trkpt><trkpt lat="44.693832094119344" lon="8.03213012228611"><ele>172.0</ele><time>2026-04-11T16:32:54.999Z</time></trkpt><trkpt lat="44.6938044982052" lon="8.03227862205838"><ele>172.0</ele><time>2026-04-11T16:32:56.999Z</time></trkpt><trkpt lat="44.69380437467883" lon="8.032427213696723"><ele>172.0</ele><time>2026-04-11T16:32:58.999Z</time></trkpt><trkpt lat="44.69379565620828" lon="8.032565635399669"><ele>172.0</ele><time>2026-04-11T16:33:00.999Z</time></trkpt><trkpt lat="44.6937796822403" lon="8.032703753361828"><ele>172.0</ele><time>2026-04-11T16:33:02.999Z</time></trkpt><trkpt lat="44.69376420203965" lon="8.032850662746426"><ele>172.2</ele><time>2026-04-11T16:33:04.999Z</time></trkpt><trkpt lat="44.693797635934814" lon="8.033015707535245"><ele>172.39999999999998</ele><time>2026-04-11T16:33:06.999Z</time></trkpt><trkpt lat="44.693803263659206" lon="8.033166190941877"><ele>172.60000000000002</ele><time>2026-04-11T16:33:08.999Z</time></trkpt><trkpt lat="44.693787921560144" lon="8.033310944065795"><ele>172.8</ele><time>2026-04-11T16:33:10.999Z</time></trkpt><trkpt lat="44.69376399436535" lon="8.033456940068127"><ele>173.0</ele><time>2026-04-11T16:33:12.999Z</time></trkpt><trkpt lat="44.693762574021875" lon="8.033603011991413"><ele>173.33333333333331</ele><time>2026-04-11T16:33:14.999Z</time></trkpt><trkpt lat="44.69375411682349" lon="8.033743130681254"><ele>173.66666666666666</ele><time>2026-04-11T16:33:16.999Z</time></trkpt><trkpt lat="44.69374102127408" lon="8.03387071190036"><ele>174.0</ele><time>2026-04-11T16:33:18.999Z</time></trkpt><trkpt lat="44.6937312765561" lon="8.033977579501782"><ele>174.33333333333334</ele><time>2026-04-11T16:33:20.999Z</time></trkpt><trkpt lat="44.69366008968941" lon="8.034023180217083"><ele>174.66666666666669</ele><time>2026-04-11T16:33:22.999Z</time></trkpt><trkpt lat="44.69357748514074" lon="8.034073895549502"><ele>175.0</ele><time>2026-04-11T16:33:24.999Z</time></trkpt><trkpt lat="44.69346609415238" lon="8.034081574666276"><ele>175.6</ele><time>2026-04-11T16:33:26.999Z</time></trkpt><trkpt lat="44.69340136548652" lon="8.034076266370418"><ele>176.2</ele><time>2026-04-11T16:33:27.999Z</time></trkpt><trkpt lat="44.69328395359165" lon="8.034100005927614"><ele>176.8</ele><time>2026-04-11T16:33:29.999Z</time></trkpt><trkpt lat="44.69317407467694" lon="8.034066273284406"><ele>177.4</ele><time>2026-04-11T16:33:31.999Z</time></trkpt><trkpt lat="44.69305712155138" lon="8.034084277484439"><ele>178.0</ele><time>2026-04-11T16:33:33.999Z</time></trkpt><trkpt lat="44.69299100939542" lon="8.034098621072156"><ele>178.0</ele><time>2026-04-11T16:33:34.999Z</time></trkpt><trkpt lat="44.69287739542165" lon="8.034090967799466"><ele>178.0</ele><time>2026-04-11T16:33:36.999Z</time></trkpt><trkpt lat="44.6927740788381" lon="8.03409434813104"><ele>178.0</ele><time>2026-04-11T16:33:38.999Z</time></trkpt><trkpt lat="44.69265882004856" lon="8.034092462275902"><ele>178.0</ele><time>2026-04-11T16:33:40.999Z</time></trkpt><trkpt lat="44.69255120695656" lon="8.034092638242607"><ele>178.0</ele><time>2026-04-11T16:33:42.999Z</time></trkpt><trkpt lat="44.69243265515053" lon="8.034082776491614"><ele>178.75</ele><time>2026-04-11T16:33:44.999Z</time></trkpt><trkpt lat="44.69232212753128" lon="8.034073737969095"><ele>179.5</ele><time>2026-04-11T16:33:46.999Z</time></trkpt><trkpt lat="44.692202848074714" lon="8.034079728532996"><ele>180.25</ele><time>2026-04-11T16:33:48.999Z</time></trkpt><trkpt lat="44.69208843180873" lon="8.034081118158502"><ele>181.0</ele><time>2026-04-11T16:33:50.999Z</time></trkpt><trkpt lat="44.69196808915108" lon="8.034074384732047"><ele>181.20000000000002</ele><time>2026-04-11T16:33:52.999Z</time></trkpt><trkpt lat="44.691843497234316" lon="8.0340829386516"><ele>181.4</ele><time>2026-04-11T16:33:54.999Z</time></trkpt><trkpt lat="44.69172081945186" lon="8.034119148319713"><ele>181.6</ele><time>2026-04-11T16:33:56.999Z</time></trkpt><trkpt lat="44.691656500214535" lon="8.034097547046475"><ele>181.8</ele><time>2026-04-11T16:33:57.999Z</time></trkpt><trkpt lat="44.69159352740565" lon="8.034109530647598"><ele>182.0</ele><time>2026-04-11T16:33:58.999Z</time></trkpt><trkpt lat="44.69146862326532" lon="8.034093509125396"><ele>182.0</ele><time>2026-04-11T16:34:01Z</time></trkpt><trkpt lat="44.6913451538455" lon="8.034110298206105"><ele>182.0</ele><time>2026-04-11T16:34:03Z</time></trkpt><trkpt lat="44.691217358140776" lon="8.034102128255538"><ele>182.0</ele><time>2026-04-11T16:34:05Z</time></trkpt><trkpt lat="44.691145974395376" lon="8.034105295297604"><ele>182.0</ele><time>2026-04-11T16:34:06Z</time></trkpt><trkpt lat="44.69108053851661" lon="8.034117578941741"><ele>182.0</ele><time>2026-04-11T16:34:07Z</time></trkpt><trkpt lat="44.691013991401356" lon="8.034110720405518"><ele>182.0</ele><time>2026-04-11T16:34:08Z</time></trkpt><trkpt lat="44.69088923666558" lon="8.034116952944464"><ele>182.0</ele><time>2026-04-11T16:34:10Z</time></trkpt><trkpt lat="44.690821989279975" lon="8.034126941810877"><ele>182.0</ele><time>2026-04-11T16:34:11Z</time></trkpt><trkpt lat="44.6906838346926" lon="8.034127734288035"><ele>182.0</ele><time>2026-04-11T16:34:13Z</time></trkpt><trkpt lat="44.690555354303775" lon="8.034119052587371"><ele>182.0</ele><time>2026-04-11T16:34:15Z</time></trkpt><trkpt lat="44.69049021128689" lon="8.034120060904396"><ele>182.0</ele><time>2026-04-11T16:34:16Z</time></trkpt><trkpt lat="44.69042470097149" lon="8.034120270574414"><ele>182.0</ele><time>2026-04-11T16:34:17Z</time></trkpt><trkpt lat="44.69036174082349" lon="8.034114030127498"><ele>182.0</ele><time>2026-04-11T16:34:18Z</time></trkpt><trkpt lat="44.690296265293924" lon="8.034105803578619"><ele>182.0</ele><time>2026-04-11T16:34:19Z</time></trkpt><trkpt lat="44.69017043886842" lon="8.034116773514041"><ele>182.0</ele><time>2026-04-11T16:34:21Z</time></trkpt><trkpt lat="44.69004600765242" lon="8.034108424845474"><ele>181.6</ele><time>2026-04-11T16:34:23Z</time></trkpt><trkpt lat="44.68997750305203" lon="8.034116701043775"><ele>181.2</ele><time>2026-04-11T16:34:24Z</time></trkpt><trkpt lat="44.6899090890291" lon="8.034116500847187"><ele>180.8</ele><time>2026-04-11T16:34:25Z</time></trkpt><trkpt lat="44.689843025816465" lon="8.034117611825291"><ele>180.4</ele><time>2026-04-11T16:34:26Z</time></trkpt><trkpt lat="44.68971303660985" lon="8.034121775224497"><ele>180.0</ele><time>2026-04-11T16:34:28Z</time></trkpt><trkpt lat="44.6895857761526" lon="8.034115578475179"><ele>180.0</ele><time>2026-04-11T16:34:30Z</time></trkpt><trkpt lat="44.689462773713466" lon="8.034112700256218"><ele>180.0</ele><time>2026-04-11T16:34:32Z</time></trkpt><trkpt lat="44.68939606202896" lon="8.03411389606782"><ele>180.0</ele><time>2026-04-11T16:34:33Z</time></trkpt><trkpt lat="44.68928676728999" lon="8.034112351471682"><ele>180.0</ele><time>2026-04-11T16:34:35Z</time></trkpt><trkpt lat="44.689198113951484" lon="8.034119045853256"><ele>180.0</ele><time>2026-04-11T16:34:37Z</time></trkpt><trkpt lat="44.68912873273204" lon="8.03409909585823"><ele>180.42857142857142</ele><time>2026-04-11T16:34:39Z</time></trkpt><trkpt lat="44.68906498364049" lon="8.034104248783951"><ele>180.85714285714286</ele><time>2026-04-11T16:34:43Z</time></trkpt><trkpt lat="44.68900048245986" lon="8.034109934746587"><ele>181.28571428571428</ele><time>2026-04-11T16:34:46.999Z</time></trkpt><trkpt lat="44.688919889022486" lon="8.034106193072759"><ele>181.71428571428572</ele><time>2026-04-11T16:34:49.999Z</time></trkpt><trkpt lat="44.68884114096725" lon="8.034101617542545"><ele>182.14285714285717</ele><time>2026-04-11T16:34:51.999Z</time></trkpt><trkpt lat="44.68877242455475" lon="8.034113757618966"><ele>182.57142857142858</ele><time>2026-04-11T16:34:55.999Z</time></trkpt><trkpt lat="44.68869241383531" lon="8.03413380696977"><ele>183.0</ele><time>2026-04-11T16:34:59.999Z</time></trkpt><trkpt lat="44.688605066668124" lon="8.03413715715179"><ele>182.8</ele><time>2026-04-11T16:35:01.999Z</time></trkpt><trkpt lat="44.68850509861698" lon="8.034144217776989"><ele>182.60000000000002</ele><time>2026-04-11T16:35:03.999Z</time></trkpt><trkpt lat="44.68839346297361" lon="8.034128673417984"><ele>182.39999999999998</ele><time>2026-04-11T16:35:05.999Z</time></trkpt><trkpt lat="44.68828229474534" lon="8.034133200875043"><ele>182.2</ele><time>2026-04-11T16:35:07.999Z</time></trkpt><trkpt lat="44.68818106600429" lon="8.03413366356491"><ele>182.0</ele><time>2026-04-11T16:35:09.999Z</time></trkpt><trkpt lat="44.68808892463235" lon="8.034134095609808"><ele>182.33333333333331</ele><time>2026-04-11T16:35:11.999Z</time></trkpt><trkpt lat="44.68800271453997" lon="8.03413401052637"><ele>182.66666666666666</ele><time>2026-04-11T16:35:13.999Z</time></trkpt><trkpt lat="44.68792074344459" lon="8.034119103553342"><ele>183.0</ele><time>2026-04-11T16:35:15.999Z</time></trkpt><trkpt lat="44.68784564545915" lon="8.034120635707641"><ele>183.33333333333334</ele><time>2026-04-11T16:35:17.999Z</time></trkpt><trkpt lat="44.68777974332641" lon="8.034097883578186"><ele>183.66666666666669</ele><time>2026-04-11T16:35:19.999Z</time></trkpt><trkpt lat="44.687719050066136" lon="8.034121729538203"><ele>184.0</ele><time>2026-04-11T16:35:21.999Z</time></trkpt><trkpt lat="44.68762619151976" lon="8.034133168158856"><ele>184.0</ele><time>2026-04-11T16:35:24.999Z</time></trkpt><trkpt lat="44.6875340733643" lon="8.034132179057506"><ele>184.0</ele><time>2026-04-11T16:35:26.999Z</time></trkpt><trkpt lat="44.68743019366182" lon="8.034133570540293"><ele>184.0</ele><time>2026-04-11T16:35:28.999Z</time></trkpt><trkpt lat="44.687336876049194" lon="8.0341354804919"><ele>184.0</ele><time>2026-04-11T16:35:30.999Z</time></trkpt><trkpt lat="44.687238664189" lon="8.034130975722606"><ele>184.0</ele><time>2026-04-11T16:35:32.999Z</time></trkpt><trkpt lat="44.6871440072557" lon="8.034140453444122"><ele>184.0</ele><time>2026-04-11T16:35:34.999Z</time></trkpt><trkpt lat="44.68705236111502" lon="8.034124936030764"><ele>184.0</ele><time>2026-04-11T16:35:36.999Z</time></trkpt><trkpt lat="44.68695512525596" lon="8.034118514225867"><ele>184.0</ele><time>2026-04-11T16:35:38.999Z</time></trkpt><trkpt lat="44.68686838056429" lon="8.034124376687668"><ele>184.0</ele><time>2026-04-11T16:35:40.999Z</time></trkpt><trkpt lat="44.686772957002816" lon="8.034133145515792"><ele>184.0</ele><time>2026-04-11T16:35:42.999Z</time></trkpt><trkpt lat="44.686678859672455" lon="8.034132036640752"><ele>184.2</ele><time>2026-04-11T16:35:44.999Z</time></trkpt><trkpt lat="44.686589626909345" lon="8.034137530169534"><ele>184.39999999999998</ele><time>2026-04-11T16:35:46.999Z</time></trkpt><trkpt lat="44.68650461196045" lon="8.034130369430006"><ele>184.6</ele><time>2026-04-11T16:35:48.999Z</time></trkpt><trkpt lat="44.68640733427068" lon="8.034131926714824"><ele>184.8</ele><time>2026-04-11T16:35:50.999Z</time></trkpt><trkpt lat="44.68631344007254" lon="8.034114910253482"><ele>185.0</ele><time>2026-04-11T16:35:52.999Z</time></trkpt><trkpt lat="44.68622636821453" lon="8.03410844323805"><ele>185.0</ele><time>2026-04-11T16:35:54.999Z</time></trkpt><trkpt lat="44.6861653789013" lon="8.034156161694249"><ele>185.0</ele><time>2026-04-11T16:35:56.999Z</time></trkpt><trkpt lat="44.686098035645216" lon="8.034201034593321"><ele>185.0</ele><time>2026-04-11T16:35:58.999Z</time></trkpt><trkpt lat="44.686015606352996" lon="8.034230764263496"><ele>185.0</ele><time>2026-04-11T16:36:00.999Z</time></trkpt><trkpt lat="44.685936217635884" lon="8.034261379503402"><ele>185.0</ele><time>2026-04-11T16:36:02.999Z</time></trkpt><trkpt lat="44.685853794363794" lon="8.034300260433724"><ele>185.0</ele><time>2026-04-11T16:36:04.999Z</time></trkpt><trkpt lat="44.68576901410889" lon="8.034335842525646"><ele>185.0</ele><time>2026-04-11T16:36:07Z</time></trkpt><trkpt lat="44.68570107074633" lon="8.03435089889401"><ele>185.0</ele><time>2026-04-11T16:36:08Z</time></trkpt><trkpt lat="44.68561458784626" lon="8.034394911595633"><ele>185.0</ele><time>2026-04-11T16:36:10Z</time></trkpt><trkpt lat="44.685508430692266" lon="8.034454320738119"><ele>185.0</ele><time>2026-04-11T16:36:12Z</time></trkpt><trkpt lat="44.68540871703095" lon="8.034505094890056"><ele>185.0</ele><time>2026-04-11T16:36:14Z</time></trkpt><trkpt lat="44.685320886277644" lon="8.034575674917024"><ele>185.66666666666666</ele><time>2026-04-11T16:36:16Z</time></trkpt><trkpt lat="44.68522146611612" lon="8.034617919031682"><ele>186.33333333333331</ele><time>2026-04-11T16:36:18Z</time></trkpt><trkpt lat="44.68513610408204" lon="8.034650645508115"><ele>187.0</ele><time>2026-04-11T16:36:21Z</time></trkpt><trkpt lat="44.685075180126134" lon="8.03470247063912"><ele>187.66666666666666</ele><time>2026-04-11T16:36:24Z</time></trkpt><trkpt lat="44.68501076812612" lon="8.03473232308703"><ele>188.33333333333334</ele><time>2026-04-11T16:36:25Z</time></trkpt><trkpt lat="44.68492566688508" lon="8.034773449830759"><ele>189.0</ele><time>2026-04-11T16:36:27Z</time></trkpt><trkpt lat="44.68483569639544" lon="8.034809679728248"><ele>189.0</ele><time>2026-04-11T16:36:29Z</time></trkpt><trkpt lat="44.68473823331936" lon="8.034838054077419"><ele>189.0</ele><time>2026-04-11T16:36:31Z</time></trkpt><trkpt lat="44.68464244045719" lon="8.034883666574547"><ele>189.0</ele><time>2026-04-11T16:36:33Z</time></trkpt><trkpt lat="44.68454108068559" lon="8.034919665912563"><ele>189.0</ele><time>2026-04-11T16:36:35Z</time></trkpt><trkpt lat="44.684424739859196" lon="8.034956371333648"><ele>189.0</ele><time>2026-04-11T16:36:38Z</time></trkpt><trkpt lat="44.68436512747056" lon="8.035027656362855"><ele>189.0</ele><time>2026-04-11T16:36:41Z</time></trkpt><trkpt lat="44.68412134794815" lon="8.03508663199638"><ele>189.0</ele><time>2026-04-11T16:36:43Z</time></trkpt><trkpt lat="44.684053235300574" lon="8.035097976018134"><ele>189.0</ele><time>2026-04-11T16:36:44Z</time></trkpt><trkpt lat="44.683958746252074" lon="8.035161739949395"><ele>189.0</ele><time>2026-04-11T16:36:46Z</time></trkpt><trkpt lat="44.683863365099256" lon="8.035225733218802"><ele>189.0</ele><time>2026-04-11T16:36:48Z</time></trkpt><trkpt lat="44.68377230027892" lon="8.03526640618903"><ele>189.0</ele><time>2026-04-11T16:36:50Z</time></trkpt><trkpt lat="44.683712541145546" lon="8.035300836794686"><ele>189.0</ele><time>2026-04-11T16:36:51Z</time></trkpt><trkpt lat="44.683650971126674" lon="8.0353241896668"><ele>189.0</ele><time>2026-04-11T16:36:52Z</time></trkpt><trkpt lat="44.68358329614004" lon="8.035352876794066"><ele>189.0</ele><time>2026-04-11T16:36:53Z</time></trkpt><trkpt lat="44.68351136617377" lon="8.035388066667995"><ele>189.0</ele><time>2026-04-11T16:36:54Z</time></trkpt><trkpt lat="44.68340317921781" lon="8.035416742675517"><ele>189.79999999999998</ele><time>2026-04-11T16:36:56Z</time></trkpt><trkpt lat="44.6833005758214" lon="8.03547087717872"><ele>190.6</ele><time>2026-04-11T16:36:58Z</time></trkpt><trkpt lat="44.68320380010934" lon="8.035486126979873"><ele>191.4</ele><time>2026-04-11T16:37:00Z</time></trkpt><trkpt lat="44.68314362798238" lon="8.035545645267453"><ele>192.2</ele><time>2026-04-11T16:37:01Z</time></trkpt><trkpt lat="44.68304975104395" lon="8.03559528684979"><ele>193.0</ele><time>2026-04-11T16:37:03Z</time></trkpt><trkpt lat="44.68296788656651" lon="8.035635364393487"><ele>193.0</ele><time>2026-04-11T16:37:05Z</time></trkpt><trkpt lat="44.68287980173026" lon="8.035674748327091"><ele>193.0</ele><time>2026-04-11T16:37:07Z</time></trkpt><trkpt lat="44.682763553366165" lon="8.035721764363668"><ele>193.0</ele><time>2026-04-11T16:37:09Z</time></trkpt><trkpt lat="44.68265348615785" lon="8.035771196891604"><ele>193.0</ele><time>2026-04-11T16:37:11Z</time></trkpt><trkpt lat="44.68253990590889" lon="8.035812013961419"><ele>193.0</ele><time>2026-04-11T16:37:12.999Z</time></trkpt><trkpt lat="44.68242293838351" lon="8.0358556502804"><ele>192.25</ele><time>2026-04-11T16:37:14.999Z</time></trkpt><trkpt lat="44.68231456657134" lon="8.035901281092"><ele>191.5</ele><time>2026-04-11T16:37:16.999Z</time></trkpt><trkpt lat="44.68220245442395" lon="8.035952166273306"><ele>190.75</ele><time>2026-04-11T16:37:18.999Z</time></trkpt><trkpt lat="44.682089372653195" lon="8.035985754229069"><ele>190.0</ele><time>2026-04-11T16:37:20.999Z</time></trkpt><trkpt lat="44.68198224333304" lon="8.036038013157667"><ele>190.8</ele><time>2026-04-11T16:37:22.999Z</time></trkpt><trkpt lat="44.681864875916304" lon="8.036095506727975"><ele>191.6</ele><time>2026-04-11T16:37:24.999Z</time></trkpt><trkpt lat="44.68175353983697" lon="8.036144948649373"><ele>192.39999999999998</ele><time>2026-04-11T16:37:26.999Z</time></trkpt><trkpt lat="44.6816927631602" lon="8.036172504006267"><ele>193.2</ele><time>2026-04-11T16:37:27.999Z</time></trkpt><trkpt lat="44.681574039959635" lon="8.036219477551457"><ele>194.0</ele><time>2026-04-11T16:37:29.999Z</time></trkpt><trkpt lat="44.68145613376815" lon="8.036273158988324"><ele>194.0</ele><time>2026-04-11T16:37:31.999Z</time></trkpt><trkpt lat="44.68133508799723" lon="8.036332030679976"><ele>194.0</ele><time>2026-04-11T16:37:33.999Z</time></trkpt><trkpt lat="44.68127253412961" lon="8.036363878461996"><ele>194.0</ele><time>2026-04-11T16:37:34.999Z</time></trkpt><trkpt lat="44.681150133726526" lon="8.036415172506874"><ele>194.0</ele><time>2026-04-11T16:37:36.999Z</time></trkpt><trkpt lat="44.68109025508589" lon="8.036445188767507"><ele>194.0</ele><time>2026-04-11T16:37:37.999Z</time></trkpt><trkpt lat="44.680972451785735" lon="8.036512891990315"><ele>194.79999999999998</ele><time>2026-04-11T16:37:39.999Z</time></trkpt><trkpt lat="44.680908329188846" lon="8.036531069685484"><ele>195.6</ele><time>2026-04-11T16:37:40.999Z</time></trkpt><trkpt lat="44.68079344609314" lon="8.036583135471522"><ele>196.4</ele><time>2026-04-11T16:37:42.999Z</time></trkpt><trkpt lat="44.68073177883755" lon="8.036610919732778"><ele>197.2</ele><time>2026-04-11T16:37:43.999Z</time></trkpt><trkpt lat="44.680615873480676" lon="8.036671701675646"><ele>198.0</ele><time>2026-04-11T16:37:45.999Z</time></trkpt><trkpt lat="44.680499254915816" lon="8.036730432614165"><ele>196.75</ele><time>2026-04-11T16:37:47.999Z</time></trkpt><trkpt lat="44.68038244591522" lon="8.036778510666583"><ele>195.5</ele><time>2026-04-11T16:37:49.999Z</time></trkpt><trkpt lat="44.68026528166321" lon="8.036829036646068"><ele>194.25</ele><time>2026-04-11T16:37:51.999Z</time></trkpt><trkpt lat="44.68015693243437" lon="8.03689006056217"><ele>193.0</ele><time>2026-04-11T16:37:53.999Z</time></trkpt><trkpt lat="44.680038278610894" lon="8.03693360764245"><ele>193.0</ele><time>2026-04-11T16:37:55.999Z</time></trkpt><trkpt lat="44.679922100086" lon="8.036989211365862"><ele>193.0</ele><time>2026-04-11T16:37:57.999Z</time></trkpt><trkpt lat="44.67980305898686" lon="8.037042469363772"><ele>193.0</ele><time>2026-04-11T16:37:59.999Z</time></trkpt><trkpt lat="44.67969223181865" lon="8.037102034053317"><ele>193.0</ele><time>2026-04-11T16:38:01.999Z</time></trkpt><trkpt lat="44.67958377012084" lon="8.03715763660079"><ele>193.0</ele><time>2026-04-11T16:38:03.999Z</time></trkpt><trkpt lat="44.67946917985881" lon="8.037205185570864"><ele>193.0</ele><time>2026-04-11T16:38:05.999Z</time></trkpt><trkpt lat="44.679357808102736" lon="8.037263698483084"><ele>193.0</ele><time>2026-04-11T16:38:07.999Z</time></trkpt><trkpt lat="44.67923919771774" lon="8.037306684592942"><ele>193.0</ele><time>2026-04-11T16:38:09.999Z</time></trkpt><trkpt lat="44.67918001829951" lon="8.037338379561929"><ele>193.0</ele><time>2026-04-11T16:38:10.999Z</time></trkpt><trkpt lat="44.67911870933544" lon="8.037366816843944"><ele>193.5</ele><time>2026-04-11T16:38:12Z</time></trkpt><trkpt lat="44.67900153174058" lon="8.037407841522228"><ele>194.0</ele><time>2026-04-11T16:38:14Z</time></trkpt><trkpt lat="44.678888478277585" lon="8.037460177099602"><ele>194.5</ele><time>2026-04-11T16:38:16Z</time></trkpt><trkpt lat="44.67877252675222" lon="8.037511212556192"><ele>195.0</ele><time>2026-04-11T16:38:18Z</time></trkpt><trkpt lat="44.67865759310744" lon="8.037557545958366"><ele>194.25</ele><time>2026-04-11T16:38:20Z</time></trkpt><trkpt lat="44.678545926753365" lon="8.037592141223547"><ele>193.5</ele><time>2026-04-11T16:38:22Z</time></trkpt><trkpt lat="44.67843569017743" lon="8.037645071909994"><ele>192.75</ele><time>2026-04-11T16:38:24Z</time></trkpt><trkpt lat="44.67833231926274" lon="8.037714232008517"><ele>192.0</ele><time>2026-04-11T16:38:26Z</time></trkpt><trkpt lat="44.67821784820542" lon="8.037766466110245"><ele>192.0</ele><time>2026-04-11T16:38:28Z</time></trkpt><trkpt lat="44.6781025593969" lon="8.03780852930632"><ele>192.0</ele><time>2026-04-11T16:38:30Z</time></trkpt><trkpt lat="44.67798891763245" lon="8.037865360038591"><ele>192.0</ele><time>2026-04-11T16:38:32Z</time></trkpt><trkpt lat="44.67787137426935" lon="8.037913126015974"><ele>192.0</ele><time>2026-04-11T16:38:34Z</time></trkpt><trkpt lat="44.67775697941053" lon="8.037970781771715"><ele>192.0</ele><time>2026-04-11T16:38:36Z</time></trkpt><trkpt lat="44.67763495425023" lon="8.038021596485907"><ele>192.0</ele><time>2026-04-11T16:38:38Z</time></trkpt><trkpt lat="44.67752029395781" lon="8.038073998535832"><ele>192.0</ele><time>2026-04-11T16:38:40Z</time></trkpt><trkpt lat="44.67740653492823" lon="8.038133353850286"><ele>192.0</ele><time>2026-04-11T16:38:42Z</time></trkpt><trkpt lat="44.677288601761326" lon="8.03817376765788"><ele>192.0</ele><time>2026-04-11T16:38:44Z</time></trkpt><trkpt lat="44.67717519606402" lon="8.038227493035143"><ele>192.0</ele><time>2026-04-11T16:38:46Z</time></trkpt><trkpt lat="44.67711354921872" lon="8.03825291676929"><ele>192.0</ele><time>2026-04-11T16:38:47Z</time></trkpt><trkpt lat="44.67705325272907" lon="8.038282802215152"><ele>192.0</ele><time>2026-04-11T16:38:48Z</time></trkpt><trkpt lat="44.676941573790785" lon="8.038334523103119"><ele>192.0</ele><time>2026-04-11T16:38:50Z</time></trkpt><trkpt lat="44.67682517023425" lon="8.038389940192898"><ele>191.5</ele><time>2026-04-11T16:38:52Z</time></trkpt><trkpt lat="44.67676416570004" lon="8.038412670671429"><ele>191.0</ele><time>2026-04-11T16:38:53Z</time></trkpt><trkpt lat="44.676706991154965" lon="8.038453890873521"><ele>190.5</ele><time>2026-04-11T16:38:54Z</time></trkpt><trkpt lat="44.676594004439295" lon="8.038505948043587"><ele>190.0</ele><time>2026-04-11T16:38:56Z</time></trkpt><trkpt lat="44.67646272275762" lon="8.038552109983122"><ele>189.5</ele><time>2026-04-11T16:38:58Z</time></trkpt><trkpt lat="44.676401584683404" lon="8.038581422304155"><ele>189.0</ele><time>2026-04-11T16:38:59Z</time></trkpt><trkpt lat="44.6762813911459" lon="8.038641332594228"><ele>189.0</ele><time>2026-04-11T16:39:01Z</time></trkpt><trkpt lat="44.67616058523736" lon="8.038689614564529"><ele>189.0</ele><time>2026-04-11T16:39:03Z</time></trkpt><trkpt lat="44.676098968143116" lon="8.038715614831434"><ele>189.0</ele><time>2026-04-11T16:39:04Z</time></trkpt><trkpt lat="44.67603765009005" lon="8.038742869628837"><ele>189.0</ele><time>2026-04-11T16:39:05Z</time></trkpt><trkpt lat="44.675975503587175" lon="8.038769376646183"><ele>189.0</ele><time>2026-04-11T16:39:06Z</time></trkpt><trkpt lat="44.675914119051534" lon="8.038791606600975"><ele>189.0</ele><time>2026-04-11T16:39:07Z</time></trkpt><trkpt lat="44.67585123441066" lon="8.03882127125829"><ele>189.0</ele><time>2026-04-11T16:39:08Z</time></trkpt><trkpt lat="44.67578973369042" lon="8.038851432747531"><ele>189.5</ele><time>2026-04-11T16:39:09Z</time></trkpt><trkpt lat="44.67572787635442" lon="8.038884331705884"><ele>190.0</ele><time>2026-04-11T16:39:10Z</time></trkpt><trkpt lat="44.67566629135658" lon="8.038909605684335"><ele>190.5</ele><time>2026-04-11T16:39:11Z</time></trkpt><trkpt lat="44.675606681042794" lon="8.03893881901889"><ele>191.0</ele><time>2026-04-11T16:39:12Z</time></trkpt><trkpt lat="44.6754845612078" lon="8.038989612546452"><ele>191.5</ele><time>2026-04-11T16:39:14Z</time></trkpt><trkpt lat="44.67536599882071" lon="8.039044625805603"><ele>192.0</ele><time>2026-04-11T16:39:16Z</time></trkpt><trkpt lat="44.675248631045704" lon="8.039102396956581"><ele>191.83333333333334</ele><time>2026-04-11T16:39:18Z</time></trkpt><trkpt lat="44.6751336423981" lon="8.039156749143409"><ele>191.66666666666666</ele><time>2026-04-11T16:39:20Z</time></trkpt><trkpt lat="44.67507324968318" lon="8.039185745715695"><ele>191.5</ele><time>2026-04-11T16:39:21Z</time></trkpt><trkpt lat="44.675011695194044" lon="8.039210578644871"><ele>191.33333333333331</ele><time>2026-04-11T16:39:22Z</time></trkpt><trkpt lat="44.67495186591139" lon="8.03924108805511"><ele>191.16666666666666</ele><time>2026-04-11T16:39:23Z</time></trkpt><trkpt lat="44.67483780439681" lon="8.03929377255147"><ele>191.0</ele><time>2026-04-11T16:39:24.999Z</time></trkpt><trkpt lat="44.67472099898982" lon="8.039348564348185"><ele>191.0</ele><time>2026-04-11T16:39:26.999Z</time></trkpt><trkpt lat="44.67460834868573" lon="8.03939659723339"><ele>191.0</ele><time>2026-04-11T16:39:28.999Z</time></trkpt><trkpt lat="44.674497301721395" lon="8.039444811318418"><ele>191.0</ele><time>2026-04-11T16:39:30.999Z</time></trkpt><trkpt lat="44.674387610668134" lon="8.039489280169624"><ele>191.0</ele><time>2026-04-11T16:39:32.999Z</time></trkpt><trkpt lat="44.67428591831911" lon="8.039534025704732"><ele>191.20000000000002</ele><time>2026-04-11T16:39:34.999Z</time></trkpt><trkpt lat="44.67418809203355" lon="8.039572847458386"><ele>191.4</ele><time>2026-04-11T16:39:36.999Z</time></trkpt><trkpt lat="44.67408371723149" lon="8.039624000760128"><ele>191.6</ele><time>2026-04-11T16:39:38.999Z</time></trkpt><trkpt lat="44.67397639989712" lon="8.039673934402204"><ele>191.8</ele><time>2026-04-11T16:39:40.999Z</time></trkpt><trkpt lat="44.67385819019543" lon="8.03972165317545"><ele>192.0</ele><time>2026-04-11T16:39:42.999Z</time></trkpt><trkpt lat="44.67374409547106" lon="8.039772180114722"><ele>192.0</ele><time>2026-04-11T16:39:44.999Z</time></trkpt><trkpt lat="44.67362628598125" lon="8.039816955506117"><ele>192.0</ele><time>2026-04-11T16:39:46.999Z</time></trkpt><trkpt lat="44.67351103738521" lon="8.03987413628959"><ele>192.0</ele><time>2026-04-11T16:39:48.999Z</time></trkpt><trkpt lat="44.67340053888564" lon="8.039925395611279"><ele>192.0</ele><time>2026-04-11T16:39:50.999Z</time></trkpt><trkpt lat="44.67329418423709" lon="8.039976751992132"><ele>192.0</ele><time>2026-04-11T16:39:52.999Z</time></trkpt><trkpt lat="44.67318541079841" lon="8.040019707544333"><ele>192.0</ele><time>2026-04-11T16:39:54.999Z</time></trkpt><trkpt lat="44.673080109804225" lon="8.040064752167993"><ele>192.0</ele><time>2026-04-11T16:39:56.999Z</time></trkpt><trkpt lat="44.67297547162541" lon="8.040106458921981"><ele>192.0</ele><time>2026-04-11T16:39:58.999Z</time></trkpt><trkpt lat="44.672870957422546" lon="8.040142164228556"><ele>192.0</ele><time>2026-04-11T16:40:00.999Z</time></trkpt><trkpt lat="44.672767863667346" lon="8.04018054604056"><ele>192.39999999999998</ele><time>2026-04-11T16:40:02.999Z</time></trkpt><trkpt lat="44.672662902186524" lon="8.040217408092055"><ele>192.79999999999998</ele><time>2026-04-11T16:40:04.999Z</time></trkpt><trkpt lat="44.67256383576337" lon="8.040257576533588"><ele>193.2</ele><time>2026-04-11T16:40:06.999Z</time></trkpt><trkpt lat="44.67245940132622" lon="8.040297048163769"><ele>193.6</ele><time>2026-04-11T16:40:08.999Z</time></trkpt><trkpt lat="44.67235852025401" lon="8.040341859441373"><ele>194.0</ele><time>2026-04-11T16:40:10.999Z</time></trkpt><trkpt lat="44.67226452659144" lon="8.040394017485525"><ele>194.0</ele><time>2026-04-11T16:40:12.999Z</time></trkpt><trkpt lat="44.67217266125236" lon="8.040445270483652"><ele>194.0</ele><time>2026-04-11T16:40:14.999Z</time></trkpt><trkpt lat="44.67207588607114" lon="8.040497742042552"><ele>194.0</ele><time>2026-04-11T16:40:16.999Z</time></trkpt><trkpt lat="44.6719874508836" lon="8.04053914030165"><ele>194.0</ele><time>2026-04-11T16:40:19Z</time></trkpt><trkpt lat="44.671890822220576" lon="8.04058609303804"><ele>194.0</ele><time>2026-04-11T16:40:21Z</time></trkpt><trkpt lat="44.671802401965046" lon="8.040631572740446"><ele>194.0</ele><time>2026-04-11T16:40:23Z</time></trkpt><trkpt lat="44.67171303378345" lon="8.040680513161709"><ele>194.0</ele><time>2026-04-11T16:40:25Z</time></trkpt><trkpt lat="44.67162706268822" lon="8.04071737403695"><ele>194.0</ele><time>2026-04-11T16:40:27Z</time></trkpt><trkpt lat="44.671539152130194" lon="8.040761322980305"><ele>194.0</ele><time>2026-04-11T16:40:29Z</time></trkpt><trkpt lat="44.671453385794024" lon="8.04080155819004"><ele>194.0</ele><time>2026-04-11T16:40:31Z</time></trkpt><trkpt lat="44.67136905798905" lon="8.040846514085564"><ele>194.0</ele><time>2026-04-11T16:40:33Z</time></trkpt><trkpt lat="44.67127722164176" lon="8.040889908474803"><ele>194.0</ele><time>2026-04-11T16:40:35Z</time></trkpt><trkpt lat="44.671186380634765" lon="8.040930565383078"><ele>194.0</ele><time>2026-04-11T16:40:37Z</time></trkpt><trkpt lat="44.671091742290955" lon="8.040970476640721"><ele>194.0</ele><time>2026-04-11T16:40:39Z</time></trkpt><trkpt lat="44.67099733031843" lon="8.04101021381752"><ele>194.0</ele><time>2026-04-11T16:40:41Z</time></trkpt><trkpt lat="44.67090350921551" lon="8.041056654648454"><ele>195.2</ele><time>2026-04-11T16:40:43Z</time></trkpt><trkpt lat="44.67080954603399" lon="8.041099288685812"><ele>196.39999999999998</ele><time>2026-04-11T16:40:45Z</time></trkpt><trkpt lat="44.670715352858586" lon="8.041141806192083"><ele>197.6</ele><time>2026-04-11T16:40:47Z</time></trkpt><trkpt lat="44.670619826378704" lon="8.041182103643841"><ele>198.8</ele><time>2026-04-11T16:40:49Z</time></trkpt><trkpt lat="44.670526203743385" lon="8.041224830515567"><ele>200.0</ele><time>2026-04-11T16:40:51Z</time></trkpt><trkpt lat="44.670430243805114" lon="8.041267114256936"><ele>200.0</ele><time>2026-04-11T16:40:53Z</time></trkpt><trkpt lat="44.67033780254133" lon="8.041309487558914"><ele>200.0</ele><time>2026-04-11T16:40:55Z</time></trkpt><trkpt lat="44.67024681136144" lon="8.041348959831497"><ele>200.0</ele><time>2026-04-11T16:40:57Z</time></trkpt><trkpt lat="44.67014547789675" lon="8.041392407944397"><ele>200.0</ele><time>2026-04-11T16:40:59Z</time></trkpt><trkpt lat="44.67005057791433" lon="8.041433765059113"><ele>200.0</ele><time>2026-04-11T16:41:01Z</time></trkpt><trkpt lat="44.669954635118444" lon="8.041461817932792"><ele>199.8</ele><time>2026-04-11T16:41:03Z</time></trkpt><trkpt lat="44.6698584598583" lon="8.04149830522728"><ele>199.6</ele><time>2026-04-11T16:41:05Z</time></trkpt><trkpt lat="44.66977290674327" lon="8.041549319947789"><ele>199.39999999999998</ele><time>2026-04-11T16:41:07Z</time></trkpt><trkpt lat="44.66967921315246" lon="8.041581195600163"><ele>199.2</ele><time>2026-04-11T16:41:09Z</time></trkpt><trkpt lat="44.66957816607813" lon="8.041623179702016"><ele>199.0</ele><time>2026-04-11T16:41:11Z</time></trkpt><trkpt lat="44.66947054761108" lon="8.041673853869478"><ele>198.75</ele><time>2026-04-11T16:41:13Z</time></trkpt><trkpt lat="44.669363042145726" lon="8.041729771397968"><ele>198.5</ele><time>2026-04-11T16:41:15Z</time></trkpt><trkpt lat="44.66925164939316" lon="8.04177567333741"><ele>198.25</ele><time>2026-04-11T16:41:17Z</time></trkpt><trkpt lat="44.6691456772479" lon="8.041825246614119"><ele>198.0</ele><time>2026-04-11T16:41:19Z</time></trkpt><trkpt lat="44.669036821231316" lon="8.041871975963991"><ele>198.0</ele><time>2026-04-11T16:41:21Z</time></trkpt><trkpt lat="44.66893175220567" lon="8.041915349823368"><ele>198.0</ele><time>2026-04-11T16:41:23Z</time></trkpt><trkpt lat="44.66882931209032" lon="8.04196379668486"><ele>198.0</ele><time>2026-04-11T16:41:24.999Z</time></trkpt><trkpt lat="44.66872222544635" lon="8.042003577151183"><ele>198.0</ele><time>2026-04-11T16:41:26.999Z</time></trkpt><trkpt lat="44.668621376423985" lon="8.04205025572681"><ele>198.0</ele><time>2026-04-11T16:41:28.999Z</time></trkpt><trkpt lat="44.66851479762497" lon="8.042094385325726"><ele>198.4</ele><time>2026-04-11T16:41:30.999Z</time></trkpt><trkpt lat="44.66841355819669" lon="8.042141503905995"><ele>198.8</ele><time>2026-04-11T16:41:32.999Z</time></trkpt><trkpt lat="44.668314319409944" lon="8.042187267117898"><ele>199.2</ele><time>2026-04-11T16:41:34.999Z</time></trkpt><trkpt lat="44.66821400647515" lon="8.04223820654344"><ele>199.6</ele><time>2026-04-11T16:41:36.999Z</time></trkpt><trkpt lat="44.66811007975705" lon="8.042278788153094"><ele>200.0</ele><time>2026-04-11T16:41:38.999Z</time></trkpt><trkpt lat="44.668006223355" lon="8.042328961752386"><ele>200.0</ele><time>2026-04-11T16:41:40.999Z</time></trkpt><trkpt lat="44.66790129314367" lon="8.04237767139804"><ele>200.0</ele><time>2026-04-11T16:41:42.999Z</time></trkpt><trkpt lat="44.66779582762929" lon="8.042425553240582"><ele>200.0</ele><time>2026-04-11T16:41:44.999Z</time></trkpt><trkpt lat="44.667693563114454" lon="8.042483993273247"><ele>200.0</ele><time>2026-04-11T16:41:46.999Z</time></trkpt><trkpt lat="44.667592625562015" lon="8.042534866103884"><ele>200.0</ele><time>2026-04-11T16:41:48.999Z</time></trkpt><trkpt lat="44.6674829435542" lon="8.042589872382884"><ele>200.4</ele><time>2026-04-11T16:41:50.999Z</time></trkpt><trkpt lat="44.66738905632679" lon="8.042632892585473"><ele>200.8</ele><time>2026-04-11T16:41:52.999Z</time></trkpt><trkpt lat="44.66728665684301" lon="8.04267451760729"><ele>201.2</ele><time>2026-04-11T16:41:54.999Z</time></trkpt><trkpt lat="44.667184427874965" lon="8.04271747580362"><ele>201.6</ele><time>2026-04-11T16:41:56.999Z</time></trkpt><trkpt lat="44.66708809589026" lon="8.042754115417685"><ele>202.0</ele><time>2026-04-11T16:41:58.999Z</time></trkpt><trkpt lat="44.666991531497864" lon="8.04279736497529"><ele>202.2</ele><time>2026-04-11T16:42:00.999Z</time></trkpt><trkpt lat="44.66689865174452" lon="8.042831691804013"><ele>202.39999999999998</ele><time>2026-04-11T16:42:02.999Z</time></trkpt><trkpt lat="44.66679655589212" lon="8.042880489413056"><ele>202.60000000000002</ele><time>2026-04-11T16:42:04.999Z</time></trkpt><trkpt lat="44.66670140734113" lon="8.042926417161592"><ele>202.8</ele><time>2026-04-11T16:42:06.999Z</time></trkpt><trkpt lat="44.66659564558115" lon="8.042967797989926"><ele>203.0</ele><time>2026-04-11T16:42:08.999Z</time></trkpt><trkpt lat="44.66649972821955" lon="8.043009394187177"><ele>203.0</ele><time>2026-04-11T16:42:10.999Z</time></trkpt><trkpt lat="44.666405349034655" lon="8.043050292352811"><ele>203.0</ele><time>2026-04-11T16:42:12.999Z</time></trkpt><trkpt lat="44.666312421775025" lon="8.043095020813874"><ele>203.0</ele><time>2026-04-11T16:42:14.999Z</time></trkpt><trkpt lat="44.66621620155693" lon="8.043131927346122"><ele>203.0</ele><time>2026-04-11T16:42:16.999Z</time></trkpt><trkpt lat="44.6661250866451" lon="8.04317921611597"><ele>203.0</ele><time>2026-04-11T16:42:18.999Z</time></trkpt><trkpt lat="44.666031268063016" lon="8.043223202466125"><ele>203.60000000000002</ele><time>2026-04-11T16:42:20.999Z</time></trkpt><trkpt lat="44.66593431597462" lon="8.043257550853"><ele>204.20000000000002</ele><time>2026-04-11T16:42:22.999Z</time></trkpt><trkpt lat="44.665843190421725" lon="8.043295214487708"><ele>204.8</ele><time>2026-04-11T16:42:25Z</time></trkpt><trkpt lat="44.66575045576666" lon="8.043338568612727"><ele>205.4</ele><time>2026-04-11T16:42:27Z</time></trkpt><trkpt lat="44.66565947731591" lon="8.043383025033576"><ele>206.0</ele><time>2026-04-11T16:42:29Z</time></trkpt><trkpt lat="44.66555703053207" lon="8.043432606041794"><ele>206.4</ele><time>2026-04-11T16:42:31Z</time></trkpt><trkpt lat="44.665462665253784" lon="8.043477501230159"><ele>206.8</ele><time>2026-04-11T16:42:33Z</time></trkpt><trkpt lat="44.66537009493732" lon="8.043508645325144"><ele>207.20000000000002</ele><time>2026-04-11T16:42:35Z</time></trkpt><trkpt lat="44.66527693779131" lon="8.04354771795066"><ele>207.60000000000002</ele><time>2026-04-11T16:42:37Z</time></trkpt><trkpt lat="44.665182229076656" lon="8.043591363752281"><ele>208.0</ele><time>2026-04-11T16:42:39Z</time></trkpt><trkpt lat="44.665088664662676" lon="8.043631616343314"><ele>208.0</ele><time>2026-04-11T16:42:41Z</time></trkpt><trkpt lat="44.66499235620655" lon="8.043677799170393"><ele>208.0</ele><time>2026-04-11T16:42:43Z</time></trkpt><trkpt lat="44.664890393587484" lon="8.043708847224341"><ele>208.0</ele><time>2026-04-11T16:42:45Z</time></trkpt><trkpt lat="44.66480375615836" lon="8.043756250830253"><ele>208.0</ele><time>2026-04-11T16:42:47Z</time></trkpt><trkpt lat="44.664709953308986" lon="8.04380634552519"><ele>208.0</ele><time>2026-04-11T16:42:49Z</time></trkpt><trkpt lat="44.664615143834155" lon="8.043848368768636"><ele>208.0</ele><time>2026-04-11T16:42:51Z</time></trkpt><trkpt lat="44.66452423441788" lon="8.04388609636202"><ele>208.0</ele><time>2026-04-11T16:42:53Z</time></trkpt><trkpt lat="44.66442783855608" lon="8.043931820107554"><ele>208.0</ele><time>2026-04-11T16:42:55Z</time></trkpt><trkpt lat="44.66433687824454" lon="8.043967238529115"><ele>208.0</ele><time>2026-04-11T16:42:57Z</time></trkpt><trkpt lat="44.66424206251768" lon="8.044012174253515"><ele>208.0</ele><time>2026-04-11T16:42:59Z</time></trkpt><trkpt lat="44.66415021205847" lon="8.044058976580368"><ele>207.99999999999997</ele><time>2026-04-11T16:43:01Z</time></trkpt><trkpt lat="44.66406205469135" lon="8.044105563316334"><ele>208.0</ele><time>2026-04-11T16:43:03Z</time></trkpt><trkpt lat="44.663974658412194" lon="8.044138479117596"><ele>208.0</ele><time>2026-04-11T16:43:05Z</time></trkpt><trkpt lat="44.66390701918339" lon="8.044169633580086"><ele>208.0</ele><time>2026-04-11T16:43:07Z</time></trkpt><trkpt lat="44.66382886898883" lon="8.044208711920207"><ele>207.99999999999997</ele><time>2026-04-11T16:43:09Z</time></trkpt><trkpt lat="44.66374032430264" lon="8.044239879253027"><ele>208.0</ele><time>2026-04-11T16:43:11Z</time></trkpt><trkpt lat="44.66365109724947" lon="8.044275957047958"><ele>208.60000000000002</ele><time>2026-04-11T16:43:13Z</time></trkpt><trkpt lat="44.663562219307586" lon="8.044317601046501"><ele>209.20000000000002</ele><time>2026-04-11T16:43:15Z</time></trkpt><trkpt lat="44.66346939631383" lon="8.044362608476726"><ele>209.8</ele><time>2026-04-11T16:43:17Z</time></trkpt><trkpt lat="44.66337451692492" lon="8.044393141430298"><ele>210.4</ele><time>2026-04-11T16:43:19Z</time></trkpt><trkpt lat="44.663284143951394" lon="8.04443901126691"><ele>211.0</ele><time>2026-04-11T16:43:21Z</time></trkpt><trkpt lat="44.66318706719521" lon="8.044473422292665"><ele>211.0</ele><time>2026-04-11T16:43:23Z</time></trkpt><trkpt lat="44.663094104472755" lon="8.044518935300541"><ele>211.0</ele><time>2026-04-11T16:43:25Z</time></trkpt><trkpt lat="44.662998964853145" lon="8.044564159234785"><ele>211.0</ele><time>2026-04-11T16:43:27Z</time></trkpt><trkpt lat="44.66290483508475" lon="8.044606964688159"><ele>211.0</ele><time>2026-04-11T16:43:29Z</time></trkpt><trkpt lat="44.6627769452972" lon="8.044685031619633"><ele>211.0</ele><time>2026-04-11T16:43:32Z</time></trkpt><trkpt lat="44.66267297169952" lon="8.044719810644017"><ele>211.60000000000002</ele><time>2026-04-11T16:43:33.999Z</time></trkpt><trkpt lat="44.66257950984609" lon="8.04477033055847"><ele>212.2</ele><time>2026-04-11T16:43:35.999Z</time></trkpt><trkpt lat="44.66248947005326" lon="8.044802902313963"><ele>212.79999999999998</ele><time>2026-04-11T16:43:37.999Z</time></trkpt><trkpt lat="44.66238746657577" lon="8.044848537916804"><ele>213.39999999999998</ele><time>2026-04-11T16:43:39.999Z</time></trkpt><trkpt lat="44.66229289564929" lon="8.044895877973183"><ele>214.0</ele><time>2026-04-11T16:43:41.999Z</time></trkpt><trkpt lat="44.66219824843642" lon="8.044948173823805"><ele>214.2</ele><time>2026-04-11T16:43:43.999Z</time></trkpt><trkpt lat="44.66210084952936" lon="8.04497507523301"><ele>214.39999999999998</ele><time>2026-04-11T16:43:45.999Z</time></trkpt><trkpt lat="44.66199623741118" lon="8.045028396875367"><ele>214.6</ele><time>2026-04-11T16:43:47.999Z</time></trkpt><trkpt lat="44.6619042202992" lon="8.04507359131946"><ele>214.8</ele><time>2026-04-11T16:43:49.999Z</time></trkpt><trkpt lat="44.66179768112657" lon="8.045121101270764"><ele>215.0</ele><time>2026-04-11T16:43:51.999Z</time></trkpt><trkpt lat="44.66169995743013" lon="8.045152503747815"><ele>215.4</ele><time>2026-04-11T16:43:53.999Z</time></trkpt><trkpt lat="44.66161123016301" lon="8.045198170854562"><ele>215.8</ele><time>2026-04-11T16:43:55.999Z</time></trkpt><trkpt lat="44.66150712934115" lon="8.045239703330317"><ele>216.2</ele><time>2026-04-11T16:43:57.999Z</time></trkpt><trkpt lat="44.66141789976389" lon="8.045284091627742"><ele>216.6</ele><time>2026-04-11T16:43:59.999Z</time></trkpt><trkpt lat="44.661325265788925" lon="8.045333488530398"><ele>217.0</ele><time>2026-04-11T16:44:01.999Z</time></trkpt><trkpt lat="44.66123024385798" lon="8.04537894810512"><ele>217.0</ele><time>2026-04-11T16:44:03.999Z</time></trkpt><trkpt lat="44.66113357746349" lon="8.045420443987382"><ele>217.0</ele><time>2026-04-11T16:44:05.999Z</time></trkpt><trkpt lat="44.66103831452073" lon="8.045457122851856"><ele>217.0</ele><time>2026-04-11T16:44:07.999Z</time></trkpt><trkpt lat="44.66094641027704" lon="8.045497566356225"><ele>217.0</ele><time>2026-04-11T16:44:09.999Z</time></trkpt><trkpt lat="44.66084913798442" lon="8.045550363753629"><ele>217.0</ele><time>2026-04-11T16:44:11.999Z</time></trkpt><trkpt lat="44.660753814402845" lon="8.04559213161028"><ele>216.8</ele><time>2026-04-11T16:44:13.999Z</time></trkpt><trkpt lat="44.6606539879522" lon="8.04563666122777"><ele>216.6</ele><time>2026-04-11T16:44:15.999Z</time></trkpt><trkpt lat="44.66056389012347" lon="8.045675443310136"><ele>216.40000000000003</ele><time>2026-04-11T16:44:17.999Z</time></trkpt><trkpt lat="44.66046851104493" lon="8.045723134492805"><ele>216.20000000000002</ele><time>2026-04-11T16:44:19.999Z</time></trkpt><trkpt lat="44.66037086215837" lon="8.045770555622113"><ele>216.0</ele><time>2026-04-11T16:44:21.999Z</time></trkpt><trkpt lat="44.66027609910911" lon="8.045816665358863"><ele>217.0</ele><time>2026-04-11T16:44:23.999Z</time></trkpt><trkpt lat="44.660182605296654" lon="8.045860934711074"><ele>218.00000000000003</ele><time>2026-04-11T16:44:25.999Z</time></trkpt><trkpt lat="44.66008431717931" lon="8.045906002770385"><ele>219.00000000000003</ele><time>2026-04-11T16:44:27.999Z</time></trkpt><trkpt lat="44.659985042088145" lon="8.045953786386066"><ele>220.0</ele><time>2026-04-11T16:44:30Z</time></trkpt><trkpt lat="44.65989412359872" lon="8.045996483811354"><ele>221.0</ele><time>2026-04-11T16:44:32Z</time></trkpt><trkpt lat="44.65979896232048" lon="8.046044397353725"><ele>221.0</ele><time>2026-04-11T16:44:34Z</time></trkpt><trkpt lat="44.659704323430674" lon="8.046082738461768"><ele>221.00000000000003</ele><time>2026-04-11T16:44:36Z</time></trkpt><trkpt lat="44.65960830581795" lon="8.04612105384461"><ele>221.00000000000003</ele><time>2026-04-11T16:44:38Z</time></trkpt><trkpt lat="44.65951462000119" lon="8.046152699302725"><ele>221.0</ele><time>2026-04-11T16:44:40Z</time></trkpt><trkpt lat="44.6594192865647" lon="8.046198665636007"><ele>221.0</ele><time>2026-04-11T16:44:42Z</time></trkpt><trkpt lat="44.65932485498205" lon="8.046229169668718"><ele>221.0</ele><time>2026-04-11T16:44:44Z</time></trkpt><trkpt lat="44.65922908031637" lon="8.04627764824005"><ele>221.00000000000003</ele><time>2026-04-11T16:44:46Z</time></trkpt><trkpt lat="44.659133629368654" lon="8.046319351575638"><ele>221.00000000000003</ele><time>2026-04-11T16:44:48Z</time></trkpt><trkpt lat="44.659040092228494" lon="8.046364315449887"><ele>221.0</ele><time>2026-04-11T16:44:50Z</time></trkpt><trkpt lat="44.658946349493775" lon="8.046396807941635"><ele>221.0</ele><time>2026-04-11T16:44:52Z</time></trkpt><trkpt lat="44.658853893169095" lon="8.0464520254434"><ele>221.00000000000003</ele><time>2026-04-11T16:44:54Z</time></trkpt><trkpt lat="44.65876213905577" lon="8.046485271658701"><ele>221.0</ele><time>2026-04-11T16:44:56Z</time></trkpt><trkpt lat="44.65867289389452" lon="8.04652887001652"><ele>221.0</ele><time>2026-04-11T16:44:58Z</time></trkpt><trkpt lat="44.65859715066268" lon="8.046560450392109"><ele>221.0</ele><time>2026-04-11T16:45:00Z</time></trkpt><trkpt lat="44.65851713312053" lon="8.04659902848677"><ele>221.00000000000003</ele><time>2026-04-11T16:45:02Z</time></trkpt><trkpt lat="44.65845381667378" lon="8.046631747991855"><ele>221.0</ele><time>2026-04-11T16:45:04Z</time></trkpt><trkpt lat="44.65838716206824" lon="8.046618047241955"><ele>221.16666666666669</ele><time>2026-04-11T16:45:08Z</time></trkpt><trkpt lat="44.658368866827644" lon="8.046519887084237"><ele>221.33333333333334</ele><time>2026-04-11T16:45:12Z</time></trkpt><trkpt lat="44.658333906020665" lon="8.046406432210944"><ele>221.5</ele><time>2026-04-11T16:45:15Z</time></trkpt><trkpt lat="44.65829553387732" lon="8.046296925502302"><ele>221.66666666666669</ele><time>2026-04-11T16:45:17Z</time></trkpt><trkpt lat="44.65825216389648" lon="8.046183267456566"><ele>221.83333333333334</ele><time>2026-04-11T16:45:19Z</time></trkpt><trkpt lat="44.65818739617245" lon="8.046066376953785"><ele>222.0</ele><time>2026-04-11T16:45:21Z</time></trkpt><trkpt lat="44.6581273986316" lon="8.045947343149797"><ele>222.0</ele><time>2026-04-11T16:45:23Z</time></trkpt><trkpt lat="44.658075894192805" lon="8.045827396970532"><ele>222.0</ele><time>2026-04-11T16:45:25Z</time></trkpt><trkpt lat="44.65803676134051" lon="8.045694030081256"><ele>222.0</ele><time>2026-04-11T16:45:27Z</time></trkpt><trkpt lat="44.65800365693075" lon="8.045570231744858"><ele>222.0</ele><time>2026-04-11T16:45:29Z</time></trkpt><trkpt lat="44.657978748182664" lon="8.045460192751895"><ele>222.0</ele><time>2026-04-11T16:45:31Z</time></trkpt><trkpt lat="44.65796199577099" lon="8.045366655450753"><ele>222.0</ele><time>2026-04-11T16:45:33Z</time></trkpt><trkpt lat="44.657958718881105" lon="8.045251334609668"><ele>221.83333333333334</ele><time>2026-04-11T16:46:04.999Z</time></trkpt><trkpt lat="44.65793451467683" lon="8.045155267434385"><ele>221.66666666666669</ele><time>2026-04-11T16:46:07.999Z</time></trkpt><trkpt lat="44.65791039326138" lon="8.045030890325675"><ele>221.5</ele><time>2026-04-11T16:46:10.999Z</time></trkpt><trkpt lat="44.65788969651745" lon="8.044907438451911"><ele>221.33333333333334</ele><time>2026-04-11T16:46:13.999Z</time></trkpt><trkpt lat="44.657873247538845" lon="8.044815303032431"><ele>221.16666666666669</ele><time>2026-04-11T16:46:15.999Z</time></trkpt><trkpt lat="44.657859106620236" lon="8.044713413999823"><ele>221.0</ele><time>2026-04-11T16:46:17.999Z</time></trkpt><trkpt lat="44.65783974408835" lon="8.044607321689954"><ele>221.00000000000003</ele><time>2026-04-11T16:46:19.999Z</time></trkpt><trkpt lat="44.65783308456836" lon="8.044489714178242"><ele>221.0</ele><time>2026-04-11T16:46:21.999Z</time></trkpt><trkpt lat="44.65781041799647" lon="8.044380392462596"><ele>221.0</ele><time>2026-04-11T16:46:23.999Z</time></trkpt><trkpt lat="44.657798743890865" lon="8.044281005847711"><ele>221.0</ele><time>2026-04-11T16:46:25.999Z</time></trkpt><trkpt lat="44.65780276787003" lon="8.044176692827637"><ele>221.00000000000003</ele><time>2026-04-11T16:46:27.999Z</time></trkpt><trkpt lat="44.65780358220332" lon="8.044070922783819"><ele>221.0</ele><time>2026-04-11T16:46:29.999Z</time></trkpt><trkpt lat="44.657794010872806" lon="8.043964188881137"><ele>220.71428571428572</ele><time>2026-04-11T16:46:31.999Z</time></trkpt><trkpt lat="44.65778684546433" lon="8.043864368928496"><ele>220.42857142857144</ele><time>2026-04-11T16:46:33.999Z</time></trkpt><trkpt lat="44.65776457997914" lon="8.043772696885501"><ele>220.14285714285717</ele><time>2026-04-11T16:46:36Z</time></trkpt><trkpt lat="44.65774268918849" lon="8.043679871747887"><ele>219.85714285714286</ele><time>2026-04-11T16:46:38Z</time></trkpt><trkpt lat="44.65772206188575" lon="8.043591689623183"><ele>219.57142857142856</ele><time>2026-04-11T16:46:40Z</time></trkpt><trkpt lat="44.657691458385045" lon="8.043510226168122"><ele>219.2857142857143</ele><time>2026-04-11T16:46:42Z</time></trkpt><trkpt lat="44.657658300374536" lon="8.043421298506093"><ele>219.0</ele><time>2026-04-11T16:46:44Z</time></trkpt><trkpt lat="44.65763427488944" lon="8.043319019150273"><ele>220.66666666666666</ele><time>2026-04-11T16:46:46Z</time></trkpt><trkpt lat="44.65761558607164" lon="8.043223884492045"><ele>222.33333333333331</ele><time>2026-04-11T16:46:48Z</time></trkpt><trkpt lat="44.657600606681505" lon="8.043127862025214"><ele>224.0</ele><time>2026-04-11T16:46:50Z</time></trkpt><trkpt lat="44.65758603535993" lon="8.043037232116452"><ele>225.66666666666666</ele><time>2026-04-11T16:46:52Z</time></trkpt><trkpt lat="44.65757654022523" lon="8.04290800663041"><ele>227.33333333333331</ele><time>2026-04-11T16:46:55Z</time></trkpt><trkpt lat="44.65757685251408" lon="8.042788563366784"><ele>229.0</ele><time>2026-04-11T16:46:58Z</time></trkpt><trkpt lat="44.657581214245724" lon="8.042692157382731"><ele>229.0</ele><time>2026-04-11T16:47:01Z</time></trkpt><trkpt lat="44.657584510455365" lon="8.042600503707074"><ele>229.0</ele><time>2026-04-11T16:47:04Z</time></trkpt><trkpt lat="44.65759897879167" lon="8.042492785847568"><ele>229.0</ele><time>2026-04-11T16:47:08Z</time></trkpt><trkpt lat="44.657596776702874" lon="8.0423853663816"><ele>229.0</ele><time>2026-04-11T16:47:12Z</time></trkpt><trkpt lat="44.6576083708928" lon="8.04229776267098"><ele>229.0</ele><time>2026-04-11T16:47:15Z</time></trkpt><trkpt lat="44.657626389689575" lon="8.042210809781317"><ele>229.0</ele><time>2026-04-11T16:47:18Z</time></trkpt><trkpt lat="44.65763278151214" lon="8.042112194965"><ele>229.0</ele><time>2026-04-11T16:47:21Z</time></trkpt><trkpt lat="44.65763973046821" lon="8.042017901011638"><ele>230.33333333333331</ele><time>2026-04-11T16:47:24Z</time></trkpt><trkpt lat="44.65764260412279" lon="8.041909492789024"><ele>231.66666666666666</ele><time>2026-04-11T16:47:28Z</time></trkpt><trkpt lat="44.657633366360656" lon="8.041797811636107"><ele>233.0</ele><time>2026-04-11T16:47:32Z</time></trkpt><trkpt lat="44.657626744534156" lon="8.04169434267595"><ele>234.33333333333331</ele><time>2026-04-11T16:47:36Z</time></trkpt><trkpt lat="44.65759967797016" lon="8.041592775538366"><ele>235.66666666666666</ele><time>2026-04-11T16:47:40Z</time></trkpt><trkpt lat="44.657589007157775" lon="8.041494997871673"><ele>237.0</ele><time>2026-04-11T16:47:42.999Z</time></trkpt><trkpt lat="44.657557543722255" lon="8.041392276223931"><ele>237.85714285714283</ele><time>2026-04-11T16:47:46.999Z</time></trkpt><trkpt lat="44.65752880963187" lon="8.041303878172057"><ele>238.71428571428572</ele><time>2026-04-11T16:47:50.999Z</time></trkpt><trkpt lat="44.657525426416" lon="8.041210873502038"><ele>239.57142857142856</ele><time>2026-04-11T16:48:26.999Z</time></trkpt><trkpt lat="44.657503637775825" lon="8.041125721311241"><ele>240.42857142857142</ele><time>2026-04-11T16:48:36.999Z</time></trkpt><trkpt lat="44.65749792804401" lon="8.041028148472828"><ele>241.28571428571428</ele><time>2026-04-11T16:48:44Z</time></trkpt><trkpt lat="44.65747905280363" lon="8.040940136117255"><ele>242.14285714285714</ele><time>2026-04-11T16:48:53Z</time></trkpt><trkpt lat="44.65750943964639" lon="8.040844920548585"><ele>243.0</ele><time>2026-04-11T16:49:42Z</time></trkpt><trkpt lat="44.6575719847959" lon="8.040818085686837"><ele>243.0</ele><time>2026-04-11T16:50:00.999Z</time></trkpt><trkpt lat="44.65758133435479" lon="8.04090981010135"><ele>243.0</ele><time>2026-04-11T16:52:21.999Z</time></trkpt><trkpt lat="44.65751204816043" lon="8.040826646222703"><ele>243.0</ele><time>2026-04-11T16:52:27.999Z</time></trkpt><trkpt lat="44.6574473096703" lon="8.040795677481752"><ele>256.0</ele><time>2026-04-11T16:52:34.999Z</time></trkpt><trkpt lat="44.65751180566049" lon="8.040854497930704"><ele>243.0</ele><time>2026-04-11T16:52:58Z</time></trkpt><trkpt lat="44.65754759388922" lon="8.040943025811607"><ele>243.0</ele><time>2026-04-11T17:10:14Z</time></trkpt></trkseg></trk></gpx>